<?xml version='1.0' encoding='UTF-8'?><gpx version="1.1" creator="JPX - https://github.com/jenetics/jpx" xmlns="http://www.topografix.com/GPX/1/1"><trk><trkseg><trkpt lat="15.612931793411757" lon="120.58315519930143"><ele>29.000000000000004</ele><time>2026-04-19T04:33:58Z</time></trkpt><trkpt lat="15.61292779055783" lon="120.58308467419135"><ele>29.0</ele><time>2026-04-19T04:34:05Z</time></trkpt><trkpt lat="15.612876475721187" lon="120.58313299022704"><ele>29.000000000000004</ele><time>2026-04-19T04:34:13.001Z</time></trkpt><trkpt lat="15.612851307935955" lon="120.58320124764856"><ele>29.000000000000004</ele><time>2026-04-19T04:34:18.001Z</time></trkpt><trkpt lat="15.612887722835266" lon="120.58314137018694"><ele>29.0</ele><time>2026-04-19T04:45:27.002Z</time></trkpt><trkpt lat="15.612825006890677" lon="120.58312389901593"><ele>29.000000000000004</ele><time>2026-04-19T04:45:32.002Z</time></trkpt><trkpt lat="15.612809186832441" lon="120.58305220145424"><ele>29.000000000000004</ele><time>2026-04-19T04:45:38.002Z</time></trkpt><trkpt lat="15.612806417741803" lon="120.58298685864084"><ele>29.333333333333332</ele><time>2026-04-19T04:46:04.003Z</time></trkpt><trkpt lat="15.612750867576288" lon="120.58294996111135"><ele>29.666666666666664</ele><time>2026-04-19T04:46:11.001Z</time></trkpt><trkpt lat="15.612662340596657" lon="120.5829665871681"><ele>30.0</ele><time>2026-04-19T04:46:15.001Z</time></trkpt><trkpt lat="15.612563608737785" lon="120.58298504204582"><ele>30.333333333333336</ele><time>2026-04-19T04:46:18.001Z</time></trkpt><trkpt lat="15.612478398485317" lon="120.58300329583527"><ele>30.666666666666668</ele><time>2026-04-19T04:46:20.001Z</time></trkpt><trkpt lat="15.612382040137422" lon="120.58302261397036"><ele>31.0</ele><time>2026-04-19T04:46:22.001Z</time></trkpt><trkpt lat="15.612283177229854" lon="120.58304892779424"><ele>31.0</ele><time>2026-04-19T04:46:24.001Z</time></trkpt><trkpt lat="15.612184194415958" lon="120.5830743499263"><ele>31.0</ele><time>2026-04-19T04:46:26.001Z</time></trkpt><trkpt lat="15.612089906679905" lon="120.58310545739617"><ele>31.0</ele><time>2026-04-19T04:46:28.001Z</time></trkpt><trkpt lat="15.61198871452237" lon="120.58313896812021"><ele>31.0</ele><time>2026-04-19T04:46:30.001Z</time></trkpt><trkpt lat="15.611876336997092" lon="120.58317436056588"><ele>31.0</ele><time>2026-04-19T04:46:32.001Z</time></trkpt><trkpt lat="15.611758761566978" lon="120.58321411160018"><ele>30.666666666666668</ele><time>2026-04-19T04:46:34.001Z</time></trkpt><trkpt lat="15.61169671469115" lon="120.58323233011062"><ele>30.333333333333336</ele><time>2026-04-19T04:46:35.001Z</time></trkpt><trkpt lat="15.611587574300577" lon="120.58326360311558"><ele>30.0</ele><time>2026-04-19T04:46:36.001Z</time></trkpt><trkpt lat="15.61152423582581" lon="120.58328344984672"><ele>29.666666666666664</ele><time>2026-04-19T04:46:37.001Z</time></trkpt><trkpt lat="15.611462422821168" lon="120.5833030383032"><ele>29.333333333333332</ele><time>2026-04-19T04:46:38.001Z</time></trkpt><trkpt lat="15.61140205720326" lon="120.58332288741387"><ele>29.0</ele><time>2026-04-19T04:46:39.001Z</time></trkpt><trkpt lat="15.611285336122544" lon="120.58335619436076"><ele>28.999999999999996</ele><time>2026-04-19T04:46:41.001Z</time></trkpt><trkpt lat="15.611168895709271" lon="120.58339658244643"><ele>29.0</ele><time>2026-04-19T04:46:43.001Z</time></trkpt><trkpt lat="15.611108770474734" lon="120.58341872492707"><ele>29.0</ele><time>2026-04-19T04:46:44.001Z</time></trkpt><trkpt lat="15.611047554266662" lon="120.58344211991022"><ele>29.0</ele><time>2026-04-19T04:46:45.001Z</time></trkpt><trkpt lat="15.610982900518186" lon="120.58346438197641"><ele>28.999999999999996</ele><time>2026-04-19T04:46:46.001Z</time></trkpt><trkpt lat="15.610914448280734" lon="120.58347002022407"><ele>29.0</ele><time>2026-04-19T04:46:47.001Z</time></trkpt><trkpt lat="15.610856412446662" lon="120.58350077039808"><ele>29.285714285714292</ele><time>2026-04-19T04:46:48.001Z</time></trkpt><trkpt lat="15.610790627598112" lon="120.58352052387848"><ele>29.571428571428573</ele><time>2026-04-19T04:46:49.001Z</time></trkpt><trkpt lat="15.610724913734982" lon="120.58353545731754"><ele>29.85714285714286</ele><time>2026-04-19T04:46:50.001Z</time></trkpt><trkpt lat="15.610661189983508" lon="120.58355531188745"><ele>30.142857142857146</ele><time>2026-04-19T04:46:51.001Z</time></trkpt><trkpt lat="15.610596627919032" lon="120.58357329269208"><ele>30.42857142857143</ele><time>2026-04-19T04:46:52.001Z</time></trkpt><trkpt lat="15.61052963552943" lon="120.58359115042131"><ele>30.714285714285715</ele><time>2026-04-19T04:46:53.001Z</time></trkpt><trkpt lat="15.610463341324728" lon="120.58361027368073"><ele>31.0</ele><time>2026-04-19T04:46:54.001Z</time></trkpt><trkpt lat="15.61039846247065" lon="120.58362765051959"><ele>31.000000000000004</ele><time>2026-04-19T04:46:55.001Z</time></trkpt><trkpt lat="15.610332446165797" lon="120.58364266733814"><ele>31.0</ele><time>2026-04-19T04:46:56.002Z</time></trkpt><trkpt lat="15.610270160798366" lon="120.58365812549967"><ele>31.0</ele><time>2026-04-19T04:46:57.002Z</time></trkpt><trkpt lat="15.61020743857311" lon="120.58367314105892"><ele>31.0</ele><time>2026-04-19T04:46:58.002Z</time></trkpt><trkpt lat="15.610137915464566" lon="120.58368892443634"><ele>31.000000000000004</ele><time>2026-04-19T04:46:59.002Z</time></trkpt><trkpt lat="15.610024083383166" lon="120.58373645455754"><ele>31.0</ele><time>2026-04-19T04:47:01.002Z</time></trkpt><trkpt lat="15.609970053174127" lon="120.58377083570429"><ele>31.166666666666668</ele><time>2026-04-19T04:47:02.002Z</time></trkpt><trkpt lat="15.609915054268596" lon="120.58380914581402"><ele>31.333333333333336</ele><time>2026-04-19T04:47:03.002Z</time></trkpt><trkpt lat="15.609864451057105" lon="120.58384998244722"><ele>31.5</ele><time>2026-04-19T04:47:04.002Z</time></trkpt><trkpt lat="15.609775586320584" lon="120.58392924113619"><ele>31.666666666666664</ele><time>2026-04-19T04:47:06.002Z</time></trkpt><trkpt lat="15.609724884913108" lon="120.58397060183911"><ele>31.833333333333332</ele><time>2026-04-19T04:47:07.002Z</time></trkpt><trkpt lat="15.609635387853345" lon="120.58404673178487"><ele>32.0</ele><time>2026-04-19T04:47:09.002Z</time></trkpt><trkpt lat="15.609552823705094" lon="120.58412322710832"><ele>32.0</ele><time>2026-04-19T04:47:11.002Z</time></trkpt><trkpt lat="15.609486907824794" lon="120.58419574250962"><ele>32.0</ele><time>2026-04-19T04:47:13.002Z</time></trkpt><trkpt lat="15.609438232707395" lon="120.58426863749813"><ele>32.0</ele><time>2026-04-19T04:47:15.002Z</time></trkpt><trkpt lat="15.609454005363812" lon="120.58440475139436"><ele>32.0</ele><time>2026-04-19T04:47:18.002Z</time></trkpt><trkpt lat="15.609484734827008" lon="120.58451317252607"><ele>32.0</ele><time>2026-04-19T04:47:20.002Z</time></trkpt><trkpt lat="15.609512849325824" lon="120.58463639793003"><ele>32.0</ele><time>2026-04-19T04:47:22.002Z</time></trkpt><trkpt lat="15.609551386188365" lon="120.5847575915381"><ele>32.0</ele><time>2026-04-19T04:47:24.002Z</time></trkpt><trkpt lat="15.609580426747867" lon="120.58487744927373"><ele>32.0</ele><time>2026-04-19T04:47:26.002Z</time></trkpt><trkpt lat="15.609617430458579" lon="120.58499737825092"><ele>32.0</ele><time>2026-04-19T04:47:28.002Z</time></trkpt><trkpt lat="15.609653349250072" lon="120.58512168441823"><ele>31.999999999999996</ele><time>2026-04-19T04:47:30.002Z</time></trkpt><trkpt lat="15.60967251331013" lon="120.58518568288642"><ele>32.0</ele><time>2026-04-19T04:47:31.002Z</time></trkpt><trkpt lat="15.609708037684092" lon="120.5853109547806"><ele>32.0</ele><time>2026-04-19T04:47:33.002Z</time></trkpt><trkpt lat="15.609724634318782" lon="120.58537747578579"><ele>32.0</ele><time>2026-04-19T04:47:34.002Z</time></trkpt><trkpt lat="15.609741780282715" lon="120.58544363534634"><ele>31.999999999999996</ele><time>2026-04-19T04:47:35.002Z</time></trkpt><trkpt lat="15.609757459127433" lon="120.5855103423915"><ele>32.0</ele><time>2026-04-19T04:47:36.002Z</time></trkpt><trkpt lat="15.609771104582185" lon="120.58557813401316"><ele>31.857142857142854</ele><time>2026-04-19T04:47:37.002Z</time></trkpt><trkpt lat="15.609782591231957" lon="120.58564561417116"><ele>31.71428571428571</ele><time>2026-04-19T04:47:38.002Z</time></trkpt><trkpt lat="15.609795528287957" lon="120.58571215165861"><ele>31.57142857142857</ele><time>2026-04-19T04:47:39.002Z</time></trkpt><trkpt lat="15.609811886262376" lon="120.58577966274379"><ele>31.42857142857143</ele><time>2026-04-19T04:47:40.002Z</time></trkpt><trkpt lat="15.609828599241984" lon="120.58584680495451"><ele>31.28571428571429</ele><time>2026-04-19T04:47:41.002Z</time></trkpt><trkpt lat="15.609848862494573" lon="120.58591507286941"><ele>31.142857142857146</ele><time>2026-04-19T04:47:42.002Z</time></trkpt><trkpt lat="15.609867892098903" lon="120.585985076985"><ele>31.0</ele><time>2026-04-19T04:47:43.002Z</time></trkpt><trkpt lat="15.609887151779525" lon="120.58605509033279"><ele>31.0</ele><time>2026-04-19T04:47:44.002Z</time></trkpt><trkpt lat="15.609903619130948" lon="120.58612450596281"><ele>31.000000000000004</ele><time>2026-04-19T04:47:45.002Z</time></trkpt><trkpt lat="15.609921755309832" lon="120.58619395044609"><ele>31.0</ele><time>2026-04-19T04:47:46.002Z</time></trkpt><trkpt lat="15.609937054676296" lon="120.58626512471363"><ele>31.0</ele><time>2026-04-19T04:47:47.002Z</time></trkpt><trkpt lat="15.6099527380371" lon="120.5863365705163"><ele>31.000000000000004</ele><time>2026-04-19T04:47:48.002Z</time></trkpt><trkpt lat="15.609967717762549" lon="120.58641067576346"><ele>31.0</ele><time>2026-04-19T04:47:49.002Z</time></trkpt><trkpt lat="15.609978159044049" lon="120.58648581993275"><ele>31.0</ele><time>2026-04-19T04:47:50.002Z</time></trkpt><trkpt lat="15.609984773629192" lon="120.58655711322744"><ele>30.857142857142858</ele><time>2026-04-19T04:47:51.002Z</time></trkpt><trkpt lat="15.60999097284799" lon="120.58663761636242"><ele>30.714285714285715</ele><time>2026-04-19T04:47:52.002Z</time></trkpt><trkpt lat="15.609993219164283" lon="120.58671249330946"><ele>30.571428571428573</ele><time>2026-04-19T04:47:53.002Z</time></trkpt><trkpt lat="15.60999606950969" lon="120.58678526511741"><ele>30.42857142857143</ele><time>2026-04-19T04:47:54.002Z</time></trkpt><trkpt lat="15.609995149522193" lon="120.58685717543858"><ele>30.285714285714285</ele><time>2026-04-19T04:47:55.002Z</time></trkpt><trkpt lat="15.609994302818937" lon="120.58693075021496"><ele>30.142857142857146</ele><time>2026-04-19T04:47:56.002Z</time></trkpt><trkpt lat="15.609995532500784" lon="120.58700656297209"><ele>30.0</ele><time>2026-04-19T04:47:57.002Z</time></trkpt><trkpt lat="15.610000194639017" lon="120.58707426295102"><ele>30.0</ele><time>2026-04-19T04:47:58.002Z</time></trkpt><trkpt lat="15.610009303193586" lon="120.58714746285156"><ele>30.0</ele><time>2026-04-19T04:47:59.002Z</time></trkpt><trkpt lat="15.61001971347839" lon="120.58722380394867"><ele>30.0</ele><time>2026-04-19T04:48:00.002Z</time></trkpt><trkpt lat="15.61002491546652" lon="120.58730097113661"><ele>30.0</ele><time>2026-04-19T04:48:01.002Z</time></trkpt><trkpt lat="15.610028475411587" lon="120.587377746782"><ele>30.0</ele><time>2026-04-19T04:48:02.002Z</time></trkpt><trkpt lat="15.610034542535532" lon="120.58745201435202"><ele>30.0</ele><time>2026-04-19T04:48:03.002Z</time></trkpt><trkpt lat="15.610051642655195" lon="120.58752544020041"><ele>30.0</ele><time>2026-04-19T04:48:04.003Z</time></trkpt><trkpt lat="15.610078413447194" lon="120.58759618171477"><ele>30.0</ele><time>2026-04-19T04:48:05.003Z</time></trkpt><trkpt lat="15.610109196421735" lon="120.58766524545054"><ele>30.0</ele><time>2026-04-19T04:48:06.003Z</time></trkpt><trkpt lat="15.61014076667359" lon="120.58773560909259"><ele>30.0</ele><time>2026-04-19T04:48:07.003Z</time></trkpt><trkpt lat="15.610169122283603" lon="120.58780533614262"><ele>30.0</ele><time>2026-04-19T04:48:08.003Z</time></trkpt><trkpt lat="15.610193216119892" lon="120.58787564035151"><ele>30.0</ele><time>2026-04-19T04:48:09.003Z</time></trkpt><trkpt lat="15.610211540332273" lon="120.58794432928518"><ele>30.0</ele><time>2026-04-19T04:48:10.003Z</time></trkpt><trkpt lat="15.610229314581764" lon="120.58801380116631"><ele>30.0</ele><time>2026-04-19T04:48:11.003Z</time></trkpt><trkpt lat="15.610257148737976" lon="120.58813191638116"><ele>29.8</ele><time>2026-04-19T04:48:13.002Z</time></trkpt><trkpt lat="15.610274756819113" lon="120.58821152046916"><ele>29.6</ele><time>2026-04-19T04:48:15.002Z</time></trkpt><trkpt lat="15.6102858452726" lon="120.58828031980319"><ele>29.4</ele><time>2026-04-19T04:48:17.002Z</time></trkpt><trkpt lat="15.610287923415585" lon="120.58835749072091"><ele>29.2</ele><time>2026-04-19T04:48:19.001Z</time></trkpt><trkpt lat="15.61027140832858" lon="120.58846436035388"><ele>29.0</ele><time>2026-04-19T04:48:21.001Z</time></trkpt><trkpt lat="15.610240948875644" lon="120.58859868377573"><ele>28.799999999999997</ele><time>2026-04-19T04:48:23.001Z</time></trkpt><trkpt lat="15.610218650078457" lon="120.58867769739027"><ele>28.599999999999998</ele><time>2026-04-19T04:48:24.001Z</time></trkpt><trkpt lat="15.610187426553718" lon="120.58876079268595"><ele>28.4</ele><time>2026-04-19T04:48:25.001Z</time></trkpt><trkpt lat="15.610150173395214" lon="120.58884739783767"><ele>28.2</ele><time>2026-04-19T04:48:26.001Z</time></trkpt><trkpt lat="15.61010866968658" lon="120.58893810072517"><ele>28.0</ele><time>2026-04-19T04:48:27.001Z</time></trkpt><trkpt lat="15.610065088726905" lon="120.5890318914628"><ele>28.0</ele><time>2026-04-19T04:48:28.001Z</time></trkpt><trkpt lat="15.610020086639876" lon="120.5891292407648"><ele>27.999999999999996</ele><time>2026-04-19T04:48:29.001Z</time></trkpt><trkpt lat="15.609973769724965" lon="120.58923009691546"><ele>27.999999999999996</ele><time>2026-04-19T04:48:30.001Z</time></trkpt><trkpt lat="15.609926982080141" lon="120.58933691800199"><ele>28.0</ele><time>2026-04-19T04:48:31.001Z</time></trkpt><trkpt lat="15.609876808714768" lon="120.58944482144598"><ele>28.0</ele><time>2026-04-19T04:48:32.001Z</time></trkpt><trkpt lat="15.60982600556955" lon="120.58955743151856"><ele>28.25</ele><time>2026-04-19T04:48:33.001Z</time></trkpt><trkpt lat="15.609773833014724" lon="120.58967340457671"><ele>28.5</ele><time>2026-04-19T04:48:34.001Z</time></trkpt><trkpt lat="15.60972089620385" lon="120.58979090908504"><ele>28.75</ele><time>2026-04-19T04:48:35.001Z</time></trkpt><trkpt lat="15.609667853629293" lon="120.58990997257253"><ele>29.0</ele><time>2026-04-19T04:48:36.001Z</time></trkpt><trkpt lat="15.609613328364379" lon="120.59002951666955"><ele>29.0</ele><time>2026-04-19T04:48:37.001Z</time></trkpt><trkpt lat="15.609557730755792" lon="120.59015072823313"><ele>29.0</ele><time>2026-04-19T04:48:38.001Z</time></trkpt><trkpt lat="15.609503947553248" lon="120.59027190663295"><ele>29.0</ele><time>2026-04-19T04:48:39.001Z</time></trkpt><trkpt lat="15.60945071532992" lon="120.59039032115587"><ele>29.0</ele><time>2026-04-19T04:48:40.001Z</time></trkpt><trkpt lat="15.609394836275381" lon="120.59050529228178"><ele>29.5</ele><time>2026-04-19T04:48:41.001Z</time></trkpt><trkpt lat="15.609334127804113" lon="120.59061842972238"><ele>30.0</ele><time>2026-04-19T04:48:42.001Z</time></trkpt><trkpt lat="15.609265949746044" lon="120.59072596681239"><ele>30.5</ele><time>2026-04-19T04:48:43.001Z</time></trkpt><trkpt lat="15.609191442910571" lon="120.59082821069131"><ele>31.0</ele><time>2026-04-19T04:48:44.001Z</time></trkpt><trkpt lat="15.6091152821704" lon="120.59092834202124"><ele>31.0</ele><time>2026-04-19T04:48:45.001Z</time></trkpt><trkpt lat="15.609041990853433" lon="120.59103114052452"><ele>31.0</ele><time>2026-04-19T04:48:46.001Z</time></trkpt><trkpt lat="15.608971117278738" lon="120.59113351908083"><ele>31.0</ele><time>2026-04-19T04:48:47.001Z</time></trkpt><trkpt lat="15.608901356351094" lon="120.59123837883637"><ele>31.0</ele><time>2026-04-19T04:48:48.001Z</time></trkpt><trkpt lat="15.608834497155108" lon="120.59134335373686"><ele>31.0</ele><time>2026-04-19T04:48:49.001Z</time></trkpt><trkpt lat="15.6087691602876" lon="120.59144757678813"><ele>31.0</ele><time>2026-04-19T04:48:50.001Z</time></trkpt><trkpt lat="15.608708856835257" lon="120.59154770680746"><ele>31.0</ele><time>2026-04-19T04:48:51.001Z</time></trkpt><trkpt lat="15.608654464781976" lon="120.59164353003419"><ele>31.0</ele><time>2026-04-19T04:48:52.001Z</time></trkpt><trkpt lat="15.608598603419404" lon="120.5917432503209"><ele>31.0</ele><time>2026-04-19T04:48:53.001Z</time></trkpt><trkpt lat="15.608546860770959" lon="120.59184189202094"><ele>31.0</ele><time>2026-04-19T04:48:54.001Z</time></trkpt><trkpt lat="15.608498239231649" lon="120.5919441569056"><ele>31.0</ele><time>2026-04-19T04:48:55.001Z</time></trkpt><trkpt lat="15.608442959894898" lon="120.59204557394135"><ele>31.0</ele><time>2026-04-19T04:48:56.001Z</time></trkpt><trkpt lat="15.608391082678981" lon="120.59214759336285"><ele>31.0</ele><time>2026-04-19T04:48:57.001Z</time></trkpt><trkpt lat="15.608337945456734" lon="120.5922501819031"><ele>30.75</ele><time>2026-04-19T04:48:58.001Z</time></trkpt><trkpt lat="15.608280777499658" lon="120.59235544733171"><ele>30.5</ele><time>2026-04-19T04:48:59.001Z</time></trkpt><trkpt lat="15.608223476350764" lon="120.592458338629"><ele>30.25</ele><time>2026-04-19T04:49:00.001Z</time></trkpt><trkpt lat="15.608162858357145" lon="120.59256130682844"><ele>30.0</ele><time>2026-04-19T04:49:01.001Z</time></trkpt><trkpt lat="15.608101053669822" lon="120.59266442329219"><ele>30.0</ele><time>2026-04-19T04:49:02.001Z</time></trkpt><trkpt lat="15.608040133441381" lon="120.59276720958563"><ele>30.0</ele><time>2026-04-19T04:49:03.001Z</time></trkpt><trkpt lat="15.607977689692532" lon="120.59287089246803"><ele>30.0</ele><time>2026-04-19T04:49:04.001Z</time></trkpt><trkpt lat="15.60791559895421" lon="120.59297499191746"><ele>30.0</ele><time>2026-04-19T04:49:05.001Z</time></trkpt><trkpt lat="15.607851274753056" lon="120.59308086511814"><ele>30.25</ele><time>2026-04-19T04:49:06.001Z</time></trkpt><trkpt lat="15.6077872798067" lon="120.5931866165004"><ele>30.5</ele><time>2026-04-19T04:49:07.001Z</time></trkpt><trkpt lat="15.607723970917215" lon="120.59328964270289"><ele>30.75</ele><time>2026-04-19T04:49:08.001Z</time></trkpt><trkpt lat="15.607665280539146" lon="120.59338885155705"><ele>31.0</ele><time>2026-04-19T04:49:09.001Z</time></trkpt><trkpt lat="15.607608934154603" lon="120.59348315307417"><ele>31.0</ele><time>2026-04-19T04:49:10.001Z</time></trkpt><trkpt lat="15.607556327193162" lon="120.59357595953513"><ele>31.0</ele><time>2026-04-19T04:49:11.001Z</time></trkpt><trkpt lat="15.607510983529721" lon="120.59366874833552"><ele>31.0</ele><time>2026-04-19T04:49:12.002Z</time></trkpt><trkpt lat="15.607470557793116" lon="120.59376099920412"><ele>31.0</ele><time>2026-04-19T04:49:13.002Z</time></trkpt><trkpt lat="15.60743821445787" lon="120.59385422817984"><ele>31.0</ele><time>2026-04-19T04:49:14.002Z</time></trkpt><trkpt lat="15.60741453893542" lon="120.59394934621226"><ele>31.8</ele><time>2026-04-19T04:49:15.002Z</time></trkpt><trkpt lat="15.60739676176746" lon="120.5940458266392"><ele>32.6</ele><time>2026-04-19T04:49:16.002Z</time></trkpt><trkpt lat="15.607379661362703" lon="120.59414285337674"><ele>33.4</ele><time>2026-04-19T04:49:17.002Z</time></trkpt><trkpt lat="15.607359466060469" lon="120.59423527934128"><ele>34.2</ele><time>2026-04-19T04:49:18.002Z</time></trkpt><trkpt lat="15.6073426482417" lon="120.5943293825459"><ele>35.0</ele><time>2026-04-19T04:49:19.002Z</time></trkpt><trkpt lat="15.607325613452852" lon="120.59441976308733"><ele>34.5</ele><time>2026-04-19T04:49:20.002Z</time></trkpt><trkpt lat="15.607313578186139" lon="120.59450828945126"><ele>34.0</ele><time>2026-04-19T04:49:21.002Z</time></trkpt><trkpt lat="15.607306910249317" lon="120.59459804171658"><ele>33.5</ele><time>2026-04-19T04:49:22.002Z</time></trkpt><trkpt lat="15.60730529003718" lon="120.5946910640679"><ele>33.0</ele><time>2026-04-19T04:49:23.002Z</time></trkpt><trkpt lat="15.60730731515824" lon="120.59478627472873"><ele>32.5</ele><time>2026-04-19T04:49:24.002Z</time></trkpt><trkpt lat="15.607312919065112" lon="120.5948835126531"><ele>32.0</ele><time>2026-04-19T04:49:25.002Z</time></trkpt><trkpt lat="15.60731948597261" lon="120.59498180825757"><ele>32.0</ele><time>2026-04-19T04:49:26.002Z</time></trkpt><trkpt lat="15.607326552276819" lon="120.59508177501051"><ele>32.0</ele><time>2026-04-19T04:49:27.002Z</time></trkpt><trkpt lat="15.607334025889255" lon="120.59518395786887"><ele>32.0</ele><time>2026-04-19T04:49:28.002Z</time></trkpt><trkpt lat="15.607340139781027" lon="120.59528635428907"><ele>32.0</ele><time>2026-04-19T04:49:29.002Z</time></trkpt><trkpt lat="15.607347256150012" lon="120.59539069148688"><ele>32.0</ele><time>2026-04-19T04:49:30.002Z</time></trkpt><trkpt lat="15.607354620728602" lon="120.59549652274958"><ele>32.0</ele><time>2026-04-19T04:49:31.002Z</time></trkpt><trkpt lat="15.607364470950674" lon="120.59560357181488"><ele>32.0</ele><time>2026-04-19T04:49:32.002Z</time></trkpt><trkpt lat="15.607373467828726" lon="120.59571302865739"><ele>32.0</ele><time>2026-04-19T04:49:33.002Z</time></trkpt><trkpt lat="15.607382584251681" lon="120.59582396037085"><ele>32.0</ele><time>2026-04-19T04:49:34.002Z</time></trkpt><trkpt lat="15.607391861861046" lon="120.59593593251529"><ele>32.0</ele><time>2026-04-19T04:49:35.002Z</time></trkpt><trkpt lat="15.60739994863797" lon="120.59604317959534"><ele>32.0</ele><time>2026-04-19T04:49:36.002Z</time></trkpt><trkpt lat="15.607406638367712" lon="120.5961486603748"><ele>32.0</ele><time>2026-04-19T04:49:37.002Z</time></trkpt><trkpt lat="15.607413351625114" lon="120.59625158653328"><ele>32.0</ele><time>2026-04-19T04:49:38.002Z</time></trkpt><trkpt lat="15.607422196579462" lon="120.59635234936631"><ele>32.0</ele><time>2026-04-19T04:49:39.002Z</time></trkpt><trkpt lat="15.607431307651012" lon="120.59645242969133"><ele>32.0</ele><time>2026-04-19T04:49:40.002Z</time></trkpt><trkpt lat="15.607440876830614" lon="120.596549946835"><ele>31.999999999999996</ele><time>2026-04-19T04:49:41.002Z</time></trkpt><trkpt lat="15.607446390552486" lon="120.59664472695209"><ele>32.0</ele><time>2026-04-19T04:49:42.002Z</time></trkpt><trkpt lat="15.607453249108362" lon="120.59673744088906"><ele>32.0</ele><time>2026-04-19T04:49:43.002Z</time></trkpt><trkpt lat="15.607461812206076" lon="120.5968272244507"><ele>32.0</ele><time>2026-04-19T04:49:44.002Z</time></trkpt><trkpt lat="15.607473210924804" lon="120.59692029844285"><ele>31.999999999999996</ele><time>2026-04-19T04:49:45.002Z</time></trkpt><trkpt lat="15.607484824210367" lon="120.5970136309954"><ele>32.0</ele><time>2026-04-19T04:49:46.002Z</time></trkpt><trkpt lat="15.607494458007016" lon="120.59710780630047"><ele>31.999999999999996</ele><time>2026-04-19T04:49:47.002Z</time></trkpt><trkpt lat="15.60750230872097" lon="120.59720166540116"><ele>32.0</ele><time>2026-04-19T04:49:48.002Z</time></trkpt><trkpt lat="15.607511275075947" lon="120.59729535973496"><ele>32.0</ele><time>2026-04-19T04:49:49.002Z</time></trkpt><trkpt lat="15.607520429326826" lon="120.59738683468979"><ele>32.0</ele><time>2026-04-19T04:49:50.002Z</time></trkpt><trkpt lat="15.607529043340543" lon="120.59747128407942"><ele>31.999999999999996</ele><time>2026-04-19T04:49:51.002Z</time></trkpt><trkpt lat="15.607535874412537" lon="120.5975435767037"><ele>32.0</ele><time>2026-04-19T04:49:52.002Z</time></trkpt><trkpt lat="15.607545219088195" lon="120.59765309498245"><ele>32.0</ele><time>2026-04-19T04:49:54.002Z</time></trkpt><trkpt lat="15.607548912617506" lon="120.59773297761342"><ele>32.0</ele><time>2026-04-19T04:49:57.002Z</time></trkpt><trkpt lat="15.607494889994507" lon="120.59778877049187"><ele>32.0</ele><time>2026-04-19T04:50:00.002Z</time></trkpt><trkpt lat="15.60741662924016" lon="120.59781221562935"><ele>32.0</ele><time>2026-04-19T04:50:02.002Z</time></trkpt><trkpt lat="15.60732236081501" lon="120.59784544201851"><ele>32.0</ele><time>2026-04-19T04:50:04.002Z</time></trkpt><trkpt lat="15.607207397045462" lon="120.59788828191294"><ele>32.5</ele><time>2026-04-19T04:50:06.002Z</time></trkpt><trkpt lat="15.607142609995812" lon="120.59791330871262"><ele>33.0</ele><time>2026-04-19T04:50:07.002Z</time></trkpt><trkpt lat="15.60707254783928" lon="120.5979410558221"><ele>33.5</ele><time>2026-04-19T04:50:08.002Z</time></trkpt><trkpt lat="15.607001052083527" lon="120.59796871499049"><ele>34.0</ele><time>2026-04-19T04:50:09.002Z</time></trkpt><trkpt lat="15.606928279409518" lon="120.59799720126041"><ele>34.5</ele><time>2026-04-19T04:50:10.002Z</time></trkpt><trkpt lat="15.606856296295383" lon="120.59802532383279"><ele>35.0</ele><time>2026-04-19T04:50:11.002Z</time></trkpt><trkpt lat="15.60678464924574" lon="120.59805432590261"><ele>35.0</ele><time>2026-04-19T04:50:12.002Z</time></trkpt><trkpt lat="15.606712485403136" lon="120.59808415742914"><ele>35.0</ele><time>2026-04-19T04:50:13.002Z</time></trkpt><trkpt lat="15.606640083922231" lon="120.59811179233107"><ele>35.0</ele><time>2026-04-19T04:50:14.002Z</time></trkpt><trkpt lat="15.606570993917735" lon="120.59813801035273"><ele>35.0</ele><time>2026-04-19T04:50:15.002Z</time></trkpt><trkpt lat="15.606507956962007" lon="120.59816316558819"><ele>35.0</ele><time>2026-04-19T04:50:16.002Z</time></trkpt><trkpt lat="15.606450569910391" lon="120.59819239906122"><ele>35.0</ele><time>2026-04-19T04:50:17.002Z</time></trkpt><trkpt lat="15.606353671202562" lon="120.59826720453111"><ele>35.0</ele><time>2026-04-19T04:50:19Z</time></trkpt><trkpt lat="15.606297457224604" lon="120.59837301206774"><ele>35.0</ele><time>2026-04-19T04:50:21Z</time></trkpt><trkpt lat="15.606314677823661" lon="120.59848743438067"><ele>35.0</ele><time>2026-04-19T04:50:23Z</time></trkpt><trkpt lat="15.60633296991971" lon="120.59855071265518"><ele>35.0</ele><time>2026-04-19T04:50:24Z</time></trkpt><trkpt lat="15.606351715514998" lon="120.5986132930891"><ele>35.0</ele><time>2026-04-19T04:50:25Z</time></trkpt><trkpt lat="15.606372170751495" lon="120.59873475335243"><ele>34.8</ele><time>2026-04-19T04:50:27Z</time></trkpt><trkpt lat="15.606343538524765" lon="120.59884312351102"><ele>34.6</ele><time>2026-04-19T04:50:29Z</time></trkpt><trkpt lat="15.606267705895247" lon="120.59892054141939"><ele>34.4</ele><time>2026-04-19T04:50:31Z</time></trkpt><trkpt lat="15.606158678554403" lon="120.59897174224565"><ele>34.2</ele><time>2026-04-19T04:50:33Z</time></trkpt><trkpt lat="15.606100273915636" lon="120.59899860874894"><ele>34.0</ele><time>2026-04-19T04:50:34Z</time></trkpt><trkpt lat="15.606042425996364" lon="120.59902486465087"><ele>33.66666666666667</ele><time>2026-04-19T04:50:35Z</time></trkpt><trkpt lat="15.6059358544336" lon="120.59907312459508"><ele>33.333333333333336</ele><time>2026-04-19T04:50:37Z</time></trkpt><trkpt lat="15.605850822272153" lon="120.59911149176261"><ele>33.0</ele><time>2026-04-19T04:50:39Z</time></trkpt><trkpt lat="15.605780716428537" lon="120.5991439382838"><ele>32.666666666666664</ele><time>2026-04-19T04:50:42.001Z</time></trkpt><trkpt lat="15.605732580508612" lon="120.59918721845173"><ele>32.33333333333333</ele><time>2026-04-19T04:50:45.001Z</time></trkpt><trkpt lat="15.605713488275585" lon="120.59927516834483"><ele>32.0</ele><time>2026-04-19T04:50:48.001Z</time></trkpt><trkpt lat="15.60575035622702" lon="120.59935529539938"><ele>32.0</ele><time>2026-04-19T04:50:50.001Z</time></trkpt><trkpt lat="15.605796200242613" lon="120.59946184960774"><ele>32.0</ele><time>2026-04-19T04:50:52.001Z</time></trkpt><trkpt lat="15.605850089583175" lon="120.59957951735095"><ele>32.0</ele><time>2026-04-19T04:50:54.001Z</time></trkpt><trkpt lat="15.605878281862267" lon="120.5996397780221"><ele>32.0</ele><time>2026-04-19T04:50:55.001Z</time></trkpt><trkpt lat="15.605933341318508" lon="120.5997553422813"><ele>32.0</ele><time>2026-04-19T04:50:57.001Z</time></trkpt><trkpt lat="15.60596123640731" lon="120.59981469773862"><ele>31.999999999999996</ele><time>2026-04-19T04:50:58.001Z</time></trkpt><trkpt lat="15.605991587232563" lon="120.59987811991216"><ele>32.0</ele><time>2026-04-19T04:50:59.001Z</time></trkpt><trkpt lat="15.606023794750607" lon="120.5999440168462"><ele>32.0</ele><time>2026-04-19T04:51:00.001Z</time></trkpt><trkpt lat="15.606057511300767" lon="120.6000136408085"><ele>32.0</ele><time>2026-04-19T04:51:01.001Z</time></trkpt><trkpt lat="15.60609311512995" lon="120.60008597811996"><ele>31.999999999999996</ele><time>2026-04-19T04:51:02.001Z</time></trkpt><trkpt lat="15.606129293740956" lon="120.60015885645181"><ele>32.0</ele><time>2026-04-19T04:51:03.001Z</time></trkpt><trkpt lat="15.606167295242411" lon="120.6002332780031"><ele>31.999999999999996</ele><time>2026-04-19T04:51:04.001Z</time></trkpt><trkpt lat="15.606205371495761" lon="120.60030784862789"><ele>32.0</ele><time>2026-04-19T04:51:05.001Z</time></trkpt><trkpt lat="15.606244384788013" lon="120.60038396733732"><ele>32.0</ele><time>2026-04-19T04:51:06.001Z</time></trkpt><trkpt lat="15.606284149550913" lon="120.60046009715342"><ele>32.0</ele><time>2026-04-19T04:51:07.001Z</time></trkpt><trkpt lat="15.606326013830015" lon="120.60053732439344"><ele>31.999999999999996</ele><time>2026-04-19T04:51:08.001Z</time></trkpt><trkpt lat="15.606368926437185" lon="120.60061491287104"><ele>32.0</ele><time>2026-04-19T04:51:09.001Z</time></trkpt><trkpt lat="15.606412134086797" lon="120.6006927947623"><ele>31.833333333333332</ele><time>2026-04-19T04:51:10.001Z</time></trkpt><trkpt lat="15.606454736610715" lon="120.60077320208448"><ele>31.666666666666664</ele><time>2026-04-19T04:51:11.001Z</time></trkpt><trkpt lat="15.606496190497992" lon="120.60085562857995"><ele>31.5</ele><time>2026-04-19T04:51:12.001Z</time></trkpt><trkpt lat="15.606536971872101" lon="120.60093963346199"><ele>31.333333333333336</ele><time>2026-04-19T04:51:13.001Z</time></trkpt><trkpt lat="15.606577024651424" lon="120.60102373448919"><ele>31.166666666666668</ele><time>2026-04-19T04:51:14.001Z</time></trkpt><trkpt lat="15.60661594856644" lon="120.60110836723561"><ele>31.0</ele><time>2026-04-19T04:51:15.001Z</time></trkpt><trkpt lat="15.606653169215924" lon="120.6011946390244"><ele>31.0</ele><time>2026-04-19T04:51:16.001Z</time></trkpt><trkpt lat="15.606688736180757" lon="120.6012826798469"><ele>31.0</ele><time>2026-04-19T04:51:17.001Z</time></trkpt><trkpt lat="15.606723202628555" lon="120.60137410609157"><ele>31.0</ele><time>2026-04-19T04:51:18.001Z</time></trkpt><trkpt lat="15.606755911378213" lon="120.60146440232067"><ele>31.0</ele><time>2026-04-19T04:51:19.001Z</time></trkpt><trkpt lat="15.606789510326095" lon="120.60155512824225"><ele>31.0</ele><time>2026-04-19T04:51:20.001Z</time></trkpt><trkpt lat="15.606825229560384" lon="120.60164992799486"><ele>31.0</ele><time>2026-04-19T04:51:21.001Z</time></trkpt><trkpt lat="15.606862522442837" lon="120.60174693573795"><ele>31.0</ele><time>2026-04-19T04:51:22.001Z</time></trkpt><trkpt lat="15.606898471165218" lon="120.60184294393335"><ele>31.0</ele><time>2026-04-19T04:51:23.001Z</time></trkpt><trkpt lat="15.60693587742078" lon="120.60194168477062"><ele>31.0</ele><time>2026-04-19T04:51:24.001Z</time></trkpt><trkpt lat="15.60697278842516" lon="120.60204155341683"><ele>31.0</ele><time>2026-04-19T04:51:25.001Z</time></trkpt><trkpt lat="15.60700895138604" lon="120.60214141569345"><ele>31.4</ele><time>2026-04-19T04:51:26.001Z</time></trkpt><trkpt lat="15.607044664700997" lon="120.60223811913701"><ele>31.8</ele><time>2026-04-19T04:51:27.001Z</time></trkpt><trkpt lat="15.60708125557139" lon="120.60233333220629"><ele>32.199999999999996</ele><time>2026-04-19T04:51:28.001Z</time></trkpt><trkpt lat="15.607119425323692" lon="120.60242497114183"><ele>32.6</ele><time>2026-04-19T04:51:29.001Z</time></trkpt><trkpt lat="15.607159315319784" lon="120.6025107012757"><ele>33.0</ele><time>2026-04-19T04:51:30.001Z</time></trkpt><trkpt lat="15.607202082697126" lon="120.60259202120447"><ele>33.0</ele><time>2026-04-19T04:51:31.001Z</time></trkpt><trkpt lat="15.607251116215929" lon="120.6026736850658"><ele>33.0</ele><time>2026-04-19T04:51:32.001Z</time></trkpt><trkpt lat="15.607304051438431" lon="120.60275337998779"><ele>33.0</ele><time>2026-04-19T04:51:33.001Z</time></trkpt><trkpt lat="15.607359210903477" lon="120.60282947534638"><ele>33.0</ele><time>2026-04-19T04:51:34.001Z</time></trkpt><trkpt lat="15.607413740325184" lon="120.60290776414809"><ele>33.0</ele><time>2026-04-19T04:51:35.001Z</time></trkpt><trkpt lat="15.607469434265552" lon="120.60298669040858"><ele>32.4</ele><time>2026-04-19T04:51:36.001Z</time></trkpt><trkpt lat="15.607522587190955" lon="120.60306753035563"><ele>31.799999999999997</ele><time>2026-04-19T04:51:37.001Z</time></trkpt><trkpt lat="15.607574567563617" lon="120.60314461362341"><ele>31.2</ele><time>2026-04-19T04:51:38.001Z</time></trkpt><trkpt lat="15.607623706640954" lon="120.6032250529156"><ele>30.6</ele><time>2026-04-19T04:51:39.001Z</time></trkpt><trkpt lat="15.607668416399372" lon="120.60330730083086"><ele>30.0</ele><time>2026-04-19T04:51:40.001Z</time></trkpt><trkpt lat="15.60770573976511" lon="120.60339037813777"><ele>30.0</ele><time>2026-04-19T04:51:41.001Z</time></trkpt><trkpt lat="15.607740343951793" lon="120.60348151911144"><ele>30.0</ele><time>2026-04-19T04:51:42.001Z</time></trkpt><trkpt lat="15.607768746258296" lon="120.60356831444317"><ele>30.0</ele><time>2026-04-19T04:51:43.001Z</time></trkpt><trkpt lat="15.60779064207417" lon="120.60365436668546"><ele>30.0</ele><time>2026-04-19T04:51:44.001Z</time></trkpt><trkpt lat="15.60780667525867" lon="120.60373655751924"><ele>30.0</ele><time>2026-04-19T04:51:45.001Z</time></trkpt><trkpt lat="15.607818876957413" lon="120.6038167887598"><ele>30.0</ele><time>2026-04-19T04:51:46.001Z</time></trkpt><trkpt lat="15.607827741952148" lon="120.60388813149012"><ele>29.6</ele><time>2026-04-19T04:51:47.001Z</time></trkpt><trkpt lat="15.607838141596154" lon="120.60401209229633"><ele>29.2</ele><time>2026-04-19T04:51:49.001Z</time></trkpt><trkpt lat="15.607848067723317" lon="120.60411997294598"><ele>28.799999999999997</ele><time>2026-04-19T04:51:51.001Z</time></trkpt><trkpt lat="15.607856299159966" lon="120.60421749405648"><ele>28.4</ele><time>2026-04-19T04:51:53.001Z</time></trkpt><trkpt lat="15.607867711107458" lon="120.604312273677"><ele>28.0</ele><time>2026-04-19T04:51:55.001Z</time></trkpt><trkpt lat="15.607884658182645" lon="120.60440690617735"><ele>28.599999999999998</ele><time>2026-04-19T04:51:57.001Z</time></trkpt><trkpt lat="15.607901226766861" lon="120.60449796749191"><ele>29.199999999999996</ele><time>2026-04-19T04:51:59.002Z</time></trkpt><trkpt lat="15.60791472350884" lon="120.60458200859608"><ele>29.8</ele><time>2026-04-19T04:52:01.002Z</time></trkpt><trkpt lat="15.607927427270006" lon="120.60467091306407"><ele>30.4</ele><time>2026-04-19T04:52:03.002Z</time></trkpt><trkpt lat="15.607940738325588" lon="120.60476963690947"><ele>31.0</ele><time>2026-04-19T04:52:05.002Z</time></trkpt><trkpt lat="15.607957951723112" lon="120.60488137176289"><ele>31.000000000000004</ele><time>2026-04-19T04:52:07.002Z</time></trkpt><trkpt lat="15.60798221193899" lon="120.60500764686684"><ele>31.0</ele><time>2026-04-19T04:52:09.002Z</time></trkpt><trkpt lat="15.607995547732326" lon="120.60507475785256"><ele>31.0</ele><time>2026-04-19T04:52:10.002Z</time></trkpt><trkpt lat="15.608010092841358" lon="120.60514445807591"><ele>31.0</ele><time>2026-04-19T04:52:11.002Z</time></trkpt><trkpt lat="15.608025020848489" lon="120.60521689581344"><ele>31.000000000000004</ele><time>2026-04-19T04:52:12.002Z</time></trkpt><trkpt lat="15.608042382360633" lon="120.60529515273696"><ele>31.0</ele><time>2026-04-19T04:52:13.002Z</time></trkpt><trkpt lat="15.60806122465725" lon="120.60537317242093"><ele>31.333333333333336</ele><time>2026-04-19T04:52:14.002Z</time></trkpt><trkpt lat="15.608083894993184" lon="120.6054551047885"><ele>31.666666666666668</ele><time>2026-04-19T04:52:15.002Z</time></trkpt><trkpt lat="15.608109719946375" lon="120.60553723147846"><ele>32.0</ele><time>2026-04-19T04:52:16.002Z</time></trkpt><trkpt lat="15.608138212414126" lon="120.60561891623058"><ele>32.333333333333336</ele><time>2026-04-19T04:52:17.002Z</time></trkpt><trkpt lat="15.608170477733246" lon="120.60570036126195"><ele>32.666666666666664</ele><time>2026-04-19T04:52:18.002Z</time></trkpt><trkpt lat="15.60820445330098" lon="120.6057798236493"><ele>33.0</ele><time>2026-04-19T04:52:19.002Z</time></trkpt><trkpt lat="15.608241393643958" lon="120.60585922022094"><ele>33.0</ele><time>2026-04-19T04:52:20.002Z</time></trkpt><trkpt lat="15.60828063617056" lon="120.60593976328201"><ele>33.0</ele><time>2026-04-19T04:52:21.002Z</time></trkpt><trkpt lat="15.608320803540208" lon="120.6060193587927"><ele>33.0</ele><time>2026-04-19T04:52:22.002Z</time></trkpt><trkpt lat="15.608361240927218" lon="120.60609797531811"><ele>33.0</ele><time>2026-04-19T04:52:23.002Z</time></trkpt><trkpt lat="15.608402361085025" lon="120.60617418750367"><ele>33.0</ele><time>2026-04-19T04:52:24.001Z</time></trkpt><trkpt lat="15.608445855586476" lon="120.60625025775278"><ele>33.0</ele><time>2026-04-19T04:52:25.001Z</time></trkpt><trkpt lat="15.608489640812843" lon="120.60632442505724"><ele>32.833333333333336</ele><time>2026-04-19T04:52:26.001Z</time></trkpt><trkpt lat="15.608533420756835" lon="120.60639838221587"><ele>32.666666666666664</ele><time>2026-04-19T04:52:27.001Z</time></trkpt><trkpt lat="15.608577248677296" lon="120.60647313407023"><ele>32.5</ele><time>2026-04-19T04:52:28.001Z</time></trkpt><trkpt lat="15.608621361116299" lon="120.60654778459455"><ele>32.33333333333333</ele><time>2026-04-19T04:52:29.001Z</time></trkpt><trkpt lat="15.608665457969039" lon="120.60662077296331"><ele>32.166666666666664</ele><time>2026-04-19T04:52:30.001Z</time></trkpt><trkpt lat="15.608708901826299" lon="120.60669274207964"><ele>32.0</ele><time>2026-04-19T04:52:31.001Z</time></trkpt><trkpt lat="15.608752394631107" lon="120.60676361156462"><ele>31.999999999999996</ele><time>2026-04-19T04:52:32.001Z</time></trkpt><trkpt lat="15.608795809165978" lon="120.60683430241346"><ele>32.0</ele><time>2026-04-19T04:52:33.001Z</time></trkpt><trkpt lat="15.608839497365182" lon="120.60690383833065"><ele>32.0</ele><time>2026-04-19T04:52:34.001Z</time></trkpt><trkpt lat="15.608882755445105" lon="120.60697235330292"><ele>32.0</ele><time>2026-04-19T04:52:35.001Z</time></trkpt><trkpt lat="15.608925281247247" lon="120.60704153373024"><ele>31.999999999999996</ele><time>2026-04-19T04:52:36.001Z</time></trkpt><trkpt lat="15.608964724182432" lon="120.60710926413239"><ele>32.0</ele><time>2026-04-19T04:52:37.001Z</time></trkpt><trkpt lat="15.60900493818112" lon="120.60717676276485"><ele>31.999999999999996</ele><time>2026-04-19T04:52:38.001Z</time></trkpt><trkpt lat="15.60904727869222" lon="120.60724421387444"><ele>32.0</ele><time>2026-04-19T04:52:39.001Z</time></trkpt><trkpt lat="15.60909196388204" lon="120.60731265095846"><ele>32.0</ele><time>2026-04-19T04:52:40.001Z</time></trkpt><trkpt lat="15.609137068527184" lon="120.60738242002749"><ele>32.0</ele><time>2026-04-19T04:52:41.001Z</time></trkpt><trkpt lat="15.609181155838053" lon="120.60745061690913"><ele>31.999999999999996</ele><time>2026-04-19T04:52:42.001Z</time></trkpt><trkpt lat="15.609226707453292" lon="120.60752099488002"><ele>32.0</ele><time>2026-04-19T04:52:43.001Z</time></trkpt><trkpt lat="15.609272675519328" lon="120.60759338714564"><ele>31.999999999999996</ele><time>2026-04-19T04:52:44.001Z</time></trkpt><trkpt lat="15.609319044357683" lon="120.6076660762247"><ele>32.0</ele><time>2026-04-19T04:52:45.001Z</time></trkpt><trkpt lat="15.609366560516504" lon="120.60773900353107"><ele>32.0</ele><time>2026-04-19T04:52:46.001Z</time></trkpt><trkpt lat="15.609412309393797" lon="120.60781442527434"><ele>32.0</ele><time>2026-04-19T04:52:47.001Z</time></trkpt><trkpt lat="15.609459269269717" lon="120.60789231442311"><ele>31.999999999999996</ele><time>2026-04-19T04:52:48.001Z</time></trkpt><trkpt lat="15.609507894129608" lon="120.60797375289623"><ele>32.0</ele><time>2026-04-19T04:52:49.001Z</time></trkpt><trkpt lat="15.609552708576398" lon="120.60805263169041"><ele>32.2</ele><time>2026-04-19T04:52:50.001Z</time></trkpt><trkpt lat="15.609599233950735" lon="120.60813412573947"><ele>32.400000000000006</ele><time>2026-04-19T04:52:51.001Z</time></trkpt><trkpt lat="15.609645544929473" lon="120.60821425129373"><ele>32.599999999999994</ele><time>2026-04-19T04:52:52.001Z</time></trkpt><trkpt lat="15.609692647047721" lon="120.60829433049597"><ele>32.8</ele><time>2026-04-19T04:52:53.001Z</time></trkpt><trkpt lat="15.609737635723322" lon="120.60837530332809"><ele>33.0</ele><time>2026-04-19T04:52:54.001Z</time></trkpt><trkpt lat="15.609780800331452" lon="120.60845492669091"><ele>33.0</ele><time>2026-04-19T04:52:55.001Z</time></trkpt><trkpt lat="15.609824001671067" lon="120.60853377962086"><ele>33.0</ele><time>2026-04-19T04:52:56.001Z</time></trkpt><trkpt lat="15.60986734284191" lon="120.60861093380086"><ele>33.0</ele><time>2026-04-19T04:52:57.001Z</time></trkpt><trkpt lat="15.60990940343821" lon="120.60868553118112"><ele>33.0</ele><time>2026-04-19T04:52:58.001Z</time></trkpt><trkpt lat="15.609948624133613" lon="120.60875511981587"><ele>33.0</ele><time>2026-04-19T04:52:59.001Z</time></trkpt><trkpt lat="15.609986979122105" lon="120.60882346340753"><ele>33.0</ele><time>2026-04-19T04:53:00.001Z</time></trkpt><trkpt lat="15.610024864470146" lon="120.60889124802713"><ele>32.833333333333336</ele><time>2026-04-19T04:53:01.001Z</time></trkpt><trkpt lat="15.610063698297218" lon="120.60896064515487"><ele>32.666666666666664</ele><time>2026-04-19T04:53:02.001Z</time></trkpt><trkpt lat="15.610104505690847" lon="120.6090324539016"><ele>32.5</ele><time>2026-04-19T04:53:03.001Z</time></trkpt><trkpt lat="15.610145196915939" lon="120.60910396574239"><ele>32.33333333333333</ele><time>2026-04-19T04:53:04.001Z</time></trkpt><trkpt lat="15.6101880784718" lon="120.60917834187262"><ele>32.166666666666664</ele><time>2026-04-19T04:53:05.001Z</time></trkpt><trkpt lat="15.610232195029655" lon="120.6092558004724"><ele>32.0</ele><time>2026-04-19T04:53:06.001Z</time></trkpt><trkpt lat="15.610275608686074" lon="120.6093320607984"><ele>31.999999999999996</ele><time>2026-04-19T04:53:07.001Z</time></trkpt><trkpt lat="15.61031961583796" lon="120.60941069991875"><ele>32.0</ele><time>2026-04-19T04:53:08.001Z</time></trkpt><trkpt lat="15.610363144740447" lon="120.60949094122961"><ele>32.0</ele><time>2026-04-19T04:53:09.001Z</time></trkpt><trkpt lat="15.610405069793645" lon="120.60957250276955"><ele>32.0</ele><time>2026-04-19T04:53:10.001Z</time></trkpt><trkpt lat="15.610446623097051" lon="120.60965409741358"><ele>31.999999999999996</ele><time>2026-04-19T04:53:11.001Z</time></trkpt><trkpt lat="15.610487705248673" lon="120.60973587029532"><ele>32.0</ele><time>2026-04-19T04:53:12.001Z</time></trkpt><trkpt lat="15.61052815427937" lon="120.6098165085601"><ele>31.57142857142857</ele><time>2026-04-19T04:53:13.001Z</time></trkpt><trkpt lat="15.610565124464271" lon="120.60989157562891"><ele>31.14285714285714</ele><time>2026-04-19T04:53:14.001Z</time></trkpt><trkpt lat="15.610599596038817" lon="120.60996183003816"><ele>30.714285714285715</ele><time>2026-04-19T04:53:15.001Z</time></trkpt><trkpt lat="15.610632229627106" lon="120.61002741201202"><ele>30.285714285714285</ele><time>2026-04-19T04:53:16.001Z</time></trkpt><trkpt lat="15.610665858730993" lon="120.6100906012713"><ele>29.857142857142858</ele><time>2026-04-19T04:53:17.001Z</time></trkpt><trkpt lat="15.610697189859733" lon="120.61015265154786"><ele>29.42857142857143</ele><time>2026-04-19T04:53:18.001Z</time></trkpt><trkpt lat="15.61072894113936" lon="120.6102169567159"><ele>29.000000000000004</ele><time>2026-04-19T04:53:19.001Z</time></trkpt><trkpt lat="15.610761069760063" lon="120.61028313508257"><ele>28.999999999999996</ele><time>2026-04-19T04:53:20.001Z</time></trkpt><trkpt lat="15.610795090846848" lon="120.61035426967102"><ele>29.0</ele><time>2026-04-19T04:53:21.001Z</time></trkpt><trkpt lat="15.610828779066154" lon="120.61042772850779"><ele>29.0</ele><time>2026-04-19T04:53:22.001Z</time></trkpt><trkpt lat="15.610863103128569" lon="120.61050395103446"><ele>29.0</ele><time>2026-04-19T04:53:23.001Z</time></trkpt><trkpt lat="15.610898771457249" lon="120.61058213136026"><ele>28.999999999999996</ele><time>2026-04-19T04:53:24.001Z</time></trkpt><trkpt lat="15.610936618706866" lon="120.61066257878315"><ele>29.0</ele><time>2026-04-19T04:53:25.001Z</time></trkpt><trkpt lat="15.610974455420331" lon="120.61074397677551"><ele>29.0</ele><time>2026-04-19T04:53:26.001Z</time></trkpt><trkpt lat="15.611013914546827" lon="120.61082794741495"><ele>29.0</ele><time>2026-04-19T04:53:27.001Z</time></trkpt><trkpt lat="15.611053910626731" lon="120.61091426840315"><ele>29.0</ele><time>2026-04-19T04:53:28.001Z</time></trkpt><trkpt lat="15.611095218603221" lon="120.61100358259162"><ele>29.0</ele><time>2026-04-19T04:53:29.001Z</time></trkpt><trkpt lat="15.611138266923804" lon="120.61109749435653"><ele>29.0</ele><time>2026-04-19T04:53:30.001Z</time></trkpt><trkpt lat="15.611182852347829" lon="120.61119536352025"><ele>28.799999999999997</ele><time>2026-04-19T04:53:31.001Z</time></trkpt><trkpt lat="15.611229527037919" lon="120.61129782615619"><ele>28.599999999999998</ele><time>2026-04-19T04:53:32.001Z</time></trkpt><trkpt lat="15.611277811758173" lon="120.61140107976217"><ele>28.4</ele><time>2026-04-19T04:53:33.001Z</time></trkpt><trkpt lat="15.611326523763564" lon="120.61150597504407"><ele>28.2</ele><time>2026-04-19T04:53:34.001Z</time></trkpt><trkpt lat="15.611376962472724" lon="120.61161446704418"><ele>28.0</ele><time>2026-04-19T04:53:35.001Z</time></trkpt><trkpt lat="15.611426574788489" lon="120.61172189931338"><ele>28.0</ele><time>2026-04-19T04:53:36.001Z</time></trkpt><trkpt lat="15.611477386185022" lon="120.6118307552798"><ele>28.0</ele><time>2026-04-19T04:53:37.001Z</time></trkpt><trkpt lat="15.611530052668185" lon="120.61194049579393"><ele>28.0</ele><time>2026-04-19T04:53:38.001Z</time></trkpt><trkpt lat="15.611584402177263" lon="120.61205131547736"><ele>28.0</ele><time>2026-04-19T04:53:39.001Z</time></trkpt><trkpt lat="15.61163863717598" lon="120.61216440147102"><ele>28.25</ele><time>2026-04-19T04:53:40.001Z</time></trkpt><trkpt lat="15.611694760613112" lon="120.61227989731351"><ele>28.5</ele><time>2026-04-19T04:53:41.001Z</time></trkpt><trkpt lat="15.61175089239962" lon="120.61239458804559"><ele>28.75</ele><time>2026-04-19T04:53:42.001Z</time></trkpt><trkpt lat="15.611807061705182" lon="120.6125103334514"><ele>29.0</ele><time>2026-04-19T04:53:43.001Z</time></trkpt><trkpt lat="15.611865144527535" lon="120.61263051476384"><ele>29.0</ele><time>2026-04-19T04:53:44.001Z</time></trkpt><trkpt lat="15.611923529932362" lon="120.61275183318736"><ele>29.0</ele><time>2026-04-19T04:53:45.001Z</time></trkpt><trkpt lat="15.611984632874284" lon="120.61287663453942"><ele>29.0</ele><time>2026-04-19T04:53:46.001Z</time></trkpt><trkpt lat="15.612046995958954" lon="120.61300479904737"><ele>29.0</ele><time>2026-04-19T04:53:47.001Z</time></trkpt><trkpt lat="15.612111202504195" lon="120.61313425366028"><ele>28.75</ele><time>2026-04-19T04:53:48.001Z</time></trkpt><trkpt lat="15.61217447501283" lon="120.6132612444873"><ele>28.5</ele><time>2026-04-19T04:53:49.001Z</time></trkpt><trkpt lat="15.612237571853585" lon="120.61338861059438"><ele>28.25</ele><time>2026-04-19T04:53:50.001Z</time></trkpt><trkpt lat="15.612301291705295" lon="120.61351692808385"><ele>28.0</ele><time>2026-04-19T04:53:51.001Z</time></trkpt><trkpt lat="15.612365654416982" lon="120.61364618708126"><ele>27.75</ele><time>2026-04-19T04:53:52.001Z</time></trkpt><trkpt lat="15.612428414968093" lon="120.61377405552089"><ele>27.5</ele><time>2026-04-19T04:53:53.001Z</time></trkpt><trkpt lat="15.612489970714302" lon="120.61390107544779"><ele>27.25</ele><time>2026-04-19T04:53:54.001Z</time></trkpt><trkpt lat="15.612551806484772" lon="120.61402749581855"><ele>27.0</ele><time>2026-04-19T04:53:55.001Z</time></trkpt><trkpt lat="15.612611568250824" lon="120.61415020961509"><ele>27.0</ele><time>2026-04-19T04:53:56.001Z</time></trkpt><trkpt lat="15.612670726985739" lon="120.61427371535049"><ele>27.0</ele><time>2026-04-19T04:53:57.001Z</time></trkpt><trkpt lat="15.612730202733102" lon="120.6143955573301"><ele>27.0</ele><time>2026-04-19T04:53:58.001Z</time></trkpt><trkpt lat="15.612788803253295" lon="120.61451680579528"><ele>27.0</ele><time>2026-04-19T04:53:59.001Z</time></trkpt><trkpt lat="15.6128489679431" lon="120.61463901280301"><ele>27.25</ele><time>2026-04-19T04:54:00.001Z</time></trkpt><trkpt lat="15.61290838275042" lon="120.61476204124851"><ele>27.5</ele><time>2026-04-19T04:54:01.001Z</time></trkpt><trkpt lat="15.612968552114584" lon="120.61488639473336"><ele>27.75</ele><time>2026-04-19T04:54:02.001Z</time></trkpt><trkpt lat="15.613027674305146" lon="120.61501148140623"><ele>28.0</ele><time>2026-04-19T04:54:03.001Z</time></trkpt><trkpt lat="15.613086994187427" lon="120.61513251162305"><ele>28.0</ele><time>2026-04-19T04:54:04.002Z</time></trkpt><trkpt lat="15.613145254709186" lon="120.61525392033337"><ele>28.0</ele><time>2026-04-19T04:54:05.002Z</time></trkpt><trkpt lat="15.613204262341691" lon="120.61537612773478"><ele>28.0</ele><time>2026-04-19T04:54:06.002Z</time></trkpt><trkpt lat="15.613264288562965" lon="120.61549902162061"><ele>28.0</ele><time>2026-04-19T04:54:07.002Z</time></trkpt><trkpt lat="15.613323820949335" lon="120.61562255418885"><ele>27.75</ele><time>2026-04-19T04:54:08.002Z</time></trkpt><trkpt lat="15.613384319434724" lon="120.61574690426272"><ele>27.5</ele><time>2026-04-19T04:54:09.002Z</time></trkpt><trkpt lat="15.613445052514175" lon="120.61586972085402"><ele>27.25</ele><time>2026-04-19T04:54:10.002Z</time></trkpt><trkpt lat="15.61350594466701" lon="120.61599171784216"><ele>27.0</ele><time>2026-04-19T04:54:11.002Z</time></trkpt><trkpt lat="15.613569075563277" lon="120.61611596038307"><ele>27.25</ele><time>2026-04-19T04:54:12.002Z</time></trkpt><trkpt lat="15.613630206362659" lon="120.61623830277726"><ele>27.5</ele><time>2026-04-19T04:54:13.002Z</time></trkpt><trkpt lat="15.613691268885384" lon="120.616359980359"><ele>27.75</ele><time>2026-04-19T04:54:14.002Z</time></trkpt><trkpt lat="15.613753092726853" lon="120.61648241447672"><ele>28.0</ele><time>2026-04-19T04:54:15.002Z</time></trkpt><trkpt lat="15.613815327285453" lon="120.61660513689661"><ele>28.0</ele><time>2026-04-19T04:54:16.002Z</time></trkpt><trkpt lat="15.613877217922385" lon="120.61672856435916"><ele>28.0</ele><time>2026-04-19T04:54:17.002Z</time></trkpt><trkpt lat="15.613938429092517" lon="120.6168497934252"><ele>28.0</ele><time>2026-04-19T04:54:18.002Z</time></trkpt><trkpt lat="15.613999137707554" lon="120.61697287034755"><ele>28.0</ele><time>2026-04-19T04:54:19.002Z</time></trkpt><trkpt lat="15.614061244407228" lon="120.61709876511877"><ele>28.0</ele><time>2026-04-19T04:54:20.002Z</time></trkpt><trkpt lat="15.614123878601452" lon="120.61722235011514"><ele>28.0</ele><time>2026-04-19T04:54:21.002Z</time></trkpt><trkpt lat="15.614185166962399" lon="120.61734687408898"><ele>28.0</ele><time>2026-04-19T04:54:22.002Z</time></trkpt><trkpt lat="15.614247113594184" lon="120.61747062527493"><ele>28.0</ele><time>2026-04-19T04:54:23.002Z</time></trkpt><trkpt lat="15.61430800800116" lon="120.61759377649906"><ele>28.0</ele><time>2026-04-19T04:54:24.002Z</time></trkpt><trkpt lat="15.614367660383145" lon="120.61771243998271"><ele>28.0</ele><time>2026-04-19T04:54:25.002Z</time></trkpt><trkpt lat="15.614427286989706" lon="120.61782864664676"><ele>28.0</ele><time>2026-04-19T04:54:26.002Z</time></trkpt><trkpt lat="15.61448266034501" lon="120.61793740025638"><ele>28.0</ele><time>2026-04-19T04:54:27.002Z</time></trkpt><trkpt lat="15.614538547098705" lon="120.61804898963447"><ele>27.5</ele><time>2026-04-19T04:54:28.002Z</time></trkpt><trkpt lat="15.614591059049214" lon="120.61815750281785"><ele>27.0</ele><time>2026-04-19T04:54:29.002Z</time></trkpt><trkpt lat="15.61464210746292" lon="120.61826721128793"><ele>26.5</ele><time>2026-04-19T04:54:30.001Z</time></trkpt><trkpt lat="15.614692250395633" lon="120.61837925821679"><ele>26.0</ele><time>2026-04-19T04:54:31.001Z</time></trkpt><trkpt lat="15.614741715345673" lon="120.61849351072038"><ele>26.0</ele><time>2026-04-19T04:54:32.001Z</time></trkpt><trkpt lat="15.61478901078297" lon="120.61860993206714"><ele>26.0</ele><time>2026-04-19T04:54:33.001Z</time></trkpt><trkpt lat="15.614835084974999" lon="120.61872549531216"><ele>26.0</ele><time>2026-04-19T04:54:34.001Z</time></trkpt><trkpt lat="15.614879665711879" lon="120.61883762088286"><ele>26.0</ele><time>2026-04-19T04:54:35.001Z</time></trkpt><trkpt lat="15.614923709206835" lon="120.61895018284423"><ele>25.75</ele><time>2026-04-19T04:54:36.001Z</time></trkpt><trkpt lat="15.614964356960584" lon="120.61905964302505"><ele>25.5</ele><time>2026-04-19T04:54:37.001Z</time></trkpt><trkpt lat="15.61500344822279" lon="120.61917202143225"><ele>25.25</ele><time>2026-04-19T04:54:38.001Z</time></trkpt><trkpt lat="15.61504058422664" lon="120.61928414605822"><ele>25.0</ele><time>2026-04-19T04:54:39.001Z</time></trkpt><trkpt lat="15.615075522622476" lon="120.61939883559361"><ele>25.0</ele><time>2026-04-19T04:54:40.001Z</time></trkpt><trkpt lat="15.615108338208671" lon="120.61951429956537"><ele>25.0</ele><time>2026-04-19T04:54:41.001Z</time></trkpt><trkpt lat="15.615139407154848" lon="120.61962939037338"><ele>25.0</ele><time>2026-04-19T04:54:42.001Z</time></trkpt><trkpt lat="15.615168247932203" lon="120.61974828123395"><ele>25.0</ele><time>2026-04-19T04:54:43.001Z</time></trkpt><trkpt lat="15.61519466165155" lon="120.61986882401926"><ele>25.0</ele><time>2026-04-19T04:54:44.001Z</time></trkpt><trkpt lat="15.615216388609404" lon="120.61999156726637"><ele>25.0</ele><time>2026-04-19T04:54:45.001Z</time></trkpt><trkpt lat="15.61523378416303" lon="120.62011549419798"><ele>25.0</ele><time>2026-04-19T04:54:46.001Z</time></trkpt><trkpt lat="15.615248634220052" lon="120.62024196632049"><ele>25.0</ele><time>2026-04-19T04:54:47.001Z</time></trkpt><trkpt lat="15.615261081385684" lon="120.62036959874126"><ele>25.0</ele><time>2026-04-19T04:54:48.001Z</time></trkpt><trkpt lat="15.615273174417071" lon="120.62049918974334"><ele>25.0</ele><time>2026-04-19T04:54:49.001Z</time></trkpt><trkpt lat="15.615286572256029" lon="120.62063153947393"><ele>25.0</ele><time>2026-04-19T04:54:50.001Z</time></trkpt><trkpt lat="15.615301052924732" lon="120.62076148459593"><ele>25.0</ele><time>2026-04-19T04:54:51.001Z</time></trkpt><trkpt lat="15.615314056705337" lon="120.6208970686442"><ele>25.0</ele><time>2026-04-19T04:54:52.001Z</time></trkpt><trkpt lat="15.615327111399909" lon="120.6210351158788"><ele>25.0</ele><time>2026-04-19T04:54:53.001Z</time></trkpt><trkpt lat="15.615340350608017" lon="120.62117044977275"><ele>25.0</ele><time>2026-04-19T04:54:54.001Z</time></trkpt><trkpt lat="15.61535410688043" lon="120.621307341127"><ele>25.0</ele><time>2026-04-19T04:54:55.001Z</time></trkpt><trkpt lat="15.615366941064824" lon="120.62144300667451"><ele>25.0</ele><time>2026-04-19T04:54:56.001Z</time></trkpt><trkpt lat="15.615379657381672" lon="120.62157561391598"><ele>25.0</ele><time>2026-04-19T04:54:57.001Z</time></trkpt><trkpt lat="15.615392512129473" lon="120.6217073687408"><ele>25.0</ele><time>2026-04-19T04:54:58.001Z</time></trkpt><trkpt lat="15.615404564728706" lon="120.62183843081085"><ele>25.0</ele><time>2026-04-19T04:54:59.001Z</time></trkpt><trkpt lat="15.615416853636841" lon="120.62196763862741"><ele>25.0</ele><time>2026-04-19T04:55:00.001Z</time></trkpt><trkpt lat="15.615429366899958" lon="120.62209606545444"><ele>25.0</ele><time>2026-04-19T04:55:01.001Z</time></trkpt><trkpt lat="15.615441376099188" lon="120.62222098297389"><ele>25.0</ele><time>2026-04-19T04:55:02.001Z</time></trkpt><trkpt lat="15.615454398444678" lon="120.62234301291855"><ele>25.0</ele><time>2026-04-19T04:55:03.001Z</time></trkpt><trkpt lat="15.615468137816594" lon="120.62246689570865"><ele>25.0</ele><time>2026-04-19T04:55:04.001Z</time></trkpt><trkpt lat="15.615479467143224" lon="120.62259049829329"><ele>25.0</ele><time>2026-04-19T04:55:05.001Z</time></trkpt><trkpt lat="15.615490910225775" lon="120.6227138721644"><ele>25.0</ele><time>2026-04-19T04:55:06.001Z</time></trkpt><trkpt lat="15.615503397816394" lon="120.62283505653168"><ele>25.0</ele><time>2026-04-19T04:55:07.001Z</time></trkpt><trkpt lat="15.615516504261274" lon="120.62295154883095"><ele>25.2</ele><time>2026-04-19T04:55:08.001Z</time></trkpt><trkpt lat="15.615527890277978" lon="120.62306284367921"><ele>25.4</ele><time>2026-04-19T04:55:09.001Z</time></trkpt><trkpt lat="15.615538653615289" lon="120.62317320575075"><ele>25.6</ele><time>2026-04-19T04:55:10.001Z</time></trkpt><trkpt lat="15.615548656052963" lon="120.62327745867098"><ele>25.8</ele><time>2026-04-19T04:55:11.001Z</time></trkpt><trkpt lat="15.615558297513488" lon="120.62338380842067"><ele>26.0</ele><time>2026-04-19T04:55:12.001Z</time></trkpt><trkpt lat="15.615567732404566" lon="120.6234918779804"><ele>26.0</ele><time>2026-04-19T04:55:13.001Z</time></trkpt><trkpt lat="15.61557773685647" lon="120.62359746853771"><ele>26.0</ele><time>2026-04-19T04:55:14.001Z</time></trkpt><trkpt lat="15.615587865992422" lon="120.62370781093178"><ele>26.0</ele><time>2026-04-19T04:55:15.001Z</time></trkpt><trkpt lat="15.615598274551154" lon="120.6238144193996"><ele>26.0</ele><time>2026-04-19T04:55:16.001Z</time></trkpt><trkpt lat="15.615608669746251" lon="120.62392428946879"><ele>26.0</ele><time>2026-04-19T04:55:17.001Z</time></trkpt><trkpt lat="15.615617750579185" lon="120.62402873313773"><ele>26.0</ele><time>2026-04-19T04:55:18.001Z</time></trkpt><trkpt lat="15.615628016544163" lon="120.62413170275659"><ele>26.0</ele><time>2026-04-19T04:55:19.001Z</time></trkpt><trkpt lat="15.615636998432834" lon="120.62423292906388"><ele>26.0</ele><time>2026-04-19T04:55:20.001Z</time></trkpt><trkpt lat="15.615647327186908" lon="120.62433078696304"><ele>26.0</ele><time>2026-04-19T04:55:21.001Z</time></trkpt><trkpt lat="15.615663175490656" lon="120.62442997049227"><ele>26.0</ele><time>2026-04-19T04:55:22.001Z</time></trkpt><trkpt lat="15.615681474673654" lon="120.62453648438155"><ele>26.0</ele><time>2026-04-19T04:55:23.001Z</time></trkpt><trkpt lat="15.615694071849306" lon="120.6246489661987"><ele>26.0</ele><time>2026-04-19T04:55:24.001Z</time></trkpt><trkpt lat="15.615702685908408" lon="120.62476535588495"><ele>26.0</ele><time>2026-04-19T04:55:25.001Z</time></trkpt><trkpt lat="15.615710265047458" lon="120.62488453846369"><ele>26.0</ele><time>2026-04-19T04:55:26.001Z</time></trkpt><trkpt lat="15.615719538168097" lon="120.62501070184284"><ele>26.0</ele><time>2026-04-19T04:55:27.001Z</time></trkpt><trkpt lat="15.615730891114081" lon="120.62514190787213"><ele>26.0</ele><time>2026-04-19T04:55:28.001Z</time></trkpt><trkpt lat="15.615744137395218" lon="120.62527656842235"><ele>26.0</ele><time>2026-04-19T04:55:29.001Z</time></trkpt><trkpt lat="15.615758141459542" lon="120.62541261710321"><ele>26.0</ele><time>2026-04-19T04:55:30.001Z</time></trkpt><trkpt lat="15.615773454098472" lon="120.62555228844768"><ele>26.25</ele><time>2026-04-19T04:55:31.001Z</time></trkpt><trkpt lat="15.615790371245506" lon="120.62569250064001"><ele>26.5</ele><time>2026-04-19T04:55:32.001Z</time></trkpt><trkpt lat="15.615808983029172" lon="120.62583152664335"><ele>26.75</ele><time>2026-04-19T04:55:33.001Z</time></trkpt><trkpt lat="15.615828195279425" lon="120.62596848341659"><ele>27.0</ele><time>2026-04-19T04:55:34.001Z</time></trkpt><trkpt lat="15.61584768289853" lon="120.6261039159462"><ele>27.0</ele><time>2026-04-19T04:55:35.001Z</time></trkpt><trkpt lat="15.615867835565172" lon="120.62623507574044"><ele>27.0</ele><time>2026-04-19T04:55:36.001Z</time></trkpt><trkpt lat="15.615889189135386" lon="120.62635910976215"><ele>27.0</ele><time>2026-04-19T04:55:37.001Z</time></trkpt><trkpt lat="15.615907175106562" lon="120.62647208570455"><ele>27.0</ele><time>2026-04-19T04:55:38.001Z</time></trkpt><trkpt lat="15.615928162700888" lon="120.62658290883479"><ele>27.0</ele><time>2026-04-19T04:55:39.001Z</time></trkpt><trkpt lat="15.615955560969336" lon="120.62669509354376"><ele>27.0</ele><time>2026-04-19T04:55:40.001Z</time></trkpt><trkpt lat="15.615988081984245" lon="120.62681108708323"><ele>27.0</ele><time>2026-04-19T04:55:41.001Z</time></trkpt><trkpt lat="15.616022411117171" lon="120.62692928683435"><ele>27.0</ele><time>2026-04-19T04:55:42.001Z</time></trkpt><trkpt lat="15.616054140731945" lon="120.62704959247567"><ele>26.75</ele><time>2026-04-19T04:55:43.001Z</time></trkpt><trkpt lat="15.616086853199063" lon="120.62717054201019"><ele>26.5</ele><time>2026-04-19T04:55:44.001Z</time></trkpt><trkpt lat="15.616123875345748" lon="120.62729515171019"><ele>26.25</ele><time>2026-04-19T04:55:45.001Z</time></trkpt><trkpt lat="15.616159858841128" lon="120.62741882985641"><ele>26.0</ele><time>2026-04-19T04:55:46.001Z</time></trkpt><trkpt lat="15.616196633936863" lon="120.62754526094409"><ele>26.0</ele><time>2026-04-19T04:55:47.001Z</time></trkpt><trkpt lat="15.616235266293447" lon="120.62767616891244"><ele>26.0</ele><time>2026-04-19T04:55:48.001Z</time></trkpt><trkpt lat="15.616273957405271" lon="120.6278053053719"><ele>26.0</ele><time>2026-04-19T04:55:49.001Z</time></trkpt><trkpt lat="15.616312778930926" lon="120.62793639327951"><ele>26.0</ele><time>2026-04-19T04:55:50.001Z</time></trkpt><trkpt lat="15.61635237501935" lon="120.62806771042393"><ele>26.75</ele><time>2026-04-19T04:55:51.001Z</time></trkpt><trkpt lat="15.616390028477268" lon="120.62819917982559"><ele>27.5</ele><time>2026-04-19T04:55:52.001Z</time></trkpt><trkpt lat="15.616427664128734" lon="120.62833265607082"><ele>28.25</ele><time>2026-04-19T04:55:53.001Z</time></trkpt><trkpt lat="15.616465583132698" lon="120.62846641007081"><ele>29.0</ele><time>2026-04-19T04:55:54.001Z</time></trkpt><trkpt lat="15.616504603470508" lon="120.62860211481126"><ele>28.75</ele><time>2026-04-19T04:55:55.001Z</time></trkpt><trkpt lat="15.616543320803483" lon="120.62873448377039"><ele>28.5</ele><time>2026-04-19T04:55:56.001Z</time></trkpt><trkpt lat="15.616583742230796" lon="120.6288695467056"><ele>28.25</ele><time>2026-04-19T04:55:57.001Z</time></trkpt><trkpt lat="15.616623051472848" lon="120.62900491553275"><ele>28.0</ele><time>2026-04-19T04:55:58.001Z</time></trkpt><trkpt lat="15.61666141161486" lon="120.62913920896128"><ele>28.0</ele><time>2026-04-19T04:55:59.001Z</time></trkpt><trkpt lat="15.616698934241342" lon="120.62927350770113"><ele>28.0</ele><time>2026-04-19T04:56:00.001Z</time></trkpt><trkpt lat="15.61673850040399" lon="120.62941108350998"><ele>28.0</ele><time>2026-04-19T04:56:01.001Z</time></trkpt><trkpt lat="15.616778624707472" lon="120.6295482088187"><ele>28.0</ele><time>2026-04-19T04:56:02.001Z</time></trkpt><trkpt lat="15.616818065425255" lon="120.62968448085806"><ele>27.25</ele><time>2026-04-19T04:56:03.001Z</time></trkpt><trkpt lat="15.616856139771473" lon="120.6298172595947"><ele>26.5</ele><time>2026-04-19T04:56:04.001Z</time></trkpt><trkpt lat="15.616893340475386" lon="120.62994870114198"><ele>25.75</ele><time>2026-04-19T04:56:05.001Z</time></trkpt><trkpt lat="15.616928746317084" lon="120.63007526831802"><ele>25.0</ele><time>2026-04-19T04:56:06.001Z</time></trkpt><trkpt lat="15.616963213913895" lon="120.63019914263208"><ele>25.2</ele><time>2026-04-19T04:56:07.001Z</time></trkpt><trkpt lat="15.616994880534511" lon="120.63031687312704"><ele>25.4</ele><time>2026-04-19T04:56:08.001Z</time></trkpt><trkpt lat="15.617024589294733" lon="120.63042381862736"><ele>25.6</ele><time>2026-04-19T04:56:09.001Z</time></trkpt><trkpt lat="15.61705264761605" lon="120.63052372817755"><ele>25.8</ele><time>2026-04-19T04:56:10.001Z</time></trkpt><trkpt lat="15.617080815336395" lon="120.63062182635355"><ele>26.0</ele><time>2026-04-19T04:56:11.002Z</time></trkpt><trkpt lat="15.617106968200394" lon="120.63071539137408"><ele>25.999999999999996</ele><time>2026-04-19T04:56:12.002Z</time></trkpt><trkpt lat="15.617132312536192" lon="120.6308034248404"><ele>26.0</ele><time>2026-04-19T04:56:13.002Z</time></trkpt><trkpt lat="15.61715701146466" lon="120.63088710619203"><ele>26.0</ele><time>2026-04-19T04:56:14.002Z</time></trkpt><trkpt lat="15.617182880417412" lon="120.63097062659186"><ele>26.0</ele><time>2026-04-19T04:56:15.002Z</time></trkpt><trkpt lat="15.617211247474094" lon="120.63104918560163"><ele>25.999999999999996</ele><time>2026-04-19T04:56:16.002Z</time></trkpt><trkpt lat="15.617241630469051" lon="120.63112831898017"><ele>26.0</ele><time>2026-04-19T04:56:17.002Z</time></trkpt><trkpt lat="15.617261377099945" lon="120.63120793723893"><ele>25.833333333333332</ele><time>2026-04-19T04:56:18.002Z</time></trkpt><trkpt lat="15.617282972642938" lon="120.63128815750443"><ele>25.666666666666664</ele><time>2026-04-19T04:56:19.002Z</time></trkpt><trkpt lat="15.617306354701556" lon="120.63137232087227"><ele>25.5</ele><time>2026-04-19T04:56:20.002Z</time></trkpt><trkpt lat="15.617330631305856" lon="120.6314609692099"><ele>25.333333333333336</ele><time>2026-04-19T04:56:21.002Z</time></trkpt><trkpt lat="15.617355729330514" lon="120.63155387947424"><ele>25.166666666666668</ele><time>2026-04-19T04:56:22.002Z</time></trkpt><trkpt lat="15.617382624929231" lon="120.63165158972689"><ele>25.0</ele><time>2026-04-19T04:56:23.002Z</time></trkpt><trkpt lat="15.617411352668405" lon="120.631755637806"><ele>25.0</ele><time>2026-04-19T04:56:24.002Z</time></trkpt><trkpt lat="15.617442514766253" lon="120.63186352291264"><ele>25.0</ele><time>2026-04-19T04:56:25.002Z</time></trkpt><trkpt lat="15.617473902647522" lon="120.63197355997718"><ele>25.0</ele><time>2026-04-19T04:56:26.002Z</time></trkpt><trkpt lat="15.61750426226824" lon="120.63208502507675"><ele>25.0</ele><time>2026-04-19T04:56:27.002Z</time></trkpt><trkpt lat="15.617535601432124" lon="120.6321962845518"><ele>25.0</ele><time>2026-04-19T04:56:28.002Z</time></trkpt><trkpt lat="15.617568337836204" lon="120.63231054492998"><ele>25.0</ele><time>2026-04-19T04:56:29.002Z</time></trkpt><trkpt lat="15.61760472998881" lon="120.63242913477134"><ele>25.0</ele><time>2026-04-19T04:56:30.002Z</time></trkpt><trkpt lat="15.617646460442986" lon="120.63255521678936"><ele>25.0</ele><time>2026-04-19T04:56:31.002Z</time></trkpt><trkpt lat="15.617689555322368" lon="120.63268791587807"><ele>25.0</ele><time>2026-04-19T04:56:32.002Z</time></trkpt><trkpt lat="15.617732737705127" lon="120.63282802670973"><ele>25.0</ele><time>2026-04-19T04:56:33.002Z</time></trkpt><trkpt lat="15.617773680051405" lon="120.63297029871629"><ele>25.0</ele><time>2026-04-19T04:56:34.002Z</time></trkpt><trkpt lat="15.61781026241488" lon="120.63311243905939"><ele>25.0</ele><time>2026-04-19T04:56:35.002Z</time></trkpt><trkpt lat="15.617848091824888" lon="120.6332572122313"><ele>25.0</ele><time>2026-04-19T04:56:36.001Z</time></trkpt><trkpt lat="15.617885096653826" lon="120.6333970599576"><ele>25.75</ele><time>2026-04-19T04:56:37.001Z</time></trkpt><trkpt lat="15.61791988685958" lon="120.6335319191615"><ele>26.5</ele><time>2026-04-19T04:56:38.001Z</time></trkpt><trkpt lat="15.617951516355989" lon="120.63365554147524"><ele>27.25</ele><time>2026-04-19T04:56:39.001Z</time></trkpt><trkpt lat="15.61798086942193" lon="120.63377419481881"><ele>28.0</ele><time>2026-04-19T04:56:40.001Z</time></trkpt><trkpt lat="15.618009206189404" lon="120.63388639628424"><ele>28.0</ele><time>2026-04-19T04:56:41.001Z</time></trkpt><trkpt lat="15.618035243319184" lon="120.63398666043484"><ele>27.999999999999996</ele><time>2026-04-19T04:56:42.001Z</time></trkpt><trkpt lat="15.618060016362973" lon="120.63407506896255"><ele>27.999999999999996</ele><time>2026-04-19T04:56:43.001Z</time></trkpt><trkpt lat="15.618081099253375" lon="120.63414698190418"><ele>28.0</ele><time>2026-04-19T04:56:44.001Z</time></trkpt><trkpt lat="15.618085503370168" lon="120.6342620855556"><ele>28.0</ele><time>2026-04-19T04:56:46.001Z</time></trkpt><trkpt lat="15.618025868378112" lon="120.63436371657048"><ele>28.000000000000004</ele><time>2026-04-19T04:56:48.001Z</time></trkpt><trkpt lat="15.617910745284851" lon="120.63442839222688"><ele>28.0</ele><time>2026-04-19T04:56:50.001Z</time></trkpt><trkpt lat="15.617843026485522" lon="120.63445074397728"><ele>28.0</ele><time>2026-04-19T04:56:51.001Z</time></trkpt><trkpt lat="15.617766858479841" lon="120.6344691857667"><ele>28.0</ele><time>2026-04-19T04:56:52.001Z</time></trkpt><trkpt lat="15.617688814255636" lon="120.63448599426945"><ele>28.000000000000004</ele><time>2026-04-19T04:56:53.001Z</time></trkpt><trkpt lat="15.61760233250469" lon="120.63450052255888"><ele>28.0</ele><time>2026-04-19T04:56:54.001Z</time></trkpt><trkpt lat="15.617511012771674" lon="120.63451398370104"><ele>27.799999999999997</ele><time>2026-04-19T04:56:55.001Z</time></trkpt><trkpt lat="15.61741847010659" lon="120.63452749594332"><ele>27.599999999999998</ele><time>2026-04-19T04:56:56.001Z</time></trkpt><trkpt lat="15.617323860953226" lon="120.63454079123841"><ele>27.400000000000002</ele><time>2026-04-19T04:56:57.001Z</time></trkpt><trkpt lat="15.617229039781881" lon="120.63455300496634"><ele>27.200000000000003</ele><time>2026-04-19T04:56:58.001Z</time></trkpt><trkpt lat="15.617132115625692" lon="120.63456431696203"><ele>27.0</ele><time>2026-04-19T04:56:59.001Z</time></trkpt><trkpt lat="15.617036226139215" lon="120.63457205926316"><ele>26.6</ele><time>2026-04-19T04:57:00.001Z</time></trkpt><trkpt lat="15.616938379619773" lon="120.63457714853911"><ele>26.200000000000003</ele><time>2026-04-19T04:57:01.001Z</time></trkpt><trkpt lat="15.61683825212663" lon="120.63457934306953"><ele>25.8</ele><time>2026-04-19T04:57:02.001Z</time></trkpt><trkpt lat="15.616741734986439" lon="120.63457683863383"><ele>25.4</ele><time>2026-04-19T04:57:03.001Z</time></trkpt><trkpt lat="15.61664420312531" lon="120.63456722128576"><ele>25.0</ele><time>2026-04-19T04:57:04.001Z</time></trkpt><trkpt lat="15.61654930728139" lon="120.63454912128826"><ele>25.000000000000004</ele><time>2026-04-19T04:57:05.001Z</time></trkpt><trkpt lat="15.616459150107765" lon="120.63452107772514"><ele>25.0</ele><time>2026-04-19T04:57:06.001Z</time></trkpt><trkpt lat="15.616374425344091" lon="120.634485396547"><ele>25.0</ele><time>2026-04-19T04:57:07.001Z</time></trkpt><trkpt lat="15.61629733716169" lon="120.63443988910016"><ele>25.0</ele><time>2026-04-19T04:57:08.001Z</time></trkpt><trkpt lat="15.616230617193573" lon="120.6343852944522"><ele>25.000000000000004</ele><time>2026-04-19T04:57:09.001Z</time></trkpt><trkpt lat="15.616172829499218" lon="120.63432629751598"><ele>25.0</ele><time>2026-04-19T04:57:10.001Z</time></trkpt><trkpt lat="15.616125232726795" lon="120.63427071835495"><ele>25.000000000000004</ele><time>2026-04-19T04:57:11.001Z</time></trkpt><trkpt lat="15.616078870454249" lon="120.6342154772033"><ele>25.0</ele><time>2026-04-19T04:57:12.001Z</time></trkpt><trkpt lat="15.616034790990849" lon="120.63416409293131"><ele>25.0</ele><time>2026-04-19T04:57:13.001Z</time></trkpt><trkpt lat="15.615957493334038" lon="120.6340780991205"><ele>25.0</ele><time>2026-04-19T04:57:15.001Z</time></trkpt><trkpt lat="15.61589739755555" lon="120.634009563005"><ele>25.000000000000004</ele><time>2026-04-19T04:57:17.001Z</time></trkpt><trkpt lat="15.615827295326378" lon="120.63392884063647"><ele>25.0</ele><time>2026-04-19T04:57:19.001Z</time></trkpt><trkpt lat="15.61577961434058" lon="120.63388456555066"><ele>25.000000000000004</ele><time>2026-04-19T04:57:20.001Z</time></trkpt><trkpt lat="15.615727258003588" lon="120.63383829529322"><ele>25.0</ele><time>2026-04-19T04:57:21.001Z</time></trkpt><trkpt lat="15.615668360562927" lon="120.63378698192884"><ele>25.0</ele><time>2026-04-19T04:57:22.001Z</time></trkpt><trkpt lat="15.615618937406827" lon="120.63372079363702"><ele>25.0</ele><time>2026-04-19T04:57:23.001Z</time></trkpt><trkpt lat="15.615550378989884" lon="120.63366477364134"><ele>25.000000000000004</ele><time>2026-04-19T04:57:24.001Z</time></trkpt><trkpt lat="15.615476786752321" lon="120.63360607105103"><ele>25.0</ele><time>2026-04-19T04:57:25.001Z</time></trkpt><trkpt lat="15.615410770497219" lon="120.63353184170914"><ele>24.8</ele><time>2026-04-19T04:57:26.001Z</time></trkpt><trkpt lat="15.615326371354536" lon="120.63347344485123"><ele>24.6</ele><time>2026-04-19T04:57:27.001Z</time></trkpt><trkpt lat="15.615255581793994" lon="120.63339762952442"><ele>24.4</ele><time>2026-04-19T04:57:28.001Z</time></trkpt><trkpt lat="15.61517117944423" lon="120.63332634344722"><ele>24.2</ele><time>2026-04-19T04:57:29.001Z</time></trkpt><trkpt lat="15.615086450850951" lon="120.6332549742263"><ele>24.0</ele><time>2026-04-19T04:57:30.001Z</time></trkpt><trkpt lat="15.615002566580387" lon="120.63318156544561"><ele>24.0</ele><time>2026-04-19T04:57:31.001Z</time></trkpt><trkpt lat="15.614919540350236" lon="120.6331052786388"><ele>24.0</ele><time>2026-04-19T04:57:32.001Z</time></trkpt><trkpt lat="15.614832013919248" lon="120.63302559360262"><ele>24.0</ele><time>2026-04-19T04:57:33.001Z</time></trkpt><trkpt lat="15.614738883517665" lon="120.63295302379377"><ele>24.0</ele><time>2026-04-19T04:57:34.001Z</time></trkpt><trkpt lat="15.614656730723237" lon="120.63286351376047"><ele>24.0</ele><time>2026-04-19T04:57:35.001Z</time></trkpt><trkpt lat="15.614573273020683" lon="120.63277137388484"><ele>24.0</ele><time>2026-04-19T04:57:36.001Z</time></trkpt><trkpt lat="15.614490498288047" lon="120.63267777965996"><ele>24.0</ele><time>2026-04-19T04:57:37.001Z</time></trkpt><trkpt lat="15.614409241107557" lon="120.6325783536974"><ele>24.0</ele><time>2026-04-19T04:57:38.001Z</time></trkpt><trkpt lat="15.614330627846003" lon="120.63247580724143"><ele>24.0</ele><time>2026-04-19T04:57:39.001Z</time></trkpt><trkpt lat="15.614256455555317" lon="120.63236813262112"><ele>24.0</ele><time>2026-04-19T04:57:40.001Z</time></trkpt><trkpt lat="15.614189237797785" lon="120.63225639452116"><ele>24.0</ele><time>2026-04-19T04:57:41.001Z</time></trkpt><trkpt lat="15.61412979409485" lon="120.63213775786652"><ele>24.0</ele><time>2026-04-19T04:57:42.001Z</time></trkpt><trkpt lat="15.61407910550192" lon="120.63201683219397"><ele>24.25</ele><time>2026-04-19T04:57:43.001Z</time></trkpt><trkpt lat="15.614036653596793" lon="120.63189058651888"><ele>24.5</ele><time>2026-04-19T04:57:44.001Z</time></trkpt><trkpt lat="15.614000976566512" lon="120.63176183958099"><ele>24.75</ele><time>2026-04-19T04:57:45.001Z</time></trkpt><trkpt lat="15.613975237354886" lon="120.6316291125"><ele>25.0</ele><time>2026-04-19T04:57:46.001Z</time></trkpt><trkpt lat="15.613958943464318" lon="120.63149084488941"><ele>25.0</ele><time>2026-04-19T04:57:47.001Z</time></trkpt><trkpt lat="15.613950047329796" lon="120.63135662632449"><ele>25.0</ele><time>2026-04-19T04:57:48.001Z</time></trkpt><trkpt lat="15.613941432660859" lon="120.63122188171924"><ele>25.0</ele><time>2026-04-19T04:57:49.001Z</time></trkpt><trkpt lat="15.61393534575219" lon="120.63109211128953"><ele>25.0</ele><time>2026-04-19T04:57:50.001Z</time></trkpt><trkpt lat="15.613931224913328" lon="120.6309611963245"><ele>24.5</ele><time>2026-04-19T04:57:51.001Z</time></trkpt><trkpt lat="15.613926881454434" lon="120.63083536521044"><ele>24.0</ele><time>2026-04-19T04:57:52.001Z</time></trkpt><trkpt lat="15.61392168332086" lon="120.63071197178557"><ele>23.5</ele><time>2026-04-19T04:57:53.001Z</time></trkpt><trkpt lat="15.613917661492549" lon="120.63059134668343"><ele>23.0</ele><time>2026-04-19T04:57:54.001Z</time></trkpt><trkpt lat="15.613915655738845" lon="120.6304740627801"><ele>23.0</ele><time>2026-04-19T04:57:55.001Z</time></trkpt><trkpt lat="15.613922015148722" lon="120.63035994317845"><ele>23.0</ele><time>2026-04-19T04:57:56.001Z</time></trkpt><trkpt lat="15.613941957390635" lon="120.63024832374442"><ele>23.0</ele><time>2026-04-19T04:57:57.001Z</time></trkpt><trkpt lat="15.61397771714187" lon="120.6301404963079"><ele>23.0</ele><time>2026-04-19T04:57:58.001Z</time></trkpt><trkpt lat="15.614034658960861" lon="120.63004369860352"><ele>23.0</ele><time>2026-04-19T04:57:59.001Z</time></trkpt><trkpt lat="15.614110774979585" lon="120.62996533063229"><ele>23.2</ele><time>2026-04-19T04:58:00.001Z</time></trkpt><trkpt lat="15.614198070906225" lon="120.62990644897401"><ele>23.4</ele><time>2026-04-19T04:58:01.001Z</time></trkpt><trkpt lat="15.61429667866377" lon="120.62987512674296"><ele>23.599999999999998</ele><time>2026-04-19T04:58:02.001Z</time></trkpt><trkpt lat="15.614403524564079" lon="120.62986352710897"><ele>23.799999999999997</ele><time>2026-04-19T04:58:03.001Z</time></trkpt><trkpt lat="15.614507587131516" lon="120.629874282408"><ele>24.0</ele><time>2026-04-19T04:58:04.001Z</time></trkpt><trkpt lat="15.614599947026619" lon="120.62991517555595"><ele>24.0</ele><time>2026-04-19T04:58:05.001Z</time></trkpt><trkpt lat="15.614688115980124" lon="120.62997519257888"><ele>24.0</ele><time>2026-04-19T04:58:06.001Z</time></trkpt><trkpt lat="15.61476035549085" lon="120.63005567680838"><ele>24.0</ele><time>2026-04-19T04:58:07.001Z</time></trkpt><trkpt lat="15.614809972456305" lon="120.63015514623402"><ele>24.0</ele><time>2026-04-19T04:58:08.001Z</time></trkpt><trkpt lat="15.61483912053987" lon="120.63025934615109"><ele>24.0</ele><time>2026-04-19T04:58:09.001Z</time></trkpt><trkpt lat="15.61483959853287" lon="120.63036471511909"><ele>24.0</ele><time>2026-04-19T04:58:10.001Z</time></trkpt><trkpt lat="15.614822180890853" lon="120.6304661902378"><ele>24.0</ele><time>2026-04-19T04:58:11.001Z</time></trkpt><trkpt lat="15.614781370263044" lon="120.63056145038927"><ele>24.0</ele><time>2026-04-19T04:58:12.001Z</time></trkpt><trkpt lat="15.614723445508972" lon="120.63064198224741"><ele>24.0</ele><time>2026-04-19T04:58:13.001Z</time></trkpt><trkpt lat="15.61464896223127" lon="120.63070737557356"><ele>24.0</ele><time>2026-04-19T04:58:14.001Z</time></trkpt><trkpt lat="15.614561201338551" lon="120.6307622974307"><ele>23.75</ele><time>2026-04-19T04:58:15.001Z</time></trkpt><trkpt lat="15.614460380328389" lon="120.63080580561143"><ele>23.5</ele><time>2026-04-19T04:58:16.001Z</time></trkpt><trkpt lat="15.614349804217673" lon="120.6308282236322"><ele>23.25</ele><time>2026-04-19T04:58:17.001Z</time></trkpt><trkpt lat="15.614231668400413" lon="120.63083696677828"><ele>23.0</ele><time>2026-04-19T04:58:18.001Z</time></trkpt><trkpt lat="15.614109581154459" lon="120.630840676072"><ele>23.0</ele><time>2026-04-19T04:58:19.001Z</time></trkpt><trkpt lat="15.61398081555228" lon="120.63084451812033"><ele>23.0</ele><time>2026-04-19T04:58:20.001Z</time></trkpt><trkpt lat="15.613841815778342" lon="120.63084938908582"><ele>23.0</ele><time>2026-04-19T04:58:21.001Z</time></trkpt><trkpt lat="15.613703961527815" lon="120.63085426723224"><ele>23.0</ele><time>2026-04-19T04:58:22.001Z</time></trkpt><trkpt lat="15.613560143342786" lon="120.63085892109018"><ele>23.666666666666668</ele><time>2026-04-19T04:58:23.001Z</time></trkpt><trkpt lat="15.613409392634829" lon="120.63086550423684"><ele>24.333333333333336</ele><time>2026-04-19T04:58:24.002Z</time></trkpt><trkpt lat="15.61325376847076" lon="120.63087195663014"><ele>25.0</ele><time>2026-04-19T04:58:25.002Z</time></trkpt><trkpt lat="15.613095080477798" lon="120.63087814287839"><ele>25.0</ele><time>2026-04-19T04:58:26.002Z</time></trkpt><trkpt lat="15.612929625627984" lon="120.63088445116493"><ele>25.0</ele><time>2026-04-19T04:58:27.002Z</time></trkpt><trkpt lat="15.61276043475035" lon="120.63089055869307"><ele>25.0</ele><time>2026-04-19T04:58:28.002Z</time></trkpt><trkpt lat="15.612587454940027" lon="120.63089815639026"><ele>25.0</ele><time>2026-04-19T04:58:29.002Z</time></trkpt><trkpt lat="15.612408842051165" lon="120.63090227061872"><ele>25.0</ele><time>2026-04-19T04:58:30.002Z</time></trkpt><trkpt lat="15.6122267247361" lon="120.63090546368217"><ele>25.0</ele><time>2026-04-19T04:58:31.002Z</time></trkpt><trkpt lat="15.612040466722108" lon="120.63090631138297"><ele>25.333333333333336</ele><time>2026-04-19T04:58:32.002Z</time></trkpt><trkpt lat="15.61185198700858" lon="120.63090878425706"><ele>25.666666666666664</ele><time>2026-04-19T04:58:33.002Z</time></trkpt><trkpt lat="15.611662331489908" lon="120.63091017257764"><ele>26.0</ele><time>2026-04-19T04:58:34.002Z</time></trkpt><trkpt lat="15.611467250825337" lon="120.63091092616813"><ele>26.0</ele><time>2026-04-19T04:58:35.002Z</time></trkpt><trkpt lat="15.611271447330255" lon="120.6309120783309"><ele>26.0</ele><time>2026-04-19T04:58:36.002Z</time></trkpt><trkpt lat="15.611075537148706" lon="120.63091298908668"><ele>26.0</ele><time>2026-04-19T04:58:37.002Z</time></trkpt><trkpt lat="15.6108780983007" lon="120.63091268287633"><ele>25.666666666666664</ele><time>2026-04-19T04:58:38.002Z</time></trkpt><trkpt lat="15.610680810530342" lon="120.63091217997324"><ele>25.333333333333336</ele><time>2026-04-19T04:58:39.002Z</time></trkpt><trkpt lat="15.610480355477781" lon="120.63091173677826"><ele>25.0</ele><time>2026-04-19T04:58:40.002Z</time></trkpt><trkpt lat="15.610281164809754" lon="120.6309119766877"><ele>24.666666666666668</ele><time>2026-04-19T04:58:41.002Z</time></trkpt><trkpt lat="15.610080611535057" lon="120.63091263902052"><ele>24.333333333333336</ele><time>2026-04-19T04:58:42.001Z</time></trkpt><trkpt lat="15.609880510966018" lon="120.63091323251453"><ele>24.0</ele><time>2026-04-19T04:58:43.001Z</time></trkpt><trkpt lat="15.609679173012703" lon="120.63091266420136"><ele>24.0</ele><time>2026-04-19T04:58:44.001Z</time></trkpt><trkpt lat="15.60947761092494" lon="120.6309111173548"><ele>24.0</ele><time>2026-04-19T04:58:45.001Z</time></trkpt><trkpt lat="15.609275477154306" lon="120.63091020026712"><ele>24.0</ele><time>2026-04-19T04:58:46.001Z</time></trkpt><trkpt lat="15.609075169356467" lon="120.6309102026302"><ele>24.0</ele><time>2026-04-19T04:58:47.001Z</time></trkpt><trkpt lat="15.60887581999972" lon="120.63091069827267"><ele>24.0</ele><time>2026-04-19T04:58:48.001Z</time></trkpt><trkpt lat="15.60867395655749" lon="120.63091138483144"><ele>24.0</ele><time>2026-04-19T04:58:49.001Z</time></trkpt><trkpt lat="15.608477149353874" lon="120.63091268802133"><ele>24.666666666666664</ele><time>2026-04-19T04:58:50.001Z</time></trkpt><trkpt lat="15.60827477788782" lon="120.63091374667462"><ele>25.333333333333332</ele><time>2026-04-19T04:58:51.001Z</time></trkpt><trkpt lat="15.608075361722628" lon="120.63091385276836"><ele>26.0</ele><time>2026-04-19T04:58:52.001Z</time></trkpt><trkpt lat="15.60787444671815" lon="120.63091522970811"><ele>26.333333333333332</ele><time>2026-04-19T04:58:53.001Z</time></trkpt><trkpt lat="15.607672620577043" lon="120.63091621842715"><ele>26.666666666666664</ele><time>2026-04-19T04:58:54.001Z</time></trkpt><trkpt lat="15.607470661035421" lon="120.63091557691962"><ele>27.0</ele><time>2026-04-19T04:58:55.001Z</time></trkpt><trkpt lat="15.607266831203857" lon="120.63091537740989"><ele>27.0</ele><time>2026-04-19T04:58:56.001Z</time></trkpt><trkpt lat="15.607061586120377" lon="120.6309149891166"><ele>27.0</ele><time>2026-04-19T04:58:57.001Z</time></trkpt><trkpt lat="15.60685616527564" lon="120.6309156645452"><ele>27.0</ele><time>2026-04-19T04:58:58.001Z</time></trkpt><trkpt lat="15.606649793991597" lon="120.6309162825367"><ele>27.0</ele><time>2026-04-19T04:58:59.001Z</time></trkpt><trkpt lat="15.606442037951696" lon="120.63091722737776"><ele>27.0</ele><time>2026-04-19T04:59:00.001Z</time></trkpt><trkpt lat="15.606236665724904" lon="120.63091654218077"><ele>27.0</ele><time>2026-04-19T04:59:01.001Z</time></trkpt><trkpt lat="15.606029111392159" lon="120.63091484910788"><ele>27.0</ele><time>2026-04-19T04:59:02.001Z</time></trkpt><trkpt lat="15.605821711443543" lon="120.63091390507935"><ele>27.0</ele><time>2026-04-19T04:59:03.001Z</time></trkpt><trkpt lat="15.60561661976523" lon="120.63091304346821"><ele>27.0</ele><time>2026-04-19T04:59:04.001Z</time></trkpt><trkpt lat="15.6054101202325" lon="120.6309125437463"><ele>27.333333333333336</ele><time>2026-04-19T04:59:05.001Z</time></trkpt><trkpt lat="15.605204390394771" lon="120.63091311320113"><ele>27.666666666666668</ele><time>2026-04-19T04:59:06.001Z</time></trkpt><trkpt lat="15.604999786448131" lon="120.63091412792876"><ele>28.0</ele><time>2026-04-19T04:59:07.001Z</time></trkpt><trkpt lat="15.604795209903177" lon="120.63091397080348"><ele>28.0</ele><time>2026-04-19T04:59:08.001Z</time></trkpt><trkpt lat="15.604590121583742" lon="120.63091356450042"><ele>28.0</ele><time>2026-04-19T04:59:09.001Z</time></trkpt><trkpt lat="15.604384414997314" lon="120.63091312487877"><ele>28.0</ele><time>2026-04-19T04:59:10.001Z</time></trkpt><trkpt lat="15.604178396075124" lon="120.63091327199795"><ele>27.666666666666668</ele><time>2026-04-19T04:59:11.001Z</time></trkpt><trkpt lat="15.603972126505843" lon="120.63091320540128"><ele>27.333333333333336</ele><time>2026-04-19T04:59:12.001Z</time></trkpt><trkpt lat="15.603764964303249" lon="120.6309130135641"><ele>27.0</ele><time>2026-04-19T04:59:13.001Z</time></trkpt><trkpt lat="15.603556601011977" lon="120.63091231618257"><ele>27.0</ele><time>2026-04-19T04:59:14.001Z</time></trkpt><trkpt lat="15.603349282361961" lon="120.63091247574566"><ele>27.0</ele><time>2026-04-19T04:59:15.001Z</time></trkpt><trkpt lat="15.603140653529147" lon="120.63091253130888"><ele>27.0</ele><time>2026-04-19T04:59:16.001Z</time></trkpt><trkpt lat="15.602928057211681" lon="120.63091164408425"><ele>27.0</ele><time>2026-04-19T04:59:17.001Z</time></trkpt><trkpt lat="15.602714534074837" lon="120.63091183375106"><ele>27.0</ele><time>2026-04-19T04:59:18.001Z</time></trkpt><trkpt lat="15.602499081539303" lon="120.63091276137791"><ele>27.0</ele><time>2026-04-19T04:59:19.001Z</time></trkpt><trkpt lat="15.602283214781213" lon="120.63091316494679"><ele>27.0</ele><time>2026-04-19T04:59:20.001Z</time></trkpt><trkpt lat="15.602064818667609" lon="120.6309134523337"><ele>27.0</ele><time>2026-04-19T04:59:21.001Z</time></trkpt><trkpt lat="15.60184646453853" lon="120.630913664141"><ele>27.0</ele><time>2026-04-19T04:59:22.001Z</time></trkpt><trkpt lat="15.601628808256518" lon="120.63091483902613"><ele>26.666666666666664</ele><time>2026-04-19T04:59:23.001Z</time></trkpt><trkpt lat="15.601411904057358" lon="120.63091631089799"><ele>26.333333333333332</ele><time>2026-04-19T04:59:24.001Z</time></trkpt><trkpt lat="15.601194192182929" lon="120.63091775631267"><ele>26.0</ele><time>2026-04-19T04:59:25.001Z</time></trkpt><trkpt lat="15.60097898576475" lon="120.6309186583817"><ele>25.666666666666664</ele><time>2026-04-19T04:59:26.001Z</time></trkpt><trkpt lat="15.600761408903884" lon="120.63091969907434"><ele>25.333333333333336</ele><time>2026-04-19T04:59:27.001Z</time></trkpt><trkpt lat="15.600544883146314" lon="120.63091979318988"><ele>25.0</ele><time>2026-04-19T04:59:28.001Z</time></trkpt><trkpt lat="15.600329240658626" lon="120.63091956864699"><ele>26.0</ele><time>2026-04-19T04:59:29.001Z</time></trkpt><trkpt lat="15.600110985042564" lon="120.63091807645615"><ele>27.0</ele><time>2026-04-19T04:59:30.001Z</time></trkpt><trkpt lat="15.599891766181239" lon="120.63091713470664"><ele>28.0</ele><time>2026-04-19T04:59:31.001Z</time></trkpt><trkpt lat="15.599671449998638" lon="120.63091843714629"><ele>27.333333333333336</ele><time>2026-04-19T04:59:32.001Z</time></trkpt><trkpt lat="15.599449463749995" lon="120.63091844135968"><ele>26.666666666666664</ele><time>2026-04-19T04:59:33.001Z</time></trkpt><trkpt lat="15.599227333148711" lon="120.63091806171074"><ele>26.0</ele><time>2026-04-19T04:59:34.001Z</time></trkpt><trkpt lat="15.599006618474442" lon="120.63091903922225"><ele>26.0</ele><time>2026-04-19T04:59:35.001Z</time></trkpt><trkpt lat="15.598783938770268" lon="120.63091935469325"><ele>26.0</ele><time>2026-04-19T04:59:36.001Z</time></trkpt><trkpt lat="15.598563170385411" lon="120.63091897824175"><ele>26.0</ele><time>2026-04-19T04:59:37.001Z</time></trkpt><trkpt lat="15.598343861462297" lon="120.63091879266744"><ele>26.0</ele><time>2026-04-19T04:59:38.001Z</time></trkpt><trkpt lat="15.598122699731753" lon="120.63091868283477"><ele>26.0</ele><time>2026-04-19T04:59:39.001Z</time></trkpt><trkpt lat="15.597901376954493" lon="120.63091898124678"><ele>26.0</ele><time>2026-04-19T04:59:40.001Z</time></trkpt><trkpt lat="15.59768092516449" lon="120.63091999184773"><ele>26.333333333333332</ele><time>2026-04-19T04:59:41.001Z</time></trkpt><trkpt lat="15.597457155900608" lon="120.63092131043926"><ele>26.666666666666664</ele><time>2026-04-19T04:59:42.001Z</time></trkpt><trkpt lat="15.597233317773354" lon="120.6309243869661"><ele>27.0</ele><time>2026-04-19T04:59:43.001Z</time></trkpt><trkpt lat="15.597005217819284" lon="120.63092997361696"><ele>27.0</ele><time>2026-04-19T04:59:44.001Z</time></trkpt><trkpt lat="15.59677421135314" lon="120.63093531059342"><ele>27.0</ele><time>2026-04-19T04:59:45.001Z</time></trkpt><trkpt lat="15.596536348658978" lon="120.63093922553418"><ele>27.0</ele><time>2026-04-19T04:59:46.001Z</time></trkpt><trkpt lat="15.596299068963617" lon="120.63094405382114"><ele>27.0</ele><time>2026-04-19T04:59:47.001Z</time></trkpt><trkpt lat="15.596055911473526" lon="120.63094670815457"><ele>27.0</ele><time>2026-04-19T04:59:48.001Z</time></trkpt><trkpt lat="15.595811109523686" lon="120.63094883133466"><ele>27.0</ele><time>2026-04-19T04:59:49.001Z</time></trkpt><trkpt lat="15.595563365346871" lon="120.63095019890646"><ele>27.0</ele><time>2026-04-19T04:59:50.001Z</time></trkpt><trkpt lat="15.595311719674246" lon="120.63095049458495"><ele>27.0</ele><time>2026-04-19T04:59:51.001Z</time></trkpt><trkpt lat="15.595058783822056" lon="120.6309504117"><ele>27.0</ele><time>2026-04-19T04:59:52.001Z</time></trkpt><trkpt lat="15.594802311732344" lon="120.63095024935032"><ele>27.0</ele><time>2026-04-19T04:59:53.001Z</time></trkpt><trkpt lat="15.594544484497327" lon="120.63094978438505"><ele>27.5</ele><time>2026-04-19T04:59:54.001Z</time></trkpt><trkpt lat="15.59428758790591" lon="120.63094908111098"><ele>28.0</ele><time>2026-04-19T04:59:55.001Z</time></trkpt><trkpt lat="15.594026196258605" lon="120.63095042475976"><ele>28.0</ele><time>2026-04-19T04:59:56.001Z</time></trkpt><trkpt lat="15.59376463688363" lon="120.63095204401982"><ele>28.0</ele><time>2026-04-19T04:59:57.001Z</time></trkpt><trkpt lat="15.59350291365169" lon="120.6309532877538"><ele>27.0</ele><time>2026-04-19T04:59:58.001Z</time></trkpt><trkpt lat="15.593239513005683" lon="120.63095442429845"><ele>26.0</ele><time>2026-04-19T04:59:59.001Z</time></trkpt><trkpt lat="15.59297351946747" lon="120.63095469128375"><ele>26.0</ele><time>2026-04-19T05:00:00.001Z</time></trkpt><trkpt lat="15.592707869707084" lon="120.63095458443642"><ele>26.0</ele><time>2026-04-19T05:00:01.001Z</time></trkpt><trkpt lat="15.592442258517508" lon="120.6309542402411"><ele>26.0</ele><time>2026-04-19T05:00:02.001Z</time></trkpt><trkpt lat="15.59217645997524" lon="120.63095370987922"><ele>26.0</ele><time>2026-04-19T05:00:03.001Z</time></trkpt><trkpt lat="15.59190921262" lon="120.63095172077647"><ele>26.5</ele><time>2026-04-19T05:00:04.001Z</time></trkpt><trkpt lat="15.591643221303652" lon="120.63094687236145"><ele>27.0</ele><time>2026-04-19T05:00:05.001Z</time></trkpt><trkpt lat="15.591375709110775" lon="120.63094155006061"><ele>28.0</ele><time>2026-04-19T05:00:06.001Z</time></trkpt><trkpt lat="15.591111632978581" lon="120.63093626330246"><ele>29.0</ele><time>2026-04-19T05:00:07.001Z</time></trkpt><trkpt lat="15.590847424599575" lon="120.63093097385088"><ele>29.0</ele><time>2026-04-19T05:00:08.001Z</time></trkpt><trkpt lat="15.590583402000496" lon="120.63092785993443"><ele>29.0</ele><time>2026-04-19T05:00:09.001Z</time></trkpt><trkpt lat="15.590323527703166" lon="120.6309254554672"><ele>28.5</ele><time>2026-04-19T05:00:10.001Z</time></trkpt><trkpt lat="15.590063038897332" lon="120.63092216604575"><ele>28.0</ele><time>2026-04-19T05:00:11.001Z</time></trkpt><trkpt lat="15.589806484796584" lon="120.63091956782799"><ele>28.0</ele><time>2026-04-19T05:00:12.001Z</time></trkpt><trkpt lat="15.589547354404743" lon="120.63091799390985"><ele>28.0</ele><time>2026-04-19T05:00:13.001Z</time></trkpt><trkpt lat="15.589291883796088" lon="120.63091694174925"><ele>28.0</ele><time>2026-04-19T05:00:14.001Z</time></trkpt><trkpt lat="15.589035296049708" lon="120.63091609829516"><ele>28.0</ele><time>2026-04-19T05:00:15.001Z</time></trkpt><trkpt lat="15.588778259088986" lon="120.6309160200046"><ele>28.5</ele><time>2026-04-19T05:00:16.001Z</time></trkpt><trkpt lat="15.588523791432662" lon="120.63091542918981"><ele>29.0</ele><time>2026-04-19T05:00:17.001Z</time></trkpt><trkpt lat="15.58826964558445" lon="120.63091596656403"><ele>29.0</ele><time>2026-04-19T05:00:18.001Z</time></trkpt><trkpt lat="15.588014415270216" lon="120.63091602937364"><ele>29.0</ele><time>2026-04-19T05:00:19.001Z</time></trkpt><trkpt lat="15.587761381086409" lon="120.63091545253121"><ele>29.5</ele><time>2026-04-19T05:00:20.001Z</time></trkpt><trkpt lat="15.587508337590585" lon="120.63091445603992"><ele>30.0</ele><time>2026-04-19T05:00:21.001Z</time></trkpt><trkpt lat="15.58725760549751" lon="120.6309126013994"><ele>30.0</ele><time>2026-04-19T05:00:22.001Z</time></trkpt><trkpt lat="15.587007056574423" lon="120.63091265909044"><ele>30.0</ele><time>2026-04-19T05:00:23.001Z</time></trkpt><trkpt lat="15.586756578039555" lon="120.63091148144106"><ele>30.0</ele><time>2026-04-19T05:00:24.001Z</time></trkpt><trkpt lat="15.58650669226724" lon="120.63091054634168"><ele>30.0</ele><time>2026-04-19T05:00:25.001Z</time></trkpt><trkpt lat="15.58625882933268" lon="120.6309111771132"><ele>31.0</ele><time>2026-04-19T05:00:26.001Z</time></trkpt><trkpt lat="15.586011801731138" lon="120.63091151207804"><ele>32.0</ele><time>2026-04-19T05:00:27.001Z</time></trkpt><trkpt lat="15.585764614796156" lon="120.63091440717001"><ele>32.0</ele><time>2026-04-19T05:00:28.001Z</time></trkpt><trkpt lat="15.58551842222355" lon="120.63091423305528"><ele>32.0</ele><time>2026-04-19T05:00:29.001Z</time></trkpt><trkpt lat="15.58527087795311" lon="120.63091648998677"><ele>31.5</ele><time>2026-04-19T05:00:30.001Z</time></trkpt><trkpt lat="15.585022100634381" lon="120.63091725488036"><ele>31.0</ele><time>2026-04-19T05:00:31.001Z</time></trkpt><trkpt lat="15.58477423787304" lon="120.6309183882528"><ele>31.0</ele><time>2026-04-19T05:00:32.001Z</time></trkpt><trkpt lat="15.58452585493781" lon="120.63091683440551"><ele>31.0</ele><time>2026-04-19T05:00:33.001Z</time></trkpt><trkpt lat="15.584278333987559" lon="120.63091769773212"><ele>30.0</ele><time>2026-04-19T05:00:34.001Z</time></trkpt><trkpt lat="15.584029067355186" lon="120.63091919931195"><ele>29.0</ele><time>2026-04-19T05:00:35.001Z</time></trkpt><trkpt lat="15.583782735151816" lon="120.63092110623266"><ele>30.5</ele><time>2026-04-19T05:00:36.001Z</time></trkpt><trkpt lat="15.583538510489321" lon="120.63092481741265"><ele>32.0</ele><time>2026-04-19T05:00:37.001Z</time></trkpt><trkpt lat="15.583294527333702" lon="120.63093029995487"><ele>32.0</ele><time>2026-04-19T05:00:38.001Z</time></trkpt><trkpt lat="15.58305208337414" lon="120.63093448813181"><ele>32.0</ele><time>2026-04-19T05:00:39.001Z</time></trkpt><trkpt lat="15.582810086286543" lon="120.63094325109539"><ele>31.0</ele><time>2026-04-19T05:00:40.001Z</time></trkpt><trkpt lat="15.582565074253644" lon="120.63095081053397"><ele>30.0</ele><time>2026-04-19T05:00:41.001Z</time></trkpt><trkpt lat="15.582322974118313" lon="120.63095958175157"><ele>30.0</ele><time>2026-04-19T05:00:42.002Z</time></trkpt><trkpt lat="15.58208175790638" lon="120.63096701056095"><ele>30.0</ele><time>2026-04-19T05:00:43.002Z</time></trkpt><trkpt lat="15.58183918447021" lon="120.6309787962977"><ele>30.5</ele><time>2026-04-19T05:00:44.002Z</time></trkpt><trkpt lat="15.581598395308616" lon="120.63099067968588"><ele>31.0</ele><time>2026-04-19T05:00:45.002Z</time></trkpt><trkpt lat="15.581357549900238" lon="120.63100614057704"><ele>31.5</ele><time>2026-04-19T05:00:46.002Z</time></trkpt><trkpt lat="15.581118171651212" lon="120.63102345535627"><ele>32.0</ele><time>2026-04-19T05:00:47.002Z</time></trkpt><trkpt lat="15.580881181354995" lon="120.63104172311424"><ele>32.0</ele><time>2026-04-19T05:00:48.001Z</time></trkpt><trkpt lat="15.580645157086169" lon="120.63106087714624"><ele>32.0</ele><time>2026-04-19T05:00:49.001Z</time></trkpt><trkpt lat="15.580410453247522" lon="120.6310796256754"><ele>33.0</ele><time>2026-04-19T05:00:50.001Z</time></trkpt><trkpt lat="15.580177933350944" lon="120.63109784840815"><ele>34.0</ele><time>2026-04-19T05:00:51.001Z</time></trkpt><trkpt lat="15.579947066703154" lon="120.63111465263522"><ele>34.0</ele><time>2026-04-19T05:00:52.001Z</time></trkpt><trkpt lat="15.57971666495917" lon="120.63113248697628"><ele>34.0</ele><time>2026-04-19T05:00:53.001Z</time></trkpt><trkpt lat="15.579489359511292" lon="120.63115145409728"><ele>32.0</ele><time>2026-04-19T05:00:54.001Z</time></trkpt><trkpt lat="15.579260339268389" lon="120.63117120023847"><ele>30.0</ele><time>2026-04-19T05:00:55.001Z</time></trkpt><trkpt lat="15.579030622480209" lon="120.63119111347835"><ele>30.0</ele><time>2026-04-19T05:00:56.001Z</time></trkpt><trkpt lat="15.57879729653073" lon="120.63121105753207"><ele>30.0</ele><time>2026-04-19T05:00:57.001Z</time></trkpt><trkpt lat="15.57856626353369" lon="120.63123332439555"><ele>31.0</ele><time>2026-04-19T05:00:58.001Z</time></trkpt><trkpt lat="15.57833287703155" lon="120.63125438176264"><ele>32.0</ele><time>2026-04-19T05:00:59.001Z</time></trkpt><trkpt lat="15.578092304132483" lon="120.63127759827444"><ele>31.5</ele><time>2026-04-19T05:01:00.001Z</time></trkpt><trkpt lat="15.577849792574915" lon="120.63129844269059"><ele>31.0</ele><time>2026-04-19T05:01:01.001Z</time></trkpt><trkpt lat="15.57760742703368" lon="120.63131916225602"><ele>31.0</ele><time>2026-04-19T05:01:02.001Z</time></trkpt><trkpt lat="15.577365629132093" lon="120.63134082883327"><ele>31.0</ele><time>2026-04-19T05:01:03.001Z</time></trkpt><trkpt lat="15.577120985691337" lon="120.63136485200121"><ele>30.5</ele><time>2026-04-19T05:01:04.001Z</time></trkpt><trkpt lat="15.576876340942805" lon="120.6313917578328"><ele>30.0</ele><time>2026-04-19T05:01:05.001Z</time></trkpt><trkpt lat="15.576632329027527" lon="120.63142124418836"><ele>30.0</ele><time>2026-04-19T05:01:06.001Z</time></trkpt><trkpt lat="15.57638997616399" lon="120.63145243846176"><ele>30.0</ele><time>2026-04-19T05:01:07.001Z</time></trkpt><trkpt lat="15.576143893773533" lon="120.63148211745319"><ele>30.5</ele><time>2026-04-19T05:01:08.001Z</time></trkpt><trkpt lat="15.575903153730167" lon="120.63151400184906"><ele>31.0</ele><time>2026-04-19T05:01:09.001Z</time></trkpt><trkpt lat="15.575660863987705" lon="120.63154828712194"><ele>31.0</ele><time>2026-04-19T05:01:10.001Z</time></trkpt><trkpt lat="15.575421861863555" lon="120.63158266388012"><ele>31.0</ele><time>2026-04-19T05:01:11.001Z</time></trkpt><trkpt lat="15.575182801150808" lon="120.63161843429751"><ele>31.5</ele><time>2026-04-19T05:01:12.001Z</time></trkpt><trkpt lat="15.57494250388792" lon="120.631654882155"><ele>32.0</ele><time>2026-04-19T05:01:13.001Z</time></trkpt><trkpt lat="15.574702432095583" lon="120.631692711831"><ele>32.5</ele><time>2026-04-19T05:01:14.001Z</time></trkpt><trkpt lat="15.574463552734317" lon="120.63173029415698"><ele>33.0</ele><time>2026-04-19T05:01:15.001Z</time></trkpt><trkpt lat="15.574225174252781" lon="120.63176944365357"><ele>33.0</ele><time>2026-04-19T05:01:16.001Z</time></trkpt><trkpt lat="15.573989232751314" lon="120.63180933117081"><ele>33.0</ele><time>2026-04-19T05:01:17.001Z</time></trkpt><trkpt lat="15.573752607216399" lon="120.6318506288473"><ele>32.0</ele><time>2026-04-19T05:01:18.001Z</time></trkpt><trkpt lat="15.573516670099012" lon="120.63189286830222"><ele>31.0</ele><time>2026-04-19T05:01:19.001Z</time></trkpt><trkpt lat="15.573281990446873" lon="120.63193534374"><ele>31.5</ele><time>2026-04-19T05:01:20.001Z</time></trkpt><trkpt lat="15.573046883782803" lon="120.63197789864975"><ele>32.0</ele><time>2026-04-19T05:01:21.001Z</time></trkpt><trkpt lat="15.572814038081521" lon="120.63202206866134"><ele>31.0</ele><time>2026-04-19T05:01:22.001Z</time></trkpt><trkpt lat="15.572579329915117" lon="120.6320676021811"><ele>30.0</ele><time>2026-04-19T05:01:23.001Z</time></trkpt><trkpt lat="15.572347397520721" lon="120.63211272429656"><ele>30.0</ele><time>2026-04-19T05:01:24.001Z</time></trkpt><trkpt lat="15.572115121442247" lon="120.63215803326773"><ele>30.0</ele><time>2026-04-19T05:01:25.001Z</time></trkpt><trkpt lat="15.571882649125865" lon="120.63220429084471"><ele>30.5</ele><time>2026-04-19T05:01:26.001Z</time></trkpt><trkpt lat="15.57165425396397" lon="120.63225326311834"><ele>31.0</ele><time>2026-04-19T05:01:27.001Z</time></trkpt><trkpt lat="15.571427357120477" lon="120.63230272329291"><ele>31.0</ele><time>2026-04-19T05:01:28.001Z</time></trkpt><trkpt lat="15.571201449072177" lon="120.63235374554033"><ele>31.0</ele><time>2026-04-19T05:01:29.001Z</time></trkpt><trkpt lat="15.570977480005885" lon="120.63240487661551"><ele>31.0</ele><time>2026-04-19T05:01:30.001Z</time></trkpt><trkpt lat="15.570752139195797" lon="120.63245712976622"><ele>31.0</ele><time>2026-04-19T05:01:31.001Z</time></trkpt><trkpt lat="15.570531968467852" lon="120.63250956081535"><ele>30.333333333333336</ele><time>2026-04-19T05:01:32.001Z</time></trkpt><trkpt lat="15.570313808655506" lon="120.63256297570535"><ele>29.666666666666664</ele><time>2026-04-19T05:01:33.001Z</time></trkpt><trkpt lat="15.570101950753516" lon="120.63261449193233"><ele>29.0</ele><time>2026-04-19T05:01:34.001Z</time></trkpt><trkpt lat="15.569890011637463" lon="120.63266569095589"><ele>29.0</ele><time>2026-04-19T05:01:35.001Z</time></trkpt><trkpt lat="15.569676485763829" lon="120.63271738518613"><ele>29.0</ele><time>2026-04-19T05:01:36.001Z</time></trkpt><trkpt lat="15.569466562233472" lon="120.63276966131066"><ele>29.0</ele><time>2026-04-19T05:01:37.001Z</time></trkpt><trkpt lat="15.569255138772345" lon="120.6328233715323"><ele>29.333333333333332</ele><time>2026-04-19T05:01:38.001Z</time></trkpt><trkpt lat="15.56904366519914" lon="120.63287788483215"><ele>29.666666666666664</ele><time>2026-04-19T05:01:39.001Z</time></trkpt><trkpt lat="15.56883073214454" lon="120.63293382619322"><ele>30.0</ele><time>2026-04-19T05:01:40.001Z</time></trkpt><trkpt lat="15.568618878578055" lon="120.6329889858848"><ele>30.0</ele><time>2026-04-19T05:01:41.001Z</time></trkpt><trkpt lat="15.56840619286319" lon="120.63304712866193"><ele>30.0</ele><time>2026-04-19T05:01:42.001Z</time></trkpt><trkpt lat="15.568192775959114" lon="120.63310736838461"><ele>30.0</ele><time>2026-04-19T05:01:43.001Z</time></trkpt><trkpt lat="15.567981208886337" lon="120.63316774460351"><ele>30.0</ele><time>2026-04-19T05:01:44.001Z</time></trkpt><trkpt lat="15.567769259164884" lon="120.63322904767608"><ele>30.0</ele><time>2026-04-19T05:01:45.001Z</time></trkpt><trkpt lat="15.567557600415855" lon="120.63329077017924"><ele>30.0</ele><time>2026-04-19T05:01:46.001Z</time></trkpt><trkpt lat="15.567346026299711" lon="120.63335555030383"><ele>30.0</ele><time>2026-04-19T05:01:47.001Z</time></trkpt><trkpt lat="15.567132746023997" lon="120.63342314005997"><ele>30.0</ele><time>2026-04-19T05:01:48.001Z</time></trkpt><trkpt lat="15.566918698687205" lon="120.63349275183533"><ele>30.0</ele><time>2026-04-19T05:01:49.001Z</time></trkpt><trkpt lat="15.566706569729893" lon="120.63356225421327"><ele>30.0</ele><time>2026-04-19T05:01:50.001Z</time></trkpt><trkpt lat="15.566489018073536" lon="120.63363192901001"><ele>30.0</ele><time>2026-04-19T05:01:51.001Z</time></trkpt><trkpt lat="15.566273554932287" lon="120.63369965684342"><ele>29.5</ele><time>2026-04-19T05:01:52.001Z</time></trkpt><trkpt lat="15.566055485460685" lon="120.63376864901693"><ele>29.0</ele><time>2026-04-19T05:01:53.001Z</time></trkpt><trkpt lat="15.565837259694106" lon="120.63383771904948"><ele>29.0</ele><time>2026-04-19T05:01:54.001Z</time></trkpt><trkpt lat="15.565617194527881" lon="120.6339081795741"><ele>29.0</ele><time>2026-04-19T05:01:55.001Z</time></trkpt><trkpt lat="15.565399204386704" lon="120.63397960294577"><ele>30.5</ele><time>2026-04-19T05:01:56.001Z</time></trkpt><trkpt lat="15.565176816927856" lon="120.63405063695079"><ele>32.0</ele><time>2026-04-19T05:01:57.001Z</time></trkpt><trkpt lat="15.564955907293363" lon="120.63412117999938"><ele>32.0</ele><time>2026-04-19T05:01:58.001Z</time></trkpt><trkpt lat="15.564733640451047" lon="120.63419008741549"><ele>32.0</ele><time>2026-04-19T05:01:59.001Z</time></trkpt><trkpt lat="15.564510655777248" lon="120.63426047170779"><ele>32.0</ele><time>2026-04-19T05:02:00.001Z</time></trkpt><trkpt lat="15.564284114586531" lon="120.63433495086673"><ele>32.0</ele><time>2026-04-19T05:02:01.001Z</time></trkpt><trkpt lat="15.564057622641167" lon="120.6344087801753"><ele>32.0</ele><time>2026-04-19T05:02:02.001Z</time></trkpt><trkpt lat="15.563832879800168" lon="120.63448669081208"><ele>32.0</ele><time>2026-04-19T05:02:03.001Z</time></trkpt><trkpt lat="15.5636063765272" lon="120.6345650943714"><ele>32.0</ele><time>2026-04-19T05:02:04.001Z</time></trkpt><trkpt lat="15.563378485529554" lon="120.63464538198907"><ele>32.0</ele><time>2026-04-19T05:02:05.001Z</time></trkpt><trkpt lat="15.563149086642316" lon="120.63472741492004"><ele>32.0</ele><time>2026-04-19T05:02:06.001Z</time></trkpt><trkpt lat="15.562920003700707" lon="120.63481153973193"><ele>32.0</ele><time>2026-04-19T05:02:07.001Z</time></trkpt><trkpt lat="15.562690356581177" lon="120.6348971071532"><ele>31.5</ele><time>2026-04-19T05:02:08.001Z</time></trkpt><trkpt lat="15.562461799246107" lon="120.63498430384189"><ele>31.0</ele><time>2026-04-19T05:02:09.001Z</time></trkpt><trkpt lat="15.562233913233667" lon="120.63507218476748"><ele>30.5</ele><time>2026-04-19T05:02:10.001Z</time></trkpt><trkpt lat="15.562005047306355" lon="120.63516197256187"><ele>30.0</ele><time>2026-04-19T05:02:11.001Z</time></trkpt><trkpt lat="15.561774496884468" lon="120.63525233072968"><ele>30.5</ele><time>2026-04-19T05:02:12.001Z</time></trkpt><trkpt lat="15.56154666594895" lon="120.63534202356827"><ele>31.0</ele><time>2026-04-19T05:02:13.001Z</time></trkpt><trkpt lat="15.561318939579055" lon="120.6354326749735"><ele>32.0</ele><time>2026-04-19T05:02:14.001Z</time></trkpt><trkpt lat="15.56108940662076" lon="120.63552543303864"><ele>33.0</ele><time>2026-04-19T05:02:15.001Z</time></trkpt><trkpt lat="15.560858863098048" lon="120.63561829267488"><ele>33.0</ele><time>2026-04-19T05:02:16.001Z</time></trkpt><trkpt lat="15.560629046630343" lon="120.63571276142318"><ele>33.0</ele><time>2026-04-19T05:02:17.001Z</time></trkpt><trkpt lat="15.560398218146833" lon="120.63580870228904"><ele>33.0</ele><time>2026-04-19T05:02:18.001Z</time></trkpt><trkpt lat="15.560168718813763" lon="120.6359050308403"><ele>33.0</ele><time>2026-04-19T05:02:19.001Z</time></trkpt><trkpt lat="15.559938601025385" lon="120.63600314814899"><ele>33.0</ele><time>2026-04-19T05:02:20.001Z</time></trkpt><trkpt lat="15.559708916905366" lon="120.63610394156753"><ele>33.0</ele><time>2026-04-19T05:02:21.001Z</time></trkpt><trkpt lat="15.559482992083005" lon="120.636204240884"><ele>33.0</ele><time>2026-04-19T05:02:22.001Z</time></trkpt><trkpt lat="15.559255226213308" lon="120.63630617588915"><ele>33.0</ele><time>2026-04-19T05:02:23.001Z</time></trkpt><trkpt lat="15.55902819129209" lon="120.63640881057293"><ele>33.0</ele><time>2026-04-19T05:02:24.001Z</time></trkpt><trkpt lat="15.558802709573099" lon="120.63651173203135"><ele>33.0</ele><time>2026-04-19T05:02:25.001Z</time></trkpt><trkpt lat="15.558576652398113" lon="120.63661518548189"><ele>33.5</ele><time>2026-04-19T05:02:26.001Z</time></trkpt><trkpt lat="15.558352432539293" lon="120.63671811654163"><ele>34.0</ele><time>2026-04-19T05:02:27.001Z</time></trkpt><trkpt lat="15.558130725086352" lon="120.63682116650666"><ele>34.0</ele><time>2026-04-19T05:02:28.001Z</time></trkpt><trkpt lat="15.5579105354095" lon="120.63692558887894"><ele>34.0</ele><time>2026-04-19T05:02:29.001Z</time></trkpt><trkpt lat="15.557693297717496" lon="120.63703187588877"><ele>34.5</ele><time>2026-04-19T05:02:30.001Z</time></trkpt><trkpt lat="15.557477839320242" lon="120.63713869989483"><ele>35.0</ele><time>2026-04-19T05:02:31.001Z</time></trkpt><trkpt lat="15.557268772424269" lon="120.63724475522054"><ele>35.0</ele><time>2026-04-19T05:02:32.001Z</time></trkpt><trkpt lat="15.557060901087269" lon="120.63735071644659"><ele>35.0</ele><time>2026-04-19T05:02:33.001Z</time></trkpt><trkpt lat="15.556865442084424" lon="120.63745373059902"><ele>35.666666666666664</ele><time>2026-04-19T05:02:34.001Z</time></trkpt><trkpt lat="15.556673948435805" lon="120.63755513745686"><ele>36.333333333333336</ele><time>2026-04-19T05:02:35.001Z</time></trkpt><trkpt lat="15.55649072819099" lon="120.63765448312778"><ele>37.0</ele><time>2026-04-19T05:02:36.001Z</time></trkpt><trkpt lat="15.5563155163651" lon="120.63774946091169"><ele>35.66666666666667</ele><time>2026-04-19T05:02:37.001Z</time></trkpt><trkpt lat="15.556140492235585" lon="120.63784313945004"><ele>34.333333333333336</ele><time>2026-04-19T05:02:38.001Z</time></trkpt><trkpt lat="15.555967291030896" lon="120.63793644555226"><ele>33.0</ele><time>2026-04-19T05:02:39.001Z</time></trkpt><trkpt lat="15.555791930920746" lon="120.6380288989935"><ele>33.0</ele><time>2026-04-19T05:02:40.001Z</time></trkpt><trkpt lat="15.555617079907648" lon="120.6381235382647"><ele>33.0</ele><time>2026-04-19T05:02:41.001Z</time></trkpt><trkpt lat="15.555438659256279" lon="120.63821888115487"><ele>33.0</ele><time>2026-04-19T05:02:42.001Z</time></trkpt><trkpt lat="15.555257597633696" lon="120.63831556115669"><ele>33.0</ele><time>2026-04-19T05:02:43.001Z</time></trkpt><trkpt lat="15.555073808081183" lon="120.63841439817483"><ele>33.0</ele><time>2026-04-19T05:02:44.001Z</time></trkpt><trkpt lat="15.554885875571816" lon="120.6385173655747"><ele>33.0</ele><time>2026-04-19T05:02:45.001Z</time></trkpt><trkpt lat="15.554696238063089" lon="120.63862094874993"><ele>32.666666666666664</ele><time>2026-04-19T05:02:46.001Z</time></trkpt><trkpt lat="15.55450426801582" lon="120.63872783592282"><ele>32.33333333333333</ele><time>2026-04-19T05:02:47.001Z</time></trkpt><trkpt lat="15.554309905640233" lon="120.63883585419424"><ele>32.0</ele><time>2026-04-19T05:02:48.001Z</time></trkpt><trkpt lat="15.554115541222853" lon="120.63894313926302"><ele>32.0</ele><time>2026-04-19T05:02:49.001Z</time></trkpt><trkpt lat="15.553915589488295" lon="120.63905561312319"><ele>32.0</ele><time>2026-04-19T05:02:50.001Z</time></trkpt><trkpt lat="15.553716130435328" lon="120.63916798320636"><ele>32.5</ele><time>2026-04-19T05:02:51.001Z</time></trkpt><trkpt lat="15.55351782530424" lon="120.6392818369833"><ele>33.0</ele><time>2026-04-19T05:02:52.001Z</time></trkpt><trkpt lat="15.553316273283032" lon="120.63939884917002"><ele>34.0</ele><time>2026-04-19T05:02:53.001Z</time></trkpt><trkpt lat="15.55311343076197" lon="120.63951829197067"><ele>35.0</ele><time>2026-04-19T05:02:54Z</time></trkpt><trkpt lat="15.552907780819597" lon="120.63963994388597"><ele>35.0</ele><time>2026-04-19T05:02:55Z</time></trkpt><trkpt lat="15.552700388937149" lon="120.63976316674183"><ele>35.0</ele><time>2026-04-19T05:02:56Z</time></trkpt><trkpt lat="15.55249315345229" lon="120.6398877511215"><ele>35.0</ele><time>2026-04-19T05:02:57Z</time></trkpt><trkpt lat="15.552284812156458" lon="120.64001399586249"><ele>35.0</ele><time>2026-04-19T05:02:58Z</time></trkpt><trkpt lat="15.552075081674083" lon="120.64014249084228"><ele>35.5</ele><time>2026-04-19T05:02:59Z</time></trkpt><trkpt lat="15.551866268383966" lon="120.64027119069766"><ele>36.0</ele><time>2026-04-19T05:03:00Z</time></trkpt><trkpt lat="15.551657799550531" lon="120.64040197752205"><ele>34.5</ele><time>2026-04-19T05:03:01Z</time></trkpt><trkpt lat="15.551448542366632" lon="120.64053307116022"><ele>33.0</ele><time>2026-04-19T05:03:02Z</time></trkpt><trkpt lat="15.551239876468953" lon="120.64066505634214"><ele>33.5</ele><time>2026-04-19T05:03:03Z</time></trkpt><trkpt lat="15.551029582107665" lon="120.64080000787804"><ele>34.0</ele><time>2026-04-19T05:03:04Z</time></trkpt><trkpt lat="15.55082166169135" lon="120.64093397816497"><ele>34.0</ele><time>2026-04-19T05:03:05Z</time></trkpt><trkpt lat="15.550613097899808" lon="120.64106878687132"><ele>34.0</ele><time>2026-04-19T05:03:06Z</time></trkpt><trkpt lat="15.550404256517572" lon="120.64120518357659"><ele>35.0</ele><time>2026-04-19T05:03:07Z</time></trkpt><trkpt lat="15.550196455155438" lon="120.64134116239667"><ele>36.0</ele><time>2026-04-19T05:03:08Z</time></trkpt><trkpt lat="15.549989745358369" lon="120.64147822301159"><ele>36.0</ele><time>2026-04-19T05:03:09Z</time></trkpt><trkpt lat="15.54977999775971" lon="120.64161657328403"><ele>36.0</ele><time>2026-04-19T05:03:10Z</time></trkpt><trkpt lat="15.54957372135187" lon="120.64175544081832"><ele>35.5</ele><time>2026-04-19T05:03:11Z</time></trkpt><trkpt lat="15.54936895533775" lon="120.64189626168402"><ele>35.0</ele><time>2026-04-19T05:03:12Z</time></trkpt><trkpt lat="15.549163117202252" lon="120.64203992575341"><ele>34.0</ele><time>2026-04-19T05:03:13Z</time></trkpt><trkpt lat="15.54895642767584" lon="120.642181971806"><ele>33.0</ele><time>2026-04-19T05:03:14Z</time></trkpt><trkpt lat="15.548748508954823" lon="120.64232513358844"><ele>33.5</ele><time>2026-04-19T05:03:15Z</time></trkpt><trkpt lat="15.548539234368352" lon="120.64247129004079"><ele>34.0</ele><time>2026-04-19T05:03:16Z</time></trkpt><trkpt lat="15.548330348454936" lon="120.64262071887795"><ele>34.0</ele><time>2026-04-19T05:03:17Z</time></trkpt><trkpt lat="15.548120369420566" lon="120.64277255828974"><ele>34.0</ele><time>2026-04-19T05:03:18Z</time></trkpt><trkpt lat="15.547907824933102" lon="120.64292702736005"><ele>34.5</ele><time>2026-04-19T05:03:19Z</time></trkpt><trkpt lat="15.547694901850273" lon="120.64308283515155"><ele>35.0</ele><time>2026-04-19T05:03:20Z</time></trkpt><trkpt lat="15.54747928183538" lon="120.64324103277772"><ele>35.0</ele><time>2026-04-19T05:03:21.001Z</time></trkpt><trkpt lat="15.547265025949745" lon="120.64339980259713"><ele>35.0</ele><time>2026-04-19T05:03:22.001Z</time></trkpt><trkpt lat="15.547051967936415" lon="120.64356058150585"><ele>33.0</ele><time>2026-04-19T05:03:23.001Z</time></trkpt><trkpt lat="15.546839300080567" lon="120.64372286630675"><ele>31.0</ele><time>2026-04-19T05:03:24.001Z</time></trkpt><trkpt lat="15.546628968346793" lon="120.6438841388386"><ele>31.0</ele><time>2026-04-19T05:03:25.001Z</time></trkpt><trkpt lat="15.546421547863744" lon="120.6440441072162"><ele>31.0</ele><time>2026-04-19T05:03:26.001Z</time></trkpt><trkpt lat="15.546211901321872" lon="120.64420718742741"><ele>31.5</ele><time>2026-04-19T05:03:27.001Z</time></trkpt><trkpt lat="15.546005933831037" lon="120.64436988968903"><ele>32.0</ele><time>2026-04-19T05:03:28.001Z</time></trkpt><trkpt lat="15.545800474050584" lon="120.64453242755637"><ele>32.0</ele><time>2026-04-19T05:03:29.001Z</time></trkpt><trkpt lat="15.545594447503994" lon="120.64469774776754"><ele>32.0</ele><time>2026-04-19T05:03:30.001Z</time></trkpt><trkpt lat="15.545390077842244" lon="120.64486524881548"><ele>32.0</ele><time>2026-04-19T05:03:31.001Z</time></trkpt><trkpt lat="15.545186771941799" lon="120.64503338210281"><ele>32.0</ele><time>2026-04-19T05:03:32.001Z</time></trkpt><trkpt lat="15.544982869441235" lon="120.64520408319623"><ele>32.0</ele><time>2026-04-19T05:03:33.001Z</time></trkpt><trkpt lat="15.544779503946213" lon="120.64537385294037"><ele>32.0</ele><time>2026-04-19T05:03:34.001Z</time></trkpt><trkpt lat="15.544573014379129" lon="120.64554297119699"><ele>32.5</ele><time>2026-04-19T05:03:35.001Z</time></trkpt><trkpt lat="15.544366922996364" lon="120.64571165140052"><ele>33.0</ele><time>2026-04-19T05:03:36.001Z</time></trkpt><trkpt lat="15.544161935954794" lon="120.64587968307696"><ele>33.0</ele><time>2026-04-19T05:03:37.001Z</time></trkpt><trkpt lat="15.543958752986157" lon="120.64605022920027"><ele>33.0</ele><time>2026-04-19T05:03:38.001Z</time></trkpt><trkpt lat="15.543755436504417" lon="120.64622034724262"><ele>33.0</ele><time>2026-04-19T05:03:39.001Z</time></trkpt><trkpt lat="15.54355252080561" lon="120.64639223124061"><ele>33.0</ele><time>2026-04-19T05:03:40.001Z</time></trkpt><trkpt lat="15.54334956012137" lon="120.64656244210369"><ele>33.0</ele><time>2026-04-19T05:03:41.001Z</time></trkpt><trkpt lat="15.543145190343475" lon="120.6467338592912"><ele>33.0</ele><time>2026-04-19T05:03:42.001Z</time></trkpt><trkpt lat="15.542939957191745" lon="120.64690247629834"><ele>32.0</ele><time>2026-04-19T05:03:43.001Z</time></trkpt><trkpt lat="15.54273594522257" lon="120.64706737173456"><ele>31.0</ele><time>2026-04-19T05:03:44.001Z</time></trkpt><trkpt lat="15.542530607837724" lon="120.64723224637177"><ele>31.0</ele><time>2026-04-19T05:03:45.001Z</time></trkpt><trkpt lat="15.542326221201343" lon="120.64739440451137"><ele>31.0</ele><time>2026-04-19T05:03:46.001Z</time></trkpt><trkpt lat="15.542120579192352" lon="120.64755725117554"><ele>31.0</ele><time>2026-04-19T05:03:47.001Z</time></trkpt><trkpt lat="15.54191828083571" lon="120.64771688408543"><ele>31.0</ele><time>2026-04-19T05:03:48.001Z</time></trkpt><trkpt lat="15.54171574316995" lon="120.64787636117279"><ele>31.0</ele><time>2026-04-19T05:03:49.001Z</time></trkpt><trkpt lat="15.541514891718002" lon="120.64803443406674"><ele>31.0</ele><time>2026-04-19T05:03:50.001Z</time></trkpt><trkpt lat="15.541313926186275" lon="120.64819154761982"><ele>31.5</ele><time>2026-04-19T05:03:51.001Z</time></trkpt><trkpt lat="15.541109461144504" lon="120.64834979178733"><ele>32.0</ele><time>2026-04-19T05:03:52.001Z</time></trkpt><trkpt lat="15.540911057598127" lon="120.64850137361492"><ele>31.5</ele><time>2026-04-19T05:03:53.001Z</time></trkpt><trkpt lat="15.540708427317446" lon="120.64865446584703"><ele>31.0</ele><time>2026-04-19T05:03:54.001Z</time></trkpt><trkpt lat="15.5405078288738" lon="120.64880427184448"><ele>31.5</ele><time>2026-04-19T05:03:55.001Z</time></trkpt><trkpt lat="15.540304247830013" lon="120.64895500923068"><ele>32.0</ele><time>2026-04-19T05:03:56.001Z</time></trkpt><trkpt lat="15.54009961173535" lon="120.64910352242269"><ele>32.0</ele><time>2026-04-19T05:03:57.001Z</time></trkpt><trkpt lat="15.539892604003056" lon="120.64925218911934"><ele>32.0</ele><time>2026-04-19T05:03:58.001Z</time></trkpt><trkpt lat="15.5396835575179" lon="120.64940280775345"><ele>31.5</ele><time>2026-04-19T05:03:59.001Z</time></trkpt><trkpt lat="15.539472510731374" lon="120.64955212829592"><ele>31.0</ele><time>2026-04-19T05:04:00.001Z</time></trkpt><trkpt lat="15.539260222943195" lon="120.64970173555201"><ele>31.0</ele><time>2026-04-19T05:04:01.001Z</time></trkpt><trkpt lat="15.539048187051362" lon="120.64984949462243"><ele>31.0</ele><time>2026-04-19T05:04:02.001Z</time></trkpt><trkpt lat="15.538833044443953" lon="120.64999732354516"><ele>31.5</ele><time>2026-04-19T05:04:03.001Z</time></trkpt><trkpt lat="15.538618416611186" lon="120.65014405288376"><ele>32.0</ele><time>2026-04-19T05:04:04.001Z</time></trkpt><trkpt lat="15.538401923255565" lon="120.65029081863685"><ele>31.5</ele><time>2026-04-19T05:04:05.001Z</time></trkpt><trkpt lat="15.538186112291925" lon="120.65043593710537"><ele>31.0</ele><time>2026-04-19T05:04:06.001Z</time></trkpt><trkpt lat="15.537970482313323" lon="120.65058027591905"><ele>31.0</ele><time>2026-04-19T05:04:07.001Z</time></trkpt><trkpt lat="15.537753645187863" lon="120.65072405365022"><ele>31.0</ele><time>2026-04-19T05:04:08.001Z</time></trkpt><trkpt lat="15.53753517284655" lon="120.65086797276705"><ele>31.0</ele><time>2026-04-19T05:04:09.001Z</time></trkpt><trkpt lat="15.537316051521934" lon="120.6510088345451"><ele>31.0</ele><time>2026-04-19T05:04:10.001Z</time></trkpt><trkpt lat="15.537096339084389" lon="120.6511499510823"><ele>30.5</ele><time>2026-04-19T05:04:11.001Z</time></trkpt><trkpt lat="15.536875877512328" lon="120.65128964618175"><ele>30.0</ele><time>2026-04-19T05:04:12.001Z</time></trkpt><trkpt lat="15.536653353334845" lon="120.65142816128473"><ele>30.0</ele><time>2026-04-19T05:04:13.001Z</time></trkpt><trkpt lat="15.536432248528683" lon="120.6515661244725"><ele>30.0</ele><time>2026-04-19T05:04:14.001Z</time></trkpt><trkpt lat="15.536209420650186" lon="120.65170444547925"><ele>30.0</ele><time>2026-04-19T05:04:15.001Z</time></trkpt><trkpt lat="15.535985341481869" lon="120.65184155956817"><ele>30.0</ele><time>2026-04-19T05:04:16.001Z</time></trkpt><trkpt lat="15.535762291368215" lon="120.65197706901982"><ele>30.0</ele><time>2026-04-19T05:04:17.001Z</time></trkpt><trkpt lat="15.535538126403935" lon="120.65211290867748"><ele>30.0</ele><time>2026-04-19T05:04:18.001Z</time></trkpt><trkpt lat="15.535318446395419" lon="120.65224372078467"><ele>30.0</ele><time>2026-04-19T05:04:19.001Z</time></trkpt><trkpt lat="15.53509567057464" lon="120.6523751278972"><ele>30.0</ele><time>2026-04-19T05:04:20.001Z</time></trkpt><trkpt lat="15.534876456405659" lon="120.65250296904766"><ele>30.0</ele><time>2026-04-19T05:04:21.001Z</time></trkpt><trkpt lat="15.53465372353502" lon="120.65263148034276"><ele>30.0</ele><time>2026-04-19T05:04:22.001Z</time></trkpt><trkpt lat="15.534432570266066" lon="120.65275887487529"><ele>31.0</ele><time>2026-04-19T05:04:23.001Z</time></trkpt><trkpt lat="15.534211157728024" lon="120.65288536742263"><ele>32.0</ele><time>2026-04-19T05:04:24.001Z</time></trkpt><trkpt lat="15.533987785481434" lon="120.6530099945858"><ele>32.0</ele><time>2026-04-19T05:04:25.001Z</time></trkpt><trkpt lat="15.533766698103415" lon="120.65313339415663"><ele>32.0</ele><time>2026-04-19T05:04:26.001Z</time></trkpt><trkpt lat="15.533548624512173" lon="120.65325599213874"><ele>31.0</ele><time>2026-04-19T05:04:27.001Z</time></trkpt><trkpt lat="15.533330739366791" lon="120.65337518378696"><ele>30.0</ele><time>2026-04-19T05:04:28.001Z</time></trkpt><trkpt lat="15.533116889292067" lon="120.6534924571114"><ele>30.0</ele><time>2026-04-19T05:04:29.001Z</time></trkpt><trkpt lat="15.532905789400283" lon="120.65360675437526"><ele>30.0</ele><time>2026-04-19T05:04:30.001Z</time></trkpt><trkpt lat="15.53269782990275" lon="120.65371969077434"><ele>30.5</ele><time>2026-04-19T05:04:31.001Z</time></trkpt><trkpt lat="15.532488655511303" lon="120.65383014454741"><ele>31.0</ele><time>2026-04-19T05:04:32.001Z</time></trkpt><trkpt lat="15.532283309339245" lon="120.65393894856578"><ele>31.0</ele><time>2026-04-19T05:04:33.001Z</time></trkpt><trkpt lat="15.532077431532768" lon="120.65404643551561"><ele>31.0</ele><time>2026-04-19T05:04:34.001Z</time></trkpt><trkpt lat="15.531873516953423" lon="120.6541520387457"><ele>32.0</ele><time>2026-04-19T05:04:35.001Z</time></trkpt><trkpt lat="15.531670168050333" lon="120.65425804604493"><ele>33.0</ele><time>2026-04-19T05:04:36.001Z</time></trkpt><trkpt lat="15.531470381423752" lon="120.65435870096678"><ele>32.333333333333336</ele><time>2026-04-19T05:04:37.001Z</time></trkpt><trkpt lat="15.531269089667024" lon="120.65446012797132"><ele>31.666666666666668</ele><time>2026-04-19T05:04:38.001Z</time></trkpt><trkpt lat="15.53106724488604" lon="120.6545609559787"><ele>31.0</ele><time>2026-04-19T05:04:39.001Z</time></trkpt><trkpt lat="15.530866851919615" lon="120.65465699357276"><ele>31.0</ele><time>2026-04-19T05:04:40.001Z</time></trkpt><trkpt lat="15.530665984137443" lon="120.65475678760674"><ele>31.0</ele><time>2026-04-19T05:04:41.001Z</time></trkpt><trkpt lat="15.530464056074134" lon="120.65485289710418"><ele>31.0</ele><time>2026-04-19T05:04:42.001Z</time></trkpt><trkpt lat="15.530260576961348" lon="120.65495033988546"><ele>31.0</ele><time>2026-04-19T05:04:43.001Z</time></trkpt><trkpt lat="15.530058593191315" lon="120.65504810626074"><ele>31.0</ele><time>2026-04-19T05:04:44.001Z</time></trkpt><trkpt lat="15.529854907453126" lon="120.65514401864509"><ele>31.0</ele><time>2026-04-19T05:04:45.001Z</time></trkpt><trkpt lat="15.529651145474139" lon="120.65523992490408"><ele>31.0</ele><time>2026-04-19T05:04:46.001Z</time></trkpt><trkpt lat="15.529443095117268" lon="120.65533366354815"><ele>31.0</ele><time>2026-04-19T05:04:47.001Z</time></trkpt><trkpt lat="15.529229507905907" lon="120.65542948958007"><ele>31.0</ele><time>2026-04-19T05:04:48.001Z</time></trkpt><trkpt lat="15.529014773004485" lon="120.65552652138604"><ele>31.0</ele><time>2026-04-19T05:04:49.001Z</time></trkpt><trkpt lat="15.528799257805526" lon="120.65562681826673"><ele>32.0</ele><time>2026-04-19T05:04:50.001Z</time></trkpt><trkpt lat="15.528582016646101" lon="120.65572937580893"><ele>33.0</ele><time>2026-04-19T05:04:51.001Z</time></trkpt><trkpt lat="15.528364898182383" lon="120.65582962794181"><ele>33.0</ele><time>2026-04-19T05:04:52.001Z</time></trkpt><trkpt lat="15.52814643100671" lon="120.65593297658168"><ele>33.0</ele><time>2026-04-19T05:04:53.001Z</time></trkpt><trkpt lat="15.527926927770993" lon="120.65603924002254"><ele>33.0</ele><time>2026-04-19T05:04:54.001Z</time></trkpt><trkpt lat="15.527707931879602" lon="120.65614638182254"><ele>33.0</ele><time>2026-04-19T05:04:55.001Z</time></trkpt><trkpt lat="15.527490686634826" lon="120.65625327289138"><ele>33.0</ele><time>2026-04-19T05:04:56.001Z</time></trkpt><trkpt lat="15.527271110096304" lon="120.65636416456373"><ele>33.0</ele><time>2026-04-19T05:04:57.001Z</time></trkpt><trkpt lat="15.527051264265921" lon="120.65647587632964"><ele>32.5</ele><time>2026-04-19T05:04:58.001Z</time></trkpt><trkpt lat="15.526831198025452" lon="120.65658880177267"><ele>32.0</ele><time>2026-04-19T05:04:59.001Z</time></trkpt><trkpt lat="15.526609655750473" lon="120.65670284826018"><ele>32.0</ele><time>2026-04-19T05:05:00Z</time></trkpt><trkpt lat="15.526385970129411" lon="120.65681839817263"><ele>32.0</ele><time>2026-04-19T05:05:01Z</time></trkpt><trkpt lat="15.526162524314083" lon="120.65693419966816"><ele>32.0</ele><time>2026-04-19T05:05:02Z</time></trkpt><trkpt lat="15.525937668422081" lon="120.6570509127846"><ele>32.0</ele><time>2026-04-19T05:05:03Z</time></trkpt><trkpt lat="15.525713067796783" lon="120.6571687678498"><ele>32.0</ele><time>2026-04-19T05:05:04Z</time></trkpt><trkpt lat="15.525482460296784" lon="120.65728909281081"><ele>32.0</ele><time>2026-04-19T05:05:05Z</time></trkpt><trkpt lat="15.525256351540392" lon="120.65740873772951"><ele>32.0</ele><time>2026-04-19T05:05:06Z</time></trkpt><trkpt lat="15.52502755081941" lon="120.65752988583893"><ele>32.0</ele><time>2026-04-19T05:05:07Z</time></trkpt><trkpt lat="15.524801530976438" lon="120.65765296542855"><ele>32.0</ele><time>2026-04-19T05:05:08Z</time></trkpt><trkpt lat="15.524576077926573" lon="120.65777664931208"><ele>32.0</ele><time>2026-04-19T05:05:09Z</time></trkpt><trkpt lat="15.52435267542025" lon="120.65790308918912"><ele>32.5</ele><time>2026-04-19T05:05:10Z</time></trkpt><trkpt lat="15.524132365319733" lon="120.65802951836845"><ele>33.0</ele><time>2026-04-19T05:05:11Z</time></trkpt><trkpt lat="15.523912364020513" lon="120.6581572936544"><ele>33.5</ele><time>2026-04-19T05:05:12Z</time></trkpt><trkpt lat="15.523695701646357" lon="120.65828327530711"><ele>34.0</ele><time>2026-04-19T05:05:13Z</time></trkpt><trkpt lat="15.523481028421754" lon="120.65840990562745"><ele>34.0</ele><time>2026-04-19T05:05:14Z</time></trkpt><trkpt lat="15.52326721530683" lon="120.65853636103311"><ele>34.0</ele><time>2026-04-19T05:05:15Z</time></trkpt><trkpt lat="15.52305471201212" lon="120.65866226841993"><ele>33.5</ele><time>2026-04-19T05:05:16Z</time></trkpt><trkpt lat="15.522845907763509" lon="120.65878725615822"><ele>33.0</ele><time>2026-04-19T05:05:17Z</time></trkpt><trkpt lat="15.522636942650097" lon="120.65891275918472"><ele>33.0</ele><time>2026-04-19T05:05:18Z</time></trkpt><trkpt lat="15.522429587709688" lon="120.65903899816702"><ele>33.0</ele><time>2026-04-19T05:05:19Z</time></trkpt><trkpt lat="15.522224472047418" lon="120.65916673381571"><ele>33.5</ele><time>2026-04-19T05:05:20Z</time></trkpt><trkpt lat="15.522022506797214" lon="120.65929447524965"><ele>34.0</ele><time>2026-04-19T05:05:21Z</time></trkpt><trkpt lat="15.521823825619789" lon="120.6594209653358"><ele>32.5</ele><time>2026-04-19T05:05:22Z</time></trkpt><trkpt lat="15.52162871908994" lon="120.65954654339376"><ele>31.0</ele><time>2026-04-19T05:05:23Z</time></trkpt><trkpt lat="15.521436246078514" lon="120.65967145085192"><ele>31.0</ele><time>2026-04-19T05:05:24Z</time></trkpt><trkpt lat="15.52125091561896" lon="120.65979331050121"><ele>31.0</ele><time>2026-04-19T05:05:25Z</time></trkpt><trkpt lat="15.521066956853138" lon="120.65991639333976"><ele>31.0</ele><time>2026-04-19T05:05:26Z</time></trkpt><trkpt lat="15.520889348951394" lon="120.66003674350574"><ele>31.333333333333336</ele><time>2026-04-19T05:05:27Z</time></trkpt><trkpt lat="15.520715387230984" lon="120.66015402857158"><ele>31.666666666666664</ele><time>2026-04-19T05:05:28Z</time></trkpt><trkpt lat="15.520545712935006" lon="120.66026810059188"><ele>32.0</ele><time>2026-04-19T05:05:29Z</time></trkpt><trkpt lat="15.52037908055414" lon="120.66038265525938"><ele>33.0</ele><time>2026-04-19T05:05:30Z</time></trkpt><trkpt lat="15.520218689875152" lon="120.66049589093996"><ele>34.0</ele><time>2026-04-19T05:05:31Z</time></trkpt><trkpt lat="15.52005737033553" lon="120.66061143564151"><ele>35.0</ele><time>2026-04-19T05:05:32.001Z</time></trkpt><trkpt lat="15.519895522946824" lon="120.66072508349764"><ele>35.0</ele><time>2026-04-19T05:05:33.001Z</time></trkpt><trkpt lat="15.519732854551663" lon="120.66083757016057"><ele>35.0</ele><time>2026-04-19T05:05:34.001Z</time></trkpt><trkpt lat="15.519571786263304" lon="120.66095104453231"><ele>35.0</ele><time>2026-04-19T05:05:35.001Z</time></trkpt><trkpt lat="15.519409675067385" lon="120.66106652413876"><ele>34.33333333333333</ele><time>2026-04-19T05:05:36.001Z</time></trkpt><trkpt lat="15.519249355507506" lon="120.66118179005728"><ele>33.666666666666664</ele><time>2026-04-19T05:05:37.001Z</time></trkpt><trkpt lat="15.519090118364868" lon="120.6612970045724"><ele>33.0</ele><time>2026-04-19T05:05:38.001Z</time></trkpt><trkpt lat="15.51892950332921" lon="120.66141220934966"><ele>33.0</ele><time>2026-04-19T05:05:39.001Z</time></trkpt><trkpt lat="15.51876592367361" lon="120.661531153888"><ele>33.0</ele><time>2026-04-19T05:05:40.001Z</time></trkpt><trkpt lat="15.518605195781804" lon="120.66164796834256"><ele>33.0</ele><time>2026-04-19T05:05:41.001Z</time></trkpt><trkpt lat="15.518443165545014" lon="120.66176762292699"><ele>33.333333333333336</ele><time>2026-04-19T05:05:42.001Z</time></trkpt><trkpt lat="15.518280625071734" lon="120.66188681089292"><ele>33.66666666666667</ele><time>2026-04-19T05:05:43.001Z</time></trkpt><trkpt lat="15.518117491352276" lon="120.66200628381696"><ele>34.0</ele><time>2026-04-19T05:05:44.001Z</time></trkpt><trkpt lat="15.517950891181801" lon="120.66212775067488"><ele>34.333333333333336</ele><time>2026-04-19T05:05:45.001Z</time></trkpt><trkpt lat="15.517785785751224" lon="120.66224809233724"><ele>34.666666666666664</ele><time>2026-04-19T05:05:46.001Z</time></trkpt><trkpt lat="15.517619084637037" lon="120.66236778506843"><ele>35.0</ele><time>2026-04-19T05:05:47.001Z</time></trkpt><trkpt lat="15.517451960872739" lon="120.66248809705851"><ele>35.0</ele><time>2026-04-19T05:05:48.001Z</time></trkpt><trkpt lat="15.51728439039853" lon="120.66260864012203"><ele>35.0</ele><time>2026-04-19T05:05:49.001Z</time></trkpt><trkpt lat="15.517118128695724" lon="120.6627291198059"><ele>35.0</ele><time>2026-04-19T05:05:50.001Z</time></trkpt><trkpt lat="15.516952062485881" lon="120.66284940319609"><ele>34.0</ele><time>2026-04-19T05:05:51.001Z</time></trkpt><trkpt lat="15.51678660190849" lon="120.66296939308153"><ele>33.0</ele><time>2026-04-19T05:05:52.001Z</time></trkpt><trkpt lat="15.516620015816665" lon="120.663090596624"><ele>32.0</ele><time>2026-04-19T05:05:53.001Z</time></trkpt><trkpt lat="15.516459824624643" lon="120.66320779121683"><ele>32.0</ele><time>2026-04-19T05:05:54.001Z</time></trkpt><trkpt lat="15.51630036419772" lon="120.66332466212792"><ele>32.0</ele><time>2026-04-19T05:05:55.001Z</time></trkpt><trkpt lat="15.516143447684962" lon="120.66343837637366"><ele>32.0</ele><time>2026-04-19T05:05:56.001Z</time></trkpt><trkpt lat="15.51598664741502" lon="120.6635509606903"><ele>32.0</ele><time>2026-04-19T05:05:57.001Z</time></trkpt><trkpt lat="15.51583681225876" lon="120.66365798613099"><ele>32.0</ele><time>2026-04-19T05:05:58.001Z</time></trkpt><trkpt lat="15.515689974562829" lon="120.6637629864313"><ele>32.0</ele><time>2026-04-19T05:05:59.001Z</time></trkpt><trkpt lat="15.515547569905921" lon="120.66386588870577"><ele>32.0</ele><time>2026-04-19T05:06:00.001Z</time></trkpt><trkpt lat="15.51540800583513" lon="120.66396731797421"><ele>32.0</ele><time>2026-04-19T05:06:01.001Z</time></trkpt><trkpt lat="15.515269657227067" lon="120.66406870526515"><ele>32.0</ele><time>2026-04-19T05:06:02.001Z</time></trkpt><trkpt lat="15.515134805714915" lon="120.66416726883706"><ele>32.0</ele><time>2026-04-19T05:06:03.001Z</time></trkpt><trkpt lat="15.515000389693212" lon="120.6642630320714"><ele>32.0</ele><time>2026-04-19T05:06:04.001Z</time></trkpt><trkpt lat="15.514871442557016" lon="120.66435708222016"><ele>32.0</ele><time>2026-04-19T05:06:05.001Z</time></trkpt><trkpt lat="15.51474452155578" lon="120.66444978927626"><ele>32.25</ele><time>2026-04-19T05:06:06.001Z</time></trkpt><trkpt lat="15.51462096604948" lon="120.66453935287512"><ele>32.5</ele><time>2026-04-19T05:06:07.001Z</time></trkpt><trkpt lat="15.514501234672215" lon="120.66462457054554"><ele>32.75</ele><time>2026-04-19T05:06:08.001Z</time></trkpt><trkpt lat="15.514387871393694" lon="120.66470297744333"><ele>33.0</ele><time>2026-04-19T05:06:09.001Z</time></trkpt><trkpt lat="15.514276049309505" lon="120.6647797417872"><ele>33.0</ele><time>2026-04-19T05:06:10.001Z</time></trkpt><trkpt lat="15.514162820228933" lon="120.6648547736189"><ele>33.0</ele><time>2026-04-19T05:06:11.001Z</time></trkpt><trkpt lat="15.514050206431406" lon="120.66492842934608"><ele>33.0</ele><time>2026-04-19T05:06:12.001Z</time></trkpt><trkpt lat="15.513938228143761" lon="120.66500043670499"><ele>33.0</ele><time>2026-04-19T05:06:13.001Z</time></trkpt><trkpt lat="15.513826707825995" lon="120.6650688874884"><ele>33.25</ele><time>2026-04-19T05:06:14.001Z</time></trkpt><trkpt lat="15.513712380532873" lon="120.66513847029364"><ele>33.5</ele><time>2026-04-19T05:06:15.001Z</time></trkpt><trkpt lat="15.51360001111623" lon="120.6652071276159"><ele>33.75</ele><time>2026-04-19T05:06:16.001Z</time></trkpt><trkpt lat="15.513491089913659" lon="120.66527549228462"><ele>34.0</ele><time>2026-04-19T05:06:17.001Z</time></trkpt><trkpt lat="15.513395025457157" lon="120.6653375762194"><ele>34.0</ele><time>2026-04-19T05:06:18.001Z</time></trkpt><trkpt lat="15.513309031796464" lon="120.66539418617421"><ele>34.0</ele><time>2026-04-19T05:06:19.001Z</time></trkpt><trkpt lat="15.513236415034635" lon="120.66544385461565"><ele>34.0</ele><time>2026-04-19T05:06:20.001Z</time></trkpt><trkpt lat="15.513181427130563" lon="120.66548187333056"><ele>34.0</ele><time>2026-04-19T05:06:21.001Z</time></trkpt><trkpt lat="15.513113814731147" lon="120.66553033557604"><ele>34.0</ele><time>2026-04-19T05:06:23.001Z</time></trkpt><trkpt lat="15.513055815668759" lon="120.66556884167134"><ele>34.0</ele><time>2026-04-19T05:06:30.001Z</time></trkpt><trkpt lat="15.512993902549525" lon="120.66561257732768"><ele>34.0</ele><time>2026-04-19T05:06:36.001Z</time></trkpt><trkpt lat="15.512939939998471" lon="120.66565206670312"><ele>34.0</ele><time>2026-04-19T05:06:40.001Z</time></trkpt><trkpt lat="15.512874740053594" lon="120.66569903171565"><ele>34.0</ele><time>2026-04-19T05:06:45.001Z</time></trkpt><trkpt lat="15.512820527427541" lon="120.66574084059027"><ele>34.0</ele><time>2026-04-19T05:06:52.001Z</time></trkpt><trkpt lat="15.512767183458216" lon="120.66577759165781"><ele>34.0</ele><time>2026-04-19T05:06:56.001Z</time></trkpt><trkpt lat="15.512683039332673" lon="120.66583182765778"><ele>34.0</ele><time>2026-04-19T05:06:59.001Z</time></trkpt><trkpt lat="15.512602678349282" lon="120.6658935129897"><ele>33.75</ele><time>2026-04-19T05:07:01.001Z</time></trkpt><trkpt lat="15.512493253462884" lon="120.66598511976079"><ele>33.5</ele><time>2026-04-19T05:07:03.001Z</time></trkpt><trkpt lat="15.512408562747812" lon="120.66604788928159"><ele>33.25</ele><time>2026-04-19T05:07:04.001Z</time></trkpt><trkpt lat="15.512324402476173" lon="120.66611378829931"><ele>33.0</ele><time>2026-04-19T05:07:05.001Z</time></trkpt><trkpt lat="15.512232286194019" lon="120.66618596837408"><ele>33.0</ele><time>2026-04-19T05:07:06Z</time></trkpt><trkpt lat="15.512137819528522" lon="120.66626023908339"><ele>33.0</ele><time>2026-04-19T05:07:07Z</time></trkpt><trkpt lat="15.512041725403906" lon="120.66633802147541"><ele>33.0</ele><time>2026-04-19T05:07:08Z</time></trkpt><trkpt lat="15.511940994404704" lon="120.66642114690205"><ele>33.0</ele><time>2026-04-19T05:07:09Z</time></trkpt><trkpt lat="15.511838277720923" lon="120.6665043058989"><ele>32.5</ele><time>2026-04-19T05:07:10Z</time></trkpt><trkpt lat="15.511730600618005" lon="120.66658810326967"><ele>32.0</ele><time>2026-04-19T05:07:11Z</time></trkpt><trkpt lat="15.511621659558198" lon="120.66667558821021"><ele>31.5</ele><time>2026-04-19T05:07:12Z</time></trkpt><trkpt lat="15.511507143059937" lon="120.66676352970431"><ele>31.0</ele><time>2026-04-19T05:07:13Z</time></trkpt><trkpt lat="15.511386449285313" lon="120.66685473910223"><ele>31.0</ele><time>2026-04-19T05:07:14Z</time></trkpt><trkpt lat="15.511259943686406" lon="120.66694881720088"><ele>31.0</ele><time>2026-04-19T05:07:15Z</time></trkpt><trkpt lat="15.5111306252884" lon="120.66704450302973"><ele>31.0</ele><time>2026-04-19T05:07:16Z</time></trkpt><trkpt lat="15.510997593031984" lon="120.66714085579777"><ele>32.0</ele><time>2026-04-19T05:07:17Z</time></trkpt><trkpt lat="15.510859366939632" lon="120.66723965636852"><ele>33.0</ele><time>2026-04-19T05:07:18Z</time></trkpt><trkpt lat="15.510715399640349" lon="120.66734227666866"><ele>34.0</ele><time>2026-04-19T05:07:19Z</time></trkpt><trkpt lat="15.510570330670786" lon="120.66744567252009"><ele>34.0</ele><time>2026-04-19T05:07:20Z</time></trkpt><trkpt lat="15.510421184417284" lon="120.66755386206309"><ele>34.0</ele><time>2026-04-19T05:07:21Z</time></trkpt><trkpt lat="15.510269535170512" lon="120.66766664304033"><ele>34.0</ele><time>2026-04-19T05:07:22Z</time></trkpt><trkpt lat="15.510114847775375" lon="120.66778333482321"><ele>34.0</ele><time>2026-04-19T05:07:23Z</time></trkpt><trkpt lat="15.509958016207708" lon="120.6679022678494"><ele>34.0</ele><time>2026-04-19T05:07:24Z</time></trkpt><trkpt lat="15.509798913399214" lon="120.66802129100245"><ele>34.0</ele><time>2026-04-19T05:07:25Z</time></trkpt><trkpt lat="15.509635128869107" lon="120.66814219143171"><ele>33.66666666666667</ele><time>2026-04-19T05:07:26Z</time></trkpt><trkpt lat="15.50946637274338" lon="120.66826683689703"><ele>33.333333333333336</ele><time>2026-04-19T05:07:27Z</time></trkpt><trkpt lat="15.509297443254132" lon="120.66839179951265"><ele>33.0</ele><time>2026-04-19T05:07:28Z</time></trkpt><trkpt lat="15.509126535291832" lon="120.66851825392742"><ele>33.0</ele><time>2026-04-19T05:07:29Z</time></trkpt><trkpt lat="15.50895275525156" lon="120.66864695385921"><ele>33.0</ele><time>2026-04-19T05:07:30Z</time></trkpt><trkpt lat="15.508777212235415" lon="120.66877619273461"><ele>33.0</ele><time>2026-04-19T05:07:31Z</time></trkpt><trkpt lat="15.508600151275811" lon="120.6689058850573"><ele>32.333333333333336</ele><time>2026-04-19T05:07:32Z</time></trkpt><trkpt lat="15.508418943147726" lon="120.66903756136878"><ele>31.666666666666668</ele><time>2026-04-19T05:07:33Z</time></trkpt><trkpt lat="15.508238452332492" lon="120.66917026377664"><ele>31.0</ele><time>2026-04-19T05:07:34Z</time></trkpt><trkpt lat="15.508056127700664" lon="120.6693031751023"><ele>31.0</ele><time>2026-04-19T05:07:35Z</time></trkpt><trkpt lat="15.50787153816904" lon="120.66943726214043"><ele>31.0</ele><time>2026-04-19T05:07:36Z</time></trkpt><trkpt lat="15.507687551897247" lon="120.66957222350324"><ele>31.0</ele><time>2026-04-19T05:07:37Z</time></trkpt><trkpt lat="15.507501985293334" lon="120.66970838399436"><ele>31.0</ele><time>2026-04-19T05:07:38Z</time></trkpt><trkpt lat="15.507315161876951" lon="120.66984413181913"><ele>31.0</ele><time>2026-04-19T05:07:39Z</time></trkpt><trkpt lat="15.507126660225987" lon="120.66998005682585"><ele>31.0</ele><time>2026-04-19T05:07:40Z</time></trkpt><trkpt lat="15.506937055708017" lon="120.67011371757594"><ele>30.5</ele><time>2026-04-19T05:07:41.001Z</time></trkpt><trkpt lat="15.50674413035342" lon="120.67024619860723"><ele>30.0</ele><time>2026-04-19T05:07:42.001Z</time></trkpt><trkpt lat="15.506549358280715" lon="120.67037928146593"><ele>30.0</ele><time>2026-04-19T05:07:43.001Z</time></trkpt><trkpt lat="15.506353290748164" lon="120.6705129472068"><ele>30.0</ele><time>2026-04-19T05:07:44.001Z</time></trkpt><trkpt lat="15.506153972946798" lon="120.67064609300105"><ele>30.0</ele><time>2026-04-19T05:07:45.001Z</time></trkpt><trkpt lat="15.505955300283759" lon="120.67077987424986"><ele>30.0</ele><time>2026-04-19T05:07:46.001Z</time></trkpt><trkpt lat="15.505755655309523" lon="120.67091176274613"><ele>30.0</ele><time>2026-04-19T05:07:47.001Z</time></trkpt><trkpt lat="15.505550405538477" lon="120.67104433377513"><ele>30.0</ele><time>2026-04-19T05:07:48.001Z</time></trkpt><trkpt lat="15.505346155081648" lon="120.67117574573159"><ele>30.0</ele><time>2026-04-19T05:07:49.001Z</time></trkpt><trkpt lat="15.505137879529892" lon="120.6713087934945"><ele>30.0</ele><time>2026-04-19T05:07:50.001Z</time></trkpt><trkpt lat="15.504929117207297" lon="120.67144105160378"><ele>30.0</ele><time>2026-04-19T05:07:51.001Z</time></trkpt><trkpt lat="15.504718245983899" lon="120.67157284310414"><ele>30.0</ele><time>2026-04-19T05:07:52.001Z</time></trkpt><trkpt lat="15.50450774073611" lon="120.67170492966285"><ele>30.0</ele><time>2026-04-19T05:07:53.001Z</time></trkpt><trkpt lat="15.504298017051507" lon="120.67183522390592"><ele>30.0</ele><time>2026-04-19T05:07:54.001Z</time></trkpt><trkpt lat="15.50408460223836" lon="120.67196421342568"><ele>30.5</ele><time>2026-04-19T05:07:55.001Z</time></trkpt><trkpt lat="15.503870783674278" lon="120.6720914624536"><ele>31.0</ele><time>2026-04-19T05:07:56.001Z</time></trkpt><trkpt lat="15.503658582047539" lon="120.67221664482908"><ele>31.0</ele><time>2026-04-19T05:07:57.001Z</time></trkpt><trkpt lat="15.503444358357953" lon="120.6723408676621"><ele>31.0</ele><time>2026-04-19T05:07:58.001Z</time></trkpt><trkpt lat="15.503228604616057" lon="120.67246404171964"><ele>31.0</ele><time>2026-04-19T05:07:59.001Z</time></trkpt><trkpt lat="15.503012657085133" lon="120.67258551576113"><ele>31.0</ele><time>2026-04-19T05:08:00.001Z</time></trkpt><trkpt lat="15.502794983154578" lon="120.67270500168264"><ele>30.0</ele><time>2026-04-19T05:08:01.001Z</time></trkpt><trkpt lat="15.502578756597249" lon="120.67282323824979"><ele>29.0</ele><time>2026-04-19T05:08:02.001Z</time></trkpt><trkpt lat="15.502357906637958" lon="120.6729425560859"><ele>29.0</ele><time>2026-04-19T05:08:03.001Z</time></trkpt><trkpt lat="15.502141102647036" lon="120.67305769753231"><ele>29.0</ele><time>2026-04-19T05:08:04.001Z</time></trkpt><trkpt lat="15.501919365297969" lon="120.67317256453815"><ele>29.5</ele><time>2026-04-19T05:08:05.001Z</time></trkpt><trkpt lat="15.501698027721782" lon="120.67328734492183"><ele>30.0</ele><time>2026-04-19T05:08:06.001Z</time></trkpt><trkpt lat="15.501472994060926" lon="120.67340267956847"><ele>30.0</ele><time>2026-04-19T05:08:07.001Z</time></trkpt><trkpt lat="15.5012487888366" lon="120.67351761148173"><ele>30.0</ele><time>2026-04-19T05:08:08.001Z</time></trkpt><trkpt lat="15.501019928652441" lon="120.67363159400053"><ele>29.5</ele><time>2026-04-19T05:08:09.001Z</time></trkpt><trkpt lat="15.500789637575082" lon="120.67374582022263"><ele>29.0</ele><time>2026-04-19T05:08:10.001Z</time></trkpt><trkpt lat="15.500560070694256" lon="120.67385776025125"><ele>28.5</ele><time>2026-04-19T05:08:11.001Z</time></trkpt><trkpt lat="15.500330671222828" lon="120.67396803529023"><ele>28.0</ele><time>2026-04-19T05:08:12.001Z</time></trkpt><trkpt lat="15.500096676196927" lon="120.67407827032184"><ele>28.0</ele><time>2026-04-19T05:08:13.001Z</time></trkpt><trkpt lat="15.49986428675227" lon="120.67418773432027"><ele>28.0</ele><time>2026-04-19T05:08:14.001Z</time></trkpt><trkpt lat="15.499630551800191" lon="120.67429647770426"><ele>29.0</ele><time>2026-04-19T05:08:15.001Z</time></trkpt><trkpt lat="15.499396992404566" lon="120.67440290283464"><ele>30.0</ele><time>2026-04-19T05:08:16.001Z</time></trkpt><trkpt lat="15.49916345445305" lon="120.67450646236314"><ele>30.0</ele><time>2026-04-19T05:08:17.001Z</time></trkpt><trkpt lat="15.498929204102023" lon="120.67460795178877"><ele>30.0</ele><time>2026-04-19T05:08:18.001Z</time></trkpt><trkpt lat="15.498693496118559" lon="120.67470734581414"><ele>31.0</ele><time>2026-04-19T05:08:19.001Z</time></trkpt><trkpt lat="15.498457974314451" lon="120.67480955940331"><ele>32.0</ele><time>2026-04-19T05:08:20.001Z</time></trkpt><trkpt lat="15.498222765571507" lon="120.67491021345603"><ele>32.0</ele><time>2026-04-19T05:08:21.001Z</time></trkpt><trkpt lat="15.49798470870709" lon="120.67501034371065"><ele>32.0</ele><time>2026-04-19T05:08:22.001Z</time></trkpt><trkpt lat="15.497747694608757" lon="120.67510638544704"><ele>31.0</ele><time>2026-04-19T05:08:23.001Z</time></trkpt><trkpt lat="15.497508629642747" lon="120.67520466074407"><ele>30.0</ele><time>2026-04-19T05:08:24.001Z</time></trkpt><trkpt lat="15.497267472326165" lon="120.67529601457964"><ele>30.5</ele><time>2026-04-19T05:08:25.001Z</time></trkpt><trkpt lat="15.497027455704318" lon="120.67538585909433"><ele>31.0</ele><time>2026-04-19T05:08:26.001Z</time></trkpt><trkpt lat="15.496785517681396" lon="120.67547786800266"><ele>31.0</ele><time>2026-04-19T05:08:27.001Z</time></trkpt><trkpt lat="15.49654422864361" lon="120.67556685930496"><ele>31.0</ele><time>2026-04-19T05:08:28.001Z</time></trkpt><trkpt lat="15.496303956125434" lon="120.6756543934083"><ele>32.0</ele><time>2026-04-19T05:08:29.001Z</time></trkpt><trkpt lat="15.496063445635752" lon="120.67573945107249"><ele>33.0</ele><time>2026-04-19T05:08:30.001Z</time></trkpt><trkpt lat="15.495821378760825" lon="120.67582639740836"><ele>33.0</ele><time>2026-04-19T05:08:31.001Z</time></trkpt><trkpt lat="15.495580422916671" lon="120.67590965995036"><ele>33.0</ele><time>2026-04-19T05:08:32.001Z</time></trkpt><trkpt lat="15.495342840525183" lon="120.67599070787865"><ele>31.5</ele><time>2026-04-19T05:08:33.001Z</time></trkpt><trkpt lat="15.495099564357153" lon="120.67607171568675"><ele>30.0</ele><time>2026-04-19T05:08:34.001Z</time></trkpt><trkpt lat="15.494863257673686" lon="120.6761470379842"><ele>29.5</ele><time>2026-04-19T05:08:35.001Z</time></trkpt><trkpt lat="15.49461923227011" lon="120.6762235178238"><ele>29.0</ele><time>2026-04-19T05:08:36.001Z</time></trkpt><trkpt lat="15.494376107323147" lon="120.67630088363089"><ele>28.5</ele><time>2026-04-19T05:08:37.001Z</time></trkpt><trkpt lat="15.494133511220264" lon="120.6763762118621"><ele>28.0</ele><time>2026-04-19T05:08:38.001Z</time></trkpt><trkpt lat="15.493893855877971" lon="120.67644736280707"><ele>28.5</ele><time>2026-04-19T05:08:39.001Z</time></trkpt><trkpt lat="15.493654215106474" lon="120.67651765847877"><ele>29.0</ele><time>2026-04-19T05:08:40.001Z</time></trkpt><trkpt lat="15.493416776392449" lon="120.67658523398217"><ele>29.0</ele><time>2026-04-19T05:08:41.001Z</time></trkpt><trkpt lat="15.493172283986036" lon="120.67665334352122"><ele>29.0</ele><time>2026-04-19T05:08:42.001Z</time></trkpt><trkpt lat="15.492929264888772" lon="120.67672005973456"><ele>29.0</ele><time>2026-04-19T05:08:43.001Z</time></trkpt><trkpt lat="15.49268760778379" lon="120.67678300208884"><ele>29.0</ele><time>2026-04-19T05:08:44.001Z</time></trkpt><trkpt lat="15.492449425220123" lon="120.6768440703148"><ele>29.0</ele><time>2026-04-19T05:08:45.001Z</time></trkpt><trkpt lat="15.492205010973414" lon="120.67690495811652"><ele>29.0</ele><time>2026-04-19T05:08:46.001Z</time></trkpt><trkpt lat="15.491959965400637" lon="120.67696295241961"><ele>28.0</ele><time>2026-04-19T05:08:47.001Z</time></trkpt><trkpt lat="15.491720350848343" lon="120.67702054691739"><ele>27.0</ele><time>2026-04-19T05:08:48.001Z</time></trkpt><trkpt lat="15.491472983210025" lon="120.67707806359786"><ele>27.5</ele><time>2026-04-19T05:08:49.001Z</time></trkpt><trkpt lat="15.491230565757016" lon="120.67713192229763"><ele>28.0</ele><time>2026-04-19T05:08:50.001Z</time></trkpt><trkpt lat="15.49097700742949" lon="120.67718737992688"><ele>28.0</ele><time>2026-04-19T05:08:51.001Z</time></trkpt><trkpt lat="15.49072521298521" lon="120.67723987034243"><ele>28.0</ele><time>2026-04-19T05:08:52.001Z</time></trkpt><trkpt lat="15.49047141763538" lon="120.67729242681393"><ele>28.0</ele><time>2026-04-19T05:08:53.001Z</time></trkpt><trkpt lat="15.490215748684482" lon="120.6773450019522"><ele>28.0</ele><time>2026-04-19T05:08:54.001Z</time></trkpt><trkpt lat="15.48996124809405" lon="120.67739541095375"><ele>28.0</ele><time>2026-04-19T05:08:55.001Z</time></trkpt><trkpt lat="15.489706850773109" lon="120.6774437741472"><ele>28.0</ele><time>2026-04-19T05:08:56.001Z</time></trkpt><trkpt lat="15.489449143160702" lon="120.67749215666841"><ele>28.5</ele><time>2026-04-19T05:08:57.001Z</time></trkpt><trkpt lat="15.489191272895168" lon="120.67753756068247"><ele>29.0</ele><time>2026-04-19T05:08:58.001Z</time></trkpt><trkpt lat="15.488931471696409" lon="120.67758275544398"><ele>29.0</ele><time>2026-04-19T05:08:59.001Z</time></trkpt><trkpt lat="15.488672431624142" lon="120.67762624298436"><ele>29.0</ele><time>2026-04-19T05:09:00.001Z</time></trkpt><trkpt lat="15.488414732909545" lon="120.67766541164553"><ele>29.0</ele><time>2026-04-19T05:09:01.001Z</time></trkpt><trkpt lat="15.488155679226505" lon="120.67770192105382"><ele>29.0</ele><time>2026-04-19T05:09:02.001Z</time></trkpt><trkpt lat="15.487896281540777" lon="120.67773733342979"><ele>29.0</ele><time>2026-04-19T05:09:03.001Z</time></trkpt><trkpt lat="15.487639021713685" lon="120.67777107757232"><ele>29.0</ele><time>2026-04-19T05:09:04.001Z</time></trkpt><trkpt lat="15.48738886801978" lon="120.67780177849733"><ele>29.0</ele><time>2026-04-19T05:09:05.001Z</time></trkpt><trkpt lat="15.487134805211602" lon="120.67783452296625"><ele>29.0</ele><time>2026-04-19T05:09:06.001Z</time></trkpt><trkpt lat="15.486881439515008" lon="120.67786577885119"><ele>29.5</ele><time>2026-04-19T05:09:07.001Z</time></trkpt><trkpt lat="15.48662970385549" lon="120.67789597859444"><ele>30.0</ele><time>2026-04-19T05:09:08.001Z</time></trkpt><trkpt lat="15.486379777857227" lon="120.67792579534814"><ele>30.5</ele><time>2026-04-19T05:09:09.001Z</time></trkpt><trkpt lat="15.486134268584713" lon="120.67795458335533"><ele>31.0</ele><time>2026-04-19T05:09:10.001Z</time></trkpt><trkpt lat="15.485891869342522" lon="120.67798109245074"><ele>31.0</ele><time>2026-04-19T05:09:11.001Z</time></trkpt><trkpt lat="15.48564917985885" lon="120.67800771392481"><ele>31.0</ele><time>2026-04-19T05:09:12Z</time></trkpt><trkpt lat="15.485405941113331" lon="120.67802873932749"><ele>32.0</ele><time>2026-04-19T05:09:13Z</time></trkpt><trkpt lat="15.485167323634746" lon="120.67805060106916"><ele>33.0</ele><time>2026-04-19T05:09:14Z</time></trkpt><trkpt lat="15.484929511702093" lon="120.67807009730075"><ele>33.0</ele><time>2026-04-19T05:09:15Z</time></trkpt><trkpt lat="15.48468679802438" lon="120.67809007805899"><ele>33.0</ele><time>2026-04-19T05:09:16Z</time></trkpt><trkpt lat="15.484444800974654" lon="120.67810779084326"><ele>32.0</ele><time>2026-04-19T05:09:17Z</time></trkpt><trkpt lat="15.484199196428971" lon="120.67812421139125"><ele>31.0</ele><time>2026-04-19T05:09:18Z</time></trkpt><trkpt lat="15.483954539992435" lon="120.67813774228817"><ele>30.5</ele><time>2026-04-19T05:09:19Z</time></trkpt><trkpt lat="15.483705624240597" lon="120.67815056112457"><ele>30.0</ele><time>2026-04-19T05:09:20Z</time></trkpt><trkpt lat="15.483455886316971" lon="120.67816510693737"><ele>30.0</ele><time>2026-04-19T05:09:21Z</time></trkpt><trkpt lat="15.48320263432017" lon="120.67817782444602"><ele>30.0</ele><time>2026-04-19T05:09:22Z</time></trkpt><trkpt lat="15.482950676462254" lon="120.67818935344562"><ele>29.5</ele><time>2026-04-19T05:09:23Z</time></trkpt><trkpt lat="15.482696955523778" lon="120.67820028998482"><ele>29.0</ele><time>2026-04-19T05:09:24Z</time></trkpt><trkpt lat="15.482444905400786" lon="120.67820774293203"><ele>29.0</ele><time>2026-04-19T05:09:25Z</time></trkpt><trkpt lat="15.482190151634457" lon="120.6782141576282"><ele>29.0</ele><time>2026-04-19T05:09:26Z</time></trkpt><trkpt lat="15.481934490550936" lon="120.67821884608533"><ele>27.5</ele><time>2026-04-19T05:09:27Z</time></trkpt><trkpt lat="15.481678611934568" lon="120.67822045431359"><ele>26.0</ele><time>2026-04-19T05:09:28Z</time></trkpt><trkpt lat="15.481421374907752" lon="120.67822162302646"><ele>27.5</ele><time>2026-04-19T05:09:29Z</time></trkpt><trkpt lat="15.481163546866012" lon="120.67822240035505"><ele>29.0</ele><time>2026-04-19T05:09:30Z</time></trkpt><trkpt lat="15.48090677941535" lon="120.67822232780252"><ele>29.0</ele><time>2026-04-19T05:09:31Z</time></trkpt><trkpt lat="15.480658145243293" lon="120.67823277141149"><ele>29.0</ele><time>2026-04-19T05:09:32Z</time></trkpt><trkpt lat="15.48039242681278" lon="120.67822470772497"><ele>29.5</ele><time>2026-04-19T05:09:33Z</time></trkpt><trkpt lat="15.480139498498284" lon="120.67821928386788"><ele>30.0</ele><time>2026-04-19T05:09:34Z</time></trkpt><trkpt lat="15.479873569947884" lon="120.67821747442957"><ele>30.0</ele><time>2026-04-19T05:09:35Z</time></trkpt><trkpt lat="15.479615283060959" lon="120.67820813839478"><ele>30.0</ele><time>2026-04-19T05:09:36Z</time></trkpt><trkpt lat="15.47935992460655" lon="120.6781985804029"><ele>30.0</ele><time>2026-04-19T05:09:37Z</time></trkpt><trkpt lat="15.47910162861102" lon="120.67818878901564"><ele>30.0</ele><time>2026-04-19T05:09:38Z</time></trkpt><trkpt lat="15.478843814455232" lon="120.67817510787339"><ele>29.5</ele><time>2026-04-19T05:09:39Z</time></trkpt><trkpt lat="15.478584994224272" lon="120.67815780784609"><ele>29.0</ele><time>2026-04-19T05:09:40Z</time></trkpt><trkpt lat="15.478322495628921" lon="120.67813888827276"><ele>29.0</ele><time>2026-04-19T05:09:41Z</time></trkpt><trkpt lat="15.478060335875018" lon="120.67812054243345"><ele>29.0</ele><time>2026-04-19T05:09:42Z</time></trkpt><trkpt lat="15.477799782657575" lon="120.67810045464019"><ele>30.0</ele><time>2026-04-19T05:09:43Z</time></trkpt><trkpt lat="15.477537639422229" lon="120.67807551462278"><ele>31.0</ele><time>2026-04-19T05:09:44Z</time></trkpt><trkpt lat="15.47727771019372" lon="120.67805460459448"><ele>31.0</ele><time>2026-04-19T05:09:45Z</time></trkpt><trkpt lat="15.477015636977983" lon="120.67803238282121"><ele>31.0</ele><time>2026-04-19T05:09:46Z</time></trkpt><trkpt lat="15.47675892555401" lon="120.67801113359731"><ele>31.0</ele><time>2026-04-19T05:09:47Z</time></trkpt><trkpt lat="15.476497564474844" lon="120.67799119831422"><ele>31.0</ele><time>2026-04-19T05:09:48Z</time></trkpt><trkpt lat="15.47623795404286" lon="120.67797025810681"><ele>31.0</ele><time>2026-04-19T05:09:49Z</time></trkpt><trkpt lat="15.475976320980486" lon="120.67794823795543"><ele>31.0</ele><time>2026-04-19T05:09:50Z</time></trkpt><trkpt lat="15.475713738061488" lon="120.67792987488129"><ele>31.0</ele><time>2026-04-19T05:09:51Z</time></trkpt><trkpt lat="15.475451036831641" lon="120.67791001795818"><ele>31.0</ele><time>2026-04-19T05:09:52Z</time></trkpt><trkpt lat="15.47518894523589" lon="120.67788757662743"><ele>30.0</ele><time>2026-04-19T05:09:53Z</time></trkpt><trkpt lat="15.474927158481826" lon="120.6778639988666"><ele>29.0</ele><time>2026-04-19T05:09:54Z</time></trkpt><trkpt lat="15.474667300680627" lon="120.67783972267198"><ele>28.0</ele><time>2026-04-19T05:09:55Z</time></trkpt><trkpt lat="15.474403016310546" lon="120.67781197584397"><ele>27.0</ele><time>2026-04-19T05:09:56Z</time></trkpt><trkpt lat="15.474141106168263" lon="120.67778444918802"><ele>27.0</ele><time>2026-04-19T05:09:57Z</time></trkpt><trkpt lat="15.473878406616807" lon="120.67775935037555"><ele>27.0</ele><time>2026-04-19T05:09:58Z</time></trkpt><trkpt lat="15.473613242316198" lon="120.677734945088"><ele>27.5</ele><time>2026-04-19T05:09:59Z</time></trkpt><trkpt lat="15.473350088975458" lon="120.67770822653942"><ele>28.0</ele><time>2026-04-19T05:10:00Z</time></trkpt><trkpt lat="15.473084457111" lon="120.67767912518292"><ele>28.0</ele><time>2026-04-19T05:10:01Z</time></trkpt><trkpt lat="15.472817419225828" lon="120.6776490549812"><ele>28.0</ele><time>2026-04-19T05:10:02Z</time></trkpt><trkpt lat="15.472547585645328" lon="120.6776161250456"><ele>28.0</ele><time>2026-04-19T05:10:03Z</time></trkpt><trkpt lat="15.472279573075534" lon="120.67758594975008"><ele>28.0</ele><time>2026-04-19T05:10:04Z</time></trkpt><trkpt lat="15.472011705669841" lon="120.67755499504696"><ele>28.5</ele><time>2026-04-19T05:10:05Z</time></trkpt><trkpt lat="15.471743165893798" lon="120.67752133618447"><ele>29.0</ele><time>2026-04-19T05:10:06Z</time></trkpt><trkpt lat="15.471477329191467" lon="120.67748794375028"><ele>28.5</ele><time>2026-04-19T05:10:07Z</time></trkpt><trkpt lat="15.471214142217814" lon="120.67745305385242"><ele>28.0</ele><time>2026-04-19T05:10:08Z</time></trkpt><trkpt lat="15.470953185207698" lon="120.6774191770368"><ele>28.0</ele><time>2026-04-19T05:10:09Z</time></trkpt><trkpt lat="15.470694393698842" lon="120.67738383161111"><ele>28.0</ele><time>2026-04-19T05:10:10Z</time></trkpt><trkpt lat="15.470437958182707" lon="120.67734857350169"><ele>28.0</ele><time>2026-04-19T05:10:11Z</time></trkpt><trkpt lat="15.470183407666935" lon="120.67731096572268"><ele>28.0</ele><time>2026-04-19T05:10:12Z</time></trkpt><trkpt lat="15.469932565882607" lon="120.67727341936978"><ele>28.0</ele><time>2026-04-19T05:10:13Z</time></trkpt><trkpt lat="15.469683821138844" lon="120.67723415075102"><ele>28.0</ele><time>2026-04-19T05:10:14Z</time></trkpt><trkpt lat="15.46943693445146" lon="120.67719510711055"><ele>29.0</ele><time>2026-04-19T05:10:15Z</time></trkpt><trkpt lat="15.469193033563856" lon="120.6771545954711"><ele>30.0</ele><time>2026-04-19T05:10:16.001Z</time></trkpt><trkpt lat="15.46895175292791" lon="120.67711369331222"><ele>32.0</ele><time>2026-04-19T05:10:17.001Z</time></trkpt><trkpt lat="15.4687153723011" lon="120.6770729838521"><ele>34.0</ele><time>2026-04-19T05:10:18.001Z</time></trkpt><trkpt lat="15.468483348322977" lon="120.67702982646068"><ele>34.0</ele><time>2026-04-19T05:10:19.001Z</time></trkpt><trkpt lat="15.468253470678432" lon="120.6769882146126"><ele>34.0</ele><time>2026-04-19T05:10:20.001Z</time></trkpt><trkpt lat="15.468027176708603" lon="120.67694753865617"><ele>33.5</ele><time>2026-04-19T05:10:21.001Z</time></trkpt><trkpt lat="15.467802108652378" lon="120.67690614568697"><ele>33.0</ele><time>2026-04-19T05:10:22.001Z</time></trkpt><trkpt lat="15.467580376593293" lon="120.6768623235572"><ele>33.0</ele><time>2026-04-19T05:10:23.001Z</time></trkpt><trkpt lat="15.467360602025993" lon="120.6768208792235"><ele>33.0</ele><time>2026-04-19T05:10:24.001Z</time></trkpt><trkpt lat="15.467143833297762" lon="120.67677889853051"><ele>33.0</ele><time>2026-04-19T05:10:25.001Z</time></trkpt><trkpt lat="15.466928336121551" lon="120.67673760690309"><ele>32.0</ele><time>2026-04-19T05:10:26.001Z</time></trkpt><trkpt lat="15.466713764773289" lon="120.67669639791568"><ele>31.0</ele><time>2026-04-19T05:10:27.001Z</time></trkpt><trkpt lat="15.466500107365972" lon="120.67665396024299"><ele>30.0</ele><time>2026-04-19T05:10:28.001Z</time></trkpt><trkpt lat="15.466287537839998" lon="120.67661102367914"><ele>29.333333333333336</ele><time>2026-04-19T05:10:29.001Z</time></trkpt><trkpt lat="15.466076232777176" lon="120.67656819260611"><ele>28.666666666666668</ele><time>2026-04-19T05:10:30.001Z</time></trkpt><trkpt lat="15.465867484459158" lon="120.67652375097595"><ele>28.0</ele><time>2026-04-19T05:10:31.001Z</time></trkpt><trkpt lat="15.46566144157472" lon="120.67647894288514"><ele>28.0</ele><time>2026-04-19T05:10:32.001Z</time></trkpt><trkpt lat="15.465458555980296" lon="120.67643513264035"><ele>28.0</ele><time>2026-04-19T05:10:33.001Z</time></trkpt><trkpt lat="15.46526071861921" lon="120.6763918752979"><ele>28.0</ele><time>2026-04-19T05:10:34.001Z</time></trkpt><trkpt lat="15.465071477606692" lon="120.67634887751991"><ele>28.333333333333336</ele><time>2026-04-19T05:10:35.001Z</time></trkpt><trkpt lat="15.464890306124135" lon="120.67630900880279"><ele>28.666666666666664</ele><time>2026-04-19T05:10:36.001Z</time></trkpt><trkpt lat="15.464720642141947" lon="120.67627011127082"><ele>29.0</ele><time>2026-04-19T05:10:37.001Z</time></trkpt><trkpt lat="15.464565895328452" lon="120.67623383481198"><ele>29.0</ele><time>2026-04-19T05:10:38.001Z</time></trkpt><trkpt lat="15.464426261252116" lon="120.67620065649851"><ele>29.0</ele><time>2026-04-19T05:10:39.001Z</time></trkpt><trkpt lat="15.464305630288777" lon="120.67616996765877"><ele>29.0</ele><time>2026-04-19T05:10:40.001Z</time></trkpt><trkpt lat="15.464202112561368" lon="120.67614284204564"><ele>29.0</ele><time>2026-04-19T05:10:41.001Z</time></trkpt><trkpt lat="15.464124622143961" lon="120.6761246328945"><ele>28.666666666666664</ele><time>2026-04-19T05:10:42.001Z</time></trkpt><trkpt lat="15.46403413676836" lon="120.67610157492065"><ele>28.333333333333332</ele><time>2026-04-19T05:10:44.001Z</time></trkpt><trkpt lat="15.463959766333536" lon="120.67608188677295"><ele>28.0</ele><time>2026-04-19T05:10:48.001Z</time></trkpt><trkpt lat="15.46388458949537" lon="120.67606240625419"><ele>27.666666666666664</ele><time>2026-04-19T05:10:52.001Z</time></trkpt><trkpt lat="15.463818820587704" lon="120.67604635764043"><ele>27.333333333333332</ele><time>2026-04-19T05:10:55.001Z</time></trkpt><trkpt lat="15.46374907122685" lon="120.67603046186736"><ele>27.0</ele><time>2026-04-19T05:10:59.001Z</time></trkpt><trkpt lat="15.46368058354544" lon="120.67601509916258"><ele>26.714285714285715</ele><time>2026-04-19T05:11:04.001Z</time></trkpt><trkpt lat="15.463618135932848" lon="120.67599839005763"><ele>26.428571428571427</ele><time>2026-04-19T05:11:10.001Z</time></trkpt><trkpt lat="15.463550825560933" lon="120.67598309714688"><ele>26.142857142857146</ele><time>2026-04-19T05:11:21Z</time></trkpt><trkpt lat="15.463485233557384" lon="120.67596626004384"><ele>25.857142857142858</ele><time>2026-04-19T05:11:26Z</time></trkpt><trkpt lat="15.463420441319876" lon="120.67594961131888"><ele>25.571428571428573</ele><time>2026-04-19T05:11:38Z</time></trkpt><trkpt lat="15.463355491660694" lon="120.67593342520424"><ele>25.28571428571429</ele><time>2026-04-19T05:11:46Z</time></trkpt><trkpt lat="15.46329298415834" lon="120.67591298224785"><ele>25.0</ele><time>2026-04-19T05:11:52Z</time></trkpt><trkpt lat="15.463224988143669" lon="120.67588730852766"><ele>25.000000000000004</ele><time>2026-04-19T05:11:58Z</time></trkpt><trkpt lat="15.463155923179981" lon="120.67586534852667"><ele>25.0</ele><time>2026-04-19T05:12:04Z</time></trkpt><trkpt lat="15.463090799194482" lon="120.67584769917056"><ele>25.0</ele><time>2026-04-19T05:12:08Z</time></trkpt><trkpt lat="15.463018241102022" lon="120.67582833876482"><ele>25.0</ele><time>2026-04-19T05:12:12Z</time></trkpt><trkpt lat="15.462943218709215" lon="120.6758066049195"><ele>25.0</ele><time>2026-04-19T05:12:18Z</time></trkpt><trkpt lat="15.462876679624983" lon="120.67578959402532"><ele>25.000000000000004</ele><time>2026-04-19T05:12:23.001Z</time></trkpt><trkpt lat="15.462803049552301" lon="120.67577611364126"><ele>25.0</ele><time>2026-04-19T05:12:31.001Z</time></trkpt><trkpt lat="15.462731533986757" lon="120.67576431708166"><ele>25.6</ele><time>2026-04-19T05:12:34.001Z</time></trkpt><trkpt lat="15.462644636738519" lon="120.67572819042749"><ele>26.2</ele><time>2026-04-19T05:12:36.001Z</time></trkpt><trkpt lat="15.462554385333046" lon="120.67569773205288"><ele>26.799999999999997</ele><time>2026-04-19T05:12:37.001Z</time></trkpt><trkpt lat="15.46244973155606" lon="120.67566968231989"><ele>27.4</ele><time>2026-04-19T05:12:38.001Z</time></trkpt><trkpt lat="15.462349165514409" lon="120.67563663676577"><ele>28.0</ele><time>2026-04-19T05:12:39.001Z</time></trkpt><trkpt lat="15.462251368358393" lon="120.67561283243231"><ele>28.0</ele><time>2026-04-19T05:12:40.001Z</time></trkpt><trkpt lat="15.46214558050806" lon="120.6755846507872"><ele>28.0</ele><time>2026-04-19T05:12:41.001Z</time></trkpt><trkpt lat="15.462033823908579" lon="120.67555373984867"><ele>28.0</ele><time>2026-04-19T05:12:42.001Z</time></trkpt><trkpt lat="15.461915807104749" lon="120.67552294421822"><ele>28.0</ele><time>2026-04-19T05:12:43.001Z</time></trkpt><trkpt lat="15.461796044118103" lon="120.67549076088072"><ele>28.5</ele><time>2026-04-19T05:12:44.001Z</time></trkpt><trkpt lat="15.461673062875716" lon="120.67545718111417"><ele>29.0</ele><time>2026-04-19T05:12:45.001Z</time></trkpt><trkpt lat="15.461544281035332" lon="120.67542131206018"><ele>29.5</ele><time>2026-04-19T05:12:46.001Z</time></trkpt><trkpt lat="15.461413919723991" lon="120.67538769555729"><ele>30.0</ele><time>2026-04-19T05:12:47.001Z</time></trkpt><trkpt lat="15.461278236957593" lon="120.675349831029"><ele>28.666666666666664</ele><time>2026-04-19T05:12:48.001Z</time></trkpt><trkpt lat="15.461136725144463" lon="120.67530928203948"><ele>27.333333333333332</ele><time>2026-04-19T05:12:49.001Z</time></trkpt><trkpt lat="15.460990746257872" lon="120.6752660619978"><ele>26.0</ele><time>2026-04-19T05:12:50.001Z</time></trkpt><trkpt lat="15.460842373765894" lon="120.67522092892285"><ele>26.0</ele><time>2026-04-19T05:12:51.001Z</time></trkpt><trkpt lat="15.460687983567139" lon="120.67517453533029"><ele>26.0</ele><time>2026-04-19T05:12:52.001Z</time></trkpt><trkpt lat="15.460530116487897" lon="120.67512676279891"><ele>26.0</ele><time>2026-04-19T05:12:53.001Z</time></trkpt><trkpt lat="15.46036742381531" lon="120.67507852820243"><ele>25.333333333333332</ele><time>2026-04-19T05:12:54.001Z</time></trkpt><trkpt lat="15.46020124384796" lon="120.67502888667832"><ele>24.666666666666664</ele><time>2026-04-19T05:12:55.001Z</time></trkpt><trkpt lat="15.460029105423514" lon="120.67497970731571"><ele>24.0</ele><time>2026-04-19T05:12:56.001Z</time></trkpt><trkpt lat="15.459853034028411" lon="120.67492769012283"><ele>24.0</ele><time>2026-04-19T05:12:57.001Z</time></trkpt><trkpt lat="15.459674381072865" lon="120.67487181825301"><ele>24.0</ele><time>2026-04-19T05:12:58.001Z</time></trkpt><trkpt lat="15.459492661152932" lon="120.67481522182476"><ele>24.0</ele><time>2026-04-19T05:12:59.001Z</time></trkpt><trkpt lat="15.459306611383665" lon="120.6747591404239"><ele>24.666666666666664</ele><time>2026-04-19T05:13:00.001Z</time></trkpt><trkpt lat="15.459119746634475" lon="120.67470078645933"><ele>25.333333333333332</ele><time>2026-04-19T05:13:01.001Z</time></trkpt><trkpt lat="15.458929601198022" lon="120.67464081072748"><ele>26.0</ele><time>2026-04-19T05:13:02.001Z</time></trkpt><trkpt lat="15.458735551533671" lon="120.67457618377418"><ele>26.333333333333332</ele><time>2026-04-19T05:13:03.001Z</time></trkpt><trkpt lat="15.4585394456925" lon="120.67451043535361"><ele>26.666666666666664</ele><time>2026-04-19T05:13:04.001Z</time></trkpt><trkpt lat="15.458339702156973" lon="120.67444413972497"><ele>27.0</ele><time>2026-04-19T05:13:05.001Z</time></trkpt><trkpt lat="15.458137434433409" lon="120.67437662028992"><ele>27.666666666666664</ele><time>2026-04-19T05:13:06.001Z</time></trkpt><trkpt lat="15.457932615639706" lon="120.6743052820881"><ele>28.333333333333332</ele><time>2026-04-19T05:13:07.001Z</time></trkpt><trkpt lat="15.45772365992588" lon="120.67423553325216"><ele>29.0</ele><time>2026-04-19T05:13:08.001Z</time></trkpt><trkpt lat="15.457512824577604" lon="120.67416406402354"><ele>29.0</ele><time>2026-04-19T05:13:09.001Z</time></trkpt><trkpt lat="15.457300080387318" lon="120.67409114921773"><ele>29.0</ele><time>2026-04-19T05:13:10.001Z</time></trkpt><trkpt lat="15.457085295080542" lon="120.67401738247035"><ele>29.0</ele><time>2026-04-19T05:13:11.001Z</time></trkpt><trkpt lat="15.456867961595126" lon="120.67394285165538"><ele>29.0</ele><time>2026-04-19T05:13:12.001Z</time></trkpt><trkpt lat="15.456647120482717" lon="120.67386658423608"><ele>29.0</ele><time>2026-04-19T05:13:13.001Z</time></trkpt><trkpt lat="15.45642468299833" lon="120.67378976492176"><ele>29.0</ele><time>2026-04-19T05:13:14.001Z</time></trkpt><trkpt lat="15.45620033357943" lon="120.67371152953072"><ele>29.5</ele><time>2026-04-19T05:13:15.001Z</time></trkpt><trkpt lat="15.455975089927989" lon="120.67363285774589"><ele>30.0</ele><time>2026-04-19T05:13:16.001Z</time></trkpt><trkpt lat="15.455747187123286" lon="120.67355250414046"><ele>30.0</ele><time>2026-04-19T05:13:17.001Z</time></trkpt><trkpt lat="15.455518126346748" lon="120.67347310829938"><ele>30.0</ele><time>2026-04-19T05:13:18.001Z</time></trkpt><trkpt lat="15.455287073067954" lon="120.6733954602305"><ele>29.0</ele><time>2026-04-19T05:13:19.001Z</time></trkpt><trkpt lat="15.455055839262105" lon="120.67331503893539"><ele>28.0</ele><time>2026-04-19T05:13:20.001Z</time></trkpt><trkpt lat="15.454823454756665" lon="120.67323415794473"><ele>28.0</ele><time>2026-04-19T05:13:21.001Z</time></trkpt><trkpt lat="15.454590198841812" lon="120.6731536669452"><ele>28.0</ele><time>2026-04-19T05:13:22.001Z</time></trkpt><trkpt lat="15.454355926919492" lon="120.67307204301943"><ele>28.0</ele><time>2026-04-19T05:13:23Z</time></trkpt><trkpt lat="15.45411921661412" lon="120.67299063810327"><ele>28.0</ele><time>2026-04-19T05:13:24Z</time></trkpt><trkpt lat="15.453882633847094" lon="120.67290582075205"><ele>28.0</ele><time>2026-04-19T05:13:25Z</time></trkpt><trkpt lat="15.453644912009848" lon="120.6728226577458"><ele>28.0</ele><time>2026-04-19T05:13:26Z</time></trkpt><trkpt lat="15.453405421610492" lon="120.67273937588176"><ele>28.0</ele><time>2026-04-19T05:13:27Z</time></trkpt><trkpt lat="15.453163578692122" lon="120.67265585273192"><ele>28.0</ele><time>2026-04-19T05:13:28Z</time></trkpt><trkpt lat="15.45292252650229" lon="120.6725713927071"><ele>29.0</ele><time>2026-04-19T05:13:29Z</time></trkpt><trkpt lat="15.45268086145038" lon="120.67248682396415"><ele>30.0</ele><time>2026-04-19T05:13:30Z</time></trkpt><trkpt lat="15.452439641892939" lon="120.67240163989412"><ele>30.0</ele><time>2026-04-19T05:13:31Z</time></trkpt><trkpt lat="15.452195689688796" lon="120.6723173676209"><ele>30.0</ele><time>2026-04-19T05:13:32Z</time></trkpt><trkpt lat="15.451951339360214" lon="120.67223317580147"><ele>29.0</ele><time>2026-04-19T05:13:33Z</time></trkpt><trkpt lat="15.451706424773338" lon="120.67214994184488"><ele>28.0</ele><time>2026-04-19T05:13:34Z</time></trkpt><trkpt lat="15.451461661453045" lon="120.67206657710209"><ele>28.5</ele><time>2026-04-19T05:13:35Z</time></trkpt><trkpt lat="15.451216112798319" lon="120.67198225184663"><ele>29.0</ele><time>2026-04-19T05:13:36Z</time></trkpt><trkpt lat="15.450970806032835" lon="120.67189669751268"><ele>29.0</ele><time>2026-04-19T05:13:37Z</time></trkpt><trkpt lat="15.450723642034912" lon="120.67181159048765"><ele>29.0</ele><time>2026-04-19T05:13:38Z</time></trkpt><trkpt lat="15.450478006676402" lon="120.67172599062624"><ele>29.0</ele><time>2026-04-19T05:13:39Z</time></trkpt><trkpt lat="15.45023112335836" lon="120.6716399227655"><ele>29.0</ele><time>2026-04-19T05:13:40Z</time></trkpt><trkpt lat="15.449983547906779" lon="120.67155165430485"><ele>29.0</ele><time>2026-04-19T05:13:41Z</time></trkpt><trkpt lat="15.449734681450263" lon="120.67146439053643"><ele>29.0</ele><time>2026-04-19T05:13:42Z</time></trkpt><trkpt lat="15.44948460573313" lon="120.67137761913524"><ele>28.5</ele><time>2026-04-19T05:13:43Z</time></trkpt><trkpt lat="15.449234189250273" lon="120.67129065881433"><ele>28.0</ele><time>2026-04-19T05:13:44Z</time></trkpt><trkpt lat="15.448984266684592" lon="120.67120264580419"><ele>28.5</ele><time>2026-04-19T05:13:45Z</time></trkpt><trkpt lat="15.448733737769683" lon="120.67111686935019"><ele>29.0</ele><time>2026-04-19T05:13:46Z</time></trkpt><trkpt lat="15.448483134786157" lon="120.67102880512347"><ele>29.0</ele><time>2026-04-19T05:13:47Z</time></trkpt><trkpt lat="15.44823135140982" lon="120.67094102878815"><ele>29.0</ele><time>2026-04-19T05:13:48Z</time></trkpt><trkpt lat="15.447981073621978" lon="120.67085258202614"><ele>29.5</ele><time>2026-04-19T05:13:49Z</time></trkpt><trkpt lat="15.447729759537108" lon="120.67076394479074"><ele>30.0</ele><time>2026-04-19T05:13:50Z</time></trkpt><trkpt lat="15.447479054239958" lon="120.6706747724151"><ele>30.0</ele><time>2026-04-19T05:13:51Z</time></trkpt><trkpt lat="15.44722723139391" lon="120.6705834264782"><ele>30.0</ele><time>2026-04-19T05:13:52Z</time></trkpt><trkpt lat="15.446972908692143" lon="120.67049300590689"><ele>30.0</ele><time>2026-04-19T05:13:53Z</time></trkpt><trkpt lat="15.446719860548644" lon="120.67040115153605"><ele>30.0</ele><time>2026-04-19T05:13:54Z</time></trkpt><trkpt lat="15.446466452097841" lon="120.67030773683642"><ele>29.0</ele><time>2026-04-19T05:13:55Z</time></trkpt><trkpt lat="15.446211787773827" lon="120.67021504098886"><ele>28.0</ele><time>2026-04-19T05:13:56Z</time></trkpt><trkpt lat="15.445955237250564" lon="120.67012329211761"><ele>28.0</ele><time>2026-04-19T05:13:57Z</time></trkpt><trkpt lat="15.445695753136091" lon="120.67003164988456"><ele>28.0</ele><time>2026-04-19T05:13:58Z</time></trkpt><trkpt lat="15.445436993536818" lon="120.6699403583566"><ele>28.5</ele><time>2026-04-19T05:13:59Z</time></trkpt><trkpt lat="15.44517916631237" lon="120.66985074836782"><ele>29.0</ele><time>2026-04-19T05:14:00Z</time></trkpt><trkpt lat="15.444922062598701" lon="120.66975920272516"><ele>29.0</ele><time>2026-04-19T05:14:01Z</time></trkpt><trkpt lat="15.444664068965231" lon="120.66966793850246"><ele>29.0</ele><time>2026-04-19T05:14:02Z</time></trkpt><trkpt lat="15.444404555001979" lon="120.6695757438818"><ele>29.5</ele><time>2026-04-19T05:14:03Z</time></trkpt><trkpt lat="15.444144043961845" lon="120.66948281464872"><ele>30.0</ele><time>2026-04-19T05:14:04Z</time></trkpt><trkpt lat="15.443881392169077" lon="120.66939127325578"><ele>31.0</ele><time>2026-04-19T05:14:05Z</time></trkpt><trkpt lat="15.443618639995691" lon="120.66929897677872"><ele>32.0</ele><time>2026-04-19T05:14:06Z</time></trkpt><trkpt lat="15.44335383466381" lon="120.66920772235463"><ele>32.0</ele><time>2026-04-19T05:14:07Z</time></trkpt><trkpt lat="15.443088328031246" lon="120.66911649929156"><ele>32.0</ele><time>2026-04-19T05:14:08Z</time></trkpt><trkpt lat="15.442821385990873" lon="120.66902372409274"><ele>30.0</ele><time>2026-04-19T05:14:09Z</time></trkpt><trkpt lat="15.442554406856743" lon="120.6689298733918"><ele>28.0</ele><time>2026-04-19T05:14:10Z</time></trkpt><trkpt lat="15.442286523442503" lon="120.66883586281749"><ele>28.5</ele><time>2026-04-19T05:14:11Z</time></trkpt><trkpt lat="15.442017661299035" lon="120.66874144309415"><ele>29.0</ele><time>2026-04-19T05:14:12Z</time></trkpt><trkpt lat="15.441749559674099" lon="120.66864653604691"><ele>29.5</ele><time>2026-04-19T05:14:13Z</time></trkpt><trkpt lat="15.441481739548374" lon="120.66855219750406"><ele>30.0</ele><time>2026-04-19T05:14:14Z</time></trkpt><trkpt lat="15.441214252900105" lon="120.66845798475401"><ele>30.0</ele><time>2026-04-19T05:14:15Z</time></trkpt><trkpt lat="15.440945735444506" lon="120.66836411081498"><ele>30.0</ele><time>2026-04-19T05:14:16Z</time></trkpt><trkpt lat="15.440678043457146" lon="120.66827060711881"><ele>31.0</ele><time>2026-04-19T05:14:17Z</time></trkpt><trkpt lat="15.440411831598638" lon="120.66817715735317"><ele>32.0</ele><time>2026-04-19T05:14:18Z</time></trkpt><trkpt lat="15.44014593535559" lon="120.66808273296101"><ele>32.0</ele><time>2026-04-19T05:14:19Z</time></trkpt><trkpt lat="15.439880028651384" lon="120.66798958051493"><ele>32.0</ele><time>2026-04-19T05:14:20Z</time></trkpt><trkpt lat="15.439612919474746" lon="120.6678967707053"><ele>32.0</ele><time>2026-04-19T05:14:21Z</time></trkpt><trkpt lat="15.439346401450061" lon="120.66780495671563"><ele>32.0</ele><time>2026-04-19T05:14:22.001Z</time></trkpt><trkpt lat="15.4390788345086" lon="120.66771401980066"><ele>31.5</ele><time>2026-04-19T05:14:23.001Z</time></trkpt><trkpt lat="15.438813192899415" lon="120.66762128664226"><ele>31.0</ele><time>2026-04-19T05:14:24.001Z</time></trkpt><trkpt lat="15.438547286434401" lon="120.66752757633014"><ele>31.0</ele><time>2026-04-19T05:14:25.001Z</time></trkpt><trkpt lat="15.438281354796151" lon="120.66743334814706"><ele>31.0</ele><time>2026-04-19T05:14:26.001Z</time></trkpt><trkpt lat="15.438014203460622" lon="120.66734059583754"><ele>31.5</ele><time>2026-04-19T05:14:27.001Z</time></trkpt><trkpt lat="15.43774843430641" lon="120.6672486280774"><ele>32.0</ele><time>2026-04-19T05:14:28.001Z</time></trkpt><trkpt lat="15.437481461434169" lon="120.66715724421019"><ele>32.0</ele><time>2026-04-19T05:14:29.001Z</time></trkpt><trkpt lat="15.43721477619531" lon="120.66706723817752"><ele>32.0</ele><time>2026-04-19T05:14:30.001Z</time></trkpt><trkpt lat="15.436948457860177" lon="120.66697810152813"><ele>32.0</ele><time>2026-04-19T05:14:31.001Z</time></trkpt><trkpt lat="15.436682890863542" lon="120.66688927735896"><ele>32.0</ele><time>2026-04-19T05:14:32.001Z</time></trkpt><trkpt lat="15.436417711808309" lon="120.66680117743971"><ele>32.0</ele><time>2026-04-19T05:14:33.001Z</time></trkpt><trkpt lat="15.436152874559154" lon="120.6667132827697"><ele>32.0</ele><time>2026-04-19T05:14:34.001Z</time></trkpt><trkpt lat="15.435890247044368" lon="120.66662455065061"><ele>32.0</ele><time>2026-04-19T05:14:35.001Z</time></trkpt><trkpt lat="15.43562881563723" lon="120.66653462615571"><ele>32.0</ele><time>2026-04-19T05:14:36.001Z</time></trkpt><trkpt lat="15.435368921015739" lon="120.66644655582587"><ele>32.0</ele><time>2026-04-19T05:14:37.001Z</time></trkpt><trkpt lat="15.435110887144198" lon="120.66635640462907"><ele>32.0</ele><time>2026-04-19T05:14:38.001Z</time></trkpt><trkpt lat="15.434851881572568" lon="120.66626706807614"><ele>32.0</ele><time>2026-04-19T05:14:39.001Z</time></trkpt><trkpt lat="15.434593310715536" lon="120.66617606042544"><ele>32.0</ele><time>2026-04-19T05:14:40.001Z</time></trkpt><trkpt lat="15.434334481290803" lon="120.66608731832238"><ele>32.0</ele><time>2026-04-19T05:14:41.001Z</time></trkpt><trkpt lat="15.434076121877531" lon="120.66599644521658"><ele>32.0</ele><time>2026-04-19T05:14:42.001Z</time></trkpt><trkpt lat="15.433816595340645" lon="120.6659065053754"><ele>32.5</ele><time>2026-04-19T05:14:43.001Z</time></trkpt><trkpt lat="15.433557622169074" lon="120.66581585310735"><ele>33.0</ele><time>2026-04-19T05:14:44.001Z</time></trkpt><trkpt lat="15.433297838039715" lon="120.66572511809277"><ele>33.0</ele><time>2026-04-19T05:14:45.001Z</time></trkpt><trkpt lat="15.433038774885805" lon="120.66563441728321"><ele>33.0</ele><time>2026-04-19T05:14:46.001Z</time></trkpt><trkpt lat="15.432779085254278" lon="120.66554487287063"><ele>32.5</ele><time>2026-04-19T05:14:47.001Z</time></trkpt><trkpt lat="15.432518413446065" lon="120.66545541866414"><ele>32.0</ele><time>2026-04-19T05:14:48.001Z</time></trkpt><trkpt lat="15.43225607905017" lon="120.66536520635154"><ele>32.0</ele><time>2026-04-19T05:14:49.001Z</time></trkpt><trkpt lat="15.431993642639572" lon="120.66527182667683"><ele>32.0</ele><time>2026-04-19T05:14:50.001Z</time></trkpt><trkpt lat="15.431730834115545" lon="120.6651789686008"><ele>32.0</ele><time>2026-04-19T05:14:51.001Z</time></trkpt><trkpt lat="15.431469238996364" lon="120.6650848103378"><ele>32.0</ele><time>2026-04-19T05:14:52.001Z</time></trkpt><trkpt lat="15.431207535432453" lon="120.66499282678625"><ele>32.5</ele><time>2026-04-19T05:14:53.001Z</time></trkpt><trkpt lat="15.430944575975774" lon="120.66490009562003"><ele>33.0</ele><time>2026-04-19T05:14:54.001Z</time></trkpt><trkpt lat="15.430681303585532" lon="120.66480897305831"><ele>32.0</ele><time>2026-04-19T05:14:55.001Z</time></trkpt><trkpt lat="15.43041824781327" lon="120.66471668649693"><ele>31.0</ele><time>2026-04-19T05:14:56.001Z</time></trkpt><trkpt lat="15.43015537382381" lon="120.66462301330402"><ele>31.0</ele><time>2026-04-19T05:14:57.001Z</time></trkpt><trkpt lat="15.429892792852856" lon="120.66453019272605"><ele>31.0</ele><time>2026-04-19T05:14:58.001Z</time></trkpt><trkpt lat="15.42962996952335" lon="120.66443898284574"><ele>31.5</ele><time>2026-04-19T05:14:59.001Z</time></trkpt><trkpt lat="15.42936753988143" lon="120.66434632212031"><ele>32.0</ele><time>2026-04-19T05:15:00.001Z</time></trkpt><trkpt lat="15.42910561530063" lon="120.66425513123569"><ele>32.0</ele><time>2026-04-19T05:15:01.001Z</time></trkpt><trkpt lat="15.42884168422078" lon="120.66416370435739"><ele>32.0</ele><time>2026-04-19T05:15:02.001Z</time></trkpt><trkpt lat="15.428578558005785" lon="120.66407253134385"><ele>31.5</ele><time>2026-04-19T05:15:03.001Z</time></trkpt><trkpt lat="15.428315757851312" lon="120.66398414876792"><ele>31.0</ele><time>2026-04-19T05:15:04.001Z</time></trkpt><trkpt lat="15.428054859487226" lon="120.66389428847535"><ele>31.0</ele><time>2026-04-19T05:15:05.001Z</time></trkpt><trkpt lat="15.427796685411357" lon="120.66380329143276"><ele>31.0</ele><time>2026-04-19T05:15:06.001Z</time></trkpt><trkpt lat="15.427538756167058" lon="120.66371157776435"><ele>31.0</ele><time>2026-04-19T05:15:07.001Z</time></trkpt><trkpt lat="15.427283251754181" lon="120.66362069064463"><ele>31.0</ele><time>2026-04-19T05:15:08.001Z</time></trkpt><trkpt lat="15.427028439108255" lon="120.66353184720182"><ele>31.0</ele><time>2026-04-19T05:15:09.001Z</time></trkpt><trkpt lat="15.426777407893983" lon="120.66344311784644"><ele>31.0</ele><time>2026-04-19T05:15:10.001Z</time></trkpt><trkpt lat="15.426531098112363" lon="120.6633578952196"><ele>31.5</ele><time>2026-04-19T05:15:11.001Z</time></trkpt><trkpt lat="15.426287831206219" lon="120.66327365755812"><ele>32.0</ele><time>2026-04-19T05:15:12.001Z</time></trkpt><trkpt lat="15.426047149787907" lon="120.66319094634272"><ele>32.0</ele><time>2026-04-19T05:15:13.001Z</time></trkpt><trkpt lat="15.425810494632282" lon="120.6631078217086"><ele>32.0</ele><time>2026-04-19T05:15:14.001Z</time></trkpt><trkpt lat="15.425574521185396" lon="120.6630270445046"><ele>32.0</ele><time>2026-04-19T05:15:15.001Z</time></trkpt><trkpt lat="15.42533984907485" lon="120.66294257707588"><ele>32.0</ele><time>2026-04-19T05:15:16.001Z</time></trkpt><trkpt lat="15.425104477400032" lon="120.66286283731255"><ele>32.0</ele><time>2026-04-19T05:15:17.001Z</time></trkpt><trkpt lat="15.424868956667826" lon="120.66278532141054"><ele>32.0</ele><time>2026-04-19T05:15:18.001Z</time></trkpt><trkpt lat="15.42463552737722" lon="120.6627055758453"><ele>31.5</ele><time>2026-04-19T05:15:19.001Z</time></trkpt><trkpt lat="15.424404087113682" lon="120.66262921563359"><ele>31.0</ele><time>2026-04-19T05:15:20.001Z</time></trkpt><trkpt lat="15.424175177500315" lon="120.6625533077331"><ele>31.0</ele><time>2026-04-19T05:15:21.001Z</time></trkpt><trkpt lat="15.423946976594896" lon="120.66248035687507"><ele>31.0</ele><time>2026-04-19T05:15:22.001Z</time></trkpt><trkpt lat="15.423719135633078" lon="120.66240845710591"><ele>31.5</ele><time>2026-04-19T05:15:23.001Z</time></trkpt><trkpt lat="15.423492607333191" lon="120.66233734985354"><ele>32.0</ele><time>2026-04-19T05:15:24.001Z</time></trkpt><trkpt lat="15.42326558241737" lon="120.66226733174845"><ele>32.0</ele><time>2026-04-19T05:15:25.001Z</time></trkpt><trkpt lat="15.423038173161588" lon="120.66219676045883"><ele>32.0</ele><time>2026-04-19T05:15:26.001Z</time></trkpt><trkpt lat="15.422810828380463" lon="120.66212906524773"><ele>33.0</ele><time>2026-04-19T05:15:27.001Z</time></trkpt><trkpt lat="15.422582039823514" lon="120.66205941720493"><ele>34.0</ele><time>2026-04-19T05:15:28Z</time></trkpt><trkpt lat="15.422349728953247" lon="120.66199474988635"><ele>34.0</ele><time>2026-04-19T05:15:29Z</time></trkpt><trkpt lat="15.422118379778482" lon="120.6619270079857"><ele>34.0</ele><time>2026-04-19T05:15:30Z</time></trkpt><trkpt lat="15.421885579292377" lon="120.66186255281927"><ele>34.0</ele><time>2026-04-19T05:15:31Z</time></trkpt><trkpt lat="15.421651846240566" lon="120.66179709714817"><ele>34.0</ele><time>2026-04-19T05:15:32Z</time></trkpt><trkpt lat="15.421417893153386" lon="120.66173098009845"><ele>34.0</ele><time>2026-04-19T05:15:33Z</time></trkpt><trkpt lat="15.42118227687954" lon="120.66166608738446"><ele>34.0</ele><time>2026-04-19T05:15:34Z</time></trkpt><trkpt lat="15.420946623390474" lon="120.66160054125096"><ele>34.0</ele><time>2026-04-19T05:15:35Z</time></trkpt><trkpt lat="15.420709657358053" lon="120.66153670504885"><ele>34.0</ele><time>2026-04-19T05:15:36Z</time></trkpt><trkpt lat="15.42047222202843" lon="120.66147349735158"><ele>34.0</ele><time>2026-04-19T05:15:37Z</time></trkpt><trkpt lat="15.420234141086938" lon="120.66141139847494"><ele>34.0</ele><time>2026-04-19T05:15:38Z</time></trkpt><trkpt lat="15.419996112323208" lon="120.66134987985068"><ele>34.0</ele><time>2026-04-19T05:15:39Z</time></trkpt><trkpt lat="15.419756804118842" lon="120.6612890818693"><ele>34.0</ele><time>2026-04-19T05:15:40Z</time></trkpt><trkpt lat="15.419517231506202" lon="120.66122871207266"><ele>33.5</ele><time>2026-04-19T05:15:41Z</time></trkpt><trkpt lat="15.419276116693252" lon="120.66116921075279"><ele>33.0</ele><time>2026-04-19T05:15:42Z</time></trkpt><trkpt lat="15.41903476269576" lon="120.66111138406464"><ele>32.5</ele><time>2026-04-19T05:15:43Z</time></trkpt><trkpt lat="15.418792465094622" lon="120.66105174182019"><ele>32.0</ele><time>2026-04-19T05:15:44Z</time></trkpt><trkpt lat="15.41854959997713" lon="120.66099319378772"><ele>32.0</ele><time>2026-04-19T05:15:45Z</time></trkpt><trkpt lat="15.418306781513223" lon="120.66093649421929"><ele>32.0</ele><time>2026-04-19T05:15:46Z</time></trkpt><trkpt lat="15.418062052797943" lon="120.66088059635311"><ele>31.5</ele><time>2026-04-19T05:15:47Z</time></trkpt><trkpt lat="15.417818985510745" lon="120.66082589576617"><ele>31.0</ele><time>2026-04-19T05:15:48Z</time></trkpt><trkpt lat="15.417574897665157" lon="120.66077294401113"><ele>31.0</ele><time>2026-04-19T05:15:49Z</time></trkpt><trkpt lat="15.417331555239404" lon="120.66072162652446"><ele>31.0</ele><time>2026-04-19T05:15:50Z</time></trkpt><trkpt lat="15.41708910016882" lon="120.66067079320554"><ele>32.5</ele><time>2026-04-19T05:15:51Z</time></trkpt><trkpt lat="15.416848449540552" lon="120.66061988753088"><ele>34.0</ele><time>2026-04-19T05:15:52Z</time></trkpt><trkpt lat="15.416608418914956" lon="120.6605686710229"><ele>34.0</ele><time>2026-04-19T05:15:53Z</time></trkpt><trkpt lat="15.416368530431626" lon="120.66051896164667"><ele>34.0</ele><time>2026-04-19T05:15:54Z</time></trkpt><trkpt lat="15.416127260714577" lon="120.66047067638462"><ele>34.0</ele><time>2026-04-19T05:15:55Z</time></trkpt><trkpt lat="15.415885623997596" lon="120.66042578276311"><ele>34.0</ele><time>2026-04-19T05:15:56Z</time></trkpt><trkpt lat="15.415642594761211" lon="120.66037974967142"><ele>34.5</ele><time>2026-04-19T05:15:57Z</time></trkpt><trkpt lat="15.415400013432178" lon="120.66033518860893"><ele>35.0</ele><time>2026-04-19T05:15:58Z</time></trkpt><trkpt lat="15.415156547700251" lon="120.66029076145645"><ele>34.5</ele><time>2026-04-19T05:15:59Z</time></trkpt><trkpt lat="15.414911844564417" lon="120.66024640905336"><ele>34.0</ele><time>2026-04-19T05:16:00Z</time></trkpt><trkpt lat="15.414666367803893" lon="120.6602019390097"><ele>36.0</ele><time>2026-04-19T05:16:01Z</time></trkpt><trkpt lat="15.414418801346445" lon="120.66015761187423"><ele>38.0</ele><time>2026-04-19T05:16:02Z</time></trkpt><trkpt lat="15.414169332814748" lon="120.66011181362053"><ele>38.0</ele><time>2026-04-19T05:16:03Z</time></trkpt><trkpt lat="15.413916602544765" lon="120.6600705745158"><ele>38.0</ele><time>2026-04-19T05:16:04Z</time></trkpt><trkpt lat="15.413660682231077" lon="120.66002915442131"><ele>36.0</ele><time>2026-04-19T05:16:05Z</time></trkpt><trkpt lat="15.413401626098956" lon="120.65998837739048"><ele>34.0</ele><time>2026-04-19T05:16:06Z</time></trkpt><trkpt lat="15.413140659398062" lon="120.65994647440593"><ele>33.0</ele><time>2026-04-19T05:16:07Z</time></trkpt><trkpt lat="15.412876138348999" lon="120.65990639757769"><ele>32.0</ele><time>2026-04-19T05:16:08Z</time></trkpt><trkpt lat="15.412610166109758" lon="120.6598680921946"><ele>32.0</ele><time>2026-04-19T05:16:09Z</time></trkpt><trkpt lat="15.41234348239431" lon="120.65982975236821"><ele>32.0</ele><time>2026-04-19T05:16:10Z</time></trkpt><trkpt lat="15.412073257481559" lon="120.65979270968126"><ele>31.5</ele><time>2026-04-19T05:16:11Z</time></trkpt><trkpt lat="15.411803490493464" lon="120.65975507263771"><ele>31.0</ele><time>2026-04-19T05:16:12Z</time></trkpt><trkpt lat="15.41153238846546" lon="120.65971910319006"><ele>30.5</ele><time>2026-04-19T05:16:13Z</time></trkpt><trkpt lat="15.411260394982419" lon="120.6596844802648"><ele>30.0</ele><time>2026-04-19T05:16:14Z</time></trkpt><trkpt lat="15.410987777875476" lon="120.65965109642757"><ele>30.0</ele><time>2026-04-19T05:16:15Z</time></trkpt><trkpt lat="15.410714463225466" lon="120.65961842002962"><ele>30.0</ele><time>2026-04-19T05:16:16Z</time></trkpt><trkpt lat="15.41043855909106" lon="120.65958483717218"><ele>31.0</ele><time>2026-04-19T05:16:17Z</time></trkpt><trkpt lat="15.41016392402027" lon="120.65955189907707"><ele>32.0</ele><time>2026-04-19T05:16:18Z</time></trkpt><trkpt lat="15.409888615789928" lon="120.65952225169615"><ele>31.5</ele><time>2026-04-19T05:16:19Z</time></trkpt><trkpt lat="15.409613159711888" lon="120.65949286162642"><ele>31.0</ele><time>2026-04-19T05:16:20Z</time></trkpt><trkpt lat="15.409336016315034" lon="120.65946566757123"><ele>31.0</ele><time>2026-04-19T05:16:21.001Z</time></trkpt><trkpt lat="15.40905822622561" lon="120.65944113415212"><ele>31.0</ele><time>2026-04-19T05:16:22.001Z</time></trkpt><trkpt lat="15.408778213377998" lon="120.65941663253065"><ele>31.0</ele><time>2026-04-19T05:16:23.001Z</time></trkpt><trkpt lat="15.408500177489293" lon="120.65939434999609"><ele>31.0</ele><time>2026-04-19T05:16:24.001Z</time></trkpt><trkpt lat="15.4082243225971" lon="120.65937177516896"><ele>30.0</ele><time>2026-04-19T05:16:25.001Z</time></trkpt><trkpt lat="15.407950927849416" lon="120.65934905660792"><ele>29.0</ele><time>2026-04-19T05:16:26.001Z</time></trkpt><trkpt lat="15.407678002042053" lon="120.65932934578179"><ele>29.0</ele><time>2026-04-19T05:16:27.001Z</time></trkpt><trkpt lat="15.407408723155315" lon="120.65930964902688"><ele>29.0</ele><time>2026-04-19T05:16:28.001Z</time></trkpt><trkpt lat="15.407141800206952" lon="120.65929288327688"><ele>30.5</ele><time>2026-04-19T05:16:29.001Z</time></trkpt><trkpt lat="15.406877984611368" lon="120.65927857455537"><ele>32.0</ele><time>2026-04-19T05:16:30.001Z</time></trkpt><trkpt lat="15.406613125089454" lon="120.6592644014206"><ele>32.0</ele><time>2026-04-19T05:16:31.001Z</time></trkpt><trkpt lat="15.406350507937653" lon="120.65925178943719"><ele>32.0</ele><time>2026-04-19T05:16:32.001Z</time></trkpt><trkpt lat="15.406093227626094" lon="120.65923598776291"><ele>31.0</ele><time>2026-04-19T05:16:33.001Z</time></trkpt><trkpt lat="15.405837247276214" lon="120.65922329683642"><ele>30.0</ele><time>2026-04-19T05:16:34.001Z</time></trkpt><trkpt lat="15.405580778162513" lon="120.65921330358564"><ele>30.0</ele><time>2026-04-19T05:16:35.001Z</time></trkpt><trkpt lat="15.405327899920406" lon="120.65920178390724"><ele>30.0</ele><time>2026-04-19T05:16:36.001Z</time></trkpt><trkpt lat="15.405076123646682" lon="120.6591927913662"><ele>30.0</ele><time>2026-04-19T05:16:37.001Z</time></trkpt><trkpt lat="15.40482360150673" lon="120.65918571153729"><ele>30.0</ele><time>2026-04-19T05:16:38.001Z</time></trkpt><trkpt lat="15.404572634057327" lon="120.65917885017764"><ele>29.5</ele><time>2026-04-19T05:16:39.001Z</time></trkpt><trkpt lat="15.404319668395548" lon="120.65917430138246"><ele>29.0</ele><time>2026-04-19T05:16:40.001Z</time></trkpt><trkpt lat="15.404069312343498" lon="120.65916711683428"><ele>29.5</ele><time>2026-04-19T05:16:41.001Z</time></trkpt><trkpt lat="15.403817035278614" lon="120.65915963112104"><ele>30.0</ele><time>2026-04-19T05:16:42.001Z</time></trkpt><trkpt lat="15.403564414087306" lon="120.65915763468809"><ele>30.0</ele><time>2026-04-19T05:16:43.001Z</time></trkpt><trkpt lat="15.403312148591292" lon="120.65915807768842"><ele>30.0</ele><time>2026-04-19T05:16:44.001Z</time></trkpt><trkpt lat="15.403057386381589" lon="120.65915590510745"><ele>31.0</ele><time>2026-04-19T05:16:45.001Z</time></trkpt><trkpt lat="15.402804063811287" lon="120.65915334861111"><ele>32.0</ele><time>2026-04-19T05:16:46.001Z</time></trkpt><trkpt lat="15.402551049243034" lon="120.65915378535155"><ele>32.0</ele><time>2026-04-19T05:16:47.001Z</time></trkpt><trkpt lat="15.402297852095924" lon="120.65915581831148"><ele>32.0</ele><time>2026-04-19T05:16:48.001Z</time></trkpt><trkpt lat="15.402045059292275" lon="120.6591582370675"><ele>32.0</ele><time>2026-04-19T05:16:49.001Z</time></trkpt><trkpt lat="15.401789286819483" lon="120.65916068556237"><ele>32.0</ele><time>2026-04-19T05:16:50.001Z</time></trkpt><trkpt lat="15.401535275081738" lon="120.65916538958831"><ele>33.0</ele><time>2026-04-19T05:16:51.001Z</time></trkpt><trkpt lat="15.401283605214138" lon="120.65916724097863"><ele>34.0</ele><time>2026-04-19T05:16:52.001Z</time></trkpt><trkpt lat="15.401029845247171" lon="120.65917046333531"><ele>34.0</ele><time>2026-04-19T05:16:53.001Z</time></trkpt><trkpt lat="15.400776551191766" lon="120.65917578113158"><ele>34.0</ele><time>2026-04-19T05:16:54.001Z</time></trkpt><trkpt lat="15.400522828591699" lon="120.65918274568931"><ele>33.0</ele><time>2026-04-19T05:16:55.001Z</time></trkpt><trkpt lat="15.4002698968979" lon="120.65919021618157"><ele>32.0</ele><time>2026-04-19T05:16:56.001Z</time></trkpt><trkpt lat="15.400018421405512" lon="120.65919888122245"><ele>32.0</ele><time>2026-04-19T05:16:57.001Z</time></trkpt><trkpt lat="15.399767558961036" lon="120.65920939401661"><ele>32.0</ele><time>2026-04-19T05:16:58.001Z</time></trkpt><trkpt lat="15.39951411466374" lon="120.65922098469272"><ele>32.5</ele><time>2026-04-19T05:16:59.001Z</time></trkpt><trkpt lat="15.399261797990887" lon="120.65923273263381"><ele>33.0</ele><time>2026-04-19T05:17:00.001Z</time></trkpt><trkpt lat="15.39900869500317" lon="120.65924630212382"><ele>33.5</ele><time>2026-04-19T05:17:01.001Z</time></trkpt><trkpt lat="15.39875632976253" lon="120.65925981617964"><ele>34.0</ele><time>2026-04-19T05:17:02.001Z</time></trkpt><trkpt lat="15.398503950814574" lon="120.65927125770469"><ele>34.0</ele><time>2026-04-19T05:17:03.001Z</time></trkpt><trkpt lat="15.398251801422532" lon="120.65928259413987"><ele>34.0</ele><time>2026-04-19T05:17:04.001Z</time></trkpt><trkpt lat="15.397997209369565" lon="120.6592960236608"><ele>34.5</ele><time>2026-04-19T05:17:05.001Z</time></trkpt><trkpt lat="15.397743094658228" lon="120.65930720229484"><ele>35.0</ele><time>2026-04-19T05:17:06.001Z</time></trkpt><trkpt lat="15.397489612853265" lon="120.65931852854489"><ele>35.0</ele><time>2026-04-19T05:17:07.001Z</time></trkpt><trkpt lat="15.397237269533406" lon="120.65932974351558"><ele>35.0</ele><time>2026-04-19T05:17:08.001Z</time></trkpt><trkpt lat="15.396985013857812" lon="120.65934188746999"><ele>35.5</ele><time>2026-04-19T05:17:09.001Z</time></trkpt><trkpt lat="15.396732057275006" lon="120.65935524920388"><ele>36.0</ele><time>2026-04-19T05:17:10.001Z</time></trkpt><trkpt lat="15.396478611221644" lon="120.65936692460976"><ele>35.5</ele><time>2026-04-19T05:17:11.001Z</time></trkpt><trkpt lat="15.396225192374358" lon="120.65937976619355"><ele>35.0</ele><time>2026-04-19T05:17:12.001Z</time></trkpt><trkpt lat="15.395970080283837" lon="120.65938980362127"><ele>35.0</ele><time>2026-04-19T05:17:13.001Z</time></trkpt><trkpt lat="15.395713025680715" lon="120.65940438625728"><ele>35.0</ele><time>2026-04-19T05:17:14.001Z</time></trkpt><trkpt lat="15.395456262822595" lon="120.65941966653443"><ele>34.0</ele><time>2026-04-19T05:17:15.001Z</time></trkpt><trkpt lat="15.39519834960105" lon="120.6594348793218"><ele>33.0</ele><time>2026-04-19T05:17:16.001Z</time></trkpt><trkpt lat="15.394938196998684" lon="120.65944627453369"><ele>32.5</ele><time>2026-04-19T05:17:17.001Z</time></trkpt><trkpt lat="15.394676863377688" lon="120.65945574809642"><ele>32.0</ele><time>2026-04-19T05:17:18.001Z</time></trkpt><trkpt lat="15.394414113576646" lon="120.65946512893885"><ele>33.0</ele><time>2026-04-19T05:17:19.001Z</time></trkpt><trkpt lat="15.394149082042603" lon="120.65947606401313"><ele>34.0</ele><time>2026-04-19T05:17:20.001Z</time></trkpt><trkpt lat="15.393884056725863" lon="120.65948730289438"><ele>34.0</ele><time>2026-04-19T05:17:21.001Z</time></trkpt><trkpt lat="15.393617249739458" lon="120.65949897189093"><ele>34.0</ele><time>2026-04-19T05:17:22.001Z</time></trkpt><trkpt lat="15.393348480453497" lon="120.65951054681928"><ele>34.0</ele><time>2026-04-19T05:17:23.001Z</time></trkpt><trkpt lat="15.393079024869271" lon="120.65952142210041"><ele>34.0</ele><time>2026-04-19T05:17:24.001Z</time></trkpt><trkpt lat="15.392806940975735" lon="120.65953485343115"><ele>33.5</ele><time>2026-04-19T05:17:25.001Z</time></trkpt><trkpt lat="15.392532714734864" lon="120.65954709159799"><ele>33.0</ele><time>2026-04-19T05:17:26.001Z</time></trkpt><trkpt lat="15.392254737042544" lon="120.65956032651499"><ele>33.0</ele><time>2026-04-19T05:17:27.001Z</time></trkpt><trkpt lat="15.391975936217202" lon="120.65957493247684"><ele>33.0</ele><time>2026-04-19T05:17:28.001Z</time></trkpt><trkpt lat="15.391694040945444" lon="120.65958928253094"><ele>33.0</ele><time>2026-04-19T05:17:29.001Z</time></trkpt><trkpt lat="15.391410893164625" lon="120.65960079663658"><ele>33.0</ele><time>2026-04-19T05:17:30.001Z</time></trkpt><trkpt lat="15.39112570415327" lon="120.6596134280342"><ele>33.5</ele><time>2026-04-19T05:17:31.001Z</time></trkpt><trkpt lat="15.390837280884234" lon="120.6596271573622"><ele>34.0</ele><time>2026-04-19T05:17:32.001Z</time></trkpt><trkpt lat="15.390548663669394" lon="120.65964134798047"><ele>34.0</ele><time>2026-04-19T05:17:33.001Z</time></trkpt><trkpt lat="15.390260981970108" lon="120.659653858717"><ele>34.0</ele><time>2026-04-19T05:17:34.001Z</time></trkpt><trkpt lat="15.389971319878269" lon="120.6596670131127"><ele>34.0</ele><time>2026-04-19T05:17:35.001Z</time></trkpt><trkpt lat="15.389683808053073" lon="120.6596804786987"><ele>34.0</ele><time>2026-04-19T05:17:36.001Z</time></trkpt><trkpt lat="15.389394140244105" lon="120.6596937487683"><ele>32.5</ele><time>2026-04-19T05:17:37.001Z</time></trkpt><trkpt lat="15.389107007414406" lon="120.65970597778987"><ele>31.0</ele><time>2026-04-19T05:17:38.001Z</time></trkpt><trkpt lat="15.388821854811535" lon="120.65971676361815"><ele>31.0</ele><time>2026-04-19T05:17:39.001Z</time></trkpt><trkpt lat="15.38853661668371" lon="120.65972963893769"><ele>31.0</ele><time>2026-04-19T05:17:40.001Z</time></trkpt><trkpt lat="15.388250418486496" lon="120.65974174567931"><ele>32.0</ele><time>2026-04-19T05:17:41.001Z</time></trkpt><trkpt lat="15.387965534841287" lon="120.65975438843961"><ele>33.0</ele><time>2026-04-19T05:17:42.001Z</time></trkpt><trkpt lat="15.387680072306543" lon="120.65976640683914"><ele>33.0</ele><time>2026-04-19T05:17:43Z</time></trkpt><trkpt lat="15.3873922353922" lon="120.65977488438621"><ele>33.0</ele><time>2026-04-19T05:17:44Z</time></trkpt><trkpt lat="15.387105857430655" lon="120.65978492429907"><ele>33.5</ele><time>2026-04-19T05:17:45Z</time></trkpt><trkpt lat="15.386818575023668" lon="120.65979412172668"><ele>34.0</ele><time>2026-04-19T05:17:46Z</time></trkpt><trkpt lat="15.386532966209453" lon="120.65980175875949"><ele>33.5</ele><time>2026-04-19T05:17:47Z</time></trkpt><trkpt lat="15.386248712001015" lon="120.65980981774037"><ele>33.0</ele><time>2026-04-19T05:17:48Z</time></trkpt><trkpt lat="15.385965526466885" lon="120.65981767487753"><ele>33.0</ele><time>2026-04-19T05:17:49Z</time></trkpt><trkpt lat="15.385683333280975" lon="120.6598252536818"><ele>33.0</ele><time>2026-04-19T05:17:50Z</time></trkpt><trkpt lat="15.385403787129073" lon="120.65983152822179"><ele>34.5</ele><time>2026-04-19T05:17:51Z</time></trkpt><trkpt lat="15.385122539971164" lon="120.65983832964834"><ele>36.0</ele><time>2026-04-19T05:17:52Z</time></trkpt><trkpt lat="15.384844675027415" lon="120.65984084340589"><ele>36.5</ele><time>2026-04-19T05:17:53Z</time></trkpt><trkpt lat="15.38457045822913" lon="120.65984277212546"><ele>37.0</ele><time>2026-04-19T05:17:54Z</time></trkpt><trkpt lat="15.38429976589873" lon="120.6598419235171"><ele>37.0</ele><time>2026-04-19T05:17:55Z</time></trkpt><trkpt lat="15.384033255187731" lon="120.65983863865578"><ele>37.0</ele><time>2026-04-19T05:17:56Z</time></trkpt><trkpt lat="15.383769130032006" lon="120.65983480513059"><ele>36.5</ele><time>2026-04-19T05:17:57Z</time></trkpt><trkpt lat="15.383506194701592" lon="120.6598309824361"><ele>36.0</ele><time>2026-04-19T05:17:58Z</time></trkpt><trkpt lat="15.383244748871839" lon="120.65982544048491"><ele>36.0</ele><time>2026-04-19T05:17:59Z</time></trkpt><trkpt lat="15.382984681212992" lon="120.6598200509486"><ele>36.0</ele><time>2026-04-19T05:18:00Z</time></trkpt><trkpt lat="15.382726000533026" lon="120.65981310639121"><ele>36.0</ele><time>2026-04-19T05:18:01Z</time></trkpt><trkpt lat="15.382466564018072" lon="120.65980476367598"><ele>36.0</ele><time>2026-04-19T05:18:02Z</time></trkpt><trkpt lat="15.382206117357642" lon="120.65979323249005"><ele>35.5</ele><time>2026-04-19T05:18:03Z</time></trkpt><trkpt lat="15.381943456871012" lon="120.65978260282648"><ele>35.0</ele><time>2026-04-19T05:18:04Z</time></trkpt><trkpt lat="15.381681090636175" lon="120.65976916610147"><ele>35.0</ele><time>2026-04-19T05:18:05Z</time></trkpt><trkpt lat="15.381416480554615" lon="120.65975334635624"><ele>35.0</ele><time>2026-04-19T05:18:06Z</time></trkpt><trkpt lat="15.381151145392101" lon="120.65973467580237"><ele>34.0</ele><time>2026-04-19T05:18:07Z</time></trkpt><trkpt lat="15.380888493226614" lon="120.65970991330383"><ele>33.0</ele><time>2026-04-19T05:18:08Z</time></trkpt><trkpt lat="15.380623441003834" lon="120.65968622380134"><ele>33.0</ele><time>2026-04-19T05:18:09Z</time></trkpt><trkpt lat="15.380356854571872" lon="120.65966268021162"><ele>33.0</ele><time>2026-04-19T05:18:10Z</time></trkpt><trkpt lat="15.380091163005861" lon="120.65963669459008"><ele>33.0</ele><time>2026-04-19T05:18:11Z</time></trkpt><trkpt lat="15.379826858970409" lon="120.65960940900453"><ele>33.0</ele><time>2026-04-19T05:18:12.001Z</time></trkpt><trkpt lat="15.379565425338642" lon="120.65958097792914"><ele>34.0</ele><time>2026-04-19T05:18:13.001Z</time></trkpt><trkpt lat="15.379308709144778" lon="120.65955076695387"><ele>35.0</ele><time>2026-04-19T05:18:14.001Z</time></trkpt><trkpt lat="15.379054012378525" lon="120.65951879983236"><ele>35.0</ele><time>2026-04-19T05:18:15.001Z</time></trkpt><trkpt lat="15.378801727330773" lon="120.6594856012605"><ele>35.0</ele><time>2026-04-19T05:18:16.001Z</time></trkpt><trkpt lat="15.378551143702596" lon="120.65944957796331"><ele>35.5</ele><time>2026-04-19T05:18:17.001Z</time></trkpt><trkpt lat="15.378303029210295" lon="120.65941163068963"><ele>36.0</ele><time>2026-04-19T05:18:18.001Z</time></trkpt><trkpt lat="15.378053725802113" lon="120.65937279356291"><ele>35.5</ele><time>2026-04-19T05:18:19.001Z</time></trkpt><trkpt lat="15.37780398632561" lon="120.65933185903424"><ele>35.0</ele><time>2026-04-19T05:18:20.001Z</time></trkpt><trkpt lat="15.377553654006817" lon="120.65928649552245"><ele>35.0</ele><time>2026-04-19T05:18:21.001Z</time></trkpt><trkpt lat="15.377301774716793" lon="120.65924002945538"><ele>35.0</ele><time>2026-04-19T05:18:22.001Z</time></trkpt><trkpt lat="15.377049293595809" lon="120.65919241875451"><ele>34.0</ele><time>2026-04-19T05:18:23.001Z</time></trkpt><trkpt lat="15.376796092522387" lon="120.65914394835416"><ele>33.0</ele><time>2026-04-19T05:18:24.001Z</time></trkpt><trkpt lat="15.37654286100847" lon="120.65909399095331"><ele>33.5</ele><time>2026-04-19T05:18:25.001Z</time></trkpt><trkpt lat="15.376292097627063" lon="120.65904234491988"><ele>34.0</ele><time>2026-04-19T05:18:26.001Z</time></trkpt><trkpt lat="15.376042979411938" lon="120.65898769134283"><ele>34.0</ele><time>2026-04-19T05:18:27.001Z</time></trkpt><trkpt lat="15.375792607425188" lon="120.65893176598739"><ele>34.0</ele><time>2026-04-19T05:18:28.001Z</time></trkpt><trkpt lat="15.375542313207495" lon="120.65887416653102"><ele>33.5</ele><time>2026-04-19T05:18:29.001Z</time></trkpt><trkpt lat="15.375292086836506" lon="120.6588134569266"><ele>33.0</ele><time>2026-04-19T05:18:30.001Z</time></trkpt><trkpt lat="15.375042420133799" lon="120.65875272420497"><ele>33.0</ele><time>2026-04-19T05:18:31.001Z</time></trkpt><trkpt lat="15.374792260481508" lon="120.6586899607197"><ele>33.0</ele><time>2026-04-19T05:18:32.001Z</time></trkpt><trkpt lat="15.374541887909569" lon="120.65862349659758"><ele>33.0</ele><time>2026-04-19T05:18:33.001Z</time></trkpt><trkpt lat="15.374289907460968" lon="120.65855793928402"><ele>33.0</ele><time>2026-04-19T05:18:34.001Z</time></trkpt><trkpt lat="15.374039426050485" lon="120.6584876853086"><ele>33.5</ele><time>2026-04-19T05:18:35.001Z</time></trkpt><trkpt lat="15.373789856259847" lon="120.65841484232882"><ele>34.0</ele><time>2026-04-19T05:18:36.001Z</time></trkpt><trkpt lat="15.373543863717062" lon="120.65834232371655"><ele>34.0</ele><time>2026-04-19T05:18:37.001Z</time></trkpt><trkpt lat="15.37330073116131" lon="120.65826948988926"><ele>34.0</ele><time>2026-04-19T05:18:38.001Z</time></trkpt><trkpt lat="15.37305393601705" lon="120.65819329856211"><ele>34.5</ele><time>2026-04-19T05:18:39.001Z</time></trkpt><trkpt lat="15.372809231621533" lon="120.65811697149934"><ele>35.0</ele><time>2026-04-19T05:18:40.001Z</time></trkpt><trkpt lat="15.372563914334348" lon="120.65803863112389"><ele>35.0</ele><time>2026-04-19T05:18:41.001Z</time></trkpt><trkpt lat="15.372319861819996" lon="120.6579559224221"><ele>35.0</ele><time>2026-04-19T05:18:42.001Z</time></trkpt><trkpt lat="15.372074247686992" lon="120.65787244884235"><ele>35.0</ele><time>2026-04-19T05:18:43.001Z</time></trkpt><trkpt lat="15.371830579045248" lon="120.65778788415403"><ele>35.0</ele><time>2026-04-19T05:18:44.001Z</time></trkpt><trkpt lat="15.371585951899123" lon="120.6576982771135"><ele>34.0</ele><time>2026-04-19T05:18:45.001Z</time></trkpt><trkpt lat="15.371341897432105" lon="120.65760880032316"><ele>33.0</ele><time>2026-04-19T05:18:46.001Z</time></trkpt><trkpt lat="15.371097936775845" lon="120.65751703524089"><ele>33.0</ele><time>2026-04-19T05:18:47.001Z</time></trkpt><trkpt lat="15.370852930573022" lon="120.65742320481712"><ele>33.0</ele><time>2026-04-19T05:18:48.001Z</time></trkpt><trkpt lat="15.370607546889637" lon="120.65732801827328"><ele>33.5</ele><time>2026-04-19T05:18:49.001Z</time></trkpt><trkpt lat="15.370363124827401" lon="120.65722970039171"><ele>34.0</ele><time>2026-04-19T05:18:50.001Z</time></trkpt><trkpt lat="15.370115895216632" lon="120.65712873501023"><ele>34.0</ele><time>2026-04-19T05:18:51.001Z</time></trkpt><trkpt lat="15.369870194313952" lon="120.65702610275925"><ele>34.0</ele><time>2026-04-19T05:18:52.001Z</time></trkpt><trkpt lat="15.369626915962076" lon="120.65692208642116"><ele>34.5</ele><time>2026-04-19T05:18:53.001Z</time></trkpt><trkpt lat="15.3693843818093" lon="120.65681680437697"><ele>35.0</ele><time>2026-04-19T05:18:54.001Z</time></trkpt><trkpt lat="15.36914385916616" lon="120.656709363611"><ele>35.0</ele><time>2026-04-19T05:18:55.001Z</time></trkpt><trkpt lat="15.368906070310466" lon="120.65659977177593"><ele>35.0</ele><time>2026-04-19T05:18:56.001Z</time></trkpt><trkpt lat="15.368669048864906" lon="120.65648770344323"><ele>34.5</ele><time>2026-04-19T05:18:57.001Z</time></trkpt><trkpt lat="15.368434790644745" lon="120.65637450953764"><ele>34.0</ele><time>2026-04-19T05:18:58.001Z</time></trkpt><trkpt lat="15.368201696967615" lon="120.65626191342795"><ele>34.5</ele><time>2026-04-19T05:18:59.001Z</time></trkpt><trkpt lat="15.36797136477526" lon="120.65614808113138"><ele>35.0</ele><time>2026-04-19T05:19:00.001Z</time></trkpt><trkpt lat="15.367740984226968" lon="120.6560340588366"><ele>35.5</ele><time>2026-04-19T05:19:01.001Z</time></trkpt><trkpt lat="15.367512984506305" lon="120.6559192168858"><ele>36.0</ele><time>2026-04-19T05:19:02.001Z</time></trkpt><trkpt lat="15.367287452290832" lon="120.65580326681365"><ele>36.0</ele><time>2026-04-19T05:19:03.001Z</time></trkpt><trkpt lat="15.36706326938309" lon="120.65568495080754"><ele>36.0</ele><time>2026-04-19T05:19:04.001Z</time></trkpt><trkpt lat="15.366840046033959" lon="120.65556722323706"><ele>36.0</ele><time>2026-04-19T05:19:05.001Z</time></trkpt><trkpt lat="15.366619848206149" lon="120.65544879511705"><ele>36.0</ele><time>2026-04-19T05:19:06.001Z</time></trkpt><trkpt lat="15.366400853333522" lon="120.65532889639474"><ele>34.5</ele><time>2026-04-19T05:19:07.001Z</time></trkpt><trkpt lat="15.366178598411032" lon="120.65520726551401"><ele>33.0</ele><time>2026-04-19T05:19:08.001Z</time></trkpt><trkpt lat="15.365957701223813" lon="120.65508137808936"><ele>33.0</ele><time>2026-04-19T05:19:09.001Z</time></trkpt><trkpt lat="15.365735230768049" lon="120.65495447077375"><ele>33.0</ele><time>2026-04-19T05:19:10.001Z</time></trkpt><trkpt lat="15.36551096730655" lon="120.65482636869868"><ele>33.5</ele><time>2026-04-19T05:19:11.001Z</time></trkpt><trkpt lat="15.365286533377475" lon="120.6546974275452"><ele>34.0</ele><time>2026-04-19T05:19:12.001Z</time></trkpt><trkpt lat="15.365060403150723" lon="120.65456742716691"><ele>34.0</ele><time>2026-04-19T05:19:13.001Z</time></trkpt><trkpt lat="15.364835092765277" lon="120.65443748726712"><ele>34.0</ele><time>2026-04-19T05:19:14.001Z</time></trkpt><trkpt lat="15.364610053900543" lon="120.65430464446686"><ele>33.0</ele><time>2026-04-19T05:19:15.001Z</time></trkpt><trkpt lat="15.364386607304551" lon="120.65417147815707"><ele>32.0</ele><time>2026-04-19T05:19:16.001Z</time></trkpt><trkpt lat="15.364164049027732" lon="120.65403587416569"><ele>32.0</ele><time>2026-04-19T05:19:17.001Z</time></trkpt><trkpt lat="15.363942975376075" lon="120.65389863237623"><ele>32.0</ele><time>2026-04-19T05:19:18.001Z</time></trkpt><trkpt lat="15.363721916743831" lon="120.65376253490967"><ele>32.0</ele><time>2026-04-19T05:19:19.001Z</time></trkpt><trkpt lat="15.363501065026027" lon="120.65362555037882"><ele>32.0</ele><time>2026-04-19T05:19:20.001Z</time></trkpt><trkpt lat="15.363280569357045" lon="120.65348811536684"><ele>32.0</ele><time>2026-04-19T05:19:21.001Z</time></trkpt><trkpt lat="15.363062481671061" lon="120.65335035610502"><ele>32.0</ele><time>2026-04-19T05:19:22.001Z</time></trkpt><trkpt lat="15.36284532801493" lon="120.6532126715384"><ele>32.0</ele><time>2026-04-19T05:19:23.001Z</time></trkpt><trkpt lat="15.362628067338626" lon="120.65307610129466"><ele>32.0</ele><time>2026-04-19T05:19:24.001Z</time></trkpt><trkpt lat="15.36241042460478" lon="120.65293914967734"><ele>32.0</ele><time>2026-04-19T05:19:25.001Z</time></trkpt><trkpt lat="15.36219321072429" lon="120.65280178566475"><ele>32.0</ele><time>2026-04-19T05:19:26.001Z</time></trkpt><trkpt lat="15.36197616115348" lon="120.65266455796466"><ele>31.5</ele><time>2026-04-19T05:19:27.001Z</time></trkpt><trkpt lat="15.361763224709955" lon="120.65252652500546"><ele>31.0</ele><time>2026-04-19T05:19:28.001Z</time></trkpt><trkpt lat="15.361548643354185" lon="120.6523891628565"><ele>31.0</ele><time>2026-04-19T05:19:29.001Z</time></trkpt><trkpt lat="15.361333746139008" lon="120.65225183844782"><ele>31.0</ele><time>2026-04-19T05:19:30.001Z</time></trkpt><trkpt lat="15.3611206603838" lon="120.65211564900036"><ele>31.0</ele><time>2026-04-19T05:19:31.001Z</time></trkpt><trkpt lat="15.36091080449084" lon="120.65198227539584"><ele>31.0</ele><time>2026-04-19T05:19:32.001Z</time></trkpt><trkpt lat="15.360703427390629" lon="120.65184907657385"><ele>32.5</ele><time>2026-04-19T05:19:33.001Z</time></trkpt><trkpt lat="15.36049995639334" lon="120.65171715922932"><ele>34.0</ele><time>2026-04-19T05:19:34.001Z</time></trkpt><trkpt lat="15.36029448002833" lon="120.65158411678051"><ele>34.0</ele><time>2026-04-19T05:19:35.001Z</time></trkpt><trkpt lat="15.360090761999837" lon="120.6514510205712"><ele>34.0</ele><time>2026-04-19T05:19:36.001Z</time></trkpt><trkpt lat="15.359884134223737" lon="120.65131924754802"><ele>34.0</ele><time>2026-04-19T05:19:37.001Z</time></trkpt><trkpt lat="15.359679742020031" lon="120.6511859734334"><ele>34.0</ele><time>2026-04-19T05:19:38.001Z</time></trkpt><trkpt lat="15.359472635366535" lon="120.65105267240021"><ele>33.5</ele><time>2026-04-19T05:19:39.001Z</time></trkpt><trkpt lat="15.359268042921782" lon="120.65091849362429"><ele>33.0</ele><time>2026-04-19T05:19:40.001Z</time></trkpt><trkpt lat="15.359063204515" lon="120.65078547115951"><ele>33.5</ele><time>2026-04-19T05:19:41.001Z</time></trkpt><trkpt lat="15.358858445667222" lon="120.65065253460334"><ele>34.0</ele><time>2026-04-19T05:19:42.001Z</time></trkpt><trkpt lat="15.358652511549552" lon="120.6505211009644"><ele>34.0</ele><time>2026-04-19T05:19:43.001Z</time></trkpt><trkpt lat="15.358446920106784" lon="120.65038759320393"><ele>34.0</ele><time>2026-04-19T05:19:44.001Z</time></trkpt><trkpt lat="15.358239518965231" lon="120.65025383684012"><ele>33.5</ele><time>2026-04-19T05:19:45.001Z</time></trkpt><trkpt lat="15.358030765879189" lon="120.6501190846758"><ele>33.0</ele><time>2026-04-19T05:19:46.001Z</time></trkpt><trkpt lat="15.357821894034423" lon="120.64998456550951"><ele>33.0</ele><time>2026-04-19T05:19:47.001Z</time></trkpt><trkpt lat="15.357615022021205" lon="120.64984885240185"><ele>33.0</ele><time>2026-04-19T05:19:48.001Z</time></trkpt><trkpt lat="15.357406852099876" lon="120.64971778754891"><ele>33.0</ele><time>2026-04-19T05:19:49.001Z</time></trkpt><trkpt lat="15.357201824834291" lon="120.64958639603701"><ele>33.0</ele><time>2026-04-19T05:19:50.001Z</time></trkpt><trkpt lat="15.356999718444463" lon="120.64945440371537"><ele>33.0</ele><time>2026-04-19T05:19:51Z</time></trkpt><trkpt lat="15.35679861417766" lon="120.64932496148514"><ele>33.0</ele><time>2026-04-19T05:19:52Z</time></trkpt><trkpt lat="15.356597787604315" lon="120.64919716357552"><ele>33.0</ele><time>2026-04-19T05:19:53Z</time></trkpt><trkpt lat="15.356397047346436" lon="120.64906713373217"><ele>33.0</ele><time>2026-04-19T05:19:54Z</time></trkpt><trkpt lat="15.356195891205932" lon="120.64893569727248"><ele>32.5</ele><time>2026-04-19T05:19:55Z</time></trkpt><trkpt lat="15.35599246413372" lon="120.64880535749522"><ele>32.0</ele><time>2026-04-19T05:19:56Z</time></trkpt><trkpt lat="15.355796462016439" lon="120.64867769588072"><ele>34.0</ele><time>2026-04-19T05:19:57Z</time></trkpt><trkpt lat="15.355594746402504" lon="120.6485447333669"><ele>36.0</ele><time>2026-04-19T05:19:58Z</time></trkpt><trkpt lat="15.35539016341965" lon="120.64841225284528"><ele>36.5</ele><time>2026-04-19T05:19:59Z</time></trkpt><trkpt lat="15.355183470787715" lon="120.64827674081984"><ele>37.0</ele><time>2026-04-19T05:20:00Z</time></trkpt><trkpt lat="15.35497437225568" lon="120.64814285407672"><ele>37.0</ele><time>2026-04-19T05:20:01Z</time></trkpt><trkpt lat="15.354762034551738" lon="120.64800902222481"><ele>37.0</ele><time>2026-04-19T05:20:02Z</time></trkpt><trkpt lat="15.354553364976823" lon="120.64787478229064"><ele>36.0</ele><time>2026-04-19T05:20:03Z</time></trkpt><trkpt lat="15.354347910160845" lon="120.64774164451418"><ele>35.0</ele><time>2026-04-19T05:20:04Z</time></trkpt><trkpt lat="15.354143632310562" lon="120.64760896785684"><ele>35.0</ele><time>2026-04-19T05:20:05Z</time></trkpt><trkpt lat="15.353938595585364" lon="120.64747536479122"><ele>35.0</ele><time>2026-04-19T05:20:06Z</time></trkpt><trkpt lat="15.353736154692635" lon="120.64734218705796"><ele>35.5</ele><time>2026-04-19T05:20:07Z</time></trkpt><trkpt lat="15.353530934100384" lon="120.64720902715844"><ele>36.0</ele><time>2026-04-19T05:20:08Z</time></trkpt><trkpt lat="15.353323735253777" lon="120.64707618264688"><ele>36.5</ele><time>2026-04-19T05:20:09Z</time></trkpt><trkpt lat="15.353117298423726" lon="120.64694341137778"><ele>37.0</ele><time>2026-04-19T05:20:10Z</time></trkpt><trkpt lat="15.352912062363258" lon="120.64681084065404"><ele>37.0</ele><time>2026-04-19T05:20:11Z</time></trkpt><trkpt lat="15.352706030122025" lon="120.6466797200814"><ele>37.0</ele><time>2026-04-19T05:20:12Z</time></trkpt><trkpt lat="15.352498742568345" lon="120.64654811972564"><ele>37.0</ele><time>2026-04-19T05:20:13Z</time></trkpt><trkpt lat="15.352288696609973" lon="120.64641609094053"><ele>37.0</ele><time>2026-04-19T05:20:14Z</time></trkpt><trkpt lat="15.352079939569485" lon="120.64628164623946"><ele>37.0</ele><time>2026-04-19T05:20:15Z</time></trkpt><trkpt lat="15.351869261133006" lon="120.64614408636271"><ele>37.0</ele><time>2026-04-19T05:20:16Z</time></trkpt><trkpt lat="15.35165965177937" lon="120.64600394993641"><ele>37.0</ele><time>2026-04-19T05:20:17Z</time></trkpt><trkpt lat="15.351450744782575" lon="120.64586304038923"><ele>37.0</ele><time>2026-04-19T05:20:18Z</time></trkpt><trkpt lat="15.351243812835063" lon="120.64572323827605"><ele>37.0</ele><time>2026-04-19T05:20:19Z</time></trkpt><trkpt lat="15.351033340158514" lon="120.6455860039772"><ele>37.0</ele><time>2026-04-19T05:20:20Z</time></trkpt><trkpt lat="15.350825529283586" lon="120.64545109245779"><ele>37.0</ele><time>2026-04-19T05:20:21Z</time></trkpt><trkpt lat="15.350621535002235" lon="120.64531753166969"><ele>37.0</ele><time>2026-04-19T05:20:22Z</time></trkpt><trkpt lat="15.35042024098753" lon="120.64518551141151"><ele>37.5</ele><time>2026-04-19T05:20:23Z</time></trkpt><trkpt lat="15.350221822415385" lon="120.64505612167099"><ele>38.0</ele><time>2026-04-19T05:20:24.001Z</time></trkpt><trkpt lat="15.350027214715933" lon="120.64492961589421"><ele>38.0</ele><time>2026-04-19T05:20:25.001Z</time></trkpt><trkpt lat="15.349834102770203" lon="120.6448039671769"><ele>38.0</ele><time>2026-04-19T05:20:26.001Z</time></trkpt><trkpt lat="15.34964136392431" lon="120.64467824266534"><ele>37.5</ele><time>2026-04-19T05:20:27.001Z</time></trkpt><trkpt lat="15.349448258054357" lon="120.64455426108002"><ele>37.0</ele><time>2026-04-19T05:20:28.001Z</time></trkpt><trkpt lat="15.34925426648566" lon="120.6444291933229"><ele>36.0</ele><time>2026-04-19T05:20:29.001Z</time></trkpt><trkpt lat="15.349060212738054" lon="120.64430409568517"><ele>35.0</ele><time>2026-04-19T05:20:30.001Z</time></trkpt><trkpt lat="15.348865288007387" lon="120.64417924032644"><ele>35.0</ele><time>2026-04-19T05:20:31.001Z</time></trkpt><trkpt lat="15.34867166015886" lon="120.64405378999429"><ele>35.0</ele><time>2026-04-19T05:20:32.001Z</time></trkpt><trkpt lat="15.348477827325757" lon="120.64392819500829"><ele>35.0</ele><time>2026-04-19T05:20:33.001Z</time></trkpt><trkpt lat="15.348283332655278" lon="120.64380167905682"><ele>35.0</ele><time>2026-04-19T05:20:34.001Z</time></trkpt><trkpt lat="15.34808784504716" lon="120.64367538747281"><ele>36.0</ele><time>2026-04-19T05:20:35.001Z</time></trkpt><trkpt lat="15.34789031061544" lon="120.64354909091298"><ele>37.0</ele><time>2026-04-19T05:20:36.001Z</time></trkpt><trkpt lat="15.347692181816868" lon="120.64342125600503"><ele>37.0</ele><time>2026-04-19T05:20:37.001Z</time></trkpt><trkpt lat="15.347492652074884" lon="120.64329349164632"><ele>37.0</ele><time>2026-04-19T05:20:38.001Z</time></trkpt><trkpt lat="15.347292331645923" lon="120.64316439640751"><ele>37.5</ele><time>2026-04-19T05:20:39.001Z</time></trkpt><trkpt lat="15.347089339622888" lon="120.64303434120629"><ele>38.0</ele><time>2026-04-19T05:20:40.001Z</time></trkpt><trkpt lat="15.346885677512656" lon="120.64290284729458"><ele>36.0</ele><time>2026-04-19T05:20:41.001Z</time></trkpt><trkpt lat="15.34668137071722" lon="120.642769983203"><ele>34.0</ele><time>2026-04-19T05:20:42.001Z</time></trkpt><trkpt lat="15.346475797179533" lon="120.64263835035771"><ele>35.5</ele><time>2026-04-19T05:20:43.001Z</time></trkpt><trkpt lat="15.346270355891892" lon="120.64250532777281"><ele>37.0</ele><time>2026-04-19T05:20:44.001Z</time></trkpt><trkpt lat="15.346064478462718" lon="120.64237200685724"><ele>37.0</ele><time>2026-04-19T05:20:45.001Z</time></trkpt><trkpt lat="15.345855736972512" lon="120.64223579686768"><ele>37.0</ele><time>2026-04-19T05:20:46.001Z</time></trkpt><trkpt lat="15.345646738643282" lon="120.64209890013365"><ele>38.5</ele><time>2026-04-19T05:20:47.001Z</time></trkpt><trkpt lat="15.345435926575776" lon="120.64196298249657"><ele>40.0</ele><time>2026-04-19T05:20:48.001Z</time></trkpt><trkpt lat="15.345223966941058" lon="120.64182737012497"><ele>40.0</ele><time>2026-04-19T05:20:49.001Z</time></trkpt><trkpt lat="15.345010512347763" lon="120.64169166027403"><ele>40.0</ele><time>2026-04-19T05:20:50.001Z</time></trkpt><trkpt lat="15.34479626801863" lon="120.64155490731552"><ele>39.5</ele><time>2026-04-19T05:20:51.001Z</time></trkpt><trkpt lat="15.344581711502217" lon="120.64141719452876"><ele>39.0</ele><time>2026-04-19T05:20:52.001Z</time></trkpt><trkpt lat="15.34436671085946" lon="120.64127882368804"><ele>39.0</ele><time>2026-04-19T05:20:53.001Z</time></trkpt><trkpt lat="15.344151886130168" lon="120.64113860992988"><ele>39.0</ele><time>2026-04-19T05:20:54.001Z</time></trkpt><trkpt lat="15.343935941120208" lon="120.64099863254063"><ele>38.5</ele><time>2026-04-19T05:20:55.001Z</time></trkpt><trkpt lat="15.34371996505903" lon="120.64085833162639"><ele>38.0</ele><time>2026-04-19T05:20:56.001Z</time></trkpt><trkpt lat="15.343506075151032" lon="120.64072228917887"><ele>38.0</ele><time>2026-04-19T05:20:57.001Z</time></trkpt><trkpt lat="15.343294577293584" lon="120.64058949942249"><ele>38.0</ele><time>2026-04-19T05:20:58.001Z</time></trkpt><trkpt lat="15.343086176879547" lon="120.64045972941517"><ele>37.5</ele><time>2026-04-19T05:20:59.001Z</time></trkpt><trkpt lat="15.342881408378423" lon="120.64033030112034"><ele>37.0</ele><time>2026-04-19T05:21:00.001Z</time></trkpt><trkpt lat="15.342678916185468" lon="120.64020207971909"><ele>38.5</ele><time>2026-04-19T05:21:01.001Z</time></trkpt><trkpt lat="15.342479796115644" lon="120.64007705961461"><ele>40.0</ele><time>2026-04-19T05:21:02.001Z</time></trkpt><trkpt lat="15.34228173781496" lon="120.63995367782408"><ele>39.0</ele><time>2026-04-19T05:21:03.001Z</time></trkpt><trkpt lat="15.342087878571517" lon="120.63983244546243"><ele>38.0</ele><time>2026-04-19T05:21:04.001Z</time></trkpt><trkpt lat="15.341897020360364" lon="120.6397117504615"><ele>38.0</ele><time>2026-04-19T05:21:05.001Z</time></trkpt><trkpt lat="15.341707398423988" lon="120.63959253458012"><ele>38.0</ele><time>2026-04-19T05:21:06.001Z</time></trkpt><trkpt lat="15.341525980157169" lon="120.63947754945802"><ele>38.0</ele><time>2026-04-19T05:21:07.001Z</time></trkpt><trkpt lat="15.341347415225417" lon="120.63936139038084"><ele>38.33333333333333</ele><time>2026-04-19T05:21:08.001Z</time></trkpt><trkpt lat="15.341166932144258" lon="120.63924436693812"><ele>38.666666666666664</ele><time>2026-04-19T05:21:09.001Z</time></trkpt><trkpt lat="15.340984565098893" lon="120.6391272882675"><ele>39.0</ele><time>2026-04-19T05:21:10.001Z</time></trkpt><trkpt lat="15.340799051724742" lon="120.63901063385802"><ele>39.0</ele><time>2026-04-19T05:21:11.001Z</time></trkpt><trkpt lat="15.340612995465442" lon="120.63889328059882"><ele>39.0</ele><time>2026-04-19T05:21:12.001Z</time></trkpt><trkpt lat="15.340426220789693" lon="120.63877224315456"><ele>39.0</ele><time>2026-04-19T05:21:13.001Z</time></trkpt><trkpt lat="15.340238571291644" lon="120.63864949359382"><ele>39.0</ele><time>2026-04-19T05:21:14.001Z</time></trkpt><trkpt lat="15.340044841815192" lon="120.63852631422017"><ele>39.0</ele><time>2026-04-19T05:21:15.001Z</time></trkpt><trkpt lat="15.33984994800325" lon="120.63840041745789"><ele>39.0</ele><time>2026-04-19T05:21:16.001Z</time></trkpt><trkpt lat="15.339650646126719" lon="120.63827422284535"><ele>39.0</ele><time>2026-04-19T05:21:17.001Z</time></trkpt><trkpt lat="15.339449946270802" lon="120.6381462491133"><ele>39.0</ele><time>2026-04-19T05:21:18.001Z</time></trkpt><trkpt lat="15.339247823801845" lon="120.63801496374306"><ele>39.0</ele><time>2026-04-19T05:21:19.001Z</time></trkpt><trkpt lat="15.339042666005726" lon="120.63788160664338"><ele>38.5</ele><time>2026-04-19T05:21:20.001Z</time></trkpt><trkpt lat="15.338835889079913" lon="120.63774601597773"><ele>38.0</ele><time>2026-04-19T05:21:21.001Z</time></trkpt><trkpt lat="15.338624120319551" lon="120.63760922090732"><ele>38.0</ele><time>2026-04-19T05:21:22.001Z</time></trkpt><trkpt lat="15.338410020047347" lon="120.63747020101341"><ele>38.0</ele><time>2026-04-19T05:21:23.001Z</time></trkpt><trkpt lat="15.338191855189363" lon="120.63732889282775"><ele>38.5</ele><time>2026-04-19T05:21:24.001Z</time></trkpt><trkpt lat="15.337972792317412" lon="120.63718740891798"><ele>39.0</ele><time>2026-04-19T05:21:25.001Z</time></trkpt><trkpt lat="15.337751869874813" lon="120.63704341058059"><ele>38.5</ele><time>2026-04-19T05:21:26.001Z</time></trkpt><trkpt lat="15.337528049404517" lon="120.63689993732591"><ele>38.0</ele><time>2026-04-19T05:21:27.001Z</time></trkpt><trkpt lat="15.33730623607476" lon="120.6367576635954"><ele>38.5</ele><time>2026-04-19T05:21:28.001Z</time></trkpt><trkpt lat="15.337082477417388" lon="120.63661552929491"><ele>39.0</ele><time>2026-04-19T05:21:29.001Z</time></trkpt><trkpt lat="15.33685867394172" lon="120.63647407923858"><ele>39.0</ele><time>2026-04-19T05:21:30.001Z</time></trkpt><trkpt lat="15.33663541769376" lon="120.63633122610477"><ele>39.0</ele><time>2026-04-19T05:21:31.001Z</time></trkpt><trkpt lat="15.336411781563774" lon="120.63618735381782"><ele>40.0</ele><time>2026-04-19T05:21:32.001Z</time></trkpt><trkpt lat="15.336187816754556" lon="120.63604298404324"><ele>41.0</ele><time>2026-04-19T05:21:33.001Z</time></trkpt><trkpt lat="15.335961718263633" lon="120.63589855372751"><ele>41.0</ele><time>2026-04-19T05:21:34.001Z</time></trkpt><trkpt lat="15.335738070102757" lon="120.63575187972836"><ele>41.0</ele><time>2026-04-19T05:21:35.001Z</time></trkpt><trkpt lat="15.33551225920505" lon="120.6356058651037"><ele>41.5</ele><time>2026-04-19T05:21:36.001Z</time></trkpt><trkpt lat="15.335285714263572" lon="120.63545991504552"><ele>42.0</ele><time>2026-04-19T05:21:37.001Z</time></trkpt><trkpt lat="15.33505837490789" lon="120.635313199318"><ele>42.5</ele><time>2026-04-19T05:21:38.001Z</time></trkpt><trkpt lat="15.334828818964118" lon="120.6351649778228"><ele>43.0</ele><time>2026-04-19T05:21:39.001Z</time></trkpt><trkpt lat="15.334599807781348" lon="120.63501694878344"><ele>43.0</ele><time>2026-04-19T05:21:40.001Z</time></trkpt><trkpt lat="15.33437012534866" lon="120.63486834571529"><ele>43.0</ele><time>2026-04-19T05:21:41.001Z</time></trkpt><trkpt lat="15.334139768288894" lon="120.63471890058837"><ele>43.0</ele><time>2026-04-19T05:21:42.001Z</time></trkpt><trkpt lat="15.333908740194842" lon="120.63456931214208"><ele>43.0</ele><time>2026-04-19T05:21:43.001Z</time></trkpt><trkpt lat="15.33367674993299" lon="120.63441967444031"><ele>43.0</ele><time>2026-04-19T05:21:44.001Z</time></trkpt><trkpt lat="15.333444785291945" lon="120.63427087811918"><ele>43.0</ele><time>2026-04-19T05:21:45Z</time></trkpt><trkpt lat="15.333212892729026" lon="120.63412348405808"><ele>43.5</ele><time>2026-04-19T05:21:46Z</time></trkpt><trkpt lat="15.332984870457551" lon="120.63397801787406"><ele>44.0</ele><time>2026-04-19T05:21:47Z</time></trkpt><trkpt lat="15.332759710299454" lon="120.63383648524709"><ele>44.0</ele><time>2026-04-19T05:21:48Z</time></trkpt><trkpt lat="15.332540326708742" lon="120.63369610979314"><ele>44.0</ele><time>2026-04-19T05:21:49Z</time></trkpt><trkpt lat="15.332324573827478" lon="120.63355569394417"><ele>42.5</ele><time>2026-04-19T05:21:50Z</time></trkpt><trkpt lat="15.332113605523602" lon="120.63341870815587"><ele>41.0</ele><time>2026-04-19T05:21:51Z</time></trkpt><trkpt lat="15.331905576981036" lon="120.63328245939299"><ele>41.0</ele><time>2026-04-19T05:21:52Z</time></trkpt><trkpt lat="15.331698936261333" lon="120.63314702271175"><ele>41.0</ele><time>2026-04-19T05:21:53Z</time></trkpt><trkpt lat="15.33149277440582" lon="120.6330139663115"><ele>41.5</ele><time>2026-04-19T05:21:54Z</time></trkpt><trkpt lat="15.331287939709918" lon="120.63288420128352"><ele>42.0</ele><time>2026-04-19T05:21:55Z</time></trkpt><trkpt lat="15.331086812104258" lon="120.63275503172451"><ele>43.5</ele><time>2026-04-19T05:21:56Z</time></trkpt><trkpt lat="15.33088774061468" lon="120.63262702273776"><ele>45.0</ele><time>2026-04-19T05:21:57Z</time></trkpt><trkpt lat="15.330690184999332" lon="120.6325002044925"><ele>42.5</ele><time>2026-04-19T05:21:58Z</time></trkpt><trkpt lat="15.330492736254605" lon="120.63237394803744"><ele>40.0</ele><time>2026-04-19T05:21:59Z</time></trkpt><trkpt lat="15.330294646431508" lon="120.6322473813643"><ele>40.0</ele><time>2026-04-19T05:22:00Z</time></trkpt><trkpt lat="15.330097091965767" lon="120.63211976713391"><ele>40.0</ele><time>2026-04-19T05:22:01Z</time></trkpt><trkpt lat="15.329898739850606" lon="120.63199306175542"><ele>39.0</ele><time>2026-04-19T05:22:02Z</time></trkpt><trkpt lat="15.3296992481715" lon="120.63186481376486"><ele>38.0</ele><time>2026-04-19T05:22:03Z</time></trkpt><trkpt lat="15.329499561141546" lon="120.63173616284244"><ele>38.0</ele><time>2026-04-19T05:22:04Z</time></trkpt><trkpt lat="15.329300968373671" lon="120.63160830863957"><ele>38.0</ele><time>2026-04-19T05:22:05Z</time></trkpt><trkpt lat="15.329101542469754" lon="120.63147842985462"><ele>38.0</ele><time>2026-04-19T05:22:06Z</time></trkpt><trkpt lat="15.328901135302234" lon="120.6313488615145"><ele>38.0</ele><time>2026-04-19T05:22:07Z</time></trkpt><trkpt lat="15.32869969429815" lon="120.63121942093917"><ele>39.0</ele><time>2026-04-19T05:22:08Z</time></trkpt><trkpt lat="15.328496050370102" lon="120.63108877204311"><ele>40.0</ele><time>2026-04-19T05:22:09Z</time></trkpt><trkpt lat="15.328290842961286" lon="120.63095834824432"><ele>40.0</ele><time>2026-04-19T05:22:10Z</time></trkpt><trkpt lat="15.32808416230176" lon="120.63082592659666"><ele>40.0</ele><time>2026-04-19T05:22:11Z</time></trkpt><trkpt lat="15.327875823587089" lon="120.63069274739836"><ele>40.5</ele><time>2026-04-19T05:22:12Z</time></trkpt><trkpt lat="15.327665677855228" lon="120.63055905240799"><ele>41.0</ele><time>2026-04-19T05:22:13Z</time></trkpt><trkpt lat="15.327457070550564" lon="120.63042547861295"><ele>41.5</ele><time>2026-04-19T05:22:14Z</time></trkpt><trkpt lat="15.327251376868878" lon="120.63029323310289"><ele>42.0</ele><time>2026-04-19T05:22:15Z</time></trkpt><trkpt lat="15.327049645369797" lon="120.63016330399758"><ele>42.5</ele><time>2026-04-19T05:22:16Z</time></trkpt><trkpt lat="15.32684960838732" lon="120.6300347734402"><ele>43.0</ele><time>2026-04-19T05:22:17Z</time></trkpt><trkpt lat="15.326650429733014" lon="120.62990613754391"><ele>43.0</ele><time>2026-04-19T05:22:18Z</time></trkpt><trkpt lat="15.326450683183367" lon="120.62977837731479"><ele>43.0</ele><time>2026-04-19T05:22:19Z</time></trkpt><trkpt lat="15.326258783133172" lon="120.62965375960191"><ele>42.333333333333336</ele><time>2026-04-19T05:22:20Z</time></trkpt><trkpt lat="15.326071450040724" lon="120.62953289147313"><ele>41.666666666666664</ele><time>2026-04-19T05:22:21Z</time></trkpt><trkpt lat="15.325894231232699" lon="120.62941691522158"><ele>41.0</ele><time>2026-04-19T05:22:22Z</time></trkpt><trkpt lat="15.325726574474865" lon="120.62930804532297"><ele>41.0</ele><time>2026-04-19T05:22:23Z</time></trkpt><trkpt lat="15.325567824586466" lon="120.62920520452505"><ele>41.0</ele><time>2026-04-19T05:22:24Z</time></trkpt><trkpt lat="15.325418412792676" lon="120.62910928970852"><ele>41.0</ele><time>2026-04-19T05:22:25Z</time></trkpt><trkpt lat="15.325279299746612" lon="120.62901988210278"><ele>41.0</ele><time>2026-04-19T05:22:26Z</time></trkpt><trkpt lat="15.325144458739818" lon="120.62893345404959"><ele>41.0</ele><time>2026-04-19T05:22:27Z</time></trkpt><trkpt lat="15.325012565609034" lon="120.62884704528511"><ele>41.0</ele><time>2026-04-19T05:22:28Z</time></trkpt><trkpt lat="15.324879198252207" lon="120.628759385799"><ele>41.0</ele><time>2026-04-19T05:22:29Z</time></trkpt><trkpt lat="15.32474330487132" lon="120.62867162308908"><ele>41.0</ele><time>2026-04-19T05:22:30Z</time></trkpt><trkpt lat="15.32460330426018" lon="120.62858195600437"><ele>41.0</ele><time>2026-04-19T05:22:31Z</time></trkpt><trkpt lat="15.324460048219576" lon="120.62848860310866"><ele>42.0</ele><time>2026-04-19T05:22:32Z</time></trkpt><trkpt lat="15.32431391203458" lon="120.62839232929532"><ele>43.0</ele><time>2026-04-19T05:22:33Z</time></trkpt><trkpt lat="15.32416055157539" lon="120.62829358614236"><ele>44.0</ele><time>2026-04-19T05:22:34Z</time></trkpt><trkpt lat="15.324003821642403" lon="120.62819253778582"><ele>43.33333333333333</ele><time>2026-04-19T05:22:35Z</time></trkpt><trkpt lat="15.323842669130942" lon="120.6280891649697"><ele>42.666666666666664</ele><time>2026-04-19T05:22:36Z</time></trkpt><trkpt lat="15.32367733388204" lon="120.62798226180819"><ele>42.0</ele><time>2026-04-19T05:22:37Z</time></trkpt><trkpt lat="15.32350925112813" lon="120.62787394965413"><ele>42.333333333333336</ele><time>2026-04-19T05:22:38Z</time></trkpt><trkpt lat="15.323334649444146" lon="120.62776319800682"><ele>42.66666666666667</ele><time>2026-04-19T05:22:39Z</time></trkpt><trkpt lat="15.323159967391433" lon="120.62765066599741"><ele>43.0</ele><time>2026-04-19T05:22:40Z</time></trkpt><trkpt lat="15.322984980215" lon="120.62753796871986"><ele>43.66666666666667</ele><time>2026-04-19T05:22:41Z</time></trkpt><trkpt lat="15.322808708244107" lon="120.62742354775418"><ele>44.333333333333336</ele><time>2026-04-19T05:22:42Z</time></trkpt><trkpt lat="15.322632185891852" lon="120.62730921110082"><ele>45.0</ele><time>2026-04-19T05:22:43Z</time></trkpt><trkpt lat="15.322453307116348" lon="120.6271928444278"><ele>45.0</ele><time>2026-04-19T05:22:44Z</time></trkpt><trkpt lat="15.322272879791333" lon="120.62707647193774"><ele>45.0</ele><time>2026-04-19T05:22:45Z</time></trkpt><trkpt lat="15.322094136519924" lon="120.62696152118245"><ele>45.0</ele><time>2026-04-19T05:22:46Z</time></trkpt><trkpt lat="15.321917813936384" lon="120.62684749114871"><ele>44.0</ele><time>2026-04-19T05:22:47Z</time></trkpt><trkpt lat="15.321742818294444" lon="120.62673467252765"><ele>43.0</ele><time>2026-04-19T05:22:48Z</time></trkpt><trkpt lat="15.321570016132728" lon="120.62662258219375"><ele>42.0</ele><time>2026-04-19T05:22:49Z</time></trkpt><trkpt lat="15.321396756031202" lon="120.62651026252222"><ele>42.0</ele><time>2026-04-19T05:22:50Z</time></trkpt><trkpt lat="15.32122379039662" lon="120.6263979952338"><ele>42.0</ele><time>2026-04-19T05:22:51Z</time></trkpt><trkpt lat="15.321049728412937" lon="120.6262846195417"><ele>42.0</ele><time>2026-04-19T05:22:52.001Z</time></trkpt><trkpt lat="15.320875360001848" lon="120.6261722954015"><ele>41.666666666666664</ele><time>2026-04-19T05:22:53.001Z</time></trkpt><trkpt lat="15.320700086783342" lon="120.62605863414237"><ele>41.33333333333333</ele><time>2026-04-19T05:22:54.001Z</time></trkpt><trkpt lat="15.320524385026127" lon="120.62594658116429"><ele>41.0</ele><time>2026-04-19T05:22:55.001Z</time></trkpt><trkpt lat="15.320348314569399" lon="120.62583535649392"><ele>42.0</ele><time>2026-04-19T05:22:56.001Z</time></trkpt><trkpt lat="15.3201731883223" lon="120.6257230345269"><ele>43.0</ele><time>2026-04-19T05:22:57.001Z</time></trkpt><trkpt lat="15.319998429191592" lon="120.62560934246741"><ele>44.0</ele><time>2026-04-19T05:22:58.001Z</time></trkpt><trkpt lat="15.319822547313635" lon="120.62549589147834"><ele>43.666666666666664</ele><time>2026-04-19T05:22:59.001Z</time></trkpt><trkpt lat="15.319648563049997" lon="120.6253847403391"><ele>43.333333333333336</ele><time>2026-04-19T05:23:00.001Z</time></trkpt><trkpt lat="15.319474527856514" lon="120.62527392095265"><ele>43.0</ele><time>2026-04-19T05:23:01.001Z</time></trkpt><trkpt lat="15.319301034973906" lon="120.62516329529798"><ele>43.0</ele><time>2026-04-19T05:23:02.001Z</time></trkpt><trkpt lat="15.319125194291178" lon="120.6250506076436"><ele>43.0</ele><time>2026-04-19T05:23:03.001Z</time></trkpt><trkpt lat="15.31894891629126" lon="120.62493716131807"><ele>43.0</ele><time>2026-04-19T05:23:04.001Z</time></trkpt><trkpt lat="15.318773482600692" lon="120.62482377925133"><ele>43.0</ele><time>2026-04-19T05:23:05.001Z</time></trkpt><trkpt lat="15.318597002289573" lon="120.62471003441838"><ele>43.0</ele><time>2026-04-19T05:23:06.001Z</time></trkpt><trkpt lat="15.318419347812428" lon="120.62459520534865"><ele>43.0</ele><time>2026-04-19T05:23:07.001Z</time></trkpt><trkpt lat="15.318240747715699" lon="120.62447914333717"><ele>43.66666666666667</ele><time>2026-04-19T05:23:08.001Z</time></trkpt><trkpt lat="15.318064121686236" lon="120.62436428598915"><ele>44.333333333333336</ele><time>2026-04-19T05:23:09.001Z</time></trkpt><trkpt lat="15.317888574641067" lon="120.62425098275816"><ele>45.0</ele><time>2026-04-19T05:23:10.001Z</time></trkpt><trkpt lat="15.317712366724052" lon="120.62413741183487"><ele>45.0</ele><time>2026-04-19T05:23:11.001Z</time></trkpt><trkpt lat="15.317536549376298" lon="120.62402392972079"><ele>45.0</ele><time>2026-04-19T05:23:12.001Z</time></trkpt><trkpt lat="15.317357082833983" lon="120.62390682169281"><ele>45.0</ele><time>2026-04-19T05:23:13.001Z</time></trkpt><trkpt lat="15.317178523505701" lon="120.62379050779194"><ele>45.0</ele><time>2026-04-19T05:23:14.001Z</time></trkpt><trkpt lat="15.316997631204714" lon="120.6236735901172"><ele>45.0</ele><time>2026-04-19T05:23:15.001Z</time></trkpt><trkpt lat="15.316812235133122" lon="120.62355545173753"><ele>45.0</ele><time>2026-04-19T05:23:16.001Z</time></trkpt><trkpt lat="15.316623882169502" lon="120.62343524103306"><ele>45.5</ele><time>2026-04-19T05:23:17.001Z</time></trkpt><trkpt lat="15.316436063058662" lon="120.62330934384929"><ele>46.0</ele><time>2026-04-19T05:23:18.001Z</time></trkpt><trkpt lat="15.316243495699169" lon="120.62318023895388"><ele>45.0</ele><time>2026-04-19T05:23:19.001Z</time></trkpt><trkpt lat="15.316047817821707" lon="120.6230497718424"><ele>44.0</ele><time>2026-04-19T05:23:20.001Z</time></trkpt><trkpt lat="15.315849433943145" lon="120.62291656717585"><ele>44.5</ele><time>2026-04-19T05:23:21.001Z</time></trkpt><trkpt lat="15.31564720773677" lon="120.6227811577183"><ele>45.0</ele><time>2026-04-19T05:23:22.001Z</time></trkpt><trkpt lat="15.315442588829484" lon="120.62264579524567"><ele>45.5</ele><time>2026-04-19T05:23:23.001Z</time></trkpt><trkpt lat="15.31523429310224" lon="120.6225086473514"><ele>46.0</ele><time>2026-04-19T05:23:24.001Z</time></trkpt><trkpt lat="15.315024621336198" lon="120.6223713183126"><ele>46.0</ele><time>2026-04-19T05:23:25.001Z</time></trkpt><trkpt lat="15.314812157835599" lon="120.62223276126986"><ele>46.0</ele><time>2026-04-19T05:23:26.001Z</time></trkpt><trkpt lat="15.314597490905697" lon="120.62209548236679"><ele>46.0</ele><time>2026-04-19T05:23:27.001Z</time></trkpt><trkpt lat="15.314381643316361" lon="120.62195676341969"><ele>46.0</ele><time>2026-04-19T05:23:28.001Z</time></trkpt><trkpt lat="15.314164595483225" lon="120.62181530466503"><ele>46.0</ele><time>2026-04-19T05:23:29.001Z</time></trkpt><trkpt lat="15.313945738693802" lon="120.62167396395616"><ele>46.0</ele><time>2026-04-19T05:23:30.001Z</time></trkpt><trkpt lat="15.313723562066832" lon="120.6215305734208"><ele>46.0</ele><time>2026-04-19T05:23:31.001Z</time></trkpt><trkpt lat="15.313500254889123" lon="120.62138588067651"><ele>46.0</ele><time>2026-04-19T05:23:32.001Z</time></trkpt><trkpt lat="15.313275454864035" lon="120.62124163747623"><ele>44.5</ele><time>2026-04-19T05:23:33.001Z</time></trkpt><trkpt lat="15.313048235134604" lon="120.62109509124473"><ele>43.0</ele><time>2026-04-19T05:23:34.001Z</time></trkpt><trkpt lat="15.312818023556463" lon="120.6209470118451"><ele>43.0</ele><time>2026-04-19T05:23:35.001Z</time></trkpt><trkpt lat="15.312587360745619" lon="120.620799405513"><ele>43.0</ele><time>2026-04-19T05:23:36.001Z</time></trkpt><trkpt lat="15.312357245079625" lon="120.62065280590679"><ele>44.5</ele><time>2026-04-19T05:23:37.001Z</time></trkpt><trkpt lat="15.31212813820789" lon="120.62050568778723"><ele>46.0</ele><time>2026-04-19T05:23:38.001Z</time></trkpt><trkpt lat="15.311899567815692" lon="120.62035830428997"><ele>46.0</ele><time>2026-04-19T05:23:39.001Z</time></trkpt><trkpt lat="15.311673432316528" lon="120.62021035893875"><ele>46.0</ele><time>2026-04-19T05:23:40.001Z</time></trkpt><trkpt lat="15.311445861820793" lon="120.62006298260204"><ele>46.0</ele><time>2026-04-19T05:23:41.001Z</time></trkpt><trkpt lat="15.311218769819066" lon="120.61991590858028"><ele>46.0</ele><time>2026-04-19T05:23:42.001Z</time></trkpt><trkpt lat="15.310994478138028" lon="120.61977103461074"><ele>46.0</ele><time>2026-04-19T05:23:43.001Z</time></trkpt><trkpt lat="15.310770642514216" lon="120.61962616301864"><ele>46.0</ele><time>2026-04-19T05:23:44.001Z</time></trkpt><trkpt lat="15.310550499404686" lon="120.61948405465073"><ele>47.5</ele><time>2026-04-19T05:23:45.001Z</time></trkpt><trkpt lat="15.310333337900518" lon="120.61934429126734"><ele>49.0</ele><time>2026-04-19T05:23:46.001Z</time></trkpt><trkpt lat="15.310120634604198" lon="120.61920749712247"><ele>49.0</ele><time>2026-04-19T05:23:47.001Z</time></trkpt><trkpt lat="15.309910984868072" lon="120.61907262296486"><ele>49.0</ele><time>2026-04-19T05:23:48.001Z</time></trkpt><trkpt lat="15.309704104627084" lon="120.61893955135649"><ele>48.5</ele><time>2026-04-19T05:23:49.001Z</time></trkpt><trkpt lat="15.309500530186032" lon="120.61880834602053"><ele>48.0</ele><time>2026-04-19T05:23:50.001Z</time></trkpt><trkpt lat="15.309304765397142" lon="120.61868095576719"><ele>47.666666666666664</ele><time>2026-04-19T05:23:51Z</time></trkpt><trkpt lat="15.309113369462263" lon="120.61855644697934"><ele>47.33333333333333</ele><time>2026-04-19T05:23:52Z</time></trkpt><trkpt lat="15.308925800366097" lon="120.61843457422238"><ele>47.0</ele><time>2026-04-19T05:23:53Z</time></trkpt><trkpt lat="15.30873993152056" lon="120.61831321915139"><ele>47.0</ele><time>2026-04-19T05:23:54Z</time></trkpt><trkpt lat="15.308554483017502" lon="120.61819279689131"><ele>47.0</ele><time>2026-04-19T05:23:55Z</time></trkpt><trkpt lat="15.308366565340354" lon="120.6180729658615"><ele>47.0</ele><time>2026-04-19T05:23:56Z</time></trkpt><trkpt lat="15.30818044879478" lon="120.61795194163057"><ele>47.33333333333333</ele><time>2026-04-19T05:23:57Z</time></trkpt><trkpt lat="15.307995920419081" lon="120.61783373842634"><ele>47.666666666666664</ele><time>2026-04-19T05:23:58Z</time></trkpt><trkpt lat="15.307816180448215" lon="120.61771787223888"><ele>48.0</ele><time>2026-04-19T05:23:59Z</time></trkpt><trkpt lat="15.307643593198788" lon="120.61760752283796"><ele>48.0</ele><time>2026-04-19T05:24:00Z</time></trkpt><trkpt lat="15.30747638740436" lon="120.6175010581196"><ele>48.0</ele><time>2026-04-19T05:24:01Z</time></trkpt><trkpt lat="15.307315095854838" lon="120.61739912059195"><ele>48.0</ele><time>2026-04-19T05:24:02Z</time></trkpt><trkpt lat="15.307156839649089" lon="120.61729811746498"><ele>48.0</ele><time>2026-04-19T05:24:03Z</time></trkpt><trkpt lat="15.307002158027709" lon="120.61719924458578"><ele>48.0</ele><time>2026-04-19T05:24:04Z</time></trkpt><trkpt lat="15.306849110572449" lon="120.6171027001481"><ele>48.0</ele><time>2026-04-19T05:24:05Z</time></trkpt><trkpt lat="15.306698672567366" lon="120.61700940447231"><ele>48.0</ele><time>2026-04-19T05:24:06Z</time></trkpt><trkpt lat="15.30655060388159" lon="120.61691361247101"><ele>48.0</ele><time>2026-04-19T05:24:07Z</time></trkpt><trkpt lat="15.306405290820189" lon="120.61681960346239"><ele>48.0</ele><time>2026-04-19T05:24:08Z</time></trkpt><trkpt lat="15.306263326206578" lon="120.61672710635688"><ele>48.0</ele><time>2026-04-19T05:24:09Z</time></trkpt><trkpt lat="15.306123962603175" lon="120.61663556184766"><ele>48.0</ele><time>2026-04-19T05:24:10Z</time></trkpt><trkpt lat="15.305986135280877" lon="120.61654617666191"><ele>48.0</ele><time>2026-04-19T05:24:11Z</time></trkpt><trkpt lat="15.305849441270876" lon="120.61645950712924"><ele>48.0</ele><time>2026-04-19T05:24:12Z</time></trkpt><trkpt lat="15.30571267951034" lon="120.61637457086002"><ele>48.0</ele><time>2026-04-19T05:24:13Z</time></trkpt><trkpt lat="15.305576208921712" lon="120.61629116654768"><ele>48.0</ele><time>2026-04-19T05:24:14Z</time></trkpt><trkpt lat="15.305435630614593" lon="120.6162064542135"><ele>48.0</ele><time>2026-04-19T05:24:15Z</time></trkpt><trkpt lat="15.30529310416808" lon="120.61612073021789"><ele>48.0</ele><time>2026-04-19T05:24:16Z</time></trkpt><trkpt lat="15.305146959806573" lon="120.61603121242355"><ele>48.0</ele><time>2026-04-19T05:24:17Z</time></trkpt><trkpt lat="15.304995110056042" lon="120.61593954594247"><ele>48.0</ele><time>2026-04-19T05:24:18Z</time></trkpt><trkpt lat="15.304840831778304" lon="120.61584478334824"><ele>48.0</ele><time>2026-04-19T05:24:19Z</time></trkpt><trkpt lat="15.304684193784473" lon="120.61574720606191"><ele>48.0</ele><time>2026-04-19T05:24:20Z</time></trkpt><trkpt lat="15.30452476164914" lon="120.6156473089508"><ele>48.0</ele><time>2026-04-19T05:24:21Z</time></trkpt><trkpt lat="15.304362037095014" lon="120.61554546066273"><ele>48.0</ele><time>2026-04-19T05:24:22Z</time></trkpt><trkpt lat="15.304195148301387" lon="120.61544132916437"><ele>48.0</ele><time>2026-04-19T05:24:23Z</time></trkpt><trkpt lat="15.304023958807496" lon="120.6153339122401"><ele>48.0</ele><time>2026-04-19T05:24:24Z</time></trkpt><trkpt lat="15.3038526435168" lon="120.61522391402012"><ele>48.0</ele><time>2026-04-19T05:24:25Z</time></trkpt><trkpt lat="15.303678270078684" lon="120.6151107074389"><ele>48.0</ele><time>2026-04-19T05:24:26Z</time></trkpt><trkpt lat="15.303499675824092" lon="120.61499380021061"><ele>48.0</ele><time>2026-04-19T05:24:27Z</time></trkpt><trkpt lat="15.303318281830288" lon="120.61487805013537"><ele>48.0</ele><time>2026-04-19T05:24:28Z</time></trkpt><trkpt lat="15.303133651265362" lon="120.61475996102695"><ele>48.0</ele><time>2026-04-19T05:24:29Z</time></trkpt><trkpt lat="15.302949304132765" lon="120.61464222071321"><ele>48.0</ele><time>2026-04-19T05:24:30Z</time></trkpt><trkpt lat="15.302763405069474" lon="120.61452735485395"><ele>48.0</ele><time>2026-04-19T05:24:31Z</time></trkpt><trkpt lat="15.302575609729212" lon="120.614409898269"><ele>48.0</ele><time>2026-04-19T05:24:32Z</time></trkpt><trkpt lat="15.302386174822859" lon="120.61429124587552"><ele>48.33333333333333</ele><time>2026-04-19T05:24:33Z</time></trkpt><trkpt lat="15.302199471148425" lon="120.61417280017908"><ele>48.666666666666664</ele><time>2026-04-19T05:24:34Z</time></trkpt><trkpt lat="15.302011752449658" lon="120.61405520334623"><ele>49.0</ele><time>2026-04-19T05:24:35Z</time></trkpt><trkpt lat="15.3018203217173" lon="120.61393816290467"><ele>49.0</ele><time>2026-04-19T05:24:36Z</time></trkpt><trkpt lat="15.301624906459304" lon="120.61382003188335"><ele>49.0</ele><time>2026-04-19T05:24:37Z</time></trkpt><trkpt lat="15.301429010937893" lon="120.61370216656414"><ele>50.0</ele><time>2026-04-19T05:24:38Z</time></trkpt><trkpt lat="15.301232853538904" lon="120.61358288651778"><ele>51.0</ele><time>2026-04-19T05:24:39Z</time></trkpt><trkpt lat="15.301032049447109" lon="120.61346351823433"><ele>51.0</ele><time>2026-04-19T05:24:40Z</time></trkpt><trkpt lat="15.300828372416825" lon="120.61334692851462"><ele>51.0</ele><time>2026-04-19T05:24:41Z</time></trkpt><trkpt lat="15.300618133984756" lon="120.61322822272635"><ele>51.0</ele><time>2026-04-19T05:24:42Z</time></trkpt><trkpt lat="15.300405239227988" lon="120.61310933650638"><ele>51.0</ele><time>2026-04-19T05:24:43Z</time></trkpt><trkpt lat="15.300189424391428" lon="120.61298980474075"><ele>51.0</ele><time>2026-04-19T05:24:44Z</time></trkpt><trkpt lat="15.29996879300248" lon="120.6128652840894"><ele>51.0</ele><time>2026-04-19T05:24:45Z</time></trkpt><trkpt lat="15.29974578996775" lon="120.61273902180884"><ele>50.5</ele><time>2026-04-19T05:24:46Z</time></trkpt><trkpt lat="15.29952139923257" lon="120.61261094147316"><ele>50.0</ele><time>2026-04-19T05:24:47Z</time></trkpt><trkpt lat="15.299294427310878" lon="120.61248118966614"><ele>50.0</ele><time>2026-04-19T05:24:48Z</time></trkpt><trkpt lat="15.299065555984159" lon="120.61234960464462"><ele>50.0</ele><time>2026-04-19T05:24:49Z</time></trkpt><trkpt lat="15.298833904131053" lon="120.61221704515513"><ele>50.5</ele><time>2026-04-19T05:24:50Z</time></trkpt><trkpt lat="15.29860034345971" lon="120.61208186449228"><ele>51.0</ele><time>2026-04-19T05:24:51Z</time></trkpt><trkpt lat="15.298366188686815" lon="120.61194438803444"><ele>51.0</ele><time>2026-04-19T05:24:52Z</time></trkpt><trkpt lat="15.298131447533903" lon="120.61180709355507"><ele>51.0</ele><time>2026-04-19T05:24:53Z</time></trkpt><trkpt lat="15.297895078350331" lon="120.61167011979917"><ele>51.0</ele><time>2026-04-19T05:24:54Z</time></trkpt><trkpt lat="15.297656319970276" lon="120.61153119927359"><ele>51.0</ele><time>2026-04-19T05:24:55Z</time></trkpt><trkpt lat="15.297417120103121" lon="120.61139293719398"><ele>51.0</ele><time>2026-04-19T05:24:56Z</time></trkpt><trkpt lat="15.297176132801575" lon="120.6112561896359"><ele>51.0</ele><time>2026-04-19T05:24:57Z</time></trkpt><trkpt lat="15.296933346662948" lon="120.61112061018733"><ele>52.5</ele><time>2026-04-19T05:24:58Z</time></trkpt><trkpt lat="15.296687902236467" lon="120.61098510138031"><ele>54.0</ele><time>2026-04-19T05:24:59Z</time></trkpt><trkpt lat="15.296441958779386" lon="120.6108503390835"><ele>54.0</ele><time>2026-04-19T05:25:00Z</time></trkpt><trkpt lat="15.29619731982857" lon="120.61071611391564"><ele>54.0</ele><time>2026-04-19T05:25:01Z</time></trkpt><trkpt lat="15.295951353443735" lon="120.61058166680539"><ele>54.0</ele><time>2026-04-19T05:25:02Z</time></trkpt><trkpt lat="15.295707029361157" lon="120.61044824825755"><ele>54.0</ele><time>2026-04-19T05:25:03Z</time></trkpt><trkpt lat="15.295466040747005" lon="120.61031593468971"><ele>53.5</ele><time>2026-04-19T05:25:04Z</time></trkpt><trkpt lat="15.29522995493963" lon="120.61018646641524"><ele>53.0</ele><time>2026-04-19T05:25:05Z</time></trkpt><trkpt lat="15.295002209450283" lon="120.6100622691353"><ele>53.0</ele><time>2026-04-19T05:25:06Z</time></trkpt><trkpt lat="15.294785391339165" lon="120.60994728851065"><ele>53.0</ele><time>2026-04-19T05:25:07Z</time></trkpt><trkpt lat="15.294578105008702" lon="120.6098350872481"><ele>53.0</ele><time>2026-04-19T05:25:08Z</time></trkpt><trkpt lat="15.294380166308658" lon="120.60972742812368"><ele>53.0</ele><time>2026-04-19T05:25:09Z</time></trkpt><trkpt lat="15.294186299824313" lon="120.60962255238287"><ele>53.0</ele><time>2026-04-19T05:25:10Z</time></trkpt><trkpt lat="15.293996433109182" lon="120.6095194010049"><ele>53.333333333333336</ele><time>2026-04-19T05:25:11Z</time></trkpt><trkpt lat="15.293809007854279" lon="120.60941957122569"><ele>53.66666666666667</ele><time>2026-04-19T05:25:12Z</time></trkpt><trkpt lat="15.293623902594359" lon="120.60932197609988"><ele>54.0</ele><time>2026-04-19T05:25:13Z</time></trkpt><trkpt lat="15.293440393629107" lon="120.60922642854827"><ele>54.0</ele><time>2026-04-19T05:25:14Z</time></trkpt><trkpt lat="15.293260142828052" lon="120.60913247135701"><ele>54.0</ele><time>2026-04-19T05:25:15Z</time></trkpt><trkpt lat="15.293083260576859" lon="120.6090391127615"><ele>54.0</ele><time>2026-04-19T05:25:16Z</time></trkpt><trkpt lat="15.292906908335562" lon="120.6089445456069"><ele>54.0</ele><time>2026-04-19T05:25:17Z</time></trkpt><trkpt lat="15.292731708739332" lon="120.60884965475582"><ele>54.0</ele><time>2026-04-19T05:25:18Z</time></trkpt><trkpt lat="15.292554893627615" lon="120.60875508962933"><ele>54.0</ele><time>2026-04-19T05:25:19.001Z</time></trkpt><trkpt lat="15.29237661654584" lon="120.6086603103799"><ele>54.33333333333333</ele><time>2026-04-19T05:25:20.001Z</time></trkpt><trkpt lat="15.292196771079526" lon="120.60856514224683"><ele>54.666666666666664</ele><time>2026-04-19T05:25:21.001Z</time></trkpt><trkpt lat="15.292014554045274" lon="120.6084701688394"><ele>55.0</ele><time>2026-04-19T05:25:22.001Z</time></trkpt><trkpt lat="15.291829261950387" lon="120.6083755697544"><ele>55.0</ele><time>2026-04-19T05:25:23.001Z</time></trkpt><trkpt lat="15.291643013768336" lon="120.60828127933637"><ele>55.0</ele><time>2026-04-19T05:25:24.001Z</time></trkpt><trkpt lat="15.291455521373685" lon="120.60818535018406"><ele>55.0</ele><time>2026-04-19T05:25:25.001Z</time></trkpt><trkpt lat="15.291266746444585" lon="120.60808792999894"><ele>54.666666666666664</ele><time>2026-04-19T05:25:26.001Z</time></trkpt><trkpt lat="15.291075461059656" lon="120.60799066242826"><ele>54.33333333333333</ele><time>2026-04-19T05:25:27.001Z</time></trkpt><trkpt lat="15.290885987387277" lon="120.60789193000288"><ele>54.0</ele><time>2026-04-19T05:25:28.001Z</time></trkpt><trkpt lat="15.29069316849282" lon="120.60779292521909"><ele>54.33333333333333</ele><time>2026-04-19T05:25:29.001Z</time></trkpt><trkpt lat="15.290500434105828" lon="120.6076930177588"><ele>54.666666666666664</ele><time>2026-04-19T05:25:30.001Z</time></trkpt><trkpt lat="15.290307485412928" lon="120.60759287998971"><ele>55.0</ele><time>2026-04-19T05:25:31.001Z</time></trkpt><trkpt lat="15.290112800513656" lon="120.60749368167184"><ele>55.0</ele><time>2026-04-19T05:25:32.001Z</time></trkpt><trkpt lat="15.289917329509771" lon="120.60739468863113"><ele>55.0</ele><time>2026-04-19T05:25:33.001Z</time></trkpt><trkpt lat="15.2897216073403" lon="120.6072951210912"><ele>55.0</ele><time>2026-04-19T05:25:34.001Z</time></trkpt><trkpt lat="15.289525047309715" lon="120.60719571301411"><ele>55.666666666666664</ele><time>2026-04-19T05:25:35.001Z</time></trkpt><trkpt lat="15.289326323053407" lon="120.60709647513403"><ele>56.33333333333333</ele><time>2026-04-19T05:25:36.001Z</time></trkpt><trkpt lat="15.289125182730197" lon="120.60699732847337"><ele>57.0</ele><time>2026-04-19T05:25:37.001Z</time></trkpt><trkpt lat="15.288922981424768" lon="120.60689789514682"><ele>57.5</ele><time>2026-04-19T05:25:38.001Z</time></trkpt><trkpt lat="15.288719085444725" lon="120.60679722131013"><ele>58.0</ele><time>2026-04-19T05:25:39.001Z</time></trkpt><trkpt lat="15.288514636466296" lon="120.60669679273096"><ele>58.0</ele><time>2026-04-19T05:25:40.001Z</time></trkpt><trkpt lat="15.288309704516664" lon="120.60659559239566"><ele>58.0</ele><time>2026-04-19T05:25:41.001Z</time></trkpt><trkpt lat="15.288102560154865" lon="120.6064934734074"><ele>57.5</ele><time>2026-04-19T05:25:42.001Z</time></trkpt><trkpt lat="15.287895404224306" lon="120.60639200373737"><ele>57.0</ele><time>2026-04-19T05:25:43.001Z</time></trkpt><trkpt lat="15.287686295909884" lon="120.60628850769409"><ele>57.0</ele><time>2026-04-19T05:25:44.001Z</time></trkpt><trkpt lat="15.287476146203302" lon="120.60618546474538"><ele>57.0</ele><time>2026-04-19T05:25:45.001Z</time></trkpt><trkpt lat="15.287263962550389" lon="120.6060827608459"><ele>57.0</ele><time>2026-04-19T05:25:46.001Z</time></trkpt><trkpt lat="15.287050245710708" lon="120.6059794691033"><ele>57.0</ele><time>2026-04-19T05:25:47.001Z</time></trkpt><trkpt lat="15.286837510258925" lon="120.60587826263017"><ele>57.0</ele><time>2026-04-19T05:25:48.001Z</time></trkpt><trkpt lat="15.286624036538683" lon="120.60577535002626"><ele>57.0</ele><time>2026-04-19T05:25:49.001Z</time></trkpt><trkpt lat="15.28641050501838" lon="120.60567255649978"><ele>57.5</ele><time>2026-04-19T05:25:50.001Z</time></trkpt><trkpt lat="15.286196368264461" lon="120.6055702798445"><ele>58.0</ele><time>2026-04-19T05:25:51.001Z</time></trkpt><trkpt lat="15.285982504448096" lon="120.60546892846126"><ele>58.0</ele><time>2026-04-19T05:25:52.001Z</time></trkpt><trkpt lat="15.28576964538537" lon="120.6053689627475"><ele>58.0</ele><time>2026-04-19T05:25:53.001Z</time></trkpt><trkpt lat="15.285556706700897" lon="120.60526896032668"><ele>57.5</ele><time>2026-04-19T05:25:54.001Z</time></trkpt><trkpt lat="15.28534501074568" lon="120.60517101915386"><ele>57.0</ele><time>2026-04-19T05:25:55.001Z</time></trkpt><trkpt lat="15.285132166757672" lon="120.6050733930003"><ele>57.0</ele><time>2026-04-19T05:25:56.001Z</time></trkpt><trkpt lat="15.284920193355362" lon="120.60497672168766"><ele>57.0</ele><time>2026-04-19T05:25:57Z</time></trkpt><trkpt lat="15.284709012647404" lon="120.60488004746712"><ele>58.0</ele><time>2026-04-19T05:25:58Z</time></trkpt><trkpt lat="15.2844962138651" lon="120.60478388834392"><ele>59.0</ele><time>2026-04-19T05:25:59Z</time></trkpt><trkpt lat="15.28428488181876" lon="120.60468544092952"><ele>59.0</ele><time>2026-04-19T05:26:00Z</time></trkpt><trkpt lat="15.284071607922014" lon="120.60458713693146"><ele>59.0</ele><time>2026-04-19T05:26:01Z</time></trkpt><trkpt lat="15.283855571704267" lon="120.60448767238248"><ele>59.5</ele><time>2026-04-19T05:26:02Z</time></trkpt><trkpt lat="15.283639668822646" lon="120.60438897065279"><ele>60.0</ele><time>2026-04-19T05:26:03Z</time></trkpt><trkpt lat="15.283423353761926" lon="120.60429052215501"><ele>60.0</ele><time>2026-04-19T05:26:04Z</time></trkpt><trkpt lat="15.283206680311597" lon="120.60419318934132"><ele>60.0</ele><time>2026-04-19T05:26:05Z</time></trkpt><trkpt lat="15.28298902029991" lon="120.60409593641832"><ele>60.0</ele><time>2026-04-19T05:26:06Z</time></trkpt><trkpt lat="15.282771081090967" lon="120.60399818297427"><ele>60.0</ele><time>2026-04-19T05:26:07Z</time></trkpt><trkpt lat="15.282554783170305" lon="120.60390064048639"><ele>60.0</ele><time>2026-04-19T05:26:08Z</time></trkpt><trkpt lat="15.282337079041161" lon="120.60380171555855"><ele>60.0</ele><time>2026-04-19T05:26:09Z</time></trkpt><trkpt lat="15.282118202031898" lon="120.60370340045256"><ele>60.0</ele><time>2026-04-19T05:26:10Z</time></trkpt><trkpt lat="15.281899424882797" lon="120.60360531968763"><ele>60.0</ele><time>2026-04-19T05:26:11Z</time></trkpt><trkpt lat="15.281678669333749" lon="120.60350642887549"><ele>60.0</ele><time>2026-04-19T05:26:12Z</time></trkpt><trkpt lat="15.281457576317695" lon="120.60340733283162"><ele>60.0</ele><time>2026-04-19T05:26:13Z</time></trkpt><trkpt lat="15.28123497309344" lon="120.60330873411971"><ele>61.0</ele><time>2026-04-19T05:26:14Z</time></trkpt><trkpt lat="15.281012215084308" lon="120.60321136343214"><ele>62.0</ele><time>2026-04-19T05:26:15Z</time></trkpt><trkpt lat="15.280788801984222" lon="120.60311485075678"><ele>62.0</ele><time>2026-04-19T05:26:16Z</time></trkpt><trkpt lat="15.280565156784917" lon="120.60301718311275"><ele>62.0</ele><time>2026-04-19T05:26:17Z</time></trkpt><trkpt lat="15.280340885142273" lon="120.60291831089015"><ele>62.5</ele><time>2026-04-19T05:26:18Z</time></trkpt><trkpt lat="15.280114376616245" lon="120.6028207083461"><ele>63.0</ele><time>2026-04-19T05:26:19Z</time></trkpt><trkpt lat="15.279890550679422" lon="120.60272094739375"><ele>62.5</ele><time>2026-04-19T05:26:20Z</time></trkpt><trkpt lat="15.279664707699693" lon="120.60261952252068"><ele>62.0</ele><time>2026-04-19T05:26:21Z</time></trkpt><trkpt lat="15.279437757838208" lon="120.60251930012632"><ele>62.0</ele><time>2026-04-19T05:26:22Z</time></trkpt><trkpt lat="15.279211247082005" lon="120.60241778518241"><ele>62.0</ele><time>2026-04-19T05:26:23Z</time></trkpt><trkpt lat="15.278984452126233" lon="120.6023163757646"><ele>62.0</ele><time>2026-04-19T05:26:24Z</time></trkpt><trkpt lat="15.278757397089153" lon="120.60221417628482"><ele>62.0</ele><time>2026-04-19T05:26:25Z</time></trkpt><trkpt lat="15.278529071524716" lon="120.60211304335125"><ele>62.0</ele><time>2026-04-19T05:26:26Z</time></trkpt><trkpt lat="15.278298730151123" lon="120.60201195714579"><ele>62.0</ele><time>2026-04-19T05:26:27Z</time></trkpt><trkpt lat="15.278068099290179" lon="120.60190954658155"><ele>61.5</ele><time>2026-04-19T05:26:28Z</time></trkpt><trkpt lat="15.277836068657784" lon="120.60180805488869"><ele>61.0</ele><time>2026-04-19T05:26:29Z</time></trkpt><trkpt lat="15.277602630057842" lon="120.6017056037"><ele>61.0</ele><time>2026-04-19T05:26:30Z</time></trkpt><trkpt lat="15.277369609945119" lon="120.6016019496723"><ele>61.0</ele><time>2026-04-19T05:26:31Z</time></trkpt><trkpt lat="15.277135349045494" lon="120.60149760629328"><ele>62.0</ele><time>2026-04-19T05:26:32Z</time></trkpt><trkpt lat="15.276899994991275" lon="120.60139309341307"><ele>63.0</ele><time>2026-04-19T05:26:33Z</time></trkpt><trkpt lat="15.27666378823839" lon="120.60128844826156"><ele>64.0</ele><time>2026-04-19T05:26:34Z</time></trkpt><trkpt lat="15.276426387378208" lon="120.6011831937901"><ele>65.0</ele><time>2026-04-19T05:26:35Z</time></trkpt><trkpt lat="15.276188093352156" lon="120.60107780298017"><ele>65.0</ele><time>2026-04-19T05:26:36Z</time></trkpt><trkpt lat="15.275951439175302" lon="120.60097074506746"><ele>65.0</ele><time>2026-04-19T05:26:37Z</time></trkpt><trkpt lat="15.275711273110641" lon="120.60086360497446"><ele>65.0</ele><time>2026-04-19T05:26:38Z</time></trkpt><trkpt lat="15.275471058501054" lon="120.60075557906984"><ele>65.0</ele><time>2026-04-19T05:26:39Z</time></trkpt><trkpt lat="15.275230889396324" lon="120.6006485673895"><ele>65.0</ele><time>2026-04-19T05:26:40Z</time></trkpt><trkpt lat="15.274988462597678" lon="120.6005389447894"><ele>65.0</ele><time>2026-04-19T05:26:41Z</time></trkpt><trkpt lat="15.274745404812853" lon="120.60043008319538"><ele>65.0</ele><time>2026-04-19T05:26:42Z</time></trkpt><trkpt lat="15.274500536062508" lon="120.60032282177639"><ele>65.0</ele><time>2026-04-19T05:26:43Z</time></trkpt><trkpt lat="15.274256152155164" lon="120.60021072615538"><ele>65.0</ele><time>2026-04-19T05:26:44Z</time></trkpt><trkpt lat="15.274010220203435" lon="120.60010077715799"><ele>65.0</ele><time>2026-04-19T05:26:45Z</time></trkpt><trkpt lat="15.273762677166049" lon="120.59999034386746"><ele>66.0</ele><time>2026-04-19T05:26:46Z</time></trkpt><trkpt lat="15.273516123334733" lon="120.59987806265238"><ele>67.0</ele><time>2026-04-19T05:26:47Z</time></trkpt><trkpt lat="15.27327001587402" lon="120.59976480228649"><ele>67.5</ele><time>2026-04-19T05:26:48Z</time></trkpt><trkpt lat="15.273021683138214" lon="120.59965441716528"><ele>68.0</ele><time>2026-04-19T05:26:49Z</time></trkpt><trkpt lat="15.27277430019065" lon="120.59954228079532"><ele>67.5</ele><time>2026-04-19T05:26:50Z</time></trkpt><trkpt lat="15.272527553028292" lon="120.59942865369918"><ele>67.0</ele><time>2026-04-19T05:26:51Z</time></trkpt><trkpt lat="15.272277926700772" lon="120.59931210242331"><ele>67.0</ele><time>2026-04-19T05:26:52Z</time></trkpt><trkpt lat="15.2720282141485" lon="120.59919761331744"><ele>67.0</ele><time>2026-04-19T05:26:53Z</time></trkpt><trkpt lat="15.271777111498675" lon="120.59908065980567"><ele>67.0</ele><time>2026-04-19T05:26:54Z</time></trkpt><trkpt lat="15.27152191289423" lon="120.59896763551822"><ele>67.0</ele><time>2026-04-19T05:26:55Z</time></trkpt><trkpt lat="15.271265434759217" lon="120.5988536783021"><ele>67.0</ele><time>2026-04-19T05:26:56Z</time></trkpt><trkpt lat="15.271006546609831" lon="120.5987429265444"><ele>67.0</ele><time>2026-04-19T05:26:57Z</time></trkpt><trkpt lat="15.270746660554586" lon="120.59862781010915"><ele>68.5</ele><time>2026-04-19T05:26:58Z</time></trkpt><trkpt lat="15.270484586700082" lon="120.59851232414925"><ele>70.0</ele><time>2026-04-19T05:26:59Z</time></trkpt><trkpt lat="15.270219500050098" lon="120.59839733522682"><ele>70.0</ele><time>2026-04-19T05:27:00Z</time></trkpt><trkpt lat="15.269955872500178" lon="120.5982808396271"><ele>70.0</ele><time>2026-04-19T05:27:01Z</time></trkpt><trkpt lat="15.269690493334659" lon="120.59816441602935"><ele>70.5</ele><time>2026-04-19T05:27:02Z</time></trkpt><trkpt lat="15.269423347285926" lon="120.59804833391532"><ele>71.0</ele><time>2026-04-19T05:27:03Z</time></trkpt><trkpt lat="15.269156401908814" lon="120.59793241240907"><ele>72.5</ele><time>2026-04-19T05:27:04Z</time></trkpt><trkpt lat="15.268889006251403" lon="120.59781693699654"><ele>74.0</ele><time>2026-04-19T05:27:05Z</time></trkpt><trkpt lat="15.268623328650277" lon="120.59770235161753"><ele>74.0</ele><time>2026-04-19T05:27:06Z</time></trkpt><trkpt lat="15.268357466760108" lon="120.59758905444747"><ele>74.0</ele><time>2026-04-19T05:27:07Z</time></trkpt><trkpt lat="15.268098720046858" lon="120.59747971287615"><ele>73.0</ele><time>2026-04-19T05:27:08Z</time></trkpt><trkpt lat="15.267841802187156" lon="120.59737267083692"><ele>72.0</ele><time>2026-04-19T05:27:09Z</time></trkpt><trkpt lat="15.26759005934279" lon="120.59726665644965"><ele>72.0</ele><time>2026-04-19T05:27:10Z</time></trkpt><trkpt lat="15.267344832626671" lon="120.59716103049873"><ele>72.0</ele><time>2026-04-19T05:27:11Z</time></trkpt><trkpt lat="15.26710445078484" lon="120.59705736158742"><ele>73.0</ele><time>2026-04-19T05:27:12Z</time></trkpt><trkpt lat="15.266864265104891" lon="120.59695262967921"><ele>74.0</ele><time>2026-04-19T05:27:13Z</time></trkpt><trkpt lat="15.26662418817085" lon="120.59684861459675"><ele>74.5</ele><time>2026-04-19T05:27:14Z</time></trkpt><trkpt lat="15.266383143572225" lon="120.59674696873081"><ele>75.0</ele><time>2026-04-19T05:27:15Z</time></trkpt><trkpt lat="15.266143307638568" lon="120.59664322468946"><ele>75.0</ele><time>2026-04-19T05:27:16Z</time></trkpt><trkpt lat="15.265903961262193" lon="120.5965384821859"><ele>75.0</ele><time>2026-04-19T05:27:17Z</time></trkpt><trkpt lat="15.265664662351348" lon="120.59643125904734"><ele>73.5</ele><time>2026-04-19T05:27:18Z</time></trkpt><trkpt lat="15.265424344912926" lon="120.59632393705918"><ele>72.0</ele><time>2026-04-19T05:27:19Z</time></trkpt><trkpt lat="15.265183366881248" lon="120.59621653303199"><ele>73.0</ele><time>2026-04-19T05:27:20Z</time></trkpt><trkpt lat="15.264942535307249" lon="120.59610667041996"><ele>74.0</ele><time>2026-04-19T05:27:21Z</time></trkpt><trkpt lat="15.264701139466569" lon="120.59599687813754"><ele>76.5</ele><time>2026-04-19T05:27:22Z</time></trkpt><trkpt lat="15.264459826888347" lon="120.59588794845871"><ele>79.0</ele><time>2026-04-19T05:27:23Z</time></trkpt><trkpt lat="15.264218246699029" lon="120.59577995618935"><ele>79.0</ele><time>2026-04-19T05:27:24Z</time></trkpt><trkpt lat="15.263976972276446" lon="120.59567316168233"><ele>79.0</ele><time>2026-04-19T05:27:25Z</time></trkpt><trkpt lat="15.263735265806288" lon="120.59556598702333"><ele>77.5</ele><time>2026-04-19T05:27:26Z</time></trkpt><trkpt lat="15.263491961215411" lon="120.59545781890169"><ele>76.0</ele><time>2026-04-19T05:27:27Z</time></trkpt><trkpt lat="15.263247268828723" lon="120.59534911450697"><ele>76.0</ele><time>2026-04-19T05:27:28Z</time></trkpt><trkpt lat="15.26300117024502" lon="120.59524023977225"><ele>76.0</ele><time>2026-04-19T05:27:29Z</time></trkpt><trkpt lat="15.262756222594694" lon="120.59513176478184"><ele>76.0</ele><time>2026-04-19T05:27:30Z</time></trkpt><trkpt lat="15.262510899764663" lon="120.59502188411061"><ele>76.0</ele><time>2026-04-19T05:27:31Z</time></trkpt><trkpt lat="15.262264778112872" lon="120.5949114614686"><ele>75.0</ele><time>2026-04-19T05:27:32Z</time></trkpt><trkpt lat="15.262018542590255" lon="120.594801550036"><ele>74.0</ele><time>2026-04-19T05:27:33Z</time></trkpt><trkpt lat="15.261770846749325" lon="120.59469197722945"><ele>74.0</ele><time>2026-04-19T05:27:34Z</time></trkpt><trkpt lat="15.261522767227648" lon="120.59458216091653"><ele>74.0</ele><time>2026-04-19T05:27:35Z</time></trkpt><trkpt lat="15.261274662729836" lon="120.59447222540152"><ele>75.5</ele><time>2026-04-19T05:27:36Z</time></trkpt><trkpt lat="15.261025325961118" lon="120.59436182830653"><ele>77.0</ele><time>2026-04-19T05:27:37.001Z</time></trkpt><trkpt lat="15.260777206887813" lon="120.59425090787393"><ele>77.0</ele><time>2026-04-19T05:27:38.001Z</time></trkpt><trkpt lat="15.260530153533505" lon="120.59414031086837"><ele>77.0</ele><time>2026-04-19T05:27:39.001Z</time></trkpt><trkpt lat="15.260284662205487" lon="120.59403103826544"><ele>77.0</ele><time>2026-04-19T05:27:40.001Z</time></trkpt><trkpt lat="15.260042102812982" lon="120.59392268326738"><ele>77.0</ele><time>2026-04-19T05:27:41.001Z</time></trkpt><trkpt lat="15.259799836122708" lon="120.59381661328838"><ele>77.5</ele><time>2026-04-19T05:27:42.001Z</time></trkpt><trkpt lat="15.259558145261495" lon="120.59370851920782"><ele>78.0</ele><time>2026-04-19T05:27:43.001Z</time></trkpt><trkpt lat="15.259314640066547" lon="120.5936000242807"><ele>78.5</ele><time>2026-04-19T05:27:44.001Z</time></trkpt><trkpt lat="15.25906969373318" lon="120.59349227315242"><ele>79.0</ele><time>2026-04-19T05:27:45.001Z</time></trkpt><trkpt lat="15.258823134527903" lon="120.59338342943553"><ele>79.0</ele><time>2026-04-19T05:27:46.001Z</time></trkpt><trkpt lat="15.258578726297433" lon="120.59327404129253"><ele>79.0</ele><time>2026-04-19T05:27:47.001Z</time></trkpt><trkpt lat="15.258333619957911" lon="120.59316476669252"><ele>79.5</ele><time>2026-04-19T05:27:48.001Z</time></trkpt><trkpt lat="15.258089406638298" lon="120.59305640826297"><ele>80.0</ele><time>2026-04-19T05:27:49.001Z</time></trkpt><trkpt lat="15.257843830257306" lon="120.59294681327157"><ele>80.0</ele><time>2026-04-19T05:27:50.001Z</time></trkpt><trkpt lat="15.257599337751387" lon="120.59283920717569"><ele>80.0</ele><time>2026-04-19T05:27:51.001Z</time></trkpt><trkpt lat="15.257354771241223" lon="120.59273226679396"><ele>79.0</ele><time>2026-04-19T05:27:52.001Z</time></trkpt><trkpt lat="15.257110330865268" lon="120.59262557243387"><ele>78.0</ele><time>2026-04-19T05:27:53.001Z</time></trkpt><trkpt lat="15.256865858907007" lon="120.59251896741345"><ele>78.0</ele><time>2026-04-19T05:27:54.001Z</time></trkpt><trkpt lat="15.256623310331419" lon="120.59241197664173"><ele>78.0</ele><time>2026-04-19T05:27:55.001Z</time></trkpt><trkpt lat="15.256381907481929" lon="120.59230458048623"><ele>78.5</ele><time>2026-04-19T05:27:56.001Z</time></trkpt><trkpt lat="15.256138582323308" lon="120.59219624178371"><ele>79.0</ele><time>2026-04-19T05:27:57.001Z</time></trkpt><trkpt lat="15.255896173759048" lon="120.59208974304622"><ele>79.0</ele><time>2026-04-19T05:27:58.001Z</time></trkpt><trkpt lat="15.25565657135019" lon="120.59198339131602"><ele>79.0</ele><time>2026-04-19T05:27:59.001Z</time></trkpt><trkpt lat="15.255420611770033" lon="120.59187821390212"><ele>79.0</ele><time>2026-04-19T05:28:00.001Z</time></trkpt><trkpt lat="15.255188443853852" lon="120.59177378200353"><ele>79.0</ele><time>2026-04-19T05:28:01.001Z</time></trkpt><trkpt lat="15.25495824350387" lon="120.59167254950367"><ele>79.0</ele><time>2026-04-19T05:28:02.001Z</time></trkpt><trkpt lat="15.254728668442503" lon="120.59157188850573"><ele>79.0</ele><time>2026-04-19T05:28:03Z</time></trkpt><trkpt lat="15.254497209177345" lon="120.5914695170825"><ele>79.0</ele><time>2026-04-19T05:28:04Z</time></trkpt><trkpt lat="15.25426290021187" lon="120.591365988897"><ele>79.0</ele><time>2026-04-19T05:28:05Z</time></trkpt><trkpt lat="15.254025156417464" lon="120.59126322205545"><ele>79.0</ele><time>2026-04-19T05:28:06Z</time></trkpt><trkpt lat="15.253787102260098" lon="120.5911541902482"><ele>79.0</ele><time>2026-04-19T05:28:07Z</time></trkpt><trkpt lat="15.253545524122234" lon="120.59104490115038"><ele>79.0</ele><time>2026-04-19T05:28:08Z</time></trkpt><trkpt lat="15.25329988266684" lon="120.59093397848656"><ele>79.0</ele><time>2026-04-19T05:28:09Z</time></trkpt><trkpt lat="15.25305357707051" lon="120.59081783915353"><ele>80.0</ele><time>2026-04-19T05:28:10Z</time></trkpt><trkpt lat="15.25280420890524" lon="120.5906964674744"><ele>81.0</ele><time>2026-04-19T05:28:11Z</time></trkpt><trkpt lat="15.25255352657803" lon="120.59057176286731"><ele>81.0</ele><time>2026-04-19T05:28:12Z</time></trkpt><trkpt lat="15.252300737768104" lon="120.59044502360746"><ele>81.0</ele><time>2026-04-19T05:28:13Z</time></trkpt><trkpt lat="15.252047408722783" lon="120.59031504020926"><ele>80.5</ele><time>2026-04-19T05:28:14Z</time></trkpt><trkpt lat="15.251793687383215" lon="120.59018183826173"><ele>80.0</ele><time>2026-04-19T05:28:15Z</time></trkpt><trkpt lat="15.251542152024188" lon="120.59004542560074"><ele>81.0</ele><time>2026-04-19T05:28:16Z</time></trkpt><trkpt lat="15.251292853148623" lon="120.58990284384716"><ele>82.0</ele><time>2026-04-19T05:28:17Z</time></trkpt><trkpt lat="15.251045967827128" lon="120.58975040392124"><ele>82.0</ele><time>2026-04-19T05:28:18Z</time></trkpt><trkpt lat="15.250806251617195" lon="120.58958988128103"><ele>82.0</ele><time>2026-04-19T05:28:19Z</time></trkpt><trkpt lat="15.250567469183927" lon="120.58942492635988"><ele>82.0</ele><time>2026-04-19T05:28:20Z</time></trkpt><trkpt lat="15.250335798175248" lon="120.58925311636482"><ele>82.0</ele><time>2026-04-19T05:28:21Z</time></trkpt><trkpt lat="15.250111141227707" lon="120.58907692440843"><ele>82.0</ele><time>2026-04-19T05:28:22Z</time></trkpt><trkpt lat="15.249889976926587" lon="120.58889580723257"><ele>82.0</ele><time>2026-04-19T05:28:23Z</time></trkpt><trkpt lat="15.249672045103777" lon="120.58871050709033"><ele>81.0</ele><time>2026-04-19T05:28:24Z</time></trkpt><trkpt lat="15.249458481943691" lon="120.58852107742489"><ele>80.0</ele><time>2026-04-19T05:28:25Z</time></trkpt><trkpt lat="15.249246817703822" lon="120.58832561959657"><ele>80.0</ele><time>2026-04-19T05:28:26Z</time></trkpt><trkpt lat="15.24903951365867" lon="120.5881246725941"><ele>80.0</ele><time>2026-04-19T05:28:27Z</time></trkpt><trkpt lat="15.24883529040277" lon="120.58791710563591"><ele>80.5</ele><time>2026-04-19T05:28:28Z</time></trkpt><trkpt lat="15.248637088854991" lon="120.58770330490648"><ele>81.0</ele><time>2026-04-19T05:28:29Z</time></trkpt><trkpt lat="15.24844575306556" lon="120.58748175395696"><ele>81.0</ele><time>2026-04-19T05:28:30Z</time></trkpt><trkpt lat="15.24826301326631" lon="120.5872545617524"><ele>81.0</ele><time>2026-04-19T05:28:31Z</time></trkpt><trkpt lat="15.248088557873633" lon="120.58702258142945"><ele>82.0</ele><time>2026-04-19T05:28:32Z</time></trkpt><trkpt lat="15.24791853031848" lon="120.58678609948385"><ele>83.0</ele><time>2026-04-19T05:28:33Z</time></trkpt><trkpt lat="15.247757251400458" lon="120.58654498674285"><ele>83.0</ele><time>2026-04-19T05:28:34Z</time></trkpt><trkpt lat="15.24760345477688" lon="120.58630113404288"><ele>83.0</ele><time>2026-04-19T05:28:35Z</time></trkpt><trkpt lat="15.247455294961101" lon="120.58605297867398"><ele>83.0</ele><time>2026-04-19T05:28:36Z</time></trkpt><trkpt lat="15.247312880384829" lon="120.58580309278648"><ele>83.0</ele><time>2026-04-19T05:28:37Z</time></trkpt><trkpt lat="15.24717752385145" lon="120.58555346997647"><ele>83.0</ele><time>2026-04-19T05:28:38Z</time></trkpt><trkpt lat="15.247050739622628" lon="120.58529983224332"><ele>83.0</ele><time>2026-04-19T05:28:39Z</time></trkpt><trkpt lat="15.246931649489037" lon="120.58504781203794"><ele>83.0</ele><time>2026-04-19T05:28:40Z</time></trkpt><trkpt lat="15.246815979981701" lon="120.5847925945747"><ele>83.0</ele><time>2026-04-19T05:28:41Z</time></trkpt><trkpt lat="15.246704244709521" lon="120.58453465116081"><ele>82.5</ele><time>2026-04-19T05:28:42Z</time></trkpt><trkpt lat="15.246598289271516" lon="120.5842723241469"><ele>82.0</ele><time>2026-04-19T05:28:43Z</time></trkpt><trkpt lat="15.246494477068346" lon="120.58400538181301"><ele>82.5</ele><time>2026-04-19T05:28:44Z</time></trkpt><trkpt lat="15.246391705339077" lon="120.5837378837561"><ele>83.0</ele><time>2026-04-19T05:28:45Z</time></trkpt><trkpt lat="15.246288682450572" lon="120.5834703288967"><ele>83.0</ele><time>2026-04-19T05:28:46Z</time></trkpt><trkpt lat="15.24619010981492" lon="120.58319795927292"><ele>83.0</ele><time>2026-04-19T05:28:47Z</time></trkpt><trkpt lat="15.246090637549571" lon="120.58292696961112"><ele>83.0</ele><time>2026-04-19T05:28:48Z</time></trkpt><trkpt lat="15.245991902667699" lon="120.58265504360031"><ele>83.0</ele><time>2026-04-19T05:28:49Z</time></trkpt><trkpt lat="15.245896013173164" lon="120.58238296709962"><ele>83.0</ele><time>2026-04-19T05:28:50Z</time></trkpt><trkpt lat="15.245798555121677" lon="120.58210810009419"><ele>83.0</ele><time>2026-04-19T05:28:51Z</time></trkpt><trkpt lat="15.245700890827198" lon="120.58183270039714"><ele>84.5</ele><time>2026-04-19T05:28:52Z</time></trkpt><trkpt lat="15.245603545351532" lon="120.58155729816772"><ele>86.0</ele><time>2026-04-19T05:28:53Z</time></trkpt><trkpt lat="15.245504556400387" lon="120.58128079156378"><ele>86.0</ele><time>2026-04-19T05:28:54Z</time></trkpt><trkpt lat="15.245406479301915" lon="120.58100637604898"><ele>86.0</ele><time>2026-04-19T05:28:55Z</time></trkpt><trkpt lat="15.245309002014341" lon="120.58073277612822"><ele>86.0</ele><time>2026-04-19T05:28:56Z</time></trkpt><trkpt lat="15.245210839656366" lon="120.58045894210133"><ele>86.0</ele><time>2026-04-19T05:28:57Z</time></trkpt><trkpt lat="15.245113624725661" lon="120.58018673115467"><ele>86.5</ele><time>2026-04-19T05:28:58Z</time></trkpt><trkpt lat="15.245016808630792" lon="120.5799180142079"><ele>87.0</ele><time>2026-04-19T05:28:59Z</time></trkpt><trkpt lat="15.24491977780751" lon="120.57965181651467"><ele>87.5</ele><time>2026-04-19T05:29:00Z</time></trkpt><trkpt lat="15.24482448386" lon="120.57938821498296"><ele>88.0</ele><time>2026-04-19T05:29:01Z</time></trkpt><trkpt lat="15.244728723509343" lon="120.57912495387049"><ele>88.0</ele><time>2026-04-19T05:29:02Z</time></trkpt><trkpt lat="15.244633491754897" lon="120.57886329491774"><ele>88.0</ele><time>2026-04-19T05:29:03Z</time></trkpt><trkpt lat="15.244538975472084" lon="120.57860259835536"><ele>88.0</ele><time>2026-04-19T05:29:04Z</time></trkpt><trkpt lat="15.244445127957597" lon="120.57834316121541"><ele>88.0</ele><time>2026-04-19T05:29:05Z</time></trkpt><trkpt lat="15.244351548360534" lon="120.57808497044638"><ele>88.0</ele><time>2026-04-19T05:29:06Z</time></trkpt><trkpt lat="15.244257774012253" lon="120.57782812776016"><ele>88.0</ele><time>2026-04-19T05:29:07Z</time></trkpt><trkpt lat="15.244166243390481" lon="120.57757392972226"><ele>88.0</ele><time>2026-04-19T05:29:08Z</time></trkpt><trkpt lat="15.244076721653654" lon="120.57732093116768"><ele>88.0</ele><time>2026-04-19T05:29:09Z</time></trkpt><trkpt lat="15.243987096362524" lon="120.57707071622468"><ele>88.5</ele><time>2026-04-19T05:29:10Z</time></trkpt><trkpt lat="15.24389834484655" lon="120.57682123948997"><ele>89.0</ele><time>2026-04-19T05:29:11Z</time></trkpt><trkpt lat="15.24380930148107" lon="120.57657354777304"><ele>89.0</ele><time>2026-04-19T05:29:12Z</time></trkpt><trkpt lat="15.243720522637084" lon="120.57632607807304"><ele>89.0</ele><time>2026-04-19T05:29:13Z</time></trkpt><trkpt lat="15.24363262516389" lon="120.57608173510609"><ele>90.0</ele><time>2026-04-19T05:29:14Z</time></trkpt><trkpt lat="15.243544886122505" lon="120.57583841714182"><ele>91.0</ele><time>2026-04-19T05:29:15Z</time></trkpt><trkpt lat="15.243457468998104" lon="120.57559688254379"><ele>91.0</ele><time>2026-04-19T05:29:16Z</time></trkpt><trkpt lat="15.24337148182074" lon="120.57535646449959"><ele>91.0</ele><time>2026-04-19T05:29:17Z</time></trkpt><trkpt lat="15.2432841756127" lon="120.57511769066242"><ele>92.0</ele><time>2026-04-19T05:29:18Z</time></trkpt><trkpt lat="15.243198164574716" lon="120.57487951987454"><ele>93.0</ele><time>2026-04-19T05:29:19Z</time></trkpt><trkpt lat="15.243112770126887" lon="120.57464195035858"><ele>94.5</ele><time>2026-04-19T05:29:20Z</time></trkpt><trkpt lat="15.2430286585561" lon="120.57440604397895"><ele>96.0</ele><time>2026-04-19T05:29:21Z</time></trkpt><trkpt lat="15.242944294706826" lon="120.57417005837446"><ele>96.0</ele><time>2026-04-19T05:29:22Z</time></trkpt><trkpt lat="15.242861189622277" lon="120.57393545046847"><ele>96.0</ele><time>2026-04-19T05:29:23Z</time></trkpt><trkpt lat="15.242778248115922" lon="120.57370147614154"><ele>97.5</ele><time>2026-04-19T05:29:24Z</time></trkpt><trkpt lat="15.242695337731611" lon="120.5734685465727"><ele>99.0</ele><time>2026-04-19T05:29:25Z</time></trkpt><trkpt lat="15.242613628251686" lon="120.57323747035285"><ele>99.0</ele><time>2026-04-19T05:29:26Z</time></trkpt><trkpt lat="15.242532151124141" lon="120.57300592390467"><ele>99.0</ele><time>2026-04-19T05:29:27Z</time></trkpt><trkpt lat="15.24245201242158" lon="120.57277422926943"><ele>100.0</ele><time>2026-04-19T05:29:28Z</time></trkpt><trkpt lat="15.242371654551766" lon="120.57254378402463"><ele>101.0</ele><time>2026-04-19T05:29:29Z</time></trkpt><trkpt lat="15.242289077467687" lon="120.57231537819686"><ele>99.5</ele><time>2026-04-19T05:29:30Z</time></trkpt><trkpt lat="15.242205081346045" lon="120.5720880211434"><ele>98.0</ele><time>2026-04-19T05:29:31Z</time></trkpt><trkpt lat="15.24211822565715" lon="120.57186315825122"><ele>98.0</ele><time>2026-04-19T05:29:32Z</time></trkpt><trkpt lat="15.242029585334441" lon="120.57164043790264"><ele>98.0</ele><time>2026-04-19T05:29:33Z</time></trkpt><trkpt lat="15.241934880813925" lon="120.57142083669132"><ele>98.0</ele><time>2026-04-19T05:29:34Z</time></trkpt><trkpt lat="15.24183249717387" lon="120.57120567091744"><ele>98.0</ele><time>2026-04-19T05:29:35Z</time></trkpt><trkpt lat="15.241722775104806" lon="120.57099336669081"><ele>99.5</ele><time>2026-04-19T05:29:36Z</time></trkpt><trkpt lat="15.241607132108816" lon="120.57078102982899"><ele>101.0</ele><time>2026-04-19T05:29:37Z</time></trkpt><trkpt lat="15.241484306557533" lon="120.57057221064893"><ele>101.0</ele><time>2026-04-19T05:29:38Z</time></trkpt><trkpt lat="15.241352268823299" lon="120.57036659148504"><ele>101.0</ele><time>2026-04-19T05:29:39Z</time></trkpt><trkpt lat="15.241211723446508" lon="120.57016464793605"><ele>101.0</ele><time>2026-04-19T05:29:40Z</time></trkpt><trkpt lat="15.241064115857114" lon="120.56996543732394"><ele>101.0</ele><time>2026-04-19T05:29:41Z</time></trkpt><trkpt lat="15.240907545969359" lon="120.56977091301633"><ele>101.0</ele><time>2026-04-19T05:29:42Z</time></trkpt><trkpt lat="15.240743296105562" lon="120.56957988435974"><ele>101.0</ele><time>2026-04-19T05:29:43Z</time></trkpt><trkpt lat="15.240573346997524" lon="120.56939344086516"><ele>101.5</ele><time>2026-04-19T05:29:44Z</time></trkpt><trkpt lat="15.240399092750696" lon="120.56921452485615"><ele>102.0</ele><time>2026-04-19T05:29:45Z</time></trkpt><trkpt lat="15.240221987780012" lon="120.56904236044033"><ele>102.0</ele><time>2026-04-19T05:29:46Z</time></trkpt><trkpt lat="15.240038894084575" lon="120.56887901504713"><ele>102.0</ele><time>2026-04-19T05:29:47Z</time></trkpt><trkpt lat="15.239852172595624" lon="120.56872191945183"><ele>104.5</ele><time>2026-04-19T05:29:48Z</time></trkpt><trkpt lat="15.239665303083326" lon="120.56857362255626"><ele>107.0</ele><time>2026-04-19T05:29:49Z</time></trkpt><trkpt lat="15.239472288848239" lon="120.56843089982475"><ele>107.0</ele><time>2026-04-19T05:29:50Z</time></trkpt><trkpt lat="15.239275392926205" lon="120.56829741057291"><ele>107.0</ele><time>2026-04-19T05:29:51Z</time></trkpt><trkpt lat="15.23907295956521" lon="120.56817021800204"><ele>106.0</ele><time>2026-04-19T05:29:52Z</time></trkpt><trkpt lat="15.23886510580547" lon="120.56804814649024"><ele>105.0</ele><time>2026-04-19T05:29:53Z</time></trkpt><trkpt lat="15.23865130629198" lon="120.56793163165675"><ele>106.0</ele><time>2026-04-19T05:29:54Z</time></trkpt><trkpt lat="15.23843312270181" lon="120.56781972905186"><ele>107.0</ele><time>2026-04-19T05:29:55Z</time></trkpt><trkpt lat="15.23820940569852" lon="120.56771514356915"><ele>107.0</ele><time>2026-04-19T05:29:56Z</time></trkpt><trkpt lat="15.237979313240034" lon="120.5676198046137"><ele>107.0</ele><time>2026-04-19T05:29:57Z</time></trkpt><trkpt lat="15.237744672565215" lon="120.56752871212963"><ele>107.0</ele><time>2026-04-19T05:29:58Z</time></trkpt><trkpt lat="15.237505141175577" lon="120.56744476177028"><ele>107.0</ele><time>2026-04-19T05:29:59Z</time></trkpt><trkpt lat="15.237261897591454" lon="120.56737127804767"><ele>106.5</ele><time>2026-04-19T05:30:00Z</time></trkpt><trkpt lat="15.237016067480255" lon="120.56730718168443"><ele>106.0</ele><time>2026-04-19T05:30:01Z</time></trkpt><trkpt lat="15.236766248542148" lon="120.56725025980371"><ele>106.0</ele><time>2026-04-19T05:30:02Z</time></trkpt><trkpt lat="15.236514460079684" lon="120.56720386837253"><ele>106.0</ele><time>2026-04-19T05:30:03.001Z</time></trkpt><trkpt lat="15.236261207789704" lon="120.56716587826519"><ele>106.5</ele><time>2026-04-19T05:30:04.001Z</time></trkpt><trkpt lat="15.236006200946512" lon="120.56713717690214"><ele>107.0</ele><time>2026-04-19T05:30:05.001Z</time></trkpt><trkpt lat="15.235749972071783" lon="120.56711721404548"><ele>107.0</ele><time>2026-04-19T05:30:06.001Z</time></trkpt><trkpt lat="15.235492320856645" lon="120.5671087002692"><ele>107.0</ele><time>2026-04-19T05:30:07.001Z</time></trkpt><trkpt lat="15.235233320962923" lon="120.56710739384864"><ele>107.0</ele><time>2026-04-19T05:30:08.001Z</time></trkpt><trkpt lat="15.234974455783924" lon="120.56711699582641"><ele>107.0</ele><time>2026-04-19T05:30:09Z</time></trkpt><trkpt lat="15.234716632622234" lon="120.56713338521396"><ele>107.5</ele><time>2026-04-19T05:30:10Z</time></trkpt><trkpt lat="15.2344564768093" lon="120.56713137383662"><ele>108.0</ele><time>2026-04-19T05:30:11Z</time></trkpt><trkpt lat="15.234194923791607" lon="120.56719774690198"><ele>108.5</ele><time>2026-04-19T05:30:12Z</time></trkpt><trkpt lat="15.233934153984233" lon="120.56724445833268"><ele>109.0</ele><time>2026-04-19T05:30:13Z</time></trkpt><trkpt lat="15.233671858569608" lon="120.56729933658984"><ele>109.0</ele><time>2026-04-19T05:30:14Z</time></trkpt><trkpt lat="15.233409904668186" lon="120.56735859250128"><ele>109.0</ele><time>2026-04-19T05:30:15Z</time></trkpt><trkpt lat="15.233146395993383" lon="120.56742051925474"><ele>106.0</ele><time>2026-04-19T05:30:16Z</time></trkpt><trkpt lat="15.232882145156342" lon="120.56748873093531"><ele>103.0</ele><time>2026-04-19T05:30:17Z</time></trkpt><trkpt lat="15.232616949743043" lon="120.56756185423157"><ele>103.0</ele><time>2026-04-19T05:30:18Z</time></trkpt><trkpt lat="15.232352542297553" lon="120.5676358043274"><ele>103.0</ele><time>2026-04-19T05:30:19Z</time></trkpt><trkpt lat="15.232087991327921" lon="120.56771054727155"><ele>104.5</ele><time>2026-04-19T05:30:20Z</time></trkpt><trkpt lat="15.231823223591075" lon="120.56778153398601"><ele>106.0</ele><time>2026-04-19T05:30:21Z</time></trkpt><trkpt lat="15.231558434593676" lon="120.56785561915909"><ele>107.5</ele><time>2026-04-19T05:30:22Z</time></trkpt><trkpt lat="15.231292230872793" lon="120.5679334353969"><ele>109.0</ele><time>2026-04-19T05:30:23Z</time></trkpt><trkpt lat="15.231025522824806" lon="120.56800969242873"><ele>109.0</ele><time>2026-04-19T05:30:24Z</time></trkpt><trkpt lat="15.230760006781376" lon="120.56808642044088"><ele>109.0</ele><time>2026-04-19T05:30:25Z</time></trkpt><trkpt lat="15.230494013251633" lon="120.56816253512613"><ele>108.0</ele><time>2026-04-19T05:30:26Z</time></trkpt><trkpt lat="15.230232474909075" lon="120.56823821390732"><ele>107.0</ele><time>2026-04-19T05:30:27Z</time></trkpt><trkpt lat="15.229973999446981" lon="120.56831028029255"><ele>106.5</ele><time>2026-04-19T05:30:28Z</time></trkpt><trkpt lat="15.229717488869587" lon="120.5683832965823"><ele>106.0</ele><time>2026-04-19T05:30:29Z</time></trkpt><trkpt lat="15.22946181539255" lon="120.56845582019325"><ele>106.0</ele><time>2026-04-19T05:30:30Z</time></trkpt><trkpt lat="15.22920552884089" lon="120.56852713780377"><ele>106.0</ele><time>2026-04-19T05:30:31Z</time></trkpt><trkpt lat="15.228949614471125" lon="120.56860024837584"><ele>106.0</ele><time>2026-04-19T05:30:32Z</time></trkpt><trkpt lat="15.228693946654696" lon="120.56867337523818"><ele>106.0</ele><time>2026-04-19T05:30:33Z</time></trkpt><trkpt lat="15.228439044715369" lon="120.5687462358702"><ele>107.0</ele><time>2026-04-19T05:30:34Z</time></trkpt><trkpt lat="15.228184800718129" lon="120.56881957342823"><ele>108.0</ele><time>2026-04-19T05:30:35Z</time></trkpt><trkpt lat="15.227934929900988" lon="120.5688938308961"><ele>108.5</ele><time>2026-04-19T05:30:36Z</time></trkpt><trkpt lat="15.227689025435279" lon="120.56896755563103"><ele>109.0</ele><time>2026-04-19T05:30:37Z</time></trkpt><trkpt lat="15.22744512419538" lon="120.56904278799686"><ele>108.5</ele><time>2026-04-19T05:30:38Z</time></trkpt><trkpt lat="15.227204039788184" lon="120.56911655769171"><ele>108.0</ele><time>2026-04-19T05:30:39Z</time></trkpt><trkpt lat="15.226964401205365" lon="120.56918880583589"><ele>108.0</ele><time>2026-04-19T05:30:40Z</time></trkpt><trkpt lat="15.226723214276692" lon="120.56926121928328"><ele>108.0</ele><time>2026-04-19T05:30:41Z</time></trkpt><trkpt lat="15.226483747057685" lon="120.56932937656057"><ele>109.5</ele><time>2026-04-19T05:30:42Z</time></trkpt><trkpt lat="15.226243519428415" lon="120.56939830301447"><ele>111.0</ele><time>2026-04-19T05:30:43Z</time></trkpt><trkpt lat="15.226005653969107" lon="120.56946797214032"><ele>111.0</ele><time>2026-04-19T05:30:44Z</time></trkpt><trkpt lat="15.22576473483724" lon="120.5695371263147"><ele>111.0</ele><time>2026-04-19T05:30:45Z</time></trkpt><trkpt lat="15.225522002697687" lon="120.56960532823601"><ele>110.0</ele><time>2026-04-19T05:30:46Z</time></trkpt><trkpt lat="15.225278114318927" lon="120.56967534587794"><ele>109.0</ele><time>2026-04-19T05:30:47Z</time></trkpt><trkpt lat="15.225031408442389" lon="120.56974587240589"><ele>108.5</ele><time>2026-04-19T05:30:48Z</time></trkpt><trkpt lat="15.224782704735313" lon="120.56981588980973"><ele>108.0</ele><time>2026-04-19T05:30:49Z</time></trkpt><trkpt lat="15.224532768750876" lon="120.56988679433594"><ele>108.0</ele><time>2026-04-19T05:30:50Z</time></trkpt><trkpt lat="15.224282214978956" lon="120.56995688476691"><ele>108.0</ele><time>2026-04-19T05:30:51Z</time></trkpt><trkpt lat="15.224029355883557" lon="120.57002790366005"><ele>107.5</ele><time>2026-04-19T05:30:52Z</time></trkpt><trkpt lat="15.223775557883322" lon="120.57009977136954"><ele>107.0</ele><time>2026-04-19T05:30:53Z</time></trkpt><trkpt lat="15.223522928934816" lon="120.57017020725107"><ele>107.0</ele><time>2026-04-19T05:30:54Z</time></trkpt><trkpt lat="15.223267238697133" lon="120.5702421773291"><ele>107.0</ele><time>2026-04-19T05:30:55Z</time></trkpt><trkpt lat="15.223015171593703" lon="120.57031468821242"><ele>106.0</ele><time>2026-04-19T05:30:56Z</time></trkpt><trkpt lat="15.222764358403884" lon="120.57038445405144"><ele>105.0</ele><time>2026-04-19T05:30:57Z</time></trkpt><trkpt lat="15.222513644472047" lon="120.57045373981997"><ele>107.0</ele><time>2026-04-19T05:30:58Z</time></trkpt><trkpt lat="15.222266775209865" lon="120.57052346373527"><ele>109.0</ele><time>2026-04-19T05:30:59Z</time></trkpt><trkpt lat="15.22201849659037" lon="120.57059454912662"><ele>109.0</ele><time>2026-04-19T05:31:00Z</time></trkpt><trkpt lat="15.221770599248508" lon="120.57066453978757"><ele>109.0</ele><time>2026-04-19T05:31:01Z</time></trkpt><trkpt lat="15.221523728907336" lon="120.57073341282918"><ele>111.5</ele><time>2026-04-19T05:31:02Z</time></trkpt><trkpt lat="15.221276540125805" lon="120.57080282320722"><ele>114.0</ele><time>2026-04-19T05:31:03Z</time></trkpt><trkpt lat="15.221032161900634" lon="120.57087397652721"><ele>114.0</ele><time>2026-04-19T05:31:04Z</time></trkpt><trkpt lat="15.220786376465735" lon="120.57094509060502"><ele>114.0</ele><time>2026-04-19T05:31:05Z</time></trkpt><trkpt lat="15.220541754360664" lon="120.57101467252187"><ele>115.5</ele><time>2026-04-19T05:31:06Z</time></trkpt><trkpt lat="15.220297342877673" lon="120.57108436847106"><ele>117.0</ele><time>2026-04-19T05:31:07Z</time></trkpt><trkpt lat="15.220056281852175" lon="120.571154177873"><ele>113.5</ele><time>2026-04-19T05:31:08Z</time></trkpt><trkpt lat="15.219815749049946" lon="120.57122312770679"><ele>110.0</ele><time>2026-04-19T05:31:09Z</time></trkpt><trkpt lat="15.219578957816694" lon="120.57128939986374"><ele>110.0</ele><time>2026-04-19T05:31:10Z</time></trkpt><trkpt lat="15.219345782183094" lon="120.57135507807239"><ele>110.0</ele><time>2026-04-19T05:31:11Z</time></trkpt><trkpt lat="15.219115924494513" lon="120.57142041895301"><ele>110.0</ele><time>2026-04-19T05:31:12Z</time></trkpt><trkpt lat="15.218886067366789" lon="120.57148539863263"><ele>110.0</ele><time>2026-04-19T05:31:13Z</time></trkpt><trkpt lat="15.21865801360171" lon="120.57155010886541"><ele>110.0</ele><time>2026-04-19T05:31:14Z</time></trkpt><trkpt lat="15.218430526709138" lon="120.57161394285038"><ele>110.0</ele><time>2026-04-19T05:31:15Z</time></trkpt><trkpt lat="15.218202903003359" lon="120.57167879251826"><ele>110.0</ele><time>2026-04-19T05:31:16Z</time></trkpt><trkpt lat="15.217976312195374" lon="120.57174272887242"><ele>110.0</ele><time>2026-04-19T05:31:17Z</time></trkpt><trkpt lat="15.21774839667502" lon="120.57180864531274"><ele>110.0</ele><time>2026-04-19T05:31:18Z</time></trkpt><trkpt lat="15.217520451360734" lon="120.57187239904407"><ele>110.0</ele><time>2026-04-19T05:31:19Z</time></trkpt><trkpt lat="15.217291191563683" lon="120.57193676149693"><ele>109.5</ele><time>2026-04-19T05:31:20Z</time></trkpt><trkpt lat="15.217061414576797" lon="120.57200045228353"><ele>109.0</ele><time>2026-04-19T05:31:21Z</time></trkpt><trkpt lat="15.216829738957912" lon="120.57206463590789"><ele>109.0</ele><time>2026-04-19T05:31:22Z</time></trkpt><trkpt lat="15.216596332609994" lon="120.5721291912764"><ele>109.0</ele><time>2026-04-19T05:31:23Z</time></trkpt><trkpt lat="15.21636256496854" lon="120.57219481749755"><ele>110.0</ele><time>2026-04-19T05:31:24Z</time></trkpt><trkpt lat="15.216126407516601" lon="120.57226227951134"><ele>111.0</ele><time>2026-04-19T05:31:25Z</time></trkpt><trkpt lat="15.215890408483109" lon="120.57233126563487"><ele>111.0</ele><time>2026-04-19T05:31:26Z</time></trkpt><trkpt lat="15.215652521436533" lon="120.57239999185211"><ele>111.0</ele><time>2026-04-19T05:31:27Z</time></trkpt><trkpt lat="15.215413317684662" lon="120.57246896645303"><ele>111.0</ele><time>2026-04-19T05:31:28Z</time></trkpt><trkpt lat="15.21517027149672" lon="120.5725386858112"><ele>111.0</ele><time>2026-04-19T05:31:29Z</time></trkpt><trkpt lat="15.21492397188038" lon="120.57260714577626"><ele>111.0</ele><time>2026-04-19T05:31:30Z</time></trkpt><trkpt lat="15.214674733113188" lon="120.57267592949454"><ele>111.0</ele><time>2026-04-19T05:31:31Z</time></trkpt><trkpt lat="15.214422510555973" lon="120.57274737478413"><ele>111.0</ele><time>2026-04-19T05:31:32Z</time></trkpt><trkpt lat="15.214169257142792" lon="120.57282046866176"><ele>111.0</ele><time>2026-04-19T05:31:33Z</time></trkpt><trkpt lat="15.213911116228356" lon="120.57289277836101"><ele>108.5</ele><time>2026-04-19T05:31:34Z</time></trkpt><trkpt lat="15.21365124387772" lon="120.57296643902686"><ele>106.0</ele><time>2026-04-19T05:31:35Z</time></trkpt><trkpt lat="15.213388082593182" lon="120.57304013496011"><ele>105.0</ele><time>2026-04-19T05:31:36Z</time></trkpt><trkpt lat="15.213121440604853" lon="120.5731145715107"><ele>104.0</ele><time>2026-04-19T05:31:37Z</time></trkpt><trkpt lat="15.212854062594737" lon="120.57318958982765"><ele>104.0</ele><time>2026-04-19T05:31:38Z</time></trkpt><trkpt lat="15.212585802266227" lon="120.57326419066915"><ele>104.0</ele><time>2026-04-19T05:31:39Z</time></trkpt><trkpt lat="15.212318622796216" lon="120.57334035982115"><ele>105.0</ele><time>2026-04-19T05:31:40Z</time></trkpt><trkpt lat="15.212051394304169" lon="120.57341494989852"><ele>106.0</ele><time>2026-04-19T05:31:41Z</time></trkpt><trkpt lat="15.211785342535938" lon="120.57349111889897"><ele>106.0</ele><time>2026-04-19T05:31:42Z</time></trkpt><trkpt lat="15.211520225195542" lon="120.57356953598148"><ele>106.0</ele><time>2026-04-19T05:31:43Z</time></trkpt><trkpt lat="15.211253987626945" lon="120.5736481123307"><ele>108.0</ele><time>2026-04-19T05:31:44Z</time></trkpt><trkpt lat="15.21098853641843" lon="120.57372488773431"><ele>110.0</ele><time>2026-04-19T05:31:45Z</time></trkpt><trkpt lat="15.210721965301312" lon="120.57380207346068"><ele>110.5</ele><time>2026-04-19T05:31:46Z</time></trkpt><trkpt lat="15.21045507540134" lon="120.57387920907415"><ele>111.0</ele><time>2026-04-19T05:31:47Z</time></trkpt><trkpt lat="15.210188517925383" lon="120.57395523959606"><ele>111.0</ele><time>2026-04-19T05:31:48Z</time></trkpt><trkpt lat="15.2099219944838" lon="120.57403077371093"><ele>111.0</ele><time>2026-04-19T05:31:49Z</time></trkpt><trkpt lat="15.209655808373812" lon="120.57410644849061"><ele>110.5</ele><time>2026-04-19T05:31:50Z</time></trkpt><trkpt lat="15.209393183376607" lon="120.57418139459486"><ele>110.0</ele><time>2026-04-19T05:31:51Z</time></trkpt><trkpt lat="15.209136585041406" lon="120.5742550076179"><ele>110.5</ele><time>2026-04-19T05:31:52Z</time></trkpt><trkpt lat="15.208887080677787" lon="120.57432630276632"><ele>111.0</ele><time>2026-04-19T05:31:53Z</time></trkpt><trkpt lat="15.208648355762302" lon="120.57439645429555"><ele>111.0</ele><time>2026-04-19T05:31:54Z</time></trkpt><trkpt lat="15.208420429390955" lon="120.57446373894216"><ele>111.0</ele><time>2026-04-19T05:31:55Z</time></trkpt><trkpt lat="15.208204068513782" lon="120.57452500514465"><ele>110.66666666666666</ele><time>2026-04-19T05:31:56Z</time></trkpt><trkpt lat="15.207998057327112" lon="120.57458409752867"><ele>110.33333333333333</ele><time>2026-04-19T05:31:57Z</time></trkpt><trkpt lat="15.207801935233093" lon="120.5746382096171"><ele>110.0</ele><time>2026-04-19T05:31:58Z</time></trkpt><trkpt lat="15.207606423082261" lon="120.57469265872311"><ele>110.0</ele><time>2026-04-19T05:31:59Z</time></trkpt><trkpt lat="15.207410322974017" lon="120.57474726050081"><ele>110.0</ele><time>2026-04-19T05:32:00Z</time></trkpt><trkpt lat="15.207215905208258" lon="120.57479822535136"><ele>110.0</ele><time>2026-04-19T05:32:01Z</time></trkpt><trkpt lat="15.207017961741316" lon="120.57485047163844"><ele>110.33333333333333</ele><time>2026-04-19T05:32:02Z</time></trkpt><trkpt lat="15.20681989048082" lon="120.57490187843203"><ele>110.66666666666666</ele><time>2026-04-19T05:32:03Z</time></trkpt><trkpt lat="15.206621644993879" lon="120.57495097178048"><ele>111.0</ele><time>2026-04-19T05:32:04Z</time></trkpt><trkpt lat="15.20642683409107" lon="120.57499964821292"><ele>111.33333333333334</ele><time>2026-04-19T05:32:05Z</time></trkpt><trkpt lat="15.206233134939989" lon="120.57504637922467"><ele>111.66666666666667</ele><time>2026-04-19T05:32:06Z</time></trkpt><trkpt lat="15.2060447722628" lon="120.5750896765438"><ele>112.0</ele><time>2026-04-19T05:32:07Z</time></trkpt><trkpt lat="15.205854471491008" lon="120.5751280390333"><ele>112.0</ele><time>2026-04-19T05:32:08Z</time></trkpt><trkpt lat="15.205667062949935" lon="120.57516672303848"><ele>112.0</ele><time>2026-04-19T05:32:09Z</time></trkpt><trkpt lat="15.205477458730323" lon="120.57520624805602"><ele>112.0</ele><time>2026-04-19T05:32:10Z</time></trkpt><trkpt lat="15.205286313286672" lon="120.57524714710156"><ele>111.66666666666667</ele><time>2026-04-19T05:32:11Z</time></trkpt><trkpt lat="15.205092202045023" lon="120.57528623973562"><ele>111.33333333333334</ele><time>2026-04-19T05:32:12.001Z</time></trkpt><trkpt lat="15.204889848458455" lon="120.57532485368418"><ele>111.0</ele><time>2026-04-19T05:32:13.001Z</time></trkpt><trkpt lat="15.204680819476179" lon="120.57535929586527"><ele>111.0</ele><time>2026-04-19T05:32:14.001Z</time></trkpt><trkpt lat="15.204470065186499" lon="120.57539415919697"><ele>111.0</ele><time>2026-04-19T05:32:15Z</time></trkpt><trkpt lat="15.204262823697766" lon="120.57542702282306"><ele>111.0</ele><time>2026-04-19T05:32:16Z</time></trkpt><trkpt lat="15.204049496056115" lon="120.57545702818305"><ele>111.66666666666666</ele><time>2026-04-19T05:32:17Z</time></trkpt><trkpt lat="15.203831414603401" lon="120.57548596719252"><ele>112.33333333333333</ele><time>2026-04-19T05:32:18Z</time></trkpt><trkpt lat="15.203609694051506" lon="120.57551285053108"><ele>113.0</ele><time>2026-04-19T05:32:19Z</time></trkpt><trkpt lat="15.203382957374329" lon="120.57553578226377"><ele>114.0</ele><time>2026-04-19T05:32:20Z</time></trkpt><trkpt lat="15.203153890316024" lon="120.5755555951105"><ele>115.0</ele><time>2026-04-19T05:32:21Z</time></trkpt><trkpt lat="15.202923859423445" lon="120.57557116418756"><ele>115.0</ele><time>2026-04-19T05:32:22Z</time></trkpt><trkpt lat="15.202693783575922" lon="120.57558274856981"><ele>115.0</ele><time>2026-04-19T05:32:23Z</time></trkpt><trkpt lat="15.202469102752447" lon="120.57559257072656"><ele>115.0</ele><time>2026-04-19T05:32:24Z</time></trkpt><trkpt lat="15.202241505855806" lon="120.5756040124711"><ele>115.0</ele><time>2026-04-19T05:32:25Z</time></trkpt><trkpt lat="15.202024173471704" lon="120.57561483531644"><ele>115.0</ele><time>2026-04-19T05:32:26Z</time></trkpt><trkpt lat="15.201810465097028" lon="120.57564586322974"><ele>115.0</ele><time>2026-04-19T05:32:27Z</time></trkpt><trkpt lat="15.201599357344941" lon="120.57566009270253"><ele>115.0</ele><time>2026-04-19T05:32:28Z</time></trkpt><trkpt lat="15.20139301594765" lon="120.5756678005085"><ele>115.0</ele><time>2026-04-19T05:32:29Z</time></trkpt><trkpt lat="15.201191949290894" lon="120.57567439535387"><ele>115.0</ele><time>2026-04-19T05:32:30Z</time></trkpt><trkpt lat="15.200993478840411" lon="120.57568043119335"><ele>115.0</ele><time>2026-04-19T05:32:31Z</time></trkpt><trkpt lat="15.200803169546377" lon="120.5756862188347"><ele>115.0</ele><time>2026-04-19T05:32:32Z</time></trkpt><trkpt lat="15.200615733918964" lon="120.57569191902473"><ele>115.66666666666667</ele><time>2026-04-19T05:32:33Z</time></trkpt><trkpt lat="15.200435680290392" lon="120.57569739471685"><ele>116.33333333333334</ele><time>2026-04-19T05:32:34Z</time></trkpt><trkpt lat="15.200262134747748" lon="120.57564278029055"><ele>117.0</ele><time>2026-04-19T05:32:35Z</time></trkpt><trkpt lat="15.200100351216571" lon="120.57560852307923"><ele>117.0</ele><time>2026-04-19T05:32:36Z</time></trkpt><trkpt lat="15.19995012867598" lon="120.57555322295734"><ele>117.0</ele><time>2026-04-19T05:32:37Z</time></trkpt><trkpt lat="15.199820074709866" lon="120.57547550870207"><ele>117.0</ele><time>2026-04-19T05:32:38Z</time></trkpt><trkpt lat="15.199711791820233" lon="120.57537616523625"><ele>116.5</ele><time>2026-04-19T05:32:39Z</time></trkpt><trkpt lat="15.199617079343325" lon="120.57525921302695"><ele>116.0</ele><time>2026-04-19T05:32:40Z</time></trkpt><trkpt lat="15.199544990914813" lon="120.57512860362417"><ele>115.5</ele><time>2026-04-19T05:32:41Z</time></trkpt><trkpt lat="15.199489589508424" lon="120.57498163911649"><ele>115.0</ele><time>2026-04-19T05:32:42Z</time></trkpt><trkpt lat="15.199439178668204" lon="120.57483749674506"><ele>115.0</ele><time>2026-04-19T05:32:43Z</time></trkpt><trkpt lat="15.199388783170042" lon="120.57469367575527"><ele>115.0</ele><time>2026-04-19T05:32:44Z</time></trkpt><trkpt lat="15.199329808179668" lon="120.57455075501784"><ele>115.0</ele><time>2026-04-19T05:32:45Z</time></trkpt><trkpt lat="15.199263564088797" lon="120.57440691001659"><ele>115.25</ele><time>2026-04-19T05:32:46Z</time></trkpt><trkpt lat="15.199188820437941" lon="120.57426991511066"><ele>115.5</ele><time>2026-04-19T05:32:47Z</time></trkpt><trkpt lat="15.199103074107345" lon="120.5741456983814"><ele>115.75</ele><time>2026-04-19T05:32:48Z</time></trkpt><trkpt lat="15.199005902239739" lon="120.57403194964016"><ele>116.0</ele><time>2026-04-19T05:32:49Z</time></trkpt><trkpt lat="15.198891156102665" lon="120.57393756918385"><ele>116.0</ele><time>2026-04-19T05:32:50Z</time></trkpt><trkpt lat="15.198765914795263" lon="120.57385788467644"><ele>116.0</ele><time>2026-04-19T05:32:51Z</time></trkpt><trkpt lat="15.198628513380145" lon="120.57379741767627"><ele>116.0</ele><time>2026-04-19T05:32:52Z</time></trkpt><trkpt lat="15.198481874032415" lon="120.57375636671948"><ele>116.0</ele><time>2026-04-19T05:32:53Z</time></trkpt><trkpt lat="15.198337931402637" lon="120.57374268723817"><ele>116.0</ele><time>2026-04-19T05:32:54Z</time></trkpt><trkpt lat="15.198188309902886" lon="120.57374773449108"><ele>116.0</ele><time>2026-04-19T05:32:55Z</time></trkpt><trkpt lat="15.19804365426981" lon="120.57377640167537"><ele>116.0</ele><time>2026-04-19T05:32:56Z</time></trkpt><trkpt lat="15.197909502731298" lon="120.57382686881321"><ele>116.0</ele><time>2026-04-19T05:32:57Z</time></trkpt><trkpt lat="15.19779075076779" lon="120.57390552445105"><ele>116.25</ele><time>2026-04-19T05:32:58Z</time></trkpt><trkpt lat="15.197684938059327" lon="120.57399839587167"><ele>116.5</ele><time>2026-04-19T05:32:59Z</time></trkpt><trkpt lat="15.197590481931048" lon="120.57410758487471"><ele>116.75</ele><time>2026-04-19T05:33:00Z</time></trkpt><trkpt lat="15.197509274706151" lon="120.57422580200696"><ele>117.0</ele><time>2026-04-19T05:33:01Z</time></trkpt><trkpt lat="15.1974423618332" lon="120.57435470045249"><ele>117.0</ele><time>2026-04-19T05:33:02Z</time></trkpt><trkpt lat="15.197386180643592" lon="120.57449151856784"><ele>117.0</ele><time>2026-04-19T05:33:03Z</time></trkpt><trkpt lat="15.197339611347251" lon="120.574635630385"><ele>117.0</ele><time>2026-04-19T05:33:04Z</time></trkpt><trkpt lat="15.197306055658402" lon="120.57477787089749"><ele>117.0</ele><time>2026-04-19T05:33:05Z</time></trkpt><trkpt lat="15.197279701751736" lon="120.57492526605225"><ele>116.5</ele><time>2026-04-19T05:33:06Z</time></trkpt><trkpt lat="15.197264499282067" lon="120.57507201479198"><ele>116.0</ele><time>2026-04-19T05:33:07Z</time></trkpt><trkpt lat="15.197258626150518" lon="120.57521476768902"><ele>115.5</ele><time>2026-04-19T05:33:08Z</time></trkpt><trkpt lat="15.197258679259534" lon="120.57536084429064"><ele>115.0</ele><time>2026-04-19T05:33:09Z</time></trkpt><trkpt lat="15.197260896642856" lon="120.57550749528521"><ele>114.75</ele><time>2026-04-19T05:33:10Z</time></trkpt><trkpt lat="15.197266824161222" lon="120.57565700919568"><ele>114.5</ele><time>2026-04-19T05:33:11Z</time></trkpt><trkpt lat="15.197274480248868" lon="120.57580955773805"><ele>114.25</ele><time>2026-04-19T05:33:12Z</time></trkpt><trkpt lat="15.197280837773402" lon="120.5759690982603"><ele>114.0</ele><time>2026-04-19T05:33:13Z</time></trkpt><trkpt lat="15.197286548400522" lon="120.57613384610134"><ele>113.33333333333334</ele><time>2026-04-19T05:33:14Z</time></trkpt><trkpt lat="15.19729632044453" lon="120.57630233480077"><ele>112.66666666666667</ele><time>2026-04-19T05:33:15Z</time></trkpt><trkpt lat="15.197303057035901" lon="120.57647532288918"><ele>112.0</ele><time>2026-04-19T05:33:16Z</time></trkpt><trkpt lat="15.197309497645028" lon="120.57665323747665"><ele>112.0</ele><time>2026-04-19T05:33:17Z</time></trkpt><trkpt lat="15.197316862270572" lon="120.57683525181807"><ele>112.0</ele><time>2026-04-19T05:33:18Z</time></trkpt><trkpt lat="15.197324367381304" lon="120.57702050208796"><ele>112.0</ele><time>2026-04-19T05:33:19Z</time></trkpt><trkpt lat="15.19733257342895" lon="120.57720603810034"><ele>112.33333333333334</ele><time>2026-04-19T05:33:20Z</time></trkpt><trkpt lat="15.197338771565198" lon="120.5773957425358"><ele>112.66666666666666</ele><time>2026-04-19T05:33:21Z</time></trkpt><trkpt lat="15.197346113833039" lon="120.57758827369885"><ele>113.0</ele><time>2026-04-19T05:33:22Z</time></trkpt><trkpt lat="15.197352439695623" lon="120.57778299898405"><ele>112.0</ele><time>2026-04-19T05:33:23Z</time></trkpt><trkpt lat="15.197353279616035" lon="120.57797597400646"><ele>111.0</ele><time>2026-04-19T05:33:24Z</time></trkpt><trkpt lat="15.197356922865751" lon="120.57816894604987"><ele>110.0</ele><time>2026-04-19T05:33:25Z</time></trkpt><trkpt lat="15.197362807200088" lon="120.57835988912007"><ele>110.0</ele><time>2026-04-19T05:33:26Z</time></trkpt><trkpt lat="15.197366590092537" lon="120.57854524831623"><ele>110.0</ele><time>2026-04-19T05:33:27Z</time></trkpt><trkpt lat="15.197369938085297" lon="120.57872654584253"><ele>110.0</ele><time>2026-04-19T05:33:28Z</time></trkpt><trkpt lat="15.197373264932924" lon="120.57890358223754"><ele>109.66666666666666</ele><time>2026-04-19T05:33:29Z</time></trkpt><trkpt lat="15.197376475407822" lon="120.57907655324644"><ele>109.33333333333334</ele><time>2026-04-19T05:33:30Z</time></trkpt><trkpt lat="15.19737967492158" lon="120.57924268024409"><ele>109.0</ele><time>2026-04-19T05:33:31Z</time></trkpt><trkpt lat="15.19738317233693" lon="120.57940169562553"><ele>108.5</ele><time>2026-04-19T05:33:32Z</time></trkpt><trkpt lat="15.19738633277756" lon="120.57955056568552"><ele>108.0</ele><time>2026-04-19T05:33:33Z</time></trkpt><trkpt lat="15.197390567074041" lon="120.57968615413432"><ele>107.5</ele><time>2026-04-19T05:33:34Z</time></trkpt><trkpt lat="15.197396379076316" lon="120.57981028777503"><ele>107.0</ele><time>2026-04-19T05:33:35Z</time></trkpt><trkpt lat="15.19740285390222" lon="120.57992057410513"><ele>106.99999999999999</ele><time>2026-04-19T05:33:36Z</time></trkpt><trkpt lat="15.197410384329952" lon="120.58001151705929"><ele>107.0</ele><time>2026-04-19T05:33:37Z</time></trkpt><trkpt lat="15.197416173244216" lon="120.58008258187523"><ele>107.0</ele><time>2026-04-19T05:33:38Z</time></trkpt><trkpt lat="15.197422252886167" lon="120.58017585929268"><ele>107.0</ele><time>2026-04-19T05:33:40Z</time></trkpt><trkpt lat="15.19742570487675" lon="120.58024294704514"><ele>106.99999999999999</ele><time>2026-04-19T05:33:43Z</time></trkpt><trkpt lat="15.197429716502796" lon="120.58032358346935"><ele>107.0</ele><time>2026-04-19T05:34:01Z</time></trkpt><trkpt lat="15.197447978595797" lon="120.58043297268786"><ele>107.0</ele><time>2026-04-19T05:34:04Z</time></trkpt><trkpt lat="15.19745054793413" lon="120.58057761552087"><ele>106.99999999999999</ele><time>2026-04-19T05:34:06Z</time></trkpt><trkpt lat="15.197458235896084" lon="120.58066197008301"><ele>106.99999999999999</ele><time>2026-04-19T05:34:07Z</time></trkpt><trkpt lat="15.197455771000365" lon="120.5807570865665"><ele>107.0</ele><time>2026-04-19T05:34:08Z</time></trkpt><trkpt lat="15.197448152836333" lon="120.58085821772835"><ele>107.0</ele><time>2026-04-19T05:34:09Z</time></trkpt><trkpt lat="15.197434323848352" lon="120.58096030875215"><ele>107.0</ele><time>2026-04-19T05:34:10Z</time></trkpt><trkpt lat="15.197415166028094" lon="120.58106580750449"><ele>106.99999999999999</ele><time>2026-04-19T05:34:11Z</time></trkpt><trkpt lat="15.197392496970265" lon="120.58117878009277"><ele>106.99999999999999</ele><time>2026-04-19T05:34:12Z</time></trkpt><trkpt lat="15.197372211433281" lon="120.58129714569016"><ele>107.0</ele><time>2026-04-19T05:34:13Z</time></trkpt><trkpt lat="15.197345124256657" lon="120.58141411245363"><ele>107.0</ele><time>2026-04-19T05:34:14Z</time></trkpt><trkpt lat="15.197320732450109" lon="120.581528131454"><ele>107.6</ele><time>2026-04-19T05:34:15Z</time></trkpt><trkpt lat="15.19729591060533" lon="120.58163608497485"><ele>108.19999999999999</ele><time>2026-04-19T05:34:16.001Z</time></trkpt><trkpt lat="15.197270708330064" lon="120.58173932348613"><ele>108.8</ele><time>2026-04-19T05:34:17.001Z</time></trkpt><trkpt lat="15.197241115184855" lon="120.58183433601874"><ele>109.4</ele><time>2026-04-19T05:34:18.001Z</time></trkpt><trkpt lat="15.19720108250328" lon="120.5819142780342"><ele>110.0</ele><time>2026-04-19T05:34:19.001Z</time></trkpt><trkpt lat="15.197146225513835" lon="120.58198855144249"><ele>110.16666666666666</ele><time>2026-04-19T05:34:20.001Z</time></trkpt><trkpt lat="15.19708284402822" lon="120.58204473045896"><ele>110.33333333333333</ele><time>2026-04-19T05:34:21Z</time></trkpt><trkpt lat="15.197017267009604" lon="120.58206590483911"><ele>110.5</ele><time>2026-04-19T05:34:22Z</time></trkpt><trkpt lat="15.196941363374055" lon="120.58209203351211"><ele>110.66666666666666</ele><time>2026-04-19T05:34:23Z</time></trkpt><trkpt lat="15.196866246408423" lon="120.58214439086527"><ele>110.83333333333333</ele><time>2026-04-19T05:34:24Z</time></trkpt><trkpt lat="15.196780542530455" lon="120.58216654934421"><ele>111.0</ele><time>2026-04-19T05:34:25Z</time></trkpt><trkpt lat="15.19669730803914" lon="120.58218859207128"><ele>111.0</ele><time>2026-04-19T05:34:26Z</time></trkpt><trkpt lat="15.196616168211719" lon="120.58222608049905"><ele>111.0</ele><time>2026-04-19T05:34:27Z</time></trkpt><trkpt lat="15.19653083668636" lon="120.58225028941847"><ele>111.0</ele><time>2026-04-19T05:34:28Z</time></trkpt><trkpt lat="15.196457054298135" lon="120.58229536867695"><ele>111.0</ele><time>2026-04-19T05:34:29Z</time></trkpt><trkpt lat="15.196381140396946" lon="120.58232333132506"><ele>111.0</ele><time>2026-04-19T05:34:30Z</time></trkpt><trkpt lat="15.19629223740792" lon="120.58231780109443"><ele>111.0</ele><time>2026-04-19T05:34:31Z</time></trkpt><trkpt lat="15.196208005295047" lon="120.58234133733843"><ele>110.8</ele><time>2026-04-19T05:34:32Z</time></trkpt><trkpt lat="15.19612152912003" lon="120.58236668663334"><ele>110.6</ele><time>2026-04-19T05:34:33Z</time></trkpt><trkpt lat="15.19603249741246" lon="120.58239476351592"><ele>110.4</ele><time>2026-04-19T05:34:34Z</time></trkpt><trkpt lat="15.195943368882071" lon="120.58242281024994"><ele>110.2</ele><time>2026-04-19T05:34:35Z</time></trkpt><trkpt lat="15.195850832086485" lon="120.58244425058356"><ele>110.0</ele><time>2026-04-19T05:34:36Z</time></trkpt><trkpt lat="15.195754635506097" lon="120.58246593024128"><ele>110.0</ele><time>2026-04-19T05:34:37Z</time></trkpt><trkpt lat="15.195651497448761" lon="120.58248953451452"><ele>110.0</ele><time>2026-04-19T05:34:38Z</time></trkpt><trkpt lat="15.195544468742659" lon="120.58251821765629"><ele>110.0</ele><time>2026-04-19T05:34:39Z</time></trkpt><trkpt lat="15.195432632209254" lon="120.58255047146247"><ele>110.0</ele><time>2026-04-19T05:34:40Z</time></trkpt><trkpt lat="15.195311544403145" lon="120.58258607058204"><ele>110.0</ele><time>2026-04-19T05:34:41Z</time></trkpt><trkpt lat="15.195191701032101" lon="120.58262239085064"><ele>110.0</ele><time>2026-04-19T05:34:42Z</time></trkpt><trkpt lat="15.195067464266446" lon="120.58265962642557"><ele>110.0</ele><time>2026-04-19T05:34:43Z</time></trkpt><trkpt lat="15.194942573372684" lon="120.58269547871116"><ele>110.0</ele><time>2026-04-19T05:34:44Z</time></trkpt><trkpt lat="15.194813820602667" lon="120.58272756782853"><ele>109.75</ele><time>2026-04-19T05:34:45Z</time></trkpt><trkpt lat="15.19467809911082" lon="120.58275931014515"><ele>109.5</ele><time>2026-04-19T05:34:46Z</time></trkpt><trkpt lat="15.194535016241616" lon="120.58279193269473"><ele>109.25</ele><time>2026-04-19T05:34:47Z</time></trkpt><trkpt lat="15.194385940012683" lon="120.58282662445367"><ele>109.0</ele><time>2026-04-19T05:34:48Z</time></trkpt><trkpt lat="15.194233385262141" lon="120.58286276192203"><ele>108.33333333333334</ele><time>2026-04-19T05:34:49Z</time></trkpt><trkpt lat="15.194078437437753" lon="120.5829015138194"><ele>107.66666666666666</ele><time>2026-04-19T05:34:50Z</time></trkpt><trkpt lat="15.193914639650833" lon="120.58294628089669"><ele>107.0</ele><time>2026-04-19T05:34:51Z</time></trkpt><trkpt lat="15.193751189557956" lon="120.58299524635912"><ele>108.33333333333333</ele><time>2026-04-19T05:34:52Z</time></trkpt><trkpt lat="15.193586137205601" lon="120.5830429302912"><ele>109.66666666666666</ele><time>2026-04-19T05:34:53Z</time></trkpt><trkpt lat="15.19342004996538" lon="120.58308949583056"><ele>111.0</ele><time>2026-04-19T05:34:54Z</time></trkpt><trkpt lat="15.193251642690367" lon="120.58313589828096"><ele>111.33333333333334</ele><time>2026-04-19T05:34:55Z</time></trkpt><trkpt lat="15.193082204306599" lon="120.58318075450771"><ele>111.66666666666667</ele><time>2026-04-19T05:34:56Z</time></trkpt><trkpt lat="15.192912255018513" lon="120.58322581138047"><ele>112.0</ele><time>2026-04-19T05:34:57Z</time></trkpt><trkpt lat="15.192744603756887" lon="120.58326884275004"><ele>112.0</ele><time>2026-04-19T05:34:58Z</time></trkpt><trkpt lat="15.192580401822495" lon="120.58331117062068"><ele>112.0</ele><time>2026-04-19T05:34:59Z</time></trkpt><trkpt lat="15.192420924656227" lon="120.58335283779952"><ele>112.0</ele><time>2026-04-19T05:35:00Z</time></trkpt><trkpt lat="15.192272569659176" lon="120.58339000570693"><ele>111.8</ele><time>2026-04-19T05:35:01Z</time></trkpt><trkpt lat="15.192143297887618" lon="120.5834233477342"><ele>111.6</ele><time>2026-04-19T05:35:02Z</time></trkpt><trkpt lat="15.19203308964582" lon="120.58345355431877"><ele>111.39999999999999</ele><time>2026-04-19T05:35:03Z</time></trkpt><trkpt lat="15.191939451600131" lon="120.58348014099758"><ele>111.19999999999999</ele><time>2026-04-19T05:35:04Z</time></trkpt><trkpt lat="15.191856385834313" lon="120.58350220781382"><ele>111.0</ele><time>2026-04-19T05:35:05Z</time></trkpt><trkpt lat="15.191781232962565" lon="120.58352122510924"><ele>111.0</ele><time>2026-04-19T05:35:06Z</time></trkpt><trkpt lat="15.191714092971083" lon="120.58353820961135"><ele>111.0</ele><time>2026-04-19T05:35:07Z</time></trkpt><trkpt lat="15.19160523301243" lon="120.58356960477899"><ele>111.0</ele><time>2026-04-19T05:35:09Z</time></trkpt><trkpt lat="15.191525059939645" lon="120.58359067376573"><ele>111.0</ele><time>2026-04-19T05:35:11Z</time></trkpt><trkpt lat="15.191458549255648" lon="120.58360564037956"><ele>111.0</ele><time>2026-04-19T05:35:14Z</time></trkpt><trkpt lat="15.191379354624704" lon="120.58362673508108"><ele>111.0</ele><time>2026-04-19T05:35:17Z</time></trkpt><trkpt lat="15.191286479518952" lon="120.58365245395395"><ele>111.0</ele><time>2026-04-19T05:35:19Z</time></trkpt><trkpt lat="15.191223941181336" lon="120.58366906443041"><ele>111.0</ele><time>2026-04-19T05:35:20Z</time></trkpt><trkpt lat="15.191152594868461" lon="120.58368875804095"><ele>111.0</ele><time>2026-04-19T05:35:21Z</time></trkpt><trkpt lat="15.191073958959528" lon="120.58370733080176"><ele>111.0</ele><time>2026-04-19T05:35:22Z</time></trkpt><trkpt lat="15.190987439013178" lon="120.5837273675341"><ele>111.0</ele><time>2026-04-19T05:35:23Z</time></trkpt><trkpt lat="15.190894029588799" lon="120.58374944635746"><ele>111.0</ele><time>2026-04-19T05:35:24Z</time></trkpt><trkpt lat="15.1907941523539" lon="120.58377182421965"><ele>111.0</ele><time>2026-04-19T05:35:25Z</time></trkpt><trkpt lat="15.190689249045151" lon="120.58379643666403"><ele>111.0</ele><time>2026-04-19T05:35:26Z</time></trkpt><trkpt lat="15.190581132471424" lon="120.58382464752107"><ele>111.0</ele><time>2026-04-19T05:35:27Z</time></trkpt><trkpt lat="15.190468911225516" lon="120.58385652783616"><ele>111.0</ele><time>2026-04-19T05:35:28Z</time></trkpt><trkpt lat="15.190353994215739" lon="120.58389134571559"><ele>111.0</ele><time>2026-04-19T05:35:29Z</time></trkpt><trkpt lat="15.190236089960266" lon="120.58392552863023"><ele>111.0</ele><time>2026-04-19T05:35:30Z</time></trkpt><trkpt lat="15.190120328570378" lon="120.58395637073518"><ele>111.0</ele><time>2026-04-19T05:35:31Z</time></trkpt><trkpt lat="15.190007657719596" lon="120.58398423891073"><ele>111.0</ele><time>2026-04-19T05:35:32Z</time></trkpt><trkpt lat="15.189903315283352" lon="120.58400950368787"><ele>111.0</ele><time>2026-04-19T05:35:33Z</time></trkpt><trkpt lat="15.189811172745822" lon="120.58403096190285"><ele>111.0</ele><time>2026-04-19T05:35:34Z</time></trkpt><trkpt lat="15.189738734406971" lon="120.58404826082564"><ele>111.0</ele><time>2026-04-19T05:35:35Z</time></trkpt><trkpt lat="15.18964266961024" lon="120.58407294993876"><ele>111.0</ele><time>2026-04-19T05:35:37Z</time></trkpt><trkpt lat="15.189580652033854" lon="120.5840895065984"><ele>111.0</ele><time>2026-04-19T05:35:40Z</time></trkpt><trkpt lat="15.18950949341721" lon="120.58411037331007"><ele>111.0</ele><time>2026-04-19T05:35:45Z</time></trkpt><trkpt lat="15.189416285957972" lon="120.58414557230266"><ele>111.0</ele><time>2026-04-19T05:35:47Z</time></trkpt><trkpt lat="15.189355728984028" lon="120.58416460184668"><ele>111.0</ele><time>2026-04-19T05:35:48Z</time></trkpt><trkpt lat="15.18928542504878" lon="120.58418399638407"><ele>111.0</ele><time>2026-04-19T05:35:49Z</time></trkpt><trkpt lat="15.189207125974676" lon="120.5842048938408"><ele>111.0</ele><time>2026-04-19T05:35:50Z</time></trkpt><trkpt lat="15.189120727711977" lon="120.58422629495418"><ele>111.0</ele><time>2026-04-19T05:35:51Z</time></trkpt><trkpt lat="15.189028398136019" lon="120.58425062663272"><ele>111.0</ele><time>2026-04-19T05:35:52Z</time></trkpt><trkpt lat="15.188931129852518" lon="120.58427410677146"><ele>111.0</ele><time>2026-04-19T05:35:53Z</time></trkpt><trkpt lat="15.188830967872535" lon="120.58430241192356"><ele>111.0</ele><time>2026-04-19T05:35:54Z</time></trkpt><trkpt lat="15.188725436862043" lon="120.58433262262272"><ele>111.0</ele><time>2026-04-19T05:35:55Z</time></trkpt><trkpt lat="15.188615236696482" lon="120.58436356669864"><ele>111.0</ele><time>2026-04-19T05:35:56Z</time></trkpt><trkpt lat="15.188502916371696" lon="120.58438990722483"><ele>111.0</ele><time>2026-04-19T05:35:57Z</time></trkpt><trkpt lat="15.188391285025244" lon="120.58441734501051"><ele>111.0</ele><time>2026-04-19T05:35:58Z</time></trkpt><trkpt lat="15.18828084112498" lon="120.58444174917646"><ele>111.0</ele><time>2026-04-19T05:35:59Z</time></trkpt><trkpt lat="15.188174712315407" lon="120.58446283238769"><ele>111.0</ele><time>2026-04-19T05:36:00Z</time></trkpt><trkpt lat="15.188069460546803" lon="120.58448656631471"><ele>111.0</ele><time>2026-04-19T05:36:01Z</time></trkpt><trkpt lat="15.18796750789376" lon="120.58450957577381"><ele>111.0</ele><time>2026-04-19T05:36:02Z</time></trkpt><trkpt lat="15.187866647570306" lon="120.58453478569083"><ele>110.6</ele><time>2026-04-19T05:36:03Z</time></trkpt><trkpt lat="15.187764739621228" lon="120.58456183643159"><ele>110.19999999999999</ele><time>2026-04-19T05:36:04Z</time></trkpt><trkpt lat="15.187663155583161" lon="120.5845894100183"><ele>109.80000000000001</ele><time>2026-04-19T05:36:05Z</time></trkpt><trkpt lat="15.187562220593865" lon="120.58461659737381"><ele>109.4</ele><time>2026-04-19T05:36:06Z</time></trkpt><trkpt lat="15.187461871166972" lon="120.58464404236106"><ele>109.0</ele><time>2026-04-19T05:36:07Z</time></trkpt><trkpt lat="15.187362709676691" lon="120.58467085099626"><ele>109.0</ele><time>2026-04-19T05:36:08Z</time></trkpt><trkpt lat="15.187265749965754" lon="120.58469822507878"><ele>109.0</ele><time>2026-04-19T05:36:09Z</time></trkpt><trkpt lat="15.187168031231005" lon="120.58472537873472"><ele>109.0</ele><time>2026-04-19T05:36:10Z</time></trkpt><trkpt lat="15.187072055833116" lon="120.58475109159563"><ele>109.0</ele><time>2026-04-19T05:36:11Z</time></trkpt><trkpt lat="15.186974794932828" lon="120.584776596157"><ele>109.0</ele><time>2026-04-19T05:36:12Z</time></trkpt><trkpt lat="15.186876649849328" lon="120.58480281522445"><ele>109.0</ele><time>2026-04-19T05:36:13Z</time></trkpt><trkpt lat="15.186777836449648" lon="120.58482927847602"><ele>109.0</ele><time>2026-04-19T05:36:14Z</time></trkpt><trkpt lat="15.186677818319227" lon="120.58485751729748"><ele>109.0</ele><time>2026-04-19T05:36:15Z</time></trkpt><trkpt lat="15.186573704713817" lon="120.58488609376231"><ele>109.0</ele><time>2026-04-19T05:36:16Z</time></trkpt><trkpt lat="15.186466614842404" lon="120.58491717246741"><ele>109.0</ele><time>2026-04-19T05:36:17Z</time></trkpt><trkpt lat="15.186360846694637" lon="120.58494780666561"><ele>109.25</ele><time>2026-04-19T05:36:18Z</time></trkpt><trkpt lat="15.18625175675409" lon="120.58497734975587"><ele>109.5</ele><time>2026-04-19T05:36:19Z</time></trkpt><trkpt lat="15.186141432406705" lon="120.58500674634838"><ele>109.75</ele><time>2026-04-19T05:36:20.001Z</time></trkpt><trkpt lat="15.186031296565385" lon="120.58503813265834"><ele>110.0</ele><time>2026-04-19T05:36:21.001Z</time></trkpt><trkpt lat="15.185922766012357" lon="120.58506787091807"><ele>110.0</ele><time>2026-04-19T05:36:22.001Z</time></trkpt><trkpt lat="15.185820826696308" lon="120.58509413002469"><ele>110.0</ele><time>2026-04-19T05:36:23.001Z</time></trkpt><trkpt lat="15.185723905051702" lon="120.58511906108146"><ele>110.0</ele><time>2026-04-19T05:36:24.001Z</time></trkpt><trkpt lat="15.185630256501915" lon="120.58514443303116"><ele>110.0</ele><time>2026-04-19T05:36:25.001Z</time></trkpt><trkpt lat="15.185540715651873" lon="120.58516741073694"><ele>110.0</ele><time>2026-04-19T05:36:26.001Z</time></trkpt><trkpt lat="15.185452982834976" lon="120.58519151259931"><ele>109.99999999999999</ele><time>2026-04-19T05:36:27Z</time></trkpt><trkpt lat="15.18536954338901" lon="120.58521673637466"><ele>110.0</ele><time>2026-04-19T05:36:28Z</time></trkpt><trkpt lat="15.185286437274984" lon="120.58524163328433"><ele>110.0</ele><time>2026-04-19T05:36:29Z</time></trkpt><trkpt lat="15.185203739141905" lon="120.58526401671145"><ele>110.0</ele><time>2026-04-19T05:36:30Z</time></trkpt><trkpt lat="15.18511795418143" lon="120.58528511120444"><ele>109.99999999999999</ele><time>2026-04-19T05:36:31Z</time></trkpt><trkpt lat="15.185029952817137" lon="120.58530687577866"><ele>110.0</ele><time>2026-04-19T05:36:32Z</time></trkpt><trkpt lat="15.184939773729381" lon="120.5853286568509"><ele>110.0</ele><time>2026-04-19T05:36:33Z</time></trkpt><trkpt lat="15.184849061403433" lon="120.58535214083051"><ele>110.0</ele><time>2026-04-19T05:36:34Z</time></trkpt><trkpt lat="15.184755171198669" lon="120.58537638573566"><ele>110.0</ele><time>2026-04-19T05:36:35Z</time></trkpt><trkpt lat="15.184659005048072" lon="120.5854023048073"><ele>110.0</ele><time>2026-04-19T05:36:36Z</time></trkpt><trkpt lat="15.184562537178051" lon="120.58542913074047"><ele>110.0</ele><time>2026-04-19T05:36:37Z</time></trkpt><trkpt lat="15.184466544863845" lon="120.58545651422467"><ele>109.8</ele><time>2026-04-19T05:36:38Z</time></trkpt><trkpt lat="15.184370849336863" lon="120.58548277031775"><ele>109.6</ele><time>2026-04-19T05:36:39Z</time></trkpt><trkpt lat="15.18427604544397" lon="120.58550786639829"><ele>109.4</ele><time>2026-04-19T05:36:40Z</time></trkpt><trkpt lat="15.18418144886244" lon="120.58553302899017"><ele>109.2</ele><time>2026-04-19T05:36:41Z</time></trkpt><trkpt lat="15.184085262628798" lon="120.58555890835588"><ele>109.0</ele><time>2026-04-19T05:36:42Z</time></trkpt><trkpt lat="15.183990784557261" lon="120.58558557749512"><ele>108.80000000000001</ele><time>2026-04-19T05:36:43Z</time></trkpt><trkpt lat="15.183896721492038" lon="120.58561105621528"><ele>108.60000000000001</ele><time>2026-04-19T05:36:44Z</time></trkpt><trkpt lat="15.18380366865143" lon="120.58563555072108"><ele>108.4</ele><time>2026-04-19T05:36:45Z</time></trkpt><trkpt lat="15.183710176530852" lon="120.58566058836752"><ele>108.2</ele><time>2026-04-19T05:36:46Z</time></trkpt><trkpt lat="15.183617122495074" lon="120.58568422393289"><ele>108.0</ele><time>2026-04-19T05:36:47Z</time></trkpt><trkpt lat="15.183526403269893" lon="120.58570936374649"><ele>108.0</ele><time>2026-04-19T05:36:48Z</time></trkpt><trkpt lat="15.183442034983532" lon="120.58573269917368"><ele>108.0</ele><time>2026-04-19T05:36:49Z</time></trkpt><trkpt lat="15.183366422542996" lon="120.58575330804365"><ele>108.0</ele><time>2026-04-19T05:36:50Z</time></trkpt><trkpt lat="15.183300161496629" lon="120.58577080572991"><ele>108.0</ele><time>2026-04-19T05:36:51Z</time></trkpt><trkpt lat="15.183203508501284" lon="120.58579629121952"><ele>108.0</ele><time>2026-04-19T05:36:53Z</time></trkpt><trkpt lat="15.183134111838038" lon="120.58581217811593"><ele>108.0</ele><time>2026-04-19T05:36:55Z</time></trkpt><trkpt lat="15.18304127655079" lon="120.58583464529579"><ele>108.16666666666667</ele><time>2026-04-19T05:36:58Z</time></trkpt><trkpt lat="15.182963318920889" lon="120.5858563195885"><ele>108.33333333333334</ele><time>2026-04-19T05:37:00Z</time></trkpt><trkpt lat="15.182866435073413" lon="120.58588254404614"><ele>108.5</ele><time>2026-04-19T05:37:02Z</time></trkpt><trkpt lat="15.182752662598142" lon="120.58591403160057"><ele>108.66666666666667</ele><time>2026-04-19T05:37:04Z</time></trkpt><trkpt lat="15.182688979000766" lon="120.58593186993534"><ele>108.83333333333334</ele><time>2026-04-19T05:37:05Z</time></trkpt><trkpt lat="15.182627830441765" lon="120.58594846667107"><ele>109.0</ele><time>2026-04-19T05:37:06Z</time></trkpt><trkpt lat="15.182565116201317" lon="120.58596673221729"><ele>109.0</ele><time>2026-04-19T05:37:07Z</time></trkpt><trkpt lat="15.182501361622046" lon="120.58598416563177"><ele>109.0</ele><time>2026-04-19T05:37:08Z</time></trkpt><trkpt lat="15.182436636845242" lon="120.58600271456011"><ele>109.0</ele><time>2026-04-19T05:37:09Z</time></trkpt><trkpt lat="15.18236771847276" lon="120.58602095665395"><ele>109.0</ele><time>2026-04-19T05:37:10Z</time></trkpt><trkpt lat="15.182297997961468" lon="120.58603922506386"><ele>109.0</ele><time>2026-04-19T05:37:11Z</time></trkpt><trkpt lat="15.182225223717001" lon="120.58605821789834"><ele>109.0</ele><time>2026-04-19T05:37:12Z</time></trkpt><trkpt lat="15.182151915313074" lon="120.58607741403532"><ele>109.0</ele><time>2026-04-19T05:37:13Z</time></trkpt><trkpt lat="15.182077602966316" lon="120.58609788214345"><ele>109.00000000000001</ele><time>2026-04-19T05:37:14Z</time></trkpt><trkpt lat="15.18200034921526" lon="120.58612049936488"><ele>109.0</ele><time>2026-04-19T05:37:15Z</time></trkpt><trkpt lat="15.181923357170017" lon="120.58614177560295"><ele>109.0</ele><time>2026-04-19T05:37:16Z</time></trkpt><trkpt lat="15.181847882999243" lon="120.5861629304673"><ele>109.0</ele><time>2026-04-19T05:37:17Z</time></trkpt><trkpt lat="15.181780051772192" lon="120.58618137618981"><ele>109.00000000000001</ele><time>2026-04-19T05:37:18Z</time></trkpt><trkpt lat="15.181675187405885" lon="120.58620849815247"><ele>109.0</ele><time>2026-04-19T05:37:20Z</time></trkpt><trkpt lat="15.18160341456766" lon="120.58623159337033"><ele>109.0</ele><time>2026-04-19T05:37:23Z</time></trkpt><trkpt lat="15.181536782816288" lon="120.58624892948716"><ele>109.0</ele><time>2026-04-19T05:37:27Z</time></trkpt><trkpt lat="15.181452130033566" lon="120.58627311038896"><ele>109.0</ele><time>2026-04-19T05:37:29Z</time></trkpt><trkpt lat="15.181340870277369" lon="120.58630533992975"><ele>109.0</ele><time>2026-04-19T05:37:31Z</time></trkpt><trkpt lat="15.181211978578029" lon="120.58632867407415"><ele>109.0</ele><time>2026-04-19T05:37:33Z</time></trkpt><trkpt lat="15.181138262651455" lon="120.58633995531947"><ele>108.80000000000001</ele><time>2026-04-19T05:37:34Z</time></trkpt><trkpt lat="15.181056220180405" lon="120.58635371506074"><ele>108.60000000000001</ele><time>2026-04-19T05:37:35Z</time></trkpt><trkpt lat="15.18096731267204" lon="120.58637416564025"><ele>108.4</ele><time>2026-04-19T05:37:36Z</time></trkpt><trkpt lat="15.180877134354636" lon="120.58639574807954"><ele>108.2</ele><time>2026-04-19T05:37:37Z</time></trkpt><trkpt lat="15.1807841258481" lon="120.58642194998123"><ele>108.0</ele><time>2026-04-19T05:37:38Z</time></trkpt><trkpt lat="15.180695539788731" lon="120.58644472578872"><ele>108.0</ele><time>2026-04-19T05:37:39Z</time></trkpt><trkpt lat="15.180614851776692" lon="120.5864655948778"><ele>108.0</ele><time>2026-04-19T05:37:40Z</time></trkpt><trkpt lat="15.180537146285252" lon="120.58648679480866"><ele>108.0</ele><time>2026-04-19T05:37:41Z</time></trkpt><trkpt lat="15.180465879566835" lon="120.58650840137469"><ele>108.0</ele><time>2026-04-19T05:37:42Z</time></trkpt><trkpt lat="15.180396575232386" lon="120.58653077506855"><ele>108.0</ele><time>2026-04-19T05:37:43Z</time></trkpt><trkpt lat="15.180327612033294" lon="120.58655135366682"><ele>108.0</ele><time>2026-04-19T05:37:44Z</time></trkpt><trkpt lat="15.180258868668464" lon="120.58657314127102"><ele>108.0</ele><time>2026-04-19T05:37:45Z</time></trkpt><trkpt lat="15.180195126531865" lon="120.58659151129703"><ele>108.0</ele><time>2026-04-19T05:37:46Z</time></trkpt><trkpt lat="15.18013157838209" lon="120.5866100425606"><ele>108.0</ele><time>2026-04-19T05:37:47Z</time></trkpt><trkpt lat="15.180068969044148" lon="120.58662942268433"><ele>108.0</ele><time>2026-04-19T05:37:48Z</time></trkpt><trkpt lat="15.180005734404157" lon="120.5866473332643"><ele>108.0</ele><time>2026-04-19T05:37:49Z</time></trkpt><trkpt lat="15.179938753390095" lon="120.58666518092043"><ele>108.0</ele><time>2026-04-19T05:37:50Z</time></trkpt><trkpt lat="15.179867874821106" lon="120.58668609407654"><ele>108.0</ele><time>2026-04-19T05:37:51Z</time></trkpt><trkpt lat="15.179790416965865" lon="120.58671052562195"><ele>108.4</ele><time>2026-04-19T05:37:52Z</time></trkpt><trkpt lat="15.179704620108811" lon="120.5867391184208"><ele>108.80000000000001</ele><time>2026-04-19T05:37:53Z</time></trkpt><trkpt lat="15.179618513473898" lon="120.58676384353748"><ele>109.2</ele><time>2026-04-19T05:37:54Z</time></trkpt><trkpt lat="15.17952942363715" lon="120.58678537929717"><ele>109.6</ele><time>2026-04-19T05:37:55Z</time></trkpt><trkpt lat="15.179440039177173" lon="120.58680643773347"><ele>110.0</ele><time>2026-04-19T05:37:56Z</time></trkpt><trkpt lat="15.179352809289803" lon="120.58682596619917"><ele>109.99999999999999</ele><time>2026-04-19T05:37:57Z</time></trkpt><trkpt lat="15.179265234531725" lon="120.58684581171433"><ele>110.0</ele><time>2026-04-19T05:37:58Z</time></trkpt><trkpt lat="15.179182659756396" lon="120.5868651081017"><ele>110.0</ele><time>2026-04-19T05:37:59Z</time></trkpt><trkpt lat="15.179108099941947" lon="120.58688246055887"><ele>110.0</ele><time>2026-04-19T05:38:00Z</time></trkpt><trkpt lat="15.17903797305308" lon="120.58690007354932"><ele>109.99999999999999</ele><time>2026-04-19T05:38:01Z</time></trkpt><trkpt lat="15.178969896505032" lon="120.5869163167854"><ele>110.0</ele><time>2026-04-19T05:38:02Z</time></trkpt><trkpt lat="15.178905322911444" lon="120.58693257656425"><ele>109.66666666666666</ele><time>2026-04-19T05:38:03Z</time></trkpt><trkpt lat="15.178841832175397" lon="120.58694684447283"><ele>109.33333333333333</ele><time>2026-04-19T05:38:04Z</time></trkpt><trkpt lat="15.178775983757182" lon="120.58696055982105"><ele>109.0</ele><time>2026-04-19T05:38:05Z</time></trkpt><trkpt lat="15.178709443581374" lon="120.58697601772468"><ele>108.66666666666666</ele><time>2026-04-19T05:38:06Z</time></trkpt><trkpt lat="15.178646520205401" lon="120.58699141195882"><ele>108.33333333333333</ele><time>2026-04-19T05:38:07Z</time></trkpt><trkpt lat="15.178544648437514" lon="120.58701749169371"><ele>108.0</ele><time>2026-04-19T05:38:09Z</time></trkpt><trkpt lat="15.178462047766525" lon="120.58703824596354"><ele>107.60000000000001</ele><time>2026-04-19T05:38:11Z</time></trkpt><trkpt lat="15.178378170912486" lon="120.58705350251653"><ele>107.20000000000002</ele><time>2026-04-19T05:38:13Z</time></trkpt><trkpt lat="15.178293276411534" lon="120.58705581265016"><ele>106.8</ele><time>2026-04-19T05:39:07Z</time></trkpt><trkpt lat="15.178210192451212" lon="120.58707935321169"><ele>106.4</ele><time>2026-04-19T05:39:10Z</time></trkpt><trkpt lat="15.17812235425548" lon="120.58710161940984"><ele>106.0</ele><time>2026-04-19T05:39:12Z</time></trkpt><trkpt lat="15.17799987528999" lon="120.58713782996588"><ele>105.83333333333334</ele><time>2026-04-19T05:39:14Z</time></trkpt><trkpt lat="15.177927996243337" lon="120.58716552787233"><ele>105.66666666666667</ele><time>2026-04-19T05:39:15Z</time></trkpt><trkpt lat="15.177845741343978" lon="120.5871916718063"><ele>105.5</ele><time>2026-04-19T05:39:16Z</time></trkpt><trkpt lat="15.177757017439133" lon="120.58721411216501"><ele>105.33333333333334</ele><time>2026-04-19T05:39:17Z</time></trkpt><trkpt lat="15.177667523259688" lon="120.5872377018548"><ele>105.16666666666667</ele><time>2026-04-19T05:39:18Z</time></trkpt><trkpt lat="15.177576099754319" lon="120.58726718399036"><ele>105.0</ele><time>2026-04-19T05:39:19Z</time></trkpt><trkpt lat="15.177482278401508" lon="120.58729333245518"><ele>105.0</ele><time>2026-04-19T05:39:20Z</time></trkpt><trkpt lat="15.177386878297003" lon="120.58731859762524"><ele>105.0</ele><time>2026-04-19T05:39:21Z</time></trkpt><trkpt lat="15.177289071035892" lon="120.5873450565354"><ele>105.0</ele><time>2026-04-19T05:39:22Z</time></trkpt><trkpt lat="15.177186540923858" lon="120.5873695247668"><ele>105.0</ele><time>2026-04-19T05:39:23Z</time></trkpt><trkpt lat="15.177080094618693" lon="120.5873939408595"><ele>105.0</ele><time>2026-04-19T05:39:24Z</time></trkpt><trkpt lat="15.176977386930597" lon="120.58741805740163"><ele>105.0</ele><time>2026-04-19T05:39:25Z</time></trkpt><trkpt lat="15.176877255902575" lon="120.58743928581417"><ele>105.0</ele><time>2026-04-19T05:39:26Z</time></trkpt><trkpt lat="15.176784387253056" lon="120.58746083210596"><ele>105.0</ele><time>2026-04-19T05:39:27Z</time></trkpt><trkpt lat="15.1766975226299" lon="120.5874823778704"><ele>105.0</ele><time>2026-04-19T05:39:28Z</time></trkpt><trkpt lat="15.176616613914621" lon="120.5875012351777"><ele>105.0</ele><time>2026-04-19T05:39:29Z</time></trkpt><trkpt lat="15.176544585056233" lon="120.58751680248245"><ele>105.0</ele><time>2026-04-19T05:39:30Z</time></trkpt><trkpt lat="15.176474212608623" lon="120.5875334684904"><ele>104.85714285714286</ele><time>2026-04-19T05:39:31Z</time></trkpt><trkpt lat="15.176406992532415" lon="120.58754784391698"><ele>104.71428571428572</ele><time>2026-04-19T05:39:32Z</time></trkpt><trkpt lat="15.17634312731018" lon="120.58756191663367"><ele>104.57142857142857</ele><time>2026-04-19T05:39:33Z</time></trkpt><trkpt lat="15.176279583988446" lon="120.58757587877508"><ele>104.42857142857143</ele><time>2026-04-19T05:39:34Z</time></trkpt><trkpt lat="15.176209657260376" lon="120.58759020116318"><ele>104.28571428571429</ele><time>2026-04-19T05:39:35Z</time></trkpt><trkpt lat="15.176139707339258" lon="120.58759910086108"><ele>104.14285714285714</ele><time>2026-04-19T05:39:36Z</time></trkpt><trkpt lat="15.176065907908637" lon="120.58761073541301"><ele>104.0</ele><time>2026-04-19T05:39:37Z</time></trkpt><trkpt lat="15.175989975444585" lon="120.58762559361227"><ele>103.99999999999999</ele><time>2026-04-19T05:39:38Z</time></trkpt><trkpt lat="15.17591179556351" lon="120.58764263394438"><ele>104.0</ele><time>2026-04-19T05:39:39Z</time></trkpt><trkpt lat="15.175833361486896" lon="120.58765414445547"><ele>104.0</ele><time>2026-04-19T05:39:40Z</time></trkpt><trkpt lat="15.175755616164592" lon="120.5876652492363"><ele>104.0</ele><time>2026-04-19T05:39:41Z</time></trkpt><trkpt lat="15.17567978394882" lon="120.58767797769494"><ele>103.99999999999999</ele><time>2026-04-19T05:39:42Z</time></trkpt><trkpt lat="15.175603494204175" lon="120.5876906780903"><ele>104.0</ele><time>2026-04-19T05:39:43Z</time></trkpt><trkpt lat="15.175525931689245" lon="120.58770524693833"><ele>103.99999999999999</ele><time>2026-04-19T05:39:44Z</time></trkpt><trkpt lat="15.175451967486044" lon="120.58773674160466"><ele>104.0</ele><time>2026-04-19T05:39:45Z</time></trkpt><trkpt lat="15.17537101169087" lon="120.58773346225769"><ele>104.0</ele><time>2026-04-19T05:39:46Z</time></trkpt><trkpt lat="15.175295003700617" lon="120.58774620223662"><ele>104.0</ele><time>2026-04-19T05:39:47Z</time></trkpt><trkpt lat="15.17521895183322" lon="120.58776076452247"><ele>103.99999999999999</ele><time>2026-04-19T05:39:48Z</time></trkpt><trkpt lat="15.175137833701482" lon="120.58778025427695"><ele>104.0</ele><time>2026-04-19T05:39:49Z</time></trkpt><trkpt lat="15.175058805678034" lon="120.5877978894745"><ele>103.99999999999999</ele><time>2026-04-19T05:39:50Z</time></trkpt><trkpt lat="15.174976037791152" lon="120.58781845591372"><ele>104.0</ele><time>2026-04-19T05:39:51Z</time></trkpt><trkpt lat="15.174888984053908" lon="120.58783581073041"><ele>104.0</ele><time>2026-04-19T05:39:52Z</time></trkpt><trkpt lat="15.174801341161047" lon="120.58785434703205"><ele>104.0</ele><time>2026-04-19T05:39:53Z</time></trkpt><trkpt lat="15.174714135244013" lon="120.58787332979209"><ele>103.99999999999999</ele><time>2026-04-19T05:39:54Z</time></trkpt><trkpt lat="15.174628080332083" lon="120.58789202514673"><ele>104.0</ele><time>2026-04-19T05:39:55Z</time></trkpt><trkpt lat="15.17454306429084" lon="120.58790751341043"><ele>104.33333333333333</ele><time>2026-04-19T05:39:56Z</time></trkpt><trkpt lat="15.174457466410658" lon="120.58792689209355"><ele>104.66666666666666</ele><time>2026-04-19T05:39:57Z</time></trkpt><trkpt lat="15.174373646327409" lon="120.5879441985594"><ele>105.0</ele><time>2026-04-19T05:39:58Z</time></trkpt><trkpt lat="15.174292400394403" lon="120.58796167040745"><ele>105.33333333333334</ele><time>2026-04-19T05:39:59Z</time></trkpt><trkpt lat="15.174215372179493" lon="120.58797819099654"><ele>105.66666666666667</ele><time>2026-04-19T05:40:00Z</time></trkpt><trkpt lat="15.174140524989655" lon="120.58799479318101"><ele>106.0</ele><time>2026-04-19T05:40:01Z</time></trkpt><trkpt lat="15.17407031308229" lon="120.58801116521957"><ele>105.66666666666667</ele><time>2026-04-19T05:40:02Z</time></trkpt><trkpt lat="15.174002797875644" lon="120.58802844570052"><ele>105.33333333333334</ele><time>2026-04-19T05:40:03Z</time></trkpt><trkpt lat="15.173938826342345" lon="120.58804362867781"><ele>105.0</ele><time>2026-04-19T05:40:04Z</time></trkpt><trkpt lat="15.173876600437914" lon="120.58805875437153"><ele>104.66666666666666</ele><time>2026-04-19T05:40:05Z</time></trkpt><trkpt lat="15.173763491951588" lon="120.58808880829831"><ele>104.33333333333333</ele><time>2026-04-19T05:40:07Z</time></trkpt><trkpt lat="15.173664042058862" lon="120.58811543483048"><ele>104.0</ele><time>2026-04-19T05:40:09Z</time></trkpt><trkpt lat="15.17357050905349" lon="120.58813960254041"><ele>104.0</ele><time>2026-04-19T05:40:11Z</time></trkpt><trkpt lat="15.173470512430793" lon="120.58816341395043"><ele>104.0</ele><time>2026-04-19T05:40:13Z</time></trkpt><trkpt lat="15.17335896051155" lon="120.58819074433455"><ele>104.0</ele><time>2026-04-19T05:40:15Z</time></trkpt><trkpt lat="15.173241995141225" lon="120.58822241691291"><ele>104.0</ele><time>2026-04-19T05:40:17Z</time></trkpt><trkpt lat="15.173176253221117" lon="120.58823765150068"><ele>104.0</ele><time>2026-04-19T05:40:18Z</time></trkpt><trkpt lat="15.173106295214724" lon="120.58825408909885"><ele>103.83333333333333</ele><time>2026-04-19T05:40:19Z</time></trkpt><trkpt lat="15.173033767940382" lon="120.58827108421828"><ele>103.66666666666666</ele><time>2026-04-19T05:40:20Z</time></trkpt><trkpt lat="15.172958160035074" lon="120.58828933876272"><ele>103.5</ele><time>2026-04-19T05:40:21Z</time></trkpt><trkpt lat="15.172879727552752" lon="120.58830915105224"><ele>103.33333333333334</ele><time>2026-04-19T05:40:22Z</time></trkpt><trkpt lat="15.172798621476634" lon="120.58832953042298"><ele>103.16666666666667</ele><time>2026-04-19T05:40:23Z</time></trkpt><trkpt lat="15.172714994844899" lon="120.58834975500787"><ele>103.0</ele><time>2026-04-19T05:40:24Z</time></trkpt><trkpt lat="15.172626962364621" lon="120.58837133645075"><ele>103.00000000000001</ele><time>2026-04-19T05:40:25Z</time></trkpt><trkpt lat="15.172539783796022" lon="120.58839242649249"><ele>103.0</ele><time>2026-04-19T05:40:26Z</time></trkpt><trkpt lat="15.17245504326864" lon="120.58841488265564"><ele>103.0</ele><time>2026-04-19T05:40:27Z</time></trkpt><trkpt lat="15.17237275117197" lon="120.58843723143103"><ele>103.0</ele><time>2026-04-19T05:40:28Z</time></trkpt><trkpt lat="15.172294582230181" lon="120.5884584529737"><ele>103.00000000000001</ele><time>2026-04-19T05:40:29Z</time></trkpt><trkpt lat="15.17222200250772" lon="120.5884778271304"><ele>103.0</ele><time>2026-04-19T05:40:30Z</time></trkpt><trkpt lat="15.172151307090498" lon="120.58849514268191"><ele>103.28571428571428</ele><time>2026-04-19T05:40:31Z</time></trkpt><trkpt lat="15.172083799026389" lon="120.58851146844638"><ele>103.57142857142857</ele><time>2026-04-19T05:40:32Z</time></trkpt><trkpt lat="15.172012633908468" lon="120.58853001150702"><ele>103.85714285714286</ele><time>2026-04-19T05:40:33Z</time></trkpt><trkpt lat="15.171940820019568" lon="120.58854829415527"><ele>104.14285714285714</ele><time>2026-04-19T05:40:34Z</time></trkpt><trkpt lat="15.17187014621561" lon="120.588566775407"><ele>104.42857142857143</ele><time>2026-04-19T05:40:35Z</time></trkpt><trkpt lat="15.17180087554748" lon="120.58858379639025"><ele>104.71428571428571</ele><time>2026-04-19T05:40:36Z</time></trkpt><trkpt lat="15.17173336572591" lon="120.58860079904062"><ele>105.0</ele><time>2026-04-19T05:40:37Z</time></trkpt><trkpt lat="15.171666490742338" lon="120.58861640712571"><ele>105.0</ele><time>2026-04-19T05:40:38Z</time></trkpt><trkpt lat="15.17159694177826" lon="120.58863629475127"><ele>105.0</ele><time>2026-04-19T05:40:39Z</time></trkpt><trkpt lat="15.171527303885743" lon="120.58865631879263"><ele>105.0</ele><time>2026-04-19T05:40:40Z</time></trkpt><trkpt lat="15.171454468427955" lon="120.5886772532731"><ele>105.0</ele><time>2026-04-19T05:40:41Z</time></trkpt><trkpt lat="15.1713790800588" lon="120.58869680627429"><ele>105.0</ele><time>2026-04-19T05:40:42Z</time></trkpt><trkpt lat="15.17130207135284" lon="120.58871721091975"><ele>105.0</ele><time>2026-04-19T05:40:43Z</time></trkpt><trkpt lat="15.171225836610468" lon="120.58873599533847"><ele>105.0</ele><time>2026-04-19T05:40:44Z</time></trkpt><trkpt lat="15.17114794808605" lon="120.58875526102032"><ele>105.0</ele><time>2026-04-19T05:40:45Z</time></trkpt><trkpt lat="15.171069955871157" lon="120.58877388754682"><ele>105.0</ele><time>2026-04-19T05:40:46Z</time></trkpt><trkpt lat="15.17099272432181" lon="120.58879055741092"><ele>105.0</ele><time>2026-04-19T05:40:47Z</time></trkpt><trkpt lat="15.170923504622843" lon="120.58883621367306"><ele>105.0</ele><time>2026-04-19T05:40:48Z</time></trkpt><trkpt lat="15.170849244296381" lon="120.58885202931"><ele>105.0</ele><time>2026-04-19T05:40:49Z</time></trkpt><trkpt lat="15.170779396428308" lon="120.58886690530525"><ele>104.8</ele><time>2026-04-19T05:40:50Z</time></trkpt><trkpt lat="15.17068332773034" lon="120.58888736574347"><ele>104.6</ele><time>2026-04-19T05:40:52Z</time></trkpt><trkpt lat="15.170605559886011" lon="120.58888850684204"><ele>104.4</ele><time>2026-04-19T05:40:54Z</time></trkpt><trkpt lat="15.170525238931502" lon="120.58891127722666"><ele>104.2</ele><time>2026-04-19T05:40:56Z</time></trkpt><trkpt lat="15.17043529244398" lon="120.58893398967471"><ele>104.0</ele><time>2026-04-19T05:40:58Z</time></trkpt><trkpt lat="15.17033543107795" lon="120.58895821769948"><ele>104.0</ele><time>2026-04-19T05:41:00Z</time></trkpt><trkpt lat="15.170225977064831" lon="120.58898427629133"><ele>104.0</ele><time>2026-04-19T05:41:02Z</time></trkpt><trkpt lat="15.17011851624708" lon="120.5890080644643"><ele>104.0</ele><time>2026-04-19T05:41:04Z</time></trkpt><trkpt lat="15.17001782842971" lon="120.5890206099103"><ele>104.0</ele><time>2026-04-19T05:41:06Z</time></trkpt><trkpt lat="15.169938367810193" lon="120.58904187730256"><ele>104.0</ele><time>2026-04-19T05:41:08Z</time></trkpt><trkpt lat="15.169879894928169" lon="120.58901761394546"><ele>104.0</ele><time>2026-04-19T05:41:10Z</time></trkpt><trkpt lat="15.169805571751324" lon="120.58895608085308"><ele>104.0</ele><time>2026-04-19T05:41:13Z</time></trkpt><trkpt lat="15.1697673922672" lon="120.58888329050083"><ele>104.0</ele><time>2026-04-19T05:41:15Z</time></trkpt><trkpt lat="15.169721433050936" lon="120.58877770067151"><ele>104.0</ele><time>2026-04-19T05:41:17Z</time></trkpt><trkpt lat="15.169695550864706" lon="120.58871693128988"><ele>104.0</ele><time>2026-04-19T05:41:18Z</time></trkpt><trkpt lat="15.169646287457912" lon="120.58859835495132"><ele>104.2</ele><time>2026-04-19T05:41:20Z</time></trkpt><trkpt lat="15.169623396510689" lon="120.58853729325043"><ele>104.4</ele><time>2026-04-19T05:41:21Z</time></trkpt><trkpt lat="15.169579864504504" lon="120.58841873422008"><ele>104.6</ele><time>2026-04-19T05:41:23Z</time></trkpt><trkpt lat="15.169543075062784" lon="120.5883102668512"><ele>104.8</ele><time>2026-04-19T05:41:25Z</time></trkpt><trkpt lat="15.169533458880933" lon="120.58820140332054"><ele>105.0</ele><time>2026-04-19T05:41:27Z</time></trkpt><trkpt lat="15.1695230882856" lon="120.58810048800282"><ele>105.0</ele><time>2026-04-19T05:41:29Z</time></trkpt><trkpt lat="15.169496632599717" lon="120.58801419472871"><ele>105.0</ele><time>2026-04-19T05:41:31Z</time></trkpt><trkpt lat="15.169343274631771" lon="120.58802844134098"><ele>105.0</ele><time>2026-04-19T05:41:32Z</time></trkpt><trkpt lat="15.169227449232586" lon="120.58802143629724"><ele>105.0</ele><time>2026-04-19T05:41:34Z</time></trkpt><trkpt lat="15.1691030274872" lon="120.58805404525992"><ele>105.0</ele><time>2026-04-19T05:41:36Z</time></trkpt><trkpt lat="15.169038080246668" lon="120.58807947244641"><ele>105.0</ele><time>2026-04-19T05:41:37Z</time></trkpt><trkpt lat="15.168974009992015" lon="120.58810618767092"><ele>105.0</ele><time>2026-04-19T05:41:38Z</time></trkpt><trkpt lat="15.168909381192243" lon="120.5881330305437"><ele>105.0</ele><time>2026-04-19T05:41:39Z</time></trkpt><trkpt lat="15.168849214505842" lon="120.58815728791078"><ele>105.0</ele><time>2026-04-19T05:41:40Z</time></trkpt><trkpt lat="15.168740228966655" lon="120.5882044883922"><ele>105.0</ele><time>2026-04-19T05:41:42Z</time></trkpt><trkpt lat="15.168648407541708" lon="120.58826264581423"><ele>105.0</ele><time>2026-04-19T05:41:44Z</time></trkpt><trkpt lat="15.168596344918162" lon="120.58834506761526"><ele>105.0</ele><time>2026-04-19T05:41:46Z</time></trkpt><trkpt lat="15.168582983295208" lon="120.58841041982862"><ele>105.0</ele><time>2026-04-19T05:41:48Z</time></trkpt><trkpt lat="15.168590511581352" lon="120.58848208790103"><ele>105.0</ele><time>2026-04-19T05:41:50Z</time></trkpt><trkpt lat="15.168613848126741" lon="120.58856187938949"><ele>105.0</ele><time>2026-04-19T05:41:52Z</time></trkpt><trkpt lat="15.168639589370418" lon="120.58865320307319"><ele>105.0</ele><time>2026-04-19T05:41:54Z</time></trkpt><trkpt lat="15.168666512001856" lon="120.58875169141015"><ele>104.8</ele><time>2026-04-19T05:41:56Z</time></trkpt><trkpt lat="15.168698848266484" lon="120.58885979823816"><ele>104.6</ele><time>2026-04-19T05:41:58Z</time></trkpt><trkpt lat="15.168735863247878" lon="120.58896973971144"><ele>104.4</ele><time>2026-04-19T05:42:00Z</time></trkpt><trkpt lat="15.168778060437438" lon="120.58907197657506"><ele>104.2</ele><time>2026-04-19T05:42:02Z</time></trkpt><trkpt lat="15.168832613556441" lon="120.58917089045889"><ele>104.0</ele><time>2026-04-19T05:42:04Z</time></trkpt><trkpt lat="15.168915837619133" lon="120.58924609221548"><ele>104.0</ele><time>2026-04-19T05:42:06Z</time></trkpt><trkpt lat="15.169023587873676" lon="120.58928224532022"><ele>104.0</ele><time>2026-04-19T05:42:08Z</time></trkpt><trkpt lat="15.169140031554162" lon="120.58932173321686"><ele>104.0</ele><time>2026-04-19T05:42:10Z</time></trkpt><trkpt lat="15.169270024636308" lon="120.58932994514606"><ele>104.0</ele><time>2026-04-19T05:42:12Z</time></trkpt><trkpt lat="15.169351669883461" lon="120.58930938325935"><ele>103.99999999999999</ele><time>2026-04-19T05:42:13Z</time></trkpt><trkpt lat="15.169420819133014" lon="120.58929224610931"><ele>104.0</ele><time>2026-04-19T05:42:14Z</time></trkpt><trkpt lat="15.169484589930567" lon="120.58926014586999"><ele>104.0</ele><time>2026-04-19T05:42:15Z</time></trkpt><trkpt lat="15.169552574518788" lon="120.5892528929679"><ele>104.0</ele><time>2026-04-19T05:42:16Z</time></trkpt><trkpt lat="15.169617446029568" lon="120.58924389480508"><ele>103.99999999999999</ele><time>2026-04-19T05:42:17Z</time></trkpt><trkpt lat="15.169730087208922" lon="120.58922171082115"><ele>104.0</ele><time>2026-04-19T05:42:19Z</time></trkpt><trkpt lat="15.169836278986674" lon="120.58919716577729"><ele>104.0</ele><time>2026-04-19T05:42:21Z</time></trkpt><trkpt lat="15.169943884707862" lon="120.58917275927908"><ele>104.0</ele><time>2026-04-19T05:42:23Z</time></trkpt><trkpt lat="15.170046270829577" lon="120.58915022249322"><ele>104.0</ele><time>2026-04-19T05:42:25Z</time></trkpt><trkpt lat="15.170147734509014" lon="120.58913666093247"><ele>104.0</ele><time>2026-04-19T05:42:27Z</time></trkpt><trkpt lat="15.17023444382364" lon="120.58912493341552"><ele>104.0</ele><time>2026-04-19T05:42:29Z</time></trkpt><trkpt lat="15.170306724262153" lon="120.58911154079722"><ele>103.99999999999999</ele><time>2026-04-19T05:42:32Z</time></trkpt><trkpt lat="15.170378625601554" lon="120.58911520948756"><ele>104.0</ele><time>2026-04-19T05:42:59Z</time></trkpt><trkpt lat="15.170439399129451" lon="120.58909545994969"><ele>104.0</ele><time>2026-04-19T05:43:06Z</time></trkpt><trkpt lat="15.17050497410284" lon="120.58907054678171"><ele>104.0</ele><time>2026-04-19T05:55:55Z</time></trkpt><trkpt lat="15.170592935495659" lon="120.58904830886073"><ele>103.99999999999999</ele><time>2026-04-19T05:55:58Z</time></trkpt><trkpt lat="15.170671112424952" lon="120.58902952254695"><ele>104.0</ele><time>2026-04-19T05:56:00Z</time></trkpt><trkpt lat="15.170762650949218" lon="120.58900473684125"><ele>104.16666666666666</ele><time>2026-04-19T05:56:02Z</time></trkpt><trkpt lat="15.170875157778438" lon="120.58896669411133"><ele>104.33333333333333</ele><time>2026-04-19T05:56:04Z</time></trkpt><trkpt lat="15.170934921545285" lon="120.58894334581504"><ele>104.5</ele><time>2026-04-19T05:56:05Z</time></trkpt><trkpt lat="15.17099876712522" lon="120.58892094044438"><ele>104.66666666666666</ele><time>2026-04-19T05:56:06Z</time></trkpt><trkpt lat="15.171064869814042" lon="120.58889727451054"><ele>104.83333333333333</ele><time>2026-04-19T05:56:07Z</time></trkpt><trkpt lat="15.17113556223484" lon="120.58887175861788"><ele>105.0</ele><time>2026-04-19T05:56:08Z</time></trkpt><trkpt lat="15.171210380215683" lon="120.58884644442526"><ele>105.0</ele><time>2026-04-19T05:56:09Z</time></trkpt><trkpt lat="15.17128540780972" lon="120.58882167109726"><ele>105.0</ele><time>2026-04-19T05:56:10Z</time></trkpt><trkpt lat="15.171364180140118" lon="120.5888198634257"><ele>105.0</ele><time>2026-04-19T05:56:11Z</time></trkpt><trkpt lat="15.171438206497129" lon="120.58880230116458"><ele>105.0</ele><time>2026-04-19T05:56:12Z</time></trkpt><trkpt lat="15.171511421376293" lon="120.588784931423"><ele>105.0</ele><time>2026-04-19T05:56:13Z</time></trkpt><trkpt lat="15.1715836744774" lon="120.58876778985443"><ele>105.0</ele><time>2026-04-19T05:56:14Z</time></trkpt><trkpt lat="15.171654386656206" lon="120.58875101386248"><ele>105.0</ele><time>2026-04-19T05:56:15Z</time></trkpt><trkpt lat="15.17172153163171" lon="120.58873508413367"><ele>105.0</ele><time>2026-04-19T05:56:16Z</time></trkpt><trkpt lat="15.171787767837591" lon="120.58871725417582"><ele>105.0</ele><time>2026-04-19T05:56:17Z</time></trkpt><trkpt lat="15.171851492136343" lon="120.58870021500128"><ele>105.0</ele><time>2026-04-19T05:56:18Z</time></trkpt><trkpt lat="15.171918246217064" lon="120.5886823657006"><ele>105.0</ele><time>2026-04-19T05:56:19Z</time></trkpt><trkpt lat="15.171989866527353" lon="120.58866321521802"><ele>105.0</ele><time>2026-04-19T05:56:20Z</time></trkpt><trkpt lat="15.172065542987474" lon="120.58864298017397"><ele>105.0</ele><time>2026-04-19T05:56:21Z</time></trkpt><trkpt lat="15.17214342398135" lon="120.5886221556539"><ele>105.0</ele><time>2026-04-19T05:56:22Z</time></trkpt><trkpt lat="15.17222056739931" lon="120.58860152835818"><ele>105.0</ele><time>2026-04-19T05:56:23Z</time></trkpt><trkpt lat="15.172297864682111" lon="120.58858085992058"><ele>105.0</ele><time>2026-04-19T05:56:24Z</time></trkpt><trkpt lat="15.172375027598251" lon="120.58856022741031"><ele>105.0</ele><time>2026-04-19T05:56:25Z</time></trkpt><trkpt lat="15.172453928319529" lon="120.58853913022654"><ele>105.0</ele><time>2026-04-19T05:56:26Z</time></trkpt><trkpt lat="15.17252798776506" lon="120.58851932755378"><ele>105.0</ele><time>2026-04-19T05:56:27Z</time></trkpt><trkpt lat="15.172600014532678" lon="120.58850006839134"><ele>104.71428571428571</ele><time>2026-04-19T05:56:28Z</time></trkpt><trkpt lat="15.172669972950775" lon="120.58848136218876"><ele>104.42857142857143</ele><time>2026-04-19T05:56:29Z</time></trkpt><trkpt lat="15.172735870247097" lon="120.58846374175698"><ele>104.14285714285714</ele><time>2026-04-19T05:56:30Z</time></trkpt><trkpt lat="15.172802785129742" lon="120.58844771492764"><ele>103.85714285714286</ele><time>2026-04-19T05:56:31Z</time></trkpt><trkpt lat="15.172872914760656" lon="120.58842977011923"><ele>103.57142857142857</ele><time>2026-04-19T05:56:32Z</time></trkpt><trkpt lat="15.17294642126676" lon="120.58841096123777"><ele>103.28571428571428</ele><time>2026-04-19T05:56:33Z</time></trkpt><trkpt lat="15.173022975836375" lon="120.58839172574794"><ele>103.0</ele><time>2026-04-19T05:56:34Z</time></trkpt><trkpt lat="15.173102409211632" lon="120.5883718143644"><ele>103.00000000000001</ele><time>2026-04-19T05:56:35Z</time></trkpt><trkpt lat="15.173184307347597" lon="120.58835128514121"><ele>103.0</ele><time>2026-04-19T05:56:36Z</time></trkpt><trkpt lat="15.17326652179227" lon="120.58833067663153"><ele>103.0</ele><time>2026-04-19T05:56:37Z</time></trkpt><trkpt lat="15.173348378774756" lon="120.58831015772408"><ele>103.0</ele><time>2026-04-19T05:56:38Z</time></trkpt><trkpt lat="15.173426709478585" lon="120.58829052274392"><ele>103.00000000000001</ele><time>2026-04-19T05:56:39Z</time></trkpt><trkpt lat="15.17350118384823" lon="120.5882718542231"><ele>103.0</ele><time>2026-04-19T05:56:40Z</time></trkpt><trkpt lat="15.173574756611599" lon="120.58825524186513"><ele>103.16666666666667</ele><time>2026-04-19T05:56:41Z</time></trkpt><trkpt lat="15.17365042418628" lon="120.58823731541297"><ele>103.33333333333334</ele><time>2026-04-19T05:56:42Z</time></trkpt><trkpt lat="15.173729177996968" lon="120.58821865779585"><ele>103.5</ele><time>2026-04-19T05:56:43Z</time></trkpt><trkpt lat="15.173812026148328" lon="120.58819866907818"><ele>103.66666666666666</ele><time>2026-04-19T05:56:44Z</time></trkpt><trkpt lat="15.173897660796733" lon="120.58817712259317"><ele>103.83333333333333</ele><time>2026-04-19T05:56:45Z</time></trkpt><trkpt lat="15.17398672929195" lon="120.58815448818719"><ele>104.0</ele><time>2026-04-19T05:56:46Z</time></trkpt><trkpt lat="15.174075666731577" lon="120.58813066544872"><ele>104.4</ele><time>2026-04-19T05:56:47Z</time></trkpt><trkpt lat="15.174166262366588" lon="120.58810644353998"><ele>104.80000000000001</ele><time>2026-04-19T05:56:48Z</time></trkpt><trkpt lat="15.174247901420923" lon="120.58803182412093"><ele>105.19999999999999</ele><time>2026-04-19T05:56:49Z</time></trkpt><trkpt lat="15.174343982452475" lon="120.58800859302107"><ele>105.6</ele><time>2026-04-19T05:56:50Z</time></trkpt><trkpt lat="15.174442434907414" lon="120.5879855389796"><ele>106.0</ele><time>2026-04-19T05:56:51Z</time></trkpt><trkpt lat="15.174540852985508" lon="120.58796303612428"><ele>106.0</ele><time>2026-04-19T05:56:52Z</time></trkpt><trkpt lat="15.1746475656052" lon="120.58798840831129"><ele>106.0</ele><time>2026-04-19T05:56:53Z</time></trkpt><trkpt lat="15.174739895380448" lon="120.58796640488359"><ele>106.0</ele><time>2026-04-19T05:56:54Z</time></trkpt><trkpt lat="15.174831489967271" lon="120.58794665289695"><ele>106.0</ele><time>2026-04-19T05:56:55Z</time></trkpt><trkpt lat="15.174920667785393" lon="120.5879314485353"><ele>106.0</ele><time>2026-04-19T05:56:56Z</time></trkpt><trkpt lat="15.175009433376623" lon="120.58791608869416"><ele>105.83333333333334</ele><time>2026-04-19T05:56:57Z</time></trkpt><trkpt lat="15.175095279924136" lon="120.58790123402491"><ele>105.66666666666667</ele><time>2026-04-19T05:56:58Z</time></trkpt><trkpt lat="15.175177811923586" lon="120.58788627599675"><ele>105.5</ele><time>2026-04-19T05:56:59Z</time></trkpt><trkpt lat="15.175260978216304" lon="120.58787137286933"><ele>105.33333333333334</ele><time>2026-04-19T05:57:00Z</time></trkpt><trkpt lat="15.175345961448258" lon="120.58785277419736"><ele>105.16666666666667</ele><time>2026-04-19T05:57:01Z</time></trkpt><trkpt lat="15.175427014700759" lon="120.58783497787152"><ele>105.0</ele><time>2026-04-19T05:57:02Z</time></trkpt><trkpt lat="15.17550752056069" lon="120.58781730176625"><ele>104.83333333333333</ele><time>2026-04-19T05:57:03Z</time></trkpt><trkpt lat="15.175580440735049" lon="120.58776312294621"><ele>104.66666666666666</ele><time>2026-04-19T05:57:04.001Z</time></trkpt><trkpt lat="15.175662286367269" lon="120.58774841284975"><ele>104.5</ele><time>2026-04-19T05:57:05.001Z</time></trkpt><trkpt lat="15.17574436200008" lon="120.58773382491009"><ele>104.33333333333333</ele><time>2026-04-19T05:57:06.001Z</time></trkpt><trkpt lat="15.17582588374546" lon="120.58771872744408"><ele>104.16666666666666</ele><time>2026-04-19T05:57:07.001Z</time></trkpt><trkpt lat="15.175907471323246" lon="120.58770352869702"><ele>104.0</ele><time>2026-04-19T05:57:08.001Z</time></trkpt><trkpt lat="15.175988497141967" lon="120.58768886660474"><ele>104.0</ele><time>2026-04-19T05:57:09.001Z</time></trkpt><trkpt lat="15.17607018340902" lon="120.58769176479927"><ele>104.0</ele><time>2026-04-19T05:57:10.001Z</time></trkpt><trkpt lat="15.176147980628041" lon="120.58768005594156"><ele>104.0</ele><time>2026-04-19T05:57:11.001Z</time></trkpt><trkpt lat="15.176220192517981" lon="120.58766918769449"><ele>104.0</ele><time>2026-04-19T05:57:12.001Z</time></trkpt><trkpt lat="15.17628603564582" lon="120.58765927798527"><ele>104.0</ele><time>2026-04-19T05:57:13.001Z</time></trkpt><trkpt lat="15.1763498288733" lon="120.58764967688582"><ele>104.0</ele><time>2026-04-19T05:57:14.001Z</time></trkpt><trkpt lat="15.176411875651162" lon="120.58763768569645"><ele>104.0</ele><time>2026-04-19T05:57:15.001Z</time></trkpt><trkpt lat="15.176527469868322" lon="120.5876121252604"><ele>104.16666666666666</ele><time>2026-04-19T05:57:17.001Z</time></trkpt><trkpt lat="15.176632461114659" lon="120.58759781602842"><ele>104.33333333333333</ele><time>2026-04-19T05:57:19.001Z</time></trkpt><trkpt lat="15.176726622117814" lon="120.58757580598724"><ele>104.5</ele><time>2026-04-19T05:57:21.001Z</time></trkpt><trkpt lat="15.176817045308013" lon="120.5875531725323"><ele>104.66666666666666</ele><time>2026-04-19T05:57:23.001Z</time></trkpt><trkpt lat="15.176873550747418" lon="120.58752038613817"><ele>104.83333333333333</ele><time>2026-04-19T05:57:25.001Z</time></trkpt><trkpt lat="15.176947593616676" lon="120.58750374382724"><ele>105.0</ele><time>2026-04-19T05:57:29Z</time></trkpt><trkpt lat="15.177011622111984" lon="120.58749018326698"><ele>105.0</ele><time>2026-04-19T05:57:32Z</time></trkpt><trkpt lat="15.177074881069963" lon="120.58747436086489"><ele>105.0</ele><time>2026-04-19T05:57:35Z</time></trkpt><trkpt lat="15.177139253026276" lon="120.58747350581562"><ele>105.0</ele><time>2026-04-19T05:57:37Z</time></trkpt><trkpt lat="15.177210445369006" lon="120.58745840384096"><ele>105.0</ele><time>2026-04-19T05:57:39Z</time></trkpt><trkpt lat="15.177283664619479" lon="120.58744267704549"><ele>105.0</ele><time>2026-04-19T05:57:41Z</time></trkpt><trkpt lat="15.177366479961933" lon="120.5874236547612"><ele>105.0</ele><time>2026-04-19T05:57:43Z</time></trkpt><trkpt lat="15.177463073110546" lon="120.58739996457027"><ele>105.0</ele><time>2026-04-19T05:57:45Z</time></trkpt><trkpt lat="15.177565278910704" lon="120.58737344285959"><ele>105.0</ele><time>2026-04-19T05:57:47Z</time></trkpt><trkpt lat="15.177667443221885" lon="120.58734678368319"><ele>105.0</ele><time>2026-04-19T05:57:49Z</time></trkpt><trkpt lat="15.177770927685218" lon="120.58731978001337"><ele>105.0</ele><time>2026-04-19T05:57:51Z</time></trkpt><trkpt lat="15.177874836069542" lon="120.58729115786596"><ele>105.0</ele><time>2026-04-19T05:57:53Z</time></trkpt><trkpt lat="15.177971153935607" lon="120.58725873679013"><ele>105.0</ele><time>2026-04-19T05:57:55Z</time></trkpt><trkpt lat="15.178033935579952" lon="120.58723708237181"><ele>105.0</ele><time>2026-04-19T05:57:58Z</time></trkpt><trkpt lat="15.178105061124448" lon="120.5872112003824"><ele>105.0</ele><time>2026-04-19T05:58:03Z</time></trkpt><trkpt lat="15.178188398114758" lon="120.587181796392"><ele>105.0</ele><time>2026-04-19T05:58:06Z</time></trkpt><trkpt lat="15.17824938826774" lon="120.58716414599564"><ele>105.0</ele><time>2026-04-19T05:58:08Z</time></trkpt><trkpt lat="15.17833090043971" lon="120.58714116147208"><ele>105.0</ele><time>2026-04-19T05:58:11Z</time></trkpt><trkpt lat="15.178392718282405" lon="120.58712385075124"><ele>105.0</ele><time>2026-04-19T05:58:14Z</time></trkpt><trkpt lat="15.178464054974182" lon="120.58708611500099"><ele>105.16666666666667</ele><time>2026-04-19T05:58:18Z</time></trkpt><trkpt lat="15.178552875618605" lon="120.58706217606608"><ele>105.33333333333334</ele><time>2026-04-19T05:58:22Z</time></trkpt><trkpt lat="15.178640841382776" lon="120.58703721701364"><ele>105.5</ele><time>2026-04-19T05:58:25Z</time></trkpt><trkpt lat="15.17873085037586" lon="120.58701342282644"><ele>105.66666666666667</ele><time>2026-04-19T05:58:28Z</time></trkpt><trkpt lat="15.178796386331747" lon="120.58699550978753"><ele>105.83333333333334</ele><time>2026-04-19T05:58:30Z</time></trkpt><trkpt lat="15.178873019454882" lon="120.58697523418267"><ele>106.0</ele><time>2026-04-19T05:58:32Z</time></trkpt><trkpt lat="15.178956968103444" lon="120.58695209904701"><ele>106.57142857142857</ele><time>2026-04-19T05:58:34Z</time></trkpt><trkpt lat="15.179033583193354" lon="120.58693085961778"><ele>107.14285714285714</ele><time>2026-04-19T05:58:36Z</time></trkpt><trkpt lat="15.179094874428817" lon="120.58691418526043"><ele>107.71428571428571</ele><time>2026-04-19T05:58:38Z</time></trkpt><trkpt lat="15.179160105305751" lon="120.58689775384593"><ele>108.28571428571428</ele><time>2026-04-19T05:58:41Z</time></trkpt><trkpt lat="15.179235964820904" lon="120.58687512455565"><ele>108.85714285714286</ele><time>2026-04-19T05:58:44Z</time></trkpt><trkpt lat="15.179302705903755" lon="120.58685812689988"><ele>109.42857142857142</ele><time>2026-04-19T05:58:46Z</time></trkpt><trkpt lat="15.179377461765485" lon="120.5868624523071"><ele>110.0</ele><time>2026-04-19T05:58:48Z</time></trkpt><trkpt lat="15.179445445154359" lon="120.58684403470585"><ele>109.99999999999999</ele><time>2026-04-19T05:58:50Z</time></trkpt><trkpt lat="15.179509445321107" lon="120.58682669620785"><ele>110.0</ele><time>2026-04-19T05:58:56Z</time></trkpt><trkpt lat="15.179497707283675" lon="120.58672150396778"><ele>110.0</ele><time>2026-04-19T05:59:06Z</time></trkpt><trkpt lat="15.179414184239366" lon="120.58673205973253"><ele>110.0</ele><time>2026-04-19T05:59:09Z</time></trkpt><trkpt lat="15.179312909269811" lon="120.58676505040773"><ele>109.99999999999999</ele><time>2026-04-19T05:59:11Z</time></trkpt><trkpt lat="15.179246405416611" lon="120.58678671608791"><ele>110.0</ele><time>2026-04-19T05:59:12Z</time></trkpt><trkpt lat="15.179172814559546" lon="120.58680948859381"><ele>109.99999999999999</ele><time>2026-04-19T05:59:13Z</time></trkpt><trkpt lat="15.179094657871467" lon="120.58683381666813"><ele>110.0</ele><time>2026-04-19T05:59:14Z</time></trkpt><trkpt lat="15.179012191313259" lon="120.58685820524494"><ele>110.0</ele><time>2026-04-19T05:59:15Z</time></trkpt><trkpt lat="15.178926456604005" lon="120.58688175218842"><ele>110.0</ele><time>2026-04-19T05:59:16Z</time></trkpt><trkpt lat="15.178842442356231" lon="120.58690502223702"><ele>109.99999999999999</ele><time>2026-04-19T05:59:17Z</time></trkpt><trkpt lat="15.178756898851603" lon="120.58692645057958"><ele>110.0</ele><time>2026-04-19T05:59:18Z</time></trkpt><trkpt lat="15.178674837008346" lon="120.5869477880426"><ele>109.66666666666666</ele><time>2026-04-19T05:59:19Z</time></trkpt><trkpt lat="15.178592856439485" lon="120.58696864710377"><ele>109.33333333333333</ele><time>2026-04-19T05:59:20Z</time></trkpt><trkpt lat="15.178511632285671" lon="120.5869893434604"><ele>109.0</ele><time>2026-04-19T05:59:21Z</time></trkpt><trkpt lat="15.178435903046473" lon="120.58700575694017"><ele>108.66666666666666</ele><time>2026-04-19T05:59:22Z</time></trkpt><trkpt lat="15.178368464339261" lon="120.58701743176499"><ele>108.33333333333333</ele><time>2026-04-19T05:59:23Z</time></trkpt><trkpt lat="15.178262022164816" lon="120.58703178526319"><ele>108.0</ele><time>2026-04-19T05:59:25.001Z</time></trkpt><trkpt lat="15.178198666514316" lon="120.5870392816528"><ele>107.5</ele><time>2026-04-19T05:59:27.001Z</time></trkpt><trkpt lat="15.178131798548886" lon="120.58707801327128"><ele>107.0</ele><time>2026-04-19T06:00:35Z</time></trkpt><trkpt lat="15.178068873753316" lon="120.58709611902844"><ele>106.5</ele><time>2026-04-19T06:00:37Z</time></trkpt><trkpt lat="15.177986379624958" lon="120.5871178605417"><ele>106.0</ele><time>2026-04-19T06:00:39Z</time></trkpt><trkpt lat="15.177889489675982" lon="120.58714015235141"><ele>105.5</ele><time>2026-04-19T06:00:41Z</time></trkpt><trkpt lat="15.177795530536239" lon="120.58718785287817"><ele>105.0</ele><time>2026-04-19T06:00:43Z</time></trkpt><trkpt lat="15.17768259422386" lon="120.58720102277995"><ele>105.0</ele><time>2026-04-19T06:00:45Z</time></trkpt><trkpt lat="15.177570885279028" lon="120.58724958292717"><ele>105.0</ele><time>2026-04-19T06:00:47Z</time></trkpt><trkpt lat="15.177458588364663" lon="120.5872805703178"><ele>105.0</ele><time>2026-04-19T06:00:49Z</time></trkpt><trkpt lat="15.177355457417143" lon="120.58730902843362"><ele>105.0</ele><time>2026-04-19T06:00:51Z</time></trkpt><trkpt lat="15.17725518365833" lon="120.58733625073843"><ele>105.0</ele><time>2026-04-19T06:00:53Z</time></trkpt><trkpt lat="15.177164476346153" lon="120.58735974385716"><ele>105.0</ele><time>2026-04-19T06:00:55Z</time></trkpt><trkpt lat="15.177092336100126" lon="120.5873784281138"><ele>105.0</ele><time>2026-04-19T06:00:57Z</time></trkpt><trkpt lat="15.177018933127794" lon="120.5873974394252"><ele>105.0</ele><time>2026-04-19T06:01:01Z</time></trkpt><trkpt lat="15.176955034348746" lon="120.58741398914843"><ele>105.0</ele><time>2026-04-19T06:01:27Z</time></trkpt><trkpt lat="15.176872390029015" lon="120.58743653734109"><ele>105.0</ele><time>2026-04-19T06:01:31Z</time></trkpt><trkpt lat="15.176804557576828" lon="120.58745525490374"><ele>105.0</ele><time>2026-04-19T06:01:34Z</time></trkpt><trkpt lat="15.176737814222522" lon="120.58746981718245"><ele>105.0</ele><time>2026-04-19T06:01:37Z</time></trkpt><trkpt lat="15.176675140136048" lon="120.58748350981921"><ele>105.0</ele><time>2026-04-19T06:01:46Z</time></trkpt><trkpt lat="15.176608912865936" lon="120.5874979787343"><ele>105.0</ele><time>2026-04-19T06:01:52Z</time></trkpt><trkpt lat="15.176538891576548" lon="120.58751327654454"><ele>105.0</ele><time>2026-04-19T06:01:56Z</time></trkpt><trkpt lat="15.176468721741317" lon="120.58752860681423"><ele>105.0</ele><time>2026-04-19T06:01:59Z</time></trkpt><trkpt lat="15.176404163544746" lon="120.58754271108421"><ele>105.0</ele><time>2026-04-19T06:02:02Z</time></trkpt><trkpt lat="15.176340972694387" lon="120.58755415075278"><ele>105.0</ele><time>2026-04-19T06:02:05Z</time></trkpt><trkpt lat="15.176260272255746" lon="120.58756660687547"><ele>105.0</ele><time>2026-04-19T06:02:08Z</time></trkpt><trkpt lat="15.176186069266233" lon="120.58758252689155"><ele>104.8</ele><time>2026-04-19T06:02:10Z</time></trkpt><trkpt lat="15.17609613458009" lon="120.58760045357383"><ele>104.6</ele><time>2026-04-19T06:02:12Z</time></trkpt><trkpt lat="15.175991588272655" lon="120.58762129278051"><ele>104.4</ele><time>2026-04-19T06:02:14Z</time></trkpt><trkpt lat="15.17587668162315" lon="120.5876441971231"><ele>104.2</ele><time>2026-04-19T06:02:16Z</time></trkpt><trkpt lat="15.175774087123772" lon="120.58766464727104"><ele>104.0</ele><time>2026-04-19T06:02:18Z</time></trkpt><trkpt lat="15.175712007901618" lon="120.58767702143273"><ele>103.99999999999999</ele><time>2026-04-19T06:02:20Z</time></trkpt><trkpt lat="15.175732681869768" lon="120.58753985175093"><ele>104.0</ele><time>2026-04-19T06:02:23Z</time></trkpt><trkpt lat="15.175709093627866" lon="120.58746283105673"><ele>104.0</ele><time>2026-04-19T06:02:27Z</time></trkpt><trkpt lat="15.175692654703829" lon="120.58739346812386"><ele>104.0</ele><time>2026-04-19T06:02:31Z</time></trkpt><trkpt lat="15.175674269385814" lon="120.58732313501744"><ele>103.99999999999999</ele><time>2026-04-19T06:02:37Z</time></trkpt><trkpt lat="15.17565300121108" lon="120.58724570595528"><ele>104.0</ele><time>2026-04-19T06:02:59Z</time></trkpt><trkpt lat="15.175658661094992" lon="120.58717920640903"><ele>104.0</ele><time>2026-04-19T06:03:01Z</time></trkpt><trkpt lat="15.175606586415716" lon="120.58709548530425"><ele>104.0</ele><time>2026-04-19T06:03:04Z</time></trkpt><trkpt lat="15.175585986415436" lon="120.58701830853437"><ele>104.0</ele><time>2026-04-19T06:03:08Z</time></trkpt><trkpt lat="15.175400626576938" lon="120.58707853748464"><ele>104.0</ele><time>2026-04-19T06:03:16Z</time></trkpt><trkpt lat="15.175471611053668" lon="120.5870650358283"><ele>104.0</ele><time>2026-04-19T06:03:17Z</time></trkpt><trkpt lat="15.175564406920534" lon="120.58709353178507"><ele>104.0</ele><time>2026-04-19T06:03:18Z</time></trkpt><trkpt lat="15.175613605414059" lon="120.58715386643739"><ele>104.0</ele><time>2026-04-19T06:03:19Z</time></trkpt><trkpt lat="15.175621612740603" lon="120.58722079363275"><ele>104.0</ele><time>2026-04-19T06:03:20Z</time></trkpt><trkpt lat="15.175622203935003" lon="120.58714149777018"><ele>104.0</ele><time>2026-04-19T06:03:21Z</time></trkpt><trkpt lat="15.17557353868941" lon="120.58706649209671"><ele>104.0</ele><time>2026-04-19T06:03:22Z</time></trkpt><trkpt lat="15.175639015833742" lon="120.58720634692325"><ele>104.0</ele><time>2026-04-19T06:03:23Z</time></trkpt><trkpt lat="15.175581182689092" lon="120.58704385764558"><ele>104.0</ele><time>2026-04-19T06:03:25Z</time></trkpt><trkpt lat="15.175615622555139" lon="120.58710497737732"><ele>104.0</ele><time>2026-04-19T06:14:06.001Z</time></trkpt><trkpt lat="15.175638209875268" lon="120.58718830953308"><ele>104.0</ele><time>2026-04-19T06:14:09.001Z</time></trkpt><trkpt lat="15.175660921738546" lon="120.58727210114058"><ele>104.0</ele><time>2026-04-19T06:14:12.001Z</time></trkpt><trkpt lat="15.17567771036247" lon="120.58733629847694"><ele>104.0</ele><time>2026-04-19T06:14:14.001Z</time></trkpt><trkpt lat="15.175699554375315" lon="120.58741986290755"><ele>104.0</ele><time>2026-04-19T06:14:17.001Z</time></trkpt><trkpt lat="15.175718928635668" lon="120.5874939791777"><ele>104.0</ele><time>2026-04-19T06:14:20.001Z</time></trkpt><trkpt lat="15.175739086539169" lon="120.58756076426013"><ele>104.0</ele><time>2026-04-19T06:14:28Z</time></trkpt><trkpt lat="15.175503439835804" lon="120.58753644147798"><ele>104.0</ele><time>2026-04-19T06:14:33Z</time></trkpt><trkpt lat="15.175485337349082" lon="120.5876575076408"><ele>104.0</ele><time>2026-04-19T06:14:34Z</time></trkpt><trkpt lat="15.17538388246829" lon="120.58768219966593"><ele>104.0</ele><time>2026-04-19T06:14:36Z</time></trkpt><trkpt lat="15.1752731841864" lon="120.58774553983106"><ele>104.0</ele><time>2026-04-19T06:14:38Z</time></trkpt><trkpt lat="15.175208192498616" lon="120.58775851625502"><ele>104.0</ele><time>2026-04-19T06:14:39Z</time></trkpt><trkpt lat="15.175142522335063" lon="120.58777028412813"><ele>103.99999999999999</ele><time>2026-04-19T06:14:40Z</time></trkpt><trkpt lat="15.175074289484298" lon="120.58778251122678"><ele>104.0</ele><time>2026-04-19T06:14:41Z</time></trkpt><trkpt lat="15.175003129099952" lon="120.58779526287297"><ele>104.0</ele><time>2026-04-19T06:14:42Z</time></trkpt><trkpt lat="15.174925600054962" lon="120.58780840092564"><ele>104.0</ele><time>2026-04-19T06:14:43Z</time></trkpt><trkpt lat="15.174848049151766" lon="120.58782182020022"><ele>103.99999999999999</ele><time>2026-04-19T06:14:44Z</time></trkpt><trkpt lat="15.174768741802447" lon="120.58783706541888"><ele>104.0</ele><time>2026-04-19T06:14:45Z</time></trkpt><trkpt lat="15.174687734012203" lon="120.58785453449373"><ele>104.33333333333333</ele><time>2026-04-19T06:14:46Z</time></trkpt><trkpt lat="15.17460551980262" lon="120.58787450740182"><ele>104.66666666666666</ele><time>2026-04-19T06:14:47Z</time></trkpt><trkpt lat="15.174523672865753" lon="120.58789494090597"><ele>105.0</ele><time>2026-04-19T06:14:48Z</time></trkpt><trkpt lat="15.174441599369358" lon="120.58791507741395"><ele>105.33333333333334</ele><time>2026-04-19T06:14:49Z</time></trkpt><trkpt lat="15.174359202043174" lon="120.58793529965743"><ele>105.66666666666667</ele><time>2026-04-19T06:14:50Z</time></trkpt><trkpt lat="15.174274703515097" lon="120.58795603758"><ele>106.0</ele><time>2026-04-19T06:14:51Z</time></trkpt><trkpt lat="15.1741889469363" lon="120.58797650214063"><ele>106.00000000000001</ele><time>2026-04-19T06:14:52Z</time></trkpt><trkpt lat="15.174106232497277" lon="120.58799798848226"><ele>106.0</ele><time>2026-04-19T06:14:53Z</time></trkpt><trkpt lat="15.174024208963878" lon="120.58801994980307"><ele>106.0</ele><time>2026-04-19T06:14:54Z</time></trkpt><trkpt lat="15.173941872306548" lon="120.58804194854352"><ele>106.0</ele><time>2026-04-19T06:14:55Z</time></trkpt><trkpt lat="15.173857378743971" lon="120.58806320792608"><ele>106.00000000000001</ele><time>2026-04-19T06:14:56Z</time></trkpt><trkpt lat="15.173772997170342" lon="120.5880844391346"><ele>106.0</ele><time>2026-04-19T06:14:57Z</time></trkpt><trkpt lat="15.173687661727934" lon="120.58810484048203"><ele>105.66666666666667</ele><time>2026-04-19T06:14:58Z</time></trkpt><trkpt lat="15.173604188536112" lon="120.58812461615902"><ele>105.33333333333334</ele><time>2026-04-19T06:14:59Z</time></trkpt><trkpt lat="15.173518290993202" lon="120.58812769980096"><ele>105.0</ele><time>2026-04-19T06:15:00Z</time></trkpt><trkpt lat="15.173439393518981" lon="120.58815044979376"><ele>104.66666666666666</ele><time>2026-04-19T06:15:01Z</time></trkpt><trkpt lat="15.173362822914333" lon="120.58817404596913"><ele>104.33333333333333</ele><time>2026-04-19T06:15:02Z</time></trkpt><trkpt lat="15.173290603552152" lon="120.58819754269874"><ele>104.0</ele><time>2026-04-19T06:15:03Z</time></trkpt><trkpt lat="15.173219720494185" lon="120.5882190390402"><ele>103.83333333333333</ele><time>2026-04-19T06:15:04Z</time></trkpt><trkpt lat="15.173148007900602" lon="120.58823987077236"><ele>103.66666666666666</ele><time>2026-04-19T06:15:05Z</time></trkpt><trkpt lat="15.173075108499408" lon="120.58826085931473"><ele>103.5</ele><time>2026-04-19T06:15:06Z</time></trkpt><trkpt lat="15.173003760087916" lon="120.58828110154155"><ele>103.33333333333334</ele><time>2026-04-19T06:15:07Z</time></trkpt><trkpt lat="15.1729323688944" lon="120.58830291269982"><ele>103.16666666666667</ele><time>2026-04-19T06:15:08Z</time></trkpt><trkpt lat="15.17285922570761" lon="120.58832394067036"><ele>103.0</ele><time>2026-04-19T06:15:09Z</time></trkpt><trkpt lat="15.172782659327527" lon="120.58834266878415"><ele>103.00000000000001</ele><time>2026-04-19T06:15:10Z</time></trkpt><trkpt lat="15.172702589840648" lon="120.58836031351433"><ele>103.0</ele><time>2026-04-19T06:15:11Z</time></trkpt><trkpt lat="15.172620750256904" lon="120.58837826542778"><ele>103.0</ele><time>2026-04-19T06:15:12Z</time></trkpt><trkpt lat="15.172534764204276" lon="120.58839909349801"><ele>103.0</ele><time>2026-04-19T06:15:13Z</time></trkpt><trkpt lat="15.172445924093449" lon="120.58842115372605"><ele>103.00000000000001</ele><time>2026-04-19T06:15:14Z</time></trkpt><trkpt lat="15.172354993305126" lon="120.58844351291964"><ele>103.0</ele><time>2026-04-19T06:15:15Z</time></trkpt><trkpt lat="15.172260420093002" lon="120.58846680098122"><ele>103.4</ele><time>2026-04-19T06:15:16Z</time></trkpt><trkpt lat="15.172163685151016" lon="120.58849174648289"><ele>103.80000000000001</ele><time>2026-04-19T06:15:17Z</time></trkpt><trkpt lat="15.17206482707316" lon="120.58851821898679"><ele>104.2</ele><time>2026-04-19T06:15:18Z</time></trkpt><trkpt lat="15.171963991381388" lon="120.58854539720905"><ele>104.6</ele><time>2026-04-19T06:15:19Z</time></trkpt><trkpt lat="15.171862797065321" lon="120.5885726888068"><ele>105.0</ele><time>2026-04-19T06:15:20Z</time></trkpt><trkpt lat="15.17176146919399" lon="120.58859847060315"><ele>105.0</ele><time>2026-04-19T06:15:21Z</time></trkpt><trkpt lat="15.171658551851253" lon="120.58862449853537"><ele>105.0</ele><time>2026-04-19T06:15:22.001Z</time></trkpt><trkpt lat="15.171553965593615" lon="120.58865055193286"><ele>105.0</ele><time>2026-04-19T06:15:23.001Z</time></trkpt><trkpt lat="15.171448357912967" lon="120.58867715587301"><ele>105.0</ele><time>2026-04-19T06:15:24.001Z</time></trkpt><trkpt lat="15.1713423061209" lon="120.5887043955979"><ele>105.0</ele><time>2026-04-19T06:15:25.001Z</time></trkpt><trkpt lat="15.171235189681088" lon="120.58873235539073"><ele>105.0</ele><time>2026-04-19T06:15:26.001Z</time></trkpt><trkpt lat="15.171129749044939" lon="120.58875950474592"><ele>105.0</ele><time>2026-04-19T06:15:27.001Z</time></trkpt><trkpt lat="15.171024512307493" lon="120.58878650819166"><ele>105.0</ele><time>2026-04-19T06:15:28.001Z</time></trkpt><trkpt lat="15.170920398836131" lon="120.58881202963401"><ele>105.0</ele><time>2026-04-19T06:15:29.001Z</time></trkpt><trkpt lat="15.170821541847895" lon="120.58885792909064"><ele>105.0</ele><time>2026-04-19T06:15:30.001Z</time></trkpt><trkpt lat="15.170718629705473" lon="120.58887984701799"><ele>104.8</ele><time>2026-04-19T06:15:31.001Z</time></trkpt><trkpt lat="15.170618215952274" lon="120.58890123284205"><ele>104.6</ele><time>2026-04-19T06:15:32.001Z</time></trkpt><trkpt lat="15.170522958048553" lon="120.58892152060037"><ele>104.4</ele><time>2026-04-19T06:15:33.001Z</time></trkpt><trkpt lat="15.170428873311547" lon="120.58894155849201"><ele>104.2</ele><time>2026-04-19T06:15:34.001Z</time></trkpt><trkpt lat="15.170339576597241" lon="120.58896057664644"><ele>104.0</ele><time>2026-04-19T06:15:35.001Z</time></trkpt><trkpt lat="15.170255428971116" lon="120.58896304251402"><ele>103.99999999999999</ele><time>2026-04-19T06:15:36.001Z</time></trkpt><trkpt lat="15.170184806663713" lon="120.58897957055422"><ele>104.0</ele><time>2026-04-19T06:15:37.001Z</time></trkpt><trkpt lat="15.17012021051763" lon="120.58899420056105"><ele>104.0</ele><time>2026-04-19T06:15:38.001Z</time></trkpt><trkpt lat="15.17001229204441" lon="120.58903601937442"><ele>104.0</ele><time>2026-04-19T06:15:40.001Z</time></trkpt><trkpt lat="15.16993691357526" lon="120.58904201229765"><ele>103.99999999999999</ele><time>2026-04-19T06:15:42.001Z</time></trkpt><trkpt lat="15.169865157553106" lon="120.58899809843861"><ele>104.0</ele><time>2026-04-19T06:15:45.001Z</time></trkpt><trkpt lat="15.169806581769462" lon="120.58892296778554"><ele>104.0</ele><time>2026-04-19T06:15:48.001Z</time></trkpt><trkpt lat="15.169769942886129" lon="120.58884930250646"><ele>104.0</ele><time>2026-04-19T06:15:50.001Z</time></trkpt><trkpt lat="15.16973095280955" lon="120.58875813296886"><ele>104.0</ele><time>2026-04-19T06:15:52.001Z</time></trkpt><trkpt lat="15.169686914619495" lon="120.5886555996296"><ele>104.0</ele><time>2026-04-19T06:15:54.001Z</time></trkpt><trkpt lat="15.169641099423485" lon="120.58854036674252"><ele>104.0</ele><time>2026-04-19T06:15:56.001Z</time></trkpt><trkpt lat="15.169597318294953" lon="120.58841888524725"><ele>104.2</ele><time>2026-04-19T06:15:58.001Z</time></trkpt><trkpt lat="15.169577042427255" lon="120.5883542910156"><ele>104.4</ele><time>2026-04-19T06:15:59.001Z</time></trkpt><trkpt lat="15.169540658340244" lon="120.58823501640589"><ele>104.6</ele><time>2026-04-19T06:16:01.001Z</time></trkpt><trkpt lat="15.169503521586034" lon="120.58813313545578"><ele>104.8</ele><time>2026-04-19T06:16:03.001Z</time></trkpt><trkpt lat="15.169507478388608" lon="120.5880495715698"><ele>105.0</ele><time>2026-04-19T06:16:05.001Z</time></trkpt><trkpt lat="15.169422521028881" lon="120.58804185641398"><ele>105.0</ele><time>2026-04-19T06:16:06.001Z</time></trkpt><trkpt lat="15.169340069809657" lon="120.58800099158182"><ele>105.0</ele><time>2026-04-19T06:16:09.001Z</time></trkpt><trkpt lat="15.16926939194703" lon="120.5879938843995"><ele>105.0</ele><time>2026-04-19T06:16:11.001Z</time></trkpt><trkpt lat="15.169187747220992" lon="120.58799997506755"><ele>105.0</ele><time>2026-04-19T06:16:13.001Z</time></trkpt><trkpt lat="15.16908549333811" lon="120.5880224381623"><ele>105.0</ele><time>2026-04-19T06:16:15.001Z</time></trkpt><trkpt lat="15.169024449692698" lon="120.58803984340294"><ele>105.0</ele><time>2026-04-19T06:16:16.001Z</time></trkpt><trkpt lat="15.16895874099086" lon="120.58805968044145"><ele>105.0</ele><time>2026-04-19T06:16:17.001Z</time></trkpt><trkpt lat="15.168888027613766" lon="120.58808092209004"><ele>105.0</ele><time>2026-04-19T06:16:18.001Z</time></trkpt><trkpt lat="15.168815859225372" lon="120.58810169469632"><ele>105.0</ele><time>2026-04-19T06:16:19.001Z</time></trkpt><trkpt lat="15.168742897618097" lon="120.58812157136813"><ele>105.0</ele><time>2026-04-19T06:16:20.001Z</time></trkpt><trkpt lat="15.1686753732808" lon="120.58815052483132"><ele>105.0</ele><time>2026-04-19T06:16:21.001Z</time></trkpt><trkpt lat="15.16859922854132" lon="120.58813864411763"><ele>105.0</ele><time>2026-04-19T06:16:22.001Z</time></trkpt><trkpt lat="15.168531755536566" lon="120.58812688140632"><ele>105.0</ele><time>2026-04-19T06:16:23.001Z</time></trkpt><trkpt lat="15.168471747985794" lon="120.58810095425808"><ele>105.0</ele><time>2026-04-19T06:16:24.001Z</time></trkpt><trkpt lat="15.16839055012185" lon="120.58801517819047"><ele>105.0</ele><time>2026-04-19T06:16:26.001Z</time></trkpt><trkpt lat="15.168341656379727" lon="120.58789597854472"><ele>105.0</ele><time>2026-04-19T06:16:28Z</time></trkpt><trkpt lat="15.168317788537534" lon="120.58782449076699"><ele>105.0</ele><time>2026-04-19T06:16:29Z</time></trkpt><trkpt lat="15.168292353887084" lon="120.58774895070495"><ele>105.0</ele><time>2026-04-19T06:16:30Z</time></trkpt><trkpt lat="15.168265129927569" lon="120.58766955844693"><ele>105.4</ele><time>2026-04-19T06:16:31Z</time></trkpt><trkpt lat="15.168237275661042" lon="120.58758639573037"><ele>105.8</ele><time>2026-04-19T06:16:32Z</time></trkpt><trkpt lat="15.168209881107831" lon="120.5874991793852"><ele>106.19999999999999</ele><time>2026-04-19T06:16:33Z</time></trkpt><trkpt lat="15.168181998680232" lon="120.58740865313831"><ele>106.6</ele><time>2026-04-19T06:16:34Z</time></trkpt><trkpt lat="15.168152641954398" lon="120.58731585893497"><ele>107.0</ele><time>2026-04-19T06:16:35Z</time></trkpt><trkpt lat="15.168121661624443" lon="120.5872208742277"><ele>107.19999999999999</ele><time>2026-04-19T06:16:36Z</time></trkpt><trkpt lat="15.16808793230092" lon="120.58712289640471"><ele>107.39999999999999</ele><time>2026-04-19T06:16:37Z</time></trkpt><trkpt lat="15.16805288772035" lon="120.58702204363705"><ele>107.60000000000001</ele><time>2026-04-19T06:16:38Z</time></trkpt><trkpt lat="15.168019365549977" lon="120.58691914896588"><ele>107.80000000000001</ele><time>2026-04-19T06:16:39Z</time></trkpt><trkpt lat="15.167982563591455" lon="120.58681440218476"><ele>108.0</ele><time>2026-04-19T06:16:40Z</time></trkpt><trkpt lat="15.167943498161168" lon="120.58670763234767"><ele>108.5</ele><time>2026-04-19T06:16:41Z</time></trkpt><trkpt lat="15.167904763511055" lon="120.58659831057744"><ele>109.0</ele><time>2026-04-19T06:16:42Z</time></trkpt><trkpt lat="15.167866091912014" lon="120.58648867798438"><ele>109.5</ele><time>2026-04-19T06:16:43Z</time></trkpt><trkpt lat="15.167826263071037" lon="120.58637555384495"><ele>110.0</ele><time>2026-04-19T06:16:44Z</time></trkpt><trkpt lat="15.167787263541381" lon="120.58626284255345"><ele>110.5</ele><time>2026-04-19T06:16:45Z</time></trkpt><trkpt lat="15.167748234671887" lon="120.5861489946033"><ele>111.0</ele><time>2026-04-19T06:16:46Z</time></trkpt><trkpt lat="15.167707594025854" lon="120.58603239904149"><ele>111.5</ele><time>2026-04-19T06:16:47Z</time></trkpt><trkpt lat="15.167665622336983" lon="120.58591717058164"><ele>112.0</ele><time>2026-04-19T06:16:48Z</time></trkpt><trkpt lat="15.167624879623622" lon="120.58580309360795"><ele>112.0</ele><time>2026-04-19T06:16:49Z</time></trkpt><trkpt lat="15.167584956131513" lon="120.5856896825324"><ele>112.0</ele><time>2026-04-19T06:16:50Z</time></trkpt><trkpt lat="15.167545991387327" lon="120.58557596902368"><ele>112.0</ele><time>2026-04-19T06:16:51Z</time></trkpt><trkpt lat="15.16750796513499" lon="120.58546276836371"><ele>112.0</ele><time>2026-04-19T06:16:52Z</time></trkpt><trkpt lat="15.167471893355465" lon="120.58534932871947"><ele>111.39999999999999</ele><time>2026-04-19T06:16:53Z</time></trkpt><trkpt lat="15.16743925560082" lon="120.58524014984724"><ele>110.79999999999998</ele><time>2026-04-19T06:16:54Z</time></trkpt><trkpt lat="15.167409445323994" lon="120.58513602652314"><ele>110.2</ele><time>2026-04-19T06:16:55Z</time></trkpt><trkpt lat="15.167382407523924" lon="120.58503507480181"><ele>109.6</ele><time>2026-04-19T06:16:56Z</time></trkpt><trkpt lat="15.167355523518124" lon="120.58493603357985"><ele>109.0</ele><time>2026-04-19T06:16:57Z</time></trkpt><trkpt lat="15.167347975063562" lon="120.5848343617343"><ele>109.0</ele><time>2026-04-19T06:16:58Z</time></trkpt><trkpt lat="15.167325503079361" lon="120.58473717613013"><ele>109.0</ele><time>2026-04-19T06:16:59Z</time></trkpt><trkpt lat="15.16728631674008" lon="120.58464247860864"><ele>109.0</ele><time>2026-04-19T06:17:00Z</time></trkpt><trkpt lat="15.167264511154084" lon="120.5845441485086"><ele>109.0</ele><time>2026-04-19T06:17:01Z</time></trkpt><trkpt lat="15.167243879240251" lon="120.58444530546367"><ele>109.0</ele><time>2026-04-19T06:17:02Z</time></trkpt><trkpt lat="15.167225035756259" lon="120.58434510640964"><ele>109.0</ele><time>2026-04-19T06:17:03Z</time></trkpt><trkpt lat="15.167236930881067" lon="120.58424036656209"><ele>109.0</ele><time>2026-04-19T06:17:04Z</time></trkpt><trkpt lat="15.167218791492335" lon="120.58414443350779"><ele>109.0</ele><time>2026-04-19T06:17:05Z</time></trkpt><trkpt lat="15.167200839550365" lon="120.5840494561203"><ele>109.0</ele><time>2026-04-19T06:17:06Z</time></trkpt><trkpt lat="15.167166574860873" lon="120.58395708219706"><ele>109.0</ele><time>2026-04-19T06:17:07Z</time></trkpt><trkpt lat="15.167156313039959" lon="120.58385849031819"><ele>109.0</ele><time>2026-04-19T06:17:08Z</time></trkpt><trkpt lat="15.167174994886036" lon="120.58376085457294"><ele>109.0</ele><time>2026-04-19T06:17:09Z</time></trkpt><trkpt lat="15.167180055980493" lon="120.58365963270681"><ele>109.0</ele><time>2026-04-19T06:17:10Z</time></trkpt><trkpt lat="15.167180411399492" lon="120.58355192645789"><ele>109.0</ele><time>2026-04-19T06:17:11Z</time></trkpt><trkpt lat="15.16716772485512" lon="120.58344216580491"><ele>109.0</ele><time>2026-04-19T06:17:12Z</time></trkpt><trkpt lat="15.167149146677314" lon="120.58333379335018"><ele>109.0</ele><time>2026-04-19T06:17:13Z</time></trkpt><trkpt lat="15.167134501942032" lon="120.58322359303084"><ele>109.0</ele><time>2026-04-19T06:17:14Z</time></trkpt><trkpt lat="15.167117705477624" lon="120.58310965664687"><ele>109.0</ele><time>2026-04-19T06:17:15Z</time></trkpt><trkpt lat="15.167097304469957" lon="120.58299295675722"><ele>109.0</ele><time>2026-04-19T06:17:16Z</time></trkpt><trkpt lat="15.167076148395058" lon="120.58287613834811"><ele>109.0</ele><time>2026-04-19T06:17:17Z</time></trkpt><trkpt lat="15.167055679889673" lon="120.58275821221596"><ele>109.0</ele><time>2026-04-19T06:17:18Z</time></trkpt><trkpt lat="15.16703538226231" lon="120.58263616487017"><ele>109.0</ele><time>2026-04-19T06:17:19Z</time></trkpt><trkpt lat="15.167015621250894" lon="120.58251428847662"><ele>109.0</ele><time>2026-04-19T06:17:20Z</time></trkpt><trkpt lat="15.166996304636783" lon="120.58239286976219"><ele>109.0</ele><time>2026-04-19T06:17:21Z</time></trkpt><trkpt lat="15.166977070160586" lon="120.58227096678831"><ele>109.0</ele><time>2026-04-19T06:17:22Z</time></trkpt><trkpt lat="15.166957771719545" lon="120.58214835117019"><ele>109.0</ele><time>2026-04-19T06:17:23Z</time></trkpt><trkpt lat="15.16693806677656" lon="120.58202315282729"><ele>109.0</ele><time>2026-04-19T06:17:24Z</time></trkpt><trkpt lat="15.166917644695436" lon="120.58189339800995"><ele>109.0</ele><time>2026-04-19T06:17:25Z</time></trkpt><trkpt lat="15.1668969510971" lon="120.58176191806605"><ele>109.75</ele><time>2026-04-19T06:17:26Z</time></trkpt><trkpt lat="15.166875850225516" lon="120.58162785045644"><ele>110.5</ele><time>2026-04-19T06:17:27Z</time></trkpt><trkpt lat="15.16685440807634" lon="120.58149161447753"><ele>111.25</ele><time>2026-04-19T06:17:28Z</time></trkpt><trkpt lat="15.166832653530726" lon="120.58135339364577"><ele>112.0</ele><time>2026-04-19T06:17:29Z</time></trkpt><trkpt lat="15.166810963958069" lon="120.5812155856302"><ele>112.5</ele><time>2026-04-19T06:17:30Z</time></trkpt><trkpt lat="15.166774546967043" lon="120.58108421545641"><ele>113.0</ele><time>2026-04-19T06:17:31Z</time></trkpt><trkpt lat="15.166753836615946" lon="120.58095286569699"><ele>113.5</ele><time>2026-04-19T06:17:32Z</time></trkpt><trkpt lat="15.166749496390798" lon="120.58082115174355"><ele>114.0</ele><time>2026-04-19T06:17:33Z</time></trkpt><trkpt lat="15.166724958201357" lon="120.58069567959508"><ele>114.0</ele><time>2026-04-19T06:17:34Z</time></trkpt><trkpt lat="15.166702502994152" lon="120.5805692582934"><ele>114.0</ele><time>2026-04-19T06:17:35Z</time></trkpt><trkpt lat="15.166679717999267" lon="120.58044269156592"><ele>114.0</ele><time>2026-04-19T06:17:36Z</time></trkpt><trkpt lat="15.166658154396925" lon="120.58031568234534"><ele>114.0</ele><time>2026-04-19T06:17:37Z</time></trkpt><trkpt lat="15.166637978614693" lon="120.58019246282834"><ele>114.25</ele><time>2026-04-19T06:17:38Z</time></trkpt><trkpt lat="15.166615372712675" lon="120.58006903482067"><ele>114.5</ele><time>2026-04-19T06:17:39Z</time></trkpt><trkpt lat="15.166593045760637" lon="120.57994648681155"><ele>114.75</ele><time>2026-04-19T06:17:40Z</time></trkpt><trkpt lat="15.166570332009844" lon="120.57982687477951"><ele>115.0</ele><time>2026-04-19T06:17:41Z</time></trkpt><trkpt lat="15.166547946229148" lon="120.57971087381557"><ele>115.0</ele><time>2026-04-19T06:17:42Z</time></trkpt><trkpt lat="15.166525492713314" lon="120.57959443855519"><ele>115.0</ele><time>2026-04-19T06:17:43Z</time></trkpt><trkpt lat="15.166504636864381" lon="120.57947764647265"><ele>115.0</ele><time>2026-04-19T06:17:44Z</time></trkpt><trkpt lat="15.166481878846508" lon="120.57936136750044"><ele>115.0</ele><time>2026-04-19T06:17:45Z</time></trkpt><trkpt lat="15.16645680757068" lon="120.57924364540096"><ele>115.0</ele><time>2026-04-19T06:17:46Z</time></trkpt><trkpt lat="15.16643475747659" lon="120.57912416173792"><ele>115.0</ele><time>2026-04-19T06:17:47Z</time></trkpt><trkpt lat="15.166414337708536" lon="120.57900280880834"><ele>115.0</ele><time>2026-04-19T06:17:48Z</time></trkpt><trkpt lat="15.166394513522185" lon="120.57887742362873"><ele>115.0</ele><time>2026-04-19T06:17:49Z</time></trkpt><trkpt lat="15.166373359351454" lon="120.57875012726964"><ele>114.75</ele><time>2026-04-19T06:17:50Z</time></trkpt><trkpt lat="15.16635149938043" lon="120.57862040579137"><ele>114.5</ele><time>2026-04-19T06:17:51Z</time></trkpt><trkpt lat="15.166329180400549" lon="120.5784891395117"><ele>114.25</ele><time>2026-04-19T06:17:52Z</time></trkpt><trkpt lat="15.166306228178142" lon="120.57835752896037"><ele>114.0</ele><time>2026-04-19T06:17:53.001Z</time></trkpt><trkpt lat="15.166282809833978" lon="120.57822177391462"><ele>114.0</ele><time>2026-04-19T06:17:54.001Z</time></trkpt><trkpt lat="15.166260478896836" lon="120.57808541584055"><ele>114.0</ele><time>2026-04-19T06:17:55.001Z</time></trkpt><trkpt lat="15.166237528673244" lon="120.57794894026337"><ele>114.0</ele><time>2026-04-19T06:17:56.001Z</time></trkpt><trkpt lat="15.166214757069904" lon="120.5778112533895"><ele>114.0</ele><time>2026-04-19T06:17:57.001Z</time></trkpt><trkpt lat="15.1661895728086" lon="120.57767950385659"><ele>114.5</ele><time>2026-04-19T06:17:58.001Z</time></trkpt><trkpt lat="15.166163875352941" lon="120.57755423749029"><ele>115.0</ele><time>2026-04-19T06:17:59.001Z</time></trkpt><trkpt lat="15.166141237399358" lon="120.57743619889872"><ele>115.5</ele><time>2026-04-19T06:18:00.001Z</time></trkpt><trkpt lat="15.166120615492204" lon="120.57732477164697"><ele>116.0</ele><time>2026-04-19T06:18:01.001Z</time></trkpt><trkpt lat="15.166101461265612" lon="120.57721490184657"><ele>116.0</ele><time>2026-04-19T06:18:02.001Z</time></trkpt><trkpt lat="15.16608267651642" lon="120.57710658270923"><ele>116.0</ele><time>2026-04-19T06:18:03.001Z</time></trkpt><trkpt lat="15.16606370250547" lon="120.57700503092995"><ele>116.0</ele><time>2026-04-19T06:18:04.001Z</time></trkpt><trkpt lat="15.16605028787521" lon="120.57691612459308"><ele>116.0</ele><time>2026-04-19T06:18:05.001Z</time></trkpt><trkpt lat="15.16604092664519" lon="120.57684208223738"><ele>116.0</ele><time>2026-04-19T06:18:06.001Z</time></trkpt><trkpt lat="15.166027648640314" lon="120.57673212983295"><ele>116.16666666666666</ele><time>2026-04-19T06:18:08.001Z</time></trkpt><trkpt lat="15.16601816734998" lon="120.5766261603979"><ele>116.33333333333333</ele><time>2026-04-19T06:18:10.001Z</time></trkpt><trkpt lat="15.166006797441003" lon="120.57650812216468"><ele>116.5</ele><time>2026-04-19T06:18:12.001Z</time></trkpt><trkpt lat="15.166002516899342" lon="120.57644175649781"><ele>116.66666666666666</ele><time>2026-04-19T06:18:13.001Z</time></trkpt><trkpt lat="15.165999877890656" lon="120.57637331177499"><ele>116.83333333333333</ele><time>2026-04-19T06:18:14.001Z</time></trkpt><trkpt lat="15.166000221915903" lon="120.576300989626"><ele>117.0</ele><time>2026-04-19T06:18:15.001Z</time></trkpt><trkpt lat="15.16600313208171" lon="120.57622553029918"><ele>117.5</ele><time>2026-04-19T06:18:16.001Z</time></trkpt><trkpt lat="15.166004535189339" lon="120.5761480199206"><ele>118.0</ele><time>2026-04-19T06:18:17.001Z</time></trkpt><trkpt lat="15.166006767872627" lon="120.57606648696262"><ele>118.5</ele><time>2026-04-19T06:18:18.001Z</time></trkpt><trkpt lat="15.1660088141229" lon="120.57598116854862"><ele>119.0</ele><time>2026-04-19T06:18:19.001Z</time></trkpt><trkpt lat="15.166012974029854" lon="120.57589185618083"><ele>119.5</ele><time>2026-04-19T06:18:20.001Z</time></trkpt><trkpt lat="15.166016805524869" lon="120.57579905185712"><ele>120.0</ele><time>2026-04-19T06:18:21.001Z</time></trkpt><trkpt lat="15.166020689638694" lon="120.57570248669235"><ele>120.0</ele><time>2026-04-19T06:18:22.001Z</time></trkpt><trkpt lat="15.166027611999432" lon="120.57560307273941"><ele>120.0</ele><time>2026-04-19T06:18:23.001Z</time></trkpt><trkpt lat="15.166037651154282" lon="120.57549940426658"><ele>120.0</ele><time>2026-04-19T06:18:24.001Z</time></trkpt><trkpt lat="15.1660502239376" lon="120.57539269837177"><ele>120.0</ele><time>2026-04-19T06:18:25.001Z</time></trkpt><trkpt lat="15.166062734429142" lon="120.57528479131607"><ele>120.0</ele><time>2026-04-19T06:18:26.001Z</time></trkpt><trkpt lat="15.166076425179552" lon="120.57517339328393"><ele>119.5</ele><time>2026-04-19T06:18:27.001Z</time></trkpt><trkpt lat="15.166091806312213" lon="120.57505802506579"><ele>119.0</ele><time>2026-04-19T06:18:28.001Z</time></trkpt><trkpt lat="15.16610825999616" lon="120.57494016915932"><ele>118.5</ele><time>2026-04-19T06:18:29.001Z</time></trkpt><trkpt lat="15.16612512461584" lon="120.57481839709556"><ele>118.0</ele><time>2026-04-19T06:18:30.001Z</time></trkpt><trkpt lat="15.166143167665272" lon="120.57469140453557"><ele>118.0</ele><time>2026-04-19T06:18:31.001Z</time></trkpt><trkpt lat="15.166161953987888" lon="120.57456261287899"><ele>118.0</ele><time>2026-04-19T06:18:32.001Z</time></trkpt><trkpt lat="15.166180334550267" lon="120.5744326745162"><ele>118.0</ele><time>2026-04-19T06:18:33.001Z</time></trkpt><trkpt lat="15.166199622778716" lon="120.57429995994912"><ele>118.0</ele><time>2026-04-19T06:18:34.001Z</time></trkpt><trkpt lat="15.166218425964683" lon="120.57416583748784"><ele>118.5</ele><time>2026-04-19T06:18:35.001Z</time></trkpt><trkpt lat="15.166237072234157" lon="120.57403135146438"><ele>119.0</ele><time>2026-04-19T06:18:36.001Z</time></trkpt><trkpt lat="15.166257192183688" lon="120.57389484870306"><ele>119.5</ele><time>2026-04-19T06:18:37.001Z</time></trkpt><trkpt lat="15.166279649891795" lon="120.57375707493688"><ele>120.0</ele><time>2026-04-19T06:18:38Z</time></trkpt><trkpt lat="15.166300898905662" lon="120.57361893978252"><ele>120.5</ele><time>2026-04-19T06:18:39Z</time></trkpt><trkpt lat="15.16632080547481" lon="120.5734807249704"><ele>121.0</ele><time>2026-04-19T06:18:40Z</time></trkpt><trkpt lat="15.166341113803593" lon="120.57334245236774"><ele>121.5</ele><time>2026-04-19T06:18:41Z</time></trkpt><trkpt lat="15.166363060489191" lon="120.57320319651306"><ele>122.0</ele><time>2026-04-19T06:18:42Z</time></trkpt><trkpt lat="15.166384935736447" lon="120.57306250859502"><ele>122.0</ele><time>2026-04-19T06:18:43Z</time></trkpt><trkpt lat="15.166406495336238" lon="120.57292464848476"><ele>122.0</ele><time>2026-04-19T06:18:44Z</time></trkpt><trkpt lat="15.16642665346043" lon="120.57278716346724"><ele>122.0</ele><time>2026-04-19T06:18:45Z</time></trkpt><trkpt lat="15.166447151906642" lon="120.57265003162377"><ele>122.0</ele><time>2026-04-19T06:18:46Z</time></trkpt><trkpt lat="15.16646869238256" lon="120.57251177797569"><ele>122.0</ele><time>2026-04-19T06:18:47Z</time></trkpt><trkpt lat="15.166489468685004" lon="120.5723751330618"><ele>122.0</ele><time>2026-04-19T06:18:48Z</time></trkpt><trkpt lat="15.166510127153776" lon="120.57223773335873"><ele>122.0</ele><time>2026-04-19T06:18:49Z</time></trkpt><trkpt lat="15.166531972018275" lon="120.57209991702682"><ele>122.0</ele><time>2026-04-19T06:18:50Z</time></trkpt><trkpt lat="15.166552844418877" lon="120.57196358691128"><ele>123.25</ele><time>2026-04-19T06:18:51Z</time></trkpt><trkpt lat="15.166573780720748" lon="120.57182599357994"><ele>124.5</ele><time>2026-04-19T06:18:52Z</time></trkpt><trkpt lat="15.166595624324339" lon="120.57168817147975"><ele>125.75</ele><time>2026-04-19T06:18:53Z</time></trkpt><trkpt lat="15.16661975201118" lon="120.5715458898977"><ele>127.0</ele><time>2026-04-19T06:18:54Z</time></trkpt><trkpt lat="15.166643590856774" lon="120.57140463319679"><ele>127.0</ele><time>2026-04-19T06:18:55Z</time></trkpt><trkpt lat="15.166667643495455" lon="120.57126153586495"><ele>127.0</ele><time>2026-04-19T06:18:56Z</time></trkpt><trkpt lat="15.166691301410161" lon="120.57111822615374"><ele>127.0</ele><time>2026-04-19T06:18:57Z</time></trkpt><trkpt lat="15.166714686606422" lon="120.57097462602111"><ele>127.0</ele><time>2026-04-19T06:18:58Z</time></trkpt><trkpt lat="15.166739201538537" lon="120.57083121517609"><ele>127.0</ele><time>2026-04-19T06:18:59Z</time></trkpt><trkpt lat="15.166762333396413" lon="120.57068767566612"><ele>127.0</ele><time>2026-04-19T06:19:00Z</time></trkpt><trkpt lat="15.166784837221188" lon="120.57054486387393"><ele>127.0</ele><time>2026-04-19T06:19:01Z</time></trkpt><trkpt lat="15.166808192269025" lon="120.57040242938419"><ele>127.0</ele><time>2026-04-19T06:19:02Z</time></trkpt><trkpt lat="15.166831537787251" lon="120.57026001437782"><ele>127.0</ele><time>2026-04-19T06:19:03Z</time></trkpt><trkpt lat="15.166854955008617" lon="120.5701180815158"><ele>127.0</ele><time>2026-04-19T06:19:04Z</time></trkpt><trkpt lat="15.16687689944016" lon="120.56997625586709"><ele>127.0</ele><time>2026-04-19T06:19:05Z</time></trkpt><trkpt lat="15.166897687577453" lon="120.56983610985192"><ele>127.0</ele><time>2026-04-19T06:19:06Z</time></trkpt><trkpt lat="15.166918320441495" lon="120.56969630368496"><ele>127.0</ele><time>2026-04-19T06:19:07Z</time></trkpt><trkpt lat="15.16693847361128" lon="120.56955883559631"><ele>127.0</ele><time>2026-04-19T06:19:08Z</time></trkpt><trkpt lat="15.166958182476277" lon="120.56942313004666"><ele>127.0</ele><time>2026-04-19T06:19:09Z</time></trkpt><trkpt lat="15.166978136115977" lon="120.56928777307243"><ele>127.0</ele><time>2026-04-19T06:19:10Z</time></trkpt><trkpt lat="15.166998037641251" lon="120.56915066681321"><ele>127.0</ele><time>2026-04-19T06:19:11Z</time></trkpt><trkpt lat="15.167017944092487" lon="120.56901314495798"><ele>127.0</ele><time>2026-04-19T06:19:12Z</time></trkpt><trkpt lat="15.167038599408945" lon="120.56887423788758"><ele>127.0</ele><time>2026-04-19T06:19:13Z</time></trkpt><trkpt lat="15.167059864056183" lon="120.5687326538936"><ele>127.0</ele><time>2026-04-19T06:19:14Z</time></trkpt><trkpt lat="15.16708160727496" lon="120.56859282648911"><ele>127.5</ele><time>2026-04-19T06:19:15Z</time></trkpt><trkpt lat="15.167103527748058" lon="120.56845045900042"><ele>128.0</ele><time>2026-04-19T06:19:16Z</time></trkpt><trkpt lat="15.167125949346001" lon="120.5683066822974"><ele>128.5</ele><time>2026-04-19T06:19:17Z</time></trkpt><trkpt lat="15.167148432455203" lon="120.56816410746394"><ele>129.0</ele><time>2026-04-19T06:19:18Z</time></trkpt><trkpt lat="15.167170190253648" lon="120.56802458854506"><ele>129.0</ele><time>2026-04-19T06:19:19Z</time></trkpt><trkpt lat="15.167191664092185" lon="120.56788602741429"><ele>129.0</ele><time>2026-04-19T06:19:20Z</time></trkpt><trkpt lat="15.167212027346041" lon="120.56774806577202"><ele>129.0</ele><time>2026-04-19T06:19:21Z</time></trkpt><trkpt lat="15.167232634058003" lon="120.56761096123395"><ele>129.0</ele><time>2026-04-19T06:19:22Z</time></trkpt><trkpt lat="15.167253040236867" lon="120.56747189088735"><ele>129.0</ele><time>2026-04-19T06:19:23Z</time></trkpt><trkpt lat="15.167272785757183" lon="120.56733199696778"><ele>129.0</ele><time>2026-04-19T06:19:24Z</time></trkpt><trkpt lat="15.167293251589337" lon="120.56718941882355"><ele>129.0</ele><time>2026-04-19T06:19:25Z</time></trkpt><trkpt lat="15.167311583684391" lon="120.5670456289878"><ele>129.0</ele><time>2026-04-19T06:19:26Z</time></trkpt><trkpt lat="15.167327877737367" lon="120.56690160622863"><ele>129.5</ele><time>2026-04-19T06:19:27Z</time></trkpt><trkpt lat="15.167364041382895" lon="120.56676028990537"><ele>130.0</ele><time>2026-04-19T06:19:28Z</time></trkpt><trkpt lat="15.167383341305209" lon="120.56661411104247"><ele>130.5</ele><time>2026-04-19T06:19:29Z</time></trkpt><trkpt lat="15.167400811966603" lon="120.56646750849812"><ele>131.0</ele><time>2026-04-19T06:19:30Z</time></trkpt><trkpt lat="15.167417510416527" lon="120.56632244551801"><ele>131.25</ele><time>2026-04-19T06:19:31Z</time></trkpt><trkpt lat="15.16743184528963" lon="120.56617619365558"><ele>131.5</ele><time>2026-04-19T06:19:32Z</time></trkpt><trkpt lat="15.167442186416368" lon="120.56602762366784"><ele>131.75</ele><time>2026-04-19T06:19:33Z</time></trkpt><trkpt lat="15.167443162013203" lon="120.56588008863142"><ele>132.0</ele><time>2026-04-19T06:19:34Z</time></trkpt><trkpt lat="15.167446197574652" lon="120.56573399906253"><ele>132.0</ele><time>2026-04-19T06:19:35Z</time></trkpt><trkpt lat="15.167442583430166" lon="120.56558371050102"><ele>132.0</ele><time>2026-04-19T06:19:36Z</time></trkpt><trkpt lat="15.167433885681357" lon="120.56543259890218"><ele>132.0</ele><time>2026-04-19T06:19:37Z</time></trkpt><trkpt lat="15.167424497048223" lon="120.56528212873148"><ele>132.0</ele><time>2026-04-19T06:19:38Z</time></trkpt><trkpt lat="15.167415162144538" lon="120.56513093692129"><ele>132.25</ele><time>2026-04-19T06:19:39Z</time></trkpt><trkpt lat="15.167405408643116" lon="120.56497874629292"><ele>132.5</ele><time>2026-04-19T06:19:40Z</time></trkpt><trkpt lat="15.167388997941021" lon="120.56482411893023"><ele>132.75</ele><time>2026-04-19T06:19:41Z</time></trkpt><trkpt lat="15.167371987901147" lon="120.56466993650157"><ele>133.0</ele><time>2026-04-19T06:19:42Z</time></trkpt><trkpt lat="15.167354241200957" lon="120.56451388405378"><ele>133.0</ele><time>2026-04-19T06:19:43Z</time></trkpt><trkpt lat="15.167336308446021" lon="120.56435619559241"><ele>133.0</ele><time>2026-04-19T06:19:44Z</time></trkpt><trkpt lat="15.167318738027404" lon="120.56419756499997"><ele>133.0</ele><time>2026-04-19T06:19:45Z</time></trkpt><trkpt lat="15.16727736407817" lon="120.56403788875343"><ele>133.0</ele><time>2026-04-19T06:19:46Z</time></trkpt><trkpt lat="15.167258306038079" lon="120.56387756859327"><ele>133.0</ele><time>2026-04-19T06:19:47Z</time></trkpt><trkpt lat="15.167235542011062" lon="120.56371523575382"><ele>133.0</ele><time>2026-04-19T06:19:48Z</time></trkpt><trkpt lat="15.167211179193373" lon="120.56355136473869"><ele>133.0</ele><time>2026-04-19T06:19:49Z</time></trkpt><trkpt lat="15.167186627370317" lon="120.56338818744304"><ele>133.0</ele><time>2026-04-19T06:19:50Z</time></trkpt><trkpt lat="15.16716221374686" lon="120.56322632553535"><ele>133.0</ele><time>2026-04-19T06:19:51Z</time></trkpt><trkpt lat="15.167137692008797" lon="120.5630631997862"><ele>133.0</ele><time>2026-04-19T06:19:52Z</time></trkpt><trkpt lat="15.167115907245732" lon="120.5628986310927"><ele>133.0</ele><time>2026-04-19T06:19:53Z</time></trkpt><trkpt lat="15.167094361567415" lon="120.56273297780466"><ele>133.0</ele><time>2026-04-19T06:19:54Z</time></trkpt><trkpt lat="15.167074401456189" lon="120.56256607426036"><ele>133.0</ele><time>2026-04-19T06:19:55Z</time></trkpt><trkpt lat="15.16705678740162" lon="120.56239932999245"><ele>133.0</ele><time>2026-04-19T06:19:56Z</time></trkpt><trkpt lat="15.167039798581682" lon="120.56223127637878"><ele>133.0</ele><time>2026-04-19T06:19:57Z</time></trkpt><trkpt lat="15.16704223205967" lon="120.56206055934027"><ele>133.33333333333334</ele><time>2026-04-19T06:19:58Z</time></trkpt><trkpt lat="15.167028791979943" lon="120.56189012313335"><ele>133.66666666666666</ele><time>2026-04-19T06:19:59Z</time></trkpt><trkpt lat="15.167015561764805" lon="120.5617188006709"><ele>134.0</ele><time>2026-04-19T06:20:00Z</time></trkpt><trkpt lat="15.167002325269062" lon="120.56154739686508"><ele>134.0</ele><time>2026-04-19T06:20:01Z</time></trkpt><trkpt lat="15.166987826216099" lon="120.56137630028229"><ele>134.0</ele><time>2026-04-19T06:20:02Z</time></trkpt><trkpt lat="15.166972231298136" lon="120.56120367846422"><ele>134.0</ele><time>2026-04-19T06:20:03Z</time></trkpt><trkpt lat="15.166938209437571" lon="120.56102812524699"><ele>134.66666666666666</ele><time>2026-04-19T06:20:04Z</time></trkpt><trkpt lat="15.166935253254906" lon="120.56084477777739"><ele>135.33333333333334</ele><time>2026-04-19T06:20:05Z</time></trkpt><trkpt lat="15.166907464476362" lon="120.56067123289544"><ele>136.0</ele><time>2026-04-19T06:20:06Z</time></trkpt><trkpt lat="15.166868977877327" lon="120.56050130068807"><ele>135.66666666666669</ele><time>2026-04-19T06:20:07Z</time></trkpt><trkpt lat="15.166816488532692" lon="120.56033628809132"><ele>135.33333333333334</ele><time>2026-04-19T06:20:08Z</time></trkpt><trkpt lat="15.16675085087464" lon="120.56017951969048"><ele>135.0</ele><time>2026-04-19T06:20:09Z</time></trkpt><trkpt lat="15.16666615379463" lon="120.56003137813711"><ele>135.0</ele><time>2026-04-19T06:20:10Z</time></trkpt><trkpt lat="15.166608417294148" lon="120.55987023188283"><ele>135.0</ele><time>2026-04-19T06:20:11Z</time></trkpt><trkpt lat="15.16653177247597" lon="120.55971651813162"><ele>135.0</ele><time>2026-04-19T06:20:12Z</time></trkpt><trkpt lat="15.166455052861568" lon="120.55956492483841"><ele>135.0</ele><time>2026-04-19T06:20:13Z</time></trkpt><trkpt lat="15.166364257076983" lon="120.55942103450491"><ele>135.0</ele><time>2026-04-19T06:20:14Z</time></trkpt><trkpt lat="15.166289345604246" lon="120.55926820713486"><ele>135.0</ele><time>2026-04-19T06:20:15Z</time></trkpt><trkpt lat="15.166212479865257" lon="120.55911608678323"><ele>135.0</ele><time>2026-04-19T06:20:16Z</time></trkpt><trkpt lat="15.166135768667587" lon="120.55896153374198"><ele>135.0</ele><time>2026-04-19T06:20:17Z</time></trkpt><trkpt lat="15.1660576690511" lon="120.55880660112737"><ele>135.0</ele><time>2026-04-19T06:20:18Z</time></trkpt><trkpt lat="15.165995479501328" lon="120.55864250990597"><ele>135.0</ele><time>2026-04-19T06:20:19Z</time></trkpt><trkpt lat="15.165917351789139" lon="120.55848370594222"><ele>135.0</ele><time>2026-04-19T06:20:20Z</time></trkpt><trkpt lat="15.165838442750758" lon="120.55832331387137"><ele>135.0</ele><time>2026-04-19T06:20:21Z</time></trkpt><trkpt lat="15.165759305598213" lon="120.55816245812161"><ele>135.33333333333334</ele><time>2026-04-19T06:20:22Z</time></trkpt><trkpt lat="15.165679288113001" lon="120.55799981299617"><ele>135.66666666666669</ele><time>2026-04-19T06:20:23Z</time></trkpt><trkpt lat="15.165599082144945" lon="120.55783678476377"><ele>136.0</ele><time>2026-04-19T06:20:24Z</time></trkpt><trkpt lat="15.165518431034968" lon="120.55767285171216"><ele>136.0</ele><time>2026-04-19T06:20:25Z</time></trkpt><trkpt lat="15.165438020420128" lon="120.55750940751221"><ele>136.0</ele><time>2026-04-19T06:20:26Z</time></trkpt><trkpt lat="15.165357290073148" lon="120.55734531340397"><ele>136.0</ele><time>2026-04-19T06:20:27Z</time></trkpt><trkpt lat="15.165276416167623" lon="120.55718092749893"><ele>136.0</ele><time>2026-04-19T06:20:28Z</time></trkpt><trkpt lat="15.165195782452406" lon="120.55701702981749"><ele>136.0</ele><time>2026-04-19T06:20:29Z</time></trkpt><trkpt lat="15.165114664048746" lon="120.55685265468057"><ele>136.0</ele><time>2026-04-19T06:20:30Z</time></trkpt><trkpt lat="15.165032579337568" lon="120.55668913543852"><ele>136.0</ele><time>2026-04-19T06:20:31Z</time></trkpt><trkpt lat="15.164949888758018" lon="120.55652565738987"><ele>136.0</ele><time>2026-04-19T06:20:32Z</time></trkpt><trkpt lat="15.164866840641205" lon="120.55636155590118"><ele>136.0</ele><time>2026-04-19T06:20:33Z</time></trkpt><trkpt lat="15.164783845002557" lon="120.55619755811304"><ele>137.66666666666669</ele><time>2026-04-19T06:20:34Z</time></trkpt><trkpt lat="15.164700904038112" lon="120.55603318847268"><ele>139.33333333333334</ele><time>2026-04-19T06:20:35Z</time></trkpt><trkpt lat="15.16461789258339" lon="120.55586864027342"><ele>141.0</ele><time>2026-04-19T06:20:36Z</time></trkpt><trkpt lat="15.164534640536665" lon="120.55570361516332"><ele>141.0</ele><time>2026-04-19T06:20:37Z</time></trkpt><trkpt lat="15.164451439508873" lon="120.55553869119339"><ele>141.0</ele><time>2026-04-19T06:20:38Z</time></trkpt><trkpt lat="15.164368203844887" lon="120.55537268893592"><ele>141.0</ele><time>2026-04-19T06:20:39Z</time></trkpt><trkpt lat="15.164285536296735" lon="120.55520483799135"><ele>141.33333333333334</ele><time>2026-04-19T06:20:40Z</time></trkpt><trkpt lat="15.164202829347472" lon="120.55503690701036"><ele>141.66666666666669</ele><time>2026-04-19T06:20:41Z</time></trkpt><trkpt lat="15.16412033052083" lon="120.55486847279342"><ele>142.0</ele><time>2026-04-19T06:20:42Z</time></trkpt><trkpt lat="15.16403965901417" lon="120.55469862014111"><ele>142.66666666666669</ele><time>2026-04-19T06:20:43Z</time></trkpt><trkpt lat="15.163966650537487" lon="120.55452777094257"><ele>143.33333333333334</ele><time>2026-04-19T06:20:44Z</time></trkpt><trkpt lat="15.163896076934344" lon="120.55435234516371"><ele>144.0</ele><time>2026-04-19T06:20:45Z</time></trkpt><trkpt lat="15.16383109258627" lon="120.55417619735707"><ele>144.0</ele><time>2026-04-19T06:20:46Z</time></trkpt><trkpt lat="15.163769886437947" lon="120.55399983633733"><ele>144.0</ele><time>2026-04-19T06:20:47Z</time></trkpt><trkpt lat="15.163714430955824" lon="120.55382284611967"><ele>144.0</ele><time>2026-04-19T06:20:48Z</time></trkpt><trkpt lat="15.163669276887791" lon="120.55364260901516"><ele>143.66666666666666</ele><time>2026-04-19T06:20:49Z</time></trkpt><trkpt lat="15.163630143046813" lon="120.55346452429494"><ele>143.33333333333331</ele><time>2026-04-19T06:20:50Z</time></trkpt><trkpt lat="15.163599752194125" lon="120.55328709860476"><ele>143.0</ele><time>2026-04-19T06:20:51Z</time></trkpt><trkpt lat="15.163572212819545" lon="120.55311413413071"><ele>143.0</ele><time>2026-04-19T06:20:52Z</time></trkpt><trkpt lat="15.163548605467918" lon="120.55294816180556"><ele>143.0</ele><time>2026-04-19T06:20:53Z</time></trkpt><trkpt lat="15.163537963824082" lon="120.5527823170337"><ele>143.0</ele><time>2026-04-19T06:20:54Z</time></trkpt><trkpt lat="15.16353250112105" lon="120.55262310158389"><ele>143.5</ele><time>2026-04-19T06:20:55Z</time></trkpt><trkpt lat="15.163533362417494" lon="120.55246978947655"><ele>144.0</ele><time>2026-04-19T06:20:56Z</time></trkpt><trkpt lat="15.1635380412374" lon="120.55232130362381"><ele>144.5</ele><time>2026-04-19T06:20:57Z</time></trkpt><trkpt lat="15.163544239784088" lon="120.55218241533076"><ele>145.0</ele><time>2026-04-19T06:20:58Z</time></trkpt><trkpt lat="15.163557866175626" lon="120.55205669162164"><ele>145.8</ele><time>2026-04-19T06:20:59Z</time></trkpt><trkpt lat="15.163571250155854" lon="120.55193906831329"><ele>146.6</ele><time>2026-04-19T06:21:00Z</time></trkpt><trkpt lat="15.163583693502995" lon="120.55183500211032"><ele>147.4</ele><time>2026-04-19T06:21:01Z</time></trkpt><trkpt lat="15.163594756984304" lon="120.5517439302067"><ele>148.2</ele><time>2026-04-19T06:21:02Z</time></trkpt><trkpt lat="15.163606115475208" lon="120.55167005759306"><ele>149.0</ele><time>2026-04-19T06:21:03Z</time></trkpt><trkpt lat="15.163622335568107" lon="120.5515731353932"><ele>149.0</ele><time>2026-04-19T06:21:05Z</time></trkpt><trkpt lat="15.163637494012017" lon="120.55150174934738"><ele>149.0</ele><time>2026-04-19T06:21:37Z</time></trkpt><trkpt lat="15.163657772925392" lon="120.55141514153392"><ele>149.0</ele><time>2026-04-19T06:21:44Z</time></trkpt><trkpt lat="15.163677596796267" lon="120.55134165204376"><ele>149.0</ele><time>2026-04-19T06:21:46Z</time></trkpt><trkpt lat="15.16370553912866" lon="120.5512403161103"><ele>149.0</ele><time>2026-04-19T06:21:48Z</time></trkpt><trkpt lat="15.163743142207462" lon="120.55113699741555"><ele>149.0</ele><time>2026-04-19T06:21:50Z</time></trkpt><trkpt lat="15.163776083869173" lon="120.55104802251748"><ele>149.4</ele><time>2026-04-19T06:21:52Z</time></trkpt><trkpt lat="15.163818680209733" lon="120.55093297048063"><ele>149.8</ele><time>2026-04-19T06:23:23Z</time></trkpt><trkpt lat="15.163851922501875" lon="120.55084611820027"><ele>150.2</ele><time>2026-04-19T06:23:25Z</time></trkpt><trkpt lat="15.163883421951098" lon="120.55076896224841"><ele>150.6</ele><time>2026-04-19T06:23:27Z</time></trkpt><trkpt lat="15.163916351221609" lon="120.55069263706113"><ele>151.0</ele><time>2026-04-19T06:23:30Z</time></trkpt><trkpt lat="15.163735797211606" lon="120.5505954987912"><ele>151.0</ele><time>2026-04-19T06:23:32Z</time></trkpt><trkpt lat="15.163667256816968" lon="120.55057875695843"><ele>151.0</ele><time>2026-04-19T06:23:34Z</time></trkpt><trkpt lat="15.163569016857606" lon="120.55057702622456"><ele>151.0</ele><time>2026-04-19T06:23:36Z</time></trkpt><trkpt lat="15.163437729022283" lon="120.55056586005496"><ele>151.0</ele><time>2026-04-19T06:23:38Z</time></trkpt><trkpt lat="15.16335820810203" lon="120.55055789937938"><ele>151.0</ele><time>2026-04-19T06:23:39Z</time></trkpt><trkpt lat="15.163271241414975" lon="120.55055057766465"><ele>150.6</ele><time>2026-04-19T06:23:40Z</time></trkpt><trkpt lat="15.163178090126138" lon="120.5505429481096"><ele>150.2</ele><time>2026-04-19T06:23:41Z</time></trkpt><trkpt lat="15.16307739288883" lon="120.55053538879135"><ele>149.8</ele><time>2026-04-19T06:23:42Z</time></trkpt><trkpt lat="15.162974187178762" lon="120.55052781590568"><ele>149.4</ele><time>2026-04-19T06:23:43Z</time></trkpt><trkpt lat="15.162871280021813" lon="120.55051954383762"><ele>149.0</ele><time>2026-04-19T06:23:44Z</time></trkpt><trkpt lat="15.162769361851705" lon="120.55051052224378"><ele>149.0</ele><time>2026-04-19T06:23:45Z</time></trkpt><trkpt lat="15.162667710660966" lon="120.55050123423345"><ele>149.0</ele><time>2026-04-19T06:23:46Z</time></trkpt><trkpt lat="15.162568300056643" lon="120.55049286787724"><ele>149.0</ele><time>2026-04-19T06:23:47Z</time></trkpt><trkpt lat="15.162472460977403" lon="120.55048480428039"><ele>149.0</ele><time>2026-04-19T06:23:48Z</time></trkpt><trkpt lat="15.162378278618988" lon="120.55047604601116"><ele>149.0</ele><time>2026-04-19T06:23:49Z</time></trkpt><trkpt lat="15.16229319297685" lon="120.55047594854273"><ele>149.28571428571428</ele><time>2026-04-19T06:23:50Z</time></trkpt><trkpt lat="15.162210565895538" lon="120.55048383797596"><ele>149.57142857142856</ele><time>2026-04-19T06:23:51Z</time></trkpt><trkpt lat="15.16213749682122" lon="120.55050179457851"><ele>149.85714285714286</ele><time>2026-04-19T06:23:52Z</time></trkpt><trkpt lat="15.162071476952683" lon="120.55052974746003"><ele>150.14285714285714</ele><time>2026-04-19T06:23:53Z</time></trkpt><trkpt lat="15.1620115087842" lon="120.55056373011645"><ele>150.42857142857144</ele><time>2026-04-19T06:23:54Z</time></trkpt><trkpt lat="15.161957875748236" lon="120.55060194376138"><ele>150.71428571428572</ele><time>2026-04-19T06:23:55Z</time></trkpt><trkpt lat="15.161909677937043" lon="120.55064628651871"><ele>151.0</ele><time>2026-04-19T06:23:56Z</time></trkpt><trkpt lat="15.16183284738827" lon="120.55074157022172"><ele>151.0</ele><time>2026-04-19T06:23:58Z</time></trkpt><trkpt lat="15.161786838281254" lon="120.55083747649998"><ele>151.0</ele><time>2026-04-19T06:24:00Z</time></trkpt><trkpt lat="15.16177537955381" lon="120.55093538309472"><ele>151.0</ele><time>2026-04-19T06:24:02Z</time></trkpt><trkpt lat="15.16177989526299" lon="120.55102710178573"><ele>151.0</ele><time>2026-04-19T06:24:04Z</time></trkpt><trkpt lat="15.161780611203454" lon="120.55111845171848"><ele>151.0</ele><time>2026-04-19T06:24:06Z</time></trkpt><trkpt lat="15.161775205280417" lon="120.55121886699416"><ele>151.16666666666669</ele><time>2026-04-19T06:24:08Z</time></trkpt><trkpt lat="15.161775664018533" lon="120.55131785610789"><ele>151.33333333333334</ele><time>2026-04-19T06:24:10Z</time></trkpt><trkpt lat="15.161782413223522" lon="120.55139159445616"><ele>151.5</ele><time>2026-04-19T06:24:12Z</time></trkpt><trkpt lat="15.161803609117419" lon="120.55145986373591"><ele>151.66666666666666</ele><time>2026-04-19T06:24:15Z</time></trkpt><trkpt lat="15.1618576187806" lon="120.5515638770542"><ele>151.83333333333331</ele><time>2026-04-19T06:24:18Z</time></trkpt><trkpt lat="15.161947351237943" lon="120.55157776357956"><ele>152.0</ele><time>2026-04-19T06:24:20Z</time></trkpt><trkpt lat="15.162049157194167" lon="120.55162164825585"><ele>152.0</ele><time>2026-04-19T06:24:22Z</time></trkpt><trkpt lat="15.162154946388053" lon="120.5516595570724"><ele>152.0</ele><time>2026-04-19T06:24:24Z</time></trkpt><trkpt lat="15.162267494986532" lon="120.55169389853533"><ele>152.0</ele><time>2026-04-19T06:24:26Z</time></trkpt><trkpt lat="15.162377808467646" lon="120.55173595773014"><ele>152.0</ele><time>2026-04-19T06:24:28Z</time></trkpt><trkpt lat="15.162457694978096" lon="120.55179909940622"><ele>152.0</ele><time>2026-04-19T06:24:30Z</time></trkpt><trkpt lat="15.162496286272772" lon="120.55190200008961"><ele>150.79999999999998</ele><time>2026-04-19T06:24:32Z</time></trkpt><trkpt lat="15.162494789230845" lon="120.55203360139662"><ele>149.6</ele><time>2026-04-19T06:24:34Z</time></trkpt><trkpt lat="15.162490455938105" lon="120.552110812315"><ele>148.39999999999998</ele><time>2026-04-19T06:24:35Z</time></trkpt><trkpt lat="15.162484439115017" lon="120.55219541047957"><ele>147.2</ele><time>2026-04-19T06:24:36Z</time></trkpt><trkpt lat="15.162477562612334" lon="120.55228577665574"><ele>146.0</ele><time>2026-04-19T06:24:37Z</time></trkpt><trkpt lat="15.16247077744749" lon="120.55238110616644"><ele>145.8</ele><time>2026-04-19T06:24:38Z</time></trkpt><trkpt lat="15.162464163680534" lon="120.55248085532669"><ele>145.6</ele><time>2026-04-19T06:24:39Z</time></trkpt><trkpt lat="15.16245957818148" lon="120.55258491149753"><ele>145.4</ele><time>2026-04-19T06:24:40Z</time></trkpt><trkpt lat="15.162457997636206" lon="120.5526916777659"><ele>145.2</ele><time>2026-04-19T06:24:41Z</time></trkpt><trkpt lat="15.162457029318668" lon="120.55280169742593"><ele>145.0</ele><time>2026-04-19T06:24:42Z</time></trkpt><trkpt lat="15.162461486769674" lon="120.55291264405751"><ele>144.6</ele><time>2026-04-19T06:24:43Z</time></trkpt><trkpt lat="15.162468499667684" lon="120.55302393506504"><ele>144.2</ele><time>2026-04-19T06:24:44Z</time></trkpt><trkpt lat="15.162477032816861" lon="120.55313750055348"><ele>143.8</ele><time>2026-04-19T06:24:45Z</time></trkpt><trkpt lat="15.162488817799005" lon="120.55324880875312"><ele>143.4</ele><time>2026-04-19T06:24:46Z</time></trkpt><trkpt lat="15.162503381787488" lon="120.55336004572392"><ele>143.0</ele><time>2026-04-19T06:24:47Z</time></trkpt><trkpt lat="15.162522188826353" lon="120.5534708038413"><ele>143.0</ele><time>2026-04-19T06:24:48Z</time></trkpt><trkpt lat="15.162545108494049" lon="120.55357829594558"><ele>143.0</ele><time>2026-04-19T06:24:49Z</time></trkpt><trkpt lat="15.162572307151823" lon="120.5536850205574"><ele>143.0</ele><time>2026-04-19T06:24:50Z</time></trkpt><trkpt lat="15.16260328599724" lon="120.55378961037401"><ele>143.0</ele><time>2026-04-19T06:24:51Z</time></trkpt><trkpt lat="15.162636289730372" lon="120.55388791288031"><ele>143.0</ele><time>2026-04-19T06:24:52Z</time></trkpt><trkpt lat="15.16266948307854" lon="120.55398137170152"><ele>143.0</ele><time>2026-04-19T06:24:53Z</time></trkpt><trkpt lat="15.1627030331551" lon="120.55407068993978"><ele>143.0</ele><time>2026-04-19T06:24:54Z</time></trkpt><trkpt lat="15.162737865543667" lon="120.55415712124379"><ele>143.0</ele><time>2026-04-19T06:24:55Z</time></trkpt><trkpt lat="15.16277462683716" lon="120.55424065528142"><ele>143.0</ele><time>2026-04-19T06:24:56Z</time></trkpt><trkpt lat="15.162810224416786" lon="120.55432017676422"><ele>143.0</ele><time>2026-04-19T06:24:57Z</time></trkpt><trkpt lat="15.162842629593829" lon="120.55439196409591"><ele>143.0</ele><time>2026-04-19T06:24:58Z</time></trkpt><trkpt lat="15.162872594701783" lon="120.55445681095915"><ele>143.0</ele><time>2026-04-19T06:24:59Z</time></trkpt><trkpt lat="15.162900877218755" lon="120.55451722506946"><ele>143.0</ele><time>2026-04-19T06:25:00Z</time></trkpt><trkpt lat="15.16294618180138" lon="120.55462550546429"><ele>143.0</ele><time>2026-04-19T06:25:02Z</time></trkpt><trkpt lat="15.162955125762856" lon="120.55470465989215"><ele>143.0</ele><time>2026-04-19T06:25:04Z</time></trkpt><trkpt lat="15.162909857126724" lon="120.55477422143419"><ele>143.0</ele><time>2026-04-19T06:25:06Z</time></trkpt><trkpt lat="15.162811044744057" lon="120.55484014967249"><ele>142.83333333333331</ele><time>2026-04-19T06:25:08Z</time></trkpt><trkpt lat="15.16274625378483" lon="120.55487366131153"><ele>142.66666666666666</ele><time>2026-04-19T06:25:09Z</time></trkpt><trkpt lat="15.162674472940138" lon="120.55491011235998"><ele>142.5</ele><time>2026-04-19T06:25:10Z</time></trkpt><trkpt lat="15.162599656252748" lon="120.55495120616258"><ele>142.33333333333334</ele><time>2026-04-19T06:25:11Z</time></trkpt><trkpt lat="15.162519983732997" lon="120.55499463044279"><ele>142.16666666666669</ele><time>2026-04-19T06:25:12Z</time></trkpt><trkpt lat="15.162436187313004" lon="120.55503969091798"><ele>142.0</ele><time>2026-04-19T06:25:13Z</time></trkpt><trkpt lat="15.162349294794051" lon="120.55508642721793"><ele>142.0</ele><time>2026-04-19T06:25:14Z</time></trkpt><trkpt lat="15.162259115263963" lon="120.55513524867126"><ele>142.0</ele><time>2026-04-19T06:25:15Z</time></trkpt><trkpt lat="15.162165735907577" lon="120.55518677712391"><ele>142.0</ele><time>2026-04-19T06:25:16Z</time></trkpt><trkpt lat="15.162068607891998" lon="120.55523911240046"><ele>142.0</ele><time>2026-04-19T06:25:17Z</time></trkpt><trkpt lat="15.161969357816906" lon="120.55529245852723"><ele>142.0</ele><time>2026-04-19T06:25:18Z</time></trkpt><trkpt lat="15.161871141239176" lon="120.55534546797612"><ele>141.6</ele><time>2026-04-19T06:25:19Z</time></trkpt><trkpt lat="15.161774151227036" lon="120.55539786838308"><ele>141.2</ele><time>2026-04-19T06:25:20Z</time></trkpt><trkpt lat="15.161678947311414" lon="120.55544914275693"><ele>140.8</ele><time>2026-04-19T06:25:21Z</time></trkpt><trkpt lat="15.16158574288131" lon="120.55549955585225"><ele>140.4</ele><time>2026-04-19T06:25:22Z</time></trkpt><trkpt lat="15.161495282182708" lon="120.55554842796664"><ele>140.0</ele><time>2026-04-19T06:25:23Z</time></trkpt><trkpt lat="15.161405870404726" lon="120.55559552954266"><ele>139.8</ele><time>2026-04-19T06:25:24Z</time></trkpt><trkpt lat="15.161321165268449" lon="120.55563987163558"><ele>139.6</ele><time>2026-04-19T06:25:25Z</time></trkpt><trkpt lat="15.161238944838273" lon="120.55568359282184"><ele>139.4</ele><time>2026-04-19T06:25:26Z</time></trkpt><trkpt lat="15.161158999206615" lon="120.55572730856628"><ele>139.2</ele><time>2026-04-19T06:25:27Z</time></trkpt><trkpt lat="15.161079551325741" lon="120.55577072858895"><ele>139.0</ele><time>2026-04-19T06:25:28Z</time></trkpt><trkpt lat="15.16100112322542" lon="120.55581504651965"><ele>139.0</ele><time>2026-04-19T06:25:29Z</time></trkpt><trkpt lat="15.16092418691931" lon="120.55585763909698"><ele>139.0</ele><time>2026-04-19T06:25:30Z</time></trkpt><trkpt lat="15.160847663636043" lon="120.55590059842683"><ele>139.0</ele><time>2026-04-19T06:25:31Z</time></trkpt><trkpt lat="15.16077102656458" lon="120.5559414598671"><ele>139.0</ele><time>2026-04-19T06:25:32Z</time></trkpt><trkpt lat="15.160694140162281" lon="120.5559816760819"><ele>139.0</ele><time>2026-04-19T06:25:33Z</time></trkpt><trkpt lat="15.160618837387558" lon="120.55602253102249"><ele>139.0</ele><time>2026-04-19T06:25:34Z</time></trkpt><trkpt lat="15.160536748534732" lon="120.55604767250502"><ele>139.0</ele><time>2026-04-19T06:25:35Z</time></trkpt><trkpt lat="15.160461994226107" lon="120.55608717396156"><ele>139.0</ele><time>2026-04-19T06:25:36Z</time></trkpt><trkpt lat="15.160396109494695" lon="120.5561407526157"><ele>139.0</ele><time>2026-04-19T06:25:37Z</time></trkpt><trkpt lat="15.160324420819954" lon="120.55617724746926"><ele>139.0</ele><time>2026-04-19T06:25:38Z</time></trkpt><trkpt lat="15.160261087564006" lon="120.5562085598924"><ele>139.0</ele><time>2026-04-19T06:25:39Z</time></trkpt><trkpt lat="15.160156263332668" lon="120.55625660480668"><ele>139.0</ele><time>2026-04-19T06:25:41Z</time></trkpt><trkpt lat="15.16007282774315" lon="120.5562892149279"><ele>138.8</ele><time>2026-04-19T06:25:43Z</time></trkpt><trkpt lat="15.159993699461054" lon="120.556322943638"><ele>138.60000000000002</ele><time>2026-04-19T06:25:45Z</time></trkpt><trkpt lat="15.159900965862498" lon="120.55637336518606"><ele>138.4</ele><time>2026-04-19T06:25:47Z</time></trkpt><trkpt lat="15.15978605360245" lon="120.55643732673501"><ele>138.20000000000002</ele><time>2026-04-19T06:25:49Z</time></trkpt><trkpt lat="15.159720550347377" lon="120.55647492041815"><ele>138.0</ele><time>2026-04-19T06:25:50Z</time></trkpt><trkpt lat="15.159648973091064" lon="120.55651557793777"><ele>138.0</ele><time>2026-04-19T06:25:51Z</time></trkpt><trkpt lat="15.159574185955037" lon="120.55655856551382"><ele>138.0</ele><time>2026-04-19T06:25:52Z</time></trkpt><trkpt lat="15.15949769465216" lon="120.5566045527534"><ele>138.0</ele><time>2026-04-19T06:25:53Z</time></trkpt><trkpt lat="15.159421698710887" lon="120.5566543445561"><ele>138.0</ele><time>2026-04-19T06:25:54Z</time></trkpt><trkpt lat="15.159346840898753" lon="120.5567090656937"><ele>138.0</ele><time>2026-04-19T06:25:55Z</time></trkpt><trkpt lat="15.159273983938208" lon="120.55676931065855"><ele>138.0</ele><time>2026-04-19T06:25:56Z</time></trkpt><trkpt lat="15.159204211706669" lon="120.55683390994642"><ele>138.0</ele><time>2026-04-19T06:25:57Z</time></trkpt><trkpt lat="15.159136070331314" lon="120.55690362060517"><ele>138.0</ele><time>2026-04-19T06:25:58Z</time></trkpt><trkpt lat="15.159072384210745" lon="120.55697563546241"><ele>138.0</ele><time>2026-04-19T06:25:59Z</time></trkpt><trkpt lat="15.159013829593261" lon="120.55704978817795"><ele>138.0</ele><time>2026-04-19T06:26:00Z</time></trkpt><trkpt lat="15.15893872503232" lon="120.55711219084628"><ele>138.0</ele><time>2026-04-19T06:26:01Z</time></trkpt><trkpt lat="15.158887741458333" lon="120.55719198775805"><ele>138.4</ele><time>2026-04-19T06:26:02Z</time></trkpt><trkpt lat="15.158838115602617" lon="120.55727168708593"><ele>138.8</ele><time>2026-04-19T06:26:03Z</time></trkpt><trkpt lat="15.158786220478035" lon="120.55735449787144"><ele>139.2</ele><time>2026-04-19T06:26:04Z</time></trkpt><trkpt lat="15.158746698725377" lon="120.55744150015951"><ele>139.6</ele><time>2026-04-19T06:26:05Z</time></trkpt><trkpt lat="15.158705988354122" lon="120.55753111905462"><ele>140.0</ele><time>2026-04-19T06:26:06Z</time></trkpt><trkpt lat="15.158676010272183" lon="120.55763195543177"><ele>140.0</ele><time>2026-04-19T06:26:07Z</time></trkpt><trkpt lat="15.15864661526798" lon="120.55772749920206"><ele>140.0</ele><time>2026-04-19T06:26:08Z</time></trkpt><trkpt lat="15.158614568521251" lon="120.55782690788783"><ele>140.0</ele><time>2026-04-19T06:26:09Z</time></trkpt><trkpt lat="15.158581861268356" lon="120.55792854502509"><ele>140.0</ele><time>2026-04-19T06:26:10Z</time></trkpt><trkpt lat="15.158548650964033" lon="120.55803176750345"><ele>140.0</ele><time>2026-04-19T06:26:11Z</time></trkpt><trkpt lat="15.15851506895616" lon="120.55813614528896"><ele>139.6</ele><time>2026-04-19T06:26:12Z</time></trkpt><trkpt lat="15.158481880152952" lon="120.55823930094125"><ele>139.2</ele><time>2026-04-19T06:26:13Z</time></trkpt><trkpt lat="15.158449898466301" lon="120.55833911068466"><ele>138.8</ele><time>2026-04-19T06:26:14Z</time></trkpt><trkpt lat="15.158420195460646" lon="120.55843207594624"><ele>138.4</ele><time>2026-04-19T06:26:15Z</time></trkpt><trkpt lat="15.158407520429808" lon="120.55852402475105"><ele>138.0</ele><time>2026-04-19T06:26:16Z</time></trkpt><trkpt lat="15.158377919677557" lon="120.55860114795401"><ele>138.0</ele><time>2026-04-19T06:26:17Z</time></trkpt><trkpt lat="15.158348905676466" lon="120.55866981045628"><ele>138.0</ele><time>2026-04-19T06:26:18Z</time></trkpt><trkpt lat="15.158319611959117" lon="120.55873654364936"><ele>138.0</ele><time>2026-04-19T06:26:19Z</time></trkpt><trkpt lat="15.158291228812704" lon="120.55880598626796"><ele>138.0</ele><time>2026-04-19T06:26:20Z</time></trkpt><trkpt lat="15.15826658416152" lon="120.55888099428707"><ele>138.0</ele><time>2026-04-19T06:26:21Z</time></trkpt><trkpt lat="15.158241138941046" lon="120.55896313924326"><ele>138.0</ele><time>2026-04-19T06:26:22Z</time></trkpt><trkpt lat="15.158214535925586" lon="120.55904990445616"><ele>136.0</ele><time>2026-04-19T06:26:23Z</time></trkpt><trkpt lat="15.158185614505324" lon="120.55914211589254"><ele>134.0</ele><time>2026-04-19T06:26:24Z</time></trkpt><trkpt lat="15.158154063171795" lon="120.55923756641363"><ele>132.0</ele><time>2026-04-19T06:26:25Z</time></trkpt><trkpt lat="15.158119154425131" lon="120.55933395818815"><ele>130.0</ele><time>2026-04-19T06:26:26Z</time></trkpt><trkpt lat="15.15808262762705" lon="120.55942970166501"><ele>128.0</ele><time>2026-04-19T06:26:27Z</time></trkpt><trkpt lat="15.158037224416834" lon="120.55952130692457"><ele>128.6</ele><time>2026-04-19T06:26:28Z</time></trkpt><trkpt lat="15.157975630143078" lon="120.55959951184292"><ele>129.20000000000002</ele><time>2026-04-19T06:26:29Z</time></trkpt><trkpt lat="15.15789851493058" lon="120.5596662249811"><ele>129.8</ele><time>2026-04-19T06:26:30Z</time></trkpt><trkpt lat="15.157807770064602" lon="120.55971944788112"><ele>130.4</ele><time>2026-04-19T06:26:31Z</time></trkpt><trkpt lat="15.157709182741556" lon="120.55975817972036"><ele>131.0</ele><time>2026-04-19T06:26:32Z</time></trkpt><trkpt lat="15.157603268951354" lon="120.55978809542026"><ele>131.0</ele><time>2026-04-19T06:26:33Z</time></trkpt><trkpt lat="15.157493469414675" lon="120.5598090262759"><ele>131.0</ele><time>2026-04-19T06:26:34Z</time></trkpt><trkpt lat="15.157378644761542" lon="120.55983019263637"><ele>131.0</ele><time>2026-04-19T06:26:35Z</time></trkpt><trkpt lat="15.157260599718699" lon="120.55985209836741"><ele>131.0</ele><time>2026-04-19T06:26:36Z</time></trkpt><trkpt lat="15.157137411994386" lon="120.55987446697718"><ele>130.75</ele><time>2026-04-19T06:26:37Z</time></trkpt><trkpt lat="15.157011745423928" lon="120.55989656660465"><ele>130.5</ele><time>2026-04-19T06:26:38Z</time></trkpt><trkpt lat="15.156884370576268" lon="120.55991990072972"><ele>130.25</ele><time>2026-04-19T06:26:39Z</time></trkpt><trkpt lat="15.156755882551566" lon="120.55994553035153"><ele>130.0</ele><time>2026-04-19T06:26:40Z</time></trkpt><trkpt lat="15.156627912392583" lon="120.55997000573392"><ele>130.5</ele><time>2026-04-19T06:26:41Z</time></trkpt><trkpt lat="15.156500578246428" lon="120.55999346595883"><ele>131.0</ele><time>2026-04-19T06:26:42Z</time></trkpt><trkpt lat="15.156374576398433" lon="120.56001500525241"><ele>131.5</ele><time>2026-04-19T06:26:43Z</time></trkpt><trkpt lat="15.156245771265235" lon="120.56003824965683"><ele>132.0</ele><time>2026-04-19T06:26:44Z</time></trkpt><trkpt lat="15.156115243290236" lon="120.56005955532386"><ele>132.0</ele><time>2026-04-19T06:26:45Z</time></trkpt><trkpt lat="15.155988401273818" lon="120.56008184501809"><ele>132.0</ele><time>2026-04-19T06:26:46Z</time></trkpt><trkpt lat="15.155863405987587" lon="120.56010336139674"><ele>132.0</ele><time>2026-04-19T06:26:47Z</time></trkpt><trkpt lat="15.155741852943365" lon="120.56012388860714"><ele>132.0</ele><time>2026-04-19T06:26:48Z</time></trkpt><trkpt lat="15.155623921976504" lon="120.56014532329145"><ele>132.75</ele><time>2026-04-19T06:26:49Z</time></trkpt><trkpt lat="15.155507897900767" lon="120.56016762903245"><ele>133.5</ele><time>2026-04-19T06:26:50Z</time></trkpt><trkpt lat="15.155395244092494" lon="120.56018943148416"><ele>134.25</ele><time>2026-04-19T06:26:51Z</time></trkpt><trkpt lat="15.155284203605074" lon="120.56021111819099"><ele>135.0</ele><time>2026-04-19T06:26:52Z</time></trkpt><trkpt lat="15.155173745608279" lon="120.56023014705238"><ele>135.0</ele><time>2026-04-19T06:26:53Z</time></trkpt><trkpt lat="15.155064980888172" lon="120.56024185334755"><ele>135.0</ele><time>2026-04-19T06:26:54Z</time></trkpt><trkpt lat="15.154953936054854" lon="120.56024841991304"><ele>135.0</ele><time>2026-04-19T06:26:55Z</time></trkpt><trkpt lat="15.154841825851296" lon="120.56025236150626"><ele>135.0</ele><time>2026-04-19T06:26:56Z</time></trkpt><trkpt lat="15.15472700204219" lon="120.56025536783102"><ele>135.0</ele><time>2026-04-19T06:26:57Z</time></trkpt><trkpt lat="15.154611217437555" lon="120.56025654472676"><ele>135.0</ele><time>2026-04-19T06:26:58Z</time></trkpt><trkpt lat="15.154496058489046" lon="120.5602572092048"><ele>135.0</ele><time>2026-04-19T06:26:59Z</time></trkpt><trkpt lat="15.154383157539272" lon="120.56025734881979"><ele>135.0</ele><time>2026-04-19T06:27:00Z</time></trkpt><trkpt lat="15.15427148626967" lon="120.56025631749897"><ele>135.0</ele><time>2026-04-19T06:27:01Z</time></trkpt><trkpt lat="15.154167474065677" lon="120.56025426193342"><ele>135.0</ele><time>2026-04-19T06:27:02Z</time></trkpt><trkpt lat="15.154072316860887" lon="120.56025114878373"><ele>135.16666666666666</ele><time>2026-04-19T06:27:03Z</time></trkpt><trkpt lat="15.153983361129356" lon="120.5602486723454"><ele>135.33333333333334</ele><time>2026-04-19T06:27:04Z</time></trkpt><trkpt lat="15.153902119263478" lon="120.56024492668885"><ele>135.5</ele><time>2026-04-19T06:27:05Z</time></trkpt><trkpt lat="15.153824833349253" lon="120.56024117644726"><ele>135.66666666666669</ele><time>2026-04-19T06:27:06Z</time></trkpt><trkpt lat="15.153750414247215" lon="120.56023582281323"><ele>135.83333333333334</ele><time>2026-04-19T06:27:07Z</time></trkpt><trkpt lat="15.153676217502218" lon="120.56022911203328"><ele>136.0</ele><time>2026-04-19T06:27:08Z</time></trkpt><trkpt lat="15.153605394326297" lon="120.56021852576269"><ele>136.0</ele><time>2026-04-19T06:27:09Z</time></trkpt><trkpt lat="15.153538705337468" lon="120.56020438452407"><ele>136.0</ele><time>2026-04-19T06:27:10Z</time></trkpt><trkpt lat="15.153477534967065" lon="120.56018753921568"><ele>136.0</ele><time>2026-04-19T06:27:11Z</time></trkpt><trkpt lat="15.153356427935499" lon="120.56013924088938"><ele>136.0</ele><time>2026-04-19T06:27:13Z</time></trkpt><trkpt lat="15.153292016132541" lon="120.56010345294038"><ele>136.0</ele><time>2026-04-19T06:27:14Z</time></trkpt><trkpt lat="15.153224968244821" lon="120.56005762090894"><ele>136.0</ele><time>2026-04-19T06:27:15Z</time></trkpt><trkpt lat="15.153153258046132" lon="120.56000560097607"><ele>135.8</ele><time>2026-04-19T06:27:16Z</time></trkpt><trkpt lat="15.153077379332125" lon="120.55994850269362"><ele>135.6</ele><time>2026-04-19T06:27:17Z</time></trkpt><trkpt lat="15.152996302148914" lon="120.55988643655583"><ele>135.4</ele><time>2026-04-19T06:27:18Z</time></trkpt><trkpt lat="15.152910574376257" lon="120.55982292525006"><ele>135.2</ele><time>2026-04-19T06:27:19Z</time></trkpt><trkpt lat="15.152815604028923" lon="120.55975696336525"><ele>135.0</ele><time>2026-04-19T06:27:20Z</time></trkpt><trkpt lat="15.152732668780283" lon="120.55969786630995"><ele>135.0</ele><time>2026-04-19T06:27:21Z</time></trkpt><trkpt lat="15.152650512732771" lon="120.55963867958121"><ele>135.0</ele><time>2026-04-19T06:27:22Z</time></trkpt><trkpt lat="15.152570966940829" lon="120.55958406821892"><ele>135.0</ele><time>2026-04-19T06:27:23Z</time></trkpt><trkpt lat="15.152489037494522" lon="120.55953676514083"><ele>135.0</ele><time>2026-04-19T06:27:24Z</time></trkpt><trkpt lat="15.152406392968283" lon="120.55949493911018"><ele>135.0</ele><time>2026-04-19T06:27:25Z</time></trkpt><trkpt lat="15.152324877170146" lon="120.55946087947142"><ele>135.16666666666666</ele><time>2026-04-19T06:27:26Z</time></trkpt><trkpt lat="15.152239461844198" lon="120.55943214043836"><ele>135.33333333333334</ele><time>2026-04-19T06:27:27Z</time></trkpt><trkpt lat="15.152159095636774" lon="120.55939159802355"><ele>135.5</ele><time>2026-04-19T06:27:28Z</time></trkpt><trkpt lat="15.152066197844967" lon="120.55939826619914"><ele>135.66666666666669</ele><time>2026-04-19T06:27:29Z</time></trkpt><trkpt lat="15.151979967144031" lon="120.55939106631573"><ele>135.83333333333334</ele><time>2026-04-19T06:27:30Z</time></trkpt><trkpt lat="15.151890184991785" lon="120.55938540696725"><ele>136.0</ele><time>2026-04-19T06:27:31Z</time></trkpt><trkpt lat="15.15179779159986" lon="120.55938337300157"><ele>136.0</ele><time>2026-04-19T06:27:32Z</time></trkpt><trkpt lat="15.151703844048377" lon="120.55938151692098"><ele>136.0</ele><time>2026-04-19T06:27:33Z</time></trkpt><trkpt lat="15.151605716528147" lon="120.55938021891299"><ele>136.0</ele><time>2026-04-19T06:27:34Z</time></trkpt><trkpt lat="15.151502578142448" lon="120.55937965131895"><ele>136.0</ele><time>2026-04-19T06:27:35Z</time></trkpt><trkpt lat="15.15139591937339" lon="120.55937881953491"><ele>136.0</ele><time>2026-04-19T06:27:36Z</time></trkpt><trkpt lat="15.151288328004936" lon="120.55937773197832"><ele>136.2</ele><time>2026-04-19T06:27:37Z</time></trkpt><trkpt lat="15.15118029583298" lon="120.55937719173586"><ele>136.39999999999998</ele><time>2026-04-19T06:27:38Z</time></trkpt><trkpt lat="15.151072033546503" lon="120.55937666294875"><ele>136.6</ele><time>2026-04-19T06:27:39Z</time></trkpt><trkpt lat="15.150965427697159" lon="120.55937665310312"><ele>136.79999999999998</ele><time>2026-04-19T06:27:40Z</time></trkpt><trkpt lat="15.15086229401767" lon="120.55937660468152"><ele>137.0</ele><time>2026-04-19T06:27:41Z</time></trkpt><trkpt lat="15.150766262409268" lon="120.55937738439852"><ele>136.83333333333331</ele><time>2026-04-19T06:27:42Z</time></trkpt><trkpt lat="15.150678748312625" lon="120.5593773255318"><ele>136.66666666666666</ele><time>2026-04-19T06:27:43Z</time></trkpt><trkpt lat="15.150602556368668" lon="120.55937716414842"><ele>136.5</ele><time>2026-04-19T06:27:44Z</time></trkpt><trkpt lat="15.150489803735722" lon="120.55937630192055"><ele>136.33333333333334</ele><time>2026-04-19T06:27:46Z</time></trkpt><trkpt lat="15.150417450432823" lon="120.55937716923394"><ele>136.16666666666669</ele><time>2026-04-19T06:27:48Z</time></trkpt><trkpt lat="15.150350607435032" lon="120.55937353149409"><ele>136.0</ele><time>2026-04-19T06:27:54Z</time></trkpt><trkpt lat="15.150173782474871" lon="120.55947921677279"><ele>136.0</ele><time>2026-04-19T06:27:59Z</time></trkpt><trkpt lat="15.150174290177903" lon="120.55954678030565"><ele>136.0</ele><time>2026-04-19T06:28:07Z</time></trkpt><trkpt lat="15.15031281218981" lon="120.55958394548693"><ele>136.0</ele><time>2026-04-19T06:29:43Z</time></trkpt><trkpt lat="15.150291035452197" lon="120.55950683536965"><ele>136.0</ele><time>2026-04-19T06:30:07Z</time></trkpt><trkpt lat="15.150229283089415" lon="120.5593912529637"><ele>136.0</ele><time>2026-04-19T06:30:45Z</time></trkpt><trkpt lat="15.150329828559572" lon="120.55938665044884"><ele>136.0</ele><time>2026-04-19T06:31:33Z</time></trkpt><trkpt lat="15.15031920717917" lon="120.5592684673914"><ele>136.0</ele><time>2026-04-19T06:31:34Z</time></trkpt><trkpt lat="15.150204440594003" lon="120.5593639279404"><ele>136.0</ele><time>2026-04-19T06:32:57.012Z</time></trkpt><trkpt lat="15.15027446706022" lon="120.55945190964643"><ele>136.0</ele><time>2026-04-19T06:33:00.01Z</time></trkpt><trkpt lat="15.150296566529988" lon="120.55952551545943"><ele>136.0</ele><time>2026-04-19T07:22:32.997Z</time></trkpt><trkpt lat="15.150253178042684" lon="120.55947747905807"><ele>135.99999999999997</ele><time>2026-04-19T07:22:42.999Z</time></trkpt><trkpt lat="15.150248443096997" lon="120.55940488427183"><ele>136.0</ele><time>2026-04-19T07:22:48.999Z</time></trkpt><trkpt lat="15.150250689393902" lon="120.55933969776888"><ele>136.0</ele><time>2026-04-19T07:22:56Z</time></trkpt><trkpt lat="15.150250528174395" lon="120.55927240089962"><ele>136.0</ele><time>2026-04-19T07:23:16Z</time></trkpt><trkpt lat="15.150310893898897" lon="120.5592275709585"><ele>136.0</ele><time>2026-04-19T07:23:39.001Z</time></trkpt><trkpt lat="15.150271613028238" lon="120.55927937657242"><ele>135.99999999999997</ele><time>2026-04-19T07:27:28.001Z</time></trkpt><trkpt lat="15.150280199710469" lon="120.55935279838101"><ele>136.0</ele><time>2026-04-19T07:27:35.001Z</time></trkpt><trkpt lat="15.150293584624613" lon="120.55941810397685"><ele>136.0</ele><time>2026-04-19T07:27:40.001Z</time></trkpt><trkpt lat="15.150320274308767" lon="120.55948626742237"><ele>136.0</ele><time>2026-04-19T07:27:49.001Z</time></trkpt><trkpt lat="15.150348181238261" lon="120.55954789402924"><ele>136.0</ele><time>2026-04-19T07:28:07.001Z</time></trkpt><trkpt lat="15.150289820938996" lon="120.55952057698981"><ele>136.0</ele><time>2026-04-19T07:28:15.001Z</time></trkpt><trkpt lat="15.150351299800255" lon="120.5597630677849"><ele>136.0</ele><time>2026-04-19T07:29:16.001Z</time></trkpt><trkpt lat="15.150285455337267" lon="120.55973666548383"><ele>136.0</ele><time>2026-04-19T07:29:17.001Z</time></trkpt><trkpt lat="15.150254350217311" lon="120.55961444466669"><ele>136.0</ele><time>2026-04-19T07:29:18.001Z</time></trkpt><trkpt lat="15.150304763249837" lon="120.55957498166309"><ele>136.0</ele><time>2026-04-19T07:29:20.001Z</time></trkpt><trkpt lat="15.150419363548995" lon="120.55947085684815"><ele>136.0</ele><time>2026-04-19T07:30:27Z</time></trkpt><trkpt lat="15.15050487382267" lon="120.55945258487188"><ele>136.0</ele><time>2026-04-19T07:30:30Z</time></trkpt><trkpt lat="15.150569842912043" lon="120.5594515319331"><ele>136.0</ele><time>2026-04-19T07:30:32Z</time></trkpt><trkpt lat="15.150673676050266" lon="120.55945309885391"><ele>136.0</ele><time>2026-04-19T07:30:34Z</time></trkpt><trkpt lat="15.150787757016536" lon="120.55944067118197"><ele>136.0</ele><time>2026-04-19T07:30:36Z</time></trkpt><trkpt lat="15.150903444988572" lon="120.55943122410366"><ele>136.0</ele><time>2026-04-19T07:30:37Z</time></trkpt><trkpt lat="15.15098287129712" lon="120.55942462787574"><ele>136.0</ele><time>2026-04-19T07:30:38Z</time></trkpt><trkpt lat="15.15106933727895" lon="120.55942052453416"><ele>136.2</ele><time>2026-04-19T07:30:39Z</time></trkpt><trkpt lat="15.151157478408978" lon="120.55942136610865"><ele>136.39999999999998</ele><time>2026-04-19T07:30:40Z</time></trkpt><trkpt lat="15.151251122657827" lon="120.55942093505926"><ele>136.6</ele><time>2026-04-19T07:30:41Z</time></trkpt><trkpt lat="15.151346342645313" lon="120.5594204898206"><ele>136.79999999999998</ele><time>2026-04-19T07:30:42Z</time></trkpt><trkpt lat="15.151442073896579" lon="120.55942289656893"><ele>137.0</ele><time>2026-04-19T07:30:43Z</time></trkpt><trkpt lat="15.151537091620593" lon="120.5594245919643"><ele>136.79999999999998</ele><time>2026-04-19T07:30:44Z</time></trkpt><trkpt lat="15.151636486493699" lon="120.55942474582635"><ele>136.6</ele><time>2026-04-19T07:30:45Z</time></trkpt><trkpt lat="15.151737521466963" lon="120.55942551861712"><ele>136.39999999999998</ele><time>2026-04-19T07:30:46Z</time></trkpt><trkpt lat="15.15183922771581" lon="120.55942700320405"><ele>136.2</ele><time>2026-04-19T07:30:47Z</time></trkpt><trkpt lat="15.151938477734948" lon="120.55943139784482"><ele>136.0</ele><time>2026-04-19T07:30:48Z</time></trkpt><trkpt lat="15.152038305449706" lon="120.55944245372075"><ele>136.0</ele><time>2026-04-19T07:30:49Z</time></trkpt><trkpt lat="15.15213922994644" lon="120.55946137711604"><ele>136.0</ele><time>2026-04-19T07:30:50Z</time></trkpt><trkpt lat="15.152234419316782" lon="120.55948944912805"><ele>136.0</ele><time>2026-04-19T07:30:51Z</time></trkpt><trkpt lat="15.152326096614996" lon="120.5595244159386"><ele>136.0</ele><time>2026-04-19T07:30:52Z</time></trkpt><trkpt lat="15.152413008961888" lon="120.55956515524798"><ele>136.0</ele><time>2026-04-19T07:30:53Z</time></trkpt><trkpt lat="15.152497609156976" lon="120.55961411369435"><ele>135.8</ele><time>2026-04-19T07:30:54Z</time></trkpt><trkpt lat="15.152575860969211" lon="120.5596726394491"><ele>135.6</ele><time>2026-04-19T07:30:55Z</time></trkpt><trkpt lat="15.152652494526327" lon="120.55972875243374"><ele>135.4</ele><time>2026-04-19T07:30:56Z</time></trkpt><trkpt lat="15.152728885601423" lon="120.55978736989027"><ele>135.2</ele><time>2026-04-19T07:30:57Z</time></trkpt><trkpt lat="15.152805563419658" lon="120.55984788348655"><ele>135.0</ele><time>2026-04-19T07:30:58Z</time></trkpt><trkpt lat="15.152880613694196" lon="120.55990718645816"><ele>135.0</ele><time>2026-04-19T07:30:59Z</time></trkpt><trkpt lat="15.15295458555822" lon="120.5599663306251"><ele>135.0</ele><time>2026-04-19T07:31:00Z</time></trkpt><trkpt lat="15.153027797791523" lon="120.56002674220099"><ele>135.0</ele><time>2026-04-19T07:31:01Z</time></trkpt><trkpt lat="15.153101163491423" lon="120.56008704321214"><ele>135.0</ele><time>2026-04-19T07:31:02Z</time></trkpt><trkpt lat="15.153173268348276" lon="120.56014210924621"><ele>135.0</ele><time>2026-04-19T07:31:03Z</time></trkpt><trkpt lat="15.153250108771818" lon="120.56018830399267"><ele>135.2</ele><time>2026-04-19T07:31:04Z</time></trkpt><trkpt lat="15.153333493310793" lon="120.56023132646567"><ele>135.4</ele><time>2026-04-19T07:31:05Z</time></trkpt><trkpt lat="15.153419257090457" lon="120.56026366807042"><ele>135.6</ele><time>2026-04-19T07:31:06Z</time></trkpt><trkpt lat="15.153513714210137" lon="120.56028891711301"><ele>135.8</ele><time>2026-04-19T07:31:07Z</time></trkpt><trkpt lat="15.15361306280451" lon="120.56030550124109"><ele>136.0</ele><time>2026-04-19T07:31:08Z</time></trkpt><trkpt lat="15.153715911854242" lon="120.5603201735276"><ele>136.0</ele><time>2026-04-19T07:31:09Z</time></trkpt><trkpt lat="15.153819572451424" lon="120.56033189960579"><ele>136.0</ele><time>2026-04-19T07:31:10Z</time></trkpt><trkpt lat="15.153923403184953" lon="120.56033559728706"><ele>136.0</ele><time>2026-04-19T07:31:11Z</time></trkpt><trkpt lat="15.154029383171169" lon="120.56034209014503"><ele>136.0</ele><time>2026-04-19T07:31:12Z</time></trkpt><trkpt lat="15.15415018334092" lon="120.56034195966659"><ele>136.0</ele><time>2026-04-19T07:31:13Z</time></trkpt><trkpt lat="15.15428123837951" lon="120.56033352956484"><ele>135.75</ele><time>2026-04-19T07:31:14Z</time></trkpt><trkpt lat="15.154406242519999" lon="120.56033324394369"><ele>135.5</ele><time>2026-04-19T07:31:15Z</time></trkpt><trkpt lat="15.154523898065477" lon="120.56032906496986"><ele>135.25</ele><time>2026-04-19T07:31:16Z</time></trkpt><trkpt lat="15.154632811334984" lon="120.5603388373032"><ele>135.0</ele><time>2026-04-19T07:31:17Z</time></trkpt><trkpt lat="15.154769238926482" lon="120.56032455279914"><ele>135.0</ele><time>2026-04-19T07:31:18Z</time></trkpt><trkpt lat="15.154902629484221" lon="120.56032082992442"><ele>135.0</ele><time>2026-04-19T07:31:19Z</time></trkpt><trkpt lat="15.1550300262546" lon="120.56031304384949"><ele>135.0</ele><time>2026-04-19T07:31:20Z</time></trkpt><trkpt lat="15.15516356421627" lon="120.56029978297174"><ele>135.0</ele><time>2026-04-19T07:31:21Z</time></trkpt><trkpt lat="15.155289298368077" lon="120.5602858797625"><ele>135.0</ele><time>2026-04-19T07:31:22Z</time></trkpt><trkpt lat="15.155419917814504" lon="120.56026564756566"><ele>135.0</ele><time>2026-04-19T07:31:23Z</time></trkpt><trkpt lat="15.155551812626294" lon="120.56024273623699"><ele>135.0</ele><time>2026-04-19T07:31:24Z</time></trkpt><trkpt lat="15.15568103477733" lon="120.56021453181066"><ele>135.0</ele><time>2026-04-19T07:31:25Z</time></trkpt><trkpt lat="15.155814581147585" lon="120.56018454136137"><ele>134.25</ele><time>2026-04-19T07:31:26Z</time></trkpt><trkpt lat="15.155946868134619" lon="120.56016001502428"><ele>133.5</ele><time>2026-04-19T07:31:27Z</time></trkpt><trkpt lat="15.156079228260404" lon="120.56013160781347"><ele>132.75</ele><time>2026-04-19T07:31:28Z</time></trkpt><trkpt lat="15.15620930407475" lon="120.56010285211546"><ele>132.0</ele><time>2026-04-19T07:31:29Z</time></trkpt><trkpt lat="15.15634059905062" lon="120.56007978984617"><ele>132.0</ele><time>2026-04-19T07:31:30Z</time></trkpt><trkpt lat="15.156472496408067" lon="120.56005768044274"><ele>132.0</ele><time>2026-04-19T07:31:31Z</time></trkpt><trkpt lat="15.156602134691648" lon="120.56003717000642"><ele>132.0</ele><time>2026-04-19T07:31:32Z</time></trkpt><trkpt lat="15.156732096430861" lon="120.56001228414208"><ele>132.0</ele><time>2026-04-19T07:31:33Z</time></trkpt><trkpt lat="15.156857884269021" lon="120.55998798778646"><ele>131.5</ele><time>2026-04-19T07:31:34Z</time></trkpt><trkpt lat="15.156980889895337" lon="120.55996505536804"><ele>131.0</ele><time>2026-04-19T07:31:35Z</time></trkpt><trkpt lat="15.15710252320332" lon="120.5599401384718"><ele>130.5</ele><time>2026-04-19T07:31:36Z</time></trkpt><trkpt lat="15.157219457186935" lon="120.5599160164466"><ele>130.0</ele><time>2026-04-19T07:31:37Z</time></trkpt><trkpt lat="15.157335126513104" lon="120.55989521747551"><ele>130.2</ele><time>2026-04-19T07:31:38Z</time></trkpt><trkpt lat="15.157445013174412" lon="120.55987483407672"><ele>130.4</ele><time>2026-04-19T07:31:39Z</time></trkpt><trkpt lat="15.157553689794337" lon="120.55985307283738"><ele>130.6</ele><time>2026-04-19T07:31:40Z</time></trkpt><trkpt lat="15.157656726116466" lon="120.55983493528171"><ele>130.8</ele><time>2026-04-19T07:31:41Z</time></trkpt><trkpt lat="15.157750756197" lon="120.5598132848158"><ele>131.0</ele><time>2026-04-19T07:31:42Z</time></trkpt><trkpt lat="15.157837974688467" lon="120.55978362274068"><ele>131.0</ele><time>2026-04-19T07:31:43Z</time></trkpt><trkpt lat="15.157916425984862" lon="120.55974839259802"><ele>131.0</ele><time>2026-04-19T07:31:44Z</time></trkpt><trkpt lat="15.157987810456314" lon="120.55970038140266"><ele>131.0</ele><time>2026-04-19T07:31:45Z</time></trkpt><trkpt lat="15.158048400688381" lon="120.5596389190811"><ele>131.0</ele><time>2026-04-19T07:31:46Z</time></trkpt><trkpt lat="15.158094541444576" lon="120.55956512997219"><ele>131.0</ele><time>2026-04-19T07:31:47Z</time></trkpt><trkpt lat="15.158128914332877" lon="120.5594806130387"><ele>131.0</ele><time>2026-04-19T07:31:48Z</time></trkpt><trkpt lat="15.158161410544224" lon="120.55939221474847"><ele>130.4</ele><time>2026-04-19T07:31:49Z</time></trkpt><trkpt lat="15.158191681305913" lon="120.55930000687499"><ele>129.8</ele><time>2026-04-19T07:31:50Z</time></trkpt><trkpt lat="15.158221582333665" lon="120.55920571504014"><ele>129.20000000000002</ele><time>2026-04-19T07:31:51Z</time></trkpt><trkpt lat="15.15825280471509" lon="120.55910818805563"><ele>128.6</ele><time>2026-04-19T07:31:52Z</time></trkpt><trkpt lat="15.158283727048627" lon="120.55900937367234"><ele>128.0</ele><time>2026-04-19T07:31:53Z</time></trkpt><trkpt lat="15.158315292351194" lon="120.5589057740545"><ele>129.6</ele><time>2026-04-19T07:31:54Z</time></trkpt><trkpt lat="15.158347704454595" lon="120.55880015674906"><ele>131.20000000000002</ele><time>2026-04-19T07:31:55Z</time></trkpt><trkpt lat="15.158380085504545" lon="120.55869366788346"><ele>132.8</ele><time>2026-04-19T07:31:56Z</time></trkpt><trkpt lat="15.158412462977239" lon="120.55858557060928"><ele>134.4</ele><time>2026-04-19T07:31:57Z</time></trkpt><trkpt lat="15.158446216874182" lon="120.55847519669719"><ele>136.0</ele><time>2026-04-19T07:31:58Z</time></trkpt><trkpt lat="15.158479660831595" lon="120.55836503828944"><ele>136.4</ele><time>2026-04-19T07:31:59Z</time></trkpt><trkpt lat="15.158514667376371" lon="120.55825623028382"><ele>136.8</ele><time>2026-04-19T07:32:00Z</time></trkpt><trkpt lat="15.158556403672497" lon="120.558145259918"><ele>137.20000000000002</ele><time>2026-04-19T07:32:01Z</time></trkpt><trkpt lat="15.15858937413401" lon="120.55803899513535"><ele>137.6</ele><time>2026-04-19T07:32:02Z</time></trkpt><trkpt lat="15.158626066934584" lon="120.55792928758976"><ele>138.0</ele><time>2026-04-19T07:32:03Z</time></trkpt><trkpt lat="15.15866176716063" lon="120.55782348467173"><ele>138.4</ele><time>2026-04-19T07:32:04Z</time></trkpt><trkpt lat="15.158695914923172" lon="120.55772282062146"><ele>138.8</ele><time>2026-04-19T07:32:05Z</time></trkpt><trkpt lat="15.15873334964703" lon="120.55762017598163"><ele>139.2</ele><time>2026-04-19T07:32:06Z</time></trkpt><trkpt lat="15.158766511594932" lon="120.5575233764438"><ele>139.6</ele><time>2026-04-19T07:32:07Z</time></trkpt><trkpt lat="15.158795953524162" lon="120.55744141027539"><ele>140.0</ele><time>2026-04-19T07:32:08Z</time></trkpt><trkpt lat="15.158826380115695" lon="120.55737629339134"><ele>140.0</ele><time>2026-04-19T07:32:09Z</time></trkpt><trkpt lat="15.158873698129568" lon="120.55728650232086"><ele>140.0</ele><time>2026-04-19T07:32:11Z</time></trkpt><trkpt lat="15.158916465634567" lon="120.55721321455916"><ele>140.0</ele><time>2026-04-19T07:32:13Z</time></trkpt><trkpt lat="15.158965478237164" lon="120.55713756089999"><ele>140.0</ele><time>2026-04-19T07:32:15Z</time></trkpt><trkpt lat="15.159027183771018" lon="120.55705128823085"><ele>140.0</ele><time>2026-04-19T07:32:17Z</time></trkpt><trkpt lat="15.15910839222597" lon="120.55695405722614"><ele>139.66666666666666</ele><time>2026-04-19T07:32:19Z</time></trkpt><trkpt lat="15.15915965331811" lon="120.55690069791277"><ele>139.33333333333331</ele><time>2026-04-19T07:32:20Z</time></trkpt><trkpt lat="15.159215978943408" lon="120.5568457569698"><ele>139.0</ele><time>2026-04-19T07:32:21Z</time></trkpt><trkpt lat="15.159277482779968" lon="120.55679256468727"><ele>138.66666666666666</ele><time>2026-04-19T07:32:22Z</time></trkpt><trkpt lat="15.159343730384679" lon="120.55674441320602"><ele>138.33333333333334</ele><time>2026-04-19T07:32:23Z</time></trkpt><trkpt lat="15.159411054707428" lon="120.55669927608857"><ele>138.0</ele><time>2026-04-19T07:32:24Z</time></trkpt><trkpt lat="15.159477140457328" lon="120.55665935893178"><ele>138.0</ele><time>2026-04-19T07:32:25Z</time></trkpt><trkpt lat="15.159533629548402" lon="120.55662504299005"><ele>138.0</ele><time>2026-04-19T07:32:26Z</time></trkpt><trkpt lat="15.159601950634983" lon="120.55658402540435"><ele>138.0</ele><time>2026-04-19T07:32:28Z</time></trkpt><trkpt lat="15.159677992514657" lon="120.55654233193782"><ele>138.0</ele><time>2026-04-19T07:32:31Z</time></trkpt><trkpt lat="15.159745216786739" lon="120.55650625988555"><ele>138.0</ele><time>2026-04-19T07:32:33Z</time></trkpt><trkpt lat="15.159836082685947" lon="120.55645558201633"><ele>138.0</ele><time>2026-04-19T07:32:35Z</time></trkpt><trkpt lat="15.159940614195909" lon="120.55639849665533"><ele>138.0</ele><time>2026-04-19T07:32:37Z</time></trkpt><trkpt lat="15.159998769791724" lon="120.55636748315808"><ele>138.0</ele><time>2026-04-19T07:32:38Z</time></trkpt><trkpt lat="15.160063562874027" lon="120.55633628062985"><ele>138.0</ele><time>2026-04-19T07:32:39Z</time></trkpt><trkpt lat="15.160133005741711" lon="120.55630045225492"><ele>138.0</ele><time>2026-04-19T07:32:40Z</time></trkpt><trkpt lat="15.160205484384226" lon="120.5562635592642"><ele>138.0</ele><time>2026-04-19T07:32:41Z</time></trkpt><trkpt lat="15.160283231335393" lon="120.55622437880272"><ele>138.0</ele><time>2026-04-19T07:32:42Z</time></trkpt><trkpt lat="15.160365054841233" lon="120.55618412231651"><ele>138.16666666666666</ele><time>2026-04-19T07:32:43Z</time></trkpt><trkpt lat="15.160448156030743" lon="120.5561426912422"><ele>138.33333333333334</ele><time>2026-04-19T07:32:44Z</time></trkpt><trkpt lat="15.160528900418372" lon="120.55610077078441"><ele>138.5</ele><time>2026-04-19T07:32:45Z</time></trkpt><trkpt lat="15.160607148160345" lon="120.55605778728116"><ele>138.66666666666669</ele><time>2026-04-19T07:32:46Z</time></trkpt><trkpt lat="15.160683338168353" lon="120.556013488369"><ele>138.83333333333334</ele><time>2026-04-19T07:32:47Z</time></trkpt><trkpt lat="15.160755765288851" lon="120.55597319322719"><ele>139.0</ele><time>2026-04-19T07:32:48Z</time></trkpt><trkpt lat="15.160823803286538" lon="120.55593662702546"><ele>139.0</ele><time>2026-04-19T07:32:49Z</time></trkpt><trkpt lat="15.16088825014794" lon="120.55590363983225"><ele>139.0</ele><time>2026-04-19T07:32:50Z</time></trkpt><trkpt lat="15.160953822851432" lon="120.55586940702116"><ele>139.0</ele><time>2026-04-19T07:32:51Z</time></trkpt><trkpt lat="15.16102132735105" lon="120.55583415891056"><ele>139.0</ele><time>2026-04-19T07:32:52Z</time></trkpt><trkpt lat="15.161090239940245" lon="120.5557976085964"><ele>139.0</ele><time>2026-04-19T07:32:53Z</time></trkpt><trkpt lat="15.161161486870068" lon="120.5557592018285"><ele>139.0</ele><time>2026-04-19T07:32:54Z</time></trkpt><trkpt lat="15.161233106198448" lon="120.55571986920928"><ele>139.0</ele><time>2026-04-19T07:32:55Z</time></trkpt><trkpt lat="15.161308040302385" lon="120.55567899271047"><ele>139.0</ele><time>2026-04-19T07:32:56Z</time></trkpt><trkpt lat="15.161385204377764" lon="120.55563767164766"><ele>139.0</ele><time>2026-04-19T07:32:57Z</time></trkpt><trkpt lat="15.161463964598164" lon="120.55559656261327"><ele>139.0</ele><time>2026-04-19T07:32:58Z</time></trkpt><trkpt lat="15.161546019421372" lon="120.55555355129903"><ele>139.0</ele><time>2026-04-19T07:32:59Z</time></trkpt><trkpt lat="15.161630829060163" lon="120.55550990659694"><ele>139.0</ele><time>2026-04-19T07:33:00Z</time></trkpt><trkpt lat="15.161718130200928" lon="120.55546543006355"><ele>139.2</ele><time>2026-04-19T07:33:01Z</time></trkpt><trkpt lat="15.161808846863723" lon="120.55541812155434"><ele>139.4</ele><time>2026-04-19T07:33:02Z</time></trkpt><trkpt lat="15.161900383323406" lon="120.55537218857876"><ele>139.6</ele><time>2026-04-19T07:33:03Z</time></trkpt><trkpt lat="15.161990706631926" lon="120.55532556369319"><ele>139.8</ele><time>2026-04-19T07:33:04Z</time></trkpt><trkpt lat="15.162078216742229" lon="120.55528160113124"><ele>140.0</ele><time>2026-04-19T07:33:05Z</time></trkpt><trkpt lat="15.162163339237171" lon="120.55523771167438"><ele>140.33333333333331</ele><time>2026-04-19T07:33:06Z</time></trkpt><trkpt lat="15.162247108064863" lon="120.55519310147484"><ele>140.66666666666666</ele><time>2026-04-19T07:33:07Z</time></trkpt><trkpt lat="15.16232781518261" lon="120.55515035878943"><ele>141.0</ele><time>2026-04-19T07:33:08Z</time></trkpt><trkpt lat="15.162405941384307" lon="120.55511006697284"><ele>141.33333333333334</ele><time>2026-04-19T07:33:09Z</time></trkpt><trkpt lat="15.162483116484076" lon="120.555070515441"><ele>141.66666666666669</ele><time>2026-04-19T07:33:10Z</time></trkpt><trkpt lat="15.16255619663125" lon="120.55503178843854"><ele>142.0</ele><time>2026-04-19T07:33:11Z</time></trkpt><trkpt lat="15.16262415661145" lon="120.55499568898227"><ele>142.0</ele><time>2026-04-19T07:33:12Z</time></trkpt><trkpt lat="15.162685497418563" lon="120.55496455653123"><ele>142.0</ele><time>2026-04-19T07:33:13Z</time></trkpt><trkpt lat="15.162741711175864" lon="120.55493406919587"><ele>142.0</ele><time>2026-04-19T07:33:14Z</time></trkpt><trkpt lat="15.162840492804364" lon="120.55488083774927"><ele>142.0</ele><time>2026-04-19T07:33:16Z</time></trkpt><trkpt lat="15.162924490151658" lon="120.5548353786837"><ele>142.0</ele><time>2026-04-19T07:33:18Z</time></trkpt><trkpt lat="15.162996308061466" lon="120.55480805648463"><ele>142.0</ele><time>2026-04-19T07:33:20Z</time></trkpt><trkpt lat="15.163056506533431" lon="120.55483767285773"><ele>142.0</ele><time>2026-04-19T07:33:22Z</time></trkpt><trkpt lat="15.163103910951126" lon="120.55492263463906"><ele>142.0</ele><time>2026-04-19T07:33:24Z</time></trkpt><trkpt lat="15.16316176218583" lon="120.555027060658"><ele>142.0</ele><time>2026-04-19T07:33:26Z</time></trkpt><trkpt lat="15.163225636812127" lon="120.55514363410374"><ele>142.0</ele><time>2026-04-19T07:33:28Z</time></trkpt><trkpt lat="15.163262154500396" lon="120.55520780786672"><ele>142.0</ele><time>2026-04-19T07:33:29Z</time></trkpt><trkpt lat="15.163300086857962" lon="120.55527451295993"><ele>142.16666666666669</ele><time>2026-04-19T07:33:30Z</time></trkpt><trkpt lat="15.163340431155746" lon="120.55534545947845"><ele>142.33333333333334</ele><time>2026-04-19T07:33:31Z</time></trkpt><trkpt lat="15.16337802346632" lon="120.55542024329777"><ele>142.5</ele><time>2026-04-19T07:33:32Z</time></trkpt><trkpt lat="15.163419674344272" lon="120.55550214326841"><ele>142.66666666666666</ele><time>2026-04-19T07:33:33Z</time></trkpt><trkpt lat="15.163463471965931" lon="120.55558826449563"><ele>142.83333333333331</ele><time>2026-04-19T07:33:34Z</time></trkpt><trkpt lat="15.163507602926561" lon="120.55567504118517"><ele>143.0</ele><time>2026-04-19T07:33:35Z</time></trkpt><trkpt lat="15.163561414268333" lon="120.55575841623693"><ele>143.0</ele><time>2026-04-19T07:33:36Z</time></trkpt><trkpt lat="15.163607031030203" lon="120.5558473037435"><ele>143.0</ele><time>2026-04-19T07:33:37Z</time></trkpt><trkpt lat="15.163647718165972" lon="120.55593970359557"><ele>143.0</ele><time>2026-04-19T07:33:38Z</time></trkpt><trkpt lat="15.163693659636207" lon="120.5560260966434"><ele>143.0</ele><time>2026-04-19T07:33:39Z</time></trkpt><trkpt lat="15.163738708858556" lon="120.55611228975866"><ele>143.0</ele><time>2026-04-19T07:33:40Z</time></trkpt><trkpt lat="15.163783853491621" lon="120.55619664618149"><ele>142.66666666666666</ele><time>2026-04-19T07:33:41Z</time></trkpt><trkpt lat="15.16382909556252" lon="120.55628145548562"><ele>142.33333333333331</ele><time>2026-04-19T07:33:42Z</time></trkpt><trkpt lat="15.163872663476486" lon="120.55636396929727"><ele>142.0</ele><time>2026-04-19T07:33:43Z</time></trkpt><trkpt lat="15.163916281326342" lon="120.55644551201686"><ele>141.66666666666666</ele><time>2026-04-19T07:33:44Z</time></trkpt><trkpt lat="15.163958516625193" lon="120.55652533306457"><ele>141.33333333333334</ele><time>2026-04-19T07:33:45Z</time></trkpt><trkpt lat="15.163999667787982" lon="120.55660324047885"><ele>141.0</ele><time>2026-04-19T07:33:46Z</time></trkpt><trkpt lat="15.164039935654978" lon="120.5566786450759"><ele>140.66666666666666</ele><time>2026-04-19T07:33:47Z</time></trkpt><trkpt lat="15.164077553063027" lon="120.55674870570977"><ele>140.33333333333334</ele><time>2026-04-19T07:33:48Z</time></trkpt><trkpt lat="15.164109823340103" lon="120.5568103585572"><ele>140.0</ele><time>2026-04-19T07:33:49Z</time></trkpt><trkpt lat="15.164152604113177" lon="120.5568940342793"><ele>139.66666666666669</ele><time>2026-04-19T07:33:51Z</time></trkpt><trkpt lat="15.164181171978257" lon="120.55695802663836"><ele>139.33333333333334</ele><time>2026-04-19T07:33:57Z</time></trkpt><trkpt lat="15.164215614660495" lon="120.55702271143177"><ele>139.0</ele><time>2026-04-19T07:34:04Z</time></trkpt><trkpt lat="15.164255113899308" lon="120.5570975971799"><ele>138.83333333333334</ele><time>2026-04-19T07:34:08Z</time></trkpt><trkpt lat="15.16428530745097" lon="120.5571602095848"><ele>138.66666666666669</ele><time>2026-04-19T07:34:10Z</time></trkpt><trkpt lat="15.16432753791811" lon="120.55724258179886"><ele>138.5</ele><time>2026-04-19T07:34:12Z</time></trkpt><trkpt lat="15.164371088552384" lon="120.55732673089456"><ele>138.33333333333334</ele><time>2026-04-19T07:34:14Z</time></trkpt><trkpt lat="15.164412949459786" lon="120.55740757364768"><ele>138.16666666666666</ele><time>2026-04-19T07:34:16Z</time></trkpt><trkpt lat="15.164451661982767" lon="120.55748747611374"><ele>138.0</ele><time>2026-04-19T07:34:18Z</time></trkpt><trkpt lat="15.164495120083428" lon="120.55757693536538"><ele>138.0</ele><time>2026-04-19T07:34:20Z</time></trkpt><trkpt lat="15.164543988448447" lon="120.55767221495462"><ele>138.0</ele><time>2026-04-19T07:34:22Z</time></trkpt><trkpt lat="15.164597417199174" lon="120.55777863868657"><ele>138.0</ele><time>2026-04-19T07:34:24Z</time></trkpt><trkpt lat="15.164625949411842" lon="120.55783748000673"><ele>138.0</ele><time>2026-04-19T07:34:25Z</time></trkpt><trkpt lat="15.164657807157203" lon="120.55789820138658"><ele>138.0</ele><time>2026-04-19T07:34:26Z</time></trkpt><trkpt lat="15.164688940424728" lon="120.5579591097383"><ele>138.0</ele><time>2026-04-19T07:34:27Z</time></trkpt><trkpt lat="15.164718636438597" lon="120.55801822861461"><ele>137.83333333333334</ele><time>2026-04-19T07:34:28Z</time></trkpt><trkpt lat="15.164770400334765" lon="120.55812482317123"><ele>137.66666666666666</ele><time>2026-04-19T07:34:30Z</time></trkpt><trkpt lat="15.164808811941755" lon="120.55820593092076"><ele>137.5</ele><time>2026-04-19T07:34:32Z</time></trkpt><trkpt lat="15.164839067731602" lon="120.55826833534265"><ele>137.33333333333331</ele><time>2026-04-19T07:34:35Z</time></trkpt><trkpt lat="15.16487574975407" lon="120.55834028938148"><ele>137.16666666666666</ele><time>2026-04-19T07:34:39Z</time></trkpt><trkpt lat="15.164908214544829" lon="120.55840126746742"><ele>137.0</ele><time>2026-04-19T07:34:43Z</time></trkpt><trkpt lat="15.164948577092487" lon="120.55847858396172"><ele>136.79999999999998</ele><time>2026-04-19T07:34:49Z</time></trkpt><trkpt lat="15.164990884683679" lon="120.55856811375574"><ele>136.6</ele><time>2026-04-19T07:34:52Z</time></trkpt><trkpt lat="15.165030812623625" lon="120.55864929384094"><ele>136.39999999999998</ele><time>2026-04-19T07:34:54Z</time></trkpt><trkpt lat="15.165080444765879" lon="120.55874995911051"><ele>136.2</ele><time>2026-04-19T07:34:56Z</time></trkpt><trkpt lat="15.165133579477953" lon="120.55885777815496"><ele>136.0</ele><time>2026-04-19T07:34:58Z</time></trkpt><trkpt lat="15.165168696154323" lon="120.55892328218764"><ele>135.99999999999997</ele><time>2026-04-19T07:34:59Z</time></trkpt><trkpt lat="15.165204210509811" lon="120.55898217476499"><ele>136.0</ele><time>2026-04-19T07:35:00Z</time></trkpt><trkpt lat="15.165223697744183" lon="120.55904704874189"><ele>136.0</ele><time>2026-04-19T07:35:01Z</time></trkpt><trkpt lat="15.165255532999563" lon="120.55911045792293"><ele>136.0</ele><time>2026-04-19T07:35:02Z</time></trkpt><trkpt lat="15.165287988647238" lon="120.559175102646"><ele>136.0</ele><time>2026-04-19T07:35:03Z</time></trkpt><trkpt lat="15.165319652054885" lon="120.55924221254533"><ele>135.99999999999997</ele><time>2026-04-19T07:35:04Z</time></trkpt><trkpt lat="15.165353244271062" lon="120.55931236424459"><ele>136.0</ele><time>2026-04-19T07:35:05Z</time></trkpt><trkpt lat="15.165403843682212" lon="120.55938152410388"><ele>136.0</ele><time>2026-04-19T07:35:06Z</time></trkpt><trkpt lat="15.165439983927085" lon="120.55946099603206"><ele>136.0</ele><time>2026-04-19T07:35:07Z</time></trkpt><trkpt lat="15.165478767565086" lon="120.55954052473099"><ele>136.0</ele><time>2026-04-19T07:35:08Z</time></trkpt><trkpt lat="15.1655183928338" lon="120.55962369908629"><ele>136.0</ele><time>2026-04-19T07:35:09Z</time></trkpt><trkpt lat="15.165560641567682" lon="120.5597059334393"><ele>136.0</ele><time>2026-04-19T07:35:10Z</time></trkpt><trkpt lat="15.16558937081214" lon="120.55980209706756"><ele>136.0</ele><time>2026-04-19T07:35:11Z</time></trkpt><trkpt lat="15.165634433101543" lon="120.55989397128002"><ele>135.6</ele><time>2026-04-19T07:35:12Z</time></trkpt><trkpt lat="15.165680783456727" lon="120.55998847163268"><ele>135.2</ele><time>2026-04-19T07:35:13Z</time></trkpt><trkpt lat="15.165727843544069" lon="120.560084419001"><ele>134.8</ele><time>2026-04-19T07:35:14Z</time></trkpt><trkpt lat="15.165774497793826" lon="120.5601795387882"><ele>134.4</ele><time>2026-04-19T07:35:15Z</time></trkpt><trkpt lat="15.165824451656388" lon="120.56027646382938"><ele>134.0</ele><time>2026-04-19T07:35:16Z</time></trkpt><trkpt lat="15.165886672605584" lon="120.56036457671408"><ele>134.2</ele><time>2026-04-19T07:35:17Z</time></trkpt><trkpt lat="15.165930795133514" lon="120.56045823579537"><ele>134.4</ele><time>2026-04-19T07:35:18Z</time></trkpt><trkpt lat="15.16597241963697" lon="120.56054840958856"><ele>134.6</ele><time>2026-04-19T07:35:19Z</time></trkpt><trkpt lat="15.166010517808223" lon="120.56063987225775"><ele>134.8</ele><time>2026-04-19T07:35:20Z</time></trkpt><trkpt lat="15.16604736894367" lon="120.56073082250306"><ele>135.0</ele><time>2026-04-19T07:35:21Z</time></trkpt><trkpt lat="15.166080970299198" lon="120.56081816237972"><ele>135.0</ele><time>2026-04-19T07:35:22Z</time></trkpt><trkpt lat="15.16610970040932" lon="120.56090282840103"><ele>135.0</ele><time>2026-04-19T07:35:23Z</time></trkpt><trkpt lat="15.166136022422323" lon="120.56098614137782"><ele>135.0</ele><time>2026-04-19T07:35:24Z</time></trkpt><trkpt lat="15.166159379312106" lon="120.56107137413792"><ele>135.0</ele><time>2026-04-19T07:35:25Z</time></trkpt><trkpt lat="15.16618187460415" lon="120.56115831485518"><ele>135.0</ele><time>2026-04-19T07:35:26Z</time></trkpt><trkpt lat="15.166201129518916" lon="120.56124357484542"><ele>135.0</ele><time>2026-04-19T07:35:27Z</time></trkpt><trkpt lat="15.166218160543554" lon="120.56132969251998"><ele>135.0</ele><time>2026-04-19T07:35:28Z</time></trkpt><trkpt lat="15.166232401621585" lon="120.56141504723618"><ele>135.0</ele><time>2026-04-19T07:35:29Z</time></trkpt><trkpt lat="15.166247307847454" lon="120.56150127193769"><ele>135.0</ele><time>2026-04-19T07:35:30Z</time></trkpt><trkpt lat="15.166261472476888" lon="120.56158793019362"><ele>135.0</ele><time>2026-04-19T07:35:31Z</time></trkpt><trkpt lat="15.16627375888405" lon="120.5616735530373"><ele>135.0</ele><time>2026-04-19T07:35:32Z</time></trkpt><trkpt lat="15.166285588800376" lon="120.56175897503505"><ele>135.0</ele><time>2026-04-19T07:35:33Z</time></trkpt><trkpt lat="15.16629556697461" lon="120.56184515274624"><ele>135.0</ele><time>2026-04-19T07:35:34Z</time></trkpt><trkpt lat="15.166306289045137" lon="120.56193199539233"><ele>135.0</ele><time>2026-04-19T07:35:35Z</time></trkpt><trkpt lat="15.166316191218625" lon="120.5620192980829"><ele>135.0</ele><time>2026-04-19T07:35:36Z</time></trkpt><trkpt lat="15.166326990763642" lon="120.56210748648039"><ele>135.0</ele><time>2026-04-19T07:35:37Z</time></trkpt><trkpt lat="15.166336490963593" lon="120.56219674660802"><ele>135.0</ele><time>2026-04-19T07:35:38Z</time></trkpt><trkpt lat="15.166344361576027" lon="120.5622869966333"><ele>135.0</ele><time>2026-04-19T07:35:39Z</time></trkpt><trkpt lat="15.166352231509245" lon="120.56237946729394"><ele>135.0</ele><time>2026-04-19T07:35:40Z</time></trkpt><trkpt lat="15.16636161337377" lon="120.56247099651574"><ele>135.0</ele><time>2026-04-19T07:35:41Z</time></trkpt><trkpt lat="15.166370989439928" lon="120.56256419350694"><ele>135.0</ele><time>2026-04-19T07:35:42Z</time></trkpt><trkpt lat="15.166381473482128" lon="120.56265836747842"><ele>135.0</ele><time>2026-04-19T07:35:43Z</time></trkpt><trkpt lat="15.16639143995417" lon="120.56275240362274"><ele>135.0</ele><time>2026-04-19T07:35:44Z</time></trkpt><trkpt lat="15.166403086854253" lon="120.5628455462204"><ele>134.83333333333334</ele><time>2026-04-19T07:35:45Z</time></trkpt><trkpt lat="15.166414183466618" lon="120.56293765090356"><ele>134.66666666666666</ele><time>2026-04-19T07:35:46Z</time></trkpt><trkpt lat="15.166426225328445" lon="120.56302814654815"><ele>134.5</ele><time>2026-04-19T07:35:47Z</time></trkpt><trkpt lat="15.16643704965828" lon="120.56311595710949"><ele>134.33333333333331</ele><time>2026-04-19T07:35:48Z</time></trkpt><trkpt lat="15.166447596818596" lon="120.56320123633154"><ele>134.16666666666666</ele><time>2026-04-19T07:35:49Z</time></trkpt><trkpt lat="15.166459844002121" lon="120.56328375266507"><ele>134.0</ele><time>2026-04-19T07:35:50Z</time></trkpt><trkpt lat="15.16647164542647" lon="120.56336265048894"><ele>134.0</ele><time>2026-04-19T07:35:51Z</time></trkpt><trkpt lat="15.166484758515725" lon="120.56343790249953"><ele>134.0</ele><time>2026-04-19T07:35:52Z</time></trkpt><trkpt lat="15.16650154244142" lon="120.56350487013945"><ele>134.0</ele><time>2026-04-19T07:35:53Z</time></trkpt><trkpt lat="15.16651482778098" lon="120.56357292159488"><ele>134.0</ele><time>2026-04-19T07:35:54Z</time></trkpt><trkpt lat="15.16651684966518" lon="120.5636481657035"><ele>134.0</ele><time>2026-04-19T07:35:55Z</time></trkpt><trkpt lat="15.16651656641016" lon="120.56373071365189"><ele>134.0</ele><time>2026-04-19T07:35:56Z</time></trkpt><trkpt lat="15.166520025789989" lon="120.56381474010526"><ele>134.0</ele><time>2026-04-19T07:35:57Z</time></trkpt><trkpt lat="15.166526270933673" lon="120.56390132609678"><ele>133.83333333333331</ele><time>2026-04-19T07:35:58Z</time></trkpt><trkpt lat="15.166534662728262" lon="120.56398869644732"><ele>133.66666666666666</ele><time>2026-04-19T07:35:59Z</time></trkpt><trkpt lat="15.166544697301239" lon="120.56407689707783"><ele>133.5</ele><time>2026-04-19T07:36:00Z</time></trkpt><trkpt lat="15.16655463117661" lon="120.56416458251924"><ele>133.33333333333334</ele><time>2026-04-19T07:36:01Z</time></trkpt><trkpt lat="15.166563966427807" lon="120.56425206834633"><ele>133.16666666666669</ele><time>2026-04-19T07:36:02Z</time></trkpt><trkpt lat="15.166572635296163" lon="120.56433133634573"><ele>133.0</ele><time>2026-04-19T07:36:03Z</time></trkpt><trkpt lat="15.166580351121999" lon="120.56440400888854"><ele>133.0</ele><time>2026-04-19T07:36:04Z</time></trkpt><trkpt lat="15.166587493755877" lon="120.56447239738695"><ele>133.0</ele><time>2026-04-19T07:36:05Z</time></trkpt><trkpt lat="15.166595018031135" lon="120.56453716353614"><ele>133.0</ele><time>2026-04-19T07:36:06Z</time></trkpt><trkpt lat="15.166609324700394" lon="120.56463177974537"><ele>133.0</ele><time>2026-04-19T07:36:08Z</time></trkpt><trkpt lat="15.166621622716713" lon="120.56470744759856"><ele>133.0</ele><time>2026-04-19T07:36:11Z</time></trkpt><trkpt lat="15.166649702723836" lon="120.56478454986264"><ele>133.0</ele><time>2026-04-19T07:36:15Z</time></trkpt><trkpt lat="15.166695305241417" lon="120.56483040588664"><ele>133.0</ele><time>2026-04-19T07:36:19Z</time></trkpt><trkpt lat="15.166756974285606" lon="120.5648488680327"><ele>132.83333333333334</ele><time>2026-04-19T07:36:25Z</time></trkpt><trkpt lat="15.166819451071449" lon="120.56483348497142"><ele>132.66666666666669</ele><time>2026-04-19T07:36:29Z</time></trkpt><trkpt lat="15.166877058773412" lon="120.564880427692"><ele>132.5</ele><time>2026-04-19T07:36:32Z</time></trkpt><trkpt lat="15.166910407421533" lon="120.5649402269787"><ele>132.33333333333334</ele><time>2026-04-19T07:36:34Z</time></trkpt><trkpt lat="15.166967054140224" lon="120.565023280968"><ele>132.16666666666666</ele><time>2026-04-19T07:36:36Z</time></trkpt><trkpt lat="15.16706071179396" lon="120.56509467674952"><ele>132.0</ele><time>2026-04-19T07:36:38Z</time></trkpt><trkpt lat="15.167114032393194" lon="120.56514127271886"><ele>132.0</ele><time>2026-04-19T07:36:39Z</time></trkpt><trkpt lat="15.167156558088188" lon="120.56520426064125"><ele>132.0</ele><time>2026-04-19T07:36:40Z</time></trkpt><trkpt lat="15.167184884753693" lon="120.56526740714368"><ele>132.0</ele><time>2026-04-19T07:36:41Z</time></trkpt><trkpt lat="15.167200136994856" lon="120.56535031966138"><ele>132.0</ele><time>2026-04-19T07:36:42Z</time></trkpt><trkpt lat="15.167196225531594" lon="120.5654345113321"><ele>132.0</ele><time>2026-04-19T07:36:43Z</time></trkpt><trkpt lat="15.167226190179173" lon="120.56551201355622"><ele>132.0</ele><time>2026-04-19T07:36:44Z</time></trkpt><trkpt lat="15.167247166366534" lon="120.56559811945455"><ele>132.2</ele><time>2026-04-19T07:36:45Z</time></trkpt><trkpt lat="15.167255549458694" lon="120.5656910872046"><ele>132.39999999999998</ele><time>2026-04-19T07:36:46Z</time></trkpt><trkpt lat="15.167261364571257" lon="120.56578818287639"><ele>132.60000000000002</ele><time>2026-04-19T07:36:47Z</time></trkpt><trkpt lat="15.167263866926731" lon="120.56588856271799"><ele>132.8</ele><time>2026-04-19T07:36:48Z</time></trkpt><trkpt lat="15.167264031609472" lon="120.56599412564452"><ele>133.0</ele><time>2026-04-19T07:36:49Z</time></trkpt><trkpt lat="15.167261352989692" lon="120.56610451293574"><ele>131.75</ele><time>2026-04-19T07:36:50Z</time></trkpt><trkpt lat="15.167256290603369" lon="120.566217700527"><ele>130.5</ele><time>2026-04-19T07:36:51Z</time></trkpt><trkpt lat="15.167251011894257" lon="120.56633767747277"><ele>129.25</ele><time>2026-04-19T07:36:52Z</time></trkpt><trkpt lat="15.167242745527028" lon="120.56645968836901"><ele>128.0</ele><time>2026-04-19T07:36:53Z</time></trkpt><trkpt lat="15.167228275080666" lon="120.56658534550095"><ele>128.0</ele><time>2026-04-19T07:36:54Z</time></trkpt><trkpt lat="15.167208649783642" lon="120.56671465815364"><ele>128.0</ele><time>2026-04-19T07:36:55Z</time></trkpt><trkpt lat="15.16718672052342" lon="120.56684764423413"><ele>128.0</ele><time>2026-04-19T07:36:56Z</time></trkpt><trkpt lat="15.16716611808663" lon="120.56698339944423"><ele>128.0</ele><time>2026-04-19T07:36:57Z</time></trkpt><trkpt lat="15.167143659825014" lon="120.56711958277653"><ele>128.25</ele><time>2026-04-19T07:36:58Z</time></trkpt><trkpt lat="15.167123971612925" lon="120.56725685458025"><ele>128.5</ele><time>2026-04-19T07:36:59Z</time></trkpt><trkpt lat="15.167102318974974" lon="120.5673930067045"><ele>128.75</ele><time>2026-04-19T07:37:00Z</time></trkpt><trkpt lat="15.167080140166288" lon="120.56753397600875"><ele>129.0</ele><time>2026-04-19T07:37:01Z</time></trkpt><trkpt lat="15.167056728096064" lon="120.56767502622874"><ele>129.0</ele><time>2026-04-19T07:37:02Z</time></trkpt><trkpt lat="15.167031526994435" lon="120.5678199348322"><ele>129.0</ele><time>2026-04-19T07:37:03Z</time></trkpt><trkpt lat="15.167007640392312" lon="120.56797048415528"><ele>129.0</ele><time>2026-04-19T07:37:04Z</time></trkpt><trkpt lat="15.166983346055172" lon="120.56812351555622"><ele>129.0</ele><time>2026-04-19T07:37:05Z</time></trkpt><trkpt lat="15.166960567157293" lon="120.56828045941194"><ele>129.0</ele><time>2026-04-19T07:37:06Z</time></trkpt><trkpt lat="15.1669369093106" lon="120.5684413131436"><ele>129.0</ele><time>2026-04-19T07:37:07Z</time></trkpt><trkpt lat="15.166910862194028" lon="120.56860522160737"><ele>129.0</ele><time>2026-04-19T07:37:08Z</time></trkpt><trkpt lat="15.166885247095266" lon="120.56877380537426"><ele>128.33333333333334</ele><time>2026-04-19T07:37:09Z</time></trkpt><trkpt lat="15.166860054597763" lon="120.56894474375177"><ele>127.66666666666667</ele><time>2026-04-19T07:37:10Z</time></trkpt><trkpt lat="15.166833289398731" lon="120.56911949677774"><ele>127.0</ele><time>2026-04-19T07:37:11Z</time></trkpt><trkpt lat="15.166807486695134" lon="120.56929711837081"><ele>127.0</ele><time>2026-04-19T07:37:12Z</time></trkpt><trkpt lat="15.166779567213574" lon="120.56947655769478"><ele>127.0</ele><time>2026-04-19T07:37:13Z</time></trkpt><trkpt lat="15.166749474539177" lon="120.56965650606105"><ele>127.0</ele><time>2026-04-19T07:37:14Z</time></trkpt><trkpt lat="15.166722048914817" lon="120.56983923866244"><ele>127.0</ele><time>2026-04-19T07:37:15Z</time></trkpt><trkpt lat="15.166693626787554" lon="120.57002170561742"><ele>127.0</ele><time>2026-04-19T07:37:16Z</time></trkpt><trkpt lat="15.166664947626316" lon="120.57020260785913"><ele>127.0</ele><time>2026-04-19T07:37:17Z</time></trkpt><trkpt lat="15.166636399733722" lon="120.570382024484"><ele>126.66666666666667</ele><time>2026-04-19T07:37:18Z</time></trkpt><trkpt lat="15.166607989500557" lon="120.57055860235576"><ele>126.33333333333334</ele><time>2026-04-19T07:37:19Z</time></trkpt><trkpt lat="15.166581409791672" lon="120.57073358038815"><ele>126.0</ele><time>2026-04-19T07:37:20Z</time></trkpt><trkpt lat="15.16655598810086" lon="120.57090626130663"><ele>126.0</ele><time>2026-04-19T07:37:21Z</time></trkpt><trkpt lat="15.16652970453532" lon="120.57107665809565"><ele>126.0</ele><time>2026-04-19T07:37:22Z</time></trkpt><trkpt lat="15.16650458446298" lon="120.57124666633804"><ele>126.0</ele><time>2026-04-19T07:37:23Z</time></trkpt><trkpt lat="15.16647991490552" lon="120.57141534548506"><ele>125.33333333333334</ele><time>2026-04-19T07:37:24Z</time></trkpt><trkpt lat="15.166454202011101" lon="120.57158490935187"><ele>124.66666666666667</ele><time>2026-04-19T07:37:25Z</time></trkpt><trkpt lat="15.166427649140166" lon="120.57175288713839"><ele>124.0</ele><time>2026-04-19T07:37:26Z</time></trkpt><trkpt lat="15.166402480539652" lon="120.5719211152668"><ele>123.33333333333334</ele><time>2026-04-19T07:37:27Z</time></trkpt><trkpt lat="15.166377433858797" lon="120.57208900599275"><ele>122.66666666666666</ele><time>2026-04-19T07:37:28Z</time></trkpt><trkpt lat="15.166351823362236" lon="120.5722588203157"><ele>122.0</ele><time>2026-04-19T07:37:29Z</time></trkpt><trkpt lat="15.166325320705932" lon="120.5724306543362"><ele>122.0</ele><time>2026-04-19T07:37:30Z</time></trkpt><trkpt lat="15.166297907967369" lon="120.57260486906041"><ele>122.0</ele><time>2026-04-19T07:37:31Z</time></trkpt><trkpt lat="15.166270670330993" lon="120.57278073044561"><ele>122.0</ele><time>2026-04-19T07:37:32Z</time></trkpt><trkpt lat="15.16624229117477" lon="120.57296053453754"><ele>122.0</ele><time>2026-04-19T07:37:33Z</time></trkpt><trkpt lat="15.166214269250341" lon="120.57314099928978"><ele>122.0</ele><time>2026-04-19T07:37:34Z</time></trkpt><trkpt lat="15.166186750074363" lon="120.57332142357473"><ele>122.0</ele><time>2026-04-19T07:37:35Z</time></trkpt><trkpt lat="15.16615900073303" lon="120.57350266889863"><ele>122.0</ele><time>2026-04-19T07:37:36Z</time></trkpt><trkpt lat="15.166131391824937" lon="120.57368383215065"><ele>122.0</ele><time>2026-04-19T07:37:37Z</time></trkpt><trkpt lat="15.166104732303253" lon="120.57386365743899"><ele>122.0</ele><time>2026-04-19T07:37:38Z</time></trkpt><trkpt lat="15.166079594854084" lon="120.57404341409226"><ele>121.33333333333333</ele><time>2026-04-19T07:37:39Z</time></trkpt><trkpt lat="15.166052240502074" lon="120.57422372090998"><ele>120.66666666666666</ele><time>2026-04-19T07:37:40Z</time></trkpt><trkpt lat="15.166025223293907" lon="120.57440421312927"><ele>120.0</ele><time>2026-04-19T07:37:41Z</time></trkpt><trkpt lat="15.165996842450868" lon="120.5745836241115"><ele>119.33333333333334</ele><time>2026-04-19T07:37:42Z</time></trkpt><trkpt lat="15.165970378862223" lon="120.57476001692648"><ele>118.66666666666667</ele><time>2026-04-19T07:37:43Z</time></trkpt><trkpt lat="15.1659474414847" lon="120.57492911633383"><ele>118.0</ele><time>2026-04-19T07:37:44Z</time></trkpt><trkpt lat="15.165926832993131" lon="120.57509207089956"><ele>118.0</ele><time>2026-04-19T07:37:45Z</time></trkpt><trkpt lat="15.16591035032108" lon="120.57524870913208"><ele>118.0</ele><time>2026-04-19T07:37:46Z</time></trkpt><trkpt lat="15.165894756478696" lon="120.57539566519519"><ele>118.0</ele><time>2026-04-19T07:37:47Z</time></trkpt><trkpt lat="15.165881477506947" lon="120.57553139430017"><ele>118.0</ele><time>2026-04-19T07:37:48Z</time></trkpt><trkpt lat="15.16586996947275" lon="120.5756616558944"><ele>118.5</ele><time>2026-04-19T07:37:49Z</time></trkpt><trkpt lat="15.165860339250328" lon="120.57578996462195"><ele>119.0</ele><time>2026-04-19T07:37:50Z</time></trkpt><trkpt lat="15.165854217339515" lon="120.57591694633754"><ele>119.5</ele><time>2026-04-19T07:37:51Z</time></trkpt><trkpt lat="15.16585293681204" lon="120.57604562542927"><ele>120.0</ele><time>2026-04-19T07:37:52Z</time></trkpt><trkpt lat="15.165857496446383" lon="120.57617536819255"><ele>119.25</ele><time>2026-04-19T07:37:53Z</time></trkpt><trkpt lat="15.165864439118224" lon="120.57630655136752"><ele>118.5</ele><time>2026-04-19T07:37:54Z</time></trkpt><trkpt lat="15.165870951306093" lon="120.57644020610095"><ele>117.75</ele><time>2026-04-19T07:37:55Z</time></trkpt><trkpt lat="15.165878810591792" lon="120.57657531370813"><ele>117.0</ele><time>2026-04-19T07:37:56Z</time></trkpt><trkpt lat="15.165890910747077" lon="120.57671331400877"><ele>117.0</ele><time>2026-04-19T07:37:57Z</time></trkpt><trkpt lat="15.165904009619693" lon="120.57685180833764"><ele>117.0</ele><time>2026-04-19T07:37:58Z</time></trkpt><trkpt lat="15.165921131693997" lon="120.57699286818418"><ele>117.0</ele><time>2026-04-19T07:37:59Z</time></trkpt><trkpt lat="15.165940011000714" lon="120.57713479989634"><ele>117.0</ele><time>2026-04-19T07:38:00Z</time></trkpt><trkpt lat="15.165958988563752" lon="120.57728118398305"><ele>116.66666666666666</ele><time>2026-04-19T07:38:01Z</time></trkpt><trkpt lat="15.165982266300253" lon="120.5774320429456"><ele>116.33333333333333</ele><time>2026-04-19T07:38:02Z</time></trkpt><trkpt lat="15.166010116693123" lon="120.57758780270692"><ele>116.0</ele><time>2026-04-19T07:38:03Z</time></trkpt><trkpt lat="15.166038987251024" lon="120.5777437095764"><ele>115.33333333333333</ele><time>2026-04-19T07:38:04Z</time></trkpt><trkpt lat="15.166066349061149" lon="120.5779041620093"><ele>114.66666666666666</ele><time>2026-04-19T07:38:05Z</time></trkpt><trkpt lat="15.166092937658323" lon="120.57806146374233"><ele>114.0</ele><time>2026-04-19T07:38:06Z</time></trkpt><trkpt lat="15.166117778707175" lon="120.57822449451932"><ele>114.0</ele><time>2026-04-19T07:38:07Z</time></trkpt><trkpt lat="15.166142035263672" lon="120.57838617087307"><ele>114.0</ele><time>2026-04-19T07:38:08Z</time></trkpt><trkpt lat="15.16617093531352" lon="120.57855222402785"><ele>114.0</ele><time>2026-04-19T07:38:09Z</time></trkpt><trkpt lat="15.166204341184946" lon="120.57872275996986"><ele>114.33333333333334</ele><time>2026-04-19T07:38:10Z</time></trkpt><trkpt lat="15.16623463615165" lon="120.5788957763395"><ele>114.66666666666667</ele><time>2026-04-19T07:38:11Z</time></trkpt><trkpt lat="15.166277856169616" lon="120.57906222028693"><ele>115.0</ele><time>2026-04-19T07:38:12Z</time></trkpt><trkpt lat="15.166310160224603" lon="120.57923467138691"><ele>115.0</ele><time>2026-04-19T07:38:13Z</time></trkpt><trkpt lat="15.16634247354139" lon="120.57940717186281"><ele>115.0</ele><time>2026-04-19T07:38:14Z</time></trkpt><trkpt lat="15.166374229900944" lon="120.57957827658983"><ele>115.0</ele><time>2026-04-19T07:38:15Z</time></trkpt><trkpt lat="15.166409105782828" lon="120.57976080912486"><ele>114.66666666666667</ele><time>2026-04-19T07:38:16Z</time></trkpt><trkpt lat="15.166437879820563" lon="120.57993335942389"><ele>114.33333333333334</ele><time>2026-04-19T07:38:17Z</time></trkpt><trkpt lat="15.166467046410874" lon="120.58010722346867"><ele>114.0</ele><time>2026-04-19T07:38:18Z</time></trkpt><trkpt lat="15.166498183705386" lon="120.58027820437093"><ele>114.0</ele><time>2026-04-19T07:38:19Z</time></trkpt><trkpt lat="15.166528500349367" lon="120.58044767452569"><ele>114.0</ele><time>2026-04-19T07:38:20Z</time></trkpt><trkpt lat="15.166560858032312" lon="120.58061378755288"><ele>114.0</ele><time>2026-04-19T07:38:21Z</time></trkpt><trkpt lat="15.16659064292178" lon="120.58077749554948"><ele>114.0</ele><time>2026-04-19T07:38:22Z</time></trkpt><trkpt lat="15.16661989125533" lon="120.5809397841183"><ele>114.0</ele><time>2026-04-19T07:38:23Z</time></trkpt><trkpt lat="15.166644985791157" lon="120.58110214650412"><ele>114.0</ele><time>2026-04-19T07:38:24Z</time></trkpt><trkpt lat="15.166674510976693" lon="120.58126668993346"><ele>113.33333333333334</ele><time>2026-04-19T07:38:25Z</time></trkpt><trkpt lat="15.16670172846955" lon="120.58143071533105"><ele>112.66666666666667</ele><time>2026-04-19T07:38:26Z</time></trkpt><trkpt lat="15.166727182463685" lon="120.58159242019116"><ele>112.0</ele><time>2026-04-19T07:38:27Z</time></trkpt><trkpt lat="15.166753412209351" lon="120.58175396615128"><ele>112.0</ele><time>2026-04-19T07:38:28Z</time></trkpt><trkpt lat="15.166779433780775" lon="120.58191274159832"><ele>112.0</ele><time>2026-04-19T07:38:29Z</time></trkpt><trkpt lat="15.166806035688127" lon="120.58206488286079"><ele>112.0</ele><time>2026-04-19T07:38:30Z</time></trkpt><trkpt lat="15.16683123663787" lon="120.58221022773071"><ele>112.0</ele><time>2026-04-19T07:38:31Z</time></trkpt><trkpt lat="15.166855852208695" lon="120.58234702935685"><ele>111.25</ele><time>2026-04-19T07:38:32Z</time></trkpt><trkpt lat="15.166879430584817" lon="120.5824819292033"><ele>110.5</ele><time>2026-04-19T07:38:33Z</time></trkpt><trkpt lat="15.16690326519103" lon="120.58261610918521"><ele>109.75</ele><time>2026-04-19T07:38:34Z</time></trkpt><trkpt lat="15.166927628453127" lon="120.58275202679269"><ele>109.0</ele><time>2026-04-19T07:38:35Z</time></trkpt><trkpt lat="15.166954004790085" lon="120.58288908757444"><ele>108.75</ele><time>2026-04-19T07:38:36Z</time></trkpt><trkpt lat="15.166981365880916" lon="120.58302689189642"><ele>108.5</ele><time>2026-04-19T07:38:37Z</time></trkpt><trkpt lat="15.167009251580186" lon="120.5831651217319"><ele>108.25</ele><time>2026-04-19T07:38:38Z</time></trkpt><trkpt lat="15.167036729135425" lon="120.58330320385889"><ele>108.0</ele><time>2026-04-19T07:38:39Z</time></trkpt><trkpt lat="15.16706306246396" lon="120.58344185988945"><ele>108.0</ele><time>2026-04-19T07:38:40Z</time></trkpt><trkpt lat="15.167088762232554" lon="120.58358040306736"><ele>108.0</ele><time>2026-04-19T07:38:41Z</time></trkpt><trkpt lat="15.167111672156368" lon="120.58371641714248"><ele>108.0</ele><time>2026-04-19T07:38:42Z</time></trkpt><trkpt lat="15.167133611323097" lon="120.58384873412174"><ele>108.0</ele><time>2026-04-19T07:38:43Z</time></trkpt><trkpt lat="15.167156031815306" lon="120.58397774565083"><ele>108.25</ele><time>2026-04-19T07:38:44Z</time></trkpt><trkpt lat="15.167178173734946" lon="120.58410509953649"><ele>108.5</ele><time>2026-04-19T07:38:45Z</time></trkpt><trkpt lat="15.16720056513205" lon="120.58423176091635"><ele>108.75</ele><time>2026-04-19T07:38:46Z</time></trkpt><trkpt lat="15.167224264136003" lon="120.58435537993904"><ele>109.0</ele><time>2026-04-19T07:38:47Z</time></trkpt><trkpt lat="15.16724548167822" lon="120.5844726210348"><ele>109.0</ele><time>2026-04-19T07:38:48Z</time></trkpt><trkpt lat="15.167264443541493" lon="120.58458049411405"><ele>109.0</ele><time>2026-04-19T07:38:49Z</time></trkpt><trkpt lat="15.167282222404136" lon="120.5846829253005"><ele>109.0</ele><time>2026-04-19T07:38:50Z</time></trkpt><trkpt lat="15.167299107166361" lon="120.58478476417156"><ele>109.0</ele><time>2026-04-19T07:38:51Z</time></trkpt><trkpt lat="15.167319393322726" lon="120.5848828228241"><ele>109.0</ele><time>2026-04-19T07:38:52Z</time></trkpt><trkpt lat="15.167342415403866" lon="120.58498069476474"><ele>108.80000000000001</ele><time>2026-04-19T07:38:53Z</time></trkpt><trkpt lat="15.167368351999938" lon="120.58507802799299"><ele>108.60000000000001</ele><time>2026-04-19T07:38:54Z</time></trkpt><trkpt lat="15.167398280025076" lon="120.58517709610867"><ele>108.4</ele><time>2026-04-19T07:38:55Z</time></trkpt><trkpt lat="15.167427819017066" lon="120.58527410854296"><ele>108.2</ele><time>2026-04-19T07:38:56Z</time></trkpt><trkpt lat="15.167457778345854" lon="120.58537453251155"><ele>108.0</ele><time>2026-04-19T07:38:57Z</time></trkpt><trkpt lat="15.167490000955171" lon="120.5854762085815"><ele>108.80000000000001</ele><time>2026-04-19T07:38:58Z</time></trkpt><trkpt lat="15.167522817462766" lon="120.58557797502257"><ele>109.60000000000001</ele><time>2026-04-19T07:38:59.001Z</time></trkpt><trkpt lat="15.167554457958412" lon="120.58568265651947"><ele>110.39999999999999</ele><time>2026-04-19T07:39:00.001Z</time></trkpt><trkpt lat="15.167587464521807" lon="120.58578929947716"><ele>111.19999999999999</ele><time>2026-04-19T07:39:01.001Z</time></trkpt><trkpt lat="15.167622082633587" lon="120.58589629871794"><ele>112.0</ele><time>2026-04-19T07:39:02.001Z</time></trkpt><trkpt lat="15.16765775947663" lon="120.58600346636153"><ele>112.0</ele><time>2026-04-19T07:39:03.001Z</time></trkpt><trkpt lat="15.167692895225787" lon="120.58611063082331"><ele>112.0</ele><time>2026-04-19T07:39:04.001Z</time></trkpt><trkpt lat="15.16772711694555" lon="120.5862187972137"><ele>112.0</ele><time>2026-04-19T07:39:05.001Z</time></trkpt><trkpt lat="15.167731665114554" lon="120.58633668561899"><ele>112.0</ele><time>2026-04-19T07:39:06.001Z</time></trkpt><trkpt lat="15.167779512281387" lon="120.58644973827579"><ele>111.5</ele><time>2026-04-19T07:39:07.001Z</time></trkpt><trkpt lat="15.16782358783553" lon="120.58656220062468"><ele>111.0</ele><time>2026-04-19T07:39:08.001Z</time></trkpt><trkpt lat="15.16786306526312" lon="120.5866752911171"><ele>110.5</ele><time>2026-04-19T07:39:09.001Z</time></trkpt><trkpt lat="15.167901487175515" lon="120.5867773793297"><ele>110.0</ele><time>2026-04-19T07:39:10.001Z</time></trkpt><trkpt lat="15.167938224918366" lon="120.58689138453062"><ele>110.0</ele><time>2026-04-19T07:39:11.001Z</time></trkpt><trkpt lat="15.167975874111637" lon="120.58700335546447"><ele>110.0</ele><time>2026-04-19T07:39:12.001Z</time></trkpt><trkpt lat="15.168015395933402" lon="120.58711279670997"><ele>110.0</ele><time>2026-04-19T07:39:13.001Z</time></trkpt><trkpt lat="15.16805664472161" lon="120.58722082061759"><ele>110.0</ele><time>2026-04-19T07:39:14.001Z</time></trkpt><trkpt lat="15.168100701728697" lon="120.58732726801188"><ele>109.6</ele><time>2026-04-19T07:39:15.001Z</time></trkpt><trkpt lat="15.168140870677796" lon="120.58743747895436"><ele>109.2</ele><time>2026-04-19T07:39:16.001Z</time></trkpt><trkpt lat="15.168179074655828" lon="120.58754762846654"><ele>108.80000000000001</ele><time>2026-04-19T07:39:17.001Z</time></trkpt><trkpt lat="15.168215862488363" lon="120.58765936078183"><ele>108.4</ele><time>2026-04-19T07:39:18.001Z</time></trkpt><trkpt lat="15.168250609073944" lon="120.58776623275034"><ele>108.0</ele><time>2026-04-19T07:39:19.001Z</time></trkpt><trkpt lat="15.168283984481253" lon="120.58787295240852"><ele>107.4</ele><time>2026-04-19T07:39:20.001Z</time></trkpt><trkpt lat="15.16832107258111" lon="120.58797345209221"><ele>106.80000000000001</ele><time>2026-04-19T07:39:21.001Z</time></trkpt><trkpt lat="15.168354408282951" lon="120.58806750905009"><ele>106.2</ele><time>2026-04-19T07:39:22.001Z</time></trkpt><trkpt lat="15.168382644819399" lon="120.58815439881904"><ele>105.6</ele><time>2026-04-19T07:39:23.001Z</time></trkpt><trkpt lat="15.168407878727095" lon="120.58822913984108"><ele>105.0</ele><time>2026-04-19T07:39:24.001Z</time></trkpt><trkpt lat="15.168449247953136" lon="120.58833783145283"><ele>105.0</ele><time>2026-04-19T07:39:26.001Z</time></trkpt><trkpt lat="15.168479769408306" lon="120.5884192803234"><ele>105.0</ele><time>2026-04-19T07:39:28.001Z</time></trkpt><trkpt lat="15.168508801699819" lon="120.5884863097752"><ele>105.0</ele><time>2026-04-19T07:39:30.001Z</time></trkpt><trkpt lat="15.168534165226225" lon="120.5885461483004"><ele>105.0</ele><time>2026-04-19T07:39:32.001Z</time></trkpt><trkpt lat="15.168562995055465" lon="120.58861303536408"><ele>105.0</ele><time>2026-04-19T07:39:34.001Z</time></trkpt><trkpt lat="15.168593877975155" lon="120.58868046116811"><ele>105.0</ele><time>2026-04-19T07:39:36.001Z</time></trkpt><trkpt lat="15.168623546036201" lon="120.58873895204887"><ele>105.0</ele><time>2026-04-19T07:39:38.001Z</time></trkpt><trkpt lat="15.16865908092815" lon="120.58881861360273"><ele>104.75</ele><time>2026-04-19T07:39:40.001Z</time></trkpt><trkpt lat="15.168703183323082" lon="120.58892449200151"><ele>104.5</ele><time>2026-04-19T07:39:42.001Z</time></trkpt><trkpt lat="15.168757509947483" lon="120.58904143366695"><ele>104.25</ele><time>2026-04-19T07:39:44.001Z</time></trkpt><trkpt lat="15.168818088237883" lon="120.58915179275405"><ele>104.0</ele><time>2026-04-19T07:39:46.001Z</time></trkpt><trkpt lat="15.16889419240731" lon="120.58923732102768"><ele>103.99999999999999</ele><time>2026-04-19T07:39:48.001Z</time></trkpt><trkpt lat="15.168987073849236" lon="120.58928607570788"><ele>104.0</ele><time>2026-04-19T07:39:50.001Z</time></trkpt><trkpt lat="15.169065311488866" lon="120.58930289742271"><ele>104.0</ele><time>2026-04-19T07:39:52.001Z</time></trkpt><trkpt lat="15.169129378467254" lon="120.58930751148064"><ele>104.0</ele><time>2026-04-19T07:39:55Z</time></trkpt><trkpt lat="15.169212889927959" lon="120.58931448970738"><ele>103.99999999999999</ele><time>2026-04-19T07:39:58Z</time></trkpt><trkpt lat="15.169302080776047" lon="120.58931481562063"><ele>104.0</ele><time>2026-04-19T07:40:00Z</time></trkpt><trkpt lat="15.169411974120417" lon="120.5892991290937"><ele>104.0</ele><time>2026-04-19T07:40:02Z</time></trkpt><trkpt lat="15.169515767238792" lon="120.58928192702218"><ele>104.0</ele><time>2026-04-19T07:40:04Z</time></trkpt><trkpt lat="15.169615027026692" lon="120.58926524556882"><ele>104.0</ele><time>2026-04-19T07:40:06Z</time></trkpt><trkpt lat="15.169710612720612" lon="120.58924962719858"><ele>104.0</ele><time>2026-04-19T07:40:08Z</time></trkpt><trkpt lat="15.169799258819747" lon="120.58923473341567"><ele>104.0</ele><time>2026-04-19T07:40:10Z</time></trkpt><trkpt lat="15.169886152419634" lon="120.5892201285375"><ele>104.0</ele><time>2026-04-19T07:40:12Z</time></trkpt><trkpt lat="15.169971755086863" lon="120.58920200129594"><ele>104.0</ele><time>2026-04-19T07:40:14Z</time></trkpt><trkpt lat="15.170056898190204" lon="120.58918142124655"><ele>104.0</ele><time>2026-04-19T07:40:16Z</time></trkpt><trkpt lat="15.170124278705577" lon="120.58916452772579"><ele>104.0</ele><time>2026-04-19T07:40:19Z</time></trkpt><trkpt lat="15.170189038954573" lon="120.58914627256092"><ele>104.0</ele><time>2026-04-19T07:40:25Z</time></trkpt><trkpt lat="15.170249481618917" lon="120.58912445296585"><ele>104.0</ele><time>2026-04-19T07:40:32Z</time></trkpt><trkpt lat="15.170320609395029" lon="120.5891118529289"><ele>104.0</ele><time>2026-04-19T07:40:35Z</time></trkpt><trkpt lat="15.170388117544537" lon="120.58910126192976"><ele>103.99999999999999</ele><time>2026-04-19T07:40:37Z</time></trkpt><trkpt lat="15.170465714007667" lon="120.58908975458084"><ele>104.0</ele><time>2026-04-19T07:40:41Z</time></trkpt><trkpt lat="15.170535652143716" lon="120.58905808483317"><ele>104.0</ele><time>2026-04-19T07:41:53.001Z</time></trkpt><trkpt lat="15.170594783667179" lon="120.58902705436975"><ele>104.0</ele><time>2026-04-19T07:41:56.001Z</time></trkpt><trkpt lat="15.17065889229379" lon="120.5889942378704"><ele>103.99999999999999</ele><time>2026-04-19T07:41:58.001Z</time></trkpt><trkpt lat="15.170755902182544" lon="120.58896476116038"><ele>104.0</ele><time>2026-04-19T07:42:00.001Z</time></trkpt><trkpt lat="15.170870611926427" lon="120.58893693817427"><ele>104.16666666666666</ele><time>2026-04-19T07:42:02.001Z</time></trkpt><trkpt lat="15.170935073893512" lon="120.58892025921979"><ele>104.33333333333333</ele><time>2026-04-19T07:42:03.001Z</time></trkpt><trkpt lat="15.171004464697917" lon="120.58890252201138"><ele>104.5</ele><time>2026-04-19T07:42:04.001Z</time></trkpt><trkpt lat="15.171077013812699" lon="120.58888470706664"><ele>104.66666666666666</ele><time>2026-04-19T07:42:05.001Z</time></trkpt><trkpt lat="15.171152562035218" lon="120.58886507831203"><ele>104.83333333333333</ele><time>2026-04-19T07:42:06.001Z</time></trkpt><trkpt lat="15.171229913315733" lon="120.58884592641876"><ele>105.0</ele><time>2026-04-19T07:42:07.001Z</time></trkpt><trkpt lat="15.171310005363502" lon="120.58882565222926"><ele>105.0</ele><time>2026-04-19T07:42:08.001Z</time></trkpt><trkpt lat="15.171390237896954" lon="120.588804303644"><ele>105.0</ele><time>2026-04-19T07:42:09Z</time></trkpt><trkpt lat="15.171472323002831" lon="120.58878233809247"><ele>105.0</ele><time>2026-04-19T07:42:10Z</time></trkpt><trkpt lat="15.171555192750763" lon="120.58875882239178"><ele>105.0</ele><time>2026-04-19T07:42:11Z</time></trkpt><trkpt lat="15.171644240726728" lon="120.58875342053295"><ele>105.0</ele><time>2026-04-19T07:42:12Z</time></trkpt><trkpt lat="15.171731556210299" lon="120.5887327055593"><ele>105.0</ele><time>2026-04-19T07:42:13Z</time></trkpt><trkpt lat="15.17181946548444" lon="120.5887087781955"><ele>105.0</ele><time>2026-04-19T07:42:14Z</time></trkpt><trkpt lat="15.171903568737676" lon="120.58868628991931"><ele>105.0</ele><time>2026-04-19T07:42:15Z</time></trkpt><trkpt lat="15.17198023453121" lon="120.58866579033004"><ele>105.0</ele><time>2026-04-19T07:42:16Z</time></trkpt><trkpt lat="15.172051327252655" lon="120.58864678092203"><ele>105.0</ele><time>2026-04-19T07:42:17Z</time></trkpt><trkpt lat="15.172111213399642" lon="120.58861910105486"><ele>105.0</ele><time>2026-04-19T07:42:18Z</time></trkpt><trkpt lat="15.172177658490497" lon="120.5886063270327"><ele>105.0</ele><time>2026-04-19T07:42:19Z</time></trkpt><trkpt lat="15.172250083006098" lon="120.58858343534743"><ele>105.0</ele><time>2026-04-19T07:42:20Z</time></trkpt><trkpt lat="15.172328058372823" lon="120.58856061088434"><ele>104.6</ele><time>2026-04-19T07:42:21Z</time></trkpt><trkpt lat="15.172409185759724" lon="120.58854846236491"><ele>104.2</ele><time>2026-04-19T07:42:22Z</time></trkpt><trkpt lat="15.172500467227644" lon="120.58851771733782"><ele>103.80000000000001</ele><time>2026-04-19T07:42:23Z</time></trkpt><trkpt lat="15.17259212348902" lon="120.58849345291654"><ele>103.4</ele><time>2026-04-19T07:42:24Z</time></trkpt><trkpt lat="15.172686214178265" lon="120.58846988481473"><ele>103.0</ele><time>2026-04-19T07:42:25Z</time></trkpt><trkpt lat="15.172782023526592" lon="120.5884448246812"><ele>103.0</ele><time>2026-04-19T07:42:26Z</time></trkpt><trkpt lat="15.172880045850723" lon="120.58842142048266"><ele>103.0</ele><time>2026-04-19T07:42:27Z</time></trkpt><trkpt lat="15.172977795827201" lon="120.58839595455784"><ele>103.0</ele><time>2026-04-19T07:42:28Z</time></trkpt><trkpt lat="15.173071351658837" lon="120.58837114508968"><ele>103.0</ele><time>2026-04-19T07:42:29Z</time></trkpt><trkpt lat="15.173162696895984" lon="120.58834942328892"><ele>103.0</ele><time>2026-04-19T07:42:30Z</time></trkpt><trkpt lat="15.173251009388123" lon="120.58832632512299"><ele>103.16666666666667</ele><time>2026-04-19T07:42:31Z</time></trkpt><trkpt lat="15.17333528748581" lon="120.58830612895193"><ele>103.33333333333334</ele><time>2026-04-19T07:42:32Z</time></trkpt><trkpt lat="15.173412592196827" lon="120.58828798319874"><ele>103.5</ele><time>2026-04-19T07:42:33Z</time></trkpt><trkpt lat="15.173486162611997" lon="120.58826891280145"><ele>103.66666666666666</ele><time>2026-04-19T07:42:34Z</time></trkpt><trkpt lat="15.173559460472765" lon="120.58825119789692"><ele>103.83333333333333</ele><time>2026-04-19T07:42:35Z</time></trkpt><trkpt lat="15.173635336213083" lon="120.5882336537224"><ele>104.0</ele><time>2026-04-19T07:42:36Z</time></trkpt><trkpt lat="15.173713749952581" lon="120.58821520686337"><ele>103.99999999999999</ele><time>2026-04-19T07:42:37Z</time></trkpt><trkpt lat="15.173793026950833" lon="120.58819465921793"><ele>104.0</ele><time>2026-04-19T07:42:38Z</time></trkpt><trkpt lat="15.173874509698173" lon="120.58817372194804"><ele>104.0</ele><time>2026-04-19T07:42:39Z</time></trkpt><trkpt lat="15.173959116935691" lon="120.58815243996015"><ele>104.0</ele><time>2026-04-19T07:42:40Z</time></trkpt><trkpt lat="15.174046710579036" lon="120.58813037186769"><ele>103.99999999999999</ele><time>2026-04-19T07:42:41Z</time></trkpt><trkpt lat="15.174139123773845" lon="120.58810796888184"><ele>104.0</ele><time>2026-04-19T07:42:42Z</time></trkpt><trkpt lat="15.174234279547097" lon="120.58808593552936"><ele>104.4</ele><time>2026-04-19T07:42:43Z</time></trkpt><trkpt lat="15.174333464309818" lon="120.58806146788"><ele>104.80000000000001</ele><time>2026-04-19T07:42:44Z</time></trkpt><trkpt lat="15.174435379195973" lon="120.58803655738842"><ele>105.19999999999999</ele><time>2026-04-19T07:42:45Z</time></trkpt><trkpt lat="15.174539346660465" lon="120.58801208765217"><ele>105.6</ele><time>2026-04-19T07:42:46Z</time></trkpt><trkpt lat="15.174644205864645" lon="120.5879901842955"><ele>106.0</ele><time>2026-04-19T07:42:47Z</time></trkpt><trkpt lat="15.174748074271982" lon="120.58796816809311"><ele>106.0</ele><time>2026-04-19T07:42:48Z</time></trkpt><trkpt lat="15.174848639532957" lon="120.58794696214166"><ele>106.0</ele><time>2026-04-19T07:42:49Z</time></trkpt><trkpt lat="15.174942940130979" lon="120.58792769838958"><ele>106.0</ele><time>2026-04-19T07:42:50Z</time></trkpt><trkpt lat="15.175032108424876" lon="120.58791155365904"><ele>106.0</ele><time>2026-04-19T07:42:51Z</time></trkpt><trkpt lat="15.175119370295096" lon="120.58789357692221"><ele>106.0</ele><time>2026-04-19T07:42:52Z</time></trkpt><trkpt lat="15.175203477593648" lon="120.58787882999016"><ele>105.83333333333334</ele><time>2026-04-19T07:42:53Z</time></trkpt><trkpt lat="15.175281831272919" lon="120.58786512607261"><ele>105.66666666666667</ele><time>2026-04-19T07:42:54Z</time></trkpt><trkpt lat="15.175354512868623" lon="120.58785330312492"><ele>105.5</ele><time>2026-04-19T07:42:55Z</time></trkpt><trkpt lat="15.175423626289033" lon="120.58784108868727"><ele>105.33333333333334</ele><time>2026-04-19T07:42:56Z</time></trkpt><trkpt lat="15.175488931525187" lon="120.58782976852113"><ele>105.16666666666667</ele><time>2026-04-19T07:42:57Z</time></trkpt><trkpt lat="15.175610584797568" lon="120.58780801596956"><ele>105.0</ele><time>2026-04-19T07:42:59Z</time></trkpt><trkpt lat="15.175722513256401" lon="120.58778545563543"><ele>104.8</ele><time>2026-04-19T07:43:01Z</time></trkpt><trkpt lat="15.175833399916757" lon="120.58775930885051"><ele>104.6</ele><time>2026-04-19T07:43:03Z</time></trkpt><trkpt lat="15.175933253094637" lon="120.58773615888477"><ele>104.4</ele><time>2026-04-19T07:43:05Z</time></trkpt><trkpt lat="15.176031494215213" lon="120.58771511526209"><ele>104.2</ele><time>2026-04-19T07:43:07.001Z</time></trkpt><trkpt lat="15.176120642485438" lon="120.58770520552974"><ele>104.0</ele><time>2026-04-19T07:43:09.001Z</time></trkpt><trkpt lat="15.176210200043196" lon="120.58768788122163"><ele>103.99999999999999</ele><time>2026-04-19T07:43:11.001Z</time></trkpt><trkpt lat="15.176296398446727" lon="120.58767376698935"><ele>104.0</ele><time>2026-04-19T07:43:13.001Z</time></trkpt><trkpt lat="15.176391865416688" lon="120.58765441685975"><ele>104.0</ele><time>2026-04-19T07:43:15.001Z</time></trkpt><trkpt lat="15.17647951199659" lon="120.58763868564559"><ele>104.0</ele><time>2026-04-19T07:43:17.001Z</time></trkpt><trkpt lat="15.176558744761028" lon="120.5876161647811"><ele>103.99999999999999</ele><time>2026-04-19T07:43:19.001Z</time></trkpt><trkpt lat="15.176626557806863" lon="120.58759251219854"><ele>104.0</ele><time>2026-04-19T07:43:22.001Z</time></trkpt><trkpt lat="15.176706335519054" lon="120.58757335148616"><ele>104.25</ele><time>2026-04-19T07:43:24.001Z</time></trkpt><trkpt lat="15.176802172341327" lon="120.5875536012789"><ele>104.5</ele><time>2026-04-19T07:43:26.001Z</time></trkpt><trkpt lat="15.176900767013557" lon="120.58754009245197"><ele>104.75</ele><time>2026-04-19T07:43:28.001Z</time></trkpt><trkpt lat="15.176977369432977" lon="120.58752605726532"><ele>105.0</ele><time>2026-04-19T07:43:30.001Z</time></trkpt><trkpt lat="15.177149188076573" lon="120.587485982151"><ele>105.0</ele><time>2026-04-19T07:43:35.001Z</time></trkpt><trkpt lat="15.177236574144027" lon="120.58746555467391"><ele>105.0</ele><time>2026-04-19T07:43:37.001Z</time></trkpt><trkpt lat="15.17733604926482" lon="120.58745001985638"><ele>105.0</ele><time>2026-04-19T07:43:39.001Z</time></trkpt><trkpt lat="15.177406995624297" lon="120.5874421074549"><ele>105.0</ele><time>2026-04-19T07:43:41.001Z</time></trkpt><trkpt lat="15.177475651957996" lon="120.58745911559235"><ele>105.0</ele><time>2026-04-19T07:43:44.001Z</time></trkpt><trkpt lat="15.177535360132488" lon="120.58750402149738"><ele>105.0</ele><time>2026-04-19T07:43:48.001Z</time></trkpt><trkpt lat="15.177515929053705" lon="120.58757350737704"><ele>105.0</ele><time>2026-04-19T07:43:52.001Z</time></trkpt><trkpt lat="15.177727715582984" lon="120.58757919427444"><ele>105.0</ele><time>2026-04-19T07:47:55Z</time></trkpt><trkpt lat="15.17780051081441" lon="120.58754886647702"><ele>105.0</ele><time>2026-04-19T07:47:58Z</time></trkpt><trkpt lat="15.177878062969462" lon="120.58752602939938"><ele>105.0</ele><time>2026-04-19T07:48:01Z</time></trkpt><trkpt lat="15.177950009742913" lon="120.58751899436247"><ele>105.0</ele><time>2026-04-19T07:48:03Z</time></trkpt><trkpt lat="15.17800459888077" lon="120.58755592729477"><ele>105.0</ele><time>2026-04-19T07:48:05Z</time></trkpt><trkpt lat="15.17807015190227" lon="120.58753973319682"><ele>105.0</ele><time>2026-04-19T07:48:09Z</time></trkpt><trkpt lat="15.17812137693582" lon="120.5875782355864"><ele>105.0</ele><time>2026-04-19T07:48:10Z</time></trkpt><trkpt lat="15.17815403344739" lon="120.58767091988679"><ele>105.0</ele><time>2026-04-19T07:48:12Z</time></trkpt><trkpt lat="15.17818429643663" lon="120.58778740945884"><ele>105.0</ele><time>2026-04-19T07:48:14Z</time></trkpt><trkpt lat="15.17821452153629" lon="120.58785347320533"><ele>105.0</ele><time>2026-04-19T07:48:15Z</time></trkpt><trkpt lat="15.178246183092169" lon="120.5879244981746"><ele>104.83333333333333</ele><time>2026-04-19T07:48:16Z</time></trkpt><trkpt lat="15.178280673799843" lon="120.5879994256444"><ele>104.66666666666666</ele><time>2026-04-19T07:48:17Z</time></trkpt><trkpt lat="15.178317657556875" lon="120.58807253877703"><ele>104.5</ele><time>2026-04-19T07:48:18Z</time></trkpt><trkpt lat="15.178358868317286" lon="120.58814821073125"><ele>104.33333333333333</ele><time>2026-04-19T07:48:19Z</time></trkpt><trkpt lat="15.178402097804014" lon="120.58821933414957"><ele>104.16666666666666</ele><time>2026-04-19T07:48:20Z</time></trkpt><trkpt lat="15.178447258734591" lon="120.58828492505826"><ele>104.0</ele><time>2026-04-19T07:48:21Z</time></trkpt><trkpt lat="15.178494354210464" lon="120.58834630341026"><ele>103.99999999999999</ele><time>2026-04-19T07:48:22Z</time></trkpt><trkpt lat="15.178561650189204" lon="120.58838860548171"><ele>104.0</ele><time>2026-04-19T07:48:23Z</time></trkpt><trkpt lat="15.178600943244245" lon="120.58846700857673"><ele>104.0</ele><time>2026-04-19T07:48:24Z</time></trkpt><trkpt lat="15.178653398707677" lon="120.5885237295471"><ele>104.0</ele><time>2026-04-19T07:48:25Z</time></trkpt><trkpt lat="15.178704321796248" lon="120.58858590862795"><ele>103.99999999999999</ele><time>2026-04-19T07:48:26Z</time></trkpt><trkpt lat="15.178752787400652" lon="120.58864616901302"><ele>104.0</ele><time>2026-04-19T07:48:27Z</time></trkpt><trkpt lat="15.178796155848504" lon="120.58870029499765"><ele>103.66666666666666</ele><time>2026-04-19T07:48:28Z</time></trkpt><trkpt lat="15.17883585624433" lon="120.58875159102578"><ele>103.33333333333333</ele><time>2026-04-19T07:48:29Z</time></trkpt><trkpt lat="15.178892677619384" lon="120.58882315571859"><ele>103.0</ele><time>2026-04-19T07:48:31Z</time></trkpt><trkpt lat="15.178933602327863" lon="120.58887325316938"><ele>102.66666666666666</ele><time>2026-04-19T07:48:33Z</time></trkpt><trkpt lat="15.1789748271959" lon="120.58892699526834"><ele>102.33333333333333</ele><time>2026-04-19T07:48:35Z</time></trkpt><trkpt lat="15.179037662826854" lon="120.58901244816157"><ele>102.0</ele><time>2026-04-19T07:48:37Z</time></trkpt><trkpt lat="15.179105880982284" lon="120.58910552527901"><ele>103.0</ele><time>2026-04-19T07:48:39Z</time></trkpt><trkpt lat="15.179178558097156" lon="120.58920917637055"><ele>104.0</ele><time>2026-04-19T07:48:41Z</time></trkpt><trkpt lat="15.179216765903028" lon="120.58926401360159"><ele>104.99999999999999</ele><time>2026-04-19T07:48:42Z</time></trkpt><trkpt lat="15.179282405245797" lon="120.58936281895593"><ele>106.0</ele><time>2026-04-19T07:48:44Z</time></trkpt><trkpt lat="15.179341398057538" lon="120.58944861383121"><ele>107.0</ele><time>2026-04-19T07:48:46Z</time></trkpt><trkpt lat="15.179397703926146" lon="120.58954519754987"><ele>107.16666666666666</ele><time>2026-04-19T07:48:48Z</time></trkpt><trkpt lat="15.179429842230343" lon="120.58960215983758"><ele>107.33333333333333</ele><time>2026-04-19T07:48:49Z</time></trkpt><trkpt lat="15.179464623384495" lon="120.58966476466145"><ele>107.5</ele><time>2026-04-19T07:48:50Z</time></trkpt><trkpt lat="15.179500594630627" lon="120.58973053201831"><ele>107.66666666666666</ele><time>2026-04-19T07:48:51Z</time></trkpt><trkpt lat="15.179534590717862" lon="120.58980125773832"><ele>107.83333333333333</ele><time>2026-04-19T07:48:52Z</time></trkpt><trkpt lat="15.179566675814009" lon="120.5898808446322"><ele>108.0</ele><time>2026-04-19T07:48:53Z</time></trkpt><trkpt lat="15.179596811561929" lon="120.58996678600312"><ele>108.0</ele><time>2026-04-19T07:48:54Z</time></trkpt><trkpt lat="15.179622581250122" lon="120.59005740194308"><ele>108.00000000000001</ele><time>2026-04-19T07:48:55Z</time></trkpt><trkpt lat="15.179646932102957" lon="120.59014800801505"><ele>108.00000000000001</ele><time>2026-04-19T07:48:56Z</time></trkpt><trkpt lat="15.179669889292992" lon="120.5902412518351"><ele>108.0</ele><time>2026-04-19T07:48:57Z</time></trkpt><trkpt lat="15.179691299562005" lon="120.59033403239538"><ele>108.0</ele><time>2026-04-19T07:48:58Z</time></trkpt><trkpt lat="15.179709213663536" lon="120.59042911695762"><ele>107.0</ele><time>2026-04-19T07:48:59Z</time></trkpt><trkpt lat="15.17972578124169" lon="120.59052824774199"><ele>106.00000000000001</ele><time>2026-04-19T07:49:00Z</time></trkpt><trkpt lat="15.1797382535092" lon="120.59063017095764"><ele>105.0</ele><time>2026-04-19T07:49:01Z</time></trkpt><trkpt lat="15.179747639923221" lon="120.590733428763"><ele>104.0</ele><time>2026-04-19T07:49:02Z</time></trkpt><trkpt lat="15.17975434135494" lon="120.59083463594139"><ele>103.0</ele><time>2026-04-19T07:49:03Z</time></trkpt><trkpt lat="15.179763100982688" lon="120.59093766437016"><ele>103.0</ele><time>2026-04-19T07:49:04Z</time></trkpt><trkpt lat="15.179771110644635" lon="120.59103788799797"><ele>103.0</ele><time>2026-04-19T07:49:05Z</time></trkpt><trkpt lat="15.179776006165968" lon="120.59113314690043"><ele>103.0</ele><time>2026-04-19T07:49:06Z</time></trkpt><trkpt lat="15.179779542464244" lon="120.59122660500294"><ele>103.0</ele><time>2026-04-19T07:49:07Z</time></trkpt><trkpt lat="15.179780212538132" lon="120.59131966192832"><ele>103.0</ele><time>2026-04-19T07:49:08Z</time></trkpt><trkpt lat="15.179780158846569" lon="120.59141248258067"><ele>103.0</ele><time>2026-04-19T07:49:09Z</time></trkpt><trkpt lat="15.179780971747581" lon="120.59150301281659"><ele>103.0</ele><time>2026-04-19T07:49:10Z</time></trkpt><trkpt lat="15.179781057610766" lon="120.59159308397987"><ele>103.0</ele><time>2026-04-19T07:49:11Z</time></trkpt><trkpt lat="15.179779752491017" lon="120.59168550815664"><ele>103.0</ele><time>2026-04-19T07:49:12Z</time></trkpt><trkpt lat="15.179782388255138" lon="120.59178186809812"><ele>103.0</ele><time>2026-04-19T07:49:13Z</time></trkpt><trkpt lat="15.179784755579117" lon="120.59188344097777"><ele>103.0</ele><time>2026-04-19T07:49:14Z</time></trkpt><trkpt lat="15.179786217052047" lon="120.5919922711009"><ele>103.0</ele><time>2026-04-19T07:49:15Z</time></trkpt><trkpt lat="15.179788148030234" lon="120.59210344642288"><ele>103.0</ele><time>2026-04-19T07:49:16Z</time></trkpt><trkpt lat="15.179790341162994" lon="120.59221893539461"><ele>103.0</ele><time>2026-04-19T07:49:17Z</time></trkpt><trkpt lat="15.17979172550492" lon="120.59233513251664"><ele>103.0</ele><time>2026-04-19T07:49:18Z</time></trkpt><trkpt lat="15.179791583076247" lon="120.59245224016225"><ele>103.0</ele><time>2026-04-19T07:49:19Z</time></trkpt><trkpt lat="15.179792393099023" lon="120.59257289996361"><ele>103.0</ele><time>2026-04-19T07:49:20Z</time></trkpt><trkpt lat="15.179793254207931" lon="120.59269507660376"><ele>103.0</ele><time>2026-04-19T07:49:21Z</time></trkpt><trkpt lat="15.179795723435015" lon="120.59281893031914"><ele>103.0</ele><time>2026-04-19T07:49:22Z</time></trkpt><trkpt lat="15.179796854878532" lon="120.59294507302596"><ele>103.0</ele><time>2026-04-19T07:49:23Z</time></trkpt><trkpt lat="15.179799073743911" lon="120.59307632283732"><ele>103.0</ele><time>2026-04-19T07:49:24Z</time></trkpt><trkpt lat="15.179800371258185" lon="120.59320862022871"><ele>103.0</ele><time>2026-04-19T07:49:25Z</time></trkpt><trkpt lat="15.179802281972142" lon="120.59334002513272"><ele>103.0</ele><time>2026-04-19T07:49:26Z</time></trkpt><trkpt lat="15.179802342086953" lon="120.5934705806171"><ele>103.0</ele><time>2026-04-19T07:49:27Z</time></trkpt><trkpt lat="15.179804177791558" lon="120.59360292012846"><ele>103.0</ele><time>2026-04-19T07:49:28Z</time></trkpt><trkpt lat="15.179803526806243" lon="120.5937350362359"><ele>103.0</ele><time>2026-04-19T07:49:29Z</time></trkpt><trkpt lat="15.179805068418505" lon="120.593870104862"><ele>103.0</ele><time>2026-04-19T07:49:30Z</time></trkpt><trkpt lat="15.179812395099788" lon="120.59400761731337"><ele>102.75</ele><time>2026-04-19T07:49:31Z</time></trkpt><trkpt lat="15.179813741565855" lon="120.59414454480964"><ele>102.5</ele><time>2026-04-19T07:49:32Z</time></trkpt><trkpt lat="15.179816757337086" lon="120.59428309255833"><ele>102.25</ele><time>2026-04-19T07:49:33Z</time></trkpt><trkpt lat="15.179819183141158" lon="120.59442379043179"><ele>102.0</ele><time>2026-04-19T07:49:34Z</time></trkpt><trkpt lat="15.179824053581953" lon="120.59456304871685"><ele>101.5</ele><time>2026-04-19T07:49:35Z</time></trkpt><trkpt lat="15.179826063526162" lon="120.5947036879216"><ele>101.0</ele><time>2026-04-19T07:49:36Z</time></trkpt><trkpt lat="15.179829419871796" lon="120.59484395206736"><ele>100.5</ele><time>2026-04-19T07:49:37Z</time></trkpt><trkpt lat="15.179831005930135" lon="120.59498052060196"><ele>100.0</ele><time>2026-04-19T07:49:38Z</time></trkpt><trkpt lat="15.179833665338762" lon="120.59511581064648"><ele>100.0</ele><time>2026-04-19T07:49:39Z</time></trkpt><trkpt lat="15.179836884858194" lon="120.59525215787397"><ele>100.0</ele><time>2026-04-19T07:49:40Z</time></trkpt><trkpt lat="15.179839680057029" lon="120.5953894763152"><ele>100.0</ele><time>2026-04-19T07:49:41Z</time></trkpt><trkpt lat="15.179842620588868" lon="120.59552678760136"><ele>100.0</ele><time>2026-04-19T07:49:42Z</time></trkpt><trkpt lat="15.179843794414458" lon="120.59566362501877"><ele>99.75</ele><time>2026-04-19T07:49:43Z</time></trkpt><trkpt lat="15.179846631743025" lon="120.59580020093519"><ele>99.5</ele><time>2026-04-19T07:49:44Z</time></trkpt><trkpt lat="15.179848144672734" lon="120.59593972025584"><ele>99.25</ele><time>2026-04-19T07:49:45Z</time></trkpt><trkpt lat="15.179852671302296" lon="120.59607861375727"><ele>99.0</ele><time>2026-04-19T07:49:46Z</time></trkpt><trkpt lat="15.179855220739666" lon="120.59621885049825"><ele>98.75</ele><time>2026-04-19T07:49:47Z</time></trkpt><trkpt lat="15.179858050480163" lon="120.59635660068423"><ele>98.5</ele><time>2026-04-19T07:49:48Z</time></trkpt><trkpt lat="15.179860263831305" lon="120.5964944996724"><ele>98.25</ele><time>2026-04-19T07:49:49Z</time></trkpt><trkpt lat="15.179863665476743" lon="120.5966331852141"><ele>98.0</ele><time>2026-04-19T07:49:50Z</time></trkpt><trkpt lat="15.179864868655615" lon="120.59677184009277"><ele>98.0</ele><time>2026-04-19T07:49:51Z</time></trkpt><trkpt lat="15.179866540685904" lon="120.59690825889905"><ele>98.0</ele><time>2026-04-19T07:49:52Z</time></trkpt><trkpt lat="15.179869366583418" lon="120.5970459435046"><ele>98.0</ele><time>2026-04-19T07:49:53Z</time></trkpt><trkpt lat="15.179871795865099" lon="120.59718074290015"><ele>98.0</ele><time>2026-04-19T07:49:54Z</time></trkpt><trkpt lat="15.179873403171749" lon="120.59731561722906"><ele>97.5</ele><time>2026-04-19T07:49:55Z</time></trkpt><trkpt lat="15.179876268630611" lon="120.59744678681415"><ele>97.0</ele><time>2026-04-19T07:49:56Z</time></trkpt><trkpt lat="15.179878526709755" lon="120.59757475532327"><ele>96.5</ele><time>2026-04-19T07:49:57Z</time></trkpt><trkpt lat="15.179882192662957" lon="120.59770283856841"><ele>96.0</ele><time>2026-04-19T07:49:58Z</time></trkpt><trkpt lat="15.179886055944998" lon="120.59782815757798"><ele>95.75</ele><time>2026-04-19T07:49:59Z</time></trkpt><trkpt lat="15.179889722136176" lon="120.59795261069128"><ele>95.5</ele><time>2026-04-19T07:50:00Z</time></trkpt><trkpt lat="15.179892473893345" lon="120.59807854689973"><ele>95.25</ele><time>2026-04-19T07:50:01Z</time></trkpt><trkpt lat="15.179895904665154" lon="120.59820466700779"><ele>95.0</ele><time>2026-04-19T07:50:02Z</time></trkpt><trkpt lat="15.179897535253193" lon="120.59833316001058"><ele>95.0</ele><time>2026-04-19T07:50:03Z</time></trkpt><trkpt lat="15.17990037331807" lon="120.59846424437872"><ele>95.0</ele><time>2026-04-19T07:50:04Z</time></trkpt><trkpt lat="15.179901032905503" lon="120.5985959650233"><ele>95.0</ele><time>2026-04-19T07:50:05Z</time></trkpt><trkpt lat="15.179902515068068" lon="120.59873199946185"><ele>95.0</ele><time>2026-04-19T07:50:06Z</time></trkpt><trkpt lat="15.179904016182403" lon="120.59886873137953"><ele>94.75</ele><time>2026-04-19T07:50:07Z</time></trkpt><trkpt lat="15.179905344715173" lon="120.59900960367241"><ele>94.5</ele><time>2026-04-19T07:50:08Z</time></trkpt><trkpt lat="15.179906732428247" lon="120.59914724292683"><ele>94.25</ele><time>2026-04-19T07:50:09Z</time></trkpt><trkpt lat="15.179907704403329" lon="120.59928613253038"><ele>94.0</ele><time>2026-04-19T07:50:10Z</time></trkpt><trkpt lat="15.179910192841385" lon="120.59942551112582"><ele>93.75</ele><time>2026-04-19T07:50:11Z</time></trkpt><trkpt lat="15.179911793554055" lon="120.5995644548953"><ele>93.5</ele><time>2026-04-19T07:50:12Z</time></trkpt><trkpt lat="15.17991442130301" lon="120.59970174913909"><ele>93.25</ele><time>2026-04-19T07:50:13Z</time></trkpt><trkpt lat="15.179917469551855" lon="120.59984205538744"><ele>93.0</ele><time>2026-04-19T07:50:14Z</time></trkpt><trkpt lat="15.179920995387906" lon="120.59998322769073"><ele>93.0</ele><time>2026-04-19T07:50:15Z</time></trkpt><trkpt lat="15.179923887110746" lon="120.60012607507828"><ele>93.0</ele><time>2026-04-19T07:50:16Z</time></trkpt><trkpt lat="15.179922507219107" lon="120.60026878283776"><ele>93.0</ele><time>2026-04-19T07:50:17Z</time></trkpt><trkpt lat="15.17991892620759" lon="120.60040836068123"><ele>93.0</ele><time>2026-04-19T07:50:18Z</time></trkpt><trkpt lat="15.179913716519241" lon="120.60054389433805"><ele>93.0</ele><time>2026-04-19T07:50:19Z</time></trkpt><trkpt lat="15.179908284301048" lon="120.60067722599857"><ele>93.0</ele><time>2026-04-19T07:50:20Z</time></trkpt><trkpt lat="15.179901912121812" lon="120.60080640989179"><ele>93.0</ele><time>2026-04-19T07:50:21Z</time></trkpt><trkpt lat="15.179895119261928" lon="120.60093472108117"><ele>93.0</ele><time>2026-04-19T07:50:22Z</time></trkpt><trkpt lat="15.179885185321037" lon="120.60105986145344"><ele>93.2</ele><time>2026-04-19T07:50:23Z</time></trkpt><trkpt lat="15.179875028248048" lon="120.60118073423048"><ele>93.4</ele><time>2026-04-19T07:50:24Z</time></trkpt><trkpt lat="15.179861123346342" lon="120.60129531645943"><ele>93.60000000000001</ele><time>2026-04-19T07:50:25Z</time></trkpt><trkpt lat="15.17984773374399" lon="120.60140211429085"><ele>93.80000000000001</ele><time>2026-04-19T07:50:26Z</time></trkpt><trkpt lat="15.179834338338628" lon="120.6014983808627"><ele>94.0</ele><time>2026-04-19T07:50:27Z</time></trkpt><trkpt lat="15.17982167513541" lon="120.60158193707404"><ele>94.0</ele><time>2026-04-19T07:50:28Z</time></trkpt><trkpt lat="15.179809696866247" lon="120.6016599727469"><ele>94.0</ele><time>2026-04-19T07:50:29Z</time></trkpt><trkpt lat="15.179798757359743" lon="120.60173743446667"><ele>94.0</ele><time>2026-04-19T07:50:30Z</time></trkpt><trkpt lat="15.179789873203953" lon="120.60181500223787"><ele>94.0</ele><time>2026-04-19T07:50:31Z</time></trkpt><trkpt lat="15.179779597055955" lon="120.60189504099469"><ele>94.0</ele><time>2026-04-19T07:50:32Z</time></trkpt><trkpt lat="15.179768580807174" lon="120.60197971676624"><ele>94.0</ele><time>2026-04-19T07:50:33Z</time></trkpt><trkpt lat="15.179756271950248" lon="120.60206577680171"><ele>93.83333333333333</ele><time>2026-04-19T07:50:34Z</time></trkpt><trkpt lat="15.179742886366158" lon="120.60215425852576"><ele>93.66666666666666</ele><time>2026-04-19T07:50:35Z</time></trkpt><trkpt lat="15.179731614841373" lon="120.60224555932237"><ele>93.5</ele><time>2026-04-19T07:50:36Z</time></trkpt><trkpt lat="15.179717100972015" lon="120.60233612134282"><ele>93.33333333333333</ele><time>2026-04-19T07:50:37Z</time></trkpt><trkpt lat="15.179702496702053" lon="120.60242603122595"><ele>93.16666666666667</ele><time>2026-04-19T07:50:38Z</time></trkpt><trkpt lat="15.17968816483565" lon="120.60251434451865"><ele>93.0</ele><time>2026-04-19T07:50:39Z</time></trkpt><trkpt lat="15.179672276928713" lon="120.60260376418827"><ele>93.0</ele><time>2026-04-19T07:50:40Z</time></trkpt><trkpt lat="15.179650849873942" lon="120.6026929762553"><ele>93.0</ele><time>2026-04-19T07:50:41Z</time></trkpt><trkpt lat="15.179625191187734" lon="120.60277717726599"><ele>93.0</ele><time>2026-04-19T07:50:42Z</time></trkpt><trkpt lat="15.179597484179304" lon="120.60285838353633"><ele>93.0</ele><time>2026-04-19T07:50:43Z</time></trkpt><trkpt lat="15.17957140955842" lon="120.60294093175526"><ele>93.0</ele><time>2026-04-19T07:50:44Z</time></trkpt><trkpt lat="15.179547478764787" lon="120.60302093323943"><ele>93.0</ele><time>2026-04-19T07:50:45Z</time></trkpt><trkpt lat="15.179521060049327" lon="120.60310099993258"><ele>92.33333333333333</ele><time>2026-04-19T07:50:46Z</time></trkpt><trkpt lat="15.179493385550572" lon="120.60318085718538"><ele>91.66666666666667</ele><time>2026-04-19T07:50:47Z</time></trkpt><trkpt lat="15.179462671341836" lon="120.60326109130006"><ele>91.0</ele><time>2026-04-19T07:50:48Z</time></trkpt><trkpt lat="15.179428688800378" lon="120.60334101489144"><ele>90.33333333333334</ele><time>2026-04-19T07:50:49Z</time></trkpt><trkpt lat="15.179392043684567" lon="120.60341843452008"><ele>89.66666666666667</ele><time>2026-04-19T07:50:50Z</time></trkpt><trkpt lat="15.179357751491539" lon="120.60348397541512"><ele>89.0</ele><time>2026-04-19T07:50:51Z</time></trkpt><trkpt lat="15.179325526369274" lon="120.6035435625465"><ele>89.0</ele><time>2026-04-19T07:50:52Z</time></trkpt><trkpt lat="15.179267428276653" lon="120.60364522699524"><ele>89.0</ele><time>2026-04-19T07:50:54Z</time></trkpt><trkpt lat="15.1792192086625" lon="120.60371774282666"><ele>89.0</ele><time>2026-04-19T07:50:56Z</time></trkpt><trkpt lat="15.179167493511065" lon="120.60377125855467"><ele>89.0</ele><time>2026-04-19T07:51:00Z</time></trkpt><trkpt lat="15.179110108752495" lon="120.60381710607031"><ele>89.0</ele><time>2026-04-19T07:51:04Z</time></trkpt><trkpt lat="15.1790594148188" lon="120.6038842109808"><ele>89.0</ele><time>2026-04-19T07:51:17Z</time></trkpt><trkpt lat="15.178988277434957" lon="120.60391485179011"><ele>89.2</ele><time>2026-04-19T07:51:18Z</time></trkpt><trkpt lat="15.17891074587531" lon="120.60397139226308"><ele>89.4</ele><time>2026-04-19T07:51:19Z</time></trkpt><trkpt lat="15.17883289796315" lon="120.60402751966335"><ele>89.6</ele><time>2026-04-19T07:51:20Z</time></trkpt><trkpt lat="15.178755148914297" lon="120.60408462371971"><ele>89.8</ele><time>2026-04-19T07:51:21Z</time></trkpt><trkpt lat="15.178676725593283" lon="120.60413775869043"><ele>90.0</ele><time>2026-04-19T07:51:22Z</time></trkpt><trkpt lat="15.178597003611923" lon="120.60420558511827"><ele>90.0</ele><time>2026-04-19T07:51:23Z</time></trkpt><trkpt lat="15.178510054829044" lon="120.60427441297068"><ele>90.0</ele><time>2026-04-19T07:51:24Z</time></trkpt><trkpt lat="15.178417585183357" lon="120.60434786024261"><ele>90.0</ele><time>2026-04-19T07:51:25Z</time></trkpt><trkpt lat="15.17831414418809" lon="120.60440950763456"><ele>90.0</ele><time>2026-04-19T07:51:26Z</time></trkpt><trkpt lat="15.178204451436843" lon="120.60447633699383"><ele>90.25</ele><time>2026-04-19T07:51:27Z</time></trkpt><trkpt lat="15.178086503389034" lon="120.60454160386018"><ele>90.5</ele><time>2026-04-19T07:51:28Z</time></trkpt><trkpt lat="15.177960320182379" lon="120.60460539175598"><ele>90.75</ele><time>2026-04-19T07:51:29Z</time></trkpt><trkpt lat="15.177829158014289" lon="120.60467097437653"><ele>91.0</ele><time>2026-04-19T07:51:30Z</time></trkpt><trkpt lat="15.177693454984992" lon="120.60473814761254"><ele>91.0</ele><time>2026-04-19T07:51:31Z</time></trkpt><trkpt lat="15.17755545277759" lon="120.60481081067974"><ele>91.0</ele><time>2026-04-19T07:51:32Z</time></trkpt><trkpt lat="15.177413311171103" lon="120.60488960238881"><ele>91.0</ele><time>2026-04-19T07:51:33Z</time></trkpt><trkpt lat="15.177265157341502" lon="120.6049689831926"><ele>91.33333333333333</ele><time>2026-04-19T07:51:34Z</time></trkpt><trkpt lat="15.177112755318412" lon="120.6050510749241"><ele>91.66666666666667</ele><time>2026-04-19T07:51:35Z</time></trkpt><trkpt lat="15.176957855753269" lon="120.60513576406179"><ele>92.0</ele><time>2026-04-19T07:51:36Z</time></trkpt><trkpt lat="15.176799590656655" lon="120.60521961485567"><ele>92.0</ele><time>2026-04-19T07:51:37Z</time></trkpt><trkpt lat="15.176638455998493" lon="120.60530453129554"><ele>92.0</ele><time>2026-04-19T07:51:38Z</time></trkpt><trkpt lat="15.176474083259052" lon="120.6053909507596"><ele>92.0</ele><time>2026-04-19T07:51:39Z</time></trkpt><trkpt lat="15.17631055025709" lon="120.60547699047763"><ele>90.66666666666667</ele><time>2026-04-19T07:51:40Z</time></trkpt><trkpt lat="15.176149313642565" lon="120.60556137657053"><ele>89.33333333333333</ele><time>2026-04-19T07:51:41Z</time></trkpt><trkpt lat="15.175989107051814" lon="120.60564615824663"><ele>88.0</ele><time>2026-04-19T07:51:42Z</time></trkpt><trkpt lat="15.175828453130036" lon="120.60573260776532"><ele>87.33333333333333</ele><time>2026-04-19T07:51:43Z</time></trkpt><trkpt lat="15.17566594039681" lon="120.60582014581807"><ele>86.66666666666667</ele><time>2026-04-19T07:51:44Z</time></trkpt><trkpt lat="15.175502846689296" lon="120.60590653427062"><ele>86.0</ele><time>2026-04-19T07:51:45Z</time></trkpt><trkpt lat="15.17534105124361" lon="120.60599220961203"><ele>86.0</ele><time>2026-04-19T07:51:46Z</time></trkpt><trkpt lat="15.175181620150907" lon="120.60607727719004"><ele>86.0</ele><time>2026-04-19T07:51:47Z</time></trkpt><trkpt lat="15.175022720769174" lon="120.60616264903805"><ele>86.0</ele><time>2026-04-19T07:51:48Z</time></trkpt><trkpt lat="15.174862911339824" lon="120.60624740035456"><ele>85.33333333333334</ele><time>2026-04-19T07:51:49Z</time></trkpt><trkpt lat="15.17470385770214" lon="120.60633154474961"><ele>84.66666666666667</ele><time>2026-04-19T07:51:50Z</time></trkpt><trkpt lat="15.174548777635232" lon="120.60641483204078"><ele>84.0</ele><time>2026-04-19T07:51:51Z</time></trkpt><trkpt lat="15.174397031291367" lon="120.60649581714112"><ele>84.0</ele><time>2026-04-19T07:51:52Z</time></trkpt><trkpt lat="15.174244080099665" lon="120.606575311653"><ele>84.0</ele><time>2026-04-19T07:51:53Z</time></trkpt><trkpt lat="15.174094537757496" lon="120.60665476859857"><ele>84.0</ele><time>2026-04-19T07:51:54Z</time></trkpt><trkpt lat="15.173950294865486" lon="120.6067321817198"><ele>84.66666666666667</ele><time>2026-04-19T07:51:55Z</time></trkpt><trkpt lat="15.173804477133189" lon="120.60681208778323"><ele>85.33333333333334</ele><time>2026-04-19T07:51:56Z</time></trkpt><trkpt lat="15.173657849858083" lon="120.60689054271549"><ele>86.0</ele><time>2026-04-19T07:51:57Z</time></trkpt><trkpt lat="15.173507894161087" lon="120.60696767662817"><ele>85.66666666666667</ele><time>2026-04-19T07:51:58Z</time></trkpt><trkpt lat="15.173359337722507" lon="120.60705086073756"><ele>85.33333333333333</ele><time>2026-04-19T07:51:59Z</time></trkpt><trkpt lat="15.173209886241844" lon="120.60713113116245"><ele>85.0</ele><time>2026-04-19T07:52:00Z</time></trkpt><trkpt lat="15.173058466370442" lon="120.60721032495508"><ele>86.0</ele><time>2026-04-19T07:52:01Z</time></trkpt><trkpt lat="15.172902768524832" lon="120.60728800962619"><ele>87.0</ele><time>2026-04-19T07:52:02Z</time></trkpt><trkpt lat="15.172741520701313" lon="120.60736162162138"><ele>88.0</ele><time>2026-04-19T07:52:03Z</time></trkpt><trkpt lat="15.172580237420274" lon="120.60742931582259"><ele>88.0</ele><time>2026-04-19T07:52:04Z</time></trkpt><trkpt lat="15.172419502188378" lon="120.6074905605919"><ele>88.0</ele><time>2026-04-19T07:52:05Z</time></trkpt><trkpt lat="15.17225997633472" lon="120.60754794739589"><ele>88.0</ele><time>2026-04-19T07:52:06Z</time></trkpt><trkpt lat="15.172101559618534" lon="120.60760658757512"><ele>87.0</ele><time>2026-04-19T07:52:07Z</time></trkpt><trkpt lat="15.171945090993702" lon="120.60766843814878"><ele>86.0</ele><time>2026-04-19T07:52:08Z</time></trkpt><trkpt lat="15.171790087536468" lon="120.60773540344009"><ele>85.0</ele><time>2026-04-19T07:52:09Z</time></trkpt><trkpt lat="15.171635407461283" lon="120.60781016741926"><ele>85.0</ele><time>2026-04-19T07:52:10Z</time></trkpt><trkpt lat="15.171482597366031" lon="120.60789171557339"><ele>85.0</ele><time>2026-04-19T07:52:11Z</time></trkpt><trkpt lat="15.17132873731071" lon="120.60797814674257"><ele>85.0</ele><time>2026-04-19T07:52:12Z</time></trkpt><trkpt lat="15.171174640417366" lon="120.60806793129424"><ele>85.0</ele><time>2026-04-19T07:52:13Z</time></trkpt><trkpt lat="15.171019820302538" lon="120.60815994994736"><ele>85.0</ele><time>2026-04-19T07:52:14Z</time></trkpt><trkpt lat="15.170862422137002" lon="120.60825206363012"><ele>85.0</ele><time>2026-04-19T07:52:15Z</time></trkpt><trkpt lat="15.170706328594767" lon="120.60834898262974"><ele>85.33333333333333</ele><time>2026-04-19T07:52:16Z</time></trkpt><trkpt lat="15.170547727504214" lon="120.60844512498589"><ele>85.66666666666667</ele><time>2026-04-19T07:52:17Z</time></trkpt><trkpt lat="15.170386255259386" lon="120.60854335011369"><ele>86.0</ele><time>2026-04-19T07:52:18Z</time></trkpt><trkpt lat="15.170225537137075" lon="120.6086431895643"><ele>86.0</ele><time>2026-04-19T07:52:19Z</time></trkpt><trkpt lat="15.17006586553092" lon="120.60874693671722"><ele>86.0</ele><time>2026-04-19T07:52:20Z</time></trkpt><trkpt lat="15.169909912151265" lon="120.6088576395686"><ele>86.0</ele><time>2026-04-19T07:52:21Z</time></trkpt><trkpt lat="15.16975652817076" lon="120.60897566993715"><ele>84.66666666666667</ele><time>2026-04-19T07:52:22Z</time></trkpt><trkpt lat="15.169604575637244" lon="120.60910012746575"><ele>83.33333333333333</ele><time>2026-04-19T07:52:23Z</time></trkpt><trkpt lat="15.169454742193528" lon="120.60922596588564"><ele>82.0</ele><time>2026-04-19T07:52:24Z</time></trkpt><trkpt lat="15.169298783584894" lon="120.60935154150921"><ele>82.0</ele><time>2026-04-19T07:52:25Z</time></trkpt><trkpt lat="15.169138793534426" lon="120.60947508650845"><ele>82.0</ele><time>2026-04-19T07:52:26Z</time></trkpt><trkpt lat="15.168973577441895" lon="120.60959024048813"><ele>82.0</ele><time>2026-04-19T07:52:27Z</time></trkpt><trkpt lat="15.168802486528277" lon="120.60970341346165"><ele>81.0</ele><time>2026-04-19T07:52:28Z</time></trkpt><trkpt lat="15.168627550437321" lon="120.60981250753483"><ele>80.0</ele><time>2026-04-19T07:52:29Z</time></trkpt><trkpt lat="15.168452597579016" lon="120.60991842962198"><ele>79.0</ele><time>2026-04-19T07:52:30Z</time></trkpt><trkpt lat="15.168277190695287" lon="120.61002423816622"><ele>79.0</ele><time>2026-04-19T07:52:31Z</time></trkpt><trkpt lat="15.168100094601703" lon="120.6101319927223"><ele>79.0</ele><time>2026-04-19T07:52:32Z</time></trkpt><trkpt lat="15.16792157468578" lon="120.61024101363819"><ele>79.0</ele><time>2026-04-19T07:52:33Z</time></trkpt><trkpt lat="15.167743316957784" lon="120.61035066893446"><ele>79.0</ele><time>2026-04-19T07:52:34Z</time></trkpt><trkpt lat="15.167568624213667" lon="120.61045842341971"><ele>79.0</ele><time>2026-04-19T07:52:35Z</time></trkpt><trkpt lat="15.167394023289328" lon="120.61056767407553"><ele>79.0</ele><time>2026-04-19T07:52:36Z</time></trkpt><trkpt lat="15.167219016133927" lon="120.61067697023398"><ele>78.66666666666666</ele><time>2026-04-19T07:52:37Z</time></trkpt><trkpt lat="15.167045312698717" lon="120.61078516154704"><ele>78.33333333333333</ele><time>2026-04-19T07:52:38Z</time></trkpt><trkpt lat="15.166871838720223" lon="120.61089403119168"><ele>78.0</ele><time>2026-04-19T07:52:39Z</time></trkpt><trkpt lat="15.166698600045054" lon="120.61100340011762"><ele>78.0</ele><time>2026-04-19T07:52:40Z</time></trkpt><trkpt lat="15.166528117994062" lon="120.61111268967173"><ele>78.0</ele><time>2026-04-19T07:52:41Z</time></trkpt><trkpt lat="15.166358840702722" lon="120.61122091871374"><ele>78.0</ele><time>2026-04-19T07:52:42Z</time></trkpt><trkpt lat="15.166189852523802" lon="120.61132908368232"><ele>78.0</ele><time>2026-04-19T07:52:43Z</time></trkpt><trkpt lat="15.1660190681566" lon="120.61143863075388"><ele>78.0</ele><time>2026-04-19T07:52:44Z</time></trkpt><trkpt lat="15.165847010871357" lon="120.61154792417366"><ele>78.0</ele><time>2026-04-19T07:52:45Z</time></trkpt><trkpt lat="15.165673459408145" lon="120.61165785086393"><ele>78.0</ele><time>2026-04-19T07:52:46Z</time></trkpt><trkpt lat="15.16550008171603" lon="120.61176670888852"><ele>78.0</ele><time>2026-04-19T07:52:47Z</time></trkpt><trkpt lat="15.165325764758563" lon="120.611876863723"><ele>78.0</ele><time>2026-04-19T07:52:48Z</time></trkpt><trkpt lat="15.165150410479031" lon="120.61198918886817"><ele>78.33333333333333</ele><time>2026-04-19T07:52:49Z</time></trkpt><trkpt lat="15.16497486036018" lon="120.61210225828086"><ele>78.66666666666666</ele><time>2026-04-19T07:52:50Z</time></trkpt><trkpt lat="15.16479809750236" lon="120.61221734847662"><ele>79.0</ele><time>2026-04-19T07:52:51Z</time></trkpt><trkpt lat="15.164620154288228" lon="120.6123337988826"><ele>79.0</ele><time>2026-04-19T07:52:52Z</time></trkpt><trkpt lat="15.164441041084919" lon="120.61245196069481"><ele>79.0</ele><time>2026-04-19T07:52:53Z</time></trkpt><trkpt lat="15.16426008933719" lon="120.61257183890612"><ele>79.0</ele><time>2026-04-19T07:52:54Z</time></trkpt><trkpt lat="15.164075147685057" lon="120.61269503044923"><ele>78.66666666666666</ele><time>2026-04-19T07:52:55Z</time></trkpt><trkpt lat="15.163889629994209" lon="120.61281677459493"><ele>78.33333333333333</ele><time>2026-04-19T07:52:56Z</time></trkpt><trkpt lat="15.16370183201289" lon="120.61294034420548"><ele>78.0</ele><time>2026-04-19T07:52:57Z</time></trkpt><trkpt lat="15.16351241357496" lon="120.61306619640862"><ele>78.0</ele><time>2026-04-19T07:52:58Z</time></trkpt><trkpt lat="15.163322698896314" lon="120.61319455675458"><ele>78.0</ele><time>2026-04-19T07:52:59Z</time></trkpt><trkpt lat="15.163131497362373" lon="120.61332419628846"><ele>77.5</ele><time>2026-04-19T07:53:00Z</time></trkpt><trkpt lat="15.162940940310637" lon="120.61345410055978"><ele>77.0</ele><time>2026-04-19T07:53:01Z</time></trkpt><trkpt lat="15.162744982685837" lon="120.61358687008247"><ele>76.5</ele><time>2026-04-19T07:53:02Z</time></trkpt><trkpt lat="15.162548254749577" lon="120.61371961649165"><ele>76.0</ele><time>2026-04-19T07:53:03Z</time></trkpt><trkpt lat="15.162351390013573" lon="120.61385281899923"><ele>76.0</ele><time>2026-04-19T07:53:04Z</time></trkpt><trkpt lat="15.162155870647512" lon="120.61398517703358"><ele>76.0</ele><time>2026-04-19T07:53:05Z</time></trkpt><trkpt lat="15.161962280491224" lon="120.61411694219782"><ele>76.0</ele><time>2026-04-19T07:53:06Z</time></trkpt><trkpt lat="15.161770534707442" lon="120.61424813176345"><ele>76.0</ele><time>2026-04-19T07:53:07Z</time></trkpt><trkpt lat="15.161582420990559" lon="120.6143780573424"><ele>77.0</ele><time>2026-04-19T07:53:08Z</time></trkpt><trkpt lat="15.161394529254466" lon="120.61450909728107"><ele>78.0</ele><time>2026-04-19T07:53:09Z</time></trkpt><trkpt lat="15.161207926911354" lon="120.61464053268332"><ele>78.0</ele><time>2026-04-19T07:53:10Z</time></trkpt><trkpt lat="15.161022044585566" lon="120.61477076282307"><ele>78.0</ele><time>2026-04-19T07:53:11Z</time></trkpt><trkpt lat="15.160836574011826" lon="120.6149017884153"><ele>78.0</ele><time>2026-04-19T07:53:12Z</time></trkpt><trkpt lat="15.16065123725327" lon="120.6150319014395"><ele>77.66666666666667</ele><time>2026-04-19T07:53:13Z</time></trkpt><trkpt lat="15.160466799708527" lon="120.61516234365259"><ele>77.33333333333334</ele><time>2026-04-19T07:53:14Z</time></trkpt><trkpt lat="15.160283109212273" lon="120.6152937455148"><ele>77.0</ele><time>2026-04-19T07:53:15Z</time></trkpt><trkpt lat="15.16009975820438" lon="120.61542584450717"><ele>77.0</ele><time>2026-04-19T07:53:16Z</time></trkpt><trkpt lat="15.159916013877355" lon="120.61555835207785"><ele>77.0</ele><time>2026-04-19T07:53:17Z</time></trkpt><trkpt lat="15.15973269133343" lon="120.61569097475659"><ele>77.0</ele><time>2026-04-19T07:53:18Z</time></trkpt><trkpt lat="15.15954906661007" lon="120.6158235773421"><ele>76.66666666666667</ele><time>2026-04-19T07:53:19Z</time></trkpt><trkpt lat="15.159365523431442" lon="120.61595503384198"><ele>76.33333333333333</ele><time>2026-04-19T07:53:20Z</time></trkpt><trkpt lat="15.159180861801357" lon="120.61608851077068"><ele>76.0</ele><time>2026-04-19T07:53:21Z</time></trkpt><trkpt lat="15.158995081130016" lon="120.61622346629322"><ele>76.0</ele><time>2026-04-19T07:53:22Z</time></trkpt><trkpt lat="15.158808472831067" lon="120.61635893096276"><ele>76.0</ele><time>2026-04-19T07:53:23Z</time></trkpt><trkpt lat="15.15862110727698" lon="120.61649475684715"><ele>76.0</ele><time>2026-04-19T07:53:24Z</time></trkpt><trkpt lat="15.158432331152259" lon="120.61663190659917"><ele>76.0</ele><time>2026-04-19T07:53:25Z</time></trkpt><trkpt lat="15.15824412275601" lon="120.61677006810197"><ele>75.5</ele><time>2026-04-19T07:53:26Z</time></trkpt><trkpt lat="15.15805444091883" lon="120.6169104937577"><ele>75.0</ele><time>2026-04-19T07:53:27Z</time></trkpt><trkpt lat="15.1578642671611" lon="120.61705219930434"><ele>74.0</ele><time>2026-04-19T07:53:28Z</time></trkpt><trkpt lat="15.157672163627456" lon="120.61719569993984"><ele>73.0</ele><time>2026-04-19T07:53:29Z</time></trkpt><trkpt lat="15.15747943886325" lon="120.6173393941655"><ele>74.5</ele><time>2026-04-19T07:53:30Z</time></trkpt><trkpt lat="15.157285513647187" lon="120.61748469572532"><ele>76.0</ele><time>2026-04-19T07:53:31Z</time></trkpt><trkpt lat="15.157092231233522" lon="120.61763115752028"><ele>76.0</ele><time>2026-04-19T07:53:32Z</time></trkpt><trkpt lat="15.156899092923506" lon="120.61777763157752"><ele>76.0</ele><time>2026-04-19T07:53:33Z</time></trkpt><trkpt lat="15.156704280681998" lon="120.61792406353426"><ele>75.5</ele><time>2026-04-19T07:53:34Z</time></trkpt><trkpt lat="15.156508955596745" lon="120.61807101575401"><ele>75.0</ele><time>2026-04-19T07:53:35Z</time></trkpt><trkpt lat="15.156313458387876" lon="120.61821782788526"><ele>75.0</ele><time>2026-04-19T07:53:36Z</time></trkpt><trkpt lat="15.156117202738248" lon="120.61836581321027"><ele>75.0</ele><time>2026-04-19T07:53:37Z</time></trkpt><trkpt lat="15.155922864003188" lon="120.61851332958042"><ele>74.0</ele><time>2026-04-19T07:53:38Z</time></trkpt><trkpt lat="15.15572995811937" lon="120.61866035404962"><ele>73.0</ele><time>2026-04-19T07:53:39Z</time></trkpt><trkpt lat="15.155541292567145" lon="120.6188041352374"><ele>73.0</ele><time>2026-04-19T07:53:40Z</time></trkpt><trkpt lat="15.155353227809636" lon="120.61894858555888"><ele>73.0</ele><time>2026-04-19T07:53:41Z</time></trkpt><trkpt lat="15.155169708398565" lon="120.61909002007995"><ele>73.0</ele><time>2026-04-19T07:53:42Z</time></trkpt><trkpt lat="15.15499100435689" lon="120.6192289634145"><ele>73.0</ele><time>2026-04-19T07:53:43Z</time></trkpt><trkpt lat="15.154815977023494" lon="120.61936349866673"><ele>73.0</ele><time>2026-04-19T07:53:44Z</time></trkpt><trkpt lat="15.154641442816517" lon="120.61949747307865"><ele>72.33333333333333</ele><time>2026-04-19T07:53:45Z</time></trkpt><trkpt lat="15.154467079682389" lon="120.6196291123789"><ele>71.66666666666667</ele><time>2026-04-19T07:53:46Z</time></trkpt><trkpt lat="15.154293057387088" lon="120.61976018299902"><ele>71.0</ele><time>2026-04-19T07:53:47Z</time></trkpt><trkpt lat="15.154119055499608" lon="120.61989596665076"><ele>71.0</ele><time>2026-04-19T07:53:48Z</time></trkpt><trkpt lat="15.153945144497415" lon="120.62003416844519"><ele>71.0</ele><time>2026-04-19T07:53:49Z</time></trkpt><trkpt lat="15.153772298390239" lon="120.62017568705285"><ele>71.0</ele><time>2026-04-19T07:53:50Z</time></trkpt><trkpt lat="15.153599869094194" lon="120.62032037177246"><ele>71.0</ele><time>2026-04-19T07:53:51Z</time></trkpt><trkpt lat="15.15342727086237" lon="120.62046557380111"><ele>71.0</ele><time>2026-04-19T07:53:52Z</time></trkpt><trkpt lat="15.153254403108749" lon="120.62061072693113"><ele>71.0</ele><time>2026-04-19T07:53:53Z</time></trkpt><trkpt lat="15.15307968469154" lon="120.62075637478053"><ele>70.33333333333334</ele><time>2026-04-19T07:53:54Z</time></trkpt><trkpt lat="15.152905397096534" lon="120.62089987468772"><ele>69.66666666666667</ele><time>2026-04-19T07:53:55Z</time></trkpt><trkpt lat="15.15273072551369" lon="120.62104290279757"><ele>69.0</ele><time>2026-04-19T07:53:56Z</time></trkpt><trkpt lat="15.15255490512081" lon="120.62118605443129"><ele>69.0</ele><time>2026-04-19T07:53:57Z</time></trkpt><trkpt lat="15.152380693832384" lon="120.62132734289052"><ele>69.0</ele><time>2026-04-19T07:53:58Z</time></trkpt><trkpt lat="15.152209478375593" lon="120.6214668415669"><ele>69.0</ele><time>2026-04-19T07:53:59Z</time></trkpt><trkpt lat="15.152041775131668" lon="120.62160600204398"><ele>68.66666666666667</ele><time>2026-04-19T07:54:00Z</time></trkpt><trkpt lat="15.151876347597542" lon="120.6217436714026"><ele>68.33333333333334</ele><time>2026-04-19T07:54:01Z</time></trkpt><trkpt lat="15.151712502074675" lon="120.62188006801706"><ele>68.0</ele><time>2026-04-19T07:54:02Z</time></trkpt><trkpt lat="15.151549602406336" lon="120.62201732167483"><ele>68.33333333333334</ele><time>2026-04-19T07:54:03Z</time></trkpt><trkpt lat="15.151384859274776" lon="120.62215468283199"><ele>68.66666666666667</ele><time>2026-04-19T07:54:04Z</time></trkpt><trkpt lat="15.1512208146929" lon="120.62229345150507"><ele>69.0</ele><time>2026-04-19T07:54:05Z</time></trkpt><trkpt lat="15.151056652305455" lon="120.62243249029136"><ele>69.0</ele><time>2026-04-19T07:54:06Z</time></trkpt><trkpt lat="15.150893502855176" lon="120.62257033390604"><ele>69.0</ele><time>2026-04-19T07:54:07Z</time></trkpt><trkpt lat="15.150731806042971" lon="120.62270963486091"><ele>69.0</ele><time>2026-04-19T07:54:08Z</time></trkpt><trkpt lat="15.150568928573701" lon="120.62285062265885"><ele>67.66666666666667</ele><time>2026-04-19T07:54:09Z</time></trkpt><trkpt lat="15.15040454660614" lon="120.62299206191179"><ele>66.33333333333334</ele><time>2026-04-19T07:54:10Z</time></trkpt><trkpt lat="15.150238574794631" lon="120.62313502315065"><ele>65.0</ele><time>2026-04-19T07:54:11Z</time></trkpt><trkpt lat="15.150069987118714" lon="120.62327961482714"><ele>65.0</ele><time>2026-04-19T07:54:12Z</time></trkpt><trkpt lat="15.14990188339749" lon="120.62342453785918"><ele>65.0</ele><time>2026-04-19T07:54:13Z</time></trkpt><trkpt lat="15.149735489779811" lon="120.62357196462824"><ele>65.0</ele><time>2026-04-19T07:54:14Z</time></trkpt><trkpt lat="15.14956696151778" lon="120.62372091964981"><ele>63.0</ele><time>2026-04-19T07:54:15Z</time></trkpt><trkpt lat="15.149396540151006" lon="120.62387131052078"><ele>61.0</ele><time>2026-04-19T07:54:16Z</time></trkpt><trkpt lat="15.14922550615305" lon="120.62402156268239"><ele>59.0</ele><time>2026-04-19T07:54:17Z</time></trkpt><trkpt lat="15.14905427010274" lon="120.62417236865538"><ele>60.5</ele><time>2026-04-19T07:54:18Z</time></trkpt><trkpt lat="15.148881902432786" lon="120.62432399831339"><ele>62.0</ele><time>2026-04-19T07:54:19Z</time></trkpt><trkpt lat="15.148709499119589" lon="120.62447573964289"><ele>62.0</ele><time>2026-04-19T07:54:20Z</time></trkpt><trkpt lat="15.148536697545888" lon="120.6246286994635"><ele>62.0</ele><time>2026-04-19T07:54:21Z</time></trkpt><trkpt lat="15.148363876953658" lon="120.6247816425801"><ele>64.5</ele><time>2026-04-19T07:54:22Z</time></trkpt><trkpt lat="15.148191904376862" lon="120.6249358700474"><ele>67.0</ele><time>2026-04-19T07:54:23Z</time></trkpt><trkpt lat="15.148021077701515" lon="120.62508904806276"><ele>67.0</ele><time>2026-04-19T07:54:24Z</time></trkpt><trkpt lat="15.147853228937308" lon="120.6252394714091"><ele>67.0</ele><time>2026-04-19T07:54:25Z</time></trkpt><trkpt lat="15.147686359950383" lon="120.62538844310596"><ele>67.0</ele><time>2026-04-19T07:54:26Z</time></trkpt><trkpt lat="15.147521094030154" lon="120.62553742192942"><ele>65.66666666666666</ele><time>2026-04-19T07:54:27Z</time></trkpt><trkpt lat="15.147355270858938" lon="120.62568713141894"><ele>64.33333333333333</ele><time>2026-04-19T07:54:28Z</time></trkpt><trkpt lat="15.14718948621699" lon="120.62583732300011"><ele>63.0</ele><time>2026-04-19T07:54:29Z</time></trkpt><trkpt lat="15.147023144023944" lon="120.62598890538106"><ele>63.0</ele><time>2026-04-19T07:54:30Z</time></trkpt><trkpt lat="15.146857109762584" lon="120.62614243905374"><ele>63.0</ele><time>2026-04-19T07:54:31Z</time></trkpt><trkpt lat="15.146691463528413" lon="120.626295597055"><ele>63.0</ele><time>2026-04-19T07:54:32Z</time></trkpt><trkpt lat="15.146525740371661" lon="120.62645005403685"><ele>62.33333333333333</ele><time>2026-04-19T07:54:33Z</time></trkpt><trkpt lat="15.146362058528231" lon="120.62660272285642"><ele>61.666666666666664</ele><time>2026-04-19T07:54:34Z</time></trkpt><trkpt lat="15.146200112215817" lon="120.62675448743083"><ele>61.0</ele><time>2026-04-19T07:54:35Z</time></trkpt><trkpt lat="15.146040416357001" lon="120.62690525353756"><ele>61.666666666666664</ele><time>2026-04-19T07:54:36Z</time></trkpt><trkpt lat="15.145880604520016" lon="120.6270553161629"><ele>62.33333333333333</ele><time>2026-04-19T07:54:37Z</time></trkpt><trkpt lat="15.14571961609289" lon="120.62720590624488"><ele>63.0</ele><time>2026-04-19T07:54:38Z</time></trkpt><trkpt lat="15.145558777641691" lon="120.6273581091586"><ele>63.0</ele><time>2026-04-19T07:54:39Z</time></trkpt><trkpt lat="15.145396569774158" lon="120.62751109024578"><ele>63.0</ele><time>2026-04-19T07:54:40Z</time></trkpt><trkpt lat="15.145233998703882" lon="120.62766498487665"><ele>63.0</ele><time>2026-04-19T07:54:41Z</time></trkpt><trkpt lat="15.145070144339345" lon="120.62782133873611"><ele>63.0</ele><time>2026-04-19T07:54:42Z</time></trkpt><trkpt lat="15.144906518596601" lon="120.62797980207752"><ele>63.0</ele><time>2026-04-19T07:54:43Z</time></trkpt><trkpt lat="15.144741665813383" lon="120.62813890923229"><ele>63.0</ele><time>2026-04-19T07:54:44Z</time></trkpt><trkpt lat="15.144578081412636" lon="120.6282963721648"><ele>63.0</ele><time>2026-04-19T07:54:45Z</time></trkpt><trkpt lat="15.144414346300373" lon="120.62845535324816"><ele>63.0</ele><time>2026-04-19T07:54:46Z</time></trkpt><trkpt lat="15.144249658680804" lon="120.62861392519436"><ele>63.0</ele><time>2026-04-19T07:54:47Z</time></trkpt><trkpt lat="15.144083697713596" lon="120.62877536019023"><ele>63.0</ele><time>2026-04-19T07:54:48Z</time></trkpt><trkpt lat="15.14391684891091" lon="120.62893745404952"><ele>63.0</ele><time>2026-04-19T07:54:49Z</time></trkpt><trkpt lat="15.143750898447529" lon="120.62910325258268"><ele>63.0</ele><time>2026-04-19T07:54:50Z</time></trkpt><trkpt lat="15.143583031160041" lon="120.62926908970094"><ele>63.0</ele><time>2026-04-19T07:54:51Z</time></trkpt><trkpt lat="15.14341660219394" lon="120.62943289323951"><ele>63.0</ele><time>2026-04-19T07:54:52Z</time></trkpt><trkpt lat="15.143250035633711" lon="120.62959630619913"><ele>63.0</ele><time>2026-04-19T07:54:53Z</time></trkpt><trkpt lat="15.143085216787403" lon="120.62975907438887"><ele>63.0</ele><time>2026-04-19T07:54:54Z</time></trkpt><trkpt lat="15.142921201502897" lon="120.62992080543575"><ele>63.0</ele><time>2026-04-19T07:54:55Z</time></trkpt><trkpt lat="15.14275662041751" lon="120.6300831841276"><ele>63.0</ele><time>2026-04-19T07:54:56Z</time></trkpt><trkpt lat="15.142593070496659" lon="120.63024620468764"><ele>63.0</ele><time>2026-04-19T07:54:57Z</time></trkpt><trkpt lat="15.142428989662172" lon="120.63040972960755"><ele>64.0</ele><time>2026-04-19T07:54:58Z</time></trkpt><trkpt lat="15.142266420910568" lon="120.63057339825433"><ele>65.0</ele><time>2026-04-19T07:54:59Z</time></trkpt><trkpt lat="15.142103017330449" lon="120.63073720746632"><ele>65.0</ele><time>2026-04-19T07:55:00Z</time></trkpt><trkpt lat="15.14194048012114" lon="120.63090224131567"><ele>65.0</ele><time>2026-04-19T07:55:01Z</time></trkpt><trkpt lat="15.141776189189343" lon="120.63106841249832"><ele>63.5</ele><time>2026-04-19T07:55:02Z</time></trkpt><trkpt lat="15.1416140970497" lon="120.63123577556755"><ele>62.0</ele><time>2026-04-19T07:55:03Z</time></trkpt><trkpt lat="15.141449420879049" lon="120.63140595350005"><ele>61.5</ele><time>2026-04-19T07:55:04Z</time></trkpt><trkpt lat="15.14128410280396" lon="120.63157677809446"><ele>61.0</ele><time>2026-04-19T07:55:05Z</time></trkpt><trkpt lat="15.141119831983033" lon="120.63174907705296"><ele>61.0</ele><time>2026-04-19T07:55:06Z</time></trkpt><trkpt lat="15.14095597334063" lon="120.63192132063267"><ele>61.0</ele><time>2026-04-19T07:55:07Z</time></trkpt><trkpt lat="15.140792555433105" lon="120.63209195112134"><ele>61.0</ele><time>2026-04-19T07:55:08Z</time></trkpt><trkpt lat="15.140630983803291" lon="120.63226050088528"><ele>61.0</ele><time>2026-04-19T07:55:09Z</time></trkpt><trkpt lat="15.140471797993152" lon="120.63242542142855"><ele>61.0</ele><time>2026-04-19T07:55:10Z</time></trkpt><trkpt lat="15.140312172018616" lon="120.63259225599056"><ele>61.0</ele><time>2026-04-19T07:55:11Z</time></trkpt><trkpt lat="15.140152361082068" lon="120.63275993418951"><ele>61.0</ele><time>2026-04-19T07:55:12Z</time></trkpt><trkpt lat="15.139992363591361" lon="120.6329284171196"><ele>61.0</ele><time>2026-04-19T07:55:13Z</time></trkpt><trkpt lat="15.139832371725907" lon="120.6330968428246"><ele>59.5</ele><time>2026-04-19T07:55:14Z</time></trkpt><trkpt lat="15.139673479571448" lon="120.63326565655079"><ele>58.0</ele><time>2026-04-19T07:55:15Z</time></trkpt><trkpt lat="15.139514171760299" lon="120.63343435477786"><ele>58.0</ele><time>2026-04-19T07:55:16Z</time></trkpt><trkpt lat="15.139356833765344" lon="120.63360240392078"><ele>58.0</ele><time>2026-04-19T07:55:17Z</time></trkpt><trkpt lat="15.139200065020011" lon="120.63377028363357"><ele>60.0</ele><time>2026-04-19T07:55:18Z</time></trkpt><trkpt lat="15.139043888447233" lon="120.63393846749727"><ele>62.0</ele><time>2026-04-19T07:55:19Z</time></trkpt><trkpt lat="15.138887029220825" lon="120.63410832760358"><ele>62.0</ele><time>2026-04-19T07:55:20Z</time></trkpt><trkpt lat="15.138729692106862" lon="120.63427875761815"><ele>62.0</ele><time>2026-04-19T07:55:21Z</time></trkpt><trkpt lat="15.13857403309813" lon="120.6344497871057"><ele>62.0</ele><time>2026-04-19T07:55:22Z</time></trkpt><trkpt lat="15.138418214612917" lon="120.63462147633435"><ele>62.0</ele><time>2026-04-19T07:55:23Z</time></trkpt><trkpt lat="15.138262049659954" lon="120.63479339300483"><ele>60.5</ele><time>2026-04-19T07:55:24Z</time></trkpt><trkpt lat="15.138105936710486" lon="120.63496660058433"><ele>59.0</ele><time>2026-04-19T07:55:25Z</time></trkpt><trkpt lat="15.137947648374155" lon="120.63514081816086"><ele>58.5</ele><time>2026-04-19T07:55:26Z</time></trkpt><trkpt lat="15.137789702285078" lon="120.63531660243764"><ele>58.0</ele><time>2026-04-19T07:55:27Z</time></trkpt><trkpt lat="15.137632624275058" lon="120.63549352000157"><ele>58.0</ele><time>2026-04-19T07:55:28Z</time></trkpt><trkpt lat="15.137472547114237" lon="120.63567189490028"><ele>58.0</ele><time>2026-04-19T07:55:29Z</time></trkpt><trkpt lat="15.137310981368886" lon="120.63585203165643"><ele>58.5</ele><time>2026-04-19T07:55:30Z</time></trkpt><trkpt lat="15.13714971628964" lon="120.63603248881374"><ele>59.0</ele><time>2026-04-19T07:55:31Z</time></trkpt><trkpt lat="15.13698972559989" lon="120.63621477073414"><ele>57.0</ele><time>2026-04-19T07:55:32Z</time></trkpt><trkpt lat="15.136829586713922" lon="120.63639754723035"><ele>55.0</ele><time>2026-04-19T07:55:33Z</time></trkpt><trkpt lat="15.136668038683013" lon="120.63658127668351"><ele>56.5</ele><time>2026-04-19T07:55:34Z</time></trkpt><trkpt lat="15.136506555931907" lon="120.63676442348448"><ele>58.0</ele><time>2026-04-19T07:55:35Z</time></trkpt><trkpt lat="15.13634382202263" lon="120.63694905951021"><ele>57.5</ele><time>2026-04-19T07:55:36Z</time></trkpt><trkpt lat="15.136179878906738" lon="120.63713404033116"><ele>57.0</ele><time>2026-04-19T07:55:37Z</time></trkpt><trkpt lat="15.136015430350787" lon="120.63731912558877"><ele>57.0</ele><time>2026-04-19T07:55:38Z</time></trkpt><trkpt lat="15.135850697441658" lon="120.63750451124555"><ele>57.0</ele><time>2026-04-19T07:55:39Z</time></trkpt><trkpt lat="15.135684693328328" lon="120.63769122025525"><ele>57.0</ele><time>2026-04-19T07:55:40Z</time></trkpt><trkpt lat="15.135517882571621" lon="120.63787868678166"><ele>57.0</ele><time>2026-04-19T07:55:41Z</time></trkpt><trkpt lat="15.135349977758368" lon="120.63806798869888"><ele>57.0</ele><time>2026-04-19T07:55:42Z</time></trkpt><trkpt lat="15.13518130635935" lon="120.63825807392325"><ele>57.0</ele><time>2026-04-19T07:55:43Z</time></trkpt><trkpt lat="15.135009366012378" lon="120.63844805917493"><ele>56.5</ele><time>2026-04-19T07:55:44Z</time></trkpt><trkpt lat="15.134837049049104" lon="120.63863869547785"><ele>56.0</ele><time>2026-04-19T07:55:45Z</time></trkpt><trkpt lat="15.134665910093771" lon="120.63882831808445"><ele>56.0</ele><time>2026-04-19T07:55:46Z</time></trkpt><trkpt lat="15.134494854084059" lon="120.63901696880737"><ele>56.0</ele><time>2026-04-19T07:55:47Z</time></trkpt><trkpt lat="15.134326032793433" lon="120.63920525958511"><ele>56.0</ele><time>2026-04-19T07:55:48Z</time></trkpt><trkpt lat="15.134156645723689" lon="120.63939336532583"><ele>56.0</ele><time>2026-04-19T07:55:49Z</time></trkpt><trkpt lat="15.133986319932804" lon="120.63958053286984"><ele>55.0</ele><time>2026-04-19T07:55:50Z</time></trkpt><trkpt lat="15.133813895277024" lon="120.63976619556405"><ele>54.0</ele><time>2026-04-19T07:55:51Z</time></trkpt><trkpt lat="15.133642761885229" lon="120.63995195825125"><ele>54.0</ele><time>2026-04-19T07:55:52Z</time></trkpt><trkpt lat="15.133470673876326" lon="120.64013428965258"><ele>54.0</ele><time>2026-04-19T07:55:53Z</time></trkpt><trkpt lat="15.133297954247722" lon="120.64031843439805"><ele>54.0</ele><time>2026-04-19T07:55:54Z</time></trkpt><trkpt lat="15.133123708208352" lon="120.64050188121674"><ele>54.0</ele><time>2026-04-19T07:55:55Z</time></trkpt><trkpt lat="15.132947904102421" lon="120.6406841184247"><ele>54.0</ele><time>2026-04-19T07:55:56Z</time></trkpt><trkpt lat="15.132772116093175" lon="120.6408651801055"><ele>54.0</ele><time>2026-04-19T07:55:57Z</time></trkpt><trkpt lat="15.132599298525502" lon="120.64104331906768"><ele>53.0</ele><time>2026-04-19T07:55:58Z</time></trkpt><trkpt lat="15.132429976229202" lon="120.64121726311515"><ele>52.0</ele><time>2026-04-19T07:55:59Z</time></trkpt><trkpt lat="15.132264990417037" lon="120.64138520003397"><ele>52.0</ele><time>2026-04-19T07:56:00Z</time></trkpt><trkpt lat="15.132106457175366" lon="120.64155013519334"><ele>52.0</ele><time>2026-04-19T07:56:01Z</time></trkpt><trkpt lat="15.131953871969154" lon="120.64170956865892"><ele>52.0</ele><time>2026-04-19T07:56:02Z</time></trkpt><trkpt lat="15.131804067260658" lon="120.64186369135355"><ele>51.666666666666664</ele><time>2026-04-19T07:56:03Z</time></trkpt><trkpt lat="15.131655638564638" lon="120.64201091890574"><ele>51.33333333333333</ele><time>2026-04-19T07:56:04Z</time></trkpt><trkpt lat="15.131510421353184" lon="120.64215846145713"><ele>51.0</ele><time>2026-04-19T07:56:05Z</time></trkpt><trkpt lat="15.131367758445945" lon="120.64230258334202"><ele>51.0</ele><time>2026-04-19T07:56:06Z</time></trkpt><trkpt lat="15.131226968499861" lon="120.64244253493666"><ele>51.0</ele><time>2026-04-19T07:56:07Z</time></trkpt><trkpt lat="15.131094203497321" lon="120.64257448364219"><ele>51.0</ele><time>2026-04-19T07:56:08Z</time></trkpt><trkpt lat="15.130969677534296" lon="120.64270493801597"><ele>50.66666666666667</ele><time>2026-04-19T07:56:09Z</time></trkpt><trkpt lat="15.130844521903892" lon="120.6428398003228"><ele>50.333333333333336</ele><time>2026-04-19T07:56:10Z</time></trkpt><trkpt lat="15.130714958040011" lon="120.64297557195822"><ele>50.0</ele><time>2026-04-19T07:56:11Z</time></trkpt><trkpt lat="15.130584293440418" lon="120.64311259271376"><ele>51.0</ele><time>2026-04-19T07:56:12Z</time></trkpt><trkpt lat="15.130450857640525" lon="120.64325123173892"><ele>52.0</ele><time>2026-04-19T07:56:13Z</time></trkpt><trkpt lat="15.130314782735596" lon="120.64339153790431"><ele>53.0</ele><time>2026-04-19T07:56:14Z</time></trkpt><trkpt lat="15.130176570715946" lon="120.6435338479967"><ele>53.0</ele><time>2026-04-19T07:56:15Z</time></trkpt><trkpt lat="15.130034295714365" lon="120.64367832102472"><ele>53.0</ele><time>2026-04-19T07:56:16Z</time></trkpt><trkpt lat="15.129891209707438" lon="120.64382468219904"><ele>53.0</ele><time>2026-04-19T07:56:17Z</time></trkpt><trkpt lat="15.129744783520552" lon="120.64397211951689"><ele>53.0</ele><time>2026-04-19T07:56:18Z</time></trkpt><trkpt lat="15.129596220617909" lon="120.64412097863165"><ele>53.0</ele><time>2026-04-19T07:56:19Z</time></trkpt><trkpt lat="15.129445640689873" lon="120.6442700163288"><ele>53.0</ele><time>2026-04-19T07:56:20Z</time></trkpt><trkpt lat="15.129294417925118" lon="120.64441912560834"><ele>52.0</ele><time>2026-04-19T07:56:21Z</time></trkpt><trkpt lat="15.129142426250302" lon="120.64456949347003"><ele>51.0</ele><time>2026-04-19T07:56:22Z</time></trkpt><trkpt lat="15.128989195033563" lon="120.64472064473323"><ele>50.0</ele><time>2026-04-19T07:56:23Z</time></trkpt><trkpt lat="15.128832308912198" lon="120.644873043888"><ele>49.66666666666667</ele><time>2026-04-19T07:56:24Z</time></trkpt><trkpt lat="15.128676943707784" lon="120.6450257065706"><ele>49.33333333333333</ele><time>2026-04-19T07:56:25Z</time></trkpt><trkpt lat="15.128521541878516" lon="120.64517670049158"><ele>49.0</ele><time>2026-04-19T07:56:26Z</time></trkpt><trkpt lat="15.128366674417247" lon="120.64532659403501"><ele>49.33333333333333</ele><time>2026-04-19T07:56:27Z</time></trkpt><trkpt lat="15.128212637249346" lon="120.64547533259388"><ele>49.66666666666667</ele><time>2026-04-19T07:56:28Z</time></trkpt><trkpt lat="15.128058039547152" lon="120.64562551359671"><ele>50.0</ele><time>2026-04-19T07:56:29Z</time></trkpt><trkpt lat="15.127906724730286" lon="120.64577199494282"><ele>50.0</ele><time>2026-04-19T07:56:30Z</time></trkpt><trkpt lat="15.127754274406378" lon="120.64591804133464"><ele>50.0</ele><time>2026-04-19T07:56:31Z</time></trkpt><trkpt lat="15.127601789174681" lon="120.64606624840727"><ele>50.0</ele><time>2026-04-19T07:56:32Z</time></trkpt><trkpt lat="15.127449597781988" lon="120.64621669455951"><ele>48.66666666666667</ele><time>2026-04-19T07:56:33Z</time></trkpt><trkpt lat="15.127294517957521" lon="120.6463707917454"><ele>47.333333333333336</ele><time>2026-04-19T07:56:34Z</time></trkpt><trkpt lat="15.127137409599866" lon="120.64652773404603"><ele>46.0</ele><time>2026-04-19T07:56:35Z</time></trkpt><trkpt lat="15.126978109790688" lon="120.646685464148"><ele>46.0</ele><time>2026-04-19T07:56:36Z</time></trkpt><trkpt lat="15.126817452992167" lon="120.64684152361988"><ele>46.0</ele><time>2026-04-19T07:56:37Z</time></trkpt><trkpt lat="15.126651945151131" lon="120.64700218498221"><ele>46.0</ele><time>2026-04-19T07:56:38Z</time></trkpt><trkpt lat="15.126481795320004" lon="120.6471657194452"><ele>47.0</ele><time>2026-04-19T07:56:39Z</time></trkpt><trkpt lat="15.126309580782623" lon="120.64732829889904"><ele>48.0</ele><time>2026-04-19T07:56:40Z</time></trkpt><trkpt lat="15.126135157488587" lon="120.64749310573868"><ele>48.0</ele><time>2026-04-19T07:56:41Z</time></trkpt><trkpt lat="15.125957850625893" lon="120.64765823441856"><ele>48.0</ele><time>2026-04-19T07:56:42Z</time></trkpt><trkpt lat="15.12577741112464" lon="120.64782270274466"><ele>49.0</ele><time>2026-04-19T07:56:43Z</time></trkpt><trkpt lat="15.125595531490028" lon="120.64799362866854"><ele>50.0</ele><time>2026-04-19T07:56:44Z</time></trkpt><trkpt lat="15.125401248207574" lon="120.64813446111799"><ele>50.0</ele><time>2026-04-19T07:56:45Z</time></trkpt><trkpt lat="15.125215190823804" lon="120.64830162286393"><ele>50.0</ele><time>2026-04-19T07:56:46Z</time></trkpt><trkpt lat="15.125032287568688" lon="120.64846626485455"><ele>49.5</ele><time>2026-04-19T07:56:47Z</time></trkpt><trkpt lat="15.124848836800584" lon="120.64861085832136"><ele>49.0</ele><time>2026-04-19T07:56:48Z</time></trkpt><trkpt lat="15.124662754575994" lon="120.64877642173165"><ele>49.0</ele><time>2026-04-19T07:56:49Z</time></trkpt><trkpt lat="15.124476521241132" lon="120.6489536821978"><ele>49.0</ele><time>2026-04-19T07:56:50Z</time></trkpt><trkpt lat="15.124291272972702" lon="120.64912547800655"><ele>49.0</ele><time>2026-04-19T07:56:51Z</time></trkpt><trkpt lat="15.124106239857749" lon="120.6492913033103"><ele>49.0</ele><time>2026-04-19T07:56:52Z</time></trkpt><trkpt lat="15.123920223328444" lon="120.64945641964238"><ele>49.0</ele><time>2026-04-19T07:56:53Z</time></trkpt><trkpt lat="15.123734820877639" lon="120.64962227629258"><ele>49.0</ele><time>2026-04-19T07:56:54Z</time></trkpt><trkpt lat="15.123550114357112" lon="120.64978556636879"><ele>49.0</ele><time>2026-04-19T07:56:55Z</time></trkpt><trkpt lat="15.123365812496797" lon="120.64994578496828"><ele>49.0</ele><time>2026-04-19T07:56:56Z</time></trkpt><trkpt lat="15.123181760371743" lon="120.65010580705977"><ele>48.5</ele><time>2026-04-19T07:56:57Z</time></trkpt><trkpt lat="15.122997893860695" lon="120.65026388645587"><ele>48.0</ele><time>2026-04-19T07:56:58Z</time></trkpt><trkpt lat="15.12281413887507" lon="120.65042246048515"><ele>47.5</ele><time>2026-04-19T07:56:59Z</time></trkpt><trkpt lat="15.122629382478461" lon="120.65057453316952"><ele>47.0</ele><time>2026-04-19T07:57:00Z</time></trkpt><trkpt lat="15.122448214845765" lon="120.65073129180215"><ele>46.5</ele><time>2026-04-19T07:57:01Z</time></trkpt><trkpt lat="15.122265574434046" lon="120.65088481288704"><ele>46.0</ele><time>2026-04-19T07:57:02Z</time></trkpt><trkpt lat="15.122082895457995" lon="120.65104203305734"><ele>45.5</ele><time>2026-04-19T07:57:03Z</time></trkpt><trkpt lat="15.121902721206569" lon="120.65119625431511"><ele>45.0</ele><time>2026-04-19T07:57:04Z</time></trkpt><trkpt lat="15.12172336622822" lon="120.65135005732405"><ele>44.5</ele><time>2026-04-19T07:57:05Z</time></trkpt><trkpt lat="15.121543394638094" lon="120.65150503084942"><ele>44.0</ele><time>2026-04-19T07:57:06Z</time></trkpt><trkpt lat="15.121363420645674" lon="120.65165878501676"><ele>44.0</ele><time>2026-04-19T07:57:07Z</time></trkpt><trkpt lat="15.12118297384079" lon="120.65181279898927"><ele>44.0</ele><time>2026-04-19T07:57:08Z</time></trkpt><trkpt lat="15.121002323228838" lon="120.65196604955617"><ele>44.5</ele><time>2026-04-19T07:57:09Z</time></trkpt><trkpt lat="15.120819203491344" lon="120.65211990812888"><ele>45.0</ele><time>2026-04-19T07:57:10Z</time></trkpt><trkpt lat="15.120638046555438" lon="120.65227130731918"><ele>45.5</ele><time>2026-04-19T07:57:11Z</time></trkpt><trkpt lat="15.120458743977537" lon="120.65242476612144"><ele>46.0</ele><time>2026-04-19T07:57:12Z</time></trkpt><trkpt lat="15.120278843200925" lon="120.65257504900849"><ele>46.0</ele><time>2026-04-19T07:57:13Z</time></trkpt><trkpt lat="15.120097745768204" lon="120.65272628832979"><ele>46.0</ele><time>2026-04-19T07:57:14Z</time></trkpt><trkpt lat="15.119916366423574" lon="120.65287436839161"><ele>46.0</ele><time>2026-04-19T07:57:15Z</time></trkpt><trkpt lat="15.119735046076638" lon="120.65302129503236"><ele>46.0</ele><time>2026-04-19T07:57:16Z</time></trkpt><trkpt lat="15.119553793814815" lon="120.65316632631972"><ele>46.0</ele><time>2026-04-19T07:57:17Z</time></trkpt><trkpt lat="15.119372782173865" lon="120.653314026835"><ele>46.0</ele><time>2026-04-19T07:57:18Z</time></trkpt><trkpt lat="15.119190628664699" lon="120.65346555829134"><ele>45.5</ele><time>2026-04-19T07:57:19Z</time></trkpt><trkpt lat="15.119008843431166" lon="120.65361614961695"><ele>45.0</ele><time>2026-04-19T07:57:20Z</time></trkpt><trkpt lat="15.118822927584047" lon="120.65376661747267"><ele>45.0</ele><time>2026-04-19T07:57:21Z</time></trkpt><trkpt lat="15.118634294264277" lon="120.653913956524"><ele>45.0</ele><time>2026-04-19T07:57:22Z</time></trkpt><trkpt lat="15.118445882279849" lon="120.65406344561262"><ele>45.0</ele><time>2026-04-19T07:57:23Z</time></trkpt><trkpt lat="15.118254649630249" lon="120.65421640912653"><ele>45.0</ele><time>2026-04-19T07:57:24Z</time></trkpt><trkpt lat="15.11806555143458" lon="120.65436734017771"><ele>43.0</ele><time>2026-04-19T07:57:25Z</time></trkpt><trkpt lat="15.11787810783263" lon="120.6545177230625"><ele>41.0</ele><time>2026-04-19T07:57:26Z</time></trkpt><trkpt lat="15.117689433266317" lon="120.65466741832397"><ele>41.0</ele><time>2026-04-19T07:57:27Z</time></trkpt><trkpt lat="15.117501220521191" lon="120.65481415148321"><ele>41.0</ele><time>2026-04-19T07:57:28Z</time></trkpt><trkpt lat="15.117313804402837" lon="120.65496145621401"><ele>42.0</ele><time>2026-04-19T07:57:29Z</time></trkpt><trkpt lat="15.11712855912505" lon="120.65510416045329"><ele>43.0</ele><time>2026-04-19T07:57:30Z</time></trkpt><trkpt lat="15.116943838250908" lon="120.65524791717502"><ele>43.0</ele><time>2026-04-19T07:57:31Z</time></trkpt><trkpt lat="15.116760092534376" lon="120.65538969168664"><ele>43.0</ele><time>2026-04-19T07:57:32Z</time></trkpt><trkpt lat="15.116576650643163" lon="120.65553048289955"><ele>42.5</ele><time>2026-04-19T07:57:33Z</time></trkpt><trkpt lat="15.116394031399322" lon="120.6556706093684"><ele>42.0</ele><time>2026-04-19T07:57:34Z</time></trkpt><trkpt lat="15.116211456477131" lon="120.6558107666008"><ele>42.0</ele><time>2026-04-19T07:57:35Z</time></trkpt><trkpt lat="15.116030306035995" lon="120.65595061479226"><ele>42.0</ele><time>2026-04-19T07:57:36Z</time></trkpt><trkpt lat="15.115850682829072" lon="120.65608638716051"><ele>42.0</ele><time>2026-04-19T07:57:37Z</time></trkpt><trkpt lat="15.11567189853063" lon="120.65622221701655"><ele>43.0</ele><time>2026-04-19T07:57:38Z</time></trkpt><trkpt lat="15.115496686969866" lon="120.65635667736339"><ele>44.0</ele><time>2026-04-19T07:57:39Z</time></trkpt><trkpt lat="15.115320476864596" lon="120.65649026011229"><ele>45.0</ele><time>2026-04-19T07:57:40Z</time></trkpt><trkpt lat="15.115143364935076" lon="120.65662005548653"><ele>45.0</ele><time>2026-04-19T07:57:41Z</time></trkpt><trkpt lat="15.114966554061278" lon="120.65675443278268"><ele>45.0</ele><time>2026-04-19T07:57:42Z</time></trkpt><trkpt lat="15.114790117722027" lon="120.65688746187898"><ele>45.0</ele><time>2026-04-19T07:57:43Z</time></trkpt><trkpt lat="15.114613615324654" lon="120.65702066530942"><ele>43.666666666666664</ele><time>2026-04-19T07:57:44Z</time></trkpt><trkpt lat="15.114437017883185" lon="120.6571533797809"><ele>42.33333333333333</ele><time>2026-04-19T07:57:45Z</time></trkpt><trkpt lat="15.114255211480708" lon="120.6572858052507"><ele>41.0</ele><time>2026-04-19T07:57:46Z</time></trkpt><trkpt lat="15.114074210383793" lon="120.65741770685749"><ele>41.666666666666664</ele><time>2026-04-19T07:57:47Z</time></trkpt><trkpt lat="15.113891655515815" lon="120.65754954407872"><ele>42.333333333333336</ele><time>2026-04-19T07:57:48Z</time></trkpt><trkpt lat="15.11370873285204" lon="120.65768105882705"><ele>43.0</ele><time>2026-04-19T07:57:49Z</time></trkpt><trkpt lat="15.113523680560702" lon="120.65781568327046"><ele>43.5</ele><time>2026-04-19T07:57:50Z</time></trkpt><trkpt lat="15.113339073283292" lon="120.6579492376822"><ele>44.0</ele><time>2026-04-19T07:57:51Z</time></trkpt><trkpt lat="15.113152827497055" lon="120.65808354928483"><ele>44.0</ele><time>2026-04-19T07:57:52Z</time></trkpt><trkpt lat="15.11296903737477" lon="120.65821465569601"><ele>44.0</ele><time>2026-04-19T07:57:53Z</time></trkpt><trkpt lat="15.112788018849843" lon="120.65834260122475"><ele>44.0</ele><time>2026-04-19T07:57:54Z</time></trkpt><trkpt lat="15.112610564917452" lon="120.65846741185226"><ele>44.0</ele><time>2026-04-19T07:57:55Z</time></trkpt><trkpt lat="15.112433778141039" lon="120.65858896161035"><ele>44.0</ele><time>2026-04-19T07:57:56Z</time></trkpt><trkpt lat="15.11225498872027" lon="120.65871183494221"><ele>44.0</ele><time>2026-04-19T07:57:57Z</time></trkpt><trkpt lat="15.112075237860155" lon="120.65883181907945"><ele>44.0</ele><time>2026-04-19T07:57:58Z</time></trkpt><trkpt lat="15.111893779400758" lon="120.65895471855728"><ele>44.0</ele><time>2026-04-19T07:57:59Z</time></trkpt><trkpt lat="15.11171360812203" lon="120.65907720910673"><ele>44.0</ele><time>2026-04-19T07:58:00Z</time></trkpt><trkpt lat="15.111535170062842" lon="120.65919882782838"><ele>44.0</ele><time>2026-04-19T07:58:01Z</time></trkpt><trkpt lat="15.111355994665816" lon="120.6593192869126"><ele>44.0</ele><time>2026-04-19T07:58:02Z</time></trkpt><trkpt lat="15.111179760285603" lon="120.65943824234897"><ele>44.0</ele><time>2026-04-19T07:58:03Z</time></trkpt><trkpt lat="15.111004433470281" lon="120.65955854183309"><ele>43.666666666666664</ele><time>2026-04-19T07:58:04Z</time></trkpt><trkpt lat="15.110830972365832" lon="120.65967820732232"><ele>43.333333333333336</ele><time>2026-04-19T07:58:05Z</time></trkpt><trkpt lat="15.110657852036667" lon="120.65979648153214"><ele>43.0</ele><time>2026-04-19T07:58:06Z</time></trkpt><trkpt lat="15.110489574611611" lon="120.65991284446412"><ele>43.66666666666667</ele><time>2026-04-19T07:58:07Z</time></trkpt><trkpt lat="15.110321427500494" lon="120.66002728626928"><ele>44.333333333333336</ele><time>2026-04-19T07:58:08Z</time></trkpt><trkpt lat="15.11015453939785" lon="120.6601409030647"><ele>45.0</ele><time>2026-04-19T07:58:09Z</time></trkpt><trkpt lat="15.109987721936482" lon="120.66025505788934"><ele>44.0</ele><time>2026-04-19T07:58:10Z</time></trkpt><trkpt lat="15.109821846916516" lon="120.66036575736436"><ele>43.0</ele><time>2026-04-19T07:58:11Z</time></trkpt><trkpt lat="15.109655930789858" lon="120.66047745256594"><ele>42.0</ele><time>2026-04-19T07:58:12Z</time></trkpt><trkpt lat="15.109491524367169" lon="120.66058708602915"><ele>42.0</ele><time>2026-04-19T07:58:13Z</time></trkpt><trkpt lat="15.109326696905368" lon="120.66069864921722"><ele>42.0</ele><time>2026-04-19T07:58:14Z</time></trkpt><trkpt lat="15.109162647143599" lon="120.66080892148116"><ele>42.0</ele><time>2026-04-19T07:58:15Z</time></trkpt><trkpt lat="15.108997728757986" lon="120.66092058792724"><ele>41.666666666666664</ele><time>2026-04-19T07:58:16Z</time></trkpt><trkpt lat="15.10882772903914" lon="120.66103079883305"><ele>41.33333333333333</ele><time>2026-04-19T07:58:17Z</time></trkpt><trkpt lat="15.108662181897886" lon="120.66114603683403"><ele>41.0</ele><time>2026-04-19T07:58:18Z</time></trkpt><trkpt lat="15.108493806279405" lon="120.6612584910224"><ele>40.33333333333333</ele><time>2026-04-19T07:58:19Z</time></trkpt><trkpt lat="15.108326979812162" lon="120.66137063040858"><ele>39.666666666666664</ele><time>2026-04-19T07:58:20Z</time></trkpt><trkpt lat="15.108162466985519" lon="120.66148024991467"><ele>39.0</ele><time>2026-04-19T07:58:21Z</time></trkpt><trkpt lat="15.1079985834721" lon="120.6615852751828"><ele>38.666666666666664</ele><time>2026-04-19T07:58:22Z</time></trkpt><trkpt lat="15.107827282251748" lon="120.66169688689025"><ele>38.33333333333333</ele><time>2026-04-19T07:58:23Z</time></trkpt><trkpt lat="15.107658083611016" lon="120.66180761943187"><ele>38.0</ele><time>2026-04-19T07:58:24Z</time></trkpt><trkpt lat="15.107488424058785" lon="120.66191630646892"><ele>38.33333333333333</ele><time>2026-04-19T07:58:25Z</time></trkpt><trkpt lat="15.107321283398898" lon="120.66202241656822"><ele>38.666666666666664</ele><time>2026-04-19T07:58:26Z</time></trkpt><trkpt lat="15.107150327171391" lon="120.66213227452359"><ele>39.0</ele><time>2026-04-19T07:58:27Z</time></trkpt><trkpt lat="15.106981580148632" lon="120.6622389924029"><ele>39.0</ele><time>2026-04-19T07:58:28Z</time></trkpt><trkpt lat="15.106813661112954" lon="120.66234520000968"><ele>39.0</ele><time>2026-04-19T07:58:29Z</time></trkpt><trkpt lat="15.106645177593295" lon="120.66245110503593"><ele>39.0</ele><time>2026-04-19T07:58:30Z</time></trkpt><trkpt lat="15.106476592737007" lon="120.66255701178869"><ele>38.666666666666664</ele><time>2026-04-19T07:58:31Z</time></trkpt><trkpt lat="15.10630787323535" lon="120.66266188233395"><ele>38.33333333333333</ele><time>2026-04-19T07:58:32Z</time></trkpt><trkpt lat="15.106139104906696" lon="120.66276779354448"><ele>38.0</ele><time>2026-04-19T07:58:33Z</time></trkpt><trkpt lat="15.105969355319761" lon="120.66287478848899"><ele>37.33333333333333</ele><time>2026-04-19T07:58:34Z</time></trkpt><trkpt lat="15.105798496562556" lon="120.66298043681255"><ele>36.666666666666664</ele><time>2026-04-19T07:58:35Z</time></trkpt><trkpt lat="15.105628796470375" lon="120.66308503533573"><ele>36.0</ele><time>2026-04-19T07:58:36Z</time></trkpt><trkpt lat="15.105457168448858" lon="120.66319170541972"><ele>36.0</ele><time>2026-04-19T07:58:37Z</time></trkpt><trkpt lat="15.105283227284792" lon="120.66329727545975"><ele>36.0</ele><time>2026-04-19T07:58:38Z</time></trkpt><trkpt lat="15.105109996378685" lon="120.6634027246949"><ele>36.0</ele><time>2026-04-19T07:58:39Z</time></trkpt><trkpt lat="15.104935816933741" lon="120.66350798486094"><ele>35.666666666666664</ele><time>2026-04-19T07:58:40Z</time></trkpt><trkpt lat="15.104762293255696" lon="120.66361206260912"><ele>35.33333333333333</ele><time>2026-04-19T07:58:41Z</time></trkpt><trkpt lat="15.10458668346146" lon="120.66371670468864"><ele>35.0</ele><time>2026-04-19T07:58:42Z</time></trkpt><trkpt lat="15.104409909747938" lon="120.66382210555322"><ele>35.0</ele><time>2026-04-19T07:58:43Z</time></trkpt><trkpt lat="15.104231508986874" lon="120.66392748542853"><ele>35.0</ele><time>2026-04-19T07:58:44Z</time></trkpt><trkpt lat="15.104054341560103" lon="120.6640323015951"><ele>35.0</ele><time>2026-04-19T07:58:45Z</time></trkpt><trkpt lat="15.103876097763091" lon="120.6641394870881"><ele>35.0</ele><time>2026-04-19T07:58:46Z</time></trkpt><trkpt lat="15.103696570921933" lon="120.66424923759622"><ele>35.0</ele><time>2026-04-19T07:58:47Z</time></trkpt><trkpt lat="15.103513007124713" lon="120.66434121409712"><ele>35.0</ele><time>2026-04-19T07:58:48Z</time></trkpt><trkpt lat="15.103342561399302" lon="120.66447596123366"><ele>35.666666666666664</ele><time>2026-04-19T07:58:49Z</time></trkpt><trkpt lat="15.103163726406143" lon="120.66457769748621"><ele>36.333333333333336</ele><time>2026-04-19T07:58:50Z</time></trkpt><trkpt lat="15.102982224365938" lon="120.66468363531496"><ele>37.0</ele><time>2026-04-19T07:58:51Z</time></trkpt><trkpt lat="15.102802271816282" lon="120.66479015647742"><ele>37.0</ele><time>2026-04-19T07:58:52Z</time></trkpt><trkpt lat="15.10262153201891" lon="120.66489718705616"><ele>37.0</ele><time>2026-04-19T07:58:53Z</time></trkpt><trkpt lat="15.102444606046712" lon="120.66500272176506"><ele>37.0</ele><time>2026-04-19T07:58:54Z</time></trkpt><trkpt lat="15.102269712182764" lon="120.66510741388295"><ele>36.66666666666667</ele><time>2026-04-19T07:58:55Z</time></trkpt><trkpt lat="15.102098534492637" lon="120.66520773986"><ele>36.333333333333336</ele><time>2026-04-19T07:58:56Z</time></trkpt><trkpt lat="15.101926740651857" lon="120.66530713383312"><ele>36.0</ele><time>2026-04-19T07:58:57Z</time></trkpt><trkpt lat="15.101755348390885" lon="120.66540480476986"><ele>35.666666666666664</ele><time>2026-04-19T07:58:58Z</time></trkpt><trkpt lat="15.101585707177762" lon="120.66550288398345"><ele>35.33333333333333</ele><time>2026-04-19T07:58:59Z</time></trkpt><trkpt lat="15.101413643413503" lon="120.66560165136056"><ele>35.0</ele><time>2026-04-19T07:59:00Z</time></trkpt><trkpt lat="15.101242263412367" lon="120.66569905163288"><ele>35.0</ele><time>2026-04-19T07:59:01Z</time></trkpt><trkpt lat="15.101071828671742" lon="120.66579657122936"><ele>35.0</ele><time>2026-04-19T07:59:02Z</time></trkpt><trkpt lat="15.100898802315548" lon="120.66589875890433"><ele>35.0</ele><time>2026-04-19T07:59:03Z</time></trkpt><trkpt lat="15.100726217442235" lon="120.66599960694215"><ele>35.666666666666664</ele><time>2026-04-19T07:59:04Z</time></trkpt><trkpt lat="15.10055534692983" lon="120.66610188730202"><ele>36.333333333333336</ele><time>2026-04-19T07:59:05Z</time></trkpt><trkpt lat="15.100379608337292" lon="120.6662076368866"><ele>37.0</ele><time>2026-04-19T07:59:06Z</time></trkpt><trkpt lat="15.100200700277636" lon="120.6663117315764"><ele>37.0</ele><time>2026-04-19T07:59:07Z</time></trkpt><trkpt lat="15.10001963965197" lon="120.66641719519573"><ele>37.0</ele><time>2026-04-19T07:59:08Z</time></trkpt><trkpt lat="15.099834969278088" lon="120.66652093835506"><ele>37.0</ele><time>2026-04-19T07:59:09Z</time></trkpt><trkpt lat="15.099645467259023" lon="120.66662018937373"><ele>36.333333333333336</ele><time>2026-04-19T07:59:10Z</time></trkpt><trkpt lat="15.099447808915667" lon="120.66672061900236"><ele>35.666666666666664</ele><time>2026-04-19T07:59:11Z</time></trkpt><trkpt lat="15.09924923668367" lon="120.66682156413529"><ele>35.0</ele><time>2026-04-19T07:59:12Z</time></trkpt><trkpt lat="15.099049311354788" lon="120.66692530881365"><ele>35.0</ele><time>2026-04-19T07:59:13Z</time></trkpt><trkpt lat="15.098847211565998" lon="120.66703587825705"><ele>35.0</ele><time>2026-04-19T07:59:14Z</time></trkpt><trkpt lat="15.098643130436585" lon="120.66714733009916"><ele>35.0</ele><time>2026-04-19T07:59:15Z</time></trkpt><trkpt lat="15.098435462816733" lon="120.66725956041391"><ele>35.0</ele><time>2026-04-19T07:59:16Z</time></trkpt><trkpt lat="15.098225876695599" lon="120.6673734793582"><ele>34.0</ele><time>2026-04-19T07:59:17Z</time></trkpt><trkpt lat="15.098016339717928" lon="120.66748657586692"><ele>33.0</ele><time>2026-04-19T07:59:18Z</time></trkpt><trkpt lat="15.097805596002194" lon="120.66760008915163"><ele>33.0</ele><time>2026-04-19T07:59:19Z</time></trkpt><trkpt lat="15.097595835454602" lon="120.66771401346178"><ele>33.0</ele><time>2026-04-19T07:59:20Z</time></trkpt><trkpt lat="15.097385038626662" lon="120.66782757621753"><ele>33.0</ele><time>2026-04-19T07:59:21Z</time></trkpt><trkpt lat="15.097174873043214" lon="120.6679409963164"><ele>33.0</ele><time>2026-04-19T07:59:22Z</time></trkpt><trkpt lat="15.096964671574835" lon="120.6680522883718"><ele>33.0</ele><time>2026-04-19T07:59:23Z</time></trkpt><trkpt lat="15.096754452011886" lon="120.66816097337869"><ele>33.0</ele><time>2026-04-19T07:59:24Z</time></trkpt><trkpt lat="15.096542421195375" lon="120.668270771813"><ele>32.0</ele><time>2026-04-19T07:59:25Z</time></trkpt><trkpt lat="15.096330008031178" lon="120.66838143545083"><ele>31.0</ele><time>2026-04-19T07:59:26Z</time></trkpt><trkpt lat="15.096119943592347" lon="120.6684949209335"><ele>31.0</ele><time>2026-04-19T07:59:27Z</time></trkpt><trkpt lat="15.095907948230918" lon="120.66860542516035"><ele>31.0</ele><time>2026-04-19T07:59:28Z</time></trkpt><trkpt lat="15.09569384419874" lon="120.66871772923095"><ele>32.0</ele><time>2026-04-19T07:59:29Z</time></trkpt><trkpt lat="15.095481481409895" lon="120.66883750094594"><ele>33.0</ele><time>2026-04-19T07:59:30Z</time></trkpt><trkpt lat="15.09527251109752" lon="120.66894504596975"><ele>33.0</ele><time>2026-04-19T07:59:31Z</time></trkpt><trkpt lat="15.095063708757337" lon="120.66904995090708"><ele>33.0</ele><time>2026-04-19T07:59:32Z</time></trkpt><trkpt lat="15.094855554955156" lon="120.66915591380281"><ele>32.5</ele><time>2026-04-19T07:59:33Z</time></trkpt><trkpt lat="15.09464794627605" lon="120.66925636657385"><ele>32.0</ele><time>2026-04-19T07:59:34Z</time></trkpt><trkpt lat="15.094441630368966" lon="120.66935958606146"><ele>31.5</ele><time>2026-04-19T07:59:35Z</time></trkpt><trkpt lat="15.09423725874401" lon="120.66946026391375"><ele>31.0</ele><time>2026-04-19T07:59:36Z</time></trkpt><trkpt lat="15.094036012504976" lon="120.66956229333599"><ele>30.5</ele><time>2026-04-19T07:59:37Z</time></trkpt><trkpt lat="15.093839083066857" lon="120.66967866943129"><ele>30.0</ele><time>2026-04-19T07:59:38Z</time></trkpt><trkpt lat="15.093629051195308" lon="120.66975875328846"><ele>30.0</ele><time>2026-04-19T07:59:39Z</time></trkpt><trkpt lat="15.093427431288562" lon="120.66986227927183"><ele>30.0</ele><time>2026-04-19T07:59:40Z</time></trkpt><trkpt lat="15.093225622049886" lon="120.66996068298211"><ele>30.0</ele><time>2026-04-19T07:59:41Z</time></trkpt><trkpt lat="15.093022818753774" lon="120.67005705627722"><ele>30.0</ele><time>2026-04-19T07:59:42Z</time></trkpt><trkpt lat="15.09282136765535" lon="120.67015200983346"><ele>30.0</ele><time>2026-04-19T07:59:43Z</time></trkpt><trkpt lat="15.092619900028774" lon="120.67024990135934"><ele>30.0</ele><time>2026-04-19T07:59:44Z</time></trkpt><trkpt lat="15.092412687813535" lon="120.6703470436656"><ele>29.666666666666664</ele><time>2026-04-19T07:59:45Z</time></trkpt><trkpt lat="15.092215760017584" lon="120.6704292961493"><ele>29.333333333333332</ele><time>2026-04-19T07:59:46Z</time></trkpt><trkpt lat="15.092012633670969" lon="120.67052828404462"><ele>29.0</ele><time>2026-04-19T07:59:47Z</time></trkpt><trkpt lat="15.091808146898382" lon="120.67062219025289"><ele>29.0</ele><time>2026-04-19T07:59:48Z</time></trkpt><trkpt lat="15.091601465239139" lon="120.67071543788994"><ele>29.0</ele><time>2026-04-19T07:59:49Z</time></trkpt><trkpt lat="15.091396640412844" lon="120.67080785673923"><ele>29.0</ele><time>2026-04-19T07:59:50Z</time></trkpt><trkpt lat="15.091188723345695" lon="120.67090369393857"><ele>29.0</ele><time>2026-04-19T07:59:51Z</time></trkpt><trkpt lat="15.090982426872783" lon="120.67099823772762"><ele>29.0</ele><time>2026-04-19T07:59:52Z</time></trkpt><trkpt lat="15.090777486038364" lon="120.6710902719794"><ele>29.0</ele><time>2026-04-19T07:59:53Z</time></trkpt><trkpt lat="15.090573292254287" lon="120.67118309742067"><ele>29.0</ele><time>2026-04-19T07:59:54Z</time></trkpt><trkpt lat="15.09036952360282" lon="120.6712785011465"><ele>29.0</ele><time>2026-04-19T07:59:55Z</time></trkpt><trkpt lat="15.09016759758963" lon="120.67137073052581"><ele>29.0</ele><time>2026-04-19T07:59:56Z</time></trkpt><trkpt lat="15.089969469100508" lon="120.67146150227273"><ele>28.666666666666664</ele><time>2026-04-19T07:59:57Z</time></trkpt><trkpt lat="15.089770565420421" lon="120.67155220760992"><ele>28.333333333333336</ele><time>2026-04-19T07:59:58Z</time></trkpt><trkpt lat="15.089570979387863" lon="120.67164016457505"><ele>28.0</ele><time>2026-04-19T07:59:59Z</time></trkpt><trkpt lat="15.089371472030146" lon="120.671728409187"><ele>28.0</ele><time>2026-04-19T08:00:00Z</time></trkpt><trkpt lat="15.089171042939121" lon="120.67181692456535"><ele>28.0</ele><time>2026-04-19T08:00:01Z</time></trkpt><trkpt lat="15.088968449525353" lon="120.67190548143535"><ele>28.0</ele><time>2026-04-19T08:00:02Z</time></trkpt><trkpt lat="15.08876676831315" lon="120.6719916815326"><ele>28.0</ele><time>2026-04-19T08:00:03Z</time></trkpt><trkpt lat="15.088566758939837" lon="120.67207799516606"><ele>28.0</ele><time>2026-04-19T08:00:04Z</time></trkpt><trkpt lat="15.08836743541504" lon="120.6721658384489"><ele>28.0</ele><time>2026-04-19T08:00:05Z</time></trkpt><trkpt lat="15.088168828184386" lon="120.67225279294564"><ele>28.333333333333336</ele><time>2026-04-19T08:00:06Z</time></trkpt><trkpt lat="15.087970019158409" lon="120.67233940612773"><ele>28.666666666666664</ele><time>2026-04-19T08:00:07Z</time></trkpt><trkpt lat="15.087769817874726" lon="120.67242465454184"><ele>29.0</ele><time>2026-04-19T08:00:08Z</time></trkpt><trkpt lat="15.087569511259225" lon="120.67251064973277"><ele>28.333333333333332</ele><time>2026-04-19T08:00:09Z</time></trkpt><trkpt lat="15.087366298731924" lon="120.67259720254232"><ele>27.666666666666664</ele><time>2026-04-19T08:00:10Z</time></trkpt><trkpt lat="15.087164910359649" lon="120.67268486690723"><ele>27.0</ele><time>2026-04-19T08:00:11Z</time></trkpt><trkpt lat="15.086964648926243" lon="120.67277149904146"><ele>27.0</ele><time>2026-04-19T08:00:12Z</time></trkpt><trkpt lat="15.086763938771618" lon="120.67285720358085"><ele>27.0</ele><time>2026-04-19T08:00:13Z</time></trkpt><trkpt lat="15.086563567135103" lon="120.67294198812162"><ele>27.0</ele><time>2026-04-19T08:00:14Z</time></trkpt><trkpt lat="15.086364033014926" lon="120.67302340149774"><ele>27.0</ele><time>2026-04-19T08:00:15Z</time></trkpt><trkpt lat="15.086163502885741" lon="120.67310530412998"><ele>27.0</ele><time>2026-04-19T08:00:16Z</time></trkpt><trkpt lat="15.085964842481172" lon="120.67318639809342"><ele>27.0</ele><time>2026-04-19T08:00:17Z</time></trkpt><trkpt lat="15.085767534894925" lon="120.67326795118845"><ele>26.666666666666664</ele><time>2026-04-19T08:00:18Z</time></trkpt><trkpt lat="15.085573467544972" lon="120.67334764949067"><ele>26.333333333333332</ele><time>2026-04-19T08:00:19Z</time></trkpt><trkpt lat="15.085378759845076" lon="120.67342718980379"><ele>26.0</ele><time>2026-04-19T08:00:20Z</time></trkpt><trkpt lat="15.085185050122638" lon="120.6735074738487"><ele>26.0</ele><time>2026-04-19T08:00:21Z</time></trkpt><trkpt lat="15.08499152680835" lon="120.67358591515826"><ele>26.0</ele><time>2026-04-19T08:00:22Z</time></trkpt><trkpt lat="15.084799190959743" lon="120.6736615254015"><ele>26.0</ele><time>2026-04-19T08:00:23Z</time></trkpt><trkpt lat="15.084608336616306" lon="120.67373726796153"><ele>26.0</ele><time>2026-04-19T08:00:24Z</time></trkpt><trkpt lat="15.084419479376665" lon="120.67381099740399"><ele>26.0</ele><time>2026-04-19T08:00:25Z</time></trkpt><trkpt lat="15.084232948982244" lon="120.67388456027098"><ele>26.0</ele><time>2026-04-19T08:00:26Z</time></trkpt><trkpt lat="15.084048195637669" lon="120.67395804824818"><ele>26.0</ele><time>2026-04-19T08:00:27Z</time></trkpt><trkpt lat="15.083863313628326" lon="120.67403027491018"><ele>26.0</ele><time>2026-04-19T08:00:28Z</time></trkpt><trkpt lat="15.08367886975339" lon="120.67410238285926"><ele>26.0</ele><time>2026-04-19T08:00:29Z</time></trkpt><trkpt lat="15.083496094738557" lon="120.67417494776483"><ele>26.0</ele><time>2026-04-19T08:00:30Z</time></trkpt><trkpt lat="15.083313997560957" lon="120.67424642723421"><ele>26.0</ele><time>2026-04-19T08:00:31Z</time></trkpt><trkpt lat="15.083131852936939" lon="120.67431798776155"><ele>26.0</ele><time>2026-04-19T08:00:32Z</time></trkpt><trkpt lat="15.082948809772304" lon="120.67438813514106"><ele>25.333333333333332</ele><time>2026-04-19T08:00:33Z</time></trkpt><trkpt lat="15.082766038591481" lon="120.67445821902922"><ele>24.666666666666664</ele><time>2026-04-19T08:00:34Z</time></trkpt><trkpt lat="15.082584148926648" lon="120.67452967433049"><ele>24.0</ele><time>2026-04-19T08:00:35Z</time></trkpt><trkpt lat="15.082401535151654" lon="120.67460124726672"><ele>24.0</ele><time>2026-04-19T08:00:36Z</time></trkpt><trkpt lat="15.082217862124908" lon="120.67467347573887"><ele>24.0</ele><time>2026-04-19T08:00:37Z</time></trkpt><trkpt lat="15.082034339448965" lon="120.67474475716685"><ele>24.0</ele><time>2026-04-19T08:00:38Z</time></trkpt><trkpt lat="15.08184989252076" lon="120.67481596285495"><ele>24.0</ele><time>2026-04-19T08:00:39Z</time></trkpt><trkpt lat="15.08166467560294" lon="120.6748884700619"><ele>24.0</ele><time>2026-04-19T08:00:40Z</time></trkpt><trkpt lat="15.081479182207307" lon="120.67496150836861"><ele>24.0</ele><time>2026-04-19T08:00:41Z</time></trkpt><trkpt lat="15.0812931571561" lon="120.67503604073598"><ele>25.0</ele><time>2026-04-19T08:00:42Z</time></trkpt><trkpt lat="15.081105784169445" lon="120.67511190741425"><ele>26.0</ele><time>2026-04-19T08:00:43Z</time></trkpt><trkpt lat="15.080916517055195" lon="120.6751892041488"><ele>27.0</ele><time>2026-04-19T08:00:44Z</time></trkpt><trkpt lat="15.080725688482708" lon="120.67526806109717"><ele>26.333333333333336</ele><time>2026-04-19T08:00:45Z</time></trkpt><trkpt lat="15.08053301235499" lon="120.67534777084646"><ele>25.666666666666668</ele><time>2026-04-19T08:00:46Z</time></trkpt><trkpt lat="15.080338859211588" lon="120.67542732223305"><ele>25.0</ele><time>2026-04-19T08:00:47Z</time></trkpt><trkpt lat="15.080144391334064" lon="120.67550956355694"><ele>25.0</ele><time>2026-04-19T08:00:48Z</time></trkpt><trkpt lat="15.079949781833593" lon="120.67559083872891"><ele>25.0</ele><time>2026-04-19T08:00:49Z</time></trkpt><trkpt lat="15.079754798089402" lon="120.67567135884444"><ele>25.0</ele><time>2026-04-19T08:00:50Z</time></trkpt><trkpt lat="15.079557477931264" lon="120.67575773994369"><ele>25.333333333333336</ele><time>2026-04-19T08:00:51Z</time></trkpt><trkpt lat="15.07936240387465" lon="120.67584037505492"><ele>25.666666666666664</ele><time>2026-04-19T08:00:52Z</time></trkpt><trkpt lat="15.079165657701541" lon="120.67592317924381"><ele>26.0</ele><time>2026-04-19T08:00:53Z</time></trkpt><trkpt lat="15.078968308371916" lon="120.6760062463287"><ele>26.0</ele><time>2026-04-19T08:00:54Z</time></trkpt><trkpt lat="15.078770856472088" lon="120.67608988336438"><ele>26.0</ele><time>2026-04-19T08:00:55Z</time></trkpt><trkpt lat="15.078574864750612" lon="120.67617414762469"><ele>26.0</ele><time>2026-04-19T08:00:56Z</time></trkpt><trkpt lat="15.07837796823441" lon="120.67625894555617"><ele>25.666666666666664</ele><time>2026-04-19T08:00:57Z</time></trkpt><trkpt lat="15.078180946729729" lon="120.67634552636763"><ele>25.333333333333336</ele><time>2026-04-19T08:00:58Z</time></trkpt><trkpt lat="15.077984133894274" lon="120.67643167965782"><ele>25.0</ele><time>2026-04-19T08:00:59Z</time></trkpt><trkpt lat="15.077788159542164" lon="120.67651628539824"><ele>25.0</ele><time>2026-04-19T08:01:00Z</time></trkpt><trkpt lat="15.077592325687924" lon="120.67660202940499"><ele>25.0</ele><time>2026-04-19T08:01:01Z</time></trkpt><trkpt lat="15.077395140038972" lon="120.67668839318515"><ele>25.0</ele><time>2026-04-19T08:01:02Z</time></trkpt><trkpt lat="15.077197767078333" lon="120.67677826717436"><ele>25.0</ele><time>2026-04-19T08:01:03Z</time></trkpt><trkpt lat="15.076999115827425" lon="120.6768695151426"><ele>25.0</ele><time>2026-04-19T08:01:04Z</time></trkpt><trkpt lat="15.07680123454519" lon="120.67696045929915"><ele>25.0</ele><time>2026-04-19T08:01:05Z</time></trkpt><trkpt lat="15.076601069797503" lon="120.67705187260258"><ele>24.666666666666668</ele><time>2026-04-19T08:01:06Z</time></trkpt><trkpt lat="15.076399826648105" lon="120.67714253276344"><ele>24.333333333333336</ele><time>2026-04-19T08:01:07Z</time></trkpt><trkpt lat="15.076198659333587" lon="120.67723502605081"><ele>24.0</ele><time>2026-04-19T08:01:08Z</time></trkpt><trkpt lat="15.075997761119778" lon="120.67733144442818"><ele>24.0</ele><time>2026-04-19T08:01:09Z</time></trkpt><trkpt lat="15.075796737114466" lon="120.6774291915603"><ele>24.0</ele><time>2026-04-19T08:01:10Z</time></trkpt><trkpt lat="15.075594470738475" lon="120.67752803760308"><ele>24.0</ele><time>2026-04-19T08:01:11Z</time></trkpt><trkpt lat="15.075392996710304" lon="120.67762601880263"><ele>24.0</ele><time>2026-04-19T08:01:12Z</time></trkpt><trkpt lat="15.075188991412858" lon="120.67772663927178"><ele>24.0</ele><time>2026-04-19T08:01:13Z</time></trkpt><trkpt lat="15.074985028351641" lon="120.67782713145951"><ele>24.666666666666664</ele><time>2026-04-19T08:01:14Z</time></trkpt><trkpt lat="15.074782994968064" lon="120.67792522727699"><ele>25.333333333333332</ele><time>2026-04-19T08:01:15Z</time></trkpt><trkpt lat="15.074584163536313" lon="120.67802310778251"><ele>26.0</ele><time>2026-04-19T08:01:16Z</time></trkpt><trkpt lat="15.074387957333697" lon="120.67811806920568"><ele>26.0</ele><time>2026-04-19T08:01:17Z</time></trkpt><trkpt lat="15.074192024287706" lon="120.67821260537096"><ele>26.0</ele><time>2026-04-19T08:01:18Z</time></trkpt><trkpt lat="15.073995315155985" lon="120.67830719788005"><ele>26.0</ele><time>2026-04-19T08:01:19Z</time></trkpt><trkpt lat="15.073797434382502" lon="120.67840414817309"><ele>25.333333333333332</ele><time>2026-04-19T08:01:20Z</time></trkpt><trkpt lat="15.073598497806358" lon="120.6785021863968"><ele>24.666666666666664</ele><time>2026-04-19T08:01:21Z</time></trkpt><trkpt lat="15.073396756119092" lon="120.67860055347535"><ele>24.0</ele><time>2026-04-19T08:01:22Z</time></trkpt><trkpt lat="15.073194186795043" lon="120.67870087923917"><ele>24.0</ele><time>2026-04-19T08:01:23Z</time></trkpt><trkpt lat="15.072988613028146" lon="120.6788031208438"><ele>24.0</ele><time>2026-04-19T08:01:24Z</time></trkpt><trkpt lat="15.072782077154484" lon="120.6789054915034"><ele>24.0</ele><time>2026-04-19T08:01:25Z</time></trkpt><trkpt lat="15.072575274344668" lon="120.67901129264641"><ele>24.0</ele><time>2026-04-19T08:01:26Z</time></trkpt><trkpt lat="15.07236789401845" lon="120.67911932381767"><ele>23.0</ele><time>2026-04-19T08:01:27Z</time></trkpt><trkpt lat="15.072158965182304" lon="120.67922769536284"><ele>22.0</ele><time>2026-04-19T08:01:28Z</time></trkpt><trkpt lat="15.071949161709664" lon="120.67933686562887"><ele>21.5</ele><time>2026-04-19T08:01:29Z</time></trkpt><trkpt lat="15.071738260155394" lon="120.67944421470469"><ele>21.0</ele><time>2026-04-19T08:01:30Z</time></trkpt><trkpt lat="15.07152655181011" lon="120.67955317569314"><ele>22.5</ele><time>2026-04-19T08:01:31Z</time></trkpt><trkpt lat="15.071313425461119" lon="120.67966339064088"><ele>24.0</ele><time>2026-04-19T08:01:32Z</time></trkpt><trkpt lat="15.071097433497906" lon="120.67977538699478"><ele>24.0</ele><time>2026-04-19T08:01:33Z</time></trkpt><trkpt lat="15.070881483561093" lon="120.67988732094184"><ele>24.0</ele><time>2026-04-19T08:01:34Z</time></trkpt><trkpt lat="15.07066784303677" lon="120.68000089330194"><ele>23.5</ele><time>2026-04-19T08:01:35Z</time></trkpt><trkpt lat="15.07045724406157" lon="120.68011321649251"><ele>23.0</ele><time>2026-04-19T08:01:36Z</time></trkpt><trkpt lat="15.070248494576239" lon="120.68022403536179"><ele>22.0</ele><time>2026-04-19T08:01:37Z</time></trkpt><trkpt lat="15.070043051971144" lon="120.68033660410863"><ele>21.0</ele><time>2026-04-19T08:01:38Z</time></trkpt><trkpt lat="15.069840774962442" lon="120.6804485966218"><ele>21.0</ele><time>2026-04-19T08:01:39Z</time></trkpt><trkpt lat="15.06963838115167" lon="120.68055907353391"><ele>21.0</ele><time>2026-04-19T08:01:40Z</time></trkpt><trkpt lat="15.069437448802125" lon="120.68066890297301"><ele>21.0</ele><time>2026-04-19T08:01:41Z</time></trkpt><trkpt lat="15.06923872379868" lon="120.68077776223839"><ele>21.0</ele><time>2026-04-19T08:01:42Z</time></trkpt><trkpt lat="15.06904175161988" lon="120.6808839689481"><ele>21.0</ele><time>2026-04-19T08:01:43Z</time></trkpt><trkpt lat="15.068844183476518" lon="120.68099139483164"><ele>20.666666666666668</ele><time>2026-04-19T08:01:44Z</time></trkpt><trkpt lat="15.068647630009997" lon="120.68110038375008"><ele>20.333333333333336</ele><time>2026-04-19T08:01:45Z</time></trkpt><trkpt lat="15.068454311858902" lon="120.68120794144802"><ele>20.0</ele><time>2026-04-19T08:01:46Z</time></trkpt><trkpt lat="15.06826116461029" lon="120.6813129970155"><ele>20.0</ele><time>2026-04-19T08:01:47Z</time></trkpt><trkpt lat="15.068067740715879" lon="120.6814189505838"><ele>20.0</ele><time>2026-04-19T08:01:48Z</time></trkpt><trkpt lat="15.06787263949582" lon="120.68152525922154"><ele>20.0</ele><time>2026-04-19T08:01:49Z</time></trkpt><trkpt lat="15.067676021252202" lon="120.68163329894618"><ele>20.0</ele><time>2026-04-19T08:01:50Z</time></trkpt><trkpt lat="15.067478904213612" lon="120.68174410777134"><ele>20.0</ele><time>2026-04-19T08:01:51Z</time></trkpt><trkpt lat="15.067281940472332" lon="120.6818581327508"><ele>18.5</ele><time>2026-04-19T08:01:52Z</time></trkpt><trkpt lat="15.06708316085692" lon="120.68197322947431"><ele>17.0</ele><time>2026-04-19T08:01:53Z</time></trkpt><trkpt lat="15.06688338187329" lon="120.68208949517916"><ele>17.0</ele><time>2026-04-19T08:01:54Z</time></trkpt><trkpt lat="15.066681677984672" lon="120.68220814002466"><ele>17.0</ele><time>2026-04-19T08:01:55Z</time></trkpt><trkpt lat="15.066476947881053" lon="120.68232725365871"><ele>17.5</ele><time>2026-04-19T08:01:56Z</time></trkpt><trkpt lat="15.066269676916948" lon="120.6824491166924"><ele>18.0</ele><time>2026-04-19T08:01:57Z</time></trkpt><trkpt lat="15.066060754957375" lon="120.68257295665207"><ele>18.0</ele><time>2026-04-19T08:01:58Z</time></trkpt><trkpt lat="15.065850777940225" lon="120.68269995263664"><ele>18.0</ele><time>2026-04-19T08:01:59Z</time></trkpt><trkpt lat="15.065640664221347" lon="120.68282833001632"><ele>18.0</ele><time>2026-04-19T08:02:00Z</time></trkpt><trkpt lat="15.065430566015541" lon="120.68295858239101"><ele>18.0</ele><time>2026-04-19T08:02:01Z</time></trkpt><trkpt lat="15.065220626042086" lon="120.68308851082924"><ele>18.0</ele><time>2026-04-19T08:02:02Z</time></trkpt><trkpt lat="15.065010027100207" lon="120.6832153715655"><ele>18.0</ele><time>2026-04-19T08:02:03Z</time></trkpt><trkpt lat="15.064800353584554" lon="120.6833408320187"><ele>19.0</ele><time>2026-04-19T08:02:04Z</time></trkpt><trkpt lat="15.064594012646708" lon="120.68346750415635"><ele>20.0</ele><time>2026-04-19T08:02:05Z</time></trkpt><trkpt lat="15.064390383901706" lon="120.68359359293807"><ele>18.0</ele><time>2026-04-19T08:02:06Z</time></trkpt><trkpt lat="15.064190371404914" lon="120.68372182507227"><ele>16.0</ele><time>2026-04-19T08:02:07Z</time></trkpt><trkpt lat="15.063993345334872" lon="120.6838511576939"><ele>16.0</ele><time>2026-04-19T08:02:08Z</time></trkpt><trkpt lat="15.06379870827395" lon="120.68397833181074"><ele>16.0</ele><time>2026-04-19T08:02:09Z</time></trkpt><trkpt lat="15.063607097733838" lon="120.68410427259627"><ele>16.0</ele><time>2026-04-19T08:02:10Z</time></trkpt><trkpt lat="15.06341921109255" lon="120.68422645904988"><ele>16.0</ele><time>2026-04-19T08:02:11Z</time></trkpt><trkpt lat="15.063231763786087" lon="120.68434674537903"><ele>16.0</ele><time>2026-04-19T08:02:12Z</time></trkpt><trkpt lat="15.063048443936284" lon="120.68446679965885"><ele>16.0</ele><time>2026-04-19T08:02:13Z</time></trkpt><trkpt lat="15.062869007475424" lon="120.6845836710349"><ele>16.0</ele><time>2026-04-19T08:02:14Z</time></trkpt><trkpt lat="15.062691352149157" lon="120.68470032290998"><ele>16.0</ele><time>2026-04-19T08:02:15Z</time></trkpt><trkpt lat="15.06251397281686" lon="120.6848180963"><ele>15.333333333333332</ele><time>2026-04-19T08:02:16Z</time></trkpt><trkpt lat="15.06233524068158" lon="120.68493501922502"><ele>14.666666666666668</ele><time>2026-04-19T08:02:17Z</time></trkpt><trkpt lat="15.06215548798756" lon="120.68505270506658"><ele>14.0</ele><time>2026-04-19T08:02:18Z</time></trkpt><trkpt lat="15.061975448467685" lon="120.68517020819276"><ele>14.0</ele><time>2026-04-19T08:02:19Z</time></trkpt><trkpt lat="15.061795281710722" lon="120.68528944142972"><ele>14.0</ele><time>2026-04-19T08:02:20Z</time></trkpt><trkpt lat="15.061615351391842" lon="120.68540899683698"><ele>14.0</ele><time>2026-04-19T08:02:21Z</time></trkpt><trkpt lat="15.061436816144582" lon="120.68552718005394"><ele>14.0</ele><time>2026-04-19T08:02:22Z</time></trkpt><trkpt lat="15.061258747820695" lon="120.68564539142736"><ele>14.0</ele><time>2026-04-19T08:02:23Z</time></trkpt><trkpt lat="15.06108057540126" lon="120.68576411117127"><ele>14.0</ele><time>2026-04-19T08:02:24Z</time></trkpt><trkpt lat="15.060902231647551" lon="120.68588329373792"><ele>14.333333333333334</ele><time>2026-04-19T08:02:25Z</time></trkpt><trkpt lat="15.060725297406712" lon="120.68600511945196"><ele>14.666666666666668</ele><time>2026-04-19T08:02:26Z</time></trkpt><trkpt lat="15.06054881534895" lon="120.68612557428929"><ele>15.0</ele><time>2026-04-19T08:02:27Z</time></trkpt><trkpt lat="15.060372351386313" lon="120.6862460449918"><ele>15.0</ele><time>2026-04-19T08:02:28Z</time></trkpt><trkpt lat="15.060195709277453" lon="120.686367376798"><ele>15.0</ele><time>2026-04-19T08:02:29Z</time></trkpt><trkpt lat="15.060019584910489" lon="120.68648996131562"><ele>15.0</ele><time>2026-04-19T08:02:30Z</time></trkpt><trkpt lat="15.059843354246787" lon="120.68661253286496"><ele>15.0</ele><time>2026-04-19T08:02:31Z</time></trkpt><trkpt lat="15.05966670383313" lon="120.68673572633304"><ele>15.0</ele><time>2026-04-19T08:02:32Z</time></trkpt><trkpt lat="15.059488447852324" lon="120.68686206332421"><ele>15.0</ele><time>2026-04-19T08:02:33Z</time></trkpt><trkpt lat="15.059309741576309" lon="120.68698862452537"><ele>14.666666666666668</ele><time>2026-04-19T08:02:34Z</time></trkpt><trkpt lat="15.059131395054242" lon="120.68711534130755"><ele>14.333333333333334</ele><time>2026-04-19T08:02:35Z</time></trkpt><trkpt lat="15.058953643295933" lon="120.68724195853181"><ele>14.0</ele><time>2026-04-19T08:02:36Z</time></trkpt><trkpt lat="15.058775918657147" lon="120.68736829363769"><ele>14.0</ele><time>2026-04-19T08:02:37Z</time></trkpt><trkpt lat="15.058598216567225" lon="120.68749531278591"><ele>14.0</ele><time>2026-04-19T08:02:38Z</time></trkpt><trkpt lat="15.058420976272389" lon="120.68762236803612"><ele>14.0</ele><time>2026-04-19T08:02:39Z</time></trkpt><trkpt lat="15.058243929283075" lon="120.68774889373817"><ele>14.0</ele><time>2026-04-19T08:02:40Z</time></trkpt><trkpt lat="15.058067258170981" lon="120.68787596779248"><ele>14.0</ele><time>2026-04-19T08:02:41Z</time></trkpt><trkpt lat="15.057890788566237" lon="120.68800438594153"><ele>14.0</ele><time>2026-04-19T08:02:42Z</time></trkpt><trkpt lat="15.057715122811855" lon="120.68813130507105"><ele>14.0</ele><time>2026-04-19T08:02:43Z</time></trkpt><trkpt lat="15.057540595784685" lon="120.68825852717723"><ele>14.0</ele><time>2026-04-19T08:02:44Z</time></trkpt><trkpt lat="15.057365946062923" lon="120.68838530663626"><ele>14.0</ele><time>2026-04-19T08:02:45Z</time></trkpt><trkpt lat="15.05719261931864" lon="120.68851357573479"><ele>12.666666666666668</ele><time>2026-04-19T08:02:46Z</time></trkpt><trkpt lat="15.057019232795229" lon="120.68864083593083"><ele>11.333333333333334</ele><time>2026-04-19T08:02:47Z</time></trkpt><trkpt lat="15.056847821401549" lon="120.68876866823035"><ele>10.0</ele><time>2026-04-19T08:02:48Z</time></trkpt><trkpt lat="15.056675510441018" lon="120.68889500006476"><ele>10.0</ele><time>2026-04-19T08:02:49Z</time></trkpt><trkpt lat="15.056503951389844" lon="120.68902450375114"><ele>10.0</ele><time>2026-04-19T08:02:50Z</time></trkpt><trkpt lat="15.056331742996091" lon="120.68915281237125"><ele>10.0</ele><time>2026-04-19T08:02:51Z</time></trkpt><trkpt lat="15.056158686308212" lon="120.68928204316917"><ele>10.0</ele><time>2026-04-19T08:02:52Z</time></trkpt><trkpt lat="15.055985139968918" lon="120.68940994556016"><ele>10.0</ele><time>2026-04-19T08:02:53Z</time></trkpt><trkpt lat="15.05581239361846" lon="120.68953639810766"><ele>10.0</ele><time>2026-04-19T08:02:54Z</time></trkpt><trkpt lat="15.055642472297999" lon="120.68966254595907"><ele>10.0</ele><time>2026-04-19T08:02:55Z</time></trkpt><trkpt lat="15.05547595208938" lon="120.68978830052697"><ele>10.0</ele><time>2026-04-19T08:02:55.999Z</time></trkpt><trkpt lat="15.055311438131152" lon="120.68991460522507"><ele>10.0</ele><time>2026-04-19T08:02:56.999Z</time></trkpt><trkpt lat="15.055148668225113" lon="120.69003948244197"><ele>10.0</ele><time>2026-04-19T08:02:57.999Z</time></trkpt><trkpt lat="15.054987534572044" lon="120.69016400123272"><ele>10.0</ele><time>2026-04-19T08:02:58.999Z</time></trkpt><trkpt lat="15.054828499915873" lon="120.69028780163305"><ele>10.0</ele><time>2026-04-19T08:02:59.999Z</time></trkpt><trkpt lat="15.054669682529777" lon="120.690411181448"><ele>10.0</ele><time>2026-04-19T08:03:00.999Z</time></trkpt><trkpt lat="15.054513088295204" lon="120.69053453863798"><ele>10.0</ele><time>2026-04-19T08:03:01.999Z</time></trkpt><trkpt lat="15.054356985300517" lon="120.69065700067708"><ele>10.0</ele><time>2026-04-19T08:03:02.999Z</time></trkpt><trkpt lat="15.05420193879917" lon="120.6907782407253"><ele>10.333333333333334</ele><time>2026-04-19T08:03:03.999Z</time></trkpt><trkpt lat="15.054047242186309" lon="120.69090128795256"><ele>10.666666666666666</ele><time>2026-04-19T08:03:04.999Z</time></trkpt><trkpt lat="15.053892700412366" lon="120.69102520933887"><ele>11.0</ele><time>2026-04-19T08:03:05.999Z</time></trkpt><trkpt lat="15.053736569422759" lon="120.69115068815925"><ele>11.0</ele><time>2026-04-19T08:03:06.999Z</time></trkpt><trkpt lat="15.053579169398992" lon="120.69127763186027"><ele>11.0</ele><time>2026-04-19T08:03:07.999Z</time></trkpt><trkpt lat="15.053420429107398" lon="120.6914057221184"><ele>11.0</ele><time>2026-04-19T08:03:08.999Z</time></trkpt><trkpt lat="15.053259836029895" lon="120.69153618617999"><ele>11.0</ele><time>2026-04-19T08:03:09.999Z</time></trkpt><trkpt lat="15.053099642069403" lon="120.69166767390332"><ele>11.0</ele><time>2026-04-19T08:03:10.999Z</time></trkpt><trkpt lat="15.052942700657491" lon="120.6917997212832"><ele>11.0</ele><time>2026-04-19T08:03:11.999Z</time></trkpt><trkpt lat="15.052784632643291" lon="120.69192849315995"><ele>11.0</ele><time>2026-04-19T08:03:12.999Z</time></trkpt><trkpt lat="15.05262205300169" lon="120.69205709946662"><ele>11.0</ele><time>2026-04-19T08:03:14Z</time></trkpt><trkpt lat="15.0524560801801" lon="120.6921927214455"><ele>11.0</ele><time>2026-04-19T08:03:15Z</time></trkpt><trkpt lat="15.052290006521408" lon="120.69233039026811"><ele>11.333333333333332</ele><time>2026-04-19T08:03:16Z</time></trkpt><trkpt lat="15.052119117818524" lon="120.69247183327596"><ele>11.666666666666666</ele><time>2026-04-19T08:03:17Z</time></trkpt><trkpt lat="15.051947590196672" lon="120.69261570099228"><ele>12.0</ele><time>2026-04-19T08:03:18Z</time></trkpt><trkpt lat="15.051775492559273" lon="120.69276133621808"><ele>12.666666666666668</ele><time>2026-04-19T08:03:19Z</time></trkpt><trkpt lat="15.051603263962367" lon="120.69290723573157"><ele>13.333333333333334</ele><time>2026-04-19T08:03:20Z</time></trkpt><trkpt lat="15.051430420436104" lon="120.69305395956705"><ele>14.0</ele><time>2026-04-19T08:03:21Z</time></trkpt><trkpt lat="15.051258824196532" lon="120.69319950496156"><ele>14.0</ele><time>2026-04-19T08:03:22Z</time></trkpt><trkpt lat="15.051087065007472" lon="120.69334585840593"><ele>14.0</ele><time>2026-04-19T08:03:23Z</time></trkpt><trkpt lat="15.050915373791454" lon="120.69349356411063"><ele>14.0</ele><time>2026-04-19T08:03:24Z</time></trkpt><trkpt lat="15.050743871222005" lon="120.69364224724535"><ele>11.5</ele><time>2026-04-19T08:03:25Z</time></trkpt><trkpt lat="15.050571909664328" lon="120.69379167175752"><ele>9.0</ele><time>2026-04-19T08:03:26Z</time></trkpt><trkpt lat="15.050399244369295" lon="120.69394238980694"><ele>9.0</ele><time>2026-04-19T08:03:27Z</time></trkpt><trkpt lat="15.050226124381785" lon="120.69409403566138"><ele>9.0</ele><time>2026-04-19T08:03:28Z</time></trkpt><trkpt lat="15.050052716596413" lon="120.69424830344187"><ele>10.0</ele><time>2026-04-19T08:03:29Z</time></trkpt><trkpt lat="15.049876974177254" lon="120.69440337037845"><ele>11.0</ele><time>2026-04-19T08:03:30Z</time></trkpt><trkpt lat="15.049701427870568" lon="120.69455813759762"><ele>11.0</ele><time>2026-04-19T08:03:31Z</time></trkpt><trkpt lat="15.049525549054136" lon="120.69471488610891"><ele>11.0</ele><time>2026-04-19T08:03:32Z</time></trkpt><trkpt lat="15.049350273373483" lon="120.69487208895208"><ele>11.0</ele><time>2026-04-19T08:03:33Z</time></trkpt><trkpt lat="15.049174839174047" lon="120.69503108898734"><ele>11.0</ele><time>2026-04-19T08:03:34Z</time></trkpt><trkpt lat="15.049002495043883" lon="120.695187644608"><ele>9.5</ele><time>2026-04-19T08:03:35Z</time></trkpt><trkpt lat="15.048831498951822" lon="120.6953416632588"><ele>8.0</ele><time>2026-04-19T08:03:36Z</time></trkpt><trkpt lat="15.048660272313427" lon="120.6954960234529"><ele>8.0</ele><time>2026-04-19T08:03:37Z</time></trkpt><trkpt lat="15.048494132004565" lon="120.69564468968852"><ele>8.0</ele><time>2026-04-19T08:03:38Z</time></trkpt><trkpt lat="15.04832753803343" lon="120.69579781924172"><ele>8.0</ele><time>2026-04-19T08:03:39Z</time></trkpt><trkpt lat="15.048160549952437" lon="120.69595144546008"><ele>8.333333333333332</ele><time>2026-04-19T08:03:40Z</time></trkpt><trkpt lat="15.047992182880257" lon="120.69610455066845"><ele>8.666666666666666</ele><time>2026-04-19T08:03:41Z</time></trkpt><trkpt lat="15.047824860106214" lon="120.6962571195073"><ele>9.0</ele><time>2026-04-19T08:03:42Z</time></trkpt><trkpt lat="15.047660515863985" lon="120.69641116876876"><ele>9.0</ele><time>2026-04-19T08:03:43Z</time></trkpt><trkpt lat="15.047504669428992" lon="120.69655621377467"><ele>9.0</ele><time>2026-04-19T08:03:44Z</time></trkpt><trkpt lat="15.047363535875938" lon="120.69669229656283"><ele>9.0</ele><time>2026-04-19T08:03:45Z</time></trkpt><trkpt lat="15.047226756886172" lon="120.69682789200152"><ele>9.0</ele><time>2026-04-19T08:03:46Z</time></trkpt><trkpt lat="15.047086725898094" lon="120.69696391727021"><ele>9.0</ele><time>2026-04-19T08:03:47Z</time></trkpt><trkpt lat="15.04694191648633" lon="120.69710220368584"><ele>9.0</ele><time>2026-04-19T08:03:48Z</time></trkpt><trkpt lat="15.046792255963046" lon="120.69724194031362"><ele>9.0</ele><time>2026-04-19T08:03:49Z</time></trkpt><trkpt lat="15.046639722704576" lon="120.69738408446551"><ele>9.0</ele><time>2026-04-19T08:03:50Z</time></trkpt><trkpt lat="15.046483840374387" lon="120.69752746166841"><ele>9.0</ele><time>2026-04-19T08:03:51Z</time></trkpt><trkpt lat="15.04632912776245" lon="120.69767241555698"><ele>7.666666666666667</ele><time>2026-04-19T08:03:52Z</time></trkpt><trkpt lat="15.046176488461713" lon="120.69781816240474"><ele>6.333333333333334</ele><time>2026-04-19T08:03:53Z</time></trkpt><trkpt lat="15.046025268342422" lon="120.6979616505471"><ele>5.0</ele><time>2026-04-19T08:03:54Z</time></trkpt><trkpt lat="15.04587759429674" lon="120.69810450452307"><ele>5.666666666666667</ele><time>2026-04-19T08:03:55Z</time></trkpt><trkpt lat="15.045730656770946" lon="120.69824967710329"><ele>6.333333333333334</ele><time>2026-04-19T08:03:56Z</time></trkpt><trkpt lat="15.04558422439198" lon="120.69839398234419"><ele>7.0</ele><time>2026-04-19T08:03:57Z</time></trkpt><trkpt lat="15.045438750330918" lon="120.69853802927128"><ele>7.0</ele><time>2026-04-19T08:03:58Z</time></trkpt><trkpt lat="15.045292653015984" lon="120.69868177717989"><ele>7.0</ele><time>2026-04-19T08:03:59Z</time></trkpt><trkpt lat="15.045147238761128" lon="120.69882354687243"><ele>7.0</ele><time>2026-04-19T08:04:00Z</time></trkpt><trkpt lat="15.045002456635503" lon="120.69896498608861"><ele>7.0</ele><time>2026-04-19T08:04:01Z</time></trkpt><trkpt lat="15.044859452766202" lon="120.69910619638472"><ele>7.0</ele><time>2026-04-19T08:04:02Z</time></trkpt><trkpt lat="15.044716711595942" lon="120.69925060431173"><ele>7.0</ele><time>2026-04-19T08:04:03Z</time></trkpt><trkpt lat="15.044572618280062" lon="120.69939532143975"><ele>7.333333333333334</ele><time>2026-04-19T08:04:04Z</time></trkpt><trkpt lat="15.0444260224375" lon="120.69954159640096"><ele>7.666666666666666</ele><time>2026-04-19T08:04:05Z</time></trkpt><trkpt lat="15.044278888439889" lon="120.69968891870451"><ele>8.0</ele><time>2026-04-19T08:04:06Z</time></trkpt><trkpt lat="15.044131675228309" lon="120.69983644223046"><ele>7.666666666666666</ele><time>2026-04-19T08:04:07Z</time></trkpt><trkpt lat="15.043985645055228" lon="120.69998437571128"><ele>7.333333333333334</ele><time>2026-04-19T08:04:08Z</time></trkpt><trkpt lat="15.043840569859505" lon="120.70013337825827"><ele>7.0</ele><time>2026-04-19T08:04:09Z</time></trkpt><trkpt lat="15.043695233539397" lon="120.70028261312676"><ele>7.0</ele><time>2026-04-19T08:04:10Z</time></trkpt><trkpt lat="15.043552826514913" lon="120.70043085544526"><ele>7.0</ele><time>2026-04-19T08:04:11Z</time></trkpt><trkpt lat="15.043412672829984" lon="120.70057689926944"><ele>7.0</ele><time>2026-04-19T08:04:12Z</time></trkpt><trkpt lat="15.043274400110267" lon="120.70072038139318"><ele>8.0</ele><time>2026-04-19T08:04:13Z</time></trkpt><trkpt lat="15.043138338990534" lon="120.70086079968077"><ele>9.0</ele><time>2026-04-19T08:04:14Z</time></trkpt><trkpt lat="15.043005188928007" lon="120.7009995253813"><ele>10.0</ele><time>2026-04-19T08:04:15Z</time></trkpt><trkpt lat="15.042874311813078" lon="120.70113595241759"><ele>10.0</ele><time>2026-04-19T08:04:16Z</time></trkpt><trkpt lat="15.042745030431368" lon="120.70127081779573"><ele>10.0</ele><time>2026-04-19T08:04:17Z</time></trkpt><trkpt lat="15.042614583211192" lon="120.70140473021999"><ele>10.0</ele><time>2026-04-19T08:04:18Z</time></trkpt><trkpt lat="15.042483108231428" lon="120.70153719233093"><ele>10.0</ele><time>2026-04-19T08:04:19Z</time></trkpt><trkpt lat="15.042350404896517" lon="120.70167073596953"><ele>10.0</ele><time>2026-04-19T08:04:20Z</time></trkpt><trkpt lat="15.04221801121112" lon="120.70180564991857"><ele>10.0</ele><time>2026-04-19T08:04:21Z</time></trkpt><trkpt lat="15.04208623301301" lon="120.70194289902719"><ele>9.666666666666668</ele><time>2026-04-19T08:04:22Z</time></trkpt><trkpt lat="15.041956121609944" lon="120.7020806476248"><ele>9.333333333333334</ele><time>2026-04-19T08:04:23Z</time></trkpt><trkpt lat="15.041824786764659" lon="120.70222084021567"><ele>9.0</ele><time>2026-04-19T08:04:24Z</time></trkpt><trkpt lat="15.041693159908203" lon="120.70236340369004"><ele>8.666666666666666</ele><time>2026-04-19T08:04:25Z</time></trkpt><trkpt lat="15.041561319649892" lon="120.70250732943083"><ele>8.333333333333332</ele><time>2026-04-19T08:04:26Z</time></trkpt><trkpt lat="15.041429524506047" lon="120.70265201367008"><ele>8.0</ele><time>2026-04-19T08:04:27Z</time></trkpt><trkpt lat="15.041297750856021" lon="120.70279657844932"><ele>8.0</ele><time>2026-04-19T08:04:28Z</time></trkpt><trkpt lat="15.041165358100052" lon="120.7029426403601"><ele>8.0</ele><time>2026-04-19T08:04:29Z</time></trkpt><trkpt lat="15.041035509224013" lon="120.70308677189608"><ele>8.0</ele><time>2026-04-19T08:04:30Z</time></trkpt><trkpt lat="15.04090723086554" lon="120.70323106750239"><ele>7.666666666666666</ele><time>2026-04-19T08:04:31Z</time></trkpt><trkpt lat="15.040783256683717" lon="120.703371688003"><ele>7.333333333333334</ele><time>2026-04-19T08:04:32Z</time></trkpt><trkpt lat="15.040664397368369" lon="120.70350919965279"><ele>7.0</ele><time>2026-04-19T08:04:33Z</time></trkpt><trkpt lat="15.040547277651427" lon="120.70364558300552"><ele>7.0</ele><time>2026-04-19T08:04:34Z</time></trkpt><trkpt lat="15.04043251510798" lon="120.70377988051133"><ele>7.0</ele><time>2026-04-19T08:04:35Z</time></trkpt><trkpt lat="15.040319599406786" lon="120.7039132846741"><ele>7.0</ele><time>2026-04-19T08:04:36Z</time></trkpt><trkpt lat="15.04020728742154" lon="120.7040458355551"><ele>7.0</ele><time>2026-04-19T08:04:37Z</time></trkpt><trkpt lat="15.040094522507824" lon="120.70417805204255"><ele>7.0</ele><time>2026-04-19T08:04:38Z</time></trkpt><trkpt lat="15.039980201931611" lon="120.70430915449342"><ele>7.0</ele><time>2026-04-19T08:04:39Z</time></trkpt><trkpt lat="15.039864059733596" lon="120.70444126717626"><ele>6.333333333333334</ele><time>2026-04-19T08:04:40Z</time></trkpt><trkpt lat="15.039747668034938" lon="120.70457477749063"><ele>5.666666666666667</ele><time>2026-04-19T08:04:41Z</time></trkpt><trkpt lat="15.039630795081731" lon="120.70470886722696"><ele>5.0</ele><time>2026-04-19T08:04:42Z</time></trkpt><trkpt lat="15.039513631628257" lon="120.70484473471751"><ele>5.0</ele><time>2026-04-19T08:04:43Z</time></trkpt><trkpt lat="15.039395592042874" lon="120.70498043305135"><ele>5.0</ele><time>2026-04-19T08:04:44Z</time></trkpt><trkpt lat="15.039278150377367" lon="120.7051164174249"><ele>5.0</ele><time>2026-04-19T08:04:45Z</time></trkpt><trkpt lat="15.0391609467332" lon="120.7052514843508"><ele>6.333333333333334</ele><time>2026-04-19T08:04:46Z</time></trkpt><trkpt lat="15.039043956303388" lon="120.70538746852726"><ele>7.666666666666667</ele><time>2026-04-19T08:04:47Z</time></trkpt><trkpt lat="15.038929311870518" lon="120.70552141609889"><ele>9.0</ele><time>2026-04-19T08:04:48Z</time></trkpt><trkpt lat="15.038814206166075" lon="120.7056570245658"><ele>9.0</ele><time>2026-04-19T08:04:49Z</time></trkpt><trkpt lat="15.03869966886581" lon="120.70579227873336"><ele>9.0</ele><time>2026-04-19T08:04:50Z</time></trkpt><trkpt lat="15.038584676358422" lon="120.70593045065583"><ele>9.0</ele><time>2026-04-19T08:04:51Z</time></trkpt><trkpt lat="15.038468997620011" lon="120.70606903584945"><ele>9.0</ele><time>2026-04-19T08:04:52Z</time></trkpt><trkpt lat="15.038351889585915" lon="120.70620920297439"><ele>9.0</ele><time>2026-04-19T08:04:53Z</time></trkpt><trkpt lat="15.038234191524909" lon="120.70635049374211"><ele>9.0</ele><time>2026-04-19T08:04:54Z</time></trkpt><trkpt lat="15.03811542143945" lon="120.70649188456542"><ele>9.0</ele><time>2026-04-19T08:04:55Z</time></trkpt><trkpt lat="15.037996760499757" lon="120.70663384207693"><ele>9.0</ele><time>2026-04-19T08:04:56Z</time></trkpt><trkpt lat="15.037877258328264" lon="120.70677791684257"><ele>9.0</ele><time>2026-04-19T08:04:57Z</time></trkpt><trkpt lat="15.03775514726304" lon="120.70692231811691"><ele>9.0</ele><time>2026-04-19T08:04:58Z</time></trkpt><trkpt lat="15.037631091203245" lon="120.70706722540919"><ele>9.0</ele><time>2026-04-19T08:04:59Z</time></trkpt><trkpt lat="15.037506983657645" lon="120.70721118933945"><ele>9.0</ele><time>2026-04-19T08:05:00Z</time></trkpt><trkpt lat="15.037381167732356" lon="120.70735674123647"><ele>9.0</ele><time>2026-04-19T08:05:01Z</time></trkpt><trkpt lat="15.037256844521313" lon="120.707501505882"><ele>9.0</ele><time>2026-04-19T08:05:01.999Z</time></trkpt><trkpt lat="15.037131599548731" lon="120.70764997464467"><ele>9.0</ele><time>2026-04-19T08:05:02.999Z</time></trkpt><trkpt lat="15.037006971618057" lon="120.70780159472538"><ele>9.0</ele><time>2026-04-19T08:05:03.999Z</time></trkpt><trkpt lat="15.036881408732844" lon="120.70795417955027"><ele>9.0</ele><time>2026-04-19T08:05:04.999Z</time></trkpt><trkpt lat="15.03675646300275" lon="120.7081091738613"><ele>9.0</ele><time>2026-04-19T08:05:05.999Z</time></trkpt><trkpt lat="15.03663159586073" lon="120.70826663400759"><ele>9.0</ele><time>2026-04-19T08:05:06.999Z</time></trkpt><trkpt lat="15.036507491943789" lon="120.70842068770644"><ele>9.0</ele><time>2026-04-19T08:05:07.999Z</time></trkpt><trkpt lat="15.036384588737976" lon="120.70857584887864"><ele>9.0</ele><time>2026-04-19T08:05:08.999Z</time></trkpt><trkpt lat="15.036262025247321" lon="120.70873083735948"><ele>9.0</ele><time>2026-04-19T08:05:09.999Z</time></trkpt><trkpt lat="15.03613973692714" lon="120.70888606150615"><ele>9.0</ele><time>2026-04-19T08:05:10.999Z</time></trkpt><trkpt lat="15.036018171344402" lon="120.70904274551161"><ele>9.0</ele><time>2026-04-19T08:05:11.999Z</time></trkpt><trkpt lat="15.035896189848335" lon="120.70920165096943"><ele>8.666666666666666</ele><time>2026-04-19T08:05:12.999Z</time></trkpt><trkpt lat="15.035775460211122" lon="120.70936096689279"><ele>8.333333333333332</ele><time>2026-04-19T08:05:13.999Z</time></trkpt><trkpt lat="15.035655947917427" lon="120.70952012461692"><ele>8.0</ele><time>2026-04-19T08:05:15Z</time></trkpt><trkpt lat="15.035537794501286" lon="120.70968052239517"><ele>8.0</ele><time>2026-04-19T08:05:16Z</time></trkpt><trkpt lat="15.035418560458272" lon="120.7098409139055"><ele>8.0</ele><time>2026-04-19T08:05:17Z</time></trkpt><trkpt lat="15.035302145430597" lon="120.70999952206654"><ele>8.0</ele><time>2026-04-19T08:05:18Z</time></trkpt><trkpt lat="15.035185143776191" lon="120.71015792153018"><ele>7.666666666666666</ele><time>2026-04-19T08:05:19Z</time></trkpt><trkpt lat="15.035070009410965" lon="120.71031235849136"><ele>7.333333333333334</ele><time>2026-04-19T08:05:20Z</time></trkpt><trkpt lat="15.034954037881226" lon="120.7104663411606"><ele>7.0</ele><time>2026-04-19T08:05:21Z</time></trkpt><trkpt lat="15.03483793954742" lon="120.71061955098118"><ele>7.0</ele><time>2026-04-19T08:05:22Z</time></trkpt><trkpt lat="15.034723739665559" lon="120.71077019097467"><ele>7.0</ele><time>2026-04-19T08:05:23Z</time></trkpt><trkpt lat="15.034609401779768" lon="120.71092097764974"><ele>7.0</ele><time>2026-04-19T08:05:24Z</time></trkpt><trkpt lat="15.034495716872295" lon="120.71107075252038"><ele>8.0</ele><time>2026-04-19T08:05:25Z</time></trkpt><trkpt lat="15.034384096404413" lon="120.7112182928248"><ele>9.0</ele><time>2026-04-19T08:05:26Z</time></trkpt><trkpt lat="15.034273066263985" lon="120.71136580640588"><ele>10.0</ele><time>2026-04-19T08:05:27Z</time></trkpt><trkpt lat="15.034164027231997" lon="120.71151227901615"><ele>9.666666666666668</ele><time>2026-04-19T08:05:28Z</time></trkpt><trkpt lat="15.034056679762257" lon="120.71165725600831"><ele>9.333333333333334</ele><time>2026-04-19T08:05:29Z</time></trkpt><trkpt lat="15.033950165460636" lon="120.71180110572608"><ele>9.0</ele><time>2026-04-19T08:05:30Z</time></trkpt><trkpt lat="15.033846374191713" lon="120.7119418697301"><ele>8.0</ele><time>2026-04-19T08:05:31Z</time></trkpt><trkpt lat="15.033742730245477" lon="120.71208266612763"><ele>7.0</ele><time>2026-04-19T08:05:32Z</time></trkpt><trkpt lat="15.033639494534437" lon="120.71222137635944"><ele>6.0</ele><time>2026-04-19T08:05:33Z</time></trkpt><trkpt lat="15.033536403780701" lon="120.7123593744061"><ele>6.0</ele><time>2026-04-19T08:05:34Z</time></trkpt><trkpt lat="15.033434270095531" lon="120.7124938815103"><ele>6.0</ele><time>2026-04-19T08:05:35Z</time></trkpt><trkpt lat="15.033333347444307" lon="120.71262587281198"><ele>6.0</ele><time>2026-04-19T08:05:36Z</time></trkpt><trkpt lat="15.033231982326061" lon="120.71275846597932"><ele>6.0</ele><time>2026-04-19T08:05:37Z</time></trkpt><trkpt lat="15.03313150938732" lon="120.71288936673706"><ele>6.0</ele><time>2026-04-19T08:05:38Z</time></trkpt><trkpt lat="15.03303013655276" lon="120.7130193821128"><ele>6.0</ele><time>2026-04-19T08:05:39Z</time></trkpt><trkpt lat="15.0329287236809" lon="120.71314561885188"><ele>6.0</ele><time>2026-04-19T08:05:40Z</time></trkpt><trkpt lat="15.032828780660266" lon="120.71326906741491"><ele>6.0</ele><time>2026-04-19T08:05:41Z</time></trkpt><trkpt lat="15.032729594169536" lon="120.7133915283997"><ele>6.0</ele><time>2026-04-19T08:05:42Z</time></trkpt><trkpt lat="15.032631803388417" lon="120.71351196658595"><ele>5.75</ele><time>2026-04-19T08:05:43Z</time></trkpt><trkpt lat="15.032535341937747" lon="120.71363124871958"><ele>5.5</ele><time>2026-04-19T08:05:44Z</time></trkpt><trkpt lat="15.032440821803965" lon="120.71374693070162"><ele>5.25</ele><time>2026-04-19T08:05:45Z</time></trkpt><trkpt lat="15.032349909037073" lon="120.71385796515942"><ele>5.0</ele><time>2026-04-19T08:05:46Z</time></trkpt><trkpt lat="15.03226526091998" lon="120.7139624783845"><ele>5.0</ele><time>2026-04-19T08:05:47Z</time></trkpt><trkpt lat="15.032186577195692" lon="120.71405956433148"><ele>5.0</ele><time>2026-04-19T08:05:48Z</time></trkpt><trkpt lat="15.032114273979179" lon="120.71414903132653"><ele>5.0</ele><time>2026-04-19T08:05:49Z</time></trkpt><trkpt lat="15.032048903848205" lon="120.7142310398702"><ele>5.0</ele><time>2026-04-19T08:05:50Z</time></trkpt><trkpt lat="15.031990442339866" lon="120.71430519281131"><ele>5.0</ele><time>2026-04-19T08:05:51Z</time></trkpt><trkpt lat="15.031937451322268" lon="120.71437200470903"><ele>5.0</ele><time>2026-04-19T08:05:52Z</time></trkpt><trkpt lat="15.031902279428943" lon="120.7144411653242"><ele>5.0</ele><time>2026-04-19T08:05:53Z</time></trkpt><trkpt lat="15.031862022245074" lon="120.71449188811144"><ele>5.0</ele><time>2026-04-19T08:05:54Z</time></trkpt><trkpt lat="15.031798691918745" lon="120.71456957692291"><ele>5.0</ele><time>2026-04-19T08:05:56Z</time></trkpt><trkpt lat="15.031757428690284" lon="120.71462083372877"><ele>5.0</ele><time>2026-04-19T08:05:58Z</time></trkpt><trkpt lat="15.031678146497812" lon="120.71459721874929"><ele>5.0</ele><time>2026-04-19T08:05:59Z</time></trkpt><trkpt lat="15.031605966444074" lon="120.71459173024698"><ele>5.2</ele><time>2026-04-19T08:06:01Z</time></trkpt><trkpt lat="15.031530570416903" lon="120.7145836738077"><ele>5.4</ele><time>2026-04-19T08:06:03Z</time></trkpt><trkpt lat="15.031477214182246" lon="120.71468748409073"><ele>5.6</ele><time>2026-04-19T08:06:05Z</time></trkpt><trkpt lat="15.031421483400456" lon="120.71475499083392"><ele>5.8</ele><time>2026-04-19T08:06:08Z</time></trkpt><trkpt lat="15.031364389949053" lon="120.71482414820132"><ele>6.0</ele><time>2026-04-19T08:06:11Z</time></trkpt><trkpt lat="15.031273681760178" lon="120.71483595710819"><ele>6.0</ele><time>2026-04-19T08:06:13Z</time></trkpt><trkpt lat="15.031205036893127" lon="120.71486872435908"><ele>6.0</ele><time>2026-04-19T08:06:15Z</time></trkpt><trkpt lat="15.031145541831593" lon="120.71492090257959"><ele>6.0</ele><time>2026-04-19T08:06:18Z</time></trkpt><trkpt lat="15.031079332649439" lon="120.71491804406335"><ele>6.0</ele><time>2026-04-19T08:06:21Z</time></trkpt><trkpt lat="15.031053731646502" lon="120.715011531581"><ele>6.0</ele><time>2026-04-19T08:06:25Z</time></trkpt><trkpt lat="15.031009472357885" lon="120.71507015448584"><ele>6.0</ele><time>2026-04-19T08:06:28Z</time></trkpt><trkpt lat="15.030962199294589" lon="120.71512430191754"><ele>6.0</ele><time>2026-04-19T08:06:32Z</time></trkpt><trkpt lat="15.030897455707935" lon="120.71511678597015"><ele>6.0</ele><time>2026-04-19T08:06:38Z</time></trkpt><trkpt lat="15.030882614695491" lon="120.71520102061321"><ele>6.0</ele><time>2026-04-19T08:07:03Z</time></trkpt><trkpt lat="15.030832040940581" lon="120.71527338768462"><ele>6.0</ele><time>2026-04-19T08:07:06Z</time></trkpt><trkpt lat="15.03078137065554" lon="120.71533233748528"><ele>6.0</ele><time>2026-04-19T08:07:09Z</time></trkpt><trkpt lat="15.030734618666754" lon="120.71539681068172"><ele>6.0</ele><time>2026-04-19T08:07:12Z</time></trkpt><trkpt lat="15.030686296156853" lon="120.7154551243994"><ele>5.833333333333333</ele><time>2026-04-19T08:07:15Z</time></trkpt><trkpt lat="15.030633684510669" lon="120.71551771629929"><ele>5.666666666666667</ele><time>2026-04-19T08:07:19Z</time></trkpt><trkpt lat="15.030582816276054" lon="120.71557624053503"><ele>5.5</ele><time>2026-04-19T08:07:24Z</time></trkpt><trkpt lat="15.030531983431866" lon="120.7156330617878"><ele>5.333333333333334</ele><time>2026-04-19T08:07:28Z</time></trkpt><trkpt lat="15.030474997801475" lon="120.71569476470201"><ele>5.166666666666667</ele><time>2026-04-19T08:07:32Z</time></trkpt><trkpt lat="15.030427876530318" lon="120.7157445018343"><ele>5.0</ele><time>2026-04-19T08:07:37Z</time></trkpt><trkpt lat="15.030377983039129" lon="120.71579951023736"><ele>5.0</ele><time>2026-04-19T08:07:42Z</time></trkpt><trkpt lat="15.030335040270296" lon="120.71584990085819"><ele>5.0</ele><time>2026-04-19T08:07:45Z</time></trkpt><trkpt lat="15.030286346126426" lon="120.71590222078835"><ele>5.0</ele><time>2026-04-19T08:07:49Z</time></trkpt><trkpt lat="15.030243143347018" lon="120.7159524770561"><ele>5.0</ele><time>2026-04-19T08:07:52Z</time></trkpt><trkpt lat="15.030169378190239" lon="120.71599168545049"><ele>5.0</ele><time>2026-04-19T08:07:56Z</time></trkpt><trkpt lat="15.03011719324345" lon="120.71603828970647"><ele>5.0</ele><time>2026-04-19T08:07:59Z</time></trkpt><trkpt lat="15.030075152976758" lon="120.71609961658133"><ele>5.0</ele><time>2026-04-19T08:08:03Z</time></trkpt><trkpt lat="15.030019526761881" lon="120.71613473913065"><ele>5.142857142857142</ele><time>2026-04-19T08:08:07Z</time></trkpt><trkpt lat="15.029962048427084" lon="120.71616187010221"><ele>5.285714285714286</ele><time>2026-04-19T08:08:12Z</time></trkpt><trkpt lat="15.029884097953612" lon="120.71618845130175"><ele>5.428571428571429</ele><time>2026-04-19T08:08:39Z</time></trkpt><trkpt lat="15.029823172714758" lon="120.71620978609418"><ele>5.571428571428571</ele><time>2026-04-19T08:08:42Z</time></trkpt><trkpt lat="15.029774199279906" lon="120.7162575900759"><ele>5.714285714285714</ele><time>2026-04-19T08:08:50Z</time></trkpt><trkpt lat="15.029724637186998" lon="120.71630644114805"><ele>5.857142857142857</ele><time>2026-04-19T08:08:54Z</time></trkpt><trkpt lat="15.02967452638216" lon="120.71635790121512"><ele>6.0</ele><time>2026-04-19T08:08:58Z</time></trkpt><trkpt lat="15.02962582363401" lon="120.71641785794122"><ele>6.0</ele><time>2026-04-19T08:09:01Z</time></trkpt><trkpt lat="15.029559527784045" lon="120.71647108574604"><ele>6.0</ele><time>2026-04-19T08:09:04Z</time></trkpt><trkpt lat="15.02950441105203" lon="120.71652610459769"><ele>6.0</ele><time>2026-04-19T08:09:08Z</time></trkpt><trkpt lat="15.029428741043144" lon="120.71642151136561"><ele>6.0</ele><time>2026-04-19T08:11:40.999Z</time></trkpt><trkpt lat="15.029517993523706" lon="120.71643194605453"><ele>6.0</ele><time>2026-04-19T08:12:24Z</time></trkpt><trkpt lat="15.02954358194968" lon="120.71650157227397"><ele>6.0</ele><time>2026-04-19T08:12:29Z</time></trkpt><trkpt lat="15.029601455068672" lon="120.7165272566299"><ele>6.0</ele><time>2026-04-19T08:12:32Z</time></trkpt><trkpt lat="15.029504888725164" lon="120.71642071222699"><ele>6.0</ele><time>2026-04-19T08:13:09.071Z</time></trkpt><trkpt lat="15.029451212597316" lon="120.7163684684652"><ele>6.0</ele><time>2026-04-19T08:13:12.071Z</time></trkpt><trkpt lat="15.029516794278251" lon="120.71634732041449"><ele>6.0</ele><time>2026-04-19T08:13:16.068Z</time></trkpt><trkpt lat="15.029514885053063" lon="120.71625816248007"><ele>6.0</ele><time>2026-04-19T08:13:23.069Z</time></trkpt><trkpt lat="15.02942449586627" lon="120.71615015137803"><ele>6.0</ele><time>2026-04-19T08:13:29Z</time></trkpt><trkpt lat="15.029448160005115" lon="120.71622506112976"><ele>6.0</ele><time>2026-04-19T08:14:15.018Z</time></trkpt><trkpt lat="15.029508880769303" lon="120.71625032913148"><ele>6.0</ele><time>2026-04-19T08:14:21.022Z</time></trkpt><trkpt lat="15.029521421024809" lon="120.71631850291497"><ele>6.0</ele><time>2026-04-19T08:14:24.02Z</time></trkpt><trkpt lat="15.029553652586491" lon="120.71640615378952"><ele>6.0</ele><time>2026-04-19T08:14:26.025Z</time></trkpt><trkpt lat="15.02948205534991" lon="120.71650687330627"><ele>6.0</ele><time>2026-04-19T08:14:35Z</time></trkpt><trkpt lat="15.029419407640109" lon="120.71649692337152"><ele>5.999999999999999</ele><time>2026-04-19T08:14:41Z</time></trkpt><trkpt lat="15.029390401829398" lon="120.71656103276884"><ele>6.0</ele><time>2026-04-19T08:14:49Z</time></trkpt><trkpt lat="15.029321052117078" lon="120.71658094744922"><ele>6.0</ele><time>2026-04-19T08:14:57Z</time></trkpt><trkpt lat="15.029258944265921" lon="120.71660312637358"><ele>6.0</ele><time>2026-04-19T08:15:03Z</time></trkpt><trkpt lat="15.02921326856873" lon="120.7166500322722"><ele>6.0</ele><time>2026-04-19T08:15:12Z</time></trkpt><trkpt lat="15.029168453097933" lon="120.71670423916801"><ele>5.999999999999999</ele><time>2026-04-19T08:15:19.001Z</time></trkpt><trkpt lat="15.029113633608649" lon="120.716667691793"><ele>6.0</ele><time>2026-04-19T08:15:33.001Z</time></trkpt><trkpt lat="15.029185677752727" lon="120.71664125412177"><ele>6.0</ele><time>2026-04-19T08:15:42Z</time></trkpt><trkpt lat="15.029233379882918" lon="120.71658911521259"><ele>6.0</ele><time>2026-04-19T08:15:48Z</time></trkpt><trkpt lat="15.029282162514743" lon="120.71648730207964"><ele>6.0</ele><time>2026-04-19T08:16:02Z</time></trkpt><trkpt lat="15.02935414353856" lon="120.71645574962952"><ele>6.0</ele><time>2026-04-19T08:16:07Z</time></trkpt><trkpt lat="15.029435493493855" lon="120.71644618786833"><ele>6.0</ele><time>2026-04-19T08:16:16Z</time></trkpt><trkpt lat="15.029516044178504" lon="120.7165105691671"><ele>6.0</ele><time>2026-04-19T08:51:09Z</time></trkpt><trkpt lat="15.029504554390659" lon="120.71658495178433"><ele>6.0</ele><time>2026-04-19T08:51:14Z</time></trkpt><trkpt lat="15.02945057589698" lon="120.71663507889109"><ele>6.0</ele><time>2026-04-19T08:51:18Z</time></trkpt><trkpt lat="15.029401052489634" lon="120.7166775201205"><ele>6.0</ele><time>2026-04-19T08:51:21Z</time></trkpt><trkpt lat="15.029338362054107" lon="120.71673530345142"><ele>6.0</ele><time>2026-04-19T08:51:24Z</time></trkpt><trkpt lat="15.029295409948466" lon="120.71678467850754"><ele>6.0</ele><time>2026-04-19T08:51:26Z</time></trkpt><trkpt lat="15.029257461962084" lon="120.7168714056424"><ele>6.0</ele><time>2026-04-19T08:51:29Z</time></trkpt><trkpt lat="15.029286471183825" lon="120.71694411583162"><ele>6.0</ele><time>2026-04-19T08:51:32Z</time></trkpt><trkpt lat="15.0293493375164" lon="120.71697933097103"><ele>6.0</ele><time>2026-04-19T08:51:37Z</time></trkpt><trkpt lat="15.029409290026813" lon="120.71694534027554"><ele>6.0</ele><time>2026-04-19T08:51:40Z</time></trkpt><trkpt lat="15.029462192643548" lon="120.7168707943178"><ele>6.0</ele><time>2026-04-19T08:51:43Z</time></trkpt><trkpt lat="15.029527077618381" lon="120.71679726067033"><ele>6.0</ele><time>2026-04-19T08:51:45Z</time></trkpt><trkpt lat="15.029588849169684" lon="120.71672556874327"><ele>6.0</ele><time>2026-04-19T08:51:47Z</time></trkpt><trkpt lat="15.029648321392555" lon="120.71665342733556"><ele>6.0</ele><time>2026-04-19T08:51:49Z</time></trkpt><trkpt lat="15.02970659221053" lon="120.71658703050075"><ele>6.0</ele><time>2026-04-19T08:51:51Z</time></trkpt><trkpt lat="15.029747447468154" lon="120.71653286360541"><ele>6.0</ele><time>2026-04-19T08:51:53Z</time></trkpt><trkpt lat="15.029790271785487" lon="120.71647465648336"><ele>6.0</ele><time>2026-04-19T08:51:56Z</time></trkpt><trkpt lat="15.029852236244935" lon="120.7164010836029"><ele>6.0</ele><time>2026-04-19T08:51:59Z</time></trkpt><trkpt lat="15.029900253903302" lon="120.71635076758633"><ele>6.0</ele><time>2026-04-19T08:52:01Z</time></trkpt><trkpt lat="15.029960672138865" lon="120.71628856514037"><ele>6.166666666666667</ele><time>2026-04-19T08:52:04Z</time></trkpt><trkpt lat="15.030046045804212" lon="120.71627780403708"><ele>6.333333333333334</ele><time>2026-04-19T08:52:07Z</time></trkpt><trkpt lat="15.030132684294808" lon="120.71630295555453"><ele>6.5</ele><time>2026-04-19T08:52:10Z</time></trkpt><trkpt lat="15.030214673466437" lon="120.71625597154006"><ele>6.666666666666667</ele><time>2026-04-19T08:52:13Z</time></trkpt><trkpt lat="15.030273245929227" lon="120.71622292520355"><ele>6.833333333333334</ele><time>2026-04-19T08:52:16Z</time></trkpt><trkpt lat="15.030337348199268" lon="120.71628151601571"><ele>7.0</ele><time>2026-04-19T08:52:20Z</time></trkpt><trkpt lat="15.0303219167181" lon="120.71635213128077"><ele>7.000000000000001</ele><time>2026-04-19T08:52:22Z</time></trkpt><trkpt lat="15.030300167719023" lon="120.71642501786592"><ele>7.0</ele><time>2026-04-19T08:52:24Z</time></trkpt><trkpt lat="15.03023069057805" lon="120.71651783107384"><ele>7.0</ele><time>2026-04-19T08:52:26Z</time></trkpt><trkpt lat="15.030185806704662" lon="120.71656890842252"><ele>7.0</ele><time>2026-04-19T08:52:27Z</time></trkpt><trkpt lat="15.030144886790113" lon="120.7166272121074"><ele>7.000000000000001</ele><time>2026-04-19T08:52:28Z</time></trkpt><trkpt lat="15.030093053483338" lon="120.71669464244066"><ele>7.0</ele><time>2026-04-19T08:52:29Z</time></trkpt><trkpt lat="15.030042047831952" lon="120.71676469784364"><ele>7.0</ele><time>2026-04-19T08:52:30Z</time></trkpt><trkpt lat="15.029985691431527" lon="120.71683736220604"><ele>6.999999999999999</ele><time>2026-04-19T08:52:31Z</time></trkpt><trkpt lat="15.029920719517632" lon="120.716908018142"><ele>6.999999999999999</ele><time>2026-04-19T08:52:32Z</time></trkpt><trkpt lat="15.029854698525774" lon="120.71698616282856"><ele>7.0</ele><time>2026-04-19T08:52:33Z</time></trkpt><trkpt lat="15.02978254680156" lon="120.7170703331377"><ele>7.0</ele><time>2026-04-19T08:52:34Z</time></trkpt><trkpt lat="15.029710929207882" lon="120.71715418096986"><ele>7.0</ele><time>2026-04-19T08:52:35Z</time></trkpt><trkpt lat="15.029636818164096" lon="120.71724318823934"><ele>7.0</ele><time>2026-04-19T08:52:36Z</time></trkpt><trkpt lat="15.029561037448348" lon="120.71733579579312"><ele>7.0</ele><time>2026-04-19T08:52:37Z</time></trkpt><trkpt lat="15.029483669498003" lon="120.71743641366585"><ele>7.0</ele><time>2026-04-19T08:52:38Z</time></trkpt><trkpt lat="15.029401499036902" lon="120.71754384004277"><ele>7.0</ele><time>2026-04-19T08:52:39Z</time></trkpt><trkpt lat="15.029319277759239" lon="120.71764708994881"><ele>7.0</ele><time>2026-04-19T08:52:40Z</time></trkpt><trkpt lat="15.02923188459578" lon="120.71775795014904"><ele>7.0</ele><time>2026-04-19T08:52:41Z</time></trkpt><trkpt lat="15.029140998357787" lon="120.7178712037671"><ele>7.0</ele><time>2026-04-19T08:52:42Z</time></trkpt><trkpt lat="15.029046380649243" lon="120.71798577407644"><ele>6.333333333333334</ele><time>2026-04-19T08:52:43Z</time></trkpt><trkpt lat="15.028947829216419" lon="120.71810072377379"><ele>5.666666666666667</ele><time>2026-04-19T08:52:44Z</time></trkpt><trkpt lat="15.028846716141391" lon="120.71821865669664"><ele>5.0</ele><time>2026-04-19T08:52:45Z</time></trkpt><trkpt lat="15.028743416821737" lon="120.71833892949812"><ele>5.0</ele><time>2026-04-19T08:52:46Z</time></trkpt><trkpt lat="15.028639826284355" lon="120.71845853749181"><ele>5.0</ele><time>2026-04-19T08:52:47Z</time></trkpt><trkpt lat="15.02853852024502" lon="120.71858461399012"><ele>5.0</ele><time>2026-04-19T08:52:48Z</time></trkpt><trkpt lat="15.028431983253864" lon="120.71871151357097"><ele>5.333333333333334</ele><time>2026-04-19T08:52:49Z</time></trkpt><trkpt lat="15.02832055852457" lon="120.71883859817123"><ele>5.666666666666667</ele><time>2026-04-19T08:52:50Z</time></trkpt><trkpt lat="15.028209232071132" lon="120.7189655304399"><ele>6.0</ele><time>2026-04-19T08:52:51Z</time></trkpt><trkpt lat="15.02809486359101" lon="120.71909850211503"><ele>6.0</ele><time>2026-04-19T08:52:52Z</time></trkpt><trkpt lat="15.027983981225995" lon="120.7192282184223"><ele>6.0</ele><time>2026-04-19T08:52:53Z</time></trkpt><trkpt lat="15.027871005216435" lon="120.71935784316436"><ele>6.0</ele><time>2026-04-19T08:52:54Z</time></trkpt><trkpt lat="15.027760284367584" lon="120.71949189457207"><ele>5.666666666666667</ele><time>2026-04-19T08:52:55Z</time></trkpt><trkpt lat="15.027648030272605" lon="120.71961949620413"><ele>5.333333333333334</ele><time>2026-04-19T08:52:56Z</time></trkpt><trkpt lat="15.027533520592549" lon="120.71975557500869"><ele>5.0</ele><time>2026-04-19T08:52:57Z</time></trkpt><trkpt lat="15.027419224604154" lon="120.71988807866849"><ele>5.333333333333334</ele><time>2026-04-19T08:52:58Z</time></trkpt><trkpt lat="15.027304053434822" lon="120.7200237102925"><ele>5.666666666666667</ele><time>2026-04-19T08:52:59Z</time></trkpt><trkpt lat="15.027188802788482" lon="120.72015558845348"><ele>6.0</ele><time>2026-04-19T08:53:00Z</time></trkpt><trkpt lat="15.027073184910565" lon="120.72028856419736"><ele>6.0</ele><time>2026-04-19T08:53:01Z</time></trkpt><trkpt lat="15.026951868657928" lon="120.72041708173019"><ele>6.0</ele><time>2026-04-19T08:53:02Z</time></trkpt><trkpt lat="15.026832728523141" lon="120.72055220227317"><ele>6.0</ele><time>2026-04-19T08:53:03Z</time></trkpt><trkpt lat="15.026709649618672" lon="120.72069600863819"><ele>6.0</ele><time>2026-04-19T08:53:04Z</time></trkpt><trkpt lat="15.026585180518783" lon="120.72083383467152"><ele>6.0</ele><time>2026-04-19T08:53:05Z</time></trkpt><trkpt lat="15.026457714652524" lon="120.7209763248452"><ele>6.0</ele><time>2026-04-19T08:53:06Z</time></trkpt><trkpt lat="15.026326954029948" lon="120.72111550228213"><ele>6.0</ele><time>2026-04-19T08:53:07Z</time></trkpt><trkpt lat="15.026198130589982" lon="120.72126246106832"><ele>6.0</ele><time>2026-04-19T08:53:08Z</time></trkpt><trkpt lat="15.026068458331068" lon="120.7214128807694"><ele>6.0</ele><time>2026-04-19T08:53:09Z</time></trkpt><trkpt lat="15.02593768620958" lon="120.72156336253776"><ele>5.333333333333333</ele><time>2026-04-19T08:53:10Z</time></trkpt><trkpt lat="15.02580710639383" lon="120.72170916327231"><ele>4.666666666666666</ele><time>2026-04-19T08:53:11Z</time></trkpt><trkpt lat="15.025676683303347" lon="120.72185271947976"><ele>4.0</ele><time>2026-04-19T08:53:12Z</time></trkpt><trkpt lat="15.02554503093525" lon="120.72199638852453"><ele>3.6666666666666665</ele><time>2026-04-19T08:53:13Z</time></trkpt><trkpt lat="15.025419497771727" lon="120.72213923180534"><ele>3.333333333333333</ele><time>2026-04-19T08:53:14Z</time></trkpt><trkpt lat="15.025280426163334" lon="120.72228706292235"><ele>3.0</ele><time>2026-04-19T08:53:15Z</time></trkpt><trkpt lat="15.025147399246215" lon="120.7224303268476"><ele>3.0</ele><time>2026-04-19T08:53:16Z</time></trkpt><trkpt lat="15.025014477304431" lon="120.72257470596765"><ele>3.0</ele><time>2026-04-19T08:53:17Z</time></trkpt><trkpt lat="15.024878326006986" lon="120.72271837101596"><ele>3.0</ele><time>2026-04-19T08:53:18Z</time></trkpt><trkpt lat="15.02474329069067" lon="120.72286133570815"><ele>4.333333333333334</ele><time>2026-04-19T08:53:19Z</time></trkpt><trkpt lat="15.024607198344395" lon="120.72300412705168"><ele>5.666666666666667</ele><time>2026-04-19T08:53:20Z</time></trkpt><trkpt lat="15.024474647550196" lon="120.72314431870284"><ele>7.0</ele><time>2026-04-19T08:53:21Z</time></trkpt><trkpt lat="15.024345965385146" lon="120.72328137981636"><ele>7.0</ele><time>2026-04-19T08:53:22Z</time></trkpt><trkpt lat="15.024222686920645" lon="120.72341882449479"><ele>7.0</ele><time>2026-04-19T08:53:23Z</time></trkpt><trkpt lat="15.024101781188254" lon="120.72355281118948"><ele>7.0</ele><time>2026-04-19T08:53:24Z</time></trkpt><trkpt lat="15.02397332844882" lon="120.72369250249079"><ele>7.0</ele><time>2026-04-19T08:53:25Z</time></trkpt><trkpt lat="15.023865954204709" lon="120.72380997495023"><ele>7.0</ele><time>2026-04-19T08:53:26Z</time></trkpt><trkpt lat="15.023753063738859" lon="120.72393313253372"><ele>7.0</ele><time>2026-04-19T08:53:27Z</time></trkpt><trkpt lat="15.02364002432087" lon="120.72405509049744"><ele>7.0</ele><time>2026-04-19T08:53:28Z</time></trkpt><trkpt lat="15.02352820102076" lon="120.72417468150039"><ele>7.0</ele><time>2026-04-19T08:53:29Z</time></trkpt><trkpt lat="15.023414294430287" lon="120.72429880799658"><ele>7.0</ele><time>2026-04-19T08:53:30Z</time></trkpt><trkpt lat="15.02329968512519" lon="120.72442307869078"><ele>7.0</ele><time>2026-04-19T08:53:31Z</time></trkpt><trkpt lat="15.023188123835705" lon="120.72454684011404"><ele>7.0</ele><time>2026-04-19T08:53:32Z</time></trkpt><trkpt lat="15.023075386661947" lon="120.72466802324404"><ele>7.0</ele><time>2026-04-19T08:53:33Z</time></trkpt><trkpt lat="15.022961955590063" lon="120.72478922296233"><ele>7.0</ele><time>2026-04-19T08:53:34Z</time></trkpt><trkpt lat="15.022849796895244" lon="120.72491271058477"><ele>7.0</ele><time>2026-04-19T08:53:35Z</time></trkpt><trkpt lat="15.022736900624679" lon="120.7250358462688"><ele>7.0</ele><time>2026-04-19T08:53:36Z</time></trkpt><trkpt lat="15.022625466853643" lon="120.72515324697947"><ele>6.666666666666667</ele><time>2026-04-19T08:53:37Z</time></trkpt><trkpt lat="15.02251546207307" lon="120.72527221936457"><ele>6.333333333333334</ele><time>2026-04-19T08:53:38Z</time></trkpt><trkpt lat="15.022399349643019" lon="120.72539013586021"><ele>6.0</ele><time>2026-04-19T08:53:39Z</time></trkpt><trkpt lat="15.022282108237256" lon="120.72550719546629"><ele>6.666666666666666</ele><time>2026-04-19T08:53:40Z</time></trkpt><trkpt lat="15.022165372449205" lon="120.72562335774212"><ele>7.333333333333333</ele><time>2026-04-19T08:53:41Z</time></trkpt><trkpt lat="15.022047863932434" lon="120.72574131783779"><ele>8.0</ele><time>2026-04-19T08:53:42Z</time></trkpt><trkpt lat="15.021930142478094" lon="120.7258597608983"><ele>8.0</ele><time>2026-04-19T08:53:43Z</time></trkpt><trkpt lat="15.021811233043477" lon="120.72598178238822"><ele>8.0</ele><time>2026-04-19T08:53:44Z</time></trkpt><trkpt lat="15.021691508321553" lon="120.72610257598882"><ele>8.0</ele><time>2026-04-19T08:53:45Z</time></trkpt><trkpt lat="15.02156968682655" lon="120.72622496963393"><ele>6.666666666666666</ele><time>2026-04-19T08:53:46Z</time></trkpt><trkpt lat="15.021447422959678" lon="120.72635069628613"><ele>5.333333333333333</ele><time>2026-04-19T08:53:47Z</time></trkpt><trkpt lat="15.021322280850935" lon="120.7264775270238"><ele>4.0</ele><time>2026-04-19T08:53:48Z</time></trkpt><trkpt lat="15.021196027262631" lon="120.72660404498862"><ele>4.0</ele><time>2026-04-19T08:53:49Z</time></trkpt><trkpt lat="15.021067230219586" lon="120.72673287718408"><ele>4.0</ele><time>2026-04-19T08:53:50Z</time></trkpt><trkpt lat="15.020939342397044" lon="120.72686057843117"><ele>4.0</ele><time>2026-04-19T08:53:51Z</time></trkpt><trkpt lat="15.020812308524947" lon="120.7269873488674"><ele>3.0</ele><time>2026-04-19T08:53:52Z</time></trkpt><trkpt lat="15.0206867006358" lon="120.72711209400404"><ele>2.0</ele><time>2026-04-19T08:53:53Z</time></trkpt><trkpt lat="15.020561583949135" lon="120.72723485596558"><ele>1.0</ele><time>2026-04-19T08:53:54Z</time></trkpt><trkpt lat="15.020435998830333" lon="120.72735793525882"><ele>1.0</ele><time>2026-04-19T08:53:55Z</time></trkpt><trkpt lat="15.020308947724692" lon="120.72748044769824"><ele>1.0</ele><time>2026-04-19T08:53:56Z</time></trkpt><trkpt lat="15.020183078331652" lon="120.72760248534685"><ele>1.0</ele><time>2026-04-19T08:53:57Z</time></trkpt><trkpt lat="15.020058511275991" lon="120.72772393065725"><ele>1.3333333333333333</ele><time>2026-04-19T08:53:58Z</time></trkpt><trkpt lat="15.019932613243952" lon="120.72784462521324"><ele>1.6666666666666665</ele><time>2026-04-19T08:53:59Z</time></trkpt><trkpt lat="15.019805721745383" lon="120.72796429402244"><ele>2.0</ele><time>2026-04-19T08:54:00Z</time></trkpt><trkpt lat="15.019681641727239" lon="120.72808580009018"><ele>2.0</ele><time>2026-04-19T08:54:01Z</time></trkpt><trkpt lat="15.019558135751518" lon="120.72821297866027"><ele>2.0</ele><time>2026-04-19T08:54:02Z</time></trkpt><trkpt lat="15.01943235822243" lon="120.72833462346505"><ele>2.0</ele><time>2026-04-19T08:54:03Z</time></trkpt><trkpt lat="15.01930518743422" lon="120.72845714536008"><ele>2.333333333333333</ele><time>2026-04-19T08:54:04Z</time></trkpt><trkpt lat="15.019177059735764" lon="120.72858217356762"><ele>2.6666666666666665</ele><time>2026-04-19T08:54:05Z</time></trkpt><trkpt lat="15.019050332389787" lon="120.72870430087275"><ele>3.0</ele><time>2026-04-19T08:54:06Z</time></trkpt><trkpt lat="15.01892365617444" lon="120.72882481971115"><ele>3.333333333333333</ele><time>2026-04-19T08:54:07Z</time></trkpt><trkpt lat="15.018796145163673" lon="120.728943897501"><ele>3.6666666666666665</ele><time>2026-04-19T08:54:08Z</time></trkpt><trkpt lat="15.018667889517468" lon="120.72906394615318"><ele>4.0</ele><time>2026-04-19T08:54:09Z</time></trkpt><trkpt lat="15.01853990263868" lon="120.72918318834856"><ele>4.0</ele><time>2026-04-19T08:54:10Z</time></trkpt><trkpt lat="15.018410165935958" lon="120.72930343029464"><ele>4.0</ele><time>2026-04-19T08:54:11Z</time></trkpt><trkpt lat="15.018279041545972" lon="120.7294260122796"><ele>4.0</ele><time>2026-04-19T08:54:12Z</time></trkpt><trkpt lat="15.018147014126127" lon="120.7295503063708"><ele>5.333333333333333</ele><time>2026-04-19T08:54:13Z</time></trkpt><trkpt lat="15.018012950845243" lon="120.7296777150508"><ele>6.666666666666666</ele><time>2026-04-19T08:54:14Z</time></trkpt><trkpt lat="15.017875259803125" lon="120.72980686450516"><ele>8.0</ele><time>2026-04-19T08:54:15Z</time></trkpt><trkpt lat="15.017736171880173" lon="120.72993859627195"><ele>8.0</ele><time>2026-04-19T08:54:16Z</time></trkpt><trkpt lat="15.017594667272835" lon="120.7300737147231"><ele>8.0</ele><time>2026-04-19T08:54:17Z</time></trkpt><trkpt lat="15.017450233806644" lon="120.73021249259514"><ele>8.0</ele><time>2026-04-19T08:54:18Z</time></trkpt><trkpt lat="15.017305194112463" lon="120.73035108427428"><ele>7.333333333333333</ele><time>2026-04-19T08:54:19Z</time></trkpt><trkpt lat="15.017160305474025" lon="120.73048843543917"><ele>6.666666666666666</ele><time>2026-04-19T08:54:20Z</time></trkpt><trkpt lat="15.017015112684076" lon="120.73062337650495"><ele>6.0</ele><time>2026-04-19T08:54:21Z</time></trkpt><trkpt lat="15.016869397281354" lon="120.7307571488551"><ele>6.0</ele><time>2026-04-19T08:54:22Z</time></trkpt><trkpt lat="15.016722688128015" lon="120.73088707195762"><ele>6.0</ele><time>2026-04-19T08:54:23Z</time></trkpt><trkpt lat="15.01657787271507" lon="120.7310117140371"><ele>6.0</ele><time>2026-04-19T08:54:24Z</time></trkpt><trkpt lat="15.016437622109654" lon="120.73113335287765"><ele>6.333333333333334</ele><time>2026-04-19T08:54:25Z</time></trkpt><trkpt lat="15.016302000028173" lon="120.73125137963916"><ele>6.666666666666667</ele><time>2026-04-19T08:54:26Z</time></trkpt><trkpt lat="15.016171442340397" lon="120.73136865115917"><ele>7.0</ele><time>2026-04-19T08:54:27Z</time></trkpt><trkpt lat="15.016046801188285" lon="120.73148206362858"><ele>7.0</ele><time>2026-04-19T08:54:28Z</time></trkpt><trkpt lat="15.015925319720454" lon="120.73159291669711"><ele>7.0</ele><time>2026-04-19T08:54:29Z</time></trkpt><trkpt lat="15.015805219169435" lon="120.73170229475137"><ele>7.0</ele><time>2026-04-19T08:54:30Z</time></trkpt><trkpt lat="15.015686058697305" lon="120.7318091985961"><ele>6.666666666666667</ele><time>2026-04-19T08:54:31Z</time></trkpt><trkpt lat="15.01556825289426" lon="120.73191626467015"><ele>6.333333333333334</ele><time>2026-04-19T08:54:32Z</time></trkpt><trkpt lat="15.015451097376761" lon="120.73202153015312"><ele>6.0</ele><time>2026-04-19T08:54:33Z</time></trkpt><trkpt lat="15.01533614430274" lon="120.73212410051805"><ele>6.0</ele><time>2026-04-19T08:54:34Z</time></trkpt><trkpt lat="15.015222980856047" lon="120.7322240060251"><ele>6.0</ele><time>2026-04-19T08:54:35Z</time></trkpt><trkpt lat="15.015111521387007" lon="120.73232301492035"><ele>6.0</ele><time>2026-04-19T08:54:36Z</time></trkpt><trkpt lat="15.014998656613297" lon="120.73242326291845"><ele>6.0</ele><time>2026-04-19T08:54:37Z</time></trkpt><trkpt lat="15.01488500688227" lon="120.73252409159323"><ele>6.0</ele><time>2026-04-19T08:54:38Z</time></trkpt><trkpt lat="15.01477037628646" lon="120.73262511793351"><ele>6.0</ele><time>2026-04-19T08:54:39Z</time></trkpt><trkpt lat="15.014653445914023" lon="120.73272746816924"><ele>6.0</ele><time>2026-04-19T08:54:40Z</time></trkpt><trkpt lat="15.01453537968234" lon="120.73283060003774"><ele>6.0</ele><time>2026-04-19T08:54:41Z</time></trkpt><trkpt lat="15.014416253493632" lon="120.73293307351172"><ele>6.0</ele><time>2026-04-19T08:54:42Z</time></trkpt><trkpt lat="15.014296621851086" lon="120.73303627416385"><ele>6.0</ele><time>2026-04-19T08:54:43Z</time></trkpt><trkpt lat="15.014174961917321" lon="120.73314137315435"><ele>6.666666666666666</ele><time>2026-04-19T08:54:44Z</time></trkpt><trkpt lat="15.014053642016481" lon="120.73324705549878"><ele>7.333333333333333</ele><time>2026-04-19T08:54:45Z</time></trkpt><trkpt lat="15.013929628705466" lon="120.73335078143097"><ele>8.0</ele><time>2026-04-19T08:54:46Z</time></trkpt><trkpt lat="15.013808758483027" lon="120.73345537478707"><ele>7.333333333333333</ele><time>2026-04-19T08:54:47Z</time></trkpt><trkpt lat="15.013688435079088" lon="120.7335623068584"><ele>6.666666666666666</ele><time>2026-04-19T08:54:48Z</time></trkpt><trkpt lat="15.013564345275311" lon="120.73366894284725"><ele>6.0</ele><time>2026-04-19T08:54:49Z</time></trkpt><trkpt lat="15.013437826632428" lon="120.73377717830205"><ele>6.333333333333334</ele><time>2026-04-19T08:54:50Z</time></trkpt><trkpt lat="15.0133103015521" lon="120.7338884856803"><ele>6.666666666666667</ele><time>2026-04-19T08:54:51Z</time></trkpt><trkpt lat="15.013181743527692" lon="120.73400328550798"><ele>7.0</ele><time>2026-04-19T08:54:52Z</time></trkpt><trkpt lat="15.013049212804225" lon="120.73412147267602"><ele>7.0</ele><time>2026-04-19T08:54:53Z</time></trkpt><trkpt lat="15.012915460276655" lon="120.73424088205874"><ele>7.0</ele><time>2026-04-19T08:54:54Z</time></trkpt><trkpt lat="15.012778914048573" lon="120.73436157979626"><ele>7.0</ele><time>2026-04-19T08:54:55Z</time></trkpt><trkpt lat="15.012638173175255" lon="120.7344866264582"><ele>7.333333333333334</ele><time>2026-04-19T08:54:56Z</time></trkpt><trkpt lat="15.012493308255994" lon="120.73461351095557"><ele>7.666666666666666</ele><time>2026-04-19T08:54:57Z</time></trkpt><trkpt lat="15.012343775375658" lon="120.73474249757925"><ele>8.0</ele><time>2026-04-19T08:54:58Z</time></trkpt><trkpt lat="15.012188524822967" lon="120.7348737001482"><ele>8.333333333333332</ele><time>2026-04-19T08:54:59Z</time></trkpt><trkpt lat="15.012029330825605" lon="120.73500750157106"><ele>8.666666666666666</ele><time>2026-04-19T08:55:00Z</time></trkpt><trkpt lat="15.011865719630674" lon="120.73514457284134"><ele>9.0</ele><time>2026-04-19T08:55:01Z</time></trkpt><trkpt lat="15.011698657905129" lon="120.73528395723123"><ele>8.0</ele><time>2026-04-19T08:55:02Z</time></trkpt><trkpt lat="15.011525610985748" lon="120.73542600238834"><ele>7.0</ele><time>2026-04-19T08:55:03Z</time></trkpt><trkpt lat="15.0113504223493" lon="120.73556784664765"><ele>6.0</ele><time>2026-04-19T08:55:04Z</time></trkpt><trkpt lat="15.011174066784836" lon="120.7357112198906"><ele>6.0</ele><time>2026-04-19T08:55:05Z</time></trkpt><trkpt lat="15.01099584822834" lon="120.73585817557151"><ele>6.0</ele><time>2026-04-19T08:55:06Z</time></trkpt><trkpt lat="15.010816203689153" lon="120.73600560205367"><ele>5.5</ele><time>2026-04-19T08:55:07Z</time></trkpt><trkpt lat="15.010635501152535" lon="120.7361535899934"><ele>5.0</ele><time>2026-04-19T08:55:08Z</time></trkpt><trkpt lat="15.010452646897786" lon="120.73630192698475"><ele>5.0</ele><time>2026-04-19T08:55:09Z</time></trkpt><trkpt lat="15.010268684930734" lon="120.73644929323804"><ele>5.0</ele><time>2026-04-19T08:55:10Z</time></trkpt><trkpt lat="15.010084757904206" lon="120.7365955700558"><ele>4.5</ele><time>2026-04-19T08:55:11Z</time></trkpt><trkpt lat="15.009899443918298" lon="120.73674426956391"><ele>4.0</ele><time>2026-04-19T08:55:12Z</time></trkpt><trkpt lat="15.009713606477062" lon="120.73689315955077"><ele>5.5</ele><time>2026-04-19T08:55:13Z</time></trkpt><trkpt lat="15.009526704512423" lon="120.73704129666548"><ele>7.0</ele><time>2026-04-19T08:55:14Z</time></trkpt><trkpt lat="15.009336494621694" lon="120.7371907383131"><ele>5.5</ele><time>2026-04-19T08:55:15Z</time></trkpt><trkpt lat="15.009146762116615" lon="120.7373415400288"><ele>4.0</ele><time>2026-04-19T08:55:16Z</time></trkpt><trkpt lat="15.008959148022363" lon="120.7374894593059"><ele>4.0</ele><time>2026-04-19T08:55:17Z</time></trkpt><trkpt lat="15.008772504793535" lon="120.73763405903217"><ele>4.0</ele><time>2026-04-19T08:55:18Z</time></trkpt><trkpt lat="15.008588588815586" lon="120.73777554360936"><ele>4.5</ele><time>2026-04-19T08:55:19Z</time></trkpt><trkpt lat="15.008407356464152" lon="120.73791598207211"><ele>5.0</ele><time>2026-04-19T08:55:20Z</time></trkpt><trkpt lat="15.00822775705775" lon="120.73805352373147"><ele>5.0</ele><time>2026-04-19T08:55:21Z</time></trkpt><trkpt lat="15.008051166194493" lon="120.73819082582428"><ele>5.0</ele><time>2026-04-19T08:55:22Z</time></trkpt><trkpt lat="15.00787276908146" lon="120.73832832846837"><ele>5.0</ele><time>2026-04-19T08:55:23Z</time></trkpt><trkpt lat="15.007693566042024" lon="120.7384649431341"><ele>5.666666666666667</ele><time>2026-04-19T08:55:24Z</time></trkpt><trkpt lat="15.007513078675768" lon="120.73860286884825"><ele>6.333333333333334</ele><time>2026-04-19T08:55:25Z</time></trkpt><trkpt lat="15.007334125558055" lon="120.73873876775167"><ele>7.0</ele><time>2026-04-19T08:55:26Z</time></trkpt><trkpt lat="15.007153765565565" lon="120.73887629877856"><ele>7.0</ele><time>2026-04-19T08:55:27Z</time></trkpt><trkpt lat="15.00697235548873" lon="120.73901128232683"><ele>7.0</ele><time>2026-04-19T08:55:28Z</time></trkpt><trkpt lat="15.006789542859318" lon="120.73914935404714"><ele>6.5</ele><time>2026-04-19T08:55:29Z</time></trkpt><trkpt lat="15.006606005331255" lon="120.73928554798452"><ele>6.0</ele><time>2026-04-19T08:55:29.999Z</time></trkpt><trkpt lat="15.006422776680736" lon="120.73942111258677"><ele>5.666666666666667</ele><time>2026-04-19T08:55:30.999Z</time></trkpt><trkpt lat="15.006241814117207" lon="120.7395572705934"><ele>5.333333333333334</ele><time>2026-04-19T08:55:31.999Z</time></trkpt><trkpt lat="15.006061831537497" lon="120.73968953915976"><ele>5.0</ele><time>2026-04-19T08:55:32.999Z</time></trkpt><trkpt lat="15.0058834063291" lon="120.73981993574935"><ele>5.0</ele><time>2026-04-19T08:55:33.999Z</time></trkpt><trkpt lat="15.005707800537778" lon="120.73994751780315"><ele>5.0</ele><time>2026-04-19T08:55:34.999Z</time></trkpt><trkpt lat="15.005534444843473" lon="120.74007543810276"><ele>5.0</ele><time>2026-04-19T08:55:36Z</time></trkpt><trkpt lat="15.005360182678574" lon="120.7402037942493"><ele>5.0</ele><time>2026-04-19T08:55:37Z</time></trkpt><trkpt lat="15.005188946487408" lon="120.74032807613703"><ele>5.0</ele><time>2026-04-19T08:55:38Z</time></trkpt><trkpt lat="15.005019597623658" lon="120.74045053635442"><ele>5.0</ele><time>2026-04-19T08:55:39Z</time></trkpt><trkpt lat="15.004852918589917" lon="120.74057139680123"><ele>5.333333333333334</ele><time>2026-04-19T08:55:40Z</time></trkpt><trkpt lat="15.004687504725615" lon="120.74069071802742"><ele>5.666666666666667</ele><time>2026-04-19T08:55:41Z</time></trkpt><trkpt lat="15.004523696389173" lon="120.74080702672394"><ele>6.0</ele><time>2026-04-19T08:55:42Z</time></trkpt><trkpt lat="15.004360620117154" lon="120.74092506611078"><ele>6.0</ele><time>2026-04-19T08:55:43Z</time></trkpt><trkpt lat="15.004197820711246" lon="120.74104188560284"><ele>6.0</ele><time>2026-04-19T08:55:44Z</time></trkpt><trkpt lat="15.004033633214593" lon="120.74115797391953"><ele>6.0</ele><time>2026-04-19T08:55:45Z</time></trkpt><trkpt lat="15.003869608435856" lon="120.74127495299254"><ele>6.0</ele><time>2026-04-19T08:55:46Z</time></trkpt><trkpt lat="15.003703588596252" lon="120.7413913041992"><ele>6.0</ele><time>2026-04-19T08:55:47Z</time></trkpt><trkpt lat="15.003537946460733" lon="120.7415104315231"><ele>6.0</ele><time>2026-04-19T08:55:48Z</time></trkpt><trkpt lat="15.003372779679058" lon="120.74162970328659"><ele>6.666666666666666</ele><time>2026-04-19T08:55:49Z</time></trkpt><trkpt lat="15.003208546175177" lon="120.74174766699882"><ele>7.333333333333333</ele><time>2026-04-19T08:55:50Z</time></trkpt><trkpt lat="15.003044027619428" lon="120.7418663297723"><ele>8.0</ele><time>2026-04-19T08:55:51Z</time></trkpt><trkpt lat="15.002878114089865" lon="120.74198301735568"><ele>8.0</ele><time>2026-04-19T08:55:52Z</time></trkpt><trkpt lat="15.002711112920778" lon="120.74210138216736"><ele>8.0</ele><time>2026-04-19T08:55:53Z</time></trkpt><trkpt lat="15.002542710536597" lon="120.74221977554838"><ele>8.0</ele><time>2026-04-19T08:55:54Z</time></trkpt><trkpt lat="15.002371960691027" lon="120.7423374697513"><ele>8.0</ele><time>2026-04-19T08:55:55Z</time></trkpt><trkpt lat="15.002200810751424" lon="120.74245484022293"><ele>8.0</ele><time>2026-04-19T08:55:56Z</time></trkpt><trkpt lat="15.002028588954735" lon="120.74257432755293"><ele>8.0</ele><time>2026-04-19T08:55:57Z</time></trkpt><trkpt lat="15.001856315663353" lon="120.74269281279747"><ele>8.333333333333332</ele><time>2026-04-19T08:55:58Z</time></trkpt><trkpt lat="15.001681883775225" lon="120.74281248193326"><ele>8.666666666666666</ele><time>2026-04-19T08:55:59Z</time></trkpt><trkpt lat="15.001505899343176" lon="120.74293236118655"><ele>9.0</ele><time>2026-04-19T08:56:00Z</time></trkpt><trkpt lat="15.00132826831031" lon="120.74305394155445"><ele>8.0</ele><time>2026-04-19T08:56:01Z</time></trkpt><trkpt lat="15.001148305539607" lon="120.74317620200941"><ele>7.0</ele><time>2026-04-19T08:56:02Z</time></trkpt><trkpt lat="15.000967013095963" lon="120.74329978507232"><ele>6.0</ele><time>2026-04-19T08:56:03Z</time></trkpt><trkpt lat="15.00078230579949" lon="120.74342386870164"><ele>6.333333333333334</ele><time>2026-04-19T08:56:04Z</time></trkpt><trkpt lat="15.000595888496644" lon="120.7435484222449"><ele>6.666666666666667</ele><time>2026-04-19T08:56:05Z</time></trkpt><trkpt lat="15.00040912927066" lon="120.74367429123552"><ele>7.0</ele><time>2026-04-19T08:56:06Z</time></trkpt><trkpt lat="15.00022032706427" lon="120.74379966438846"><ele>7.0</ele><time>2026-04-19T08:56:07Z</time></trkpt><trkpt lat="15.00002946546009" lon="120.74392649969984"><ele>7.0</ele><time>2026-04-19T08:56:08Z</time></trkpt><trkpt lat="14.999838727752268" lon="120.74405344472223"><ele>7.0</ele><time>2026-04-19T08:56:09Z</time></trkpt><trkpt lat="14.999646464817795" lon="120.74418099136517"><ele>7.0</ele><time>2026-04-19T08:56:10Z</time></trkpt><trkpt lat="14.999452499261723" lon="120.74430984084971"><ele>6.0</ele><time>2026-04-19T08:56:11Z</time></trkpt><trkpt lat="14.99925804903861" lon="120.74444003640612"><ele>5.0</ele><time>2026-04-19T08:56:12Z</time></trkpt><trkpt lat="14.99906259097832" lon="120.7445673124586"><ele>5.0</ele><time>2026-04-19T08:56:13Z</time></trkpt><trkpt lat="14.998867550465755" lon="120.74469391500793"><ele>5.0</ele><time>2026-04-19T08:56:14Z</time></trkpt><trkpt lat="14.99867220911438" lon="120.74482082790092"><ele>5.0</ele><time>2026-04-19T08:56:15Z</time></trkpt><trkpt lat="14.998478630020491" lon="120.74494721583523"><ele>5.0</ele><time>2026-04-19T08:56:16Z</time></trkpt><trkpt lat="14.998287243775911" lon="120.7450710065428"><ele>4.666666666666667</ele><time>2026-04-19T08:56:17Z</time></trkpt><trkpt lat="14.998096878584713" lon="120.74519239191046"><ele>4.333333333333333</ele><time>2026-04-19T08:56:18Z</time></trkpt><trkpt lat="14.99790308108967" lon="120.74531243629153"><ele>4.0</ele><time>2026-04-19T08:56:19Z</time></trkpt><trkpt lat="14.99770553354785" lon="120.74543238446782"><ele>4.0</ele><time>2026-04-19T08:56:20Z</time></trkpt><trkpt lat="14.997505897920407" lon="120.74555152124626"><ele>4.0</ele><time>2026-04-19T08:56:21Z</time></trkpt><trkpt lat="14.997306747290054" lon="120.74567218829768"><ele>5.0</ele><time>2026-04-19T08:56:22Z</time></trkpt><trkpt lat="14.99711086252775" lon="120.74579309477556"><ele>6.0</ele><time>2026-04-19T08:56:23Z</time></trkpt><trkpt lat="14.996917048755327" lon="120.74591199748102"><ele>6.0</ele><time>2026-04-19T08:56:24Z</time></trkpt><trkpt lat="14.996724001424226" lon="120.74602967849533"><ele>6.0</ele><time>2026-04-19T08:56:25Z</time></trkpt><trkpt lat="14.996531241778907" lon="120.74614709382665"><ele>6.0</ele><time>2026-04-19T08:56:26Z</time></trkpt><trkpt lat="14.99633782361241" lon="120.74626579188077"><ele>6.0</ele><time>2026-04-19T08:56:27Z</time></trkpt><trkpt lat="14.996145447659522" lon="120.74638437807246"><ele>6.0</ele><time>2026-04-19T08:56:28Z</time></trkpt><trkpt lat="14.995952470203253" lon="120.74650303033428"><ele>6.0</ele><time>2026-04-19T08:56:29Z</time></trkpt><trkpt lat="14.995763431224194" lon="120.74662034141414"><ele>6.666666666666666</ele><time>2026-04-19T08:56:30Z</time></trkpt><trkpt lat="14.995573750722828" lon="120.74673814336717"><ele>7.333333333333333</ele><time>2026-04-19T08:56:31Z</time></trkpt><trkpt lat="14.995388443437472" lon="120.74685352742041"><ele>8.0</ele><time>2026-04-19T08:56:32Z</time></trkpt><trkpt lat="14.995206017081589" lon="120.74696763602708"><ele>8.0</ele><time>2026-04-19T08:56:33Z</time></trkpt><trkpt lat="14.995026856268057" lon="120.74707966815815"><ele>8.0</ele><time>2026-04-19T08:56:34Z</time></trkpt><trkpt lat="14.994852362102701" lon="120.7471872842953"><ele>8.0</ele><time>2026-04-19T08:56:35Z</time></trkpt><trkpt lat="14.994682659870813" lon="120.7472893534596"><ele>8.0</ele><time>2026-04-19T08:56:36Z</time></trkpt><trkpt lat="14.994518202158684" lon="120.74738679638239"><ele>8.0</ele><time>2026-04-19T08:56:37Z</time></trkpt><trkpt lat="14.994359813123415" lon="120.74748037020609"><ele>8.0</ele><time>2026-04-19T08:56:38Z</time></trkpt><trkpt lat="14.994204751066253" lon="120.74757270647159"><ele>8.0</ele><time>2026-04-19T08:56:39Z</time></trkpt><trkpt lat="14.994051677547724" lon="120.74766401546914"><ele>8.0</ele><time>2026-04-19T08:56:40Z</time></trkpt><trkpt lat="14.993897145253817" lon="120.7477540233699"><ele>8.0</ele><time>2026-04-19T08:56:41Z</time></trkpt><trkpt lat="14.993741637397383" lon="120.74784537575366"><ele>8.0</ele><time>2026-04-19T08:56:42Z</time></trkpt><trkpt lat="14.993584283511593" lon="120.74793412249613"><ele>8.0</ele><time>2026-04-19T08:56:43Z</time></trkpt><trkpt lat="14.993424032930555" lon="120.74802593018275"><ele>8.0</ele><time>2026-04-19T08:56:44Z</time></trkpt><trkpt lat="14.993261718118065" lon="120.74811798174022"><ele>9.666666666666666</ele><time>2026-04-19T08:56:45Z</time></trkpt><trkpt lat="14.993096821174715" lon="120.74821382342526"><ele>11.333333333333332</ele><time>2026-04-19T08:56:46Z</time></trkpt><trkpt lat="14.992929401405279" lon="120.74831112522844"><ele>13.0</ele><time>2026-04-19T08:56:47Z</time></trkpt><trkpt lat="14.992758626546182" lon="120.74841115121902"><ele>13.0</ele><time>2026-04-19T08:56:48Z</time></trkpt><trkpt lat="14.992584928461474" lon="120.7485110666768"><ele>13.0</ele><time>2026-04-19T08:56:49Z</time></trkpt><trkpt lat="14.99240797742153" lon="120.74861328877812"><ele>13.0</ele><time>2026-04-19T08:56:50Z</time></trkpt><trkpt lat="14.992228453133395" lon="120.74871614383973"><ele>12.666666666666666</ele><time>2026-04-19T08:56:51Z</time></trkpt><trkpt lat="14.99204650177801" lon="120.74882096926883"><ele>12.333333333333332</ele><time>2026-04-19T08:56:52Z</time></trkpt><trkpt lat="14.991862550553563" lon="120.74892746864501"><ele>12.0</ele><time>2026-04-19T08:56:53Z</time></trkpt><trkpt lat="14.991676394891215" lon="120.74903382176049"><ele>11.333333333333334</ele><time>2026-04-19T08:56:54Z</time></trkpt><trkpt lat="14.991487914714654" lon="120.74914141322505"><ele>10.666666666666668</ele><time>2026-04-19T08:56:55Z</time></trkpt><trkpt lat="14.991297227141079" lon="120.74924874319841"><ele>10.0</ele><time>2026-04-19T08:56:56Z</time></trkpt><trkpt lat="14.991105145977825" lon="120.74935621002957"><ele>9.666666666666668</ele><time>2026-04-19T08:56:57Z</time></trkpt><trkpt lat="14.990911706803349" lon="120.7494636651325"><ele>9.333333333333334</ele><time>2026-04-19T08:56:58Z</time></trkpt><trkpt lat="14.990717542631296" lon="120.74957212907877"><ele>9.0</ele><time>2026-04-19T08:56:59Z</time></trkpt><trkpt lat="14.990521674363446" lon="120.74968041231942"><ele>9.333333333333334</ele><time>2026-04-19T08:57:00Z</time></trkpt><trkpt lat="14.990323809188101" lon="120.74978846713338"><ele>9.666666666666668</ele><time>2026-04-19T08:57:01Z</time></trkpt><trkpt lat="14.990124969842764" lon="120.7498976916123"><ele>10.0</ele><time>2026-04-19T08:57:02Z</time></trkpt><trkpt lat="14.98992632213463" lon="120.75000646759972"><ele>10.0</ele><time>2026-04-19T08:57:03Z</time></trkpt><trkpt lat="14.989728543296074" lon="120.75011290946107"><ele>10.0</ele><time>2026-04-19T08:57:04Z</time></trkpt><trkpt lat="14.989530413576706" lon="120.750219323983"><ele>10.0</ele><time>2026-04-19T08:57:05Z</time></trkpt><trkpt lat="14.989332205231163" lon="120.75032516239679"><ele>9.5</ele><time>2026-04-19T08:57:06Z</time></trkpt><trkpt lat="14.989132301012797" lon="120.7504331702742"><ele>9.0</ele><time>2026-04-19T08:57:07Z</time></trkpt><trkpt lat="14.98893130912092" lon="120.7505432881767"><ele>9.0</ele><time>2026-04-19T08:57:08Z</time></trkpt><trkpt lat="14.988729240018436" lon="120.75065537672748"><ele>9.0</ele><time>2026-04-19T08:57:09Z</time></trkpt><trkpt lat="14.988525444181745" lon="120.75076674023123"><ele>9.0</ele><time>2026-04-19T08:57:10Z</time></trkpt><trkpt lat="14.988321961338013" lon="120.75087744180288"><ele>9.0</ele><time>2026-04-19T08:57:11Z</time></trkpt><trkpt lat="14.988117631197182" lon="120.75099102566773"><ele>7.0</ele><time>2026-04-19T08:57:12Z</time></trkpt><trkpt lat="14.987915247943603" lon="120.75110386872305"><ele>5.0</ele><time>2026-04-19T08:57:13Z</time></trkpt><trkpt lat="14.987713228198523" lon="120.7512162610057"><ele>5.0</ele><time>2026-04-19T08:57:14Z</time></trkpt><trkpt lat="14.987512788447827" lon="120.75132734762471"><ele>5.0</ele><time>2026-04-19T08:57:15Z</time></trkpt><trkpt lat="14.987315526477499" lon="120.7514370799762"><ele>5.666666666666667</ele><time>2026-04-19T08:57:16Z</time></trkpt><trkpt lat="14.987121153110603" lon="120.75154604515203"><ele>6.333333333333334</ele><time>2026-04-19T08:57:17Z</time></trkpt><trkpt lat="14.986930837766147" lon="120.75165426296167"><ele>7.0</ele><time>2026-04-19T08:57:18Z</time></trkpt><trkpt lat="14.986742978355803" lon="120.751760187602"><ele>7.0</ele><time>2026-04-19T08:57:19Z</time></trkpt><trkpt lat="14.986559568094854" lon="120.75186623546998"><ele>7.0</ele><time>2026-04-19T08:57:20Z</time></trkpt><trkpt lat="14.986380018382917" lon="120.7519693382585"><ele>7.0</ele><time>2026-04-19T08:57:21Z</time></trkpt><trkpt lat="14.986204791214025" lon="120.7520688575877"><ele>7.0</ele><time>2026-04-19T08:57:22Z</time></trkpt><trkpt lat="14.986035424717286" lon="120.75216515666708"><ele>7.0</ele><time>2026-04-19T08:57:23Z</time></trkpt><trkpt lat="14.985869248668463" lon="120.7522595718282"><ele>7.0</ele><time>2026-04-19T08:57:24Z</time></trkpt><trkpt lat="14.98570407441112" lon="120.75235254264348"><ele>6.666666666666667</ele><time>2026-04-19T08:57:25Z</time></trkpt><trkpt lat="14.985538285789415" lon="120.75244350777525"><ele>6.333333333333334</ele><time>2026-04-19T08:57:26Z</time></trkpt><trkpt lat="14.985373541947467" lon="120.75253321029261"><ele>6.0</ele><time>2026-04-19T08:57:27Z</time></trkpt><trkpt lat="14.985209590734678" lon="120.75262584820535"><ele>5.666666666666667</ele><time>2026-04-19T08:57:28Z</time></trkpt><trkpt lat="14.985049541409614" lon="120.75271725795339"><ele>5.333333333333334</ele><time>2026-04-19T08:57:29Z</time></trkpt><trkpt lat="14.984895298728466" lon="120.7528063546653"><ele>5.0</ele><time>2026-04-19T08:57:30Z</time></trkpt><trkpt lat="14.984748630663043" lon="120.75289092214997"><ele>5.0</ele><time>2026-04-19T08:57:31Z</time></trkpt><trkpt lat="14.984606572287083" lon="120.75297473788275"><ele>5.0</ele><time>2026-04-19T08:57:32Z</time></trkpt><trkpt lat="14.984467154297318" lon="120.7530582069485"><ele>5.0</ele><time>2026-04-19T08:57:33Z</time></trkpt><trkpt lat="14.984328520487477" lon="120.75314248692553"><ele>5.0</ele><time>2026-04-19T08:57:34Z</time></trkpt><trkpt lat="14.984192443337799" lon="120.75322507376762"><ele>5.0</ele><time>2026-04-19T08:57:35Z</time></trkpt><trkpt lat="14.9840592308429" lon="120.75330802446088"><ele>5.0</ele><time>2026-04-19T08:57:36Z</time></trkpt><trkpt lat="14.983927875787257" lon="120.75338820295164"><ele>5.0</ele><time>2026-04-19T08:57:37Z</time></trkpt><trkpt lat="14.98379756455969" lon="120.75347282268297"><ele>5.0</ele><time>2026-04-19T08:57:38Z</time></trkpt><trkpt lat="14.983666086076088" lon="120.75355660870075"><ele>5.0</ele><time>2026-04-19T08:57:39Z</time></trkpt><trkpt lat="14.983534209747306" lon="120.75364326594108"><ele>5.0</ele><time>2026-04-19T08:57:40Z</time></trkpt><trkpt lat="14.98339882846132" lon="120.75373205052041"><ele>5.0</ele><time>2026-04-19T08:57:41Z</time></trkpt><trkpt lat="14.98325965300571" lon="120.75381954907068"><ele>5.0</ele><time>2026-04-19T08:57:42Z</time></trkpt><trkpt lat="14.98311421019936" lon="120.75391124343221"><ele>5.0</ele><time>2026-04-19T08:57:43Z</time></trkpt><trkpt lat="14.982966329106882" lon="120.75400008128045"><ele>5.0</ele><time>2026-04-19T08:57:44Z</time></trkpt><trkpt lat="14.98281503225337" lon="120.75409421295781"><ele>5.0</ele><time>2026-04-19T08:57:45Z</time></trkpt><trkpt lat="14.982659443994418" lon="120.75418919659786"><ele>5.0</ele><time>2026-04-19T08:57:46Z</time></trkpt><trkpt lat="14.982501486846653" lon="120.75428683049059"><ele>5.0</ele><time>2026-04-19T08:57:47Z</time></trkpt><trkpt lat="14.982342151804007" lon="120.75438384535528"><ele>5.0</ele><time>2026-04-19T08:57:48Z</time></trkpt><trkpt lat="14.982181998599431" lon="120.75448440200542"><ele>4.666666666666667</ele><time>2026-04-19T08:57:49Z</time></trkpt><trkpt lat="14.98202038166479" lon="120.75458434219232"><ele>4.333333333333333</ele><time>2026-04-19T08:57:50Z</time></trkpt><trkpt lat="14.981856249115538" lon="120.7546880156491"><ele>4.0</ele><time>2026-04-19T08:57:51Z</time></trkpt><trkpt lat="14.981690273661696" lon="120.7547942177914"><ele>4.666666666666666</ele><time>2026-04-19T08:57:52Z</time></trkpt><trkpt lat="14.98152296627508" lon="120.75490054994488"><ele>5.333333333333333</ele><time>2026-04-19T08:57:53Z</time></trkpt><trkpt lat="14.981354552079308" lon="120.75500856001175"><ele>6.0</ele><time>2026-04-19T08:57:54Z</time></trkpt><trkpt lat="14.981185482521022" lon="120.75511673859062"><ele>6.666666666666666</ele><time>2026-04-19T08:57:55Z</time></trkpt><trkpt lat="14.981015497335555" lon="120.7552255474592"><ele>7.333333333333333</ele><time>2026-04-19T08:57:56Z</time></trkpt><trkpt lat="14.980845468817616" lon="120.75533475459675"><ele>8.0</ele><time>2026-04-19T08:57:57Z</time></trkpt><trkpt lat="14.980673462640464" lon="120.75544569157736"><ele>8.0</ele><time>2026-04-19T08:57:58Z</time></trkpt><trkpt lat="14.98050213261629" lon="120.75555743623619"><ele>8.0</ele><time>2026-04-19T08:57:59Z</time></trkpt><trkpt lat="14.98033040159846" lon="120.75566850820044"><ele>8.0</ele><time>2026-04-19T08:58:00Z</time></trkpt><trkpt lat="14.980158772528773" lon="120.75578215041632"><ele>7.666666666666666</ele><time>2026-04-19T08:58:01Z</time></trkpt><trkpt lat="14.979983996918001" lon="120.75589631515341"><ele>7.333333333333334</ele><time>2026-04-19T08:58:02Z</time></trkpt><trkpt lat="14.979809406238763" lon="120.75601129269499"><ele>7.0</ele><time>2026-04-19T08:58:03Z</time></trkpt><trkpt lat="14.979635889639766" lon="120.75612631937895"><ele>7.0</ele><time>2026-04-19T08:58:04Z</time></trkpt><trkpt lat="14.979463924429151" lon="120.75624015802372"><ele>7.0</ele><time>2026-04-19T08:58:05Z</time></trkpt><trkpt lat="14.979294390584887" lon="120.75635129710739"><ele>7.0</ele><time>2026-04-19T08:58:06Z</time></trkpt><trkpt lat="14.9791258815703" lon="120.75646232184918"><ele>7.333333333333334</ele><time>2026-04-19T08:58:07Z</time></trkpt><trkpt lat="14.978958247272143" lon="120.75657361942291"><ele>7.666666666666666</ele><time>2026-04-19T08:58:08Z</time></trkpt><trkpt lat="14.978791539848615" lon="120.75668444097707"><ele>8.0</ele><time>2026-04-19T08:58:09Z</time></trkpt><trkpt lat="14.978625382886284" lon="120.75679532682163"><ele>7.666666666666666</ele><time>2026-04-19T08:58:10Z</time></trkpt><trkpt lat="14.978459847022668" lon="120.7569059071025"><ele>7.333333333333334</ele><time>2026-04-19T08:58:11Z</time></trkpt><trkpt lat="14.978292300038223" lon="120.7570184357923"><ele>7.0</ele><time>2026-04-19T08:58:12Z</time></trkpt><trkpt lat="14.978126861414857" lon="120.7571304036736"><ele>7.0</ele><time>2026-04-19T08:58:13Z</time></trkpt><trkpt lat="14.97796047129521" lon="120.75724229766264"><ele>7.0</ele><time>2026-04-19T08:58:14Z</time></trkpt><trkpt lat="14.977794161285383" lon="120.75735543059575"><ele>7.0</ele><time>2026-04-19T08:58:15Z</time></trkpt><trkpt lat="14.977627937420278" lon="120.75746798931459"><ele>7.333333333333334</ele><time>2026-04-19T08:58:16Z</time></trkpt><trkpt lat="14.977460984812678" lon="120.75758260658236"><ele>7.666666666666666</ele><time>2026-04-19T08:58:17Z</time></trkpt><trkpt lat="14.977292130466761" lon="120.75770005582892"><ele>8.0</ele><time>2026-04-19T08:58:18Z</time></trkpt><trkpt lat="14.977124836059396" lon="120.75781532349751"><ele>7.0</ele><time>2026-04-19T08:58:19Z</time></trkpt><trkpt lat="14.976956104455821" lon="120.75793441317379"><ele>6.0</ele><time>2026-04-19T08:58:20Z</time></trkpt><trkpt lat="14.97678522192229" lon="120.75805296671713"><ele>5.0</ele><time>2026-04-19T08:58:21Z</time></trkpt><trkpt lat="14.976613720083046" lon="120.75817428040187"><ele>5.0</ele><time>2026-04-19T08:58:22Z</time></trkpt><trkpt lat="14.976440253688864" lon="120.75829656618005"><ele>5.0</ele><time>2026-04-19T08:58:23Z</time></trkpt><trkpt lat="14.97626664037058" lon="120.75841951055"><ele>5.0</ele><time>2026-04-19T08:58:24Z</time></trkpt><trkpt lat="14.976091220567703" lon="120.75854440632264"><ele>5.0</ele><time>2026-04-19T08:58:25Z</time></trkpt><trkpt lat="14.975913667105182" lon="120.75866813246076"><ele>5.0</ele><time>2026-04-19T08:58:26Z</time></trkpt><trkpt lat="14.975735748100808" lon="120.75879188345847"><ele>5.0</ele><time>2026-04-19T08:58:27Z</time></trkpt><trkpt lat="14.975557061787827" lon="120.75891630846026"><ele>5.333333333333334</ele><time>2026-04-19T08:58:28Z</time></trkpt><trkpt lat="14.975378548098993" lon="120.75904305324916"><ele>5.666666666666667</ele><time>2026-04-19T08:58:29Z</time></trkpt><trkpt lat="14.975200746905841" lon="120.75916874498584"><ele>6.0</ele><time>2026-04-19T08:58:30Z</time></trkpt><trkpt lat="14.975024371476694" lon="120.7592952432327"><ele>5.666666666666667</ele><time>2026-04-19T08:58:31Z</time></trkpt><trkpt lat="14.974848592794597" lon="120.7594224855008"><ele>5.333333333333334</ele><time>2026-04-19T08:58:32Z</time></trkpt><trkpt lat="14.974672620093598" lon="120.75954898237526"><ele>5.0</ele><time>2026-04-19T08:58:33Z</time></trkpt><trkpt lat="14.974496562989996" lon="120.75967471916444"><ele>5.0</ele><time>2026-04-19T08:58:34Z</time></trkpt><trkpt lat="14.974318971339791" lon="120.75980404573104"><ele>5.0</ele><time>2026-04-19T08:58:35Z</time></trkpt><trkpt lat="14.974141396522626" lon="120.75993346564789"><ele>5.0</ele><time>2026-04-19T08:58:36Z</time></trkpt><trkpt lat="14.973964316213124" lon="120.76006371713467"><ele>5.0</ele><time>2026-04-19T08:58:37Z</time></trkpt><trkpt lat="14.973788086457395" lon="120.76019315190901"><ele>5.0</ele><time>2026-04-19T08:58:38Z</time></trkpt><trkpt lat="14.97361312321417" lon="120.76032222141825"><ele>5.0</ele><time>2026-04-19T08:58:39Z</time></trkpt><trkpt lat="14.973438035064758" lon="120.7604508181616"><ele>5.333333333333334</ele><time>2026-04-19T08:58:40Z</time></trkpt><trkpt lat="14.97326336888741" lon="120.76057994452944"><ele>5.666666666666667</ele><time>2026-04-19T08:58:41Z</time></trkpt><trkpt lat="14.9730899608461" lon="120.7607092869702"><ele>6.0</ele><time>2026-04-19T08:58:42Z</time></trkpt><trkpt lat="14.972917675276015" lon="120.76083770825029"><ele>6.0</ele><time>2026-04-19T08:58:43Z</time></trkpt><trkpt lat="14.972747532860014" lon="120.76096535471233"><ele>6.0</ele><time>2026-04-19T08:58:44Z</time></trkpt><trkpt lat="14.972577610292278" lon="120.7610915142722"><ele>6.0</ele><time>2026-04-19T08:58:45Z</time></trkpt><trkpt lat="14.97241221922016" lon="120.76121522223423"><ele>5.666666666666667</ele><time>2026-04-19T08:58:46Z</time></trkpt><trkpt lat="14.972248926010192" lon="120.76133843211046"><ele>5.333333333333334</ele><time>2026-04-19T08:58:47Z</time></trkpt><trkpt lat="14.972086944588208" lon="120.76146072114472"><ele>5.0</ele><time>2026-04-19T08:58:48Z</time></trkpt><trkpt lat="14.971924622260486" lon="120.76158328970727"><ele>5.0</ele><time>2026-04-19T08:58:49Z</time></trkpt><trkpt lat="14.971760854008544" lon="120.76170793773716"><ele>5.0</ele><time>2026-04-19T08:58:50Z</time></trkpt><trkpt lat="14.971598128354193" lon="120.76183291930377"><ele>5.0</ele><time>2026-04-19T08:58:51Z</time></trkpt><trkpt lat="14.971437021356838" lon="120.761957863646"><ele>5.0</ele><time>2026-04-19T08:58:52Z</time></trkpt><trkpt lat="14.971275682196396" lon="120.76208491613421"><ele>5.0</ele><time>2026-04-19T08:58:53Z</time></trkpt><trkpt lat="14.971112608784" lon="120.76221094386742"><ele>5.0</ele><time>2026-04-19T08:58:54Z</time></trkpt><trkpt lat="14.970949509129154" lon="120.76233794813564"><ele>5.666666666666667</ele><time>2026-04-19T08:58:55Z</time></trkpt><trkpt lat="14.970786478485312" lon="120.76246499576334"><ele>6.333333333333334</ele><time>2026-04-19T08:58:56Z</time></trkpt><trkpt lat="14.970624227944699" lon="120.76259112066371"><ele>7.0</ele><time>2026-04-19T08:58:57Z</time></trkpt><trkpt lat="14.970462021192292" lon="120.76271769727464"><ele>7.0</ele><time>2026-04-19T08:58:58Z</time></trkpt><trkpt lat="14.9702993750539" lon="120.76284455114192"><ele>7.0</ele><time>2026-04-19T08:58:59Z</time></trkpt><trkpt lat="14.970135915855517" lon="120.7629720638294"><ele>7.0</ele><time>2026-04-19T08:59:00Z</time></trkpt><trkpt lat="14.969974604818674" lon="120.76310068144123"><ele>7.666666666666667</ele><time>2026-04-19T08:59:01Z</time></trkpt><trkpt lat="14.96981447855203" lon="120.76322692824382"><ele>8.333333333333334</ele><time>2026-04-19T08:59:02Z</time></trkpt><trkpt lat="14.969657599535262" lon="120.76335363094498"><ele>9.0</ele><time>2026-04-19T08:59:03Z</time></trkpt><trkpt lat="14.969501586463911" lon="120.76347799737083"><ele>8.666666666666666</ele><time>2026-04-19T08:59:04Z</time></trkpt><trkpt lat="14.969351169797564" lon="120.76360035190574"><ele>8.333333333333332</ele><time>2026-04-19T08:59:05Z</time></trkpt><trkpt lat="14.969200949115043" lon="120.76371994827504"><ele>8.0</ele><time>2026-04-19T08:59:06Z</time></trkpt><trkpt lat="14.969054860172882" lon="120.76383740901404"><ele>8.666666666666666</ele><time>2026-04-19T08:59:07Z</time></trkpt><trkpt lat="14.968909876631374" lon="120.76395456786392"><ele>9.333333333333334</ele><time>2026-04-19T08:59:08Z</time></trkpt><trkpt lat="14.968764524335032" lon="120.76407319865937"><ele>10.0</ele><time>2026-04-19T08:59:09Z</time></trkpt><trkpt lat="14.968619099868137" lon="120.76419224408872"><ele>10.0</ele><time>2026-04-19T08:59:10Z</time></trkpt><trkpt lat="14.968471273160713" lon="120.76431351261486"><ele>10.0</ele><time>2026-04-19T08:59:11Z</time></trkpt><trkpt lat="14.968322250625956" lon="120.7644326746707"><ele>10.0</ele><time>2026-04-19T08:59:12Z</time></trkpt><trkpt lat="14.968172513350796" lon="120.76455447151541"><ele>8.0</ele><time>2026-04-19T08:59:13Z</time></trkpt><trkpt lat="14.968020917588152" lon="120.76467790815354"><ele>6.0</ele><time>2026-04-19T08:59:14Z</time></trkpt><trkpt lat="14.967867435950245" lon="120.76480221093681"><ele>4.0</ele><time>2026-04-19T08:59:15Z</time></trkpt><trkpt lat="14.967714829723525" lon="120.76492914367113"><ele>4.0</ele><time>2026-04-19T08:59:16Z</time></trkpt><trkpt lat="14.967560643238738" lon="120.76505669729042"><ele>4.0</ele><time>2026-04-19T08:59:17Z</time></trkpt><trkpt lat="14.96740667341294" lon="120.76518469246717"><ele>4.0</ele><time>2026-04-19T08:59:18Z</time></trkpt><trkpt lat="14.967252724367041" lon="120.76531330241379"><ele>4.0</ele><time>2026-04-19T08:59:19Z</time></trkpt><trkpt lat="14.967097598621253" lon="120.76544378692006"><ele>4.0</ele><time>2026-04-19T08:59:20Z</time></trkpt><trkpt lat="14.96694309869604" lon="120.76557464542304"><ele>4.0</ele><time>2026-04-19T08:59:21Z</time></trkpt><trkpt lat="14.966787835424476" lon="120.76570564795787"><ele>3.333333333333333</ele><time>2026-04-19T08:59:22Z</time></trkpt><trkpt lat="14.966632619107644" lon="120.76583735748142"><ele>2.6666666666666665</ele><time>2026-04-19T08:59:23Z</time></trkpt><trkpt lat="14.96647684920661" lon="120.76596865765879"><ele>2.0</ele><time>2026-04-19T08:59:24Z</time></trkpt><trkpt lat="14.966322013294505" lon="120.76609825139184"><ele>2.0</ele><time>2026-04-19T08:59:25Z</time></trkpt><trkpt lat="14.966167542079603" lon="120.76622688371432"><ele>2.0</ele><time>2026-04-19T08:59:26Z</time></trkpt><trkpt lat="14.966012496958347" lon="120.76635872443838"><ele>2.0</ele><time>2026-04-19T08:59:27Z</time></trkpt><trkpt lat="14.965857220472932" lon="120.76649110292291"><ele>3.0</ele><time>2026-04-19T08:59:28Z</time></trkpt><trkpt lat="14.965701508236346" lon="120.7666259017625"><ele>4.0</ele><time>2026-04-19T08:59:29Z</time></trkpt><trkpt lat="14.96554302133528" lon="120.76676261761537"><ele>5.0</ele><time>2026-04-19T08:59:30Z</time></trkpt><trkpt lat="14.965384104281172" lon="120.76689955151808"><ele>5.0</ele><time>2026-04-19T08:59:31Z</time></trkpt><trkpt lat="14.965224041674622" lon="120.76703875610106"><ele>5.0</ele><time>2026-04-19T08:59:32Z</time></trkpt><trkpt lat="14.965061750664281" lon="120.76717890006933"><ele>5.0</ele><time>2026-04-19T08:59:33Z</time></trkpt><trkpt lat="14.964899029551525" lon="120.76731949290071"><ele>5.0</ele><time>2026-04-19T08:59:34Z</time></trkpt><trkpt lat="14.964734912593109" lon="120.7674614919965"><ele>5.0</ele><time>2026-04-19T08:59:35Z</time></trkpt><trkpt lat="14.964571221183292" lon="120.7676048189562"><ele>5.0</ele><time>2026-04-19T08:59:36Z</time></trkpt><trkpt lat="14.964406790451601" lon="120.7677491658878"><ele>5.0</ele><time>2026-04-19T08:59:37Z</time></trkpt><trkpt lat="14.964243885307438" lon="120.76789212008566"><ele>5.0</ele><time>2026-04-19T08:59:38Z</time></trkpt><trkpt lat="14.964081654379113" lon="120.76803278853296"><ele>5.0</ele><time>2026-04-19T08:59:39Z</time></trkpt><trkpt lat="14.963919262903078" lon="120.76817422232247"><ele>5.0</ele><time>2026-04-19T08:59:40Z</time></trkpt><trkpt lat="14.963758972716485" lon="120.76831568766116"><ele>5.0</ele><time>2026-04-19T08:59:41Z</time></trkpt><trkpt lat="14.963599609285879" lon="120.76845666356913"><ele>5.0</ele><time>2026-04-19T08:59:42Z</time></trkpt><trkpt lat="14.963441045008011" lon="120.76859637930676"><ele>5.0</ele><time>2026-04-19T08:59:43Z</time></trkpt><trkpt lat="14.9632835953668" lon="120.76873640148466"><ele>5.0</ele><time>2026-04-19T08:59:44Z</time></trkpt><trkpt lat="14.963124741725924" lon="120.76887765405421"><ele>5.0</ele><time>2026-04-19T08:59:45Z</time></trkpt><trkpt lat="14.962966606019469" lon="120.76901919060975"><ele>5.0</ele><time>2026-04-19T08:59:46Z</time></trkpt><trkpt lat="14.962807985920554" lon="120.76916001180757"><ele>5.0</ele><time>2026-04-19T08:59:47Z</time></trkpt><trkpt lat="14.962649958629681" lon="120.76929989519688"><ele>5.0</ele><time>2026-04-19T08:59:48Z</time></trkpt><trkpt lat="14.962493226133802" lon="120.76943745653215"><ele>5.333333333333334</ele><time>2026-04-19T08:59:49Z</time></trkpt><trkpt lat="14.962337824498345" lon="120.76957394656252"><ele>5.666666666666667</ele><time>2026-04-19T08:59:50Z</time></trkpt><trkpt lat="14.962181566198531" lon="120.76971112651101"><ele>6.0</ele><time>2026-04-19T08:59:51Z</time></trkpt><trkpt lat="14.962026270121758" lon="120.76984646130396"><ele>6.0</ele><time>2026-04-19T08:59:52Z</time></trkpt><trkpt lat="14.961870590615714" lon="120.76998342771341"><ele>6.0</ele><time>2026-04-19T08:59:53Z</time></trkpt><trkpt lat="14.961715660892798" lon="120.77011851106623"><ele>6.0</ele><time>2026-04-19T08:59:54Z</time></trkpt><trkpt lat="14.961559245304102" lon="120.77025492695458"><ele>6.333333333333334</ele><time>2026-04-19T08:59:55Z</time></trkpt><trkpt lat="14.961402391941247" lon="120.77039198432765"><ele>6.666666666666667</ele><time>2026-04-19T08:59:56Z</time></trkpt><trkpt lat="14.96124418599793" lon="120.77052987543073"><ele>7.0</ele><time>2026-04-19T08:59:57Z</time></trkpt><trkpt lat="14.961085876831024" lon="120.77066774397599"><ele>7.0</ele><time>2026-04-19T08:59:58Z</time></trkpt><trkpt lat="14.960927548522848" lon="120.77080624671245"><ele>7.0</ele><time>2026-04-19T08:59:59Z</time></trkpt><trkpt lat="14.960770188795244" lon="120.77094478361401"><ele>7.0</ele><time>2026-04-19T09:00:00Z</time></trkpt><trkpt lat="14.960613924259409" lon="120.77108235006943"><ele>6.333333333333334</ele><time>2026-04-19T09:00:01Z</time></trkpt><trkpt lat="14.96046018425973" lon="120.77121750502037"><ele>5.666666666666667</ele><time>2026-04-19T09:00:02Z</time></trkpt><trkpt lat="14.960308476286595" lon="120.77135358962553"><ele>5.0</ele><time>2026-04-19T09:00:03Z</time></trkpt><trkpt lat="14.960156922201456" lon="120.77148517775923"><ele>5.666666666666667</ele><time>2026-04-19T09:00:04Z</time></trkpt><trkpt lat="14.960008408868973" lon="120.77161601560914"><ele>6.333333333333334</ele><time>2026-04-19T09:00:05Z</time></trkpt><trkpt lat="14.959859861707336" lon="120.77174732649814"><ele>7.0</ele><time>2026-04-19T09:00:06Z</time></trkpt><trkpt lat="14.959712059949704" lon="120.77187790169044"><ele>7.0</ele><time>2026-04-19T09:00:07Z</time></trkpt><trkpt lat="14.959565384476454" lon="120.77200812494465"><ele>7.0</ele><time>2026-04-19T09:00:08Z</time></trkpt><trkpt lat="14.9594168262812" lon="120.77213977541359"><ele>7.0</ele><time>2026-04-19T09:00:09Z</time></trkpt><trkpt lat="14.95926766360606" lon="120.7722704259274"><ele>7.0</ele><time>2026-04-19T09:00:10Z</time></trkpt><trkpt lat="14.959118037939058" lon="120.77240092845372"><ele>7.0</ele><time>2026-04-19T09:00:11Z</time></trkpt><trkpt lat="14.95896881977356" lon="120.77253183523338"><ele>7.0</ele><time>2026-04-19T09:00:12Z</time></trkpt><trkpt lat="14.95882031971229" lon="120.77266239900024"><ele>6.333333333333334</ele><time>2026-04-19T09:00:13Z</time></trkpt><trkpt lat="14.958673598756272" lon="120.7727914344258"><ele>5.666666666666667</ele><time>2026-04-19T09:00:14Z</time></trkpt><trkpt lat="14.958528429203474" lon="120.77291903322762"><ele>5.0</ele><time>2026-04-19T09:00:15Z</time></trkpt><trkpt lat="14.958385491605057" lon="120.77304510770409"><ele>5.666666666666667</ele><time>2026-04-19T09:00:16Z</time></trkpt><trkpt lat="14.958243182408182" lon="120.77316854951563"><ele>6.333333333333334</ele><time>2026-04-19T09:00:17Z</time></trkpt><trkpt lat="14.958103683809934" lon="120.77329044582147"><ele>7.0</ele><time>2026-04-19T09:00:18Z</time></trkpt><trkpt lat="14.957966215537253" lon="120.77340986778013"><ele>7.0</ele><time>2026-04-19T09:00:19Z</time></trkpt><trkpt lat="14.957830469148137" lon="120.77352855246026"><ele>7.0</ele><time>2026-04-19T09:00:20Z</time></trkpt><trkpt lat="14.957696875167658" lon="120.77364707764613"><ele>7.0</ele><time>2026-04-19T09:00:21Z</time></trkpt><trkpt lat="14.957555687687757" lon="120.77374759067074"><ele>7.333333333333334</ele><time>2026-04-19T09:00:22Z</time></trkpt><trkpt lat="14.957428350972666" lon="120.77386093456288"><ele>7.666666666666666</ele><time>2026-04-19T09:00:23Z</time></trkpt><trkpt lat="14.957303396629332" lon="120.77397035557264"><ele>8.0</ele><time>2026-04-19T09:00:24Z</time></trkpt><trkpt lat="14.95718365533823" lon="120.77407526888459"><ele>8.0</ele><time>2026-04-19T09:00:25Z</time></trkpt><trkpt lat="14.957068245287246" lon="120.77417638731062"><ele>8.0</ele><time>2026-04-19T09:00:26Z</time></trkpt><trkpt lat="14.956976031502094" lon="120.77429966571536"><ele>8.0</ele><time>2026-04-19T09:00:27Z</time></trkpt><trkpt lat="14.956867370929775" lon="120.77440181417563"><ele>8.0</ele><time>2026-04-19T09:00:28Z</time></trkpt><trkpt lat="14.95675811767673" lon="120.7745040442213"><ele>8.25</ele><time>2026-04-19T09:00:29Z</time></trkpt><trkpt lat="14.95664942092304" lon="120.77460781634358"><ele>8.5</ele><time>2026-04-19T09:00:30Z</time></trkpt><trkpt lat="14.95654144705414" lon="120.77471612560386"><ele>8.75</ele><time>2026-04-19T09:00:31Z</time></trkpt><trkpt lat="14.956432079036961" lon="120.77482304021304"><ele>9.0</ele><time>2026-04-19T09:00:32Z</time></trkpt><trkpt lat="14.956318423272826" lon="120.7749295310766"><ele>9.0</ele><time>2026-04-19T09:00:33Z</time></trkpt><trkpt lat="14.956205267186991" lon="120.77503980321204"><ele>9.0</ele><time>2026-04-19T09:00:34Z</time></trkpt><trkpt lat="14.956090383593649" lon="120.77515140956113"><ele>9.0</ele><time>2026-04-19T09:00:35Z</time></trkpt><trkpt lat="14.955972175249748" lon="120.77526227069504"><ele>9.666666666666666</ele><time>2026-04-19T09:00:36Z</time></trkpt><trkpt lat="14.955851979874938" lon="120.77537341691603"><ele>10.333333333333332</ele><time>2026-04-19T09:00:37Z</time></trkpt><trkpt lat="14.955729619192685" lon="120.7754833337878"><ele>11.0</ele><time>2026-04-19T09:00:38Z</time></trkpt><trkpt lat="14.955608120648252" lon="120.77559356468672"><ele>11.0</ele><time>2026-04-19T09:00:39Z</time></trkpt><trkpt lat="14.955488840196638" lon="120.7756998495129"><ele>11.0</ele><time>2026-04-19T09:00:40Z</time></trkpt><trkpt lat="14.95537228566606" lon="120.77580171412501"><ele>11.0</ele><time>2026-04-19T09:00:41Z</time></trkpt><trkpt lat="14.955255937709873" lon="120.77590458129228"><ele>11.0</ele><time>2026-04-19T09:00:42Z</time></trkpt><trkpt lat="14.955139591004677" lon="120.77600788145341"><ele>11.0</ele><time>2026-04-19T09:00:43Z</time></trkpt><trkpt lat="14.955022121006253" lon="120.77611197284965"><ele>11.0</ele><time>2026-04-19T09:00:44Z</time></trkpt><trkpt lat="14.95490214163065" lon="120.77621592202475"><ele>10.333333333333332</ele><time>2026-04-19T09:00:45Z</time></trkpt><trkpt lat="14.954779286107495" lon="120.77632285359569"><ele>9.666666666666666</ele><time>2026-04-19T09:00:46Z</time></trkpt><trkpt lat="14.954653408330952" lon="120.77643268644347"><ele>9.0</ele><time>2026-04-19T09:00:47Z</time></trkpt><trkpt lat="14.954524562227267" lon="120.77654425749218"><ele>9.0</ele><time>2026-04-19T09:00:48Z</time></trkpt><trkpt lat="14.954391788378935" lon="120.77665678511697"><ele>9.0</ele><time>2026-04-19T09:00:49Z</time></trkpt><trkpt lat="14.954255766719502" lon="120.77677145308166"><ele>9.0</ele><time>2026-04-19T09:00:50Z</time></trkpt><trkpt lat="14.954117238039379" lon="120.7768887625086"><ele>9.333333333333334</ele><time>2026-04-19T09:00:51Z</time></trkpt><trkpt lat="14.95397727907124" lon="120.77700835434312"><ele>9.666666666666668</ele><time>2026-04-19T09:00:52Z</time></trkpt><trkpt lat="14.953836467227864" lon="120.77712945954192"><ele>10.0</ele><time>2026-04-19T09:00:53Z</time></trkpt><trkpt lat="14.953694898143908" lon="120.7772513936086"><ele>10.0</ele><time>2026-04-19T09:00:54Z</time></trkpt><trkpt lat="14.953553423100184" lon="120.77737472634112"><ele>10.0</ele><time>2026-04-19T09:00:55Z</time></trkpt><trkpt lat="14.953412296391656" lon="120.77749822578572"><ele>10.0</ele><time>2026-04-19T09:00:56Z</time></trkpt><trkpt lat="14.953270247841168" lon="120.77762022774428"><ele>9.666666666666668</ele><time>2026-04-19T09:00:57Z</time></trkpt><trkpt lat="14.953126998400096" lon="120.77774232763446"><ele>9.333333333333334</ele><time>2026-04-19T09:00:58Z</time></trkpt><trkpt lat="14.95297988945344" lon="120.77786487948512"><ele>9.0</ele><time>2026-04-19T09:00:59Z</time></trkpt><trkpt lat="14.952828422151539" lon="120.77798936271972"><ele>9.0</ele><time>2026-04-19T09:01:00Z</time></trkpt><trkpt lat="14.952672996583338" lon="120.77811967413697"><ele>9.0</ele><time>2026-04-19T09:01:01Z</time></trkpt><trkpt lat="14.952516847775666" lon="120.77825150378919"><ele>9.0</ele><time>2026-04-19T09:01:02Z</time></trkpt><trkpt lat="14.952356488514779" lon="120.77838772888471"><ele>9.333333333333334</ele><time>2026-04-19T09:01:03Z</time></trkpt><trkpt lat="14.952192310331176" lon="120.77852851714452"><ele>9.666666666666668</ele><time>2026-04-19T09:01:04Z</time></trkpt><trkpt lat="14.95202565201093" lon="120.77867101042197"><ele>10.0</ele><time>2026-04-19T09:01:05Z</time></trkpt><trkpt lat="14.95185765251982" lon="120.7788165957053"><ele>10.0</ele><time>2026-04-19T09:01:06Z</time></trkpt><trkpt lat="14.951687946369704" lon="120.77896598534133"><ele>10.0</ele><time>2026-04-19T09:01:07Z</time></trkpt><trkpt lat="14.951517075304402" lon="120.77911640023505"><ele>10.0</ele><time>2026-04-19T09:01:08Z</time></trkpt><trkpt lat="14.951343503069104" lon="120.77926858868642"><ele>10.0</ele><time>2026-04-19T09:01:09Z</time></trkpt><trkpt lat="14.95116883079708" lon="120.77942247260495"><ele>10.0</ele><time>2026-04-19T09:01:10Z</time></trkpt><trkpt lat="14.95099329630946" lon="120.77957637894782"><ele>9.5</ele><time>2026-04-19T09:01:11Z</time></trkpt><trkpt lat="14.950816787666234" lon="120.77973044266993"><ele>9.0</ele><time>2026-04-19T09:01:12Z</time></trkpt><trkpt lat="14.950639510192907" lon="120.77988437686697"><ele>9.0</ele><time>2026-04-19T09:01:13Z</time></trkpt><trkpt lat="14.950461443725194" lon="120.78003836096835"><ele>9.0</ele><time>2026-04-19T09:01:14Z</time></trkpt><trkpt lat="14.950283496349588" lon="120.7801920800548"><ele>8.5</ele><time>2026-04-19T09:01:15Z</time></trkpt><trkpt lat="14.950105553150296" lon="120.78034703647177"><ele>8.0</ele><time>2026-04-19T09:01:16Z</time></trkpt><trkpt lat="14.949929611835863" lon="120.78050057213962"><ele>8.0</ele><time>2026-04-19T09:01:17Z</time></trkpt><trkpt lat="14.94975256193876" lon="120.780656550713"><ele>8.0</ele><time>2026-04-19T09:01:18Z</time></trkpt><trkpt lat="14.94957765366842" lon="120.78081123030188"><ele>8.0</ele><time>2026-04-19T09:01:19Z</time></trkpt><trkpt lat="14.94940271583106" lon="120.78096607885001"><ele>8.0</ele><time>2026-04-19T09:01:20Z</time></trkpt><trkpt lat="14.94922745558966" lon="120.78111753665382"><ele>8.333333333333332</ele><time>2026-04-19T09:01:21Z</time></trkpt><trkpt lat="14.949054879343445" lon="120.78126739024349"><ele>8.666666666666666</ele><time>2026-04-19T09:01:22Z</time></trkpt><trkpt lat="14.948886211085961" lon="120.7814138485517"><ele>9.0</ele><time>2026-04-19T09:01:23Z</time></trkpt><trkpt lat="14.948720225372869" lon="120.78155905892372"><ele>9.0</ele><time>2026-04-19T09:01:24Z</time></trkpt><trkpt lat="14.94855638596612" lon="120.78170331324091"><ele>9.0</ele><time>2026-04-19T09:01:25Z</time></trkpt><trkpt lat="14.948394999529702" lon="120.78184544729582"><ele>9.0</ele><time>2026-04-19T09:01:26Z</time></trkpt><trkpt lat="14.948235162226773" lon="120.7819863736073"><ele>8.666666666666666</ele><time>2026-04-19T09:01:27Z</time></trkpt><trkpt lat="14.948076150783889" lon="120.78212587909786"><ele>8.333333333333332</ele><time>2026-04-19T09:01:28Z</time></trkpt><trkpt lat="14.947919397672925" lon="120.78226364131551"><ele>8.0</ele><time>2026-04-19T09:01:29Z</time></trkpt><trkpt lat="14.947763137010734" lon="120.78240070324333"><ele>8.0</ele><time>2026-04-19T09:01:30Z</time></trkpt><trkpt lat="14.947607453752633" lon="120.78253758073572"><ele>8.0</ele><time>2026-04-19T09:01:31Z</time></trkpt><trkpt lat="14.947452393232837" lon="120.78267272067745"><ele>8.0</ele><time>2026-04-19T09:01:32Z</time></trkpt><trkpt lat="14.947298020599412" lon="120.78280828364508"><ele>7.666666666666666</ele><time>2026-04-19T09:01:33Z</time></trkpt><trkpt lat="14.947144665609592" lon="120.7829438912961"><ele>7.333333333333334</ele><time>2026-04-19T09:01:34Z</time></trkpt><trkpt lat="14.946990046222927" lon="120.7830788876777"><ele>7.0</ele><time>2026-04-19T09:01:35Z</time></trkpt><trkpt lat="14.946836205696288" lon="120.78321439061502"><ele>7.333333333333334</ele><time>2026-04-19T09:01:36Z</time></trkpt><trkpt lat="14.946682192843143" lon="120.78334981707071"><ele>7.666666666666666</ele><time>2026-04-19T09:01:37Z</time></trkpt><trkpt lat="14.946527789103142" lon="120.78348474762028"><ele>8.0</ele><time>2026-04-19T09:01:38Z</time></trkpt><trkpt lat="14.946371870020315" lon="120.78362073031823"><ele>7.0</ele><time>2026-04-19T09:01:39Z</time></trkpt><trkpt lat="14.946215431334247" lon="120.78375823709314"><ele>6.0</ele><time>2026-04-19T09:01:40Z</time></trkpt><trkpt lat="14.946059099861921" lon="120.7838975704013"><ele>5.0</ele><time>2026-04-19T09:01:41Z</time></trkpt><trkpt lat="14.945899194977073" lon="120.78403670869018"><ele>5.333333333333334</ele><time>2026-04-19T09:01:42Z</time></trkpt><trkpt lat="14.94573848565206" lon="120.78417702651531"><ele>5.666666666666667</ele><time>2026-04-19T09:01:43Z</time></trkpt><trkpt lat="14.94557618934973" lon="120.78431937595653"><ele>6.0</ele><time>2026-04-19T09:01:44Z</time></trkpt><trkpt lat="14.9454107060903" lon="120.78446338513676"><ele>6.0</ele><time>2026-04-19T09:01:45Z</time></trkpt><trkpt lat="14.945245229048298" lon="120.78460805931488"><ele>6.0</ele><time>2026-04-19T09:01:46Z</time></trkpt><trkpt lat="14.945078750399915" lon="120.78475292826091"><ele>6.0</ele><time>2026-04-19T09:01:47Z</time></trkpt><trkpt lat="14.944913463966438" lon="120.78489743026584"><ele>6.0</ele><time>2026-04-19T09:01:48Z</time></trkpt><trkpt lat="14.94474807569066" lon="120.7850424415091"><ele>6.0</ele><time>2026-04-19T09:01:49Z</time></trkpt><trkpt lat="14.94458456935876" lon="120.78518522967153"><ele>6.0</ele><time>2026-04-19T09:01:50Z</time></trkpt><trkpt lat="14.944422351518238" lon="120.78532696215368"><ele>5.666666666666667</ele><time>2026-04-19T09:01:51Z</time></trkpt><trkpt lat="14.944262075867085" lon="120.78546829970652"><ele>5.333333333333334</ele><time>2026-04-19T09:01:52Z</time></trkpt><trkpt lat="14.944102757044984" lon="120.78560737886144"><ele>5.0</ele><time>2026-04-19T09:01:53Z</time></trkpt><trkpt lat="14.943943906028323" lon="120.78574624128775"><ele>5.0</ele><time>2026-04-19T09:01:54Z</time></trkpt><trkpt lat="14.943787009906439" lon="120.78588416685902"><ele>5.0</ele><time>2026-04-19T09:01:55Z</time></trkpt><trkpt lat="14.943631077697674" lon="120.78602185524775"><ele>5.0</ele><time>2026-04-19T09:01:56Z</time></trkpt><trkpt lat="14.943473967985407" lon="120.78615996878112"><ele>4.666666666666667</ele><time>2026-04-19T09:01:57Z</time></trkpt><trkpt lat="14.943317515038986" lon="120.78629799991707"><ele>4.333333333333333</ele><time>2026-04-19T09:01:58Z</time></trkpt><trkpt lat="14.943160930915822" lon="120.78643516544768"><ele>4.0</ele><time>2026-04-19T09:01:59Z</time></trkpt><trkpt lat="14.94300475610012" lon="120.78657198404909"><ele>4.0</ele><time>2026-04-19T09:02:00Z</time></trkpt><trkpt lat="14.942849067056155" lon="120.78670818591971"><ele>4.0</ele><time>2026-04-19T09:02:01Z</time></trkpt><trkpt lat="14.942693757214778" lon="120.78684440310761"><ele>4.0</ele><time>2026-04-19T09:02:02Z</time></trkpt><trkpt lat="14.942539189256605" lon="120.78698022732998"><ele>4.0</ele><time>2026-04-19T09:02:03Z</time></trkpt><trkpt lat="14.942384247785913" lon="120.78711594332492"><ele>4.0</ele><time>2026-04-19T09:02:04Z</time></trkpt><trkpt lat="14.942231944163126" lon="120.78725078101104"><ele>4.0</ele><time>2026-04-19T09:02:05Z</time></trkpt><trkpt lat="14.942079425300388" lon="120.78738538857338"><ele>4.0</ele><time>2026-04-19T09:02:06Z</time></trkpt><trkpt lat="14.941929509524352" lon="120.78751476584831"><ele>4.0</ele><time>2026-04-19T09:02:07Z</time></trkpt><trkpt lat="14.94178038232692" lon="120.78764524085571"><ele>4.0</ele><time>2026-04-19T09:02:08Z</time></trkpt><trkpt lat="14.94163095714439" lon="120.78777656205396"><ele>5.0</ele><time>2026-04-19T09:02:09Z</time></trkpt><trkpt lat="14.941481327266501" lon="120.78790712888014"><ele>6.0</ele><time>2026-04-19T09:02:10Z</time></trkpt><trkpt lat="14.941331692827237" lon="120.78803737828372"><ele>7.0</ele><time>2026-04-19T09:02:11Z</time></trkpt><trkpt lat="14.941184215018838" lon="120.78816827693194"><ele>7.0</ele><time>2026-04-19T09:02:12Z</time></trkpt><trkpt lat="14.941037130038607" lon="120.78829780456022"><ele>7.0</ele><time>2026-04-19T09:02:13Z</time></trkpt><trkpt lat="14.94088882896243" lon="120.78842711180826"><ele>7.0</ele><time>2026-04-19T09:02:14Z</time></trkpt><trkpt lat="14.940740954978851" lon="120.78855754969678"><ele>7.0</ele><time>2026-04-19T09:02:15Z</time></trkpt><trkpt lat="14.940592387157801" lon="120.78868570120967"><ele>7.0</ele><time>2026-04-19T09:02:16Z</time></trkpt><trkpt lat="14.940443318242169" lon="120.7888149671025"><ele>7.0</ele><time>2026-04-19T09:02:17Z</time></trkpt><trkpt lat="14.940296118098075" lon="120.78894232146902"><ele>7.0</ele><time>2026-04-19T09:02:18Z</time></trkpt><trkpt lat="14.94014847216094" lon="120.78907206472898"><ele>7.0</ele><time>2026-04-19T09:02:19Z</time></trkpt><trkpt lat="14.94000046373829" lon="120.78920078619191"><ele>7.0</ele><time>2026-04-19T09:02:20Z</time></trkpt><trkpt lat="14.939852391162988" lon="120.78932986339089"><ele>6.666666666666667</ele><time>2026-04-19T09:02:21Z</time></trkpt><trkpt lat="14.93970845512596" lon="120.78945820784625"><ele>6.333333333333334</ele><time>2026-04-19T09:02:22Z</time></trkpt><trkpt lat="14.939562039646344" lon="120.78958705142098"><ele>6.0</ele><time>2026-04-19T09:02:23Z</time></trkpt><trkpt lat="14.939417634058264" lon="120.7897147569648"><ele>6.0</ele><time>2026-04-19T09:02:24Z</time></trkpt><trkpt lat="14.93927380115433" lon="120.7898415521275"><ele>6.0</ele><time>2026-04-19T09:02:25Z</time></trkpt><trkpt lat="14.939131204983516" lon="120.78996551120511"><ele>6.0</ele><time>2026-04-19T09:02:26Z</time></trkpt><trkpt lat="14.938986387103734" lon="120.79009193374462"><ele>5.333333333333333</ele><time>2026-04-19T09:02:27Z</time></trkpt><trkpt lat="14.938840979390225" lon="120.79021907018542"><ele>4.666666666666666</ele><time>2026-04-19T09:02:28Z</time></trkpt><trkpt lat="14.938692648242878" lon="120.79034845325532"><ele>4.0</ele><time>2026-04-19T09:02:29Z</time></trkpt><trkpt lat="14.938547612811165" lon="120.79047564495895"><ele>4.0</ele><time>2026-04-19T09:02:30Z</time></trkpt><trkpt lat="14.93840203846134" lon="120.79060217153467"><ele>4.0</ele><time>2026-04-19T09:02:31Z</time></trkpt><trkpt lat="14.938258126375528" lon="120.79072853480493"><ele>4.0</ele><time>2026-04-19T09:02:32Z</time></trkpt><trkpt lat="14.93811550039593" lon="120.7908525318668"><ele>4.0</ele><time>2026-04-19T09:02:33Z</time></trkpt><trkpt lat="14.937974588813407" lon="120.7909755500418"><ele>4.0</ele><time>2026-04-19T09:02:34Z</time></trkpt><trkpt lat="14.937837265139539" lon="120.7910969140258"><ele>4.0</ele><time>2026-04-19T09:02:35Z</time></trkpt><trkpt lat="14.937698528243022" lon="120.79121838921525"><ele>4.333333333333333</ele><time>2026-04-19T09:02:36Z</time></trkpt><trkpt lat="14.937557739919583" lon="120.79134256007991"><ele>4.666666666666667</ele><time>2026-04-19T09:02:37Z</time></trkpt><trkpt lat="14.93741585245469" lon="120.7914662046786"><ele>5.0</ele><time>2026-04-19T09:02:38Z</time></trkpt><trkpt lat="14.937272980336079" lon="120.79158988464931"><ele>5.0</ele><time>2026-04-19T09:02:39Z</time></trkpt><trkpt lat="14.9371310802662" lon="120.79171136969589"><ele>5.0</ele><time>2026-04-19T09:02:40Z</time></trkpt><trkpt lat="14.936990231964337" lon="120.79183211974731"><ele>5.0</ele><time>2026-04-19T09:02:41Z</time></trkpt><trkpt lat="14.93685158409634" lon="120.79195385626879"><ele>5.333333333333334</ele><time>2026-04-19T09:02:42Z</time></trkpt><trkpt lat="14.936712103824988" lon="120.79207681522404"><ele>5.666666666666667</ele><time>2026-04-19T09:02:43Z</time></trkpt><trkpt lat="14.936573974346729" lon="120.79219849028084"><ele>6.0</ele><time>2026-04-19T09:02:44Z</time></trkpt><trkpt lat="14.93643497908879" lon="120.79231792876588"><ele>6.0</ele><time>2026-04-19T09:02:45Z</time></trkpt><trkpt lat="14.936296704890893" lon="120.79243716911878"><ele>6.0</ele><time>2026-04-19T09:02:46Z</time></trkpt><trkpt lat="14.936159949592028" lon="120.79255629111682"><ele>6.0</ele><time>2026-04-19T09:02:47Z</time></trkpt><trkpt lat="14.936023745802949" lon="120.79267623053018"><ele>6.0</ele><time>2026-04-19T09:02:48Z</time></trkpt><trkpt lat="14.935886897874553" lon="120.79279385693816"><ele>6.0</ele><time>2026-04-19T09:02:49Z</time></trkpt><trkpt lat="14.93575170739145" lon="120.79291288985226"><ele>6.0</ele><time>2026-04-19T09:02:50Z</time></trkpt><trkpt lat="14.935615633469535" lon="120.7930303679404"><ele>5.333333333333333</ele><time>2026-04-19T09:02:51Z</time></trkpt><trkpt lat="14.935481593548499" lon="120.7931481724026"><ele>4.666666666666666</ele><time>2026-04-19T09:02:52Z</time></trkpt><trkpt lat="14.935348441039421" lon="120.79326536349984"><ele>4.0</ele><time>2026-04-19T09:02:53Z</time></trkpt><trkpt lat="14.935215532929083" lon="120.79338266090802"><ele>4.0</ele><time>2026-04-19T09:02:54Z</time></trkpt><trkpt lat="14.935082097189719" lon="120.79349833089782"><ele>4.0</ele><time>2026-04-19T09:02:55Z</time></trkpt><trkpt lat="14.934949030550285" lon="120.79361418805341"><ele>4.0</ele><time>2026-04-19T09:02:56Z</time></trkpt><trkpt lat="14.934814028756495" lon="120.79373150490083"><ele>5.0</ele><time>2026-04-19T09:02:57Z</time></trkpt><trkpt lat="14.934679275813789" lon="120.79384884753193"><ele>6.0</ele><time>2026-04-19T09:02:58Z</time></trkpt><trkpt lat="14.934543624538621" lon="120.79396861041522"><ele>7.0</ele><time>2026-04-19T09:02:59Z</time></trkpt><trkpt lat="14.934408817453416" lon="120.79408704451951"><ele>7.0</ele><time>2026-04-19T09:03:00Z</time></trkpt><trkpt lat="14.934274062840078" lon="120.79420602956728"><ele>7.0</ele><time>2026-04-19T09:03:01Z</time></trkpt><trkpt lat="14.934138041291924" lon="120.79432380641799"><ele>7.0</ele><time>2026-04-19T09:03:02Z</time></trkpt><trkpt lat="14.934002800137424" lon="120.79444119487016"><ele>7.0</ele><time>2026-04-19T09:03:03Z</time></trkpt><trkpt lat="14.933868089487175" lon="120.79456097306199"><ele>7.0</ele><time>2026-04-19T09:03:04Z</time></trkpt><trkpt lat="14.933733128497513" lon="120.79467721791997"><ele>7.0</ele><time>2026-04-19T09:03:05Z</time></trkpt><trkpt lat="14.933598027083445" lon="120.79479488988245"><ele>7.0</ele><time>2026-04-19T09:03:06Z</time></trkpt><trkpt lat="14.93346371387854" lon="120.79491272861485"><ele>7.0</ele><time>2026-04-19T09:03:07Z</time></trkpt><trkpt lat="14.93333172493688" lon="120.79503213583756"><ele>7.0</ele><time>2026-04-19T09:03:08Z</time></trkpt><trkpt lat="14.933198022221653" lon="120.79514974850672"><ele>6.333333333333334</ele><time>2026-04-19T09:03:09Z</time></trkpt><trkpt lat="14.933067838548292" lon="120.79526479597891"><ele>5.666666666666667</ele><time>2026-04-19T09:03:10Z</time></trkpt><trkpt lat="14.9329391664672" lon="120.79538104176908"><ele>5.0</ele><time>2026-04-19T09:03:11Z</time></trkpt><trkpt lat="14.932810094091371" lon="120.79549592921106"><ele>5.0</ele><time>2026-04-19T09:03:12Z</time></trkpt><trkpt lat="14.932681350708894" lon="120.79560978734156"><ele>5.0</ele><time>2026-04-19T09:03:13Z</time></trkpt><trkpt lat="14.932551490722112" lon="120.79572443227596"><ele>5.0</ele><time>2026-04-19T09:03:14Z</time></trkpt><trkpt lat="14.932423029181093" lon="120.79583878544966"><ele>5.0</ele><time>2026-04-19T09:03:15Z</time></trkpt><trkpt lat="14.932294023415839" lon="120.79595302592774"><ele>5.0</ele><time>2026-04-19T09:03:16Z</time></trkpt><trkpt lat="14.932163626086025" lon="120.79606883631547"><ele>5.0</ele><time>2026-04-19T09:03:17Z</time></trkpt><trkpt lat="14.932032697290666" lon="120.79618448495908"><ele>5.333333333333334</ele><time>2026-04-19T09:03:18Z</time></trkpt><trkpt lat="14.93189998651232" lon="120.79630109067321"><ele>5.666666666666667</ele><time>2026-04-19T09:03:19Z</time></trkpt><trkpt lat="14.931767109084717" lon="120.79641666491642"><ele>6.0</ele><time>2026-04-19T09:03:20Z</time></trkpt><trkpt lat="14.931633657611146" lon="120.79653337110061"><ele>6.0</ele><time>2026-04-19T09:03:21Z</time></trkpt><trkpt lat="14.93150078796289" lon="120.79664996593837"><ele>6.0</ele><time>2026-04-19T09:03:22Z</time></trkpt><trkpt lat="14.93136629563709" lon="120.79676837255828"><ele>6.0</ele><time>2026-04-19T09:03:23Z</time></trkpt><trkpt lat="14.931232943879115" lon="120.79688587653786"><ele>6.0</ele><time>2026-04-19T09:03:24Z</time></trkpt><trkpt lat="14.931102600200248" lon="120.7970013499538"><ele>6.0</ele><time>2026-04-19T09:03:25Z</time></trkpt><trkpt lat="14.93097344201117" lon="120.79711645899532"><ele>6.0</ele><time>2026-04-19T09:03:26Z</time></trkpt><trkpt lat="14.930844064905761" lon="120.79723103454582"><ele>5.666666666666667</ele><time>2026-04-19T09:03:27Z</time></trkpt><trkpt lat="14.930713929706753" lon="120.79734492386814"><ele>5.333333333333334</ele><time>2026-04-19T09:03:28Z</time></trkpt><trkpt lat="14.930583019777607" lon="120.79745799620656"><ele>5.0</ele><time>2026-04-19T09:03:29Z</time></trkpt><trkpt lat="14.930453699642479" lon="120.79757285264708"><ele>5.333333333333334</ele><time>2026-04-19T09:03:30Z</time></trkpt><trkpt lat="14.930323105073875" lon="120.79768734623507"><ele>5.666666666666667</ele><time>2026-04-19T09:03:31Z</time></trkpt><trkpt lat="14.930193671615932" lon="120.797802184313"><ele>6.0</ele><time>2026-04-19T09:03:32Z</time></trkpt><trkpt lat="14.93006185393379" lon="120.79791776419363"><ele>5.666666666666667</ele><time>2026-04-19T09:03:33Z</time></trkpt><trkpt lat="14.929927606863071" lon="120.79803350194301"><ele>5.333333333333334</ele><time>2026-04-19T09:03:34Z</time></trkpt><trkpt lat="14.929793637217822" lon="120.79815204473525"><ele>5.0</ele><time>2026-04-19T09:03:35Z</time></trkpt><trkpt lat="14.929658170226224" lon="120.79826918679362"><ele>5.0</ele><time>2026-04-19T09:03:36Z</time></trkpt><trkpt lat="14.929522465114845" lon="120.79838721617818"><ele>5.0</ele><time>2026-04-19T09:03:37Z</time></trkpt><trkpt lat="14.92938552086586" lon="120.79850693818018"><ele>5.0</ele><time>2026-04-19T09:03:38Z</time></trkpt><trkpt lat="14.929247278921821" lon="120.79862725052597"><ele>5.0</ele><time>2026-04-19T09:03:39Z</time></trkpt><trkpt lat="14.929109090290408" lon="120.79874801139204"><ele>5.0</ele><time>2026-04-19T09:03:40Z</time></trkpt><trkpt lat="14.928968078441848" lon="120.79886956968146"><ele>5.0</ele><time>2026-04-19T09:03:41Z</time></trkpt><trkpt lat="14.928826352339266" lon="120.7989914618197"><ele>5.0</ele><time>2026-04-19T09:03:42Z</time></trkpt><trkpt lat="14.92868393122407" lon="120.79911587929075"><ele>5.0</ele><time>2026-04-19T09:03:43Z</time></trkpt><trkpt lat="14.928541198762028" lon="120.79924062858979"><ele>5.0</ele><time>2026-04-19T09:03:44Z</time></trkpt><trkpt lat="14.928397552771646" lon="120.79936702644906"><ele>4.333333333333334</ele><time>2026-04-19T09:03:45Z</time></trkpt><trkpt lat="14.928255013602405" lon="120.79949262884517"><ele>3.666666666666667</ele><time>2026-04-19T09:03:46Z</time></trkpt><trkpt lat="14.928111951524167" lon="120.79961816288082"><ele>3.0</ele><time>2026-04-19T09:03:47Z</time></trkpt><trkpt lat="14.927970018905695" lon="120.79974272081635"><ele>3.0</ele><time>2026-04-19T09:03:48Z</time></trkpt><trkpt lat="14.927826893281983" lon="120.79986814891836"><ele>3.0</ele><time>2026-04-19T09:03:49Z</time></trkpt><trkpt lat="14.927683058812656" lon="120.79999338216228"><ele>3.0</ele><time>2026-04-19T09:03:50Z</time></trkpt><trkpt lat="14.927535764172047" lon="120.80011984549459"><ele>3.333333333333333</ele><time>2026-04-19T09:03:51Z</time></trkpt><trkpt lat="14.927388666947135" lon="120.8002487428114"><ele>3.6666666666666665</ele><time>2026-04-19T09:03:52Z</time></trkpt><trkpt lat="14.927240004935616" lon="120.80037800049404"><ele>4.0</ele><time>2026-04-19T09:03:53Z</time></trkpt><trkpt lat="14.927089626310028" lon="120.800510354138"><ele>4.0</ele><time>2026-04-19T09:03:54Z</time></trkpt><trkpt lat="14.926937487023874" lon="120.80064327467666"><ele>4.0</ele><time>2026-04-19T09:03:55Z</time></trkpt><trkpt lat="14.926787034758544" lon="120.80077627736307"><ele>4.0</ele><time>2026-04-19T09:03:56Z</time></trkpt><trkpt lat="14.926633864177772" lon="120.80091024991168"><ele>4.333333333333333</ele><time>2026-04-19T09:03:57Z</time></trkpt><trkpt lat="14.92648075162457" lon="120.80104424064906"><ele>4.666666666666667</ele><time>2026-04-19T09:03:58Z</time></trkpt><trkpt lat="14.926327794679127" lon="120.80117843268403"><ele>5.0</ele><time>2026-04-19T09:03:59Z</time></trkpt><trkpt lat="14.926178627758716" lon="120.80131102013758"><ele>5.0</ele><time>2026-04-19T09:04:00Z</time></trkpt><trkpt lat="14.926028772754439" lon="120.80144381128744"><ele>5.0</ele><time>2026-04-19T09:04:01Z</time></trkpt><trkpt lat="14.925878271011225" lon="120.80157292052895"><ele>5.0</ele><time>2026-04-19T09:04:02Z</time></trkpt><trkpt lat="14.925728896127348" lon="120.80170313664127"><ele>5.333333333333334</ele><time>2026-04-19T09:04:03Z</time></trkpt><trkpt lat="14.925578382484927" lon="120.80183401968094"><ele>5.666666666666667</ele><time>2026-04-19T09:04:04Z</time></trkpt><trkpt lat="14.925431350510532" lon="120.80196393305022"><ele>6.0</ele><time>2026-04-19T09:04:05Z</time></trkpt><trkpt lat="14.925284796432647" lon="120.80209331920327"><ele>6.0</ele><time>2026-04-19T09:04:06Z</time></trkpt><trkpt lat="14.925139630342196" lon="120.80222112050559"><ele>6.0</ele><time>2026-04-19T09:04:07Z</time></trkpt><trkpt lat="14.924995815824825" lon="120.80234692540222"><ele>6.0</ele><time>2026-04-19T09:04:08Z</time></trkpt><trkpt lat="14.924853349661312" lon="120.80247263403905"><ele>6.333333333333334</ele><time>2026-04-19T09:04:09Z</time></trkpt><trkpt lat="14.924712547943802" lon="120.80259797135781"><ele>6.666666666666667</ele><time>2026-04-19T09:04:10Z</time></trkpt><trkpt lat="14.924570260016276" lon="120.802721577632"><ele>7.0</ele><time>2026-04-19T09:04:11Z</time></trkpt><trkpt lat="14.924427407894276" lon="120.80284570097521"><ele>7.0</ele><time>2026-04-19T09:04:12Z</time></trkpt><trkpt lat="14.924284286167154" lon="120.80297071652626"><ele>7.0</ele><time>2026-04-19T09:04:13Z</time></trkpt><trkpt lat="14.924143461948919" lon="120.80309551483273"><ele>7.0</ele><time>2026-04-19T09:04:14Z</time></trkpt><trkpt lat="14.924002154597671" lon="120.80322052295269"><ele>7.0</ele><time>2026-04-19T09:04:15Z</time></trkpt><trkpt lat="14.923861358808084" lon="120.80334452902767"><ele>7.0</ele><time>2026-04-19T09:04:16Z</time></trkpt><trkpt lat="14.923720103973443" lon="120.80346868095947"><ele>7.0</ele><time>2026-04-19T09:04:17Z</time></trkpt><trkpt lat="14.923579269043287" lon="120.80359222834458"><ele>6.666666666666667</ele><time>2026-04-19T09:04:18Z</time></trkpt><trkpt lat="14.92344005023736" lon="120.80371311333626"><ele>6.333333333333334</ele><time>2026-04-19T09:04:19Z</time></trkpt><trkpt lat="14.923301173888094" lon="120.80383554275163"><ele>6.0</ele><time>2026-04-19T09:04:20Z</time></trkpt><trkpt lat="14.9231626704529" lon="120.80395779856788"><ele>6.0</ele><time>2026-04-19T09:04:21Z</time></trkpt><trkpt lat="14.923023706996338" lon="120.804085405313"><ele>6.0</ele><time>2026-04-19T09:04:22Z</time></trkpt><trkpt lat="14.92288044504353" lon="120.80421524913206"><ele>6.0</ele><time>2026-04-19T09:04:23Z</time></trkpt><trkpt lat="14.922734622910031" lon="120.8043470595508"><ele>6.0</ele><time>2026-04-19T09:04:24Z</time></trkpt><trkpt lat="14.922585837226686" lon="120.80448125401139"><ele>6.0</ele><time>2026-04-19T09:04:25Z</time></trkpt><trkpt lat="14.922434554280217" lon="120.80461726808137"><ele>6.0</ele><time>2026-04-19T09:04:26Z</time></trkpt><trkpt lat="14.922280479408807" lon="120.80475617670075"><ele>5.666666666666667</ele><time>2026-04-19T09:04:27Z</time></trkpt><trkpt lat="14.922123657134847" lon="120.80489748994457"><ele>5.333333333333334</ele><time>2026-04-19T09:04:28Z</time></trkpt><trkpt lat="14.921965729943235" lon="120.80503917093101"><ele>5.0</ele><time>2026-04-19T09:04:29Z</time></trkpt><trkpt lat="14.921805833750675" lon="120.80518158595562"><ele>5.333333333333334</ele><time>2026-04-19T09:04:30Z</time></trkpt><trkpt lat="14.921644791577473" lon="120.80532271905219"><ele>5.666666666666667</ele><time>2026-04-19T09:04:31Z</time></trkpt><trkpt lat="14.92148203983956" lon="120.80546615181274"><ele>6.0</ele><time>2026-04-19T09:04:32Z</time></trkpt><trkpt lat="14.921318106865705" lon="120.8056113165052"><ele>6.0</ele><time>2026-04-19T09:04:33Z</time></trkpt><trkpt lat="14.921152780318245" lon="120.8057560774436"><ele>6.0</ele><time>2026-04-19T09:04:34Z</time></trkpt><trkpt lat="14.920987755000787" lon="120.80589966081932"><ele>6.0</ele><time>2026-04-19T09:04:35Z</time></trkpt><trkpt lat="14.920823431014895" lon="120.80604264853046"><ele>6.333333333333334</ele><time>2026-04-19T09:04:36Z</time></trkpt><trkpt lat="14.92066386391679" lon="120.80618280198712"><ele>6.666666666666667</ele><time>2026-04-19T09:04:37Z</time></trkpt><trkpt lat="14.920507688760257" lon="120.80631973576959"><ele>7.0</ele><time>2026-04-19T09:04:38Z</time></trkpt><trkpt lat="14.920354663991812" lon="120.80645396615202"><ele>7.0</ele><time>2026-04-19T09:04:39Z</time></trkpt><trkpt lat="14.92020601761342" lon="120.8065842462381"><ele>7.0</ele><time>2026-04-19T09:04:40Z</time></trkpt><trkpt lat="14.920057819454042" lon="120.80671445437287"><ele>7.0</ele><time>2026-04-19T09:04:41Z</time></trkpt><trkpt lat="14.919912691033444" lon="120.80684069576498"><ele>7.333333333333334</ele><time>2026-04-19T09:04:42Z</time></trkpt><trkpt lat="14.91976996742433" lon="120.80696361828845"><ele>7.666666666666666</ele><time>2026-04-19T09:04:43Z</time></trkpt><trkpt lat="14.91963028395441" lon="120.80708592281213"><ele>8.0</ele><time>2026-04-19T09:04:44Z</time></trkpt><trkpt lat="14.919491814047209" lon="120.80720618938983"><ele>8.0</ele><time>2026-04-19T09:04:45Z</time></trkpt><trkpt lat="14.919355356602606" lon="120.80732464785041"><ele>8.0</ele><time>2026-04-19T09:04:46Z</time></trkpt><trkpt lat="14.919219412813598" lon="120.80744248664347"><ele>8.0</ele><time>2026-04-19T09:04:47Z</time></trkpt><trkpt lat="14.919081269226755" lon="120.80755912557638"><ele>8.333333333333332</ele><time>2026-04-19T09:04:48Z</time></trkpt><trkpt lat="14.918941954865003" lon="120.80767302238085"><ele>8.666666666666666</ele><time>2026-04-19T09:04:49Z</time></trkpt><trkpt lat="14.918800963961493" lon="120.807786889616"><ele>9.0</ele><time>2026-04-19T09:04:50Z</time></trkpt><trkpt lat="14.918660378685528" lon="120.80790108469101"><ele>9.0</ele><time>2026-04-19T09:04:51Z</time></trkpt><trkpt lat="14.918516947143416" lon="120.80801491733945"><ele>9.0</ele><time>2026-04-19T09:04:52Z</time></trkpt><trkpt lat="14.918372427408613" lon="120.80813132219406"><ele>9.0</ele><time>2026-04-19T09:04:53Z</time></trkpt><trkpt lat="14.91822542988183" lon="120.80824985160335"><ele>9.666666666666666</ele><time>2026-04-19T09:04:54Z</time></trkpt><trkpt lat="14.91807735415486" lon="120.8083722439022"><ele>10.333333333333332</ele><time>2026-04-19T09:04:55Z</time></trkpt><trkpt lat="14.917926694237332" lon="120.80850125342806"><ele>11.0</ele><time>2026-04-19T09:04:56Z</time></trkpt><trkpt lat="14.917761642108614" lon="120.80862088280918"><ele>10.333333333333332</ele><time>2026-04-19T09:04:57Z</time></trkpt><trkpt lat="14.917604709827119" lon="120.80875729580563"><ele>9.666666666666666</ele><time>2026-04-19T09:04:58Z</time></trkpt><trkpt lat="14.917442241708274" lon="120.80889802258461"><ele>9.0</ele><time>2026-04-19T09:04:59Z</time></trkpt><trkpt lat="14.917294943723169" lon="120.80906190563945"><ele>9.0</ele><time>2026-04-19T09:05:00Z</time></trkpt><trkpt lat="14.917126387077042" lon="120.80920851960454"><ele>9.0</ele><time>2026-04-19T09:05:01Z</time></trkpt><trkpt lat="14.916955123039" lon="120.80935609122812"><ele>9.0</ele><time>2026-04-19T09:05:02Z</time></trkpt><trkpt lat="14.916779532650892" lon="120.80950619405417"><ele>8.0</ele><time>2026-04-19T09:05:03Z</time></trkpt><trkpt lat="14.916601466160763" lon="120.80965875595298"><ele>7.0</ele><time>2026-04-19T09:05:04Z</time></trkpt><trkpt lat="14.916423690280253" lon="120.80981516654568"><ele>7.0</ele><time>2026-04-19T09:05:05Z</time></trkpt><trkpt lat="14.91624396262159" lon="120.80997129142196"><ele>7.0</ele><time>2026-04-19T09:05:06Z</time></trkpt><trkpt lat="14.916064984941537" lon="120.8101285592475"><ele>7.5</ele><time>2026-04-19T09:05:07Z</time></trkpt><trkpt lat="14.915881747618188" lon="120.81028654413271"><ele>8.0</ele><time>2026-04-19T09:05:08Z</time></trkpt><trkpt lat="14.915696691363483" lon="120.81044281814093"><ele>8.0</ele><time>2026-04-19T09:05:09Z</time></trkpt><trkpt lat="14.915509106502798" lon="120.81060017147449"><ele>8.0</ele><time>2026-04-19T09:05:10Z</time></trkpt><trkpt lat="14.915321158923133" lon="120.81075936830894"><ele>8.0</ele><time>2026-04-19T09:05:11Z</time></trkpt><trkpt lat="14.915135598094537" lon="120.81091949407337"><ele>8.0</ele><time>2026-04-19T09:05:12Z</time></trkpt><trkpt lat="14.91495344542434" lon="120.8110784960136"><ele>8.0</ele><time>2026-04-19T09:05:13Z</time></trkpt><trkpt lat="14.914773079933077" lon="120.81123488202248"><ele>8.0</ele><time>2026-04-19T09:05:14Z</time></trkpt><trkpt lat="14.914595005866415" lon="120.81138851295567"><ele>8.0</ele><time>2026-04-19T09:05:15Z</time></trkpt><trkpt lat="14.914419937482615" lon="120.81154097305777"><ele>8.0</ele><time>2026-04-19T09:05:16Z</time></trkpt><trkpt lat="14.914247795118172" lon="120.8116922408096"><ele>8.0</ele><time>2026-04-19T09:05:17Z</time></trkpt><trkpt lat="14.914077025132867" lon="120.81184214963397"><ele>8.0</ele><time>2026-04-19T09:05:18Z</time></trkpt><trkpt lat="14.91390702998329" lon="120.81199050775307"><ele>8.0</ele><time>2026-04-19T09:05:19Z</time></trkpt><trkpt lat="14.913737532825635" lon="120.81213936017886"><ele>8.0</ele><time>2026-04-19T09:05:20Z</time></trkpt><trkpt lat="14.913569669363671" lon="120.81228832474851"><ele>8.0</ele><time>2026-04-19T09:05:21Z</time></trkpt><trkpt lat="14.913402897852993" lon="120.81243536292119"><ele>8.0</ele><time>2026-04-19T09:05:22Z</time></trkpt><trkpt lat="14.913234982294155" lon="120.81258429018102"><ele>7.666666666666666</ele><time>2026-04-19T09:05:23Z</time></trkpt><trkpt lat="14.913066337532943" lon="120.81273273826278"><ele>7.333333333333334</ele><time>2026-04-19T09:05:24Z</time></trkpt><trkpt lat="14.912897351381243" lon="120.81288438381532"><ele>7.0</ele><time>2026-04-19T09:05:25Z</time></trkpt><trkpt lat="14.912727965099117" lon="120.8130357258185"><ele>7.333333333333334</ele><time>2026-04-19T09:05:26Z</time></trkpt><trkpt lat="14.912559934546014" lon="120.81318366723086"><ele>7.666666666666666</ele><time>2026-04-19T09:05:27Z</time></trkpt><trkpt lat="14.912388757925328" lon="120.81333128123948"><ele>8.0</ele><time>2026-04-19T09:05:28Z</time></trkpt><trkpt lat="14.912216874705273" lon="120.81347943741838"><ele>7.333333333333333</ele><time>2026-04-19T09:05:29Z</time></trkpt><trkpt lat="14.912045373767011" lon="120.81362868108694"><ele>6.666666666666666</ele><time>2026-04-19T09:05:30Z</time></trkpt><trkpt lat="14.91187326518747" lon="120.81377860832217"><ele>6.0</ele><time>2026-04-19T09:05:31Z</time></trkpt><trkpt lat="14.911699873263998" lon="120.81392877674685"><ele>8.0</ele><time>2026-04-19T09:05:32Z</time></trkpt><trkpt lat="14.911526549492523" lon="120.81407948545876"><ele>10.0</ele><time>2026-04-19T09:05:33Z</time></trkpt><trkpt lat="14.911355050577463" lon="120.81422985388191"><ele>10.0</ele><time>2026-04-19T09:05:34Z</time></trkpt><trkpt lat="14.91118753437737" lon="120.81437742258113"><ele>10.0</ele><time>2026-04-19T09:05:35Z</time></trkpt><trkpt lat="14.911021128581146" lon="120.81452351675046"><ele>10.0</ele><time>2026-04-19T09:05:36Z</time></trkpt><trkpt lat="14.910857192475941" lon="120.81466700507502"><ele>10.0</ele><time>2026-04-19T09:05:37Z</time></trkpt><trkpt lat="14.910690486556463" lon="120.8148134633387"><ele>10.0</ele><time>2026-04-19T09:05:38Z</time></trkpt><trkpt lat="14.91052708436842" lon="120.81495670419373"><ele>10.0</ele><time>2026-04-19T09:05:39Z</time></trkpt><trkpt lat="14.910362842737877" lon="120.81509908249838"><ele>9.666666666666668</ele><time>2026-04-19T09:05:40Z</time></trkpt><trkpt lat="14.910200273242465" lon="120.81524135264013"><ele>9.333333333333334</ele><time>2026-04-19T09:05:41Z</time></trkpt><trkpt lat="14.91003865023915" lon="120.81538199220205"><ele>9.0</ele><time>2026-04-19T09:05:42Z</time></trkpt><trkpt lat="14.909878784859895" lon="120.81552285206769"><ele>9.666666666666666</ele><time>2026-04-19T09:05:43Z</time></trkpt><trkpt lat="14.90971832554515" lon="120.81566298614395"><ele>10.333333333333332</ele><time>2026-04-19T09:05:44Z</time></trkpt><trkpt lat="14.90955832067399" lon="120.81580246581755"><ele>11.0</ele><time>2026-04-19T09:05:45Z</time></trkpt><trkpt lat="14.909401227775096" lon="120.81594277049301"><ele>11.0</ele><time>2026-04-19T09:05:46Z</time></trkpt><trkpt lat="14.909242173944847" lon="120.81608259304667"><ele>11.0</ele><time>2026-04-19T09:05:47Z</time></trkpt><trkpt lat="14.90908425228119" lon="120.8162229506513"><ele>11.0</ele><time>2026-04-19T09:05:48Z</time></trkpt><trkpt lat="14.908927435460685" lon="120.81636006438865"><ele>11.0</ele><time>2026-04-19T09:05:49Z</time></trkpt><trkpt lat="14.908773598398684" lon="120.8164985757261"><ele>11.0</ele><time>2026-04-19T09:05:50Z</time></trkpt><trkpt lat="14.90862129972938" lon="120.81663571435453"><ele>11.0</ele><time>2026-04-19T09:05:51Z</time></trkpt><trkpt lat="14.90846991117509" lon="120.81676828576633"><ele>11.666666666666666</ele><time>2026-04-19T09:05:52Z</time></trkpt><trkpt lat="14.908317202024369" lon="120.81690019199459"><ele>12.333333333333332</ele><time>2026-04-19T09:05:53Z</time></trkpt><trkpt lat="14.908166360749032" lon="120.8170289513873"><ele>13.0</ele><time>2026-04-19T09:05:54Z</time></trkpt><trkpt lat="14.90801134561078" lon="120.81716300470488"><ele>13.0</ele><time>2026-04-19T09:05:55Z</time></trkpt><trkpt lat="14.907854947235386" lon="120.81729777671833"><ele>13.0</ele><time>2026-04-19T09:05:56Z</time></trkpt><trkpt lat="14.907696676877315" lon="120.8174348486317"><ele>13.0</ele><time>2026-04-19T09:05:57Z</time></trkpt><trkpt lat="14.907537872413975" lon="120.81757489147766"><ele>12.666666666666666</ele><time>2026-04-19T09:05:58Z</time></trkpt><trkpt lat="14.90737647712627" lon="120.81771419162146"><ele>12.333333333333332</ele><time>2026-04-19T09:05:59Z</time></trkpt><trkpt lat="14.907213333284195" lon="120.81785686123908"><ele>12.0</ele><time>2026-04-19T09:06:00Z</time></trkpt><trkpt lat="14.907049188677751" lon="120.81800149416678"><ele>12.0</ele><time>2026-04-19T09:06:01Z</time></trkpt><trkpt lat="14.906882916140004" lon="120.81814690607872"><ele>12.0</ele><time>2026-04-19T09:06:02Z</time></trkpt><trkpt lat="14.906716449143692" lon="120.81829265981442"><ele>12.0</ele><time>2026-04-19T09:06:03Z</time></trkpt><trkpt lat="14.906551643965516" lon="120.81843744782762"><ele>11.333333333333334</ele><time>2026-04-19T09:06:04Z</time></trkpt><trkpt lat="14.90638739741995" lon="120.81858067034915"><ele>10.666666666666668</ele><time>2026-04-19T09:06:05Z</time></trkpt><trkpt lat="14.906225464777718" lon="120.81872116779398"><ele>10.0</ele><time>2026-04-19T09:06:06Z</time></trkpt><trkpt lat="14.906065777159524" lon="120.81886112884546"><ele>11.0</ele><time>2026-04-19T09:06:07Z</time></trkpt><trkpt lat="14.90590733056958" lon="120.8190013688298"><ele>12.0</ele><time>2026-04-19T09:06:08Z</time></trkpt><trkpt lat="14.905748718961833" lon="120.81914142538864"><ele>13.0</ele><time>2026-04-19T09:06:09Z</time></trkpt><trkpt lat="14.905592297168644" lon="120.81927828635584"><ele>11.333333333333332</ele><time>2026-04-19T09:06:10Z</time></trkpt><trkpt lat="14.905437899056773" lon="120.81941275528317"><ele>9.666666666666666</ele><time>2026-04-19T09:06:11Z</time></trkpt><trkpt lat="14.905287604903453" lon="120.81954416579356"><ele>8.0</ele><time>2026-04-19T09:06:12Z</time></trkpt><trkpt lat="14.905143543810722" lon="120.81966994828566"><ele>9.0</ele><time>2026-04-19T09:06:13Z</time></trkpt><trkpt lat="14.905003438613274" lon="120.81978962204667"><ele>10.0</ele><time>2026-04-19T09:06:14Z</time></trkpt><trkpt lat="14.904867826946917" lon="120.81990378427226"><ele>11.0</ele><time>2026-04-19T09:06:15Z</time></trkpt><trkpt lat="14.904731679522833" lon="120.82001757098469"><ele>11.0</ele><time>2026-04-19T09:06:16Z</time></trkpt><trkpt lat="14.904598753910154" lon="120.82013052684171"><ele>11.0</ele><time>2026-04-19T09:06:17Z</time></trkpt><trkpt lat="14.90446513356866" lon="120.82024210281568"><ele>11.0</ele><time>2026-04-19T09:06:18Z</time></trkpt><trkpt lat="14.90433207977083" lon="120.82035216533646"><ele>11.666666666666666</ele><time>2026-04-19T09:06:19Z</time></trkpt><trkpt lat="14.904201189131978" lon="120.82046308489254"><ele>12.333333333333332</ele><time>2026-04-19T09:06:20Z</time></trkpt><trkpt lat="14.904073562029447" lon="120.82057297390278"><ele>13.0</ele><time>2026-04-19T09:06:21Z</time></trkpt><trkpt lat="14.90394647772131" lon="120.8206831075118"><ele>13.0</ele><time>2026-04-19T09:06:22Z</time></trkpt><trkpt lat="14.903821450682088" lon="120.82079192892324"><ele>13.0</ele><time>2026-04-19T09:06:23Z</time></trkpt><trkpt lat="14.90369601429551" lon="120.82090273506458"><ele>13.0</ele><time>2026-04-19T09:06:24Z</time></trkpt><trkpt lat="14.903571402905833" lon="120.82101543290786"><ele>13.0</ele><time>2026-04-19T09:06:25Z</time></trkpt><trkpt lat="14.903448358328772" lon="120.82112918412852"><ele>13.0</ele><time>2026-04-19T09:06:26Z</time></trkpt><trkpt lat="14.903322469400218" lon="120.82124420289229"><ele>13.0</ele><time>2026-04-19T09:06:27Z</time></trkpt><trkpt lat="14.903196336849028" lon="120.82136066926537"><ele>10.666666666666666</ele><time>2026-04-19T09:06:28Z</time></trkpt><trkpt lat="14.903067902427091" lon="120.82147744391622"><ele>8.333333333333332</ele><time>2026-04-19T09:06:29Z</time></trkpt><trkpt lat="14.902938659116986" lon="120.82159524584233"><ele>6.0</ele><time>2026-04-19T09:06:30Z</time></trkpt><trkpt lat="14.902805674616769" lon="120.82171402776662"><ele>8.333333333333332</ele><time>2026-04-19T09:06:31Z</time></trkpt><trkpt lat="14.902671601657337" lon="120.82183590935335"><ele>10.666666666666666</ele><time>2026-04-19T09:06:32Z</time></trkpt><trkpt lat="14.902533736515458" lon="120.82195709454257"><ele>13.0</ele><time>2026-04-19T09:06:33Z</time></trkpt><trkpt lat="14.902395439789805" lon="120.82207978961516"><ele>14.0</ele><time>2026-04-19T09:06:34Z</time></trkpt><trkpt lat="14.902253538926246" lon="120.82220460969629"><ele>15.0</ele><time>2026-04-19T09:06:35Z</time></trkpt><trkpt lat="14.902110154646138" lon="120.82233187301745"><ele>16.0</ele><time>2026-04-19T09:06:36Z</time></trkpt><trkpt lat="14.901967414492592" lon="120.82246160192362"><ele>16.0</ele><time>2026-04-19T09:06:37Z</time></trkpt><trkpt lat="14.901822078218721" lon="120.82259424908065"><ele>16.0</ele><time>2026-04-19T09:06:38Z</time></trkpt><trkpt lat="14.901675494807774" lon="120.82273012783347"><ele>16.0</ele><time>2026-04-19T09:06:39Z</time></trkpt><trkpt lat="14.901526365113838" lon="120.82286663616664"><ele>16.0</ele><time>2026-04-19T09:06:40Z</time></trkpt><trkpt lat="14.901375195423855" lon="120.82300356884605"><ele>16.0</ele><time>2026-04-19T09:06:41Z</time></trkpt><trkpt lat="14.901220635578182" lon="120.82313935745238"><ele>16.0</ele><time>2026-04-19T09:06:42Z</time></trkpt><trkpt lat="14.901064065746073" lon="120.8232757012223"><ele>16.333333333333332</ele><time>2026-04-19T09:06:43Z</time></trkpt><trkpt lat="14.900905921471097" lon="120.82341463476277"><ele>16.666666666666668</ele><time>2026-04-19T09:06:44Z</time></trkpt><trkpt lat="14.900743887452878" lon="120.82355368634528"><ele>17.0</ele><time>2026-04-19T09:06:45Z</time></trkpt><trkpt lat="14.900582830827377" lon="120.82369519275883"><ele>17.0</ele><time>2026-04-19T09:06:46Z</time></trkpt><trkpt lat="14.90042049276742" lon="120.82383986381812"><ele>17.0</ele><time>2026-04-19T09:06:47Z</time></trkpt><trkpt lat="14.900255433143538" lon="120.82398275962598"><ele>17.0</ele><time>2026-04-19T09:06:48Z</time></trkpt><trkpt lat="14.900090381070775" lon="120.82412789042074"><ele>16.666666666666668</ele><time>2026-04-19T09:06:49Z</time></trkpt><trkpt lat="14.899924572417858" lon="120.82427411593451"><ele>16.333333333333332</ele><time>2026-04-19T09:06:50Z</time></trkpt><trkpt lat="14.899756041748573" lon="120.82442157721032"><ele>16.0</ele><time>2026-04-19T09:06:51Z</time></trkpt><trkpt lat="14.899587304210826" lon="120.82456943552286"><ele>15.666666666666666</ele><time>2026-04-19T09:06:52Z</time></trkpt><trkpt lat="14.899417440284916" lon="120.82471797156657"><ele>15.333333333333332</ele><time>2026-04-19T09:06:53Z</time></trkpt><trkpt lat="14.899246958082704" lon="120.82486634857909"><ele>15.0</ele><time>2026-04-19T09:06:54Z</time></trkpt><trkpt lat="14.89907584879337" lon="120.82501446462182"><ele>14.0</ele><time>2026-04-19T09:06:55Z</time></trkpt><trkpt lat="14.898905543826663" lon="120.82516172991126"><ele>13.0</ele><time>2026-04-19T09:06:56Z</time></trkpt><trkpt lat="14.898735807067935" lon="120.82531006048804"><ele>12.0</ele><time>2026-04-19T09:06:57Z</time></trkpt><trkpt lat="14.898567504087346" lon="120.82545585609587"><ele>12.333333333333332</ele><time>2026-04-19T09:06:58Z</time></trkpt><trkpt lat="14.898403465433349" lon="120.82559819246143"><ele>12.666666666666666</ele><time>2026-04-19T09:06:59Z</time></trkpt><trkpt lat="14.89824543307568" lon="120.82573643226756"><ele>13.0</ele><time>2026-04-19T09:07:00Z</time></trkpt><trkpt lat="14.898090850013112" lon="120.82587015272644"><ele>13.0</ele><time>2026-04-19T09:07:01Z</time></trkpt><trkpt lat="14.897940158727177" lon="120.82600441805454"><ele>13.0</ele><time>2026-04-19T09:07:02Z</time></trkpt><trkpt lat="14.897789672315302" lon="120.82613451107152"><ele>13.0</ele><time>2026-04-19T09:07:03Z</time></trkpt><trkpt lat="14.897637621643739" lon="120.82626160340594"><ele>12.666666666666666</ele><time>2026-04-19T09:07:04Z</time></trkpt><trkpt lat="14.897487288821907" lon="120.82638893829257"><ele>12.333333333333332</ele><time>2026-04-19T09:07:05Z</time></trkpt><trkpt lat="14.897338416499533" lon="120.8265171216635"><ele>12.0</ele><time>2026-04-19T09:07:06Z</time></trkpt><trkpt lat="14.897184054173582" lon="120.82664330232859"><ele>12.0</ele><time>2026-04-19T09:07:07Z</time></trkpt><trkpt lat="14.897029604908525" lon="120.82677200668438"><ele>12.0</ele><time>2026-04-19T09:07:08Z</time></trkpt><trkpt lat="14.89686981787931" lon="120.8269050428904"><ele>12.0</ele><time>2026-04-19T09:07:09Z</time></trkpt><trkpt lat="14.896713956395693" lon="120.82703683419807"><ele>11.0</ele><time>2026-04-19T09:07:10Z</time></trkpt><trkpt lat="14.896553961119197" lon="120.82716724601144"><ele>10.0</ele><time>2026-04-19T09:07:11Z</time></trkpt><trkpt lat="14.89639301894772" lon="120.82729942455825"><ele>9.0</ele><time>2026-04-19T09:07:12Z</time></trkpt><trkpt lat="14.896226508231742" lon="120.82743828623451"><ele>9.0</ele><time>2026-04-19T09:07:13Z</time></trkpt><trkpt lat="14.896065903941686" lon="120.82756753354127"><ele>9.0</ele><time>2026-04-19T09:07:14Z</time></trkpt><trkpt lat="14.895904458872845" lon="120.82769715628388"><ele>9.0</ele><time>2026-04-19T09:07:15Z</time></trkpt><trkpt lat="14.895746054752781" lon="120.82782492065321"><ele>10.333333333333332</ele><time>2026-04-19T09:07:16Z</time></trkpt><trkpt lat="14.895587781813138" lon="120.82795111719304"><ele>11.666666666666666</ele><time>2026-04-19T09:07:17Z</time></trkpt><trkpt lat="14.895433162725507" lon="120.8280767871592"><ele>13.0</ele><time>2026-04-19T09:07:18Z</time></trkpt><trkpt lat="14.895278440314636" lon="120.82819934442104"><ele>13.0</ele><time>2026-04-19T09:07:19Z</time></trkpt><trkpt lat="14.89512547219107" lon="120.82831864822397"><ele>13.0</ele><time>2026-04-19T09:07:20Z</time></trkpt><trkpt lat="14.89497398716305" lon="120.82843822838757"><ele>13.0</ele><time>2026-04-19T09:07:21Z</time></trkpt><trkpt lat="14.894823247570413" lon="120.82855660444686"><ele>12.666666666666666</ele><time>2026-04-19T09:07:22Z</time></trkpt><trkpt lat="14.894673605941675" lon="120.8286711903566"><ele>12.333333333333332</ele><time>2026-04-19T09:07:23Z</time></trkpt><trkpt lat="14.894525224333734" lon="120.82878392086825"><ele>12.0</ele><time>2026-04-19T09:07:24Z</time></trkpt><trkpt lat="14.894378464689714" lon="120.82889605104913"><ele>12.0</ele><time>2026-04-19T09:07:25Z</time></trkpt><trkpt lat="14.894232107203697" lon="120.82900816052182"><ele>12.0</ele><time>2026-04-19T09:07:26Z</time></trkpt><trkpt lat="14.894083035989944" lon="120.82912167516066"><ele>12.0</ele><time>2026-04-19T09:07:27Z</time></trkpt><trkpt lat="14.893935246268914" lon="120.82923252684904"><ele>11.666666666666666</ele><time>2026-04-19T09:07:28Z</time></trkpt><trkpt lat="14.893786139390228" lon="120.82934476047886"><ele>11.333333333333332</ele><time>2026-04-19T09:07:29Z</time></trkpt><trkpt lat="14.893635830495741" lon="120.82945730378702"><ele>11.0</ele><time>2026-04-19T09:07:30Z</time></trkpt><trkpt lat="14.893486175084524" lon="120.82956928217992"><ele>11.333333333333332</ele><time>2026-04-19T09:07:31Z</time></trkpt><trkpt lat="14.893334378590582" lon="120.82968326621109"><ele>11.666666666666666</ele><time>2026-04-19T09:07:32Z</time></trkpt><trkpt lat="14.893181694276542" lon="120.82979667423967"><ele>12.0</ele><time>2026-04-19T09:07:33Z</time></trkpt><trkpt lat="14.89302760559956" lon="120.82991021328404"><ele>12.0</ele><time>2026-04-19T09:07:34Z</time></trkpt><trkpt lat="14.892870767741032" lon="120.83002666454783"><ele>12.0</ele><time>2026-04-19T09:07:35Z</time></trkpt><trkpt lat="14.892712968789501" lon="120.83014238577306"><ele>12.0</ele><time>2026-04-19T09:07:36Z</time></trkpt><trkpt lat="14.89255152818635" lon="120.83026035836544"><ele>11.666666666666666</ele><time>2026-04-19T09:07:37Z</time></trkpt><trkpt lat="14.892385129381754" lon="120.830380092956"><ele>11.333333333333332</ele><time>2026-04-19T09:07:38Z</time></trkpt><trkpt lat="14.892215645872083" lon="120.83050284698578"><ele>11.0</ele><time>2026-04-19T09:07:39Z</time></trkpt><trkpt lat="14.892042463597072" lon="120.83062546723798"><ele>11.0</ele><time>2026-04-19T09:07:40Z</time></trkpt><trkpt lat="14.891866998677553" lon="120.83074942472884"><ele>11.0</ele><time>2026-04-19T09:07:41Z</time></trkpt><trkpt lat="14.89169051491708" lon="120.83087420678591"><ele>11.0</ele><time>2026-04-19T09:07:42Z</time></trkpt><trkpt lat="14.891512461483527" lon="120.83099868660656"><ele>10.0</ele><time>2026-04-19T09:07:43Z</time></trkpt><trkpt lat="14.891334847527673" lon="120.83112355054115"><ele>9.0</ele><time>2026-04-19T09:07:44Z</time></trkpt><trkpt lat="14.891156877815305" lon="120.8312475855446"><ele>8.0</ele><time>2026-04-19T09:07:45Z</time></trkpt><trkpt lat="14.890979501160391" lon="120.83136998828554"><ele>8.0</ele><time>2026-04-19T09:07:46Z</time></trkpt><trkpt lat="14.890800389692076" lon="120.83149218887252"><ele>8.0</ele><time>2026-04-19T09:07:47Z</time></trkpt><trkpt lat="14.890620492223652" lon="120.83161309072976"><ele>8.0</ele><time>2026-04-19T09:07:48Z</time></trkpt><trkpt lat="14.890442378356438" lon="120.83173317306476"><ele>8.333333333333332</ele><time>2026-04-19T09:07:49Z</time></trkpt><trkpt lat="14.89026674162243" lon="120.8318514243645"><ele>8.666666666666666</ele><time>2026-04-19T09:07:50Z</time></trkpt><trkpt lat="14.890095089182346" lon="120.83196609232975"><ele>9.0</ele><time>2026-04-19T09:07:51Z</time></trkpt><trkpt lat="14.889927721967068" lon="120.83207854736767"><ele>9.0</ele><time>2026-04-19T09:07:52Z</time></trkpt><trkpt lat="14.889763163332224" lon="120.83218894234511"><ele>9.0</ele><time>2026-04-19T09:07:53Z</time></trkpt><trkpt lat="14.889601200581998" lon="120.83229691425544"><ele>9.0</ele><time>2026-04-19T09:07:54Z</time></trkpt><trkpt lat="14.88944345452654" lon="120.83240167357143"><ele>9.0</ele><time>2026-04-19T09:07:55Z</time></trkpt><trkpt lat="14.889287876140994" lon="120.8325043726424"><ele>9.0</ele><time>2026-04-19T09:07:56Z</time></trkpt><trkpt lat="14.889133883978236" lon="120.83260501344493"><ele>9.0</ele><time>2026-04-19T09:07:57Z</time></trkpt><trkpt lat="14.888980020445823" lon="120.83270412977058"><ele>9.333333333333334</ele><time>2026-04-19T09:07:58Z</time></trkpt><trkpt lat="14.888825688610122" lon="120.83280292851579"><ele>9.666666666666668</ele><time>2026-04-19T09:07:59Z</time></trkpt><trkpt lat="14.888670350119655" lon="120.83290238017614"><ele>10.0</ele><time>2026-04-19T09:08:00Z</time></trkpt><trkpt lat="14.888515810884664" lon="120.83299988480564"><ele>9.666666666666668</ele><time>2026-04-19T09:08:01Z</time></trkpt><trkpt lat="14.888363246507872" lon="120.83309717360245"><ele>9.333333333333334</ele><time>2026-04-19T09:08:02Z</time></trkpt><trkpt lat="14.88821079185695" lon="120.83319358877968"><ele>9.0</ele><time>2026-04-19T09:08:03Z</time></trkpt><trkpt lat="14.888059378048407" lon="120.83328842542367"><ele>9.0</ele><time>2026-04-19T09:08:04Z</time></trkpt><trkpt lat="14.887906889111134" lon="120.83338268737818"><ele>9.0</ele><time>2026-04-19T09:08:05Z</time></trkpt><trkpt lat="14.887753094530282" lon="120.83347862434337"><ele>9.0</ele><time>2026-04-19T09:08:06Z</time></trkpt><trkpt lat="14.887597343395521" lon="120.83357450204687"><ele>9.0</ele><time>2026-04-19T09:08:07Z</time></trkpt><trkpt lat="14.887441278540617" lon="120.8336737074026"><ele>9.0</ele><time>2026-04-19T09:08:08Z</time></trkpt><trkpt lat="14.88728200369407" lon="120.8337755351325"><ele>9.0</ele><time>2026-04-19T09:08:09Z</time></trkpt><trkpt lat="14.887120870105159" lon="120.83387929675123"><ele>9.0</ele><time>2026-04-19T09:08:10Z</time></trkpt><trkpt lat="14.886962004652588" lon="120.83398362192756"><ele>9.0</ele><time>2026-04-19T09:08:11Z</time></trkpt><trkpt lat="14.886804341990773" lon="120.83408582790821"><ele>9.0</ele><time>2026-04-19T09:08:12Z</time></trkpt><trkpt lat="14.886649146611472" lon="120.83418699060427"><ele>9.666666666666666</ele><time>2026-04-19T09:08:13Z</time></trkpt><trkpt lat="14.886495935984648" lon="120.83428612297331"><ele>10.333333333333332</ele><time>2026-04-19T09:08:14Z</time></trkpt><trkpt lat="14.886343313445686" lon="120.83438490704333"><ele>11.0</ele><time>2026-04-19T09:08:15Z</time></trkpt><trkpt lat="14.886193024828328" lon="120.83448298080584"><ele>11.0</ele><time>2026-04-19T09:08:16Z</time></trkpt><trkpt lat="14.886048580640649" lon="120.83457695233119"><ele>11.0</ele><time>2026-04-19T09:08:17Z</time></trkpt><trkpt lat="14.885905061754805" lon="120.83467089464155"><ele>11.0</ele><time>2026-04-19T09:08:18Z</time></trkpt><trkpt lat="14.88576336727726" lon="120.83476418195879"><ele>11.0</ele><time>2026-04-19T09:08:19Z</time></trkpt><trkpt lat="14.88562203924371" lon="120.83485662628351"><ele>11.0</ele><time>2026-04-19T09:08:20Z</time></trkpt><trkpt lat="14.885478208629989" lon="120.83495101653813"><ele>11.0</ele><time>2026-04-19T09:08:21Z</time></trkpt><trkpt lat="14.885331743920831" lon="120.83504750770999"><ele>10.666666666666666</ele><time>2026-04-19T09:08:22Z</time></trkpt><trkpt lat="14.885181112519042" lon="120.83514499848596"><ele>10.333333333333334</ele><time>2026-04-19T09:08:23Z</time></trkpt><trkpt lat="14.885025151225042" lon="120.83524817033917"><ele>10.0</ele><time>2026-04-19T09:08:24Z</time></trkpt><trkpt lat="14.884864848295946" lon="120.83535399910717"><ele>10.666666666666668</ele><time>2026-04-19T09:08:25Z</time></trkpt><trkpt lat="14.884701769096054" lon="120.8354644218306"><ele>11.333333333333334</ele><time>2026-04-19T09:08:26Z</time></trkpt><trkpt lat="14.884538026025025" lon="120.83557669263926"><ele>12.0</ele><time>2026-04-19T09:08:27Z</time></trkpt><trkpt lat="14.88437491818317" lon="120.83569249857912"><ele>12.0</ele><time>2026-04-19T09:08:28Z</time></trkpt><trkpt lat="14.884213729622152" lon="120.83580980667979"><ele>12.0</ele><time>2026-04-19T09:08:29Z</time></trkpt><trkpt lat="14.884053611732943" lon="120.83593029430288"><ele>12.0</ele><time>2026-04-19T09:08:30Z</time></trkpt><trkpt lat="14.883893919532737" lon="120.83604753880162"><ele>11.666666666666666</ele><time>2026-04-19T09:08:31Z</time></trkpt><trkpt lat="14.883736648836633" lon="120.83616228278656"><ele>11.333333333333332</ele><time>2026-04-19T09:08:32Z</time></trkpt><trkpt lat="14.883582077731297" lon="120.83627472783428"><ele>11.0</ele><time>2026-04-19T09:08:33Z</time></trkpt><trkpt lat="14.88342872151576" lon="120.83638708689836"><ele>11.0</ele><time>2026-04-19T09:08:34Z</time></trkpt><trkpt lat="14.883275455217284" lon="120.83650019330652"><ele>11.0</ele><time>2026-04-19T09:08:35Z</time></trkpt><trkpt lat="14.883120777979807" lon="120.8366138330778"><ele>11.0</ele><time>2026-04-19T09:08:36Z</time></trkpt><trkpt lat="14.882963946896444" lon="120.8367274182527"><ele>10.666666666666666</ele><time>2026-04-19T09:08:37Z</time></trkpt><trkpt lat="14.882806186398374" lon="120.83684412818063"><ele>10.333333333333334</ele><time>2026-04-19T09:08:38Z</time></trkpt><trkpt lat="14.882645598415197" lon="120.836964090708"><ele>10.0</ele><time>2026-04-19T09:08:39Z</time></trkpt><trkpt lat="14.882485250899574" lon="120.83708526720834"><ele>11.0</ele><time>2026-04-19T09:08:40Z</time></trkpt><trkpt lat="14.882321479856609" lon="120.83720825289221"><ele>12.0</ele><time>2026-04-19T09:08:41Z</time></trkpt><trkpt lat="14.882156385571434" lon="120.83733353656915"><ele>13.0</ele><time>2026-04-19T09:08:42Z</time></trkpt><trkpt lat="14.881991619549611" lon="120.83745915257367"><ele>13.0</ele><time>2026-04-19T09:08:43Z</time></trkpt><trkpt lat="14.881828999624696" lon="120.83758086825961"><ele>13.0</ele><time>2026-04-19T09:08:44Z</time></trkpt><trkpt lat="14.881667539629085" lon="120.83770295360789"><ele>13.0</ele><time>2026-04-19T09:08:45Z</time></trkpt><trkpt lat="14.881503716338557" lon="120.83782668226591"><ele>12.333333333333332</ele><time>2026-04-19T09:08:46Z</time></trkpt><trkpt lat="14.881340461521402" lon="120.8379528806927"><ele>11.666666666666666</ele><time>2026-04-19T09:08:47Z</time></trkpt><trkpt lat="14.881175075594129" lon="120.83808164528239"><ele>11.0</ele><time>2026-04-19T09:08:48Z</time></trkpt><trkpt lat="14.881007080258568" lon="120.83820852370994"><ele>11.0</ele><time>2026-04-19T09:08:49Z</time></trkpt><trkpt lat="14.880836767571278" lon="120.8383396617793"><ele>11.0</ele><time>2026-04-19T09:08:50Z</time></trkpt><trkpt lat="14.880667508275488" lon="120.83847112142446"><ele>11.0</ele><time>2026-04-19T09:08:51Z</time></trkpt><trkpt lat="14.88049790765208" lon="120.83860342313"><ele>11.0</ele><time>2026-04-19T09:08:52Z</time></trkpt><trkpt lat="14.88032897173802" lon="120.83873822217613"><ele>11.0</ele><time>2026-04-19T09:08:53Z</time></trkpt><trkpt lat="14.88015966532826" lon="120.83887559949102"><ele>11.0</ele><time>2026-04-19T09:08:54Z</time></trkpt><trkpt lat="14.879992152570514" lon="120.83901141083324"><ele>10.666666666666666</ele><time>2026-04-19T09:08:55Z</time></trkpt><trkpt lat="14.879822373897968" lon="120.83914955714383"><ele>10.333333333333334</ele><time>2026-04-19T09:08:56Z</time></trkpt><trkpt lat="14.879651781904087" lon="120.83928881577759"><ele>10.0</ele><time>2026-04-19T09:08:57Z</time></trkpt><trkpt lat="14.879479011902966" lon="120.83942917214075"><ele>10.0</ele><time>2026-04-19T09:08:58Z</time></trkpt><trkpt lat="14.879304535087547" lon="120.8395719293039"><ele>10.0</ele><time>2026-04-19T09:08:59Z</time></trkpt><trkpt lat="14.879130142653391" lon="120.8397156129061"><ele>10.0</ele><time>2026-04-19T09:09:00Z</time></trkpt><trkpt lat="14.878956795828238" lon="120.83985972058692"><ele>10.0</ele><time>2026-04-19T09:09:01Z</time></trkpt><trkpt lat="14.878780888508482" lon="120.8400067416302"><ele>10.0</ele><time>2026-04-19T09:09:02Z</time></trkpt><trkpt lat="14.878605407047433" lon="120.84015392691104"><ele>11.5</ele><time>2026-04-19T09:09:03Z</time></trkpt><trkpt lat="14.878430833674189" lon="120.84030174551002"><ele>13.0</ele><time>2026-04-19T09:09:04Z</time></trkpt><trkpt lat="14.878257800850305" lon="120.84044926197413"><ele>13.0</ele><time>2026-04-19T09:09:05Z</time></trkpt><trkpt lat="14.878089837178814" lon="120.84059253612841"><ele>13.0</ele><time>2026-04-19T09:09:06Z</time></trkpt><trkpt lat="14.877926199065064" lon="120.84073255387383"><ele>13.0</ele><time>2026-04-19T09:09:07Z</time></trkpt><trkpt lat="14.877765815528072" lon="120.84087116060043"><ele>13.333333333333332</ele><time>2026-04-19T09:09:08Z</time></trkpt><trkpt lat="14.877610921342189" lon="120.84100639062494"><ele>13.666666666666668</ele><time>2026-04-19T09:09:09Z</time></trkpt><trkpt lat="14.877458863430636" lon="120.8411402562053"><ele>14.0</ele><time>2026-04-19T09:09:10Z</time></trkpt><trkpt lat="14.877307221827023" lon="120.84127299204837"><ele>13.333333333333334</ele><time>2026-04-19T09:09:11Z</time></trkpt><trkpt lat="14.877158581888065" lon="120.84140578248036"><ele>12.666666666666668</ele><time>2026-04-19T09:09:12Z</time></trkpt><trkpt lat="14.877011279680326" lon="120.84153753829536"><ele>12.0</ele><time>2026-04-19T09:09:13Z</time></trkpt><trkpt lat="14.876863169804539" lon="120.84166933440648"><ele>11.666666666666666</ele><time>2026-04-19T09:09:14Z</time></trkpt><trkpt lat="14.87671393488874" lon="120.84180257527206"><ele>11.333333333333332</ele><time>2026-04-19T09:09:15Z</time></trkpt><trkpt lat="14.876564137299184" lon="120.84193506055713"><ele>11.0</ele><time>2026-04-19T09:09:16Z</time></trkpt><trkpt lat="14.876413124287861" lon="120.84207157423509"><ele>11.0</ele><time>2026-04-19T09:09:17Z</time></trkpt><trkpt lat="14.876260516367694" lon="120.84220954429534"><ele>11.0</ele><time>2026-04-19T09:09:18Z</time></trkpt><trkpt lat="14.876106377305392" lon="120.84234961691246"><ele>11.0</ele><time>2026-04-19T09:09:19Z</time></trkpt><trkpt lat="14.875951946462479" lon="120.84249174481"><ele>10.666666666666666</ele><time>2026-04-19T09:09:20Z</time></trkpt><trkpt lat="14.875797207226906" lon="120.8426349678939"><ele>10.333333333333334</ele><time>2026-04-19T09:09:21Z</time></trkpt><trkpt lat="14.875641235077534" lon="120.84277862095179"><ele>10.0</ele><time>2026-04-19T09:09:22Z</time></trkpt><trkpt lat="14.875485904246332" lon="120.84292275432115"><ele>10.0</ele><time>2026-04-19T09:09:23Z</time></trkpt><trkpt lat="14.875333414744366" lon="120.84306833140482"><ele>10.0</ele><time>2026-04-19T09:09:24Z</time></trkpt><trkpt lat="14.875178650105086" lon="120.84321248261814"><ele>10.0</ele><time>2026-04-19T09:09:25Z</time></trkpt><trkpt lat="14.875026056588482" lon="120.84335870521328"><ele>9.333333333333334</ele><time>2026-04-19T09:09:26Z</time></trkpt><trkpt lat="14.874869585037594" lon="120.84350464528264"><ele>8.666666666666666</ele><time>2026-04-19T09:09:27Z</time></trkpt><trkpt lat="14.874714899339372" lon="120.84365283137494"><ele>8.0</ele><time>2026-04-19T09:09:28Z</time></trkpt><trkpt lat="14.87456077387422" lon="120.84380227624531"><ele>8.0</ele><time>2026-04-19T09:09:29Z</time></trkpt><trkpt lat="14.874403974958097" lon="120.84395449554926"><ele>8.0</ele><time>2026-04-19T09:09:30Z</time></trkpt><trkpt lat="14.874250284426719" lon="120.84410837074812"><ele>8.0</ele><time>2026-04-19T09:09:31Z</time></trkpt><trkpt lat="14.874092681379107" lon="120.84426298408528"><ele>9.0</ele><time>2026-04-19T09:09:32Z</time></trkpt><trkpt lat="14.873932165303186" lon="120.84441711503402"><ele>10.0</ele><time>2026-04-19T09:09:33Z</time></trkpt><trkpt lat="14.8737733626811" lon="120.84457322317057"><ele>11.0</ele><time>2026-04-19T09:09:34Z</time></trkpt><trkpt lat="14.87361225734509" lon="120.84472963676795"><ele>11.0</ele><time>2026-04-19T09:09:35Z</time></trkpt><trkpt lat="14.873450843014753" lon="120.84488571568544"><ele>11.0</ele><time>2026-04-19T09:09:36Z</time></trkpt><trkpt lat="14.87329135535366" lon="120.84504456749956"><ele>11.0</ele><time>2026-04-19T09:09:37Z</time></trkpt><trkpt lat="14.873134306285085" lon="120.8452033969845"><ele>10.666666666666666</ele><time>2026-04-19T09:09:38Z</time></trkpt><trkpt lat="14.872978792104426" lon="120.84536040634228"><ele>10.333333333333334</ele><time>2026-04-19T09:09:39Z</time></trkpt><trkpt lat="14.872824463439596" lon="120.84551495250678"><ele>10.0</ele><time>2026-04-19T09:09:40Z</time></trkpt><trkpt lat="14.872675854337519" lon="120.84566637088247"><ele>10.0</ele><time>2026-04-19T09:09:41Z</time></trkpt><trkpt lat="14.872534415534261" lon="120.84581155076626"><ele>10.0</ele><time>2026-04-19T09:09:42Z</time></trkpt><trkpt lat="14.872398011690787" lon="120.84595010152458"><ele>10.0</ele><time>2026-04-19T09:09:43Z</time></trkpt><trkpt lat="14.872265829509688" lon="120.84608546487102"><ele>9.666666666666668</ele><time>2026-04-19T09:09:44Z</time></trkpt><trkpt lat="14.87213529668537" lon="120.8462197646087"><ele>9.333333333333334</ele><time>2026-04-19T09:09:45Z</time></trkpt><trkpt lat="14.872005630062624" lon="120.84635305864431"><ele>9.0</ele><time>2026-04-19T09:09:46Z</time></trkpt><trkpt lat="14.871878989948582" lon="120.84648420774091"><ele>9.0</ele><time>2026-04-19T09:09:47Z</time></trkpt><trkpt lat="14.871752024009645" lon="120.84661677487772"><ele>9.0</ele><time>2026-04-19T09:09:48Z</time></trkpt><trkpt lat="14.871626082912552" lon="120.84675111696323"><ele>9.0</ele><time>2026-04-19T09:09:49Z</time></trkpt><trkpt lat="14.871500592815076" lon="120.84688707692476"><ele>9.0</ele><time>2026-04-19T09:09:50Z</time></trkpt><trkpt lat="14.87137478858811" lon="120.84702241119754"><ele>9.0</ele><time>2026-04-19T09:09:51Z</time></trkpt><trkpt lat="14.871249741329613" lon="120.8471602814607"><ele>9.0</ele><time>2026-04-19T09:09:52Z</time></trkpt><trkpt lat="14.871123793301512" lon="120.84729691168275"><ele>9.0</ele><time>2026-04-19T09:09:53Z</time></trkpt><trkpt lat="14.870997241170224" lon="120.84743328729621"><ele>9.0</ele><time>2026-04-19T09:09:54Z</time></trkpt><trkpt lat="14.870871025928029" lon="120.84757023660612"><ele>9.0</ele><time>2026-04-19T09:09:55Z</time></trkpt><trkpt lat="14.87074511968403" lon="120.84771105246081"><ele>9.0</ele><time>2026-04-19T09:09:56Z</time></trkpt><trkpt lat="14.870618386995602" lon="120.84785186014587"><ele>9.0</ele><time>2026-04-19T09:09:57Z</time></trkpt><trkpt lat="14.87049085649769" lon="120.84799344853847"><ele>9.0</ele><time>2026-04-19T09:09:58Z</time></trkpt><trkpt lat="14.870363151220165" lon="120.84813725619561"><ele>9.0</ele><time>2026-04-19T09:09:59Z</time></trkpt><trkpt lat="14.870236934107767" lon="120.84828091755517"><ele>9.0</ele><time>2026-04-19T09:10:00Z</time></trkpt><trkpt lat="14.8701073377497" lon="120.84842546209029"><ele>9.0</ele><time>2026-04-19T09:10:01Z</time></trkpt><trkpt lat="14.86997856272345" lon="120.84856887150072"><ele>9.333333333333334</ele><time>2026-04-19T09:10:02Z</time></trkpt><trkpt lat="14.869853025156862" lon="120.84870766811224"><ele>9.666666666666668</ele><time>2026-04-19T09:10:03Z</time></trkpt><trkpt lat="14.869730918898679" lon="120.84884524961085"><ele>10.0</ele><time>2026-04-19T09:10:04Z</time></trkpt><trkpt lat="14.869609071851535" lon="120.84898142719348"><ele>10.0</ele><time>2026-04-19T09:10:05Z</time></trkpt><trkpt lat="14.869488419578209" lon="120.84911924428837"><ele>10.0</ele><time>2026-04-19T09:10:06Z</time></trkpt><trkpt lat="14.869369147647934" lon="120.84925623537123"><ele>10.0</ele><time>2026-04-19T09:10:07Z</time></trkpt><trkpt lat="14.869250371515745" lon="120.84939645414585"><ele>9.666666666666668</ele><time>2026-04-19T09:10:08Z</time></trkpt><trkpt lat="14.86912883813111" lon="120.84953685288392"><ele>9.333333333333334</ele><time>2026-04-19T09:10:09Z</time></trkpt><trkpt lat="14.869006833518814" lon="120.8496772555058"><ele>9.0</ele><time>2026-04-19T09:10:10Z</time></trkpt><trkpt lat="14.868884788252561" lon="120.84981955782251"><ele>9.0</ele><time>2026-04-19T09:10:11Z</time></trkpt><trkpt lat="14.868762894402348" lon="120.84996253119564"><ele>9.0</ele><time>2026-04-19T09:10:12Z</time></trkpt><trkpt lat="14.868641027856166" lon="120.85010669255627"><ele>9.0</ele><time>2026-04-19T09:10:13Z</time></trkpt><trkpt lat="14.868519118141" lon="120.85025230397636"><ele>9.666666666666666</ele><time>2026-04-19T09:10:14Z</time></trkpt><trkpt lat="14.868397765540191" lon="120.85039853545553"><ele>10.333333333333332</ele><time>2026-04-19T09:10:15Z</time></trkpt><trkpt lat="14.86827541918633" lon="120.8505458343838"><ele>11.0</ele><time>2026-04-19T09:10:16Z</time></trkpt><trkpt lat="14.868151877990659" lon="120.85069442132531"><ele>11.0</ele><time>2026-04-19T09:10:17Z</time></trkpt><trkpt lat="14.868025629062375" lon="120.85084679547322"><ele>11.0</ele><time>2026-04-19T09:10:18Z</time></trkpt><trkpt lat="14.867899646411285" lon="120.85100039991012"><ele>11.0</ele><time>2026-04-19T09:10:19Z</time></trkpt><trkpt lat="14.867770359169576" lon="120.85115479350175"><ele>10.666666666666666</ele><time>2026-04-19T09:10:20Z</time></trkpt><trkpt lat="14.867640752228382" lon="120.85131099862845"><ele>10.333333333333334</ele><time>2026-04-19T09:10:21Z</time></trkpt><trkpt lat="14.867511005318965" lon="120.85147143536788"><ele>10.0</ele><time>2026-04-19T09:10:22Z</time></trkpt><trkpt lat="14.86738083904131" lon="120.85163336512545"><ele>9.333333333333334</ele><time>2026-04-19T09:10:23Z</time></trkpt><trkpt lat="14.867249273417958" lon="120.85179754458142"><ele>8.666666666666666</ele><time>2026-04-19T09:10:24Z</time></trkpt><trkpt lat="14.867116712123009" lon="120.85196311199346"><ele>8.0</ele><time>2026-04-19T09:10:25Z</time></trkpt><trkpt lat="14.866983078675007" lon="120.85213182780458"><ele>8.0</ele><time>2026-04-19T09:10:26Z</time></trkpt><trkpt lat="14.86684960533103" lon="120.85230193762763"><ele>8.0</ele><time>2026-04-19T09:10:27Z</time></trkpt><trkpt lat="14.866716072841697" lon="120.85247304478673"><ele>8.0</ele><time>2026-04-19T09:10:28Z</time></trkpt><trkpt lat="14.86658142873647" lon="120.8526440534806"><ele>8.333333333333332</ele><time>2026-04-19T09:10:29Z</time></trkpt><trkpt lat="14.86644608557333" lon="120.85281699234255"><ele>8.666666666666666</ele><time>2026-04-19T09:10:30Z</time></trkpt><trkpt lat="14.866309757401998" lon="120.85299238673254"><ele>9.0</ele><time>2026-04-19T09:10:31Z</time></trkpt><trkpt lat="14.866172625626687" lon="120.85316920429896"><ele>9.0</ele><time>2026-04-19T09:10:32Z</time></trkpt><trkpt lat="14.86603582425392" lon="120.8533489902209"><ele>9.0</ele><time>2026-04-19T09:10:33Z</time></trkpt><trkpt lat="14.865898393658304" lon="120.85352889604934"><ele>9.0</ele><time>2026-04-19T09:10:34Z</time></trkpt><trkpt lat="14.865760230832706" lon="120.85371070981188"><ele>11.5</ele><time>2026-04-19T09:10:35Z</time></trkpt><trkpt lat="14.86562221698374" lon="120.85389468540576"><ele>14.0</ele><time>2026-04-19T09:10:36Z</time></trkpt><trkpt lat="14.865484305566692" lon="120.85407933012523"><ele>14.0</ele><time>2026-04-19T09:10:37Z</time></trkpt><trkpt lat="14.865346164956229" lon="120.85426521530754"><ele>14.0</ele><time>2026-04-19T09:10:38Z</time></trkpt><trkpt lat="14.865208084020747" lon="120.85445275540505"><ele>15.0</ele><time>2026-04-19T09:10:39Z</time></trkpt><trkpt lat="14.865069702582264" lon="120.85464204553757"><ele>16.0</ele><time>2026-04-19T09:10:40Z</time></trkpt><trkpt lat="14.864932910504017" lon="120.85483270194133"><ele>16.0</ele><time>2026-04-19T09:10:41Z</time></trkpt><trkpt lat="14.86479738378037" lon="120.85502293360199"><ele>16.0</ele><time>2026-04-19T09:10:42Z</time></trkpt><trkpt lat="14.864663217499187" lon="120.8552113936942"><ele>14.5</ele><time>2026-04-19T09:10:43Z</time></trkpt><trkpt lat="14.86452925728512" lon="120.85540102422999"><ele>13.0</ele><time>2026-04-19T09:10:44Z</time></trkpt><trkpt lat="14.864395561740482" lon="120.85559179308736"><ele>13.0</ele><time>2026-04-19T09:10:45Z</time></trkpt><trkpt lat="14.864260978519152" lon="120.8557807688382"><ele>13.0</ele><time>2026-04-19T09:10:46Z</time></trkpt><trkpt lat="14.86412685329563" lon="120.8559707592005"><ele>13.0</ele><time>2026-04-19T09:10:47Z</time></trkpt><trkpt lat="14.863991408210259" lon="120.85615983954023"><ele>13.0</ele><time>2026-04-19T09:10:48Z</time></trkpt><trkpt lat="14.863852619240486" lon="120.85635165934781"><ele>13.0</ele><time>2026-04-19T09:10:49Z</time></trkpt><trkpt lat="14.863712261648013" lon="120.85654511106283"><ele>13.0</ele><time>2026-04-19T09:10:50Z</time></trkpt><trkpt lat="14.86356747761589" lon="120.85674413748536"><ele>13.0</ele><time>2026-04-19T09:10:51Z</time></trkpt><trkpt lat="14.863422267852691" lon="120.85694488462677"><ele>13.0</ele><time>2026-04-19T09:10:52Z</time></trkpt><trkpt lat="14.863277749867505" lon="120.85715085969369"><ele>13.0</ele><time>2026-04-19T09:10:53Z</time></trkpt><trkpt lat="14.863133636196942" lon="120.85736058111618"><ele>13.0</ele><time>2026-04-19T09:10:54Z</time></trkpt><trkpt lat="14.862990527377395" lon="120.85757258049098"><ele>13.0</ele><time>2026-04-19T09:10:55Z</time></trkpt><trkpt lat="14.862846966343046" lon="120.85778607142494"><ele>13.0</ele><time>2026-04-19T09:10:56Z</time></trkpt><trkpt lat="14.86270665021875" lon="120.8580014870022"><ele>13.0</ele><time>2026-04-19T09:10:57Z</time></trkpt><trkpt lat="14.862567081990564" lon="120.85821782626824"><ele>13.0</ele><time>2026-04-19T09:10:58Z</time></trkpt><trkpt lat="14.862427511051518" lon="120.85843396838663"><ele>13.5</ele><time>2026-04-19T09:10:59Z</time></trkpt><trkpt lat="14.862286269680473" lon="120.85865225214776"><ele>14.0</ele><time>2026-04-19T09:11:00Z</time></trkpt><trkpt lat="14.862143961365451" lon="120.85887127892964"><ele>14.0</ele><time>2026-04-19T09:11:01Z</time></trkpt><trkpt lat="14.861997334457671" lon="120.85909088104025"><ele>14.0</ele><time>2026-04-19T09:11:02Z</time></trkpt><trkpt lat="14.861851716545607" lon="120.85930744819939"><ele>13.0</ele><time>2026-04-19T09:11:03Z</time></trkpt><trkpt lat="14.86170627549326" lon="120.85952363856835"><ele>12.0</ele><time>2026-04-19T09:11:04Z</time></trkpt><trkpt lat="14.861564505246116" lon="120.85974383811968"><ele>12.0</ele><time>2026-04-19T09:11:05Z</time></trkpt><trkpt lat="14.861419560092298" lon="120.8599673023456"><ele>12.0</ele><time>2026-04-19T09:11:06Z</time></trkpt><trkpt lat="14.861277187500386" lon="120.86019462232862"><ele>11.5</ele><time>2026-04-19T09:11:07Z</time></trkpt><trkpt lat="14.861136819307829" lon="120.86042818447513"><ele>11.0</ele><time>2026-04-19T09:11:08Z</time></trkpt><trkpt lat="14.860998788782354" lon="120.86066446017799"><ele>11.0</ele><time>2026-04-19T09:11:09Z</time></trkpt><trkpt lat="14.860861056258464" lon="120.8609047754171"><ele>11.0</ele><time>2026-04-19T09:11:10Z</time></trkpt><trkpt lat="14.860724179740519" lon="120.86114722443429"><ele>11.5</ele><time>2026-04-19T09:11:11Z</time></trkpt><trkpt lat="14.860585187944881" lon="120.86138934296577"><ele>12.0</ele><time>2026-04-19T09:11:12Z</time></trkpt><trkpt lat="14.860442906343508" lon="120.86163218758794"><ele>10.5</ele><time>2026-04-19T09:11:13Z</time></trkpt><trkpt lat="14.860300360326185" lon="120.86187601237616"><ele>9.0</ele><time>2026-04-19T09:11:14Z</time></trkpt><trkpt lat="14.860155386632371" lon="120.86211749880933"><ele>10.0</ele><time>2026-04-19T09:11:15Z</time></trkpt><trkpt lat="14.860011702967322" lon="120.86236142987102"><ele>11.0</ele><time>2026-04-19T09:11:16Z</time></trkpt><trkpt lat="14.859867269948738" lon="120.8626062140569"><ele>10.5</ele><time>2026-04-19T09:11:17Z</time></trkpt><trkpt lat="14.859721210694483" lon="120.86285209250306"><ele>10.0</ele><time>2026-04-19T09:11:18Z</time></trkpt><trkpt lat="14.859575796256083" lon="120.86309863872374"><ele>10.0</ele><time>2026-04-19T09:11:19Z</time></trkpt><trkpt lat="14.859430635805175" lon="120.86334559894179"><ele>10.0</ele><time>2026-04-19T09:11:20Z</time></trkpt><trkpt lat="14.859285815508057" lon="120.86359117802103"><ele>9.5</ele><time>2026-04-19T09:11:21Z</time></trkpt><trkpt lat="14.859140842325234" lon="120.86383534206252"><ele>9.0</ele><time>2026-04-19T09:11:22Z</time></trkpt><trkpt lat="14.858996900255487" lon="120.86407839084845"><ele>8.5</ele><time>2026-04-19T09:11:23Z</time></trkpt><trkpt lat="14.858855227020891" lon="120.86431755853533"><ele>8.0</ele><time>2026-04-19T09:11:24Z</time></trkpt><trkpt lat="14.85871177659152" lon="120.8645537331375"><ele>8.0</ele><time>2026-04-19T09:11:25Z</time></trkpt><trkpt lat="14.858571280659698" lon="120.86479089237751"><ele>8.0</ele><time>2026-04-19T09:11:26Z</time></trkpt><trkpt lat="14.858431246065221" lon="120.86502264764405"><ele>9.0</ele><time>2026-04-19T09:11:27Z</time></trkpt><trkpt lat="14.8582964121915" lon="120.86524964254419"><ele>10.0</ele><time>2026-04-19T09:11:28Z</time></trkpt><trkpt lat="14.858165329701626" lon="120.86547075851828"><ele>10.0</ele><time>2026-04-19T09:11:29Z</time></trkpt><trkpt lat="14.85803969559081" lon="120.86568464803058"><ele>10.0</ele><time>2026-04-19T09:11:30Z</time></trkpt><trkpt lat="14.857920344344032" lon="120.86589039783027"><ele>9.666666666666668</ele><time>2026-04-19T09:11:31Z</time></trkpt><trkpt lat="14.85780471731513" lon="120.86608978466062"><ele>9.333333333333334</ele><time>2026-04-19T09:11:32Z</time></trkpt><trkpt lat="14.857692251108384" lon="120.8662862252271"><ele>9.0</ele><time>2026-04-19T09:11:33Z</time></trkpt><trkpt lat="14.857580849321888" lon="120.86647595742095"><ele>9.333333333333334</ele><time>2026-04-19T09:11:34Z</time></trkpt><trkpt lat="14.857471721019124" lon="120.86665837382021"><ele>9.666666666666668</ele><time>2026-04-19T09:11:35Z</time></trkpt><trkpt lat="14.857364578097583" lon="120.8668389642821"><ele>10.0</ele><time>2026-04-19T09:11:36Z</time></trkpt><trkpt lat="14.857258448673361" lon="120.86701784536832"><ele>10.0</ele><time>2026-04-19T09:11:37Z</time></trkpt><trkpt lat="14.857153025067266" lon="120.8671958337121"><ele>10.0</ele><time>2026-04-19T09:11:38Z</time></trkpt><trkpt lat="14.857044674080857" lon="120.86737528494368"><ele>10.0</ele><time>2026-04-19T09:11:39Z</time></trkpt><trkpt lat="14.85693426176889" lon="120.86755607834411"><ele>10.333333333333334</ele><time>2026-04-19T09:11:40Z</time></trkpt><trkpt lat="14.856824148492764" lon="120.867739294878"><ele>10.666666666666666</ele><time>2026-04-19T09:11:41Z</time></trkpt><trkpt lat="14.856713095218351" lon="120.8679251316944"><ele>11.0</ele><time>2026-04-19T09:11:42Z</time></trkpt><trkpt lat="14.856601493720222" lon="120.86811482927402"><ele>11.0</ele><time>2026-04-19T09:11:43Z</time></trkpt><trkpt lat="14.856488591463517" lon="120.86830347942173"><ele>11.0</ele><time>2026-04-19T09:11:44Z</time></trkpt><trkpt lat="14.856374871641025" lon="120.8684939785547"><ele>11.0</ele><time>2026-04-19T09:11:45Z</time></trkpt><trkpt lat="14.856261358025225" lon="120.86868194117243"><ele>10.666666666666666</ele><time>2026-04-19T09:11:46Z</time></trkpt><trkpt lat="14.856147803700075" lon="120.86887189617642"><ele>10.333333333333334</ele><time>2026-04-19T09:11:47Z</time></trkpt><trkpt lat="14.856033825585747" lon="120.86906241854585"><ele>10.0</ele><time>2026-04-19T09:11:48Z</time></trkpt><trkpt lat="14.85591826689756" lon="120.86925478812238"><ele>9.0</ele><time>2026-04-19T09:11:49Z</time></trkpt><trkpt lat="14.85580096815853" lon="120.86944924174922"><ele>8.0</ele><time>2026-04-19T09:11:50Z</time></trkpt><trkpt lat="14.855684426269171" lon="120.8696458643729"><ele>7.0</ele><time>2026-04-19T09:11:51Z</time></trkpt><trkpt lat="14.85556886885246" lon="120.86984106243273"><ele>7.0</ele><time>2026-04-19T09:11:52Z</time></trkpt><trkpt lat="14.855453970500305" lon="120.8700346880584"><ele>7.0</ele><time>2026-04-19T09:11:53Z</time></trkpt><trkpt lat="14.855341850676567" lon="120.87022485383785"><ele>7.0</ele><time>2026-04-19T09:11:54Z</time></trkpt><trkpt lat="14.855230329625186" lon="120.87041382432965"><ele>7.333333333333334</ele><time>2026-04-19T09:11:55Z</time></trkpt><trkpt lat="14.855118176880577" lon="120.87060306118128"><ele>7.666666666666666</ele><time>2026-04-19T09:11:56Z</time></trkpt><trkpt lat="14.855004294944939" lon="120.87079131683227"><ele>8.0</ele><time>2026-04-19T09:11:57Z</time></trkpt><trkpt lat="14.854891739418958" lon="120.87097844614897"><ele>8.666666666666666</ele><time>2026-04-19T09:11:58Z</time></trkpt><trkpt lat="14.854782746820662" lon="120.87115838526977"><ele>9.333333333333334</ele><time>2026-04-19T09:11:59Z</time></trkpt><trkpt lat="14.854679304025877" lon="120.8713281921875"><ele>10.0</ele><time>2026-04-19T09:12:00Z</time></trkpt><trkpt lat="14.85458023491917" lon="120.87148849216564"><ele>10.0</ele><time>2026-04-19T09:12:01Z</time></trkpt><trkpt lat="14.854482965990691" lon="120.87164707057367"><ele>10.0</ele><time>2026-04-19T09:12:02Z</time></trkpt><trkpt lat="14.854385688007852" lon="120.8718019481953"><ele>10.0</ele><time>2026-04-19T09:12:03Z</time></trkpt><trkpt lat="14.854284271308064" lon="120.8719564505478"><ele>10.0</ele><time>2026-04-19T09:12:04Z</time></trkpt><trkpt lat="14.854182318188194" lon="120.8721113643398"><ele>10.0</ele><time>2026-04-19T09:12:05Z</time></trkpt><trkpt lat="14.85407968254292" lon="120.87226659575299"><ele>10.0</ele><time>2026-04-19T09:12:06Z</time></trkpt><trkpt lat="14.853976109920522" lon="120.872421986032"><ele>10.0</ele><time>2026-04-19T09:12:07Z</time></trkpt><trkpt lat="14.853870604463781" lon="120.87257540377708"><ele>10.0</ele><time>2026-04-19T09:12:08Z</time></trkpt><trkpt lat="14.853766188781176" lon="120.87272831801054"><ele>10.0</ele><time>2026-04-19T09:12:09Z</time></trkpt><trkpt lat="14.853663466610492" lon="120.8728836123836"><ele>10.0</ele><time>2026-04-19T09:12:10Z</time></trkpt><trkpt lat="14.853558135912317" lon="120.87304080997598"><ele>10.0</ele><time>2026-04-19T09:12:11Z</time></trkpt><trkpt lat="14.853451021666501" lon="120.87319982493061"><ele>10.0</ele><time>2026-04-19T09:12:12Z</time></trkpt><trkpt lat="14.85334049658109" lon="120.87336396265964"><ele>9.666666666666668</ele><time>2026-04-19T09:12:13Z</time></trkpt><trkpt lat="14.853228519103965" lon="120.87352773111829"><ele>9.333333333333334</ele><time>2026-04-19T09:12:14Z</time></trkpt><trkpt lat="14.853113856381897" lon="120.8736936546921"><ele>9.0</ele><time>2026-04-19T09:12:15Z</time></trkpt><trkpt lat="14.852997032346153" lon="120.87386203173195"><ele>9.0</ele><time>2026-04-19T09:12:16Z</time></trkpt><trkpt lat="14.852879862774484" lon="120.8740318608758"><ele>9.0</ele><time>2026-04-19T09:12:17Z</time></trkpt><trkpt lat="14.852762945399862" lon="120.87420031681349"><ele>9.0</ele><time>2026-04-19T09:12:18Z</time></trkpt><trkpt lat="14.852647100972437" lon="120.87436592699342"><ele>9.333333333333334</ele><time>2026-04-19T09:12:19Z</time></trkpt><trkpt lat="14.852531993524096" lon="120.87452933588693"><ele>9.666666666666668</ele><time>2026-04-19T09:12:20Z</time></trkpt><trkpt lat="14.852418499076094" lon="120.87469003975302"><ele>10.0</ele><time>2026-04-19T09:12:21Z</time></trkpt><trkpt lat="14.85230386821987" lon="120.87484998116179"><ele>10.0</ele><time>2026-04-19T09:12:22Z</time></trkpt><trkpt lat="14.852188628017597" lon="120.8750096042988"><ele>10.0</ele><time>2026-04-19T09:12:23Z</time></trkpt><trkpt lat="14.852072979035055" lon="120.87517192014154"><ele>10.0</ele><time>2026-04-19T09:12:24Z</time></trkpt><trkpt lat="14.851956709024778" lon="120.87533364093103"><ele>9.666666666666668</ele><time>2026-04-19T09:12:25Z</time></trkpt><trkpt lat="14.851839105505013" lon="120.87549713556389"><ele>9.333333333333334</ele><time>2026-04-19T09:12:26Z</time></trkpt><trkpt lat="14.85172177576295" lon="120.87566120572995"><ele>9.0</ele><time>2026-04-19T09:12:27Z</time></trkpt><trkpt lat="14.851604171361043" lon="120.87582665400684"><ele>8.0</ele><time>2026-04-19T09:12:28Z</time></trkpt><trkpt lat="14.851485238491758" lon="120.87599226985412"><ele>7.0</ele><time>2026-04-19T09:12:29Z</time></trkpt><trkpt lat="14.851367321339028" lon="120.87615543574792"><ele>6.0</ele><time>2026-04-19T09:12:30Z</time></trkpt><trkpt lat="14.851249520885233" lon="120.87631772098267"><ele>6.0</ele><time>2026-04-19T09:12:31Z</time></trkpt><trkpt lat="14.851130197734234" lon="120.87648114365686"><ele>6.0</ele><time>2026-04-19T09:12:32Z</time></trkpt><trkpt lat="14.851008922273602" lon="120.87664603811457"><ele>6.0</ele><time>2026-04-19T09:12:33Z</time></trkpt><trkpt lat="14.850884712412276" lon="120.87681286804174"><ele>6.0</ele><time>2026-04-19T09:12:34Z</time></trkpt><trkpt lat="14.850756059864707" lon="120.87697955874751"><ele>6.0</ele><time>2026-04-19T09:12:35Z</time></trkpt><trkpt lat="14.850620458409788" lon="120.87714782381909"><ele>6.0</ele><time>2026-04-19T09:12:36Z</time></trkpt><trkpt lat="14.85048004121324" lon="120.87731992596122"><ele>6.0</ele><time>2026-04-19T09:12:37Z</time></trkpt><trkpt lat="14.850336283034629" lon="120.87749971574289"><ele>6.0</ele><time>2026-04-19T09:12:38Z</time></trkpt><trkpt lat="14.850190541198792" lon="120.87768478135014"><ele>7.0</ele><time>2026-04-19T09:12:39Z</time></trkpt><trkpt lat="14.850043577003563" lon="120.87787500239787"><ele>8.0</ele><time>2026-04-19T09:12:40Z</time></trkpt><trkpt lat="14.849894849194799" lon="120.87806887758235"><ele>8.0</ele><time>2026-04-19T09:12:41Z</time></trkpt><trkpt lat="14.849745462718804" lon="120.87826623455533"><ele>8.0</ele><time>2026-04-19T09:12:42Z</time></trkpt><trkpt lat="14.849597865383844" lon="120.87846271126669"><ele>8.0</ele><time>2026-04-19T09:12:43Z</time></trkpt><trkpt lat="14.849452025504132" lon="120.87865661966237"><ele>8.0</ele><time>2026-04-19T09:12:44Z</time></trkpt><trkpt lat="14.849308268478344" lon="120.87884547066527"><ele>8.0</ele><time>2026-04-19T09:12:45Z</time></trkpt><trkpt lat="14.849169468352116" lon="120.87902612833972"><ele>8.0</ele><time>2026-04-19T09:12:46Z</time></trkpt><trkpt lat="14.849034584799778" lon="120.87920361880705"><ele>8.0</ele><time>2026-04-19T09:12:47Z</time></trkpt><trkpt lat="14.848902561981872" lon="120.87937405211291"><ele>7.666666666666666</ele><time>2026-04-19T09:12:48Z</time></trkpt><trkpt lat="14.848768359968567" lon="120.87954273043675"><ele>7.333333333333334</ele><time>2026-04-19T09:12:49Z</time></trkpt><trkpt lat="14.848634227480785" lon="120.87971068661447"><ele>7.0</ele><time>2026-04-19T09:12:50Z</time></trkpt><trkpt lat="14.84849990065768" lon="120.87987953894417"><ele>6.666666666666667</ele><time>2026-04-19T09:12:51Z</time></trkpt><trkpt lat="14.848363916535758" lon="120.88004923190195"><ele>6.333333333333334</ele><time>2026-04-19T09:12:52Z</time></trkpt><trkpt lat="14.848228013794065" lon="120.88021840931783"><ele>6.0</ele><time>2026-04-19T09:12:53Z</time></trkpt><trkpt lat="14.848090434174779" lon="120.880390839384"><ele>6.0</ele><time>2026-04-19T09:12:54Z</time></trkpt><trkpt lat="14.847951010021216" lon="120.88056382504082"><ele>6.0</ele><time>2026-04-19T09:12:55Z</time></trkpt><trkpt lat="14.847810963660354" lon="120.88073849149588"><ele>6.0</ele><time>2026-04-19T09:12:56Z</time></trkpt><trkpt lat="14.84767043647192" lon="120.88090997121445"><ele>7.333333333333334</ele><time>2026-04-19T09:12:57Z</time></trkpt><trkpt lat="14.84753307978539" lon="120.88108008228936"><ele>8.666666666666668</ele><time>2026-04-19T09:12:58Z</time></trkpt><trkpt lat="14.847396278462458" lon="120.88124771779077"><ele>10.0</ele><time>2026-04-19T09:12:59Z</time></trkpt><trkpt lat="14.847258359535527" lon="120.88141530609306"><ele>10.0</ele><time>2026-04-19T09:13:00Z</time></trkpt><trkpt lat="14.847121801808248" lon="120.8815801414021"><ele>10.0</ele><time>2026-04-19T09:13:01Z</time></trkpt><trkpt lat="14.84698979231514" lon="120.88173841375287"><ele>10.0</ele><time>2026-04-19T09:13:02Z</time></trkpt><trkpt lat="14.846859373394514" lon="120.8818936154878"><ele>9.666666666666668</ele><time>2026-04-19T09:13:03Z</time></trkpt><trkpt lat="14.846731625398109" lon="120.88204738617355"><ele>9.333333333333334</ele><time>2026-04-19T09:13:04Z</time></trkpt><trkpt lat="14.84660736921509" lon="120.88219928144338"><ele>9.0</ele><time>2026-04-19T09:13:05Z</time></trkpt><trkpt lat="14.846486683895899" lon="120.88234714019059"><ele>9.0</ele><time>2026-04-19T09:13:06Z</time></trkpt><trkpt lat="14.846368570437756" lon="120.88249307644341"><ele>9.0</ele><time>2026-04-19T09:13:07Z</time></trkpt><trkpt lat="14.846253946552654" lon="120.88263313361166"><ele>9.0</ele><time>2026-04-19T09:13:08Z</time></trkpt><trkpt lat="14.846139610127754" lon="120.88277275281139"><ele>8.666666666666666</ele><time>2026-04-19T09:13:09Z</time></trkpt><trkpt lat="14.846026672572682" lon="120.88291387739996"><ele>8.333333333333332</ele><time>2026-04-19T09:13:10Z</time></trkpt><trkpt lat="14.845914752551085" lon="120.8830519569156"><ele>8.0</ele><time>2026-04-19T09:13:11Z</time></trkpt><trkpt lat="14.845806445383424" lon="120.88318717917996"><ele>8.0</ele><time>2026-04-19T09:13:12Z</time></trkpt><trkpt lat="14.84569901031246" lon="120.88331946177945"><ele>8.0</ele><time>2026-04-19T09:13:13Z</time></trkpt><trkpt lat="14.845592519478426" lon="120.88345171939159"><ele>8.0</ele><time>2026-04-19T09:13:14Z</time></trkpt><trkpt lat="14.845485980793553" lon="120.88358505253161"><ele>7.333333333333333</ele><time>2026-04-19T09:13:15Z</time></trkpt><trkpt lat="14.845380719439014" lon="120.88371889264641"><ele>6.666666666666666</ele><time>2026-04-19T09:13:16Z</time></trkpt><trkpt lat="14.845274385402941" lon="120.88385417776259"><ele>6.0</ele><time>2026-04-19T09:13:17Z</time></trkpt><trkpt lat="14.845169359050626" lon="120.88398861545441"><ele>6.333333333333334</ele><time>2026-04-19T09:13:18Z</time></trkpt><trkpt lat="14.845063428700007" lon="120.88412447081487"><ele>6.666666666666667</ele><time>2026-04-19T09:13:19Z</time></trkpt><trkpt lat="14.844956209365062" lon="120.88426066700019"><ele>7.0</ele><time>2026-04-19T09:13:20Z</time></trkpt><trkpt lat="14.84484763046669" lon="120.88439966393558"><ele>7.0</ele><time>2026-04-19T09:13:21Z</time></trkpt><trkpt lat="14.844738393857815" lon="120.88454080430594"><ele>7.0</ele><time>2026-04-19T09:13:22Z</time></trkpt><trkpt lat="14.844626831816193" lon="120.884685146012"><ele>7.0</ele><time>2026-04-19T09:13:23Z</time></trkpt><trkpt lat="14.844512873913377" lon="120.88483348173659"><ele>7.0</ele><time>2026-04-19T09:13:24Z</time></trkpt><trkpt lat="14.844398484964426" lon="120.88498098154679"><ele>7.0</ele><time>2026-04-19T09:13:25Z</time></trkpt><trkpt lat="14.844284678517003" lon="120.8851286815525"><ele>7.0</ele><time>2026-04-19T09:13:26Z</time></trkpt><trkpt lat="14.844172132088891" lon="120.88527644595408"><ele>7.0</ele><time>2026-04-19T09:13:27Z</time></trkpt><trkpt lat="14.844060497924264" lon="120.88542356975238"><ele>7.0</ele><time>2026-04-19T09:13:28Z</time></trkpt><trkpt lat="14.843949519546614" lon="120.88556982109634"><ele>7.0</ele><time>2026-04-19T09:13:29Z</time></trkpt><trkpt lat="14.843839871445516" lon="120.88571441120791"><ele>7.0</ele><time>2026-04-19T09:13:30Z</time></trkpt><trkpt lat="14.84373122786454" lon="120.88585781220236"><ele>7.0</ele><time>2026-04-19T09:13:31Z</time></trkpt><trkpt lat="14.8436221756747" lon="120.88600060549133"><ele>7.0</ele><time>2026-04-19T09:13:32Z</time></trkpt><trkpt lat="14.843514196019218" lon="120.88614525564381"><ele>7.0</ele><time>2026-04-19T09:13:33Z</time></trkpt><trkpt lat="14.843406223392394" lon="120.88629046291301"><ele>7.0</ele><time>2026-04-19T09:13:34Z</time></trkpt><trkpt lat="14.843298827474838" lon="120.88643524849167"><ele>7.0</ele><time>2026-04-19T09:13:35Z</time></trkpt><trkpt lat="14.84319107946146" lon="120.88658146354949"><ele>7.0</ele><time>2026-04-19T09:13:36Z</time></trkpt><trkpt lat="14.843083026091733" lon="120.88673027523203"><ele>7.0</ele><time>2026-04-19T09:13:37Z</time></trkpt><trkpt lat="14.842974978060601" lon="120.88687918758926"><ele>7.0</ele><time>2026-04-19T09:13:38Z</time></trkpt><trkpt lat="14.84286770596891" lon="120.88702790030484"><ele>7.666666666666667</ele><time>2026-04-19T09:13:39Z</time></trkpt><trkpt lat="14.842759087413903" lon="120.88717606972452"><ele>8.333333333333334</ele><time>2026-04-19T09:13:40Z</time></trkpt><trkpt lat="14.84265103139769" lon="120.88732466985076"><ele>9.0</ele><time>2026-04-19T09:13:41Z</time></trkpt><trkpt lat="14.842543536707984" lon="120.88747456064685"><ele>9.333333333333334</ele><time>2026-04-19T09:13:42Z</time></trkpt><trkpt lat="14.842435564133536" lon="120.8876254789918"><ele>9.666666666666668</ele><time>2026-04-19T09:13:43Z</time></trkpt><trkpt lat="14.842326311245378" lon="120.88777615917854"><ele>10.0</ele><time>2026-04-19T09:13:44Z</time></trkpt><trkpt lat="14.842218067450027" lon="120.88792652811208"><ele>10.0</ele><time>2026-04-19T09:13:45Z</time></trkpt><trkpt lat="14.842111271966473" lon="120.88807608203649"><ele>10.0</ele><time>2026-04-19T09:13:46Z</time></trkpt><trkpt lat="14.842006365549969" lon="120.88822471483337"><ele>10.0</ele><time>2026-04-19T09:13:47Z</time></trkpt><trkpt lat="14.84189996632857" lon="120.88837272698784"><ele>10.666666666666668</ele><time>2026-04-19T09:13:48Z</time></trkpt><trkpt lat="14.841795791331773" lon="120.88852147111558"><ele>11.333333333333334</ele><time>2026-04-19T09:13:49Z</time></trkpt><trkpt lat="14.841692893067512" lon="120.88866801755151"><ele>12.0</ele><time>2026-04-19T09:13:50Z</time></trkpt><trkpt lat="14.841591429707433" lon="120.88881392033846"><ele>12.0</ele><time>2026-04-19T09:13:51Z</time></trkpt><trkpt lat="14.841490079142945" lon="120.88896217830649"><ele>12.0</ele><time>2026-04-19T09:13:52Z</time></trkpt><trkpt lat="14.84138829511057" lon="120.88911231482722"><ele>12.0</ele><time>2026-04-19T09:13:53Z</time></trkpt><trkpt lat="14.841282102248028" lon="120.88926314945928"><ele>11.666666666666666</ele><time>2026-04-19T09:13:54Z</time></trkpt><trkpt lat="14.841172943598181" lon="120.88941457404644"><ele>11.333333333333332</ele><time>2026-04-19T09:13:55Z</time></trkpt><trkpt lat="14.84106479100602" lon="120.88956675200602"><ele>11.0</ele><time>2026-04-19T09:13:56Z</time></trkpt><trkpt lat="14.840955152413345" lon="120.8897221615502"><ele>10.666666666666666</ele><time>2026-04-19T09:13:57Z</time></trkpt><trkpt lat="14.840845321802" lon="120.88987856864077"><ele>10.333333333333334</ele><time>2026-04-19T09:13:58Z</time></trkpt><trkpt lat="14.84073348978388" lon="120.89003836364962"><ele>10.0</ele><time>2026-04-19T09:13:59Z</time></trkpt><trkpt lat="14.840622673040539" lon="120.89020114924337"><ele>10.0</ele><time>2026-04-19T09:14:00Z</time></trkpt><trkpt lat="14.84051085467906" lon="120.89036554088135"><ele>10.0</ele><time>2026-04-19T09:14:01Z</time></trkpt><trkpt lat="14.840399041470066" lon="120.89053339485628"><ele>10.0</ele><time>2026-04-19T09:14:02Z</time></trkpt><trkpt lat="14.840286555359848" lon="120.89070228797705"><ele>10.0</ele><time>2026-04-19T09:14:03Z</time></trkpt><trkpt lat="14.840172724092755" lon="120.89087497927918"><ele>10.0</ele><time>2026-04-19T09:14:04Z</time></trkpt><trkpt lat="14.840055079342894" lon="120.89104916829288"><ele>10.0</ele><time>2026-04-19T09:14:05Z</time></trkpt><trkpt lat="14.839937574005138" lon="120.89122701573487"><ele>10.333333333333334</ele><time>2026-04-19T09:14:06Z</time></trkpt><trkpt lat="14.839819047103855" lon="120.89140494702012"><ele>10.666666666666666</ele><time>2026-04-19T09:14:07Z</time></trkpt><trkpt lat="14.839703373204037" lon="120.89158385870041"><ele>11.0</ele><time>2026-04-19T09:14:08Z</time></trkpt><trkpt lat="14.839589154080368" lon="120.89176364309336"><ele>11.666666666666666</ele><time>2026-04-19T09:14:09Z</time></trkpt><trkpt lat="14.839472989637876" lon="120.89194328113766"><ele>12.333333333333332</ele><time>2026-04-19T09:14:10Z</time></trkpt><trkpt lat="14.839356212222006" lon="120.89212471498263"><ele>13.0</ele><time>2026-04-19T09:14:11Z</time></trkpt><trkpt lat="14.839240114855691" lon="120.89230616706212"><ele>13.0</ele><time>2026-04-19T09:14:12Z</time></trkpt><trkpt lat="14.839124803860473" lon="120.8924855300495"><ele>13.0</ele><time>2026-04-19T09:14:13Z</time></trkpt><trkpt lat="14.839008917375565" lon="120.89266586405466"><ele>13.0</ele><time>2026-04-19T09:14:14Z</time></trkpt><trkpt lat="14.838895086802808" lon="120.89284594950227"><ele>13.0</ele><time>2026-04-19T09:14:15Z</time></trkpt><trkpt lat="14.838781425820283" lon="120.89302689073695"><ele>13.0</ele><time>2026-04-19T09:14:16Z</time></trkpt><trkpt lat="14.838668744493887" lon="120.89320628821018"><ele>13.0</ele><time>2026-04-19T09:14:17Z</time></trkpt><trkpt lat="14.838556329527318" lon="120.8933863720199"><ele>13.0</ele><time>2026-04-19T09:14:18Z</time></trkpt><trkpt lat="14.838444503512383" lon="120.89356469189846"><ele>13.0</ele><time>2026-04-19T09:14:19Z</time></trkpt><trkpt lat="14.838335842098113" lon="120.89374142039082"><ele>13.0</ele><time>2026-04-19T09:14:20Z</time></trkpt><trkpt lat="14.83823207516046" lon="120.8939113669979"><ele>13.0</ele><time>2026-04-19T09:14:21Z</time></trkpt><trkpt lat="14.838133207089578" lon="120.89407558260562"><ele>13.0</ele><time>2026-04-19T09:14:22Z</time></trkpt><trkpt lat="14.838035725822833" lon="120.89423506033229"><ele>13.0</ele><time>2026-04-19T09:14:23Z</time></trkpt><trkpt lat="14.837940335567602" lon="120.89438810658218"><ele>12.333333333333332</ele><time>2026-04-19T09:14:24Z</time></trkpt><trkpt lat="14.837846858038105" lon="120.89453870602873"><ele>11.666666666666666</ele><time>2026-04-19T09:14:25Z</time></trkpt><trkpt lat="14.837757485800408" lon="120.89468801446294"><ele>11.0</ele><time>2026-04-19T09:14:26Z</time></trkpt><trkpt lat="14.837665625961522" lon="120.89483614626542"><ele>10.666666666666666</ele><time>2026-04-19T09:14:27Z</time></trkpt><trkpt lat="14.837575519694903" lon="120.89498447915764"><ele>10.333333333333334</ele><time>2026-04-19T09:14:28Z</time></trkpt><trkpt lat="14.837489053625225" lon="120.89513246431959"><ele>10.0</ele><time>2026-04-19T09:14:29Z</time></trkpt><trkpt lat="14.837402312106454" lon="120.89527566732771"><ele>9.666666666666668</ele><time>2026-04-19T09:14:30Z</time></trkpt><trkpt lat="14.837317454428485" lon="120.89541620531318"><ele>9.333333333333334</ele><time>2026-04-19T09:14:31Z</time></trkpt><trkpt lat="14.837232330361934" lon="120.89555765916569"><ele>9.0</ele><time>2026-04-19T09:14:32Z</time></trkpt><trkpt lat="14.837146856031007" lon="120.8956994060202"><ele>9.0</ele><time>2026-04-19T09:14:33Z</time></trkpt><trkpt lat="14.837060982901166" lon="120.89584292962279"><ele>9.0</ele><time>2026-04-19T09:14:34Z</time></trkpt><trkpt lat="14.83697491460365" lon="120.89598947102158"><ele>9.0</ele><time>2026-04-19T09:14:35Z</time></trkpt><trkpt lat="14.83688757131408" lon="120.89613862993764"><ele>9.666666666666666</ele><time>2026-04-19T09:14:36Z</time></trkpt><trkpt lat="14.836798325428818" lon="120.89628911845828"><ele>10.333333333333332</ele><time>2026-04-19T09:14:37Z</time></trkpt><trkpt lat="14.836707927296194" lon="120.89644329456446"><ele>11.0</ele><time>2026-04-19T09:14:38Z</time></trkpt><trkpt lat="14.836615110636494" lon="120.8966004778772"><ele>11.666666666666666</ele><time>2026-04-19T09:14:39Z</time></trkpt><trkpt lat="14.83652067334982" lon="120.89676031984152"><ele>12.333333333333332</ele><time>2026-04-19T09:14:40Z</time></trkpt><trkpt lat="14.83642445115727" lon="120.8969240974574"><ele>13.0</ele><time>2026-04-19T09:14:41Z</time></trkpt><trkpt lat="14.83632713400122" lon="120.89709194841518"><ele>13.0</ele><time>2026-04-19T09:14:42Z</time></trkpt><trkpt lat="14.83622867630292" lon="120.89726252917127"><ele>13.0</ele><time>2026-04-19T09:14:43Z</time></trkpt><trkpt lat="14.836130011581991" lon="120.89743591436418"><ele>13.0</ele><time>2026-04-19T09:14:44Z</time></trkpt><trkpt lat="14.836029083036046" lon="120.8976119926122"><ele>11.333333333333332</ele><time>2026-04-19T09:14:45Z</time></trkpt><trkpt lat="14.835926628060117" lon="120.89779047747986"><ele>9.666666666666666</ele><time>2026-04-19T09:14:46Z</time></trkpt><trkpt lat="14.835823017477578" lon="120.89797235913191"><ele>8.0</ele><time>2026-04-19T09:14:47Z</time></trkpt><trkpt lat="14.835717711807693" lon="120.8981569828509"><ele>8.0</ele><time>2026-04-19T09:14:48Z</time></trkpt><trkpt lat="14.835613757285872" lon="120.89834091568298"><ele>8.0</ele><time>2026-04-19T09:14:49Z</time></trkpt><trkpt lat="14.835511190335362" lon="120.89852487855582"><ele>8.0</ele><time>2026-04-19T09:14:50Z</time></trkpt><trkpt lat="14.835410624056356" lon="120.89870637006256"><ele>8.0</ele><time>2026-04-19T09:14:51Z</time></trkpt><trkpt lat="14.83531193696825" lon="120.89888381215158"><ele>8.0</ele><time>2026-04-19T09:14:52Z</time></trkpt><trkpt lat="14.835216389970617" lon="120.89905893537804"><ele>8.0</ele><time>2026-04-19T09:14:53Z</time></trkpt><trkpt lat="14.835122520298135" lon="120.89923123727796"><ele>9.0</ele><time>2026-04-19T09:14:54Z</time></trkpt><trkpt lat="14.835028868967868" lon="120.89940112304885"><ele>10.0</ele><time>2026-04-19T09:14:55Z</time></trkpt><trkpt lat="14.83493677285823" lon="120.89957018401739"><ele>11.0</ele><time>2026-04-19T09:14:56Z</time></trkpt><trkpt lat="14.834846741177047" lon="120.89973729263033"><ele>11.0</ele><time>2026-04-19T09:14:57Z</time></trkpt><trkpt lat="14.83475815628606" lon="120.89990267442805"><ele>11.0</ele><time>2026-04-19T09:14:58Z</time></trkpt><trkpt lat="14.834671050530607" lon="120.90006591245726"><ele>11.0</ele><time>2026-04-19T09:14:59Z</time></trkpt><trkpt lat="14.834585263290165" lon="120.9002270364881"><ele>9.333333333333332</ele><time>2026-04-19T09:15:00Z</time></trkpt><trkpt lat="14.834500957701591" lon="120.9003855791673"><ele>7.666666666666666</ele><time>2026-04-19T09:15:01Z</time></trkpt><trkpt lat="14.834418580911947" lon="120.90054218352714"><ele>6.0</ele><time>2026-04-19T09:15:02Z</time></trkpt><trkpt lat="14.834337085766935" lon="120.9006957948734"><ele>6.666666666666666</ele><time>2026-04-19T09:15:03Z</time></trkpt><trkpt lat="14.834257384585174" lon="120.90084588178364"><ele>7.333333333333333</ele><time>2026-04-19T09:15:04Z</time></trkpt><trkpt lat="14.834180410539213" lon="120.90099439692885"><ele>8.0</ele><time>2026-04-19T09:15:05Z</time></trkpt><trkpt lat="14.834105744693792" lon="120.9011410125869"><ele>8.666666666666666</ele><time>2026-04-19T09:15:06Z</time></trkpt><trkpt lat="14.834031123725381" lon="120.90128773147168"><ele>9.333333333333334</ele><time>2026-04-19T09:15:07Z</time></trkpt><trkpt lat="14.833957618207025" lon="120.90143570099164"><ele>10.0</ele><time>2026-04-19T09:15:08Z</time></trkpt><trkpt lat="14.833881586510138" lon="120.90158313189364"><ele>10.0</ele><time>2026-04-19T09:15:09Z</time></trkpt><trkpt lat="14.833805015261998" lon="120.90173306389184"><ele>10.0</ele><time>2026-04-19T09:15:10Z</time></trkpt><trkpt lat="14.833725956648038" lon="120.90188555268489"><ele>10.0</ele><time>2026-04-19T09:15:11Z</time></trkpt><trkpt lat="14.833645809541375" lon="120.90204278758637"><ele>10.0</ele><time>2026-04-19T09:15:12Z</time></trkpt><trkpt lat="14.833564870008237" lon="120.90219805327764"><ele>10.0</ele><time>2026-04-19T09:15:13Z</time></trkpt><trkpt lat="14.833482425767166" lon="120.90235376019736"><ele>10.0</ele><time>2026-04-19T09:15:14Z</time></trkpt><trkpt lat="14.833400157297293" lon="120.90250970641607"><ele>9.333333333333334</ele><time>2026-04-19T09:15:15Z</time></trkpt><trkpt lat="14.833316197485752" lon="120.9026638274963"><ele>8.666666666666666</ele><time>2026-04-19T09:15:16Z</time></trkpt><trkpt lat="14.8332334324762" lon="120.90281868578695"><ele>8.0</ele><time>2026-04-19T09:15:17Z</time></trkpt><trkpt lat="14.833150259333479" lon="120.90297178446578"><ele>8.0</ele><time>2026-04-19T09:15:18Z</time></trkpt><trkpt lat="14.833069650976938" lon="120.90312460063207"><ele>8.0</ele><time>2026-04-19T09:15:19Z</time></trkpt><trkpt lat="14.832988092992691" lon="120.90327708820176"><ele>8.0</ele><time>2026-04-19T09:15:20Z</time></trkpt><trkpt lat="14.832906293234357" lon="120.90342982495608"><ele>8.0</ele><time>2026-04-19T09:15:21Z</time></trkpt><trkpt lat="14.83282389215897" lon="120.90358091590234"><ele>8.0</ele><time>2026-04-19T09:15:22Z</time></trkpt><trkpt lat="14.832741231093452" lon="120.90373386113703"><ele>8.0</ele><time>2026-04-19T09:15:23Z</time></trkpt><trkpt lat="14.832659330762208" lon="120.90388931459776"><ele>7.666666666666666</ele><time>2026-04-19T09:15:24Z</time></trkpt><trkpt lat="14.832575896969177" lon="120.90404571544913"><ele>7.333333333333334</ele><time>2026-04-19T09:15:25Z</time></trkpt><trkpt lat="14.832491074191077" lon="120.9042018197179"><ele>7.0</ele><time>2026-04-19T09:15:26Z</time></trkpt><trkpt lat="14.83240746007435" lon="120.90435782917864"><ele>8.0</ele><time>2026-04-19T09:15:27Z</time></trkpt><trkpt lat="14.832324129641053" lon="120.90451193395906"><ele>9.0</ele><time>2026-04-19T09:15:28Z</time></trkpt><trkpt lat="14.832241488227362" lon="120.90466643848072"><ele>10.0</ele><time>2026-04-19T09:15:29Z</time></trkpt><trkpt lat="14.832158543335723" lon="120.90482220703232"><ele>10.0</ele><time>2026-04-19T09:15:30Z</time></trkpt><trkpt lat="14.832072272123268" lon="120.90497979162971"><ele>10.0</ele><time>2026-04-19T09:15:31Z</time></trkpt><trkpt lat="14.83198733161572" lon="120.90513972796948"><ele>10.0</ele><time>2026-04-19T09:15:32Z</time></trkpt><trkpt lat="14.831898974410096" lon="120.90530300942861"><ele>10.0</ele><time>2026-04-19T09:15:33Z</time></trkpt><trkpt lat="14.83180938086946" lon="120.90546792613422"><ele>10.0</ele><time>2026-04-19T09:15:34Z</time></trkpt><trkpt lat="14.831721248915644" lon="120.90563529424485"><ele>10.0</ele><time>2026-04-19T09:15:35Z</time></trkpt><trkpt lat="14.831631805522251" lon="120.9058030588924"><ele>9.0</ele><time>2026-04-19T09:15:36Z</time></trkpt><trkpt lat="14.83154213128387" lon="120.90597280662045"><ele>8.0</ele><time>2026-04-19T09:15:37Z</time></trkpt><trkpt lat="14.83145271403047" lon="120.90614283571504"><ele>7.0</ele><time>2026-04-19T09:15:38Z</time></trkpt><trkpt lat="14.831364256862216" lon="120.9063136650783"><ele>7.0</ele><time>2026-04-19T09:15:39Z</time></trkpt><trkpt lat="14.83127373098674" lon="120.90648342746702"><ele>7.0</ele><time>2026-04-19T09:15:40Z</time></trkpt><trkpt lat="14.83118384790548" lon="120.90665269972078"><ele>7.0</ele><time>2026-04-19T09:15:41Z</time></trkpt><trkpt lat="14.83109220730935" lon="120.90682272258316"><ele>7.0</ele><time>2026-04-19T09:15:42Z</time></trkpt><trkpt lat="14.83099933948538" lon="120.90699505069256"><ele>7.0</ele><time>2026-04-19T09:15:43Z</time></trkpt><trkpt lat="14.830906234945333" lon="120.90716769319054"><ele>7.0</ele><time>2026-04-19T09:15:44Z</time></trkpt><trkpt lat="14.830812280518712" lon="120.90734084779677"><ele>7.0</ele><time>2026-04-19T09:15:45Z</time></trkpt><trkpt lat="14.830717702185755" lon="120.90751640851104"><ele>7.0</ele><time>2026-04-19T09:15:46Z</time></trkpt><trkpt lat="14.830624578940634" lon="120.90769006787338"><ele>7.0</ele><time>2026-04-19T09:15:47Z</time></trkpt><trkpt lat="14.830532155822684" lon="120.90786225280299"><ele>7.0</ele><time>2026-04-19T09:15:48Z</time></trkpt><trkpt lat="14.830441083114843" lon="120.9080324616264"><ele>7.0</ele><time>2026-04-19T09:15:49Z</time></trkpt><trkpt lat="14.830351991737544" lon="120.9082007562913"><ele>7.0</ele><time>2026-04-19T09:15:50Z</time></trkpt><trkpt lat="14.83026423435137" lon="120.9083672896598"><ele>6.666666666666667</ele><time>2026-04-19T09:15:51Z</time></trkpt><trkpt lat="14.830176404818092" lon="120.90853273688532"><ele>6.333333333333334</ele><time>2026-04-19T09:15:52Z</time></trkpt><trkpt lat="14.83009015505162" lon="120.90869579066029"><ele>6.0</ele><time>2026-04-19T09:15:53Z</time></trkpt><trkpt lat="14.830003927279922" lon="120.90885950285546"><ele>6.0</ele><time>2026-04-19T09:15:54Z</time></trkpt><trkpt lat="14.829916485880414" lon="120.90902299018933"><ele>6.0</ele><time>2026-04-19T09:15:55Z</time></trkpt><trkpt lat="14.829829605136934" lon="120.9091870437728"><ele>6.0</ele><time>2026-04-19T09:15:56Z</time></trkpt><trkpt lat="14.829740235458761" lon="120.90935368714861"><ele>6.0</ele><time>2026-04-19T09:15:57Z</time></trkpt><trkpt lat="14.82964843035187" lon="120.90952301882976"><ele>6.0</ele><time>2026-04-19T09:15:58Z</time></trkpt><trkpt lat="14.829557086547423" lon="120.90969454783158"><ele>6.0</ele><time>2026-04-19T09:15:59Z</time></trkpt><trkpt lat="14.82946535887688" lon="120.90986688374777"><ele>6.0</ele><time>2026-04-19T09:16:00Z</time></trkpt><trkpt lat="14.829372141017704" lon="120.91004035627519"><ele>6.0</ele><time>2026-04-19T09:16:01Z</time></trkpt><trkpt lat="14.829278990199644" lon="120.91021507209584"><ele>6.0</ele><time>2026-04-19T09:16:02Z</time></trkpt><trkpt lat="14.829184459809223" lon="120.91039231494395"><ele>5.666666666666667</ele><time>2026-04-19T09:16:03Z</time></trkpt><trkpt lat="14.829089042368683" lon="120.91057034284567"><ele>5.333333333333334</ele><time>2026-04-19T09:16:04Z</time></trkpt><trkpt lat="14.828993254319554" lon="120.91075024518896"><ele>5.0</ele><time>2026-04-19T09:16:05Z</time></trkpt><trkpt lat="14.82889697230469" lon="120.91093075016155"><ele>5.0</ele><time>2026-04-19T09:16:06Z</time></trkpt><trkpt lat="14.82880021443434" lon="120.91111276021164"><ele>5.0</ele><time>2026-04-19T09:16:07Z</time></trkpt><trkpt lat="14.828704733658824" lon="120.91129453890495"><ele>5.0</ele><time>2026-04-19T09:16:08Z</time></trkpt><trkpt lat="14.82860938423852" lon="120.91147546781447"><ele>5.0</ele><time>2026-04-19T09:16:09Z</time></trkpt><trkpt lat="14.828513930553266" lon="120.91165703309868"><ele>5.0</ele><time>2026-04-19T09:16:10Z</time></trkpt><trkpt lat="14.82841823312407" lon="120.91183826698754"><ele>5.0</ele><time>2026-04-19T09:16:11Z</time></trkpt><trkpt lat="14.82832209938482" lon="120.9120178605755"><ele>5.333333333333334</ele><time>2026-04-19T09:16:12Z</time></trkpt><trkpt lat="14.828226091306641" lon="120.91219758028329"><ele>5.666666666666667</ele><time>2026-04-19T09:16:13Z</time></trkpt><trkpt lat="14.828129093403733" lon="120.91237794110735"><ele>6.0</ele><time>2026-04-19T09:16:14Z</time></trkpt><trkpt lat="14.828031722069511" lon="120.91255965370301"><ele>6.0</ele><time>2026-04-19T09:16:15Z</time></trkpt><trkpt lat="14.827934881500862" lon="120.91274103504847"><ele>6.0</ele><time>2026-04-19T09:16:16Z</time></trkpt><trkpt lat="14.827836229218475" lon="120.9129232988173"><ele>6.0</ele><time>2026-04-19T09:16:17Z</time></trkpt><trkpt lat="14.827737483498918" lon="120.91310522455169"><ele>6.333333333333334</ele><time>2026-04-19T09:16:18Z</time></trkpt><trkpt lat="14.82763921035571" lon="120.91328724092102"><ele>6.666666666666667</ele><time>2026-04-19T09:16:19Z</time></trkpt><trkpt lat="14.827540634682562" lon="120.9134706403323"><ele>7.0</ele><time>2026-04-19T09:16:20Z</time></trkpt><trkpt lat="14.827440347374758" lon="120.91365203830703"><ele>6.333333333333334</ele><time>2026-04-19T09:16:21Z</time></trkpt><trkpt lat="14.827342633165634" lon="120.91383284803791"><ele>5.666666666666667</ele><time>2026-04-19T09:16:22Z</time></trkpt><trkpt lat="14.827244871998086" lon="120.91401360603462"><ele>5.0</ele><time>2026-04-19T09:16:23Z</time></trkpt><trkpt lat="14.827147294795795" lon="120.91419411540788"><ele>5.333333333333334</ele><time>2026-04-19T09:16:24Z</time></trkpt><trkpt lat="14.82705101028978" lon="120.91437360290715"><ele>5.666666666666667</ele><time>2026-04-19T09:16:25Z</time></trkpt><trkpt lat="14.826955778563093" lon="120.91455388514466"><ele>6.0</ele><time>2026-04-19T09:16:26Z</time></trkpt><trkpt lat="14.826862079268201" lon="120.91473336235882"><ele>6.333333333333334</ele><time>2026-04-19T09:16:27Z</time></trkpt><trkpt lat="14.826769114464426" lon="120.91491406616821"><ele>6.666666666666667</ele><time>2026-04-19T09:16:28Z</time></trkpt><trkpt lat="14.82667456938317" lon="120.91509597577814"><ele>7.0</ele><time>2026-04-19T09:16:29Z</time></trkpt><trkpt lat="14.826576517820362" lon="120.91527906349712"><ele>7.333333333333334</ele><time>2026-04-19T09:16:30Z</time></trkpt><trkpt lat="14.82647550722674" lon="120.91546340188482"><ele>7.666666666666666</ele><time>2026-04-19T09:16:31Z</time></trkpt><trkpt lat="14.826373115802472" lon="120.91565223081"><ele>8.0</ele><time>2026-04-19T09:16:32Z</time></trkpt><trkpt lat="14.826269100166286" lon="120.9158433125726"><ele>8.0</ele><time>2026-04-19T09:16:33Z</time></trkpt><trkpt lat="14.826164576969372" lon="120.91603838791922"><ele>8.0</ele><time>2026-04-19T09:16:34Z</time></trkpt><trkpt lat="14.826058425519863" lon="120.91623681358773"><ele>8.0</ele><time>2026-04-19T09:16:35Z</time></trkpt><trkpt lat="14.82595114313709" lon="120.91643885576599"><ele>8.0</ele><time>2026-04-19T09:16:36Z</time></trkpt><trkpt lat="14.82584183656827" lon="120.91664195345885"><ele>8.0</ele><time>2026-04-19T09:16:37Z</time></trkpt><trkpt lat="14.825728279922911" lon="120.91685031365324"><ele>7.0</ele><time>2026-04-19T09:16:38Z</time></trkpt><trkpt lat="14.82560727673663" lon="120.91706281633836"><ele>6.0</ele><time>2026-04-19T09:16:39Z</time></trkpt><trkpt lat="14.82547915735033" lon="120.91727858426749"><ele>6.0</ele><time>2026-04-19T09:16:40Z</time></trkpt><trkpt lat="14.825352289621343" lon="120.9175045102699"><ele>6.0</ele><time>2026-04-19T09:16:41Z</time></trkpt><trkpt lat="14.825223284491823" lon="120.91773576162834"><ele>6.5</ele><time>2026-04-19T09:16:42Z</time></trkpt><trkpt lat="14.825092912218242" lon="120.91797330542883"><ele>7.0</ele><time>2026-04-19T09:16:43Z</time></trkpt><trkpt lat="14.824960233542683" lon="120.91821882421065"><ele>7.5</ele><time>2026-04-19T09:16:44Z</time></trkpt><trkpt lat="14.82483142079308" lon="120.91846586894899"><ele>8.0</ele><time>2026-04-19T09:16:45Z</time></trkpt><trkpt lat="14.824705657031986" lon="120.91871378373952"><ele>8.0</ele><time>2026-04-19T09:16:46Z</time></trkpt><trkpt lat="14.824580778331649" lon="120.9189599323487"><ele>8.0</ele><time>2026-04-19T09:16:47Z</time></trkpt><trkpt lat="14.824455887580628" lon="120.91920086141896"><ele>8.0</ele><time>2026-04-19T09:16:48Z</time></trkpt><trkpt lat="14.824333458156694" lon="120.9194338230126"><ele>8.0</ele><time>2026-04-19T09:16:49Z</time></trkpt><trkpt lat="14.82421485390728" lon="120.91965868677126"><ele>8.0</ele><time>2026-04-19T09:16:50Z</time></trkpt><trkpt lat="14.824099732288177" lon="120.91987626370491"><ele>8.0</ele><time>2026-04-19T09:16:51Z</time></trkpt><trkpt lat="14.823988957114086" lon="120.92008486254146"><ele>8.0</ele><time>2026-04-19T09:16:52Z</time></trkpt><trkpt lat="14.823882748381559" lon="120.920284785652"><ele>8.0</ele><time>2026-04-19T09:16:53Z</time></trkpt><trkpt lat="14.823781641875742" lon="120.92047617016993"><ele>8.0</ele><time>2026-04-19T09:16:54Z</time></trkpt><trkpt lat="14.8236863388907" lon="120.92065662391191"><ele>8.0</ele><time>2026-04-19T09:16:55Z</time></trkpt><trkpt lat="14.823599733017168" lon="120.92082391338198"><ele>8.0</ele><time>2026-04-19T09:16:56Z</time></trkpt><trkpt lat="14.82351697463262" lon="120.92097729244097"><ele>8.0</ele><time>2026-04-19T09:16:57Z</time></trkpt><trkpt lat="14.823443081370577" lon="120.92111972668518"><ele>8.0</ele><time>2026-04-19T09:16:58Z</time></trkpt><trkpt lat="14.823372658248177" lon="120.92125161693751"><ele>8.0</ele><time>2026-04-19T09:16:59Z</time></trkpt><trkpt lat="14.823303235204905" lon="120.9213816371857"><ele>8.0</ele><time>2026-04-19T09:17:00Z</time></trkpt><trkpt lat="14.823227695020199" lon="120.92151401233535"><ele>8.0</ele><time>2026-04-19T09:17:01Z</time></trkpt><trkpt lat="14.823148852943806" lon="120.92165277971971"><ele>7.333333333333333</ele><time>2026-04-19T09:17:02Z</time></trkpt><trkpt lat="14.823065777108756" lon="120.92179786319828"><ele>6.666666666666666</ele><time>2026-04-19T09:17:03Z</time></trkpt><trkpt lat="14.822980772913628" lon="120.921949648535"><ele>6.0</ele><time>2026-04-19T09:17:04Z</time></trkpt><trkpt lat="14.822894985746139" lon="120.92210609394085"><ele>6.0</ele><time>2026-04-19T09:17:05Z</time></trkpt><trkpt lat="14.82280742637543" lon="120.92226849693282"><ele>6.0</ele><time>2026-04-19T09:17:06Z</time></trkpt><trkpt lat="14.822719982060388" lon="120.92243456600693"><ele>6.0</ele><time>2026-04-19T09:17:07Z</time></trkpt><trkpt lat="14.822633091987084" lon="120.92260575767665"><ele>6.0</ele><time>2026-04-19T09:17:08Z</time></trkpt><trkpt lat="14.822545667803652" lon="120.92278239105458"><ele>6.0</ele><time>2026-04-19T09:17:09Z</time></trkpt><trkpt lat="14.822455944676411" lon="120.92296100723959"><ele>6.0</ele><time>2026-04-19T09:17:10Z</time></trkpt><trkpt lat="14.822365837781643" lon="120.92313773891206"><ele>6.0</ele><time>2026-04-19T09:17:11Z</time></trkpt><trkpt lat="14.82227520067402" lon="120.92331434163606"><ele>6.0</ele><time>2026-04-19T09:17:12Z</time></trkpt><trkpt lat="14.822183901502262" lon="120.92348711476231"><ele>6.0</ele><time>2026-04-19T09:17:13Z</time></trkpt><trkpt lat="14.822093867522327" lon="120.92365732797882"><ele>6.0</ele><time>2026-04-19T09:17:14Z</time></trkpt><trkpt lat="14.822005122012133" lon="120.92382529234027"><ele>6.0</ele><time>2026-04-19T09:17:15Z</time></trkpt><trkpt lat="14.82191602528837" lon="120.92399266976221"><ele>6.0</ele><time>2026-04-19T09:17:16Z</time></trkpt><trkpt lat="14.821827575788976" lon="120.9241600413186"><ele>6.0</ele><time>2026-04-19T09:17:17Z</time></trkpt><trkpt lat="14.821739478414548" lon="120.92432733205787"><ele>6.0</ele><time>2026-04-19T09:17:18Z</time></trkpt><trkpt lat="14.821651028522968" lon="120.92449443428433"><ele>6.0</ele><time>2026-04-19T09:17:19Z</time></trkpt><trkpt lat="14.821562752837558" lon="120.92466241929229"><ele>6.0</ele><time>2026-04-19T09:17:20Z</time></trkpt><trkpt lat="14.821474079523849" lon="120.92483006326884"><ele>6.0</ele><time>2026-04-19T09:17:21Z</time></trkpt><trkpt lat="14.82138514578067" lon="120.92499757526478"><ele>6.0</ele><time>2026-04-19T09:17:22Z</time></trkpt><trkpt lat="14.821295016377968" lon="120.92516701720486"><ele>6.0</ele><time>2026-04-19T09:17:23Z</time></trkpt><trkpt lat="14.821204017641666" lon="120.92533744166643"><ele>6.0</ele><time>2026-04-19T09:17:24Z</time></trkpt><trkpt lat="14.821112733363591" lon="120.92550779158431"><ele>6.0</ele><time>2026-04-19T09:17:25Z</time></trkpt><trkpt lat="14.82102054680218" lon="120.92568148420979"><ele>6.0</ele><time>2026-04-19T09:17:26Z</time></trkpt><trkpt lat="14.820927234443442" lon="120.92585614379182"><ele>6.0</ele><time>2026-04-19T09:17:27Z</time></trkpt><trkpt lat="14.82083310962065" lon="120.92603246299235"><ele>6.0</ele><time>2026-04-19T09:17:28Z</time></trkpt><trkpt lat="14.820737798704922" lon="120.92621255166833"><ele>6.666666666666666</ele><time>2026-04-19T09:17:29Z</time></trkpt><trkpt lat="14.820641880348854" lon="120.92639431070172"><ele>7.333333333333333</ele><time>2026-04-19T09:17:30Z</time></trkpt><trkpt lat="14.8205455135577" lon="120.92657732493609"><ele>8.0</ele><time>2026-04-19T09:17:31Z</time></trkpt><trkpt lat="14.820448724501341" lon="120.92675812195037"><ele>8.666666666666666</ele><time>2026-04-19T09:17:32Z</time></trkpt><trkpt lat="14.820351378237108" lon="120.92693900376068"><ele>9.333333333333334</ele><time>2026-04-19T09:17:33Z</time></trkpt><trkpt lat="14.820254901148816" lon="120.92711750662187"><ele>10.0</ele><time>2026-04-19T09:17:34Z</time></trkpt><trkpt lat="14.820159707614792" lon="120.92729409264159"><ele>9.333333333333334</ele><time>2026-04-19T09:17:35Z</time></trkpt><trkpt lat="14.820065958706442" lon="120.92746920393192"><ele>8.666666666666666</ele><time>2026-04-19T09:17:36Z</time></trkpt><trkpt lat="14.819973588847553" lon="120.92764268723207"><ele>8.0</ele><time>2026-04-19T09:17:37Z</time></trkpt><trkpt lat="14.819881207485432" lon="120.92781597230497"><ele>8.0</ele><time>2026-04-19T09:17:38Z</time></trkpt><trkpt lat="14.819788175693738" lon="120.92798909087074"><ele>8.0</ele><time>2026-04-19T09:17:39Z</time></trkpt><trkpt lat="14.8196952326162" lon="120.92816047677287"><ele>8.0</ele><time>2026-04-19T09:17:40Z</time></trkpt><trkpt lat="14.81960234747179" lon="120.92833327450742"><ele>7.666666666666666</ele><time>2026-04-19T09:17:41Z</time></trkpt><trkpt lat="14.819509402696118" lon="120.92850855253732"><ele>7.333333333333334</ele><time>2026-04-19T09:17:42Z</time></trkpt><trkpt lat="14.819414742516532" lon="120.92868523083331"><ele>7.0</ele><time>2026-04-19T09:17:43Z</time></trkpt><trkpt lat="14.819319373742077" lon="120.92886384630877"><ele>7.666666666666667</ele><time>2026-04-19T09:17:44Z</time></trkpt><trkpt lat="14.819224210164723" lon="120.92904161339115"><ele>8.333333333333334</ele><time>2026-04-19T09:17:45Z</time></trkpt><trkpt lat="14.81912903223672" lon="120.92922164510026"><ele>9.0</ele><time>2026-04-19T09:17:46Z</time></trkpt><trkpt lat="14.819032763115198" lon="120.92940090278047"><ele>9.0</ele><time>2026-04-19T09:17:47Z</time></trkpt><trkpt lat="14.818934997396205" lon="120.92958128077342"><ele>9.0</ele><time>2026-04-19T09:17:48Z</time></trkpt><trkpt lat="14.818838539997387" lon="120.92976191896581"><ele>9.0</ele><time>2026-04-19T09:17:49Z</time></trkpt><trkpt lat="14.818743402702994" lon="120.92994189475559"><ele>9.0</ele><time>2026-04-19T09:17:50Z</time></trkpt><trkpt lat="14.818647483001731" lon="120.93012121105563"><ele>9.0</ele><time>2026-04-19T09:17:51Z</time></trkpt><trkpt lat="14.818553403508856" lon="120.9302975730829"><ele>9.0</ele><time>2026-04-19T09:17:52Z</time></trkpt><trkpt lat="14.818458227125614" lon="120.9304745371664"><ele>9.0</ele><time>2026-04-19T09:17:53Z</time></trkpt><trkpt lat="14.818363305835287" lon="120.93065113912864"><ele>9.0</ele><time>2026-04-19T09:17:54Z</time></trkpt><trkpt lat="14.818268223975851" lon="120.93082508912646"><ele>9.0</ele><time>2026-04-19T09:17:55Z</time></trkpt><trkpt lat="14.818173264599595" lon="120.93099984025768"><ele>9.333333333333334</ele><time>2026-04-19T09:17:56Z</time></trkpt><trkpt lat="14.818079112937674" lon="120.93117335785305"><ele>9.666666666666668</ele><time>2026-04-19T09:17:57Z</time></trkpt><trkpt lat="14.817985501903504" lon="120.93134679674502"><ele>10.0</ele><time>2026-04-19T09:17:58Z</time></trkpt><trkpt lat="14.817891714110196" lon="120.9315204504659"><ele>10.0</ele><time>2026-04-19T09:17:59Z</time></trkpt><trkpt lat="14.81779727460969" lon="120.9316939736293"><ele>10.0</ele><time>2026-04-19T09:18:00Z</time></trkpt><trkpt lat="14.817703500388188" lon="120.93186678714096"><ele>10.0</ele><time>2026-04-19T09:18:01Z</time></trkpt><trkpt lat="14.817607819934342" lon="120.93203676212745"><ele>9.333333333333334</ele><time>2026-04-19T09:18:02Z</time></trkpt><trkpt lat="14.817507921147604" lon="120.9322053986382"><ele>8.666666666666666</ele><time>2026-04-19T09:18:03Z</time></trkpt><trkpt lat="14.817403809803237" lon="120.9323725866439"><ele>8.0</ele><time>2026-04-19T09:18:04Z</time></trkpt><trkpt lat="14.817295614208101" lon="120.9325374923425"><ele>8.0</ele><time>2026-04-19T09:18:05Z</time></trkpt><trkpt lat="14.817185579815169" lon="120.93270109771349"><ele>8.0</ele><time>2026-04-19T09:18:06Z</time></trkpt><trkpt lat="14.81707423050918" lon="120.93286415185331"><ele>8.0</ele><time>2026-04-19T09:18:07Z</time></trkpt><trkpt lat="14.816960450092246" lon="120.9330232399286"><ele>8.0</ele><time>2026-04-19T09:18:08Z</time></trkpt><trkpt lat="14.816844225377293" lon="120.9331776865692"><ele>8.0</ele><time>2026-04-19T09:18:09Z</time></trkpt><trkpt lat="14.81672621680292" lon="120.93332777947549"><ele>8.0</ele><time>2026-04-19T09:18:10Z</time></trkpt><trkpt lat="14.816608342199375" lon="120.93347369899755"><ele>8.0</ele><time>2026-04-19T09:18:11Z</time></trkpt><trkpt lat="14.816489547889345" lon="120.933616821598"><ele>8.0</ele><time>2026-04-19T09:18:12Z</time></trkpt><trkpt lat="14.81637085842317" lon="120.93375504085535"><ele>8.0</ele><time>2026-04-19T09:18:13Z</time></trkpt><trkpt lat="14.816251020013212" lon="120.93389057261706"><ele>8.0</ele><time>2026-04-19T09:18:14Z</time></trkpt><trkpt lat="14.816128997820671" lon="120.93402444470975"><ele>8.0</ele><time>2026-04-19T09:18:15Z</time></trkpt><trkpt lat="14.816001259625933" lon="120.93415798463677"><ele>8.0</ele><time>2026-04-19T09:18:16Z</time></trkpt><trkpt lat="14.815870966759709" lon="120.93428821639661"><ele>8.666666666666666</ele><time>2026-04-19T09:18:17Z</time></trkpt><trkpt lat="14.815737969715734" lon="120.93441634681116"><ele>9.333333333333334</ele><time>2026-04-19T09:18:18Z</time></trkpt><trkpt lat="14.815601132956344" lon="120.93454198995376"><ele>10.0</ele><time>2026-04-19T09:18:19Z</time></trkpt><trkpt lat="14.815461280768275" lon="120.93466466627713"><ele>10.0</ele><time>2026-04-19T09:18:20Z</time></trkpt><trkpt lat="14.815320473827196" lon="120.93478487302016"><ele>10.0</ele><time>2026-04-19T09:18:21Z</time></trkpt><trkpt lat="14.815178701037585" lon="120.93490221613592"><ele>10.0</ele><time>2026-04-19T09:18:22Z</time></trkpt><trkpt lat="14.815036657861484" lon="120.93501632866717"><ele>11.0</ele><time>2026-04-19T09:18:23Z</time></trkpt><trkpt lat="14.814893882155918" lon="120.93512726565565"><ele>12.0</ele><time>2026-04-19T09:18:24Z</time></trkpt><trkpt lat="14.814751629305343" lon="120.93523388881913"><ele>13.0</ele><time>2026-04-19T09:18:25Z</time></trkpt><trkpt lat="14.814610159336151" lon="120.93533551203294"><ele>13.0</ele><time>2026-04-19T09:18:26Z</time></trkpt><trkpt lat="14.814468874940745" lon="120.93543305335086"><ele>13.0</ele><time>2026-04-19T09:18:27Z</time></trkpt><trkpt lat="14.81432814164301" lon="120.93552818109674"><ele>13.0</ele><time>2026-04-19T09:18:28Z</time></trkpt><trkpt lat="14.81419229042123" lon="120.93561821208644"><ele>12.333333333333332</ele><time>2026-04-19T09:18:29Z</time></trkpt><trkpt lat="14.814053477479213" lon="120.93570661260878"><ele>11.666666666666666</ele><time>2026-04-19T09:18:30Z</time></trkpt><trkpt lat="14.813920501129864" lon="120.9357865641608"><ele>11.0</ele><time>2026-04-19T09:18:31Z</time></trkpt><trkpt lat="14.813786989861986" lon="120.93586308209456"><ele>10.5</ele><time>2026-04-19T09:18:32Z</time></trkpt><trkpt lat="14.813655362015291" lon="120.93593800873006"><ele>10.0</ele><time>2026-04-19T09:18:33Z</time></trkpt><trkpt lat="14.813524679362267" lon="120.93601117983845"><ele>9.5</ele><time>2026-04-19T09:18:34Z</time></trkpt><trkpt lat="14.813397026110625" lon="120.93608260636347"><ele>9.0</ele><time>2026-04-19T09:18:35Z</time></trkpt><trkpt lat="14.813271550220747" lon="120.93615315311585"><ele>9.0</ele><time>2026-04-19T09:18:36Z</time></trkpt><trkpt lat="14.81314740580199" lon="120.93622109013404"><ele>9.0</ele><time>2026-04-19T09:18:37Z</time></trkpt><trkpt lat="14.813025003600314" lon="120.93628832570444"><ele>9.0</ele><time>2026-04-19T09:18:38Z</time></trkpt><trkpt lat="14.81290620480957" lon="120.93635251071228"><ele>9.0</ele><time>2026-04-19T09:18:39Z</time></trkpt><trkpt lat="14.81279082433947" lon="120.93641544447522"><ele>9.0</ele><time>2026-04-19T09:18:40Z</time></trkpt><trkpt lat="14.812678044181421" lon="120.93647813722531"><ele>9.0</ele><time>2026-04-19T09:18:41Z</time></trkpt><trkpt lat="14.81256849230411" lon="120.93653936505639"><ele>9.0</ele><time>2026-04-19T09:18:42Z</time></trkpt><trkpt lat="14.812457043565438" lon="120.93660077015679"><ele>9.0</ele><time>2026-04-19T09:18:43Z</time></trkpt><trkpt lat="14.812345627216292" lon="120.93666079727346"><ele>9.0</ele><time>2026-04-19T09:18:44Z</time></trkpt><trkpt lat="14.812235052989688" lon="120.93672133517153"><ele>9.0</ele><time>2026-04-19T09:18:45Z</time></trkpt><trkpt lat="14.81212640999058" lon="120.93678152148453"><ele>9.0</ele><time>2026-04-19T09:18:46Z</time></trkpt><trkpt lat="14.812020568350874" lon="120.93683885403661"><ele>9.0</ele><time>2026-04-19T09:18:47Z</time></trkpt><trkpt lat="14.811915147367015" lon="120.93689632599637"><ele>9.0</ele><time>2026-04-19T09:18:48Z</time></trkpt><trkpt lat="14.811810101760251" lon="120.93695416879214"><ele>9.0</ele><time>2026-04-19T09:18:49Z</time></trkpt><trkpt lat="14.811704262672981" lon="120.93701366371614"><ele>9.0</ele><time>2026-04-19T09:18:50Z</time></trkpt><trkpt lat="14.81159831431893" lon="120.93707145824575"><ele>9.0</ele><time>2026-04-19T09:18:51Z</time></trkpt><trkpt lat="14.811488863290974" lon="120.93713129521258"><ele>9.0</ele><time>2026-04-19T09:18:52Z</time></trkpt><trkpt lat="14.81137833287293" lon="120.93719229518481"><ele>9.0</ele><time>2026-04-19T09:18:53Z</time></trkpt><trkpt lat="14.811266695169948" lon="120.93725397678196"><ele>9.0</ele><time>2026-04-19T09:18:54Z</time></trkpt><trkpt lat="14.81115957097383" lon="120.93731176739745"><ele>9.0</ele><time>2026-04-19T09:18:55Z</time></trkpt><trkpt lat="14.811066433978082" lon="120.93736177215054"><ele>9.333333333333334</ele><time>2026-04-19T09:18:56Z</time></trkpt><trkpt lat="14.810985643174465" lon="120.93740638555657"><ele>9.666666666666666</ele><time>2026-04-19T09:18:57Z</time></trkpt><trkpt lat="14.810910468750905" lon="120.93744713443687"><ele>10.0</ele><time>2026-04-19T09:18:58Z</time></trkpt><trkpt lat="14.810840343994386" lon="120.9374854491122"><ele>10.333333333333332</ele><time>2026-04-19T09:18:59Z</time></trkpt><trkpt lat="14.810772241502056" lon="120.93752304063025"><ele>10.666666666666666</ele><time>2026-04-19T09:19:00Z</time></trkpt><trkpt lat="14.810708010094954" lon="120.93755796228676"><ele>11.0</ele><time>2026-04-19T09:19:01Z</time></trkpt><trkpt lat="14.810646225709528" lon="120.93759190515553"><ele>11.0</ele><time>2026-04-19T09:19:02Z</time></trkpt><trkpt lat="14.810585515926794" lon="120.93762411560343"><ele>11.0</ele><time>2026-04-19T09:19:03Z</time></trkpt><trkpt lat="14.810518617138618" lon="120.9376390211957"><ele>11.0</ele><time>2026-04-19T09:19:04Z</time></trkpt><trkpt lat="14.81045840078702" lon="120.93766920098854"><ele>11.0</ele><time>2026-04-19T09:19:05Z</time></trkpt><trkpt lat="14.810396948322493" lon="120.93770000030574"><ele>11.0</ele><time>2026-04-19T09:19:06Z</time></trkpt><trkpt lat="14.81033764200077" lon="120.93773053649599"><ele>11.0</ele><time>2026-04-19T09:19:07Z</time></trkpt><trkpt lat="14.81028045577228" lon="120.93776032455585"><ele>11.0</ele><time>2026-04-19T09:19:08Z</time></trkpt><trkpt lat="14.81017554760001" lon="120.93781496311202"><ele>10.8</ele><time>2026-04-19T09:19:10Z</time></trkpt><trkpt lat="14.81007774930987" lon="120.93786563096697"><ele>10.600000000000001</ele><time>2026-04-19T09:19:12Z</time></trkpt><trkpt lat="14.809974885629115" lon="120.93791892312794"><ele>10.4</ele><time>2026-04-19T09:19:14Z</time></trkpt><trkpt lat="14.809860678623377" lon="120.9379780920988"><ele>10.2</ele><time>2026-04-19T09:19:16Z</time></trkpt><trkpt lat="14.809796270912507" lon="120.93801146078803"><ele>10.0</ele><time>2026-04-19T09:19:17Z</time></trkpt><trkpt lat="14.809727890729391" lon="120.9380468875513"><ele>10.0</ele><time>2026-04-19T09:19:18Z</time></trkpt><trkpt lat="14.809654990779586" lon="120.93808465594113"><ele>10.0</ele><time>2026-04-19T09:19:19Z</time></trkpt><trkpt lat="14.809579522183926" lon="120.93812375511217"><ele>10.0</ele><time>2026-04-19T09:19:20Z</time></trkpt><trkpt lat="14.809500556111027" lon="120.93816466630302"><ele>10.0</ele><time>2026-04-19T09:19:21Z</time></trkpt><trkpt lat="14.809418576704982" lon="120.93821254005533"><ele>10.0</ele><time>2026-04-19T09:19:22Z</time></trkpt><trkpt lat="14.809353924957827" lon="120.93829315097368"><ele>10.0</ele><time>2026-04-19T09:19:23Z</time></trkpt><trkpt lat="14.809270016463158" lon="120.93833800848867"><ele>10.0</ele><time>2026-04-19T09:19:24Z</time></trkpt><trkpt lat="14.809182270296851" lon="120.93838493996778"><ele>10.0</ele><time>2026-04-19T09:19:25Z</time></trkpt><trkpt lat="14.809092489558834" lon="120.93843366461306"><ele>10.0</ele><time>2026-04-19T09:19:26Z</time></trkpt><trkpt lat="14.808999994394423" lon="120.93848374923972"><ele>10.0</ele><time>2026-04-19T09:19:27Z</time></trkpt><trkpt lat="14.808904881516746" lon="120.93853558246055"><ele>10.0</ele><time>2026-04-19T09:19:28Z</time></trkpt><trkpt lat="14.80880650032737" lon="120.93858976674996"><ele>10.0</ele><time>2026-04-19T09:19:29Z</time></trkpt><trkpt lat="14.808703852282001" lon="120.9386468135954"><ele>10.0</ele><time>2026-04-19T09:19:30Z</time></trkpt><trkpt lat="14.808596988392367" lon="120.93870510894914"><ele>10.0</ele><time>2026-04-19T09:19:31Z</time></trkpt><trkpt lat="14.80847872680495" lon="120.93874730889247"><ele>9.75</ele><time>2026-04-19T09:19:32Z</time></trkpt><trkpt lat="14.808375922967734" lon="120.93882409141801"><ele>9.5</ele><time>2026-04-19T09:19:33Z</time></trkpt><trkpt lat="14.808260325219617" lon="120.93888638991464"><ele>9.25</ele><time>2026-04-19T09:19:34Z</time></trkpt><trkpt lat="14.80814243300558" lon="120.9389494784733"><ele>9.0</ele><time>2026-04-19T09:19:35Z</time></trkpt><trkpt lat="14.80802086045304" lon="120.93901517931128"><ele>9.0</ele><time>2026-04-19T09:19:36Z</time></trkpt><trkpt lat="14.807896907618751" lon="120.93908150536848"><ele>9.0</ele><time>2026-04-19T09:19:37Z</time></trkpt><trkpt lat="14.80777140666174" lon="120.93915007946438"><ele>9.0</ele><time>2026-04-19T09:19:38Z</time></trkpt><trkpt lat="14.807644110314138" lon="120.93921988767192"><ele>9.0</ele><time>2026-04-19T09:19:39Z</time></trkpt><trkpt lat="14.80751469920865" lon="120.93929011697526"><ele>9.5</ele><time>2026-04-19T09:19:40Z</time></trkpt><trkpt lat="14.80738297764193" lon="120.93936158530768"><ele>10.0</ele><time>2026-04-19T09:19:41Z</time></trkpt><trkpt lat="14.807250597744366" lon="120.93943412862203"><ele>10.5</ele><time>2026-04-19T09:19:42Z</time></trkpt><trkpt lat="14.807120107350139" lon="120.93950631693465"><ele>11.0</ele><time>2026-04-19T09:19:43Z</time></trkpt><trkpt lat="14.80699096452593" lon="120.93957765438698"><ele>11.0</ele><time>2026-04-19T09:19:44Z</time></trkpt><trkpt lat="14.806863475119727" lon="120.93964712909506"><ele>11.0</ele><time>2026-04-19T09:19:45Z</time></trkpt><trkpt lat="14.806737212331184" lon="120.93971589259672"><ele>11.0</ele><time>2026-04-19T09:19:46Z</time></trkpt><trkpt lat="14.806613597914696" lon="120.93978269825344"><ele>11.0</ele><time>2026-04-19T09:19:47Z</time></trkpt><trkpt lat="14.806492079658307" lon="120.93984931824836"><ele>11.25</ele><time>2026-04-19T09:19:48Z</time></trkpt><trkpt lat="14.806372211533267" lon="120.9399149117577"><ele>11.5</ele><time>2026-04-19T09:19:49Z</time></trkpt><trkpt lat="14.806258470531018" lon="120.93997660465833"><ele>11.75</ele><time>2026-04-19T09:19:50Z</time></trkpt><trkpt lat="14.806163731626471" lon="120.94002781026106"><ele>12.0</ele><time>2026-04-19T09:19:51Z</time></trkpt><trkpt lat="14.806084278653557" lon="120.94007160687154"><ele>11.666666666666666</ele><time>2026-04-19T09:19:52Z</time></trkpt><trkpt lat="14.806015009580992" lon="120.94010981642661"><ele>11.333333333333334</ele><time>2026-04-19T09:19:53Z</time></trkpt><trkpt lat="14.80594848593577" lon="120.94014607537642"><ele>11.0</ele><time>2026-04-19T09:19:54Z</time></trkpt><trkpt lat="14.805881414219742" lon="120.9401823772067"><ele>10.666666666666668</ele><time>2026-04-19T09:19:55Z</time></trkpt><trkpt lat="14.805810611269962" lon="120.94021955391017"><ele>10.333333333333334</ele><time>2026-04-19T09:19:56Z</time></trkpt><trkpt lat="14.80574197537326" lon="120.94025672001071"><ele>10.0</ele><time>2026-04-19T09:19:57Z</time></trkpt><trkpt lat="14.805675196138152" lon="120.94029242067838"><ele>9.666666666666668</ele><time>2026-04-19T09:19:58Z</time></trkpt><trkpt lat="14.805611078282443" lon="120.9403271388028"><ele>9.333333333333334</ele><time>2026-04-19T09:19:59Z</time></trkpt><trkpt lat="14.805548906754291" lon="120.94036110078108"><ele>9.0</ele><time>2026-04-19T09:20:00Z</time></trkpt><trkpt lat="14.80548552875885" lon="120.94039533192642"><ele>8.666666666666666</ele><time>2026-04-19T09:20:01Z</time></trkpt><trkpt lat="14.805419269115003" lon="120.94043510947039"><ele>8.333333333333332</ele><time>2026-04-19T09:20:02Z</time></trkpt><trkpt lat="14.805351711356899" lon="120.94048215987038"><ele>8.0</ele><time>2026-04-19T09:20:03Z</time></trkpt><trkpt lat="14.80528292277666" lon="120.94053732706934"><ele>8.0</ele><time>2026-04-19T09:20:04Z</time></trkpt><trkpt lat="14.805211420552327" lon="120.94059803018864"><ele>8.0</ele><time>2026-04-19T09:20:05Z</time></trkpt><trkpt lat="14.80513607117483" lon="120.94066420115412"><ele>8.0</ele><time>2026-04-19T09:20:06Z</time></trkpt><trkpt lat="14.805040083477214" lon="120.94070918628795"><ele>8.0</ele><time>2026-04-19T09:20:07Z</time></trkpt><trkpt lat="14.80497878183749" lon="120.94081642465008"><ele>8.0</ele><time>2026-04-19T09:20:08Z</time></trkpt><trkpt lat="14.804896199175777" lon="120.94090328554604"><ele>8.0</ele><time>2026-04-19T09:20:09Z</time></trkpt><trkpt lat="14.80480763730391" lon="120.94099344648745"><ele>8.0</ele><time>2026-04-19T09:20:10Z</time></trkpt><trkpt lat="14.804715332961093" lon="120.94109075744738"><ele>8.0</ele><time>2026-04-19T09:20:11Z</time></trkpt><trkpt lat="14.804621654782647" lon="120.94119634616254"><ele>8.0</ele><time>2026-04-19T09:20:12Z</time></trkpt><trkpt lat="14.804530338646279" lon="120.94130126187406"><ele>8.0</ele><time>2026-04-19T09:20:13Z</time></trkpt><trkpt lat="14.80443994101696" lon="120.94140970966585"><ele>8.0</ele><time>2026-04-19T09:20:14Z</time></trkpt><trkpt lat="14.804351872674536" lon="120.94152271345907"><ele>8.0</ele><time>2026-04-19T09:20:15Z</time></trkpt><trkpt lat="14.804267116508006" lon="120.94163600975956"><ele>8.0</ele><time>2026-04-19T09:20:16Z</time></trkpt><trkpt lat="14.804184850187246" lon="120.94175130839749"><ele>7.75</ele><time>2026-04-19T09:20:17Z</time></trkpt><trkpt lat="14.804098471194669" lon="120.94186711090288"><ele>7.5</ele><time>2026-04-19T09:20:18Z</time></trkpt><trkpt lat="14.80400644120997" lon="120.94198160579252"><ele>7.25</ele><time>2026-04-19T09:20:19Z</time></trkpt><trkpt lat="14.803910361702526" lon="120.94208998502725"><ele>7.0</ele><time>2026-04-19T09:20:20Z</time></trkpt><trkpt lat="14.803810046983704" lon="120.94219518287932"><ele>7.0</ele><time>2026-04-19T09:20:21Z</time></trkpt><trkpt lat="14.80370748723324" lon="120.94229300723497"><ele>7.0</ele><time>2026-04-19T09:20:22Z</time></trkpt><trkpt lat="14.803605120138727" lon="120.9423815045098"><ele>7.0</ele><time>2026-04-19T09:20:23Z</time></trkpt><trkpt lat="14.803506773092185" lon="120.94246072148223"><ele>7.0</ele><time>2026-04-19T09:20:24Z</time></trkpt><trkpt lat="14.803409791198478" lon="120.94253468019055"><ele>6.8</ele><time>2026-04-19T09:20:25Z</time></trkpt><trkpt lat="14.803314735000944" lon="120.9426037597675"><ele>6.6</ele><time>2026-04-19T09:20:26Z</time></trkpt><trkpt lat="14.803221798075512" lon="120.94266882548439"><ele>6.3999999999999995</ele><time>2026-04-19T09:20:27Z</time></trkpt><trkpt lat="14.803132042105064" lon="120.94272766733505"><ele>6.199999999999999</ele><time>2026-04-19T09:20:28Z</time></trkpt><trkpt lat="14.80304748311816" lon="120.94278057299393"><ele>6.0</ele><time>2026-04-19T09:20:29Z</time></trkpt><trkpt lat="14.802969414323973" lon="120.94282751766069"><ele>6.0</ele><time>2026-04-19T09:20:30Z</time></trkpt><trkpt lat="14.802896716977228" lon="120.9428699616987"><ele>6.0</ele><time>2026-04-19T09:20:31Z</time></trkpt><trkpt lat="14.802828629707234" lon="120.94291134523819"><ele>6.0</ele><time>2026-04-19T09:20:32Z</time></trkpt><trkpt lat="14.802765838844342" lon="120.94294900569349"><ele>6.0</ele><time>2026-04-19T09:20:33Z</time></trkpt><trkpt lat="14.802710687931823" lon="120.94298338820217"><ele>6.0</ele><time>2026-04-19T09:20:34Z</time></trkpt><trkpt lat="14.802631633029833" lon="120.94302861541969"><ele>6.0</ele><time>2026-04-19T09:20:36Z</time></trkpt><trkpt lat="14.80252076300027" lon="120.94308180022527"><ele>6.166666666666667</ele><time>2026-04-19T09:21:05Z</time></trkpt><trkpt lat="14.80244421019936" lon="120.94311815808253"><ele>6.333333333333334</ele><time>2026-04-19T09:21:08Z</time></trkpt><trkpt lat="14.802380602135518" lon="120.94312742126333"><ele>6.5</ele><time>2026-04-19T09:21:11Z</time></trkpt><trkpt lat="14.802284109432769" lon="120.94313812998998"><ele>6.666666666666667</ele><time>2026-04-19T09:21:15Z</time></trkpt><trkpt lat="14.802213382435044" lon="120.94314232892519"><ele>6.833333333333334</ele><time>2026-04-19T09:22:17.999Z</time></trkpt><trkpt lat="14.802138952656605" lon="120.9431473727171"><ele>7.0</ele><time>2026-04-19T09:22:24.999Z</time></trkpt><trkpt lat="14.802072191555252" lon="120.94315029784728"><ele>7.0</ele><time>2026-04-19T09:22:49.999Z</time></trkpt><trkpt lat="14.801998435632024" lon="120.94315536016272"><ele>7.0</ele><time>2026-04-19T09:22:54.999Z</time></trkpt><trkpt lat="14.80192969443685" lon="120.94315758598033"><ele>7.0</ele><time>2026-04-19T09:22:58.999Z</time></trkpt><trkpt lat="14.801855715417783" lon="120.94316142181498"><ele>7.0</ele><time>2026-04-19T09:23:06.999Z</time></trkpt><trkpt lat="14.801788078610702" lon="120.943165875679"><ele>7.0</ele><time>2026-04-19T09:23:10.999Z</time></trkpt><trkpt lat="14.801716640412709" lon="120.94317081904529"><ele>7.0</ele><time>2026-04-19T09:23:14.999Z</time></trkpt><trkpt lat="14.801644506855908" lon="120.94317565747345"><ele>7.0</ele><time>2026-04-19T09:23:18.999Z</time></trkpt><trkpt lat="14.801563972328411" lon="120.94318059819622"><ele>6.833333333333334</ele><time>2026-04-19T09:23:22.999Z</time></trkpt><trkpt lat="14.801490544135735" lon="120.94318410484317"><ele>6.666666666666667</ele><time>2026-04-19T09:23:25.999Z</time></trkpt><trkpt lat="14.801410394863415" lon="120.94318614592406"><ele>6.5</ele><time>2026-04-19T09:23:29.999Z</time></trkpt><trkpt lat="14.801345528792119" lon="120.94320976807933"><ele>6.333333333333334</ele><time>2026-04-19T09:23:32.999Z</time></trkpt><trkpt lat="14.801281396608626" lon="120.94321634929344"><ele>6.166666666666667</ele><time>2026-04-19T09:23:36.999Z</time></trkpt><trkpt lat="14.801174468940712" lon="120.94322813343508"><ele>6.0</ele><time>2026-04-19T09:23:41.999Z</time></trkpt><trkpt lat="14.80110153156447" lon="120.94323711509443"><ele>6.0</ele><time>2026-04-19T09:23:44.999Z</time></trkpt><trkpt lat="14.801036934503886" lon="120.94322487221449"><ele>6.0</ele><time>2026-04-19T09:23:46.999Z</time></trkpt><trkpt lat="14.800956959929884" lon="120.94326393728825"><ele>6.0</ele><time>2026-04-19T09:23:48.999Z</time></trkpt><trkpt lat="14.800872937714486" lon="120.94326138565816"><ele>6.0</ele><time>2026-04-19T09:23:52.999Z</time></trkpt><trkpt lat="14.800796125766785" lon="120.9432591214294"><ele>6.0</ele><time>2026-04-19T09:23:53.999Z</time></trkpt><trkpt lat="14.800651406806518" lon="120.94328228762167"><ele>6.199999999999999</ele><time>2026-04-19T09:23:55.999Z</time></trkpt><trkpt lat="14.800548206877341" lon="120.94331142790632"><ele>6.3999999999999995</ele><time>2026-04-19T09:23:56.999Z</time></trkpt><trkpt lat="14.800452677421108" lon="120.94334056918316"><ele>6.6</ele><time>2026-04-19T09:23:57.999Z</time></trkpt><trkpt lat="14.800356711908703" lon="120.94337081502111"><ele>6.8</ele><time>2026-04-19T09:23:58.999Z</time></trkpt><trkpt lat="14.80024603264183" lon="120.94341014227146"><ele>7.0</ele><time>2026-04-19T09:23:59.999Z</time></trkpt><trkpt lat="14.800131183524778" lon="120.94344947364435"><ele>7.5</ele><time>2026-04-19T09:24:00.999Z</time></trkpt><trkpt lat="14.800011551859303" lon="120.94349655730522"><ele>8.0</ele><time>2026-04-19T09:24:01.999Z</time></trkpt><trkpt lat="14.799887578831935" lon="120.94353988860854"><ele>8.5</ele><time>2026-04-19T09:24:02.999Z</time></trkpt><trkpt lat="14.799762942134333" lon="120.94359068982168"><ele>9.0</ele><time>2026-04-19T09:24:03.999Z</time></trkpt><trkpt lat="14.799634445419173" lon="120.94364273872826"><ele>9.0</ele><time>2026-04-19T09:24:04.999Z</time></trkpt><trkpt lat="14.799506194881152" lon="120.94369634942609"><ele>9.0</ele><time>2026-04-19T09:24:05.999Z</time></trkpt><trkpt lat="14.799377941801499" lon="120.94374931209495"><ele>9.0</ele><time>2026-04-19T09:24:06.999Z</time></trkpt><trkpt lat="14.799252019766532" lon="120.9438007345521"><ele>9.0</ele><time>2026-04-19T09:24:07.999Z</time></trkpt><trkpt lat="14.799132084152697" lon="120.94384907969672"><ele>9.2</ele><time>2026-04-19T09:24:08.999Z</time></trkpt><trkpt lat="14.799024413177577" lon="120.94389667840173"><ele>9.4</ele><time>2026-04-19T09:24:09.999Z</time></trkpt><trkpt lat="14.798927494872892" lon="120.9439407778295"><ele>9.6</ele><time>2026-04-19T09:24:10.999Z</time></trkpt><trkpt lat="14.798850256498516" lon="120.94397969574094"><ele>9.8</ele><time>2026-04-19T09:24:11.999Z</time></trkpt><trkpt lat="14.79878735547855" lon="120.94401277838607"><ele>10.0</ele><time>2026-04-19T09:24:12.999Z</time></trkpt><trkpt lat="14.798107945282888" lon="120.94438347922666"><ele>9.333333333333334</ele><time>2026-04-19T09:24:14.999Z</time></trkpt><trkpt lat="14.797952940327356" lon="120.94447025710235"><ele>8.666666666666666</ele><time>2026-04-19T09:24:15.999Z</time></trkpt><trkpt lat="14.797778519783371" lon="120.94456790465219"><ele>8.0</ele><time>2026-04-19T09:24:16.999Z</time></trkpt><trkpt lat="14.797606612413166" lon="120.94466311733304"><ele>7.333333333333333</ele><time>2026-04-19T09:24:17.999Z</time></trkpt><trkpt lat="14.79748065435423" lon="120.94473313536828"><ele>6.666666666666666</ele><time>2026-04-19T09:24:18.999Z</time></trkpt><trkpt lat="14.797385873062993" lon="120.94478634916862"><ele>6.0</ele><time>2026-04-19T09:24:20.999Z</time></trkpt><trkpt lat="14.797624045173363" lon="120.9446534893278"><ele>6.0</ele><time>2026-04-19T09:24:22.999Z</time></trkpt><trkpt lat="14.797551856915675" lon="120.94469335809997"><ele>6.0</ele><time>2026-04-19T09:24:24.999Z</time></trkpt><trkpt lat="14.7974557075226" lon="120.94474714146885"><ele>6.0</ele><time>2026-04-19T09:24:25.999Z</time></trkpt><trkpt lat="14.79739783089831" lon="120.94477963434002"><ele>6.0</ele><time>2026-04-19T09:24:26.999Z</time></trkpt><trkpt lat="14.797336316294503" lon="120.94481401090641"><ele>6.0</ele><time>2026-04-19T09:24:27.999Z</time></trkpt><trkpt lat="14.797273290412795" lon="120.94484914961738"><ele>6.0</ele><time>2026-04-19T09:24:28.999Z</time></trkpt><trkpt lat="14.797204125449761" lon="120.94488771112883"><ele>6.0</ele><time>2026-04-19T09:24:29.999Z</time></trkpt><trkpt lat="14.797116427358665" lon="120.94493675587482"><ele>6.0</ele><time>2026-04-19T09:24:30.999Z</time></trkpt><trkpt lat="14.797030791862818" lon="120.94498527357568"><ele>6.0</ele><time>2026-04-19T09:24:31.999Z</time></trkpt><trkpt lat="14.796948848746297" lon="120.94503130605307"><ele>6.0</ele><time>2026-04-19T09:24:32.999Z</time></trkpt><trkpt lat="14.79685046438978" lon="120.94508592388121"><ele>6.0</ele><time>2026-04-19T09:24:33.999Z</time></trkpt><trkpt lat="14.796724837384538" lon="120.94515592970004"><ele>6.5</ele><time>2026-04-19T09:24:34.999Z</time></trkpt><trkpt lat="14.79663318728295" lon="120.94520731033175"><ele>7.0</ele><time>2026-04-19T09:24:35.999Z</time></trkpt><trkpt lat="14.796708934662343" lon="120.94517811326236"><ele>7.5</ele><time>2026-04-19T09:24:36.999Z</time></trkpt><trkpt lat="14.796589995437474" lon="120.94523672106192"><ele>8.0</ele><time>2026-04-19T09:24:37.999Z</time></trkpt><trkpt lat="14.796369882706083" lon="120.94535312577814"><ele>8.0</ele><time>2026-04-19T09:24:38.999Z</time></trkpt><trkpt lat="14.796250259537173" lon="120.94542103165608"><ele>8.0</ele><time>2026-04-19T09:24:39.999Z</time></trkpt><trkpt lat="14.79613361915798" lon="120.94548609535056"><ele>8.0</ele><time>2026-04-19T09:24:40.999Z</time></trkpt><trkpt lat="14.79601559475853" lon="120.94555005544403"><ele>8.0</ele><time>2026-04-19T09:24:41.999Z</time></trkpt><trkpt lat="14.795899082153852" lon="120.94561231443924"><ele>8.0</ele><time>2026-04-19T09:24:42.999Z</time></trkpt><trkpt lat="14.795773649705794" lon="120.94568112078439"><ele>8.0</ele><time>2026-04-19T09:24:43.999Z</time></trkpt><trkpt lat="14.795643965792312" lon="120.94575191973061"><ele>8.0</ele><time>2026-04-19T09:24:44.999Z</time></trkpt><trkpt lat="14.795519247221984" lon="120.94582116365987"><ele>8.0</ele><time>2026-04-19T09:24:45.999Z</time></trkpt><trkpt lat="14.7953981256124" lon="120.94588587662786"><ele>7.75</ele><time>2026-04-19T09:24:46.999Z</time></trkpt><trkpt lat="14.795275057790276" lon="120.94595276068922"><ele>7.5</ele><time>2026-04-19T09:24:47.999Z</time></trkpt><trkpt lat="14.795149025817684" lon="120.94602133388038"><ele>7.25</ele><time>2026-04-19T09:24:48.999Z</time></trkpt><trkpt lat="14.795019664351626" lon="120.94609028144725"><ele>7.0</ele><time>2026-04-19T09:24:49.999Z</time></trkpt><trkpt lat="14.794886898102519" lon="120.94615904289236"><ele>7.0</ele><time>2026-04-19T09:24:50.999Z</time></trkpt><trkpt lat="14.794753333098095" lon="120.9462321560646"><ele>7.0</ele><time>2026-04-19T09:24:51.999Z</time></trkpt><trkpt lat="14.794616556987645" lon="120.94631014988651"><ele>7.0</ele><time>2026-04-19T09:24:52.999Z</time></trkpt><trkpt lat="14.794480676521049" lon="120.94638397459147"><ele>7.0</ele><time>2026-04-19T09:24:53.999Z</time></trkpt><trkpt lat="14.794340720328876" lon="120.94646120502301"><ele>7.0</ele><time>2026-04-19T09:24:54.999Z</time></trkpt><trkpt lat="14.794199119918565" lon="120.9465374867886"><ele>7.0</ele><time>2026-04-19T09:24:55.999Z</time></trkpt><trkpt lat="14.794058279524563" lon="120.94661238337146"><ele>7.666666666666667</ele><time>2026-04-19T09:24:56.999Z</time></trkpt><trkpt lat="14.793912873672227" lon="120.94668980022294"><ele>8.333333333333334</ele><time>2026-04-19T09:24:57.999Z</time></trkpt><trkpt lat="14.793763196382798" lon="120.94677218619847"><ele>9.0</ele><time>2026-04-19T09:24:58.999Z</time></trkpt><trkpt lat="14.79359975336156" lon="120.94687266527305"><ele>8.0</ele><time>2026-04-19T09:24:59.999Z</time></trkpt><trkpt lat="14.793438406081417" lon="120.94696387419943"><ele>7.0</ele><time>2026-04-19T09:25:00.999Z</time></trkpt><trkpt lat="14.793300622586122" lon="120.94703680960197"><ele>6.0</ele><time>2026-04-19T09:25:01.999Z</time></trkpt><trkpt lat="14.793149571833215" lon="120.94711463170447"><ele>6.0</ele><time>2026-04-19T09:25:02.999Z</time></trkpt><trkpt lat="14.79299534501364" lon="120.94720027678979"><ele>6.0</ele><time>2026-04-19T09:25:03.999Z</time></trkpt><trkpt lat="14.792845321028798" lon="120.94728357097323"><ele>6.0</ele><time>2026-04-19T09:25:04.999Z</time></trkpt><trkpt lat="14.792697546573782" lon="120.94736021849963"><ele>6.666666666666666</ele><time>2026-04-19T09:25:05.999Z</time></trkpt><trkpt lat="14.792552693948917" lon="120.94743322711957"><ele>7.333333333333333</ele><time>2026-04-19T09:25:06.999Z</time></trkpt><trkpt lat="14.792405689581933" lon="120.94751380987191"><ele>8.0</ele><time>2026-04-19T09:25:07.999Z</time></trkpt><trkpt lat="14.792254065502833" lon="120.94759746984904"><ele>8.0</ele><time>2026-04-19T09:25:08.999Z</time></trkpt><trkpt lat="14.79210877529715" lon="120.94767541517116"><ele>8.0</ele><time>2026-04-19T09:25:09.999Z</time></trkpt><trkpt lat="14.791967941053487" lon="120.94775015833541"><ele>8.0</ele><time>2026-04-19T09:25:10.999Z</time></trkpt><trkpt lat="14.791832373139" lon="120.9478224921894"><ele>8.666666666666666</ele><time>2026-04-19T09:25:11.999Z</time></trkpt><trkpt lat="14.791695284233217" lon="120.94789421756933"><ele>9.333333333333334</ele><time>2026-04-19T09:25:12.999Z</time></trkpt><trkpt lat="14.791560002778734" lon="120.94796258637079"><ele>10.0</ele><time>2026-04-19T09:25:13.999Z</time></trkpt><trkpt lat="14.791422533439993" lon="120.94803767142767"><ele>10.0</ele><time>2026-04-19T09:25:14.999Z</time></trkpt><trkpt lat="14.791289380079498" lon="120.9481089432942"><ele>10.0</ele><time>2026-04-19T09:25:15.999Z</time></trkpt><trkpt lat="14.791151901808517" lon="120.94818286184866"><ele>10.0</ele><time>2026-04-19T09:25:16.999Z</time></trkpt><trkpt lat="14.791013476520588" lon="120.94825588257589"><ele>10.0</ele><time>2026-04-19T09:25:17.999Z</time></trkpt><trkpt lat="14.790875843579885" lon="120.9483284615627"><ele>10.0</ele><time>2026-04-19T09:25:18.999Z</time></trkpt><trkpt lat="14.790739576835252" lon="120.94840281798528"><ele>10.0</ele><time>2026-04-19T09:25:19.999Z</time></trkpt><trkpt lat="14.790601601113146" lon="120.94847872114323"><ele>10.0</ele><time>2026-04-19T09:25:20.999Z</time></trkpt><trkpt lat="14.790466337357214" lon="120.94855328261487"><ele>10.0</ele><time>2026-04-19T09:25:21.999Z</time></trkpt><trkpt lat="14.790327069177557" lon="120.94862943278353"><ele>10.0</ele><time>2026-04-19T09:25:22.999Z</time></trkpt><trkpt lat="14.790185966990295" lon="120.94870330224755"><ele>10.0</ele><time>2026-04-19T09:25:23.999Z</time></trkpt><trkpt lat="14.790045659677132" lon="120.94877781345262"><ele>10.0</ele><time>2026-04-19T09:25:24.999Z</time></trkpt><trkpt lat="14.78990046736402" lon="120.9488526422402"><ele>10.0</ele><time>2026-04-19T09:25:25.999Z</time></trkpt><trkpt lat="14.789750687403679" lon="120.94892885213379"><ele>10.0</ele><time>2026-04-19T09:25:26.999Z</time></trkpt><trkpt lat="14.78959785205091" lon="120.94900770909359"><ele>10.0</ele><time>2026-04-19T09:25:27.999Z</time></trkpt><trkpt lat="14.789445803391837" lon="120.94908731413416"><ele>10.0</ele><time>2026-04-19T09:25:28.999Z</time></trkpt><trkpt lat="14.789292572863426" lon="120.94916732142264"><ele>10.333333333333334</ele><time>2026-04-19T09:25:29.999Z</time></trkpt><trkpt lat="14.789141993810631" lon="120.94924694021344"><ele>10.666666666666666</ele><time>2026-04-19T09:25:30.999Z</time></trkpt><trkpt lat="14.788988035976338" lon="120.9493296179358"><ele>11.0</ele><time>2026-04-19T09:25:31.999Z</time></trkpt><trkpt lat="14.788836626130683" lon="120.94941215874276"><ele>11.0</ele><time>2026-04-19T09:25:32.999Z</time></trkpt><trkpt lat="14.788685066517465" lon="120.9494928897699"><ele>11.0</ele><time>2026-04-19T09:25:33.999Z</time></trkpt><trkpt lat="14.788532850554338" lon="120.94957535321467"><ele>11.0</ele><time>2026-04-19T09:25:34.999Z</time></trkpt><trkpt lat="14.788379887893372" lon="120.94965886070304"><ele>12.333333333333332</ele><time>2026-04-19T09:25:35.999Z</time></trkpt><trkpt lat="14.788227780430958" lon="120.94974138467146"><ele>13.666666666666666</ele><time>2026-04-19T09:25:36.999Z</time></trkpt><trkpt lat="14.788075389298156" lon="120.94982355002591"><ele>15.0</ele><time>2026-04-19T09:25:37.999Z</time></trkpt><trkpt lat="14.787922590621742" lon="120.94990712915519"><ele>15.0</ele><time>2026-04-19T09:25:38.999Z</time></trkpt><trkpt lat="14.7877649645192" lon="120.94999113136838"><ele>15.0</ele><time>2026-04-19T09:25:39.999Z</time></trkpt><trkpt lat="14.787605780747537" lon="120.95007591795724"><ele>15.0</ele><time>2026-04-19T09:25:40.999Z</time></trkpt><trkpt lat="14.7874451944495" lon="120.95016102464419"><ele>14.666666666666668</ele><time>2026-04-19T09:25:41.999Z</time></trkpt><trkpt lat="14.787282562383949" lon="120.95024673292006"><ele>14.333333333333334</ele><time>2026-04-19T09:25:42.999Z</time></trkpt><trkpt lat="14.787115302883796" lon="120.95033546105975"><ele>14.0</ele><time>2026-04-19T09:25:43.999Z</time></trkpt><trkpt lat="14.786943403908566" lon="120.95042519090838"><ele>14.333333333333334</ele><time>2026-04-19T09:25:44.999Z</time></trkpt><trkpt lat="14.786766538386226" lon="120.95051765281538"><ele>14.666666666666668</ele><time>2026-04-19T09:25:45.999Z</time></trkpt><trkpt lat="14.786586313395267" lon="120.95060824679283"><ele>15.0</ele><time>2026-04-19T09:25:46.999Z</time></trkpt><trkpt lat="14.786401789422449" lon="120.95070134746697"><ele>15.0</ele><time>2026-04-19T09:25:47.999Z</time></trkpt><trkpt lat="14.78621184777174" lon="120.95080059323713"><ele>15.0</ele><time>2026-04-19T09:25:48.999Z</time></trkpt><trkpt lat="14.786022206237217" lon="120.95089555834188"><ele>15.0</ele><time>2026-04-19T09:25:49.999Z</time></trkpt><trkpt lat="14.785829242238266" lon="120.9510010887507"><ele>15.333333333333332</ele><time>2026-04-19T09:25:50.999Z</time></trkpt><trkpt lat="14.785632998583482" lon="120.95110526892915"><ele>15.666666666666666</ele><time>2026-04-19T09:25:51.999Z</time></trkpt><trkpt lat="14.785437176321517" lon="120.95121137336902"><ele>16.0</ele><time>2026-04-19T09:25:52.999Z</time></trkpt><trkpt lat="14.785242782994844" lon="120.95131907367073"><ele>15.333333333333332</ele><time>2026-04-19T09:25:53.999Z</time></trkpt><trkpt lat="14.785049800431224" lon="120.95142083262611"><ele>14.666666666666668</ele><time>2026-04-19T09:25:54.999Z</time></trkpt><trkpt lat="14.784862876763501" lon="120.95152166207733"><ele>14.0</ele><time>2026-04-19T09:25:55.999Z</time></trkpt><trkpt lat="14.78467655637769" lon="120.951623903579"><ele>14.0</ele><time>2026-04-19T09:25:56.999Z</time></trkpt><trkpt lat="14.784496179832862" lon="120.95171990338191"><ele>14.0</ele><time>2026-04-19T09:25:57.999Z</time></trkpt><trkpt lat="14.784319521311795" lon="120.95181667919512"><ele>14.0</ele><time>2026-04-19T09:25:58.999Z</time></trkpt><trkpt lat="14.784146211851246" lon="120.95190983757378"><ele>14.0</ele><time>2026-04-19T09:25:59.999Z</time></trkpt><trkpt lat="14.783973208063173" lon="120.9520041933473"><ele>14.0</ele><time>2026-04-19T09:26:00.999Z</time></trkpt><trkpt lat="14.783799927996863" lon="120.95209826959744"><ele>14.0</ele><time>2026-04-19T09:26:01.999Z</time></trkpt><trkpt lat="14.783630169342876" lon="120.95219004514247"><ele>14.333333333333334</ele><time>2026-04-19T09:26:02.999Z</time></trkpt><trkpt lat="14.783457912638932" lon="120.95228582460659"><ele>14.666666666666668</ele><time>2026-04-19T09:26:03.999Z</time></trkpt><trkpt lat="14.783285856371256" lon="120.95238116915934"><ele>15.0</ele><time>2026-04-19T09:26:04.999Z</time></trkpt><trkpt lat="14.78311084299379" lon="120.95248298366089"><ele>15.333333333333332</ele><time>2026-04-19T09:26:05.999Z</time></trkpt><trkpt lat="14.78294083244463" lon="120.95257542651224"><ele>15.666666666666666</ele><time>2026-04-19T09:26:06.999Z</time></trkpt><trkpt lat="14.782754652567348" lon="120.95267798275937"><ele>16.0</ele><time>2026-04-19T09:26:07.999Z</time></trkpt><trkpt lat="14.782571812311131" lon="120.9527790841076"><ele>16.0</ele><time>2026-04-19T09:26:08.999Z</time></trkpt><trkpt lat="14.782387280065004" lon="120.952881634878"><ele>16.0</ele><time>2026-04-19T09:26:09.999Z</time></trkpt><trkpt lat="14.782206860780569" lon="120.95297832848225"><ele>16.0</ele><time>2026-04-19T09:26:10.999Z</time></trkpt><trkpt lat="14.782028070419704" lon="120.95307567071019"><ele>16.0</ele><time>2026-04-19T09:26:11.999Z</time></trkpt><trkpt lat="14.781850749911428" lon="120.95317009060977"><ele>16.0</ele><time>2026-04-19T09:26:12.999Z</time></trkpt><trkpt lat="14.781672239269758" lon="120.95326475785882"><ele>16.0</ele><time>2026-04-19T09:26:13.999Z</time></trkpt><trkpt lat="14.781492088962379" lon="120.95335923703401"><ele>15.333333333333332</ele><time>2026-04-19T09:26:14.999Z</time></trkpt><trkpt lat="14.781314465576322" lon="120.95345450232944"><ele>14.666666666666668</ele><time>2026-04-19T09:26:15.999Z</time></trkpt><trkpt lat="14.781140054086494" lon="120.95354793551549"><ele>14.0</ele><time>2026-04-19T09:26:16.999Z</time></trkpt><trkpt lat="14.780968811857083" lon="120.95363842610232"><ele>13.0</ele><time>2026-04-19T09:26:17.999Z</time></trkpt><trkpt lat="14.780803051093597" lon="120.95373206894253"><ele>12.0</ele><time>2026-04-19T09:26:18.999Z</time></trkpt><trkpt lat="14.780632103158368" lon="120.95382256573936"><ele>11.0</ele><time>2026-04-19T09:26:19.999Z</time></trkpt><trkpt lat="14.780465962875068" lon="120.95391053788012"><ele>11.0</ele><time>2026-04-19T09:26:20.999Z</time></trkpt><trkpt lat="14.780302656632328" lon="120.95399706190094"><ele>11.0</ele><time>2026-04-19T09:26:21.999Z</time></trkpt><trkpt lat="14.780141078601567" lon="120.95408485117595"><ele>11.0</ele><time>2026-04-19T09:26:22.999Z</time></trkpt><trkpt lat="14.779979947198253" lon="120.9541734183935"><ele>10.0</ele><time>2026-04-19T09:26:23.999Z</time></trkpt><trkpt lat="14.779821772863132" lon="120.95426046401657"><ele>9.0</ele><time>2026-04-19T09:26:24.999Z</time></trkpt><trkpt lat="14.779664630919719" lon="120.95434216854058"><ele>8.0</ele><time>2026-04-19T09:26:25.999Z</time></trkpt><trkpt lat="14.779508889210373" lon="120.95442424747216"><ele>8.0</ele><time>2026-04-19T09:26:26.999Z</time></trkpt><trkpt lat="14.779352975662363" lon="120.9545073527904"><ele>8.0</ele><time>2026-04-19T09:26:27.999Z</time></trkpt><trkpt lat="14.779197816357378" lon="120.95459053547351"><ele>8.0</ele><time>2026-04-19T09:26:28.999Z</time></trkpt><trkpt lat="14.779039689330789" lon="120.95467666914244"><ele>8.333333333333332</ele><time>2026-04-19T09:26:29.999Z</time></trkpt><trkpt lat="14.778882669866341" lon="120.95476004306624"><ele>8.666666666666666</ele><time>2026-04-19T09:26:30.999Z</time></trkpt><trkpt lat="14.778727151365976" lon="120.95484254626565"><ele>9.0</ele><time>2026-04-19T09:26:31.999Z</time></trkpt><trkpt lat="14.778574219338138" lon="120.95492658365735"><ele>9.0</ele><time>2026-04-19T09:26:32.999Z</time></trkpt><trkpt lat="14.778419775104876" lon="120.95500773972611"><ele>9.0</ele><time>2026-04-19T09:26:33.999Z</time></trkpt><trkpt lat="14.778263852985118" lon="120.95509085400265"><ele>9.0</ele><time>2026-04-19T09:26:34.999Z</time></trkpt><trkpt lat="14.778108988974862" lon="120.95517418702448"><ele>9.0</ele><time>2026-04-19T09:26:35.999Z</time></trkpt><trkpt lat="14.777953177995157" lon="120.95525685857096"><ele>9.0</ele><time>2026-04-19T09:26:36.999Z</time></trkpt><trkpt lat="14.777800150992432" lon="120.95533898162792"><ele>9.0</ele><time>2026-04-19T09:26:37.999Z</time></trkpt><trkpt lat="14.777646479144277" lon="120.95542135751475"><ele>9.333333333333334</ele><time>2026-04-19T09:26:38.999Z</time></trkpt><trkpt lat="14.777495817334701" lon="120.955502894637"><ele>9.666666666666668</ele><time>2026-04-19T09:26:39.999Z</time></trkpt><trkpt lat="14.7773470035378" lon="120.9555806529946"><ele>10.0</ele><time>2026-04-19T09:26:40.999Z</time></trkpt><trkpt lat="14.77719725241041" lon="120.95566236377907"><ele>10.0</ele><time>2026-04-19T09:26:41.999Z</time></trkpt><trkpt lat="14.777047735847265" lon="120.95574548939538"><ele>10.0</ele><time>2026-04-19T09:26:42.999Z</time></trkpt><trkpt lat="14.776896835186765" lon="120.95582449229069"><ele>10.0</ele><time>2026-04-19T09:26:43.999Z</time></trkpt><trkpt lat="14.776747614538666" lon="120.95590943724675"><ele>9.0</ele><time>2026-04-19T09:26:44.999Z</time></trkpt><trkpt lat="14.776592879940948" lon="120.95599016880624"><ele>8.0</ele><time>2026-04-19T09:26:45.999Z</time></trkpt><trkpt lat="14.776440775791329" lon="120.95607370149445"><ele>7.0</ele><time>2026-04-19T09:26:46.999Z</time></trkpt><trkpt lat="14.77628671903082" lon="120.95615877585584"><ele>7.0</ele><time>2026-04-19T09:26:47.999Z</time></trkpt><trkpt lat="14.776132868746744" lon="120.95624233277822"><ele>7.0</ele><time>2026-04-19T09:26:48.999Z</time></trkpt><trkpt lat="14.775979719039404" lon="120.95632197168504"><ele>7.0</ele><time>2026-04-19T09:26:49.999Z</time></trkpt><trkpt lat="14.77582625941575" lon="120.95639962733988"><ele>8.0</ele><time>2026-04-19T09:26:50.999Z</time></trkpt><trkpt lat="14.775670047712191" lon="120.95648193643419"><ele>9.0</ele><time>2026-04-19T09:26:51.999Z</time></trkpt><trkpt lat="14.775515303019283" lon="120.95656446206524"><ele>10.0</ele><time>2026-04-19T09:26:52.999Z</time></trkpt><trkpt lat="14.775361434500024" lon="120.95664800777794"><ele>10.0</ele><time>2026-04-19T09:26:53.999Z</time></trkpt><trkpt lat="14.77520677998065" lon="120.95673257102813"><ele>10.0</ele><time>2026-04-19T09:26:54.999Z</time></trkpt><trkpt lat="14.775049294868346" lon="120.95681914881175"><ele>10.0</ele><time>2026-04-19T09:26:55.999Z</time></trkpt><trkpt lat="14.774892245613204" lon="120.95690676428478"><ele>10.666666666666668</ele><time>2026-04-19T09:26:56.999Z</time></trkpt><trkpt lat="14.774735139250803" lon="120.95699062092444"><ele>11.333333333333334</ele><time>2026-04-19T09:26:58Z</time></trkpt><trkpt lat="14.774576405614583" lon="120.9570740266208"><ele>12.0</ele><time>2026-04-19T09:26:59Z</time></trkpt><trkpt lat="14.774420355968154" lon="120.95716100338791"><ele>12.0</ele><time>2026-04-19T09:27:00Z</time></trkpt><trkpt lat="14.774261517993002" lon="120.95725039349578"><ele>12.0</ele><time>2026-04-19T09:27:01Z</time></trkpt><trkpt lat="14.774101244712673" lon="120.95734194053973"><ele>12.0</ele><time>2026-04-19T09:27:02Z</time></trkpt><trkpt lat="14.773937544502823" lon="120.9574363016406"><ele>12.0</ele><time>2026-04-19T09:27:03Z</time></trkpt><trkpt lat="14.773770114843465" lon="120.95753106130526"><ele>12.0</ele><time>2026-04-19T09:27:04Z</time></trkpt><trkpt lat="14.773598161875421" lon="120.95762513471257"><ele>12.0</ele><time>2026-04-19T09:27:05Z</time></trkpt><trkpt lat="14.773422464360088" lon="120.95772154829591"><ele>11.333333333333334</ele><time>2026-04-19T09:27:06Z</time></trkpt><trkpt lat="14.773247395972966" lon="120.95781838072062"><ele>10.666666666666668</ele><time>2026-04-19T09:27:07Z</time></trkpt><trkpt lat="14.773072850319034" lon="120.95791296403368"><ele>10.0</ele><time>2026-04-19T09:27:08Z</time></trkpt><trkpt lat="14.77289715106114" lon="120.95800904578428"><ele>10.0</ele><time>2026-04-19T09:27:09Z</time></trkpt><trkpt lat="14.772721531102295" lon="120.95810500969746"><ele>10.0</ele><time>2026-04-19T09:27:10Z</time></trkpt><trkpt lat="14.772546803273189" lon="120.95819677385417"><ele>10.0</ele><time>2026-04-19T09:27:11Z</time></trkpt><trkpt lat="14.772370670374482" lon="120.95828876886561"><ele>10.333333333333334</ele><time>2026-04-19T09:27:12Z</time></trkpt><trkpt lat="14.77219357121449" lon="120.95838382508225"><ele>10.666666666666666</ele><time>2026-04-19T09:27:13Z</time></trkpt><trkpt lat="14.772015487164607" lon="120.95848020035822"><ele>11.0</ele><time>2026-04-19T09:27:14Z</time></trkpt><trkpt lat="14.771837265462516" lon="120.9585772178688"><ele>11.0</ele><time>2026-04-19T09:27:15Z</time></trkpt><trkpt lat="14.771662093368732" lon="120.95867114222237"><ele>11.0</ele><time>2026-04-19T09:27:16Z</time></trkpt><trkpt lat="14.771486893973531" lon="120.9587646637148"><ele>11.0</ele><time>2026-04-19T09:27:17Z</time></trkpt><trkpt lat="14.77130661420461" lon="120.95885746471376"><ele>11.0</ele><time>2026-04-19T09:27:18Z</time></trkpt><trkpt lat="14.771130810813" lon="120.95895150664654"><ele>11.0</ele><time>2026-04-19T09:27:19Z</time></trkpt><trkpt lat="14.770955132832185" lon="120.95904263582081"><ele>11.0</ele><time>2026-04-19T09:27:20Z</time></trkpt><trkpt lat="14.770782256916414" lon="120.9591331672188"><ele>10.666666666666666</ele><time>2026-04-19T09:27:21Z</time></trkpt><trkpt lat="14.770611653785284" lon="120.95922451942121"><ele>10.333333333333334</ele><time>2026-04-19T09:27:22Z</time></trkpt><trkpt lat="14.77044302583387" lon="120.95931480452354"><ele>10.0</ele><time>2026-04-19T09:27:23Z</time></trkpt><trkpt lat="14.770276145881539" lon="120.95940509214064"><ele>9.666666666666668</ele><time>2026-04-19T09:27:24Z</time></trkpt><trkpt lat="14.770111721281348" lon="120.95949394749522"><ele>9.333333333333334</ele><time>2026-04-19T09:27:25Z</time></trkpt><trkpt lat="14.769945377909922" lon="120.9595883949748"><ele>9.0</ele><time>2026-04-19T09:27:26Z</time></trkpt><trkpt lat="14.769778938786416" lon="120.9596782165173"><ele>9.0</ele><time>2026-04-19T09:27:27Z</time></trkpt><trkpt lat="14.769612860409364" lon="120.95976726748732"><ele>9.0</ele><time>2026-04-19T09:27:28Z</time></trkpt><trkpt lat="14.769445256328536" lon="120.9598583936871"><ele>9.0</ele><time>2026-04-19T09:27:29Z</time></trkpt><trkpt lat="14.769276163425763" lon="120.95994994064178"><ele>9.333333333333334</ele><time>2026-04-19T09:27:30Z</time></trkpt><trkpt lat="14.769104080092594" lon="120.96004012308822"><ele>9.666666666666668</ele><time>2026-04-19T09:27:31Z</time></trkpt><trkpt lat="14.76893079515914" lon="120.96013311006787"><ele>10.0</ele><time>2026-04-19T09:27:32Z</time></trkpt><trkpt lat="14.768755994431467" lon="120.96022663160748"><ele>10.0</ele><time>2026-04-19T09:27:33Z</time></trkpt><trkpt lat="14.768581753954265" lon="120.96032078707955"><ele>10.0</ele><time>2026-04-19T09:27:34Z</time></trkpt><trkpt lat="14.76840757392681" lon="120.9604150014674"><ele>10.0</ele><time>2026-04-19T09:27:35Z</time></trkpt><trkpt lat="14.76823145278482" lon="120.96051031175534"><ele>10.0</ele><time>2026-04-19T09:27:36Z</time></trkpt><trkpt lat="14.768054709388288" lon="120.96060408575582"><ele>10.0</ele><time>2026-04-19T09:27:37Z</time></trkpt><trkpt lat="14.767878104337743" lon="120.96070109772761"><ele>10.0</ele><time>2026-04-19T09:27:38Z</time></trkpt><trkpt lat="14.76770185459957" lon="120.96079685142556"><ele>10.666666666666668</ele><time>2026-04-19T09:27:39Z</time></trkpt><trkpt lat="14.767525455012771" lon="120.96089348858122"><ele>11.333333333333334</ele><time>2026-04-19T09:27:40Z</time></trkpt><trkpt lat="14.767347365459813" lon="120.96098672201198"><ele>12.0</ele><time>2026-04-19T09:27:41Z</time></trkpt><trkpt lat="14.767170851192802" lon="120.96108123507496"><ele>12.0</ele><time>2026-04-19T09:27:42Z</time></trkpt><trkpt lat="14.766994614481593" lon="120.96117533707967"><ele>12.0</ele><time>2026-04-19T09:27:43Z</time></trkpt><trkpt lat="14.766817770345012" lon="120.96126878579204"><ele>12.0</ele><time>2026-04-19T09:27:44Z</time></trkpt><trkpt lat="14.766639873442228" lon="120.9613669851453"><ele>11.333333333333334</ele><time>2026-04-19T09:27:45Z</time></trkpt><trkpt lat="14.76646103654962" lon="120.96146313140835"><ele>10.666666666666668</ele><time>2026-04-19T09:27:46Z</time></trkpt><trkpt lat="14.766281697652163" lon="120.96156009410049"><ele>10.0</ele><time>2026-04-19T09:27:47Z</time></trkpt><trkpt lat="14.766102185253558" lon="120.96165698621053"><ele>10.333333333333334</ele><time>2026-04-19T09:27:48Z</time></trkpt><trkpt lat="14.76592036365795" lon="120.96175625321808"><ele>10.666666666666666</ele><time>2026-04-19T09:27:49Z</time></trkpt><trkpt lat="14.765739708171033" lon="120.96185433110023"><ele>11.0</ele><time>2026-04-19T09:27:50Z</time></trkpt><trkpt lat="14.765560734893347" lon="120.96195187968661"><ele>11.0</ele><time>2026-04-19T09:27:51Z</time></trkpt><trkpt lat="14.76538405517379" lon="120.96204938810688"><ele>11.0</ele><time>2026-04-19T09:27:52Z</time></trkpt><trkpt lat="14.765209538007838" lon="120.96214573478478"><ele>11.0</ele><time>2026-04-19T09:27:53Z</time></trkpt><trkpt lat="14.765034962820788" lon="120.96223899644401"><ele>11.0</ele><time>2026-04-19T09:27:54Z</time></trkpt><trkpt lat="14.764860592585695" lon="120.96233323299441"><ele>11.0</ele><time>2026-04-19T09:27:55Z</time></trkpt><trkpt lat="14.76468712174388" lon="120.9624276686112"><ele>11.0</ele><time>2026-04-19T09:27:56Z</time></trkpt><trkpt lat="14.76451286898826" lon="120.96252176261476"><ele>12.666666666666666</ele><time>2026-04-19T09:27:57Z</time></trkpt><trkpt lat="14.764337536777427" lon="120.96261663684544"><ele>14.333333333333332</ele><time>2026-04-19T09:27:58Z</time></trkpt><trkpt lat="14.764161876470375" lon="120.96271338424589"><ele>16.0</ele><time>2026-04-19T09:27:59Z</time></trkpt><trkpt lat="14.763985400642827" lon="120.96281207047375"><ele>16.0</ele><time>2026-04-19T09:28:00Z</time></trkpt><trkpt lat="14.763807241670206" lon="120.96290997218257"><ele>16.0</ele><time>2026-04-19T09:28:01Z</time></trkpt><trkpt lat="14.76362937025005" lon="120.96300836854687"><ele>16.0</ele><time>2026-04-19T09:28:02Z</time></trkpt><trkpt lat="14.763451360576509" lon="120.96310557105576"><ele>16.0</ele><time>2026-04-19T09:28:03Z</time></trkpt><trkpt lat="14.763272344643417" lon="120.96320283457793"><ele>16.0</ele><time>2026-04-19T09:28:04Z</time></trkpt><trkpt lat="14.76309329070879" lon="120.96329931365271"><ele>16.0</ele><time>2026-04-19T09:28:05Z</time></trkpt><trkpt lat="14.762913969103868" lon="120.96339639353705"><ele>16.0</ele><time>2026-04-19T09:28:06Z</time></trkpt><trkpt lat="14.762734735079796" lon="120.96349325351835"><ele>16.0</ele><time>2026-04-19T09:28:07Z</time></trkpt><trkpt lat="14.762555785015492" lon="120.96358810703994"><ele>16.0</ele><time>2026-04-19T09:28:08Z</time></trkpt><trkpt lat="14.762377407859626" lon="120.9636823824395"><ele>16.333333333333332</ele><time>2026-04-19T09:28:09Z</time></trkpt><trkpt lat="14.76220004816099" lon="120.96377670128287"><ele>16.666666666666668</ele><time>2026-04-19T09:28:10Z</time></trkpt><trkpt lat="14.7620259765947" lon="120.96386990540518"><ele>17.0</ele><time>2026-04-19T09:28:11Z</time></trkpt><trkpt lat="14.76185437599401" lon="120.96396112781669"><ele>17.0</ele><time>2026-04-19T09:28:12Z</time></trkpt><trkpt lat="14.761687089100226" lon="120.96405095496897"><ele>17.0</ele><time>2026-04-19T09:28:13Z</time></trkpt><trkpt lat="14.761522605336221" lon="120.9641378181032"><ele>17.0</ele><time>2026-04-19T09:28:14Z</time></trkpt><trkpt lat="14.761358970371914" lon="120.96422497346208"><ele>17.333333333333336</ele><time>2026-04-19T09:28:15Z</time></trkpt><trkpt lat="14.761195324503028" lon="120.96431255091595"><ele>17.666666666666668</ele><time>2026-04-19T09:28:16Z</time></trkpt><trkpt lat="14.761030972974343" lon="120.96439931456358"><ele>18.0</ele><time>2026-04-19T09:28:17Z</time></trkpt><trkpt lat="14.760864640639166" lon="120.96448950573173"><ele>18.333333333333332</ele><time>2026-04-19T09:28:18Z</time></trkpt><trkpt lat="14.760698072972609" lon="120.96458005962602"><ele>18.666666666666664</ele><time>2026-04-19T09:28:19Z</time></trkpt><trkpt lat="14.760532910879407" lon="120.96467016172383"><ele>19.0</ele><time>2026-04-19T09:28:20Z</time></trkpt><trkpt lat="14.76036841307862" lon="120.96475945165561"><ele>19.0</ele><time>2026-04-19T09:28:21Z</time></trkpt><trkpt lat="14.760203791567383" lon="120.9648499348656"><ele>19.0</ele><time>2026-04-19T09:28:22Z</time></trkpt><trkpt lat="14.760041499475587" lon="120.96493912846032"><ele>19.0</ele><time>2026-04-19T09:28:23Z</time></trkpt><trkpt lat="14.759882718484207" lon="120.9650250753261"><ele>17.0</ele><time>2026-04-19T09:28:24Z</time></trkpt><trkpt lat="14.759723961120613" lon="120.96510992555486"><ele>15.0</ele><time>2026-04-19T09:28:25Z</time></trkpt><trkpt lat="14.759565073021157" lon="120.96519355262095"><ele>13.0</ele><time>2026-04-19T09:28:26Z</time></trkpt><trkpt lat="14.759406177159832" lon="120.9652799947075"><ele>13.0</ele><time>2026-04-19T09:28:27Z</time></trkpt><trkpt lat="14.759243886805628" lon="120.96536648898187"><ele>13.0</ele><time>2026-04-19T09:28:28Z</time></trkpt><trkpt lat="14.759080621700496" lon="120.96545490679509"><ele>13.0</ele><time>2026-04-19T09:28:29Z</time></trkpt><trkpt lat="14.75891518590467" lon="120.96554431509549"><ele>13.0</ele><time>2026-04-19T09:28:30Z</time></trkpt><trkpt lat="14.758749678626922" lon="120.96563552602197"><ele>13.0</ele><time>2026-04-19T09:28:31Z</time></trkpt><trkpt lat="14.75858503023272" lon="120.96572271172398"><ele>13.0</ele><time>2026-04-19T09:28:32Z</time></trkpt><trkpt lat="14.758419111450541" lon="120.96580935552431"><ele>12.333333333333332</ele><time>2026-04-19T09:28:33Z</time></trkpt><trkpt lat="14.758253709699757" lon="120.96589533273763"><ele>11.666666666666666</ele><time>2026-04-19T09:28:34Z</time></trkpt><trkpt lat="14.758087981687785" lon="120.9659832724737"><ele>11.0</ele><time>2026-04-19T09:28:35Z</time></trkpt><trkpt lat="14.757921024934355" lon="120.96607228019163"><ele>11.0</ele><time>2026-04-19T09:28:36Z</time></trkpt><trkpt lat="14.75775679752278" lon="120.96616565515156"><ele>11.0</ele><time>2026-04-19T09:28:37Z</time></trkpt><trkpt lat="14.757589068383243" lon="120.9662554278666"><ele>11.0</ele><time>2026-04-19T09:28:38Z</time></trkpt><trkpt lat="14.757423713777934" lon="120.96634581131053"><ele>11.0</ele><time>2026-04-19T09:28:39Z</time></trkpt><trkpt lat="14.757260227650374" lon="120.96643456262436"><ele>11.0</ele><time>2026-04-19T09:28:40Z</time></trkpt><trkpt lat="14.7570997263748" lon="120.9665210721706"><ele>11.0</ele><time>2026-04-19T09:28:41.001Z</time></trkpt><trkpt lat="14.756939746253863" lon="120.96660644102957"><ele>11.666666666666666</ele><time>2026-04-19T09:28:42.001Z</time></trkpt><trkpt lat="14.756783304745767" lon="120.96669226579222"><ele>12.333333333333332</ele><time>2026-04-19T09:28:43.001Z</time></trkpt><trkpt lat="14.756637340344335" lon="120.96677240713234"><ele>13.0</ele><time>2026-04-19T09:28:44.001Z</time></trkpt><trkpt lat="14.756505838317281" lon="120.96684333648938"><ele>13.0</ele><time>2026-04-19T09:28:45.001Z</time></trkpt><trkpt lat="14.756385236179382" lon="120.9669088350779"><ele>13.0</ele><time>2026-04-19T09:28:46.001Z</time></trkpt><trkpt lat="14.756269997331803" lon="120.96697135517817"><ele>13.0</ele><time>2026-04-19T09:28:47.001Z</time></trkpt><trkpt lat="14.75616031468564" lon="120.96703122185241"><ele>13.0</ele><time>2026-04-19T09:28:48.001Z</time></trkpt><trkpt lat="14.756050184438728" lon="120.96709150952084"><ele>12.0</ele><time>2026-04-19T09:28:49.001Z</time></trkpt><trkpt lat="14.755939711853635" lon="120.96715204502003"><ele>11.0</ele><time>2026-04-19T09:28:50.001Z</time></trkpt><trkpt lat="14.755827972238102" lon="120.9672139550829"><ele>10.0</ele><time>2026-04-19T09:28:51.001Z</time></trkpt><trkpt lat="14.75571397591121" lon="120.96727499545216"><ele>9.0</ele><time>2026-04-19T09:28:52.001Z</time></trkpt><trkpt lat="14.755597481698365" lon="120.96733748837843"><ele>9.0</ele><time>2026-04-19T09:28:53.001Z</time></trkpt><trkpt lat="14.755477626658182" lon="120.96740159588406"><ele>9.0</ele><time>2026-04-19T09:28:54.001Z</time></trkpt><trkpt lat="14.755354851205881" lon="120.96746769902947"><ele>9.0</ele><time>2026-04-19T09:28:55.001Z</time></trkpt><trkpt lat="14.75522980539042" lon="120.96753399424198"><ele>9.0</ele><time>2026-04-19T09:28:56.001Z</time></trkpt><trkpt lat="14.755102695860518" lon="120.9676020718633"><ele>9.25</ele><time>2026-04-19T09:28:57.001Z</time></trkpt><trkpt lat="14.754973381668632" lon="120.96767191923878"><ele>9.5</ele><time>2026-04-19T09:28:58.001Z</time></trkpt><trkpt lat="14.754842479616146" lon="120.9677415884171"><ele>9.75</ele><time>2026-04-19T09:28:59.001Z</time></trkpt><trkpt lat="14.754709178572169" lon="120.96781508185614"><ele>10.0</ele><time>2026-04-19T09:29:00.001Z</time></trkpt><trkpt lat="14.754574633287577" lon="120.96788699278495"><ele>10.0</ele><time>2026-04-19T09:29:01.001Z</time></trkpt><trkpt lat="14.754436583058403" lon="120.96796155789276"><ele>10.0</ele><time>2026-04-19T09:29:02.001Z</time></trkpt><trkpt lat="14.754296869749338" lon="120.96803855929795"><ele>10.0</ele><time>2026-04-19T09:29:03.001Z</time></trkpt><trkpt lat="14.754155130520012" lon="120.9681157970719"><ele>10.0</ele><time>2026-04-19T09:29:04.001Z</time></trkpt><trkpt lat="14.754011824970604" lon="120.96819396426746"><ele>10.0</ele><time>2026-04-19T09:29:05.001Z</time></trkpt><trkpt lat="14.753867298233809" lon="120.96827285968372"><ele>10.0</ele><time>2026-04-19T09:29:06.001Z</time></trkpt><trkpt lat="14.753720208005678" lon="120.96835291307461"><ele>9.666666666666668</ele><time>2026-04-19T09:29:07.001Z</time></trkpt><trkpt lat="14.753571289030674" lon="120.968432893587"><ele>9.333333333333334</ele><time>2026-04-19T09:29:08.001Z</time></trkpt><trkpt lat="14.75341935044585" lon="120.96851527239498"><ele>9.0</ele><time>2026-04-19T09:29:09.001Z</time></trkpt><trkpt lat="14.753264708286167" lon="120.96859797641935"><ele>9.0</ele><time>2026-04-19T09:29:10.001Z</time></trkpt><trkpt lat="14.753106974970434" lon="120.9686822551111"><ele>9.0</ele><time>2026-04-19T09:29:11.001Z</time></trkpt><trkpt lat="14.7529464125351" lon="120.9687682157806"><ele>9.0</ele><time>2026-04-19T09:29:12.001Z</time></trkpt><trkpt lat="14.752783161785722" lon="120.96885651266082"><ele>10.0</ele><time>2026-04-19T09:29:13.001Z</time></trkpt><trkpt lat="14.752617650140955" lon="120.96894624849456"><ele>11.0</ele><time>2026-04-19T09:29:14.001Z</time></trkpt><trkpt lat="14.752447917880822" lon="120.9690377834728"><ele>12.0</ele><time>2026-04-19T09:29:15.001Z</time></trkpt><trkpt lat="14.752275082169998" lon="120.96913075777206"><ele>11.666666666666666</ele><time>2026-04-19T09:29:16.001Z</time></trkpt><trkpt lat="14.752100359642036" lon="120.96922347450686"><ele>11.333333333333332</ele><time>2026-04-19T09:29:17.001Z</time></trkpt><trkpt lat="14.751923700183692" lon="120.96931792171824"><ele>11.0</ele><time>2026-04-19T09:29:18.001Z</time></trkpt><trkpt lat="14.75174569877077" lon="120.9694142854495"><ele>10.666666666666666</ele><time>2026-04-19T09:29:19.001Z</time></trkpt><trkpt lat="14.751566271484995" lon="120.96951101640856"><ele>10.333333333333334</ele><time>2026-04-19T09:29:20.001Z</time></trkpt><trkpt lat="14.751388710679919" lon="120.96960781832695"><ele>10.0</ele><time>2026-04-19T09:29:21.001Z</time></trkpt><trkpt lat="14.75121364246908" lon="120.96970362589472"><ele>10.0</ele><time>2026-04-19T09:29:22.001Z</time></trkpt><trkpt lat="14.751041270261002" lon="120.96979829534986"><ele>10.0</ele><time>2026-04-19T09:29:23.001Z</time></trkpt><trkpt lat="14.750872589784919" lon="120.96988976006446"><ele>10.0</ele><time>2026-04-19T09:29:24.001Z</time></trkpt><trkpt lat="14.75070777142132" lon="120.96998042021802"><ele>10.666666666666668</ele><time>2026-04-19T09:29:25.001Z</time></trkpt><trkpt lat="14.750548736579896" lon="120.97006644582366"><ele>11.333333333333334</ele><time>2026-04-19T09:29:26.001Z</time></trkpt><trkpt lat="14.750394730109276" lon="120.97015040151133"><ele>12.0</ele><time>2026-04-19T09:29:27.001Z</time></trkpt><trkpt lat="14.750247169230434" lon="120.9702299850377"><ele>13.0</ele><time>2026-04-19T09:29:28.001Z</time></trkpt><trkpt lat="14.750104451702423" lon="120.97030636598991"><ele>14.0</ele><time>2026-04-19T09:29:29.001Z</time></trkpt><trkpt lat="14.74996441078977" lon="120.97038216939974"><ele>15.0</ele><time>2026-04-19T09:29:30.001Z</time></trkpt><trkpt lat="14.749828387563701" lon="120.97045532383115"><ele>15.0</ele><time>2026-04-19T09:29:31.001Z</time></trkpt><trkpt lat="14.749695344846131" lon="120.97052614348691"><ele>15.0</ele><time>2026-04-19T09:29:32.001Z</time></trkpt><trkpt lat="14.749564627290741" lon="120.97059680390343"><ele>15.0</ele><time>2026-04-19T09:29:33.001Z</time></trkpt><trkpt lat="14.749434220426357" lon="120.9706684299254"><ele>15.0</ele><time>2026-04-19T09:29:34.001Z</time></trkpt><trkpt lat="14.749305283762297" lon="120.97073767808473"><ele>15.0</ele><time>2026-04-19T09:29:35.001Z</time></trkpt><trkpt lat="14.749177526728946" lon="120.97080654891245"><ele>15.0</ele><time>2026-04-19T09:29:36.001Z</time></trkpt><trkpt lat="14.749048504440486" lon="120.970876973841"><ele>15.0</ele><time>2026-04-19T09:29:37.001Z</time></trkpt><trkpt lat="14.748917174403855" lon="120.97094702948823"><ele>15.0</ele><time>2026-04-19T09:29:38.001Z</time></trkpt><trkpt lat="14.748786405596617" lon="120.97101566657966"><ele>16.0</ele><time>2026-04-19T09:29:39.001Z</time></trkpt><trkpt lat="14.74865443303628" lon="120.97108583862924"><ele>17.0</ele><time>2026-04-19T09:29:40.001Z</time></trkpt><trkpt lat="14.748519796602293" lon="120.9711561480883"><ele>18.0</ele><time>2026-04-19T09:29:41.001Z</time></trkpt><trkpt lat="14.748382492798072" lon="120.9712285586884"><ele>18.0</ele><time>2026-04-19T09:29:42.001Z</time></trkpt><trkpt lat="14.748242153089231" lon="120.97130009787067"><ele>18.0</ele><time>2026-04-19T09:29:43.001Z</time></trkpt><trkpt lat="14.748098895740194" lon="120.97137522188353"><ele>18.0</ele><time>2026-04-19T09:29:44.001Z</time></trkpt><trkpt lat="14.747959650975433" lon="120.97145171481063"><ele>18.0</ele><time>2026-04-19T09:29:45.001Z</time></trkpt><trkpt lat="14.74781841284566" lon="120.9715298839572"><ele>18.0</ele><time>2026-04-19T09:29:46.001Z</time></trkpt><trkpt lat="14.74767900435542" lon="120.97160638358845"><ele>18.0</ele><time>2026-04-19T09:29:47.001Z</time></trkpt><trkpt lat="14.747539836189711" lon="120.97168274727233"><ele>17.333333333333332</ele><time>2026-04-19T09:29:48.001Z</time></trkpt><trkpt lat="14.747402941984571" lon="120.9717574512527"><ele>16.666666666666664</ele><time>2026-04-19T09:29:49.001Z</time></trkpt><trkpt lat="14.747267597614412" lon="120.97183244701279"><ele>16.0</ele><time>2026-04-19T09:29:50.001Z</time></trkpt><trkpt lat="14.747130495122855" lon="120.97190867256984"><ele>16.0</ele><time>2026-04-19T09:29:51.001Z</time></trkpt><trkpt lat="14.746993640996559" lon="120.97198537884454"><ele>16.0</ele><time>2026-04-19T09:29:52.001Z</time></trkpt><trkpt lat="14.746855760202243" lon="120.97206164469415"><ele>16.0</ele><time>2026-04-19T09:29:53.001Z</time></trkpt><trkpt lat="14.74671706067897" lon="120.97213752330339"><ele>15.333333333333332</ele><time>2026-04-19T09:29:54.001Z</time></trkpt><trkpt lat="14.74657833958716" lon="120.97221312753045"><ele>14.666666666666668</ele><time>2026-04-19T09:29:55.001Z</time></trkpt><trkpt lat="14.746438152008697" lon="120.9722883523792"><ele>14.0</ele><time>2026-04-19T09:29:56.001Z</time></trkpt><trkpt lat="14.746295840183024" lon="120.97236442068704"><ele>14.0</ele><time>2026-04-19T09:29:57.001Z</time></trkpt><trkpt lat="14.74615111119772" lon="120.97244262715373"><ele>14.0</ele><time>2026-04-19T09:29:58.001Z</time></trkpt><trkpt lat="14.746003056812036" lon="120.97252231350008"><ele>14.0</ele><time>2026-04-19T09:29:59.001Z</time></trkpt><trkpt lat="14.745854498841375" lon="120.97260343779323"><ele>14.0</ele><time>2026-04-19T09:30:00.001Z</time></trkpt><trkpt lat="14.745708441733502" lon="120.97268303262169"><ele>14.0</ele><time>2026-04-19T09:30:01.001Z</time></trkpt><trkpt lat="14.745557482300718" lon="120.9727681145612"><ele>14.0</ele><time>2026-04-19T09:30:02.001Z</time></trkpt><trkpt lat="14.745403420254895" lon="120.97284785714088"><ele>14.0</ele><time>2026-04-19T09:30:03.001Z</time></trkpt><trkpt lat="14.745253045098794" lon="120.97292733444765"><ele>14.0</ele><time>2026-04-19T09:30:04.001Z</time></trkpt><trkpt lat="14.745104181836354" lon="120.97300725442123"><ele>14.0</ele><time>2026-04-19T09:30:05.001Z</time></trkpt><trkpt lat="14.744961711026518" lon="120.97308453142223"><ele>13.0</ele><time>2026-04-19T09:30:06.001Z</time></trkpt><trkpt lat="14.744824500256605" lon="120.97315931138165"><ele>12.0</ele><time>2026-04-19T09:30:07.001Z</time></trkpt><trkpt lat="14.744690115919868" lon="120.9732313296816"><ele>11.0</ele><time>2026-04-19T09:30:08.001Z</time></trkpt><trkpt lat="14.744557566085955" lon="120.9733025420536"><ele>10.333333333333332</ele><time>2026-04-19T09:30:09.001Z</time></trkpt><trkpt lat="14.744424154180367" lon="120.97337437439188"><ele>9.666666666666666</ele><time>2026-04-19T09:30:10.001Z</time></trkpt><trkpt lat="14.74429030688939" lon="120.97344834742374"><ele>9.0</ele><time>2026-04-19T09:30:11.001Z</time></trkpt><trkpt lat="14.744154388522206" lon="120.9735225752401"><ele>8.666666666666666</ele><time>2026-04-19T09:30:12.001Z</time></trkpt><trkpt lat="14.744017114530507" lon="120.97359597723117"><ele>8.333333333333332</ele><time>2026-04-19T09:30:13.001Z</time></trkpt><trkpt lat="14.743876855345993" lon="120.97367312922691"><ele>8.0</ele><time>2026-04-19T09:30:14.001Z</time></trkpt><trkpt lat="14.743732839826457" lon="120.97375032531919"><ele>8.0</ele><time>2026-04-19T09:30:15.001Z</time></trkpt><trkpt lat="14.743587236436666" lon="120.97382907332612"><ele>8.0</ele><time>2026-04-19T09:30:16.001Z</time></trkpt><trkpt lat="14.743442971370113" lon="120.97390616848422"><ele>8.0</ele><time>2026-04-19T09:30:17.001Z</time></trkpt><trkpt lat="14.743297411296808" lon="120.97398367702712"><ele>7.666666666666666</ele><time>2026-04-19T09:30:18.001Z</time></trkpt><trkpt lat="14.743153728148865" lon="120.9740601888877"><ele>7.333333333333334</ele><time>2026-04-19T09:30:19.001Z</time></trkpt><trkpt lat="14.743013384960962" lon="120.97413603760619"><ele>7.0</ele><time>2026-04-19T09:30:20.001Z</time></trkpt><trkpt lat="14.74287658058099" lon="120.97420978006255"><ele>7.0</ele><time>2026-04-19T09:30:21.001Z</time></trkpt><trkpt lat="14.742741891506356" lon="120.97428375557982"><ele>7.0</ele><time>2026-04-19T09:30:22.001Z</time></trkpt><trkpt lat="14.742607501206994" lon="120.97435822919934"><ele>7.0</ele><time>2026-04-19T09:30:23.001Z</time></trkpt><trkpt lat="14.742476430277618" lon="120.974430948586"><ele>7.0</ele><time>2026-04-19T09:30:24.001Z</time></trkpt><trkpt lat="14.742347582173428" lon="120.97450113064654"><ele>7.0</ele><time>2026-04-19T09:30:25.001Z</time></trkpt><trkpt lat="14.742221066583554" lon="120.9745693244416"><ele>7.0</ele><time>2026-04-19T09:30:26.001Z</time></trkpt><trkpt lat="14.742095877639425" lon="120.97463747031615"><ele>7.0</ele><time>2026-04-19T09:30:27.001Z</time></trkpt><trkpt lat="14.741972591596426" lon="120.97470423846293"><ele>6.75</ele><time>2026-04-19T09:30:28.001Z</time></trkpt><trkpt lat="14.741848889825876" lon="120.97477297093953"><ele>6.5</ele><time>2026-04-19T09:30:29.001Z</time></trkpt><trkpt lat="14.74172753066457" lon="120.9748372336855"><ele>6.25</ele><time>2026-04-19T09:30:30.001Z</time></trkpt><trkpt lat="14.741606580372432" lon="120.97490045698726"><ele>6.0</ele><time>2026-04-19T09:30:31.001Z</time></trkpt><trkpt lat="14.741484417721201" lon="120.97496571300348"><ele>6.0</ele><time>2026-04-19T09:30:32.001Z</time></trkpt><trkpt lat="14.74136022621396" lon="120.97503133945847"><ele>6.0</ele><time>2026-04-19T09:30:33.001Z</time></trkpt><trkpt lat="14.741232455549397" lon="120.97509895832475"><ele>6.0</ele><time>2026-04-19T09:30:34.001Z</time></trkpt><trkpt lat="14.741102942266387" lon="120.97517103058067"><ele>6.0</ele><time>2026-04-19T09:30:35.001Z</time></trkpt><trkpt lat="14.740971413432948" lon="120.97524249131313"><ele>6.333333333333334</ele><time>2026-04-19T09:30:36.001Z</time></trkpt><trkpt lat="14.740837586570544" lon="120.97531574688554"><ele>6.666666666666667</ele><time>2026-04-19T09:30:37.001Z</time></trkpt><trkpt lat="14.740703985176074" lon="120.97538961819761"><ele>7.0</ele><time>2026-04-19T09:30:38.001Z</time></trkpt><trkpt lat="14.740571565550727" lon="120.97546116508214"><ele>7.0</ele><time>2026-04-19T09:30:39.001Z</time></trkpt><trkpt lat="14.740439879013143" lon="120.97553298246909"><ele>7.0</ele><time>2026-04-19T09:30:40.001Z</time></trkpt><trkpt lat="14.740316591376926" lon="120.97559939982939"><ele>7.0</ele><time>2026-04-19T09:30:41.001Z</time></trkpt><trkpt lat="14.740202161087188" lon="120.97566025800013"><ele>7.0</ele><time>2026-04-19T09:30:42.001Z</time></trkpt><trkpt lat="14.740090434589165" lon="120.97571859819078"><ele>7.0</ele><time>2026-04-19T09:30:43.001Z</time></trkpt><trkpt lat="14.739981686078533" lon="120.97577523092086"><ele>7.0</ele><time>2026-04-19T09:30:44.001Z</time></trkpt><trkpt lat="14.739873349082997" lon="120.97583342219804"><ele>7.0</ele><time>2026-04-19T09:30:45.001Z</time></trkpt><trkpt lat="14.739765248904241" lon="120.97589286619208"><ele>7.0</ele><time>2026-04-19T09:30:46.001Z</time></trkpt><trkpt lat="14.739653171892014" lon="120.97595240253004"><ele>6.5</ele><time>2026-04-19T09:30:47.001Z</time></trkpt><trkpt lat="14.739538282593006" lon="120.97601318283978"><ele>6.0</ele><time>2026-04-19T09:30:48.001Z</time></trkpt><trkpt lat="14.739419865422448" lon="120.97607599616016"><ele>5.5</ele><time>2026-04-19T09:30:49.001Z</time></trkpt><trkpt lat="14.739298314103785" lon="120.97614092924464"><ele>5.0</ele><time>2026-04-19T09:30:50.001Z</time></trkpt><trkpt lat="14.739172500556801" lon="120.97620946859375"><ele>5.0</ele><time>2026-04-19T09:30:51.001Z</time></trkpt><trkpt lat="14.739042961228936" lon="120.97627905100299"><ele>5.0</ele><time>2026-04-19T09:30:52.001Z</time></trkpt><trkpt lat="14.738909189134752" lon="120.97634980568681"><ele>5.0</ele><time>2026-04-19T09:30:53.001Z</time></trkpt><trkpt lat="14.738773008339095" lon="120.97642263223382"><ele>5.0</ele><time>2026-04-19T09:30:54.001Z</time></trkpt><trkpt lat="14.7386326494499" lon="120.97649928655775"><ele>5.0</ele><time>2026-04-19T09:30:55.001Z</time></trkpt><trkpt lat="14.738488375650384" lon="120.97657892608288"><ele>5.0</ele><time>2026-04-19T09:30:56.001Z</time></trkpt><trkpt lat="14.738341264296363" lon="120.97665919261314"><ele>5.333333333333334</ele><time>2026-04-19T09:30:57.001Z</time></trkpt><trkpt lat="14.738191797156054" lon="120.97673900385092"><ele>5.666666666666667</ele><time>2026-04-19T09:30:58.001Z</time></trkpt><trkpt lat="14.73804087759796" lon="120.97682260328516"><ele>6.0</ele><time>2026-04-19T09:30:59.001Z</time></trkpt><trkpt lat="14.737887754332135" lon="120.97690628432142"><ele>6.0</ele><time>2026-04-19T09:31:00.001Z</time></trkpt><trkpt lat="14.737731193568694" lon="120.97699137165607"><ele>6.0</ele><time>2026-04-19T09:31:01.001Z</time></trkpt><trkpt lat="14.737571017520565" lon="120.97707704765763"><ele>6.0</ele><time>2026-04-19T09:31:02.001Z</time></trkpt><trkpt lat="14.737406600766176" lon="120.97716540565669"><ele>6.666666666666666</ele><time>2026-04-19T09:31:03.001Z</time></trkpt><trkpt lat="14.737240093979677" lon="120.977255623036"><ele>7.333333333333333</ele><time>2026-04-19T09:31:04.001Z</time></trkpt><trkpt lat="14.73706874668978" lon="120.97734689982283"><ele>8.0</ele><time>2026-04-19T09:31:05.001Z</time></trkpt><trkpt lat="14.736897309619113" lon="120.97744136716857"><ele>9.333333333333332</ele><time>2026-04-19T09:31:06.001Z</time></trkpt><trkpt lat="14.736722894134038" lon="120.97753549051639"><ele>10.666666666666666</ele><time>2026-04-19T09:31:07.001Z</time></trkpt><trkpt lat="14.736547102965023" lon="120.97763065678882"><ele>12.0</ele><time>2026-04-19T09:31:08.001Z</time></trkpt><trkpt lat="14.736369678919194" lon="120.97772585370758"><ele>12.0</ele><time>2026-04-19T09:31:09.001Z</time></trkpt><trkpt lat="14.736190079987432" lon="120.97782133880321"><ele>12.0</ele><time>2026-04-19T09:31:10.001Z</time></trkpt><trkpt lat="14.73601100086925" lon="120.97791921366147"><ele>12.0</ele><time>2026-04-19T09:31:11.001Z</time></trkpt><trkpt lat="14.73583153124035" lon="120.97801805946735"><ele>12.0</ele><time>2026-04-19T09:31:12.001Z</time></trkpt><trkpt lat="14.735651050283078" lon="120.97811664889464"><ele>12.0</ele><time>2026-04-19T09:31:13.001Z</time></trkpt><trkpt lat="14.735471770439307" lon="120.97821856882427"><ele>12.0</ele><time>2026-04-19T09:31:14.001Z</time></trkpt><trkpt lat="14.735291422460113" lon="120.9783180507835"><ele>12.333333333333332</ele><time>2026-04-19T09:31:15.001Z</time></trkpt><trkpt lat="14.735108899864139" lon="120.97841565875241"><ele>12.666666666666666</ele><time>2026-04-19T09:31:16.001Z</time></trkpt><trkpt lat="14.734926054046207" lon="120.9785105939829"><ele>13.0</ele><time>2026-04-19T09:31:17.001Z</time></trkpt><trkpt lat="14.73474452394801" lon="120.9786097714561"><ele>13.0</ele><time>2026-04-19T09:31:18.001Z</time></trkpt><trkpt lat="14.734562155653212" lon="120.9787071509212"><ele>13.0</ele><time>2026-04-19T09:31:19.001Z</time></trkpt><trkpt lat="14.734380732882258" lon="120.97880330720848"><ele>13.0</ele><time>2026-04-19T09:31:20.001Z</time></trkpt><trkpt lat="14.734201057997744" lon="120.97889928073897"><ele>13.333333333333332</ele><time>2026-04-19T09:31:21.001Z</time></trkpt><trkpt lat="14.734021163920517" lon="120.97899413589126"><ele>13.666666666666668</ele><time>2026-04-19T09:31:22.001Z</time></trkpt><trkpt lat="14.73384207561483" lon="120.97909221704714"><ele>14.0</ele><time>2026-04-19T09:31:23.001Z</time></trkpt><trkpt lat="14.73366276840087" lon="120.97918901473142"><ele>14.333333333333334</ele><time>2026-04-19T09:31:24.001Z</time></trkpt><trkpt lat="14.733482455322884" lon="120.97928583089254"><ele>14.666666666666668</ele><time>2026-04-19T09:31:25.001Z</time></trkpt><trkpt lat="14.733302492404707" lon="120.97938608892555"><ele>15.0</ele><time>2026-04-19T09:31:26.001Z</time></trkpt><trkpt lat="14.733118321133892" lon="120.97948564560365"><ele>15.0</ele><time>2026-04-19T09:31:27.001Z</time></trkpt><trkpt lat="14.732934944946487" lon="120.97958450008214"><ele>15.0</ele><time>2026-04-19T09:31:28.001Z</time></trkpt><trkpt lat="14.732750407526181" lon="120.97968501253915"><ele>15.0</ele><time>2026-04-19T09:31:29.001Z</time></trkpt><trkpt lat="14.732565842055788" lon="120.97978564726196"><ele>15.333333333333332</ele><time>2026-04-19T09:31:30.001Z</time></trkpt><trkpt lat="14.732381874434882" lon="120.97988600402194"><ele>15.666666666666666</ele><time>2026-04-19T09:31:31.001Z</time></trkpt><trkpt lat="14.732196429215495" lon="120.97998699120048"><ele>16.0</ele><time>2026-04-19T09:31:32.001Z</time></trkpt><trkpt lat="14.732012209034101" lon="120.98008779078448"><ele>14.666666666666666</ele><time>2026-04-19T09:31:33.001Z</time></trkpt><trkpt lat="14.731829331470779" lon="120.98018798466427"><ele>13.333333333333332</ele><time>2026-04-19T09:31:34.001Z</time></trkpt><trkpt lat="14.731647166139402" lon="120.98028509980229"><ele>12.0</ele><time>2026-04-19T09:31:35.001Z</time></trkpt><trkpt lat="14.731469803140122" lon="120.98037732464293"><ele>12.0</ele><time>2026-04-19T09:31:36.001Z</time></trkpt><trkpt lat="14.731299405299444" lon="120.98046659251176"><ele>12.0</ele><time>2026-04-19T09:31:37.001Z</time></trkpt><trkpt lat="14.731134146740585" lon="120.9805553460018"><ele>12.0</ele><time>2026-04-19T09:31:38.001Z</time></trkpt><trkpt lat="14.730972233969409" lon="120.98064312890592"><ele>11.666666666666666</ele><time>2026-04-19T09:31:39.001Z</time></trkpt><trkpt lat="14.730812553107581" lon="120.98073011660829"><ele>11.333333333333332</ele><time>2026-04-19T09:31:40.001Z</time></trkpt><trkpt lat="14.730653699600477" lon="120.98081430722988"><ele>11.0</ele><time>2026-04-19T09:31:41.001Z</time></trkpt><trkpt lat="14.730494359404183" lon="120.98090002814592"><ele>11.666666666666666</ele><time>2026-04-19T09:31:42.001Z</time></trkpt><trkpt lat="14.730334105924204" lon="120.98098840294712"><ele>12.333333333333332</ele><time>2026-04-19T09:31:43.001Z</time></trkpt><trkpt lat="14.73016895289619" lon="120.98107412629706"><ele>13.0</ele><time>2026-04-19T09:31:44.001Z</time></trkpt><trkpt lat="14.7300060030848" lon="120.98115922745384"><ele>13.0</ele><time>2026-04-19T09:31:45.001Z</time></trkpt><trkpt lat="14.729844045563974" lon="120.98124796724065"><ele>13.0</ele><time>2026-04-19T09:31:46.001Z</time></trkpt><trkpt lat="14.72968398281942" lon="120.98133360327249"><ele>13.0</ele><time>2026-04-19T09:31:47.001Z</time></trkpt><trkpt lat="14.729524027954897" lon="120.98141496472847"><ele>12.333333333333332</ele><time>2026-04-19T09:31:48.001Z</time></trkpt><trkpt lat="14.729362367062112" lon="120.98149945036245"><ele>11.666666666666666</ele><time>2026-04-19T09:31:49.001Z</time></trkpt><trkpt lat="14.729199600276356" lon="120.9815838609054"><ele>11.0</ele><time>2026-04-19T09:31:50.001Z</time></trkpt><trkpt lat="14.729036301176421" lon="120.98166753943862"><ele>11.666666666666666</ele><time>2026-04-19T09:31:51.001Z</time></trkpt><trkpt lat="14.72887232761304" lon="120.98175399038098"><ele>12.333333333333332</ele><time>2026-04-19T09:31:52.001Z</time></trkpt><trkpt lat="14.728708499628471" lon="120.98184050716512"><ele>13.0</ele><time>2026-04-19T09:31:53.001Z</time></trkpt><trkpt lat="14.728543131241157" lon="120.98192892234515"><ele>13.333333333333332</ele><time>2026-04-19T09:31:54.001Z</time></trkpt><trkpt lat="14.728376847292674" lon="120.98201730599943"><ele>13.666666666666668</ele><time>2026-04-19T09:31:55.001Z</time></trkpt><trkpt lat="14.728210362629856" lon="120.98210542965496"><ele>14.0</ele><time>2026-04-19T09:31:56.001Z</time></trkpt><trkpt lat="14.728043727637933" lon="120.98219264050822"><ele>14.0</ele><time>2026-04-19T09:31:57.001Z</time></trkpt><trkpt lat="14.727876913928029" lon="120.98228282217742"><ele>14.0</ele><time>2026-04-19T09:31:58.001Z</time></trkpt><trkpt lat="14.727708747513027" lon="120.98237422529014"><ele>14.0</ele><time>2026-04-19T09:31:59.001Z</time></trkpt><trkpt lat="14.727537307701411" lon="120.98246725145354"><ele>13.333333333333334</ele><time>2026-04-19T09:32:00.001Z</time></trkpt><trkpt lat="14.727363143899192" lon="120.98256272163711"><ele>12.666666666666668</ele><time>2026-04-19T09:32:01.001Z</time></trkpt><trkpt lat="14.727187428746422" lon="120.9826585839959"><ele>12.0</ele><time>2026-04-19T09:32:02.001Z</time></trkpt><trkpt lat="14.727008490903069" lon="120.98275386578462"><ele>12.333333333333332</ele><time>2026-04-19T09:32:03.001Z</time></trkpt><trkpt lat="14.726826886193502" lon="120.98284934875011"><ele>12.666666666666666</ele><time>2026-04-19T09:32:04.001Z</time></trkpt><trkpt lat="14.726643282213423" lon="120.98294742586688"><ele>13.0</ele><time>2026-04-19T09:32:05.001Z</time></trkpt><trkpt lat="14.726458996543768" lon="120.98304549221851"><ele>13.0</ele><time>2026-04-19T09:32:06.001Z</time></trkpt><trkpt lat="14.726274880817874" lon="120.98314662085191"><ele>13.0</ele><time>2026-04-19T09:32:07.001Z</time></trkpt><trkpt lat="14.726093298005392" lon="120.9832438322314"><ele>13.0</ele><time>2026-04-19T09:32:08.001Z</time></trkpt><trkpt lat="14.725914365014756" lon="120.9833358636405"><ele>13.0</ele><time>2026-04-19T09:32:09.001Z</time></trkpt><trkpt lat="14.725736284649832" lon="120.98343019473866"><ele>13.0</ele><time>2026-04-19T09:32:10.001Z</time></trkpt><trkpt lat="14.725564440606957" lon="120.98352378207605"><ele>13.0</ele><time>2026-04-19T09:32:11.001Z</time></trkpt><trkpt lat="14.725395385140091" lon="120.98361624915883"><ele>13.333333333333332</ele><time>2026-04-19T09:32:12.001Z</time></trkpt><trkpt lat="14.725228908621126" lon="120.9837089043168"><ele>13.666666666666668</ele><time>2026-04-19T09:32:13.001Z</time></trkpt><trkpt lat="14.725063493765223" lon="120.98379945649991"><ele>14.0</ele><time>2026-04-19T09:32:14.001Z</time></trkpt><trkpt lat="14.724900242391998" lon="120.98388708415546"><ele>14.0</ele><time>2026-04-19T09:32:15.001Z</time></trkpt><trkpt lat="14.724740688725714" lon="120.98397221225375"><ele>14.0</ele><time>2026-04-19T09:32:16.001Z</time></trkpt><trkpt lat="14.724585816877463" lon="120.98405455491904"><ele>14.0</ele><time>2026-04-19T09:32:17.001Z</time></trkpt><trkpt lat="14.724434991332654" lon="120.98413613784115"><ele>14.333333333333334</ele><time>2026-04-19T09:32:18.001Z</time></trkpt><trkpt lat="14.72428840284758" lon="120.98421279194325"><ele>14.666666666666668</ele><time>2026-04-19T09:32:19.001Z</time></trkpt><trkpt lat="14.724143137322727" lon="120.98429159476252"><ele>15.0</ele><time>2026-04-19T09:32:20.001Z</time></trkpt><trkpt lat="14.723998649661084" lon="120.98436965830304"><ele>15.0</ele><time>2026-04-19T09:32:21.001Z</time></trkpt><trkpt lat="14.72385911229451" lon="120.98444740466365"><ele>15.0</ele><time>2026-04-19T09:32:22.001Z</time></trkpt><trkpt lat="14.72372060866348" lon="120.984523615215"><ele>15.0</ele><time>2026-04-19T09:32:23.001Z</time></trkpt><trkpt lat="14.723580234051472" lon="120.98459997855397"><ele>15.666666666666668</ele><time>2026-04-19T09:32:24.001Z</time></trkpt><trkpt lat="14.723440069896924" lon="120.98467610556973"><ele>16.333333333333336</ele><time>2026-04-19T09:32:25.001Z</time></trkpt><trkpt lat="14.72330000975019" lon="120.98475125000762"><ele>17.0</ele><time>2026-04-19T09:32:26.001Z</time></trkpt><trkpt lat="14.723159693009745" lon="120.98482686955418"><ele>17.0</ele><time>2026-04-19T09:32:27.001Z</time></trkpt><trkpt lat="14.723017977825048" lon="120.98490199391634"><ele>17.0</ele><time>2026-04-19T09:32:28.001Z</time></trkpt><trkpt lat="14.722874187321656" lon="120.98497976991275"><ele>17.0</ele><time>2026-04-19T09:32:29.001Z</time></trkpt><trkpt lat="14.72272908016121" lon="120.98505621054241"><ele>17.666666666666668</ele><time>2026-04-19T09:32:30.001Z</time></trkpt><trkpt lat="14.722585433480612" lon="120.98513391142059"><ele>18.333333333333332</ele><time>2026-04-19T09:32:31.001Z</time></trkpt><trkpt lat="14.722442178254893" lon="120.9852104272184"><ele>19.0</ele><time>2026-04-19T09:32:32.001Z</time></trkpt><trkpt lat="14.722301233169542" lon="120.98528865027671"><ele>19.0</ele><time>2026-04-19T09:32:33.001Z</time></trkpt><trkpt lat="14.722161282126589" lon="120.98536738176367"><ele>19.0</ele><time>2026-04-19T09:32:34.001Z</time></trkpt><trkpt lat="14.722019039244476" lon="120.985444437462"><ele>19.0</ele><time>2026-04-19T09:32:35.001Z</time></trkpt><trkpt lat="14.721878635187712" lon="120.9855191723754"><ele>19.0</ele><time>2026-04-19T09:32:36.001Z</time></trkpt><trkpt lat="14.721739827424013" lon="120.98559466754756"><ele>19.0</ele><time>2026-04-19T09:32:37.001Z</time></trkpt><trkpt lat="14.721599473669777" lon="120.98566851044676"><ele>19.0</ele><time>2026-04-19T09:32:38.001Z</time></trkpt><trkpt lat="14.721463607786399" lon="120.98574211744156"><ele>19.0</ele><time>2026-04-19T09:32:39.001Z</time></trkpt><trkpt lat="14.72132369222197" lon="120.98581782699783"><ele>19.0</ele><time>2026-04-19T09:32:40.001Z</time></trkpt><trkpt lat="14.721182135548174" lon="120.9858916380224"><ele>19.0</ele><time>2026-04-19T09:32:41.001Z</time></trkpt><trkpt lat="14.721034913591103" lon="120.9859655871593"><ele>17.666666666666664</ele><time>2026-04-19T09:32:42.001Z</time></trkpt><trkpt lat="14.720884958951842" lon="120.98604110124396"><ele>16.333333333333332</ele><time>2026-04-19T09:32:43.001Z</time></trkpt><trkpt lat="14.720733023908835" lon="120.98611883602439"><ele>15.0</ele><time>2026-04-19T09:32:44.001Z</time></trkpt><trkpt lat="14.720578569395194" lon="120.98619780238714"><ele>15.0</ele><time>2026-04-19T09:32:45.001Z</time></trkpt><trkpt lat="14.720421356475454" lon="120.98628248299704"><ele>15.0</ele><time>2026-04-19T09:32:46.001Z</time></trkpt><trkpt lat="14.720260583688638" lon="120.98636864725954"><ele>15.0</ele><time>2026-04-19T09:32:47.001Z</time></trkpt><trkpt lat="14.720097713008393" lon="120.98645472486277"><ele>14.666666666666668</ele><time>2026-04-19T09:32:48.001Z</time></trkpt><trkpt lat="14.71993321374254" lon="120.98654018441606"><ele>14.333333333333334</ele><time>2026-04-19T09:32:49.001Z</time></trkpt><trkpt lat="14.719767195661335" lon="120.9866286933354"><ele>14.0</ele><time>2026-04-19T09:32:50.001Z</time></trkpt><trkpt lat="14.719600084216705" lon="120.98671910368572"><ele>15.666666666666668</ele><time>2026-04-19T09:32:51.001Z</time></trkpt><trkpt lat="14.71943248025781" lon="120.98681011578574"><ele>17.333333333333332</ele><time>2026-04-19T09:32:52.001Z</time></trkpt><trkpt lat="14.719264495641005" lon="120.98690095788284"><ele>19.0</ele><time>2026-04-19T09:32:53.001Z</time></trkpt><trkpt lat="14.71909846567882" lon="120.98698964308288"><ele>19.333333333333332</ele><time>2026-04-19T09:32:54.001Z</time></trkpt><trkpt lat="14.718936550006717" lon="120.9870759485906"><ele>19.666666666666668</ele><time>2026-04-19T09:32:55.001Z</time></trkpt><trkpt lat="14.718775710138734" lon="120.98716075695329"><ele>20.0</ele><time>2026-04-19T09:32:56.001Z</time></trkpt><trkpt lat="14.718617278056717" lon="120.98724391806776"><ele>20.666666666666668</ele><time>2026-04-19T09:32:57.001Z</time></trkpt><trkpt lat="14.718460747388464" lon="120.98732626069629"><ele>21.333333333333332</ele><time>2026-04-19T09:32:58.001Z</time></trkpt><trkpt lat="14.718304563510308" lon="120.98740859646551"><ele>22.0</ele><time>2026-04-19T09:32:59.001Z</time></trkpt><trkpt lat="14.718149884649057" lon="120.98749443118169"><ele>23.333333333333332</ele><time>2026-04-19T09:33:00.001Z</time></trkpt><trkpt lat="14.717998133490635" lon="120.98757786365758"><ele>24.666666666666664</ele><time>2026-04-19T09:33:01.001Z</time></trkpt><trkpt lat="14.717849097502995" lon="120.98765902970273"><ele>26.0</ele><time>2026-04-19T09:33:02.001Z</time></trkpt><trkpt lat="14.717701735334972" lon="120.98774174581219"><ele>27.0</ele><time>2026-04-19T09:33:03.001Z</time></trkpt><trkpt lat="14.717554739552845" lon="120.98781977281021"><ele>28.0</ele><time>2026-04-19T09:33:04.001Z</time></trkpt><trkpt lat="14.717407939082717" lon="120.98789786158493"><ele>29.0</ele><time>2026-04-19T09:33:05.001Z</time></trkpt><trkpt lat="14.717260132947025" lon="120.98797838365321"><ele>29.0</ele><time>2026-04-19T09:33:06.001Z</time></trkpt><trkpt lat="14.717111244664546" lon="120.98806027324379"><ele>29.0</ele><time>2026-04-19T09:33:07.001Z</time></trkpt><trkpt lat="14.716961002638344" lon="120.98813988434264"><ele>29.0</ele><time>2026-04-19T09:33:08.001Z</time></trkpt><trkpt lat="14.716810008252498" lon="120.9882210728755"><ele>29.0</ele><time>2026-04-19T09:33:09.001Z</time></trkpt><trkpt lat="14.716660332923757" lon="120.98830252382879"><ele>29.0</ele><time>2026-04-19T09:33:10.001Z</time></trkpt><trkpt lat="14.716508148533679" lon="120.98838583916628"><ele>29.0</ele><time>2026-04-19T09:33:11.001Z</time></trkpt><trkpt lat="14.716354934888495" lon="120.98846852312471"><ele>29.666666666666664</ele><time>2026-04-19T09:33:12.001Z</time></trkpt><trkpt lat="14.716202179552214" lon="120.988551972717"><ele>30.333333333333336</ele><time>2026-04-19T09:33:13.001Z</time></trkpt><trkpt lat="14.716045686567902" lon="120.98863614854318"><ele>31.0</ele><time>2026-04-19T09:33:14.001Z</time></trkpt><trkpt lat="14.715887184791304" lon="120.98872319746725"><ele>29.666666666666668</ele><time>2026-04-19T09:33:15.001Z</time></trkpt><trkpt lat="14.715729197498755" lon="120.98880969107489"><ele>28.333333333333336</ele><time>2026-04-19T09:33:16.001Z</time></trkpt><trkpt lat="14.715574933630144" lon="120.98889724447068"><ele>27.0</ele><time>2026-04-19T09:33:17.001Z</time></trkpt><trkpt lat="14.715419984851922" lon="120.98898169004087"><ele>27.0</ele><time>2026-04-19T09:33:18.001Z</time></trkpt><trkpt lat="14.715264520530141" lon="120.98906588686492"><ele>27.0</ele><time>2026-04-19T09:33:19.001Z</time></trkpt><trkpt lat="14.715107619165257" lon="120.98915378761735"><ele>27.0</ele><time>2026-04-19T09:33:20.001Z</time></trkpt><trkpt lat="14.714948052985562" lon="120.98924549056498"><ele>25.666666666666668</ele><time>2026-04-19T09:33:21.001Z</time></trkpt><trkpt lat="14.71478375723658" lon="120.98933899684882"><ele>24.333333333333336</ele><time>2026-04-19T09:33:22.001Z</time></trkpt><trkpt lat="14.714614916006386" lon="120.98943539501182"><ele>23.0</ele><time>2026-04-19T09:33:23.001Z</time></trkpt><trkpt lat="14.714445691836586" lon="120.98953041362182"><ele>23.0</ele><time>2026-04-19T09:33:24.001Z</time></trkpt><trkpt lat="14.714276345741409" lon="120.98962606802398"><ele>23.0</ele><time>2026-04-19T09:33:25.001Z</time></trkpt><trkpt lat="14.714106822604657" lon="120.9897188090302"><ele>23.0</ele><time>2026-04-19T09:33:26.001Z</time></trkpt><trkpt lat="14.713936106639249" lon="120.98981081911981"><ele>23.0</ele><time>2026-04-19T09:33:27.001Z</time></trkpt><trkpt lat="14.713764460430571" lon="120.98990428870938"><ele>23.0</ele><time>2026-04-19T09:33:28.001Z</time></trkpt><trkpt lat="14.713595927570577" lon="120.98999725403581"><ele>23.0</ele><time>2026-04-19T09:33:29.001Z</time></trkpt><trkpt lat="14.713431866628284" lon="120.99008752632304"><ele>23.333333333333336</ele><time>2026-04-19T09:33:30.001Z</time></trkpt><trkpt lat="14.71326922585261" lon="120.99017524892109"><ele>23.666666666666668</ele><time>2026-04-19T09:33:31.001Z</time></trkpt><trkpt lat="14.713109605860204" lon="120.99026166030215"><ele>24.0</ele><time>2026-04-19T09:33:32.001Z</time></trkpt><trkpt lat="14.712950170619001" lon="120.9903483686799"><ele>24.0</ele><time>2026-04-19T09:33:33.001Z</time></trkpt><trkpt lat="14.71279027546741" lon="120.9904334042748"><ele>24.0</ele><time>2026-04-19T09:33:34.001Z</time></trkpt><trkpt lat="14.712627989602174" lon="120.99051911473161"><ele>24.0</ele><time>2026-04-19T09:33:35.001Z</time></trkpt><trkpt lat="14.712466593835096" lon="120.99060331518226"><ele>24.333333333333336</ele><time>2026-04-19T09:33:36.001Z</time></trkpt><trkpt lat="14.71230319605089" lon="120.99068922957463"><ele>24.666666666666668</ele><time>2026-04-19T09:33:37.001Z</time></trkpt><trkpt lat="14.712138336400612" lon="120.99077227917695"><ele>25.0</ele><time>2026-04-19T09:33:38.001Z</time></trkpt><trkpt lat="14.711967085082403" lon="120.99085772740686"><ele>24.0</ele><time>2026-04-19T09:33:39.001Z</time></trkpt><trkpt lat="14.711792915651364" lon="120.99094474331584"><ele>23.0</ele><time>2026-04-19T09:33:40.001Z</time></trkpt><trkpt lat="14.711614935775428" lon="120.9910364857259"><ele>22.0</ele><time>2026-04-19T09:33:41.001Z</time></trkpt><trkpt lat="14.711436429662124" lon="120.99113033059314"><ele>22.0</ele><time>2026-04-19T09:33:42.001Z</time></trkpt><trkpt lat="14.711255664600772" lon="120.9912266673513"><ele>22.0</ele><time>2026-04-19T09:33:43.001Z</time></trkpt><trkpt lat="14.711070995454929" lon="120.99132430855983"><ele>22.0</ele><time>2026-04-19T09:33:44.001Z</time></trkpt><trkpt lat="14.710884461889172" lon="120.99142438420911"><ele>22.0</ele><time>2026-04-19T09:33:45.001Z</time></trkpt><trkpt lat="14.710701582853186" lon="120.9915246556968"><ele>22.0</ele><time>2026-04-19T09:33:46.001Z</time></trkpt><trkpt lat="14.710519354898478" lon="120.99162212746326"><ele>22.0</ele><time>2026-04-19T09:33:47.001Z</time></trkpt><trkpt lat="14.71033834730918" lon="120.99171869519198"><ele>20.333333333333332</ele><time>2026-04-19T09:33:48.001Z</time></trkpt><trkpt lat="14.710158143685835" lon="120.99181538126228"><ele>18.666666666666668</ele><time>2026-04-19T09:33:49.001Z</time></trkpt><trkpt lat="14.709981401270275" lon="120.99190924935452"><ele>17.0</ele><time>2026-04-19T09:33:50.001Z</time></trkpt><trkpt lat="14.709805405519754" lon="120.99200165418662"><ele>17.0</ele><time>2026-04-19T09:33:51.001Z</time></trkpt><trkpt lat="14.709626780491378" lon="120.99209639307509"><ele>17.0</ele><time>2026-04-19T09:33:52.001Z</time></trkpt><trkpt lat="14.709446660804513" lon="120.99219003509171"><ele>17.0</ele><time>2026-04-19T09:33:53.001Z</time></trkpt><trkpt lat="14.709264016138848" lon="120.99228607529646"><ele>17.0</ele><time>2026-04-19T09:33:54.001Z</time></trkpt><trkpt lat="14.709079561926986" lon="120.99238181976477"><ele>17.0</ele><time>2026-04-19T09:33:55.001Z</time></trkpt><trkpt lat="14.708894612167" lon="120.9924813060079"><ele>17.0</ele><time>2026-04-19T09:33:56.001Z</time></trkpt><trkpt lat="14.70871243124565" lon="120.99257627826657"><ele>18.333333333333336</ele><time>2026-04-19T09:33:57.001Z</time></trkpt><trkpt lat="14.708528073610765" lon="120.99267194843813"><ele>19.666666666666668</ele><time>2026-04-19T09:33:58.001Z</time></trkpt><trkpt lat="14.708340865071971" lon="120.9927683207173"><ele>21.0</ele><time>2026-04-19T09:33:59.001Z</time></trkpt><trkpt lat="14.708149564622488" lon="120.99286517682008"><ele>21.0</ele><time>2026-04-19T09:34:00.001Z</time></trkpt><trkpt lat="14.707960701668842" lon="120.99296241723098"><ele>21.0</ele><time>2026-04-19T09:34:01.001Z</time></trkpt><trkpt lat="14.707777337223897" lon="120.99306173592124"><ele>21.0</ele><time>2026-04-19T09:34:02.001Z</time></trkpt><trkpt lat="14.70759765240668" lon="120.99316883552082"><ele>19.333333333333332</ele><time>2026-04-19T09:34:03.001Z</time></trkpt><trkpt lat="14.707418508914778" lon="120.99327003822802"><ele>17.666666666666664</ele><time>2026-04-19T09:34:04.001Z</time></trkpt><trkpt lat="14.707239158469346" lon="120.9933722428035"><ele>16.0</ele><time>2026-04-19T09:34:05.001Z</time></trkpt><trkpt lat="14.70706222449288" lon="120.9934754198072"><ele>15.666666666666666</ele><time>2026-04-19T09:34:06.001Z</time></trkpt><trkpt lat="14.706882191980325" lon="120.9935745279376"><ele>15.333333333333332</ele><time>2026-04-19T09:34:07.001Z</time></trkpt><trkpt lat="14.706704834364647" lon="120.99367256576147"><ele>15.0</ele><time>2026-04-19T09:34:08.001Z</time></trkpt><trkpt lat="14.706528147822254" lon="120.99376862262294"><ele>15.0</ele><time>2026-04-19T09:34:09.001Z</time></trkpt><trkpt lat="14.7063542414287" lon="120.99386383994756"><ele>15.0</ele><time>2026-04-19T09:34:10.001Z</time></trkpt><trkpt lat="14.706180550780033" lon="120.99395624345414"><ele>15.0</ele><time>2026-04-19T09:34:11.001Z</time></trkpt><trkpt lat="14.706012440475059" lon="120.99404621039133"><ele>15.0</ele><time>2026-04-19T09:34:12.001Z</time></trkpt><trkpt lat="14.705848684583327" lon="120.99413335519958"><ele>15.0</ele><time>2026-04-19T09:34:13.001Z</time></trkpt><trkpt lat="14.70568644222578" lon="120.99422185141253"><ele>15.0</ele><time>2026-04-19T09:34:14.001Z</time></trkpt><trkpt lat="14.705528346711006" lon="120.99430697586581"><ele>15.0</ele><time>2026-04-19T09:34:15.001Z</time></trkpt><trkpt lat="14.705379355039907" lon="120.99438800209734"><ele>15.0</ele><time>2026-04-19T09:34:16.001Z</time></trkpt><trkpt lat="14.705241777962762" lon="120.99446286355949"><ele>15.0</ele><time>2026-04-19T09:34:17.001Z</time></trkpt><trkpt lat="14.705112788066772" lon="120.99453443560607"><ele>15.75</ele><time>2026-04-19T09:34:18.001Z</time></trkpt><trkpt lat="14.704989331860869" lon="120.99460481202398"><ele>16.5</ele><time>2026-04-19T09:34:19.001Z</time></trkpt><trkpt lat="14.704863895230618" lon="120.99467893113855"><ele>17.25</ele><time>2026-04-19T09:34:20.001Z</time></trkpt><trkpt lat="14.704733959259078" lon="120.99475372466976"><ele>18.0</ele><time>2026-04-19T09:34:21.001Z</time></trkpt><trkpt lat="14.704600270447953" lon="120.99482957082539"><ele>18.0</ele><time>2026-04-19T09:34:22.001Z</time></trkpt><trkpt lat="14.70446277701913" lon="120.99490521932532"><ele>18.0</ele><time>2026-04-19T09:34:23.001Z</time></trkpt><trkpt lat="14.70432261227601" lon="120.99498079918108"><ele>18.0</ele><time>2026-04-19T09:34:24.001Z</time></trkpt><trkpt lat="14.704184263891932" lon="120.99505938298266"><ele>18.333333333333332</ele><time>2026-04-19T09:34:25.001Z</time></trkpt><trkpt lat="14.70404864632004" lon="120.99513350708067"><ele>18.666666666666664</ele><time>2026-04-19T09:34:26.001Z</time></trkpt><trkpt lat="14.70391251102219" lon="120.99520805595215"><ele>19.0</ele><time>2026-04-19T09:34:27.001Z</time></trkpt><trkpt lat="14.703777096812157" lon="120.99528132107964"><ele>19.0</ele><time>2026-04-19T09:34:28.001Z</time></trkpt><trkpt lat="14.703641339679296" lon="120.99535569476753"><ele>19.0</ele><time>2026-04-19T09:34:29.001Z</time></trkpt><trkpt lat="14.703505521669104" lon="120.99543042989126"><ele>19.0</ele><time>2026-04-19T09:34:30.001Z</time></trkpt><trkpt lat="14.703370150525561" lon="120.99550343115418"><ele>19.0</ele><time>2026-04-19T09:34:31.001Z</time></trkpt><trkpt lat="14.703234815869008" lon="120.99557797679638"><ele>19.0</ele><time>2026-04-19T09:34:32.001Z</time></trkpt><trkpt lat="14.703097621561552" lon="120.99565135572352"><ele>19.0</ele><time>2026-04-19T09:34:33.001Z</time></trkpt><trkpt lat="14.702956028692386" lon="120.99572668534887"><ele>19.0</ele><time>2026-04-19T09:34:34.001Z</time></trkpt><trkpt lat="14.702812199786441" lon="120.99580092851716"><ele>19.0</ele><time>2026-04-19T09:34:35.001Z</time></trkpt><trkpt lat="14.702667942820597" lon="120.99588040871217"><ele>19.0</ele><time>2026-04-19T09:34:36.001Z</time></trkpt><trkpt lat="14.70252056132215" lon="120.99596496560312"><ele>19.333333333333332</ele><time>2026-04-19T09:34:37.001Z</time></trkpt><trkpt lat="14.702368543991655" lon="120.99605552148594"><ele>19.666666666666668</ele><time>2026-04-19T09:34:38.001Z</time></trkpt><trkpt lat="14.7022100511567" lon="120.99614869386792"><ele>20.0</ele><time>2026-04-19T09:34:39.001Z</time></trkpt><trkpt lat="14.702042818952862" lon="120.99624392602298"><ele>19.0</ele><time>2026-04-19T09:34:40.001Z</time></trkpt><trkpt lat="14.701869504221644" lon="120.99633567565084"><ele>18.0</ele><time>2026-04-19T09:34:41.001Z</time></trkpt><trkpt lat="14.701689445050148" lon="120.99642689358255"><ele>17.0</ele><time>2026-04-19T09:34:42Z</time></trkpt><trkpt lat="14.701505107171798" lon="120.99652031221923"><ele>17.0</ele><time>2026-04-19T09:34:43Z</time></trkpt><trkpt lat="14.70132464987332" lon="120.99661369248955"><ele>17.0</ele><time>2026-04-19T09:34:44Z</time></trkpt><trkpt lat="14.701147936877797" lon="120.99670783325519"><ele>17.0</ele><time>2026-04-19T09:34:45Z</time></trkpt><trkpt lat="14.700980387269455" lon="120.99679905512288"><ele>18.666666666666668</ele><time>2026-04-19T09:34:46Z</time></trkpt><trkpt lat="14.700822427847687" lon="120.99688667174117"><ele>20.333333333333332</ele><time>2026-04-19T09:34:47Z</time></trkpt><trkpt lat="14.700667498240922" lon="120.9969706781346"><ele>22.0</ele><time>2026-04-19T09:34:48Z</time></trkpt><trkpt lat="14.700514322367102" lon="120.99705163007762"><ele>22.0</ele><time>2026-04-19T09:34:49Z</time></trkpt><trkpt lat="14.700363257239566" lon="120.9971327539793"><ele>22.0</ele><time>2026-04-19T09:34:50Z</time></trkpt><trkpt lat="14.700214706583582" lon="120.99721310676122"><ele>22.0</ele><time>2026-04-19T09:34:51Z</time></trkpt><trkpt lat="14.700069814323717" lon="120.99729157499826"><ele>22.0</ele><time>2026-04-19T09:34:52Z</time></trkpt><trkpt lat="14.699926401526662" lon="120.99737041305629"><ele>22.0</ele><time>2026-04-19T09:34:53Z</time></trkpt><trkpt lat="14.69978557462599" lon="120.99744671680355"><ele>22.0</ele><time>2026-04-19T09:34:54Z</time></trkpt><trkpt lat="14.699646143336023" lon="120.9975206955402"><ele>22.333333333333332</ele><time>2026-04-19T09:34:55Z</time></trkpt><trkpt lat="14.699507509301718" lon="120.99759373087659"><ele>22.666666666666668</ele><time>2026-04-19T09:34:56Z</time></trkpt><trkpt lat="14.699368949187141" lon="120.99766826644937"><ele>23.0</ele><time>2026-04-19T09:34:57Z</time></trkpt><trkpt lat="14.699232109636995" lon="120.99774213999866"><ele>22.0</ele><time>2026-04-19T09:34:58Z</time></trkpt><trkpt lat="14.699097198424285" lon="120.9978146610824"><ele>21.0</ele><time>2026-04-19T09:34:59Z</time></trkpt><trkpt lat="14.698962301901313" lon="120.99788845167006"><ele>20.0</ele><time>2026-04-19T09:35:00Z</time></trkpt><trkpt lat="14.698830037164841" lon="120.99796021294486"><ele>20.0</ele><time>2026-04-19T09:35:01Z</time></trkpt><trkpt lat="14.69869778736011" lon="120.99803275043678"><ele>20.0</ele><time>2026-04-19T09:35:02Z</time></trkpt><trkpt lat="14.698564320643207" lon="120.99810562554289"><ele>20.0</ele><time>2026-04-19T09:35:03Z</time></trkpt><trkpt lat="14.698429757504943" lon="120.99817887634144"><ele>20.333333333333336</ele><time>2026-04-19T09:35:04Z</time></trkpt><trkpt lat="14.698293259556173" lon="120.99825229468887"><ele>20.666666666666668</ele><time>2026-04-19T09:35:05Z</time></trkpt><trkpt lat="14.698155077468027" lon="120.99832633937073"><ele>21.0</ele><time>2026-04-19T09:35:06Z</time></trkpt><trkpt lat="14.69801495798644" lon="120.99840272669888"><ele>20.666666666666668</ele><time>2026-04-19T09:35:07Z</time></trkpt><trkpt lat="14.697873419391223" lon="120.99847938536477"><ele>20.333333333333336</ele><time>2026-04-19T09:35:08Z</time></trkpt><trkpt lat="14.69773249727233" lon="120.99855535634114"><ele>20.0</ele><time>2026-04-19T09:35:09Z</time></trkpt><trkpt lat="14.697590946577236" lon="120.99863122765231"><ele>20.0</ele><time>2026-04-19T09:35:10Z</time></trkpt><trkpt lat="14.697451400366756" lon="120.99870806304489"><ele>20.0</ele><time>2026-04-19T09:35:11Z</time></trkpt><trkpt lat="14.697310758757773" lon="120.99878283385439"><ele>20.0</ele><time>2026-04-19T09:35:12Z</time></trkpt><trkpt lat="14.697171710665643" lon="120.99885784910033"><ele>20.0</ele><time>2026-04-19T09:35:13Z</time></trkpt><trkpt lat="14.697033886714854" lon="120.99892990034816"><ele>20.0</ele><time>2026-04-19T09:35:14Z</time></trkpt><trkpt lat="14.696897919604192" lon="120.99900135905798"><ele>20.0</ele><time>2026-04-19T09:35:15Z</time></trkpt><trkpt lat="14.696761923851021" lon="120.99907315459885"><ele>19.666666666666668</ele><time>2026-04-19T09:35:16Z</time></trkpt><trkpt lat="14.696625983449469" lon="120.99914397979155"><ele>19.333333333333332</ele><time>2026-04-19T09:35:17Z</time></trkpt><trkpt lat="14.696488436780932" lon="120.99921237896308"><ele>19.0</ele><time>2026-04-19T09:35:18Z</time></trkpt><trkpt lat="14.696350997604991" lon="120.99927964968487"><ele>20.0</ele><time>2026-04-19T09:35:19Z</time></trkpt><trkpt lat="14.696210944003543" lon="120.99934574279405"><ele>21.0</ele><time>2026-04-19T09:35:20Z</time></trkpt><trkpt lat="14.696067557452384" lon="120.99940623810764"><ele>22.0</ele><time>2026-04-19T09:35:21Z</time></trkpt><trkpt lat="14.695922553045646" lon="120.99946867534892"><ele>22.0</ele><time>2026-04-19T09:35:22.001Z</time></trkpt><trkpt lat="14.695773047463636" lon="120.99953096173608"><ele>22.0</ele><time>2026-04-19T09:35:23.001Z</time></trkpt><trkpt lat="14.69561956922069" lon="120.99959134043175"><ele>22.0</ele><time>2026-04-19T09:35:24.001Z</time></trkpt><trkpt lat="14.695460368321392" lon="120.99965195877749"><ele>22.0</ele><time>2026-04-19T09:35:25.001Z</time></trkpt><trkpt lat="14.695298990380172" lon="120.99971309221488"><ele>22.0</ele><time>2026-04-19T09:35:26.001Z</time></trkpt><trkpt lat="14.695134888465061" lon="120.99977481858032"><ele>22.0</ele><time>2026-04-19T09:35:27.001Z</time></trkpt><trkpt lat="14.694968466445662" lon="120.99983648909709"><ele>21.0</ele><time>2026-04-19T09:35:28.001Z</time></trkpt><trkpt lat="14.694799896216853" lon="120.9998976740634"><ele>20.0</ele><time>2026-04-19T09:35:29.001Z</time></trkpt><trkpt lat="14.694629591395215" lon="120.99995773902145"><ele>19.0</ele><time>2026-04-19T09:35:30.001Z</time></trkpt><trkpt lat="14.69445755704164" lon="121.00001597884287"><ele>17.666666666666664</ele><time>2026-04-19T09:35:31.001Z</time></trkpt><trkpt lat="14.694287692748944" lon="121.00007125948872"><ele>16.333333333333332</ele><time>2026-04-19T09:35:32.001Z</time></trkpt><trkpt lat="14.694120967167427" lon="121.00012369205555"><ele>15.0</ele><time>2026-04-19T09:35:33.001Z</time></trkpt><trkpt lat="14.693957145778272" lon="121.00017193735933"><ele>15.0</ele><time>2026-04-19T09:35:34.001Z</time></trkpt><trkpt lat="14.693795232871027" lon="121.00021704987226"><ele>15.0</ele><time>2026-04-19T09:35:35.001Z</time></trkpt><trkpt lat="14.693633009862538" lon="121.00026085034881"><ele>15.0</ele><time>2026-04-19T09:35:36.001Z</time></trkpt><trkpt lat="14.693469649352508" lon="121.00030677646275"><ele>17.0</ele><time>2026-04-19T09:35:37.001Z</time></trkpt><trkpt lat="14.693306508195151" lon="121.00034867926325"><ele>19.0</ele><time>2026-04-19T09:35:38.001Z</time></trkpt><trkpt lat="14.693144804752057" lon="121.00038978544667"><ele>21.0</ele><time>2026-04-19T09:35:39.001Z</time></trkpt><trkpt lat="14.692981392388734" lon="121.00043134763483"><ele>21.0</ele><time>2026-04-19T09:35:40.001Z</time></trkpt><trkpt lat="14.692814479752286" lon="121.00047182395888"><ele>21.0</ele><time>2026-04-19T09:35:41.001Z</time></trkpt><trkpt lat="14.69265076602087" lon="121.00050193508456"><ele>21.0</ele><time>2026-04-19T09:35:42.001Z</time></trkpt><trkpt lat="14.692489095023644" lon="121.00053266217563"><ele>21.333333333333332</ele><time>2026-04-19T09:35:43.001Z</time></trkpt><trkpt lat="14.692326487900466" lon="121.00056410826035"><ele>21.666666666666664</ele><time>2026-04-19T09:35:44.001Z</time></trkpt><trkpt lat="14.692171893836806" lon="121.00058593371483"><ele>22.0</ele><time>2026-04-19T09:35:45.001Z</time></trkpt><trkpt lat="14.69200837334754" lon="121.00061165287806"><ele>22.333333333333332</ele><time>2026-04-19T09:35:46.001Z</time></trkpt><trkpt lat="14.691844223610525" lon="121.00063596751572"><ele>22.666666666666668</ele><time>2026-04-19T09:35:47.001Z</time></trkpt><trkpt lat="14.691678300301337" lon="121.00066010172296"><ele>23.0</ele><time>2026-04-19T09:35:48.001Z</time></trkpt><trkpt lat="14.691513431839759" lon="121.00068055135979"><ele>23.0</ele><time>2026-04-19T09:35:49.001Z</time></trkpt><trkpt lat="14.691347544382614" lon="121.00069963365928"><ele>23.0</ele><time>2026-04-19T09:35:50.001Z</time></trkpt><trkpt lat="14.691176089222932" lon="121.00071660021045"><ele>23.0</ele><time>2026-04-19T09:35:51.001Z</time></trkpt><trkpt lat="14.691005011169517" lon="121.0007324586141"><ele>24.0</ele><time>2026-04-19T09:35:52.001Z</time></trkpt><trkpt lat="14.690832785614992" lon="121.00074644344055"><ele>25.0</ele><time>2026-04-19T09:35:53.001Z</time></trkpt><trkpt lat="14.690658506065326" lon="121.00075816505132"><ele>26.0</ele><time>2026-04-19T09:35:54.001Z</time></trkpt><trkpt lat="14.690480460937042" lon="121.00076855758638"><ele>26.0</ele><time>2026-04-19T09:35:55Z</time></trkpt><trkpt lat="14.690299622404007" lon="121.00077713430838"><ele>26.0</ele><time>2026-04-19T09:35:56Z</time></trkpt><trkpt lat="14.690114719004193" lon="121.00078413128989"><ele>26.0</ele><time>2026-04-19T09:35:57Z</time></trkpt><trkpt lat="14.689926988022572" lon="121.00078901659217"><ele>26.0</ele><time>2026-04-19T09:35:58Z</time></trkpt><trkpt lat="14.689737612083151" lon="121.00079239833993"><ele>26.0</ele><time>2026-04-19T09:35:59Z</time></trkpt><trkpt lat="14.689546584104203" lon="121.00079235355153"><ele>26.0</ele><time>2026-04-19T09:36:00Z</time></trkpt><trkpt lat="14.689354299485672" lon="121.0007891120477"><ele>26.0</ele><time>2026-04-19T09:36:01Z</time></trkpt><trkpt lat="14.689160101125127" lon="121.00078337623015"><ele>26.0</ele><time>2026-04-19T09:36:02Z</time></trkpt><trkpt lat="14.688965892701924" lon="121.0007776652939"><ele>26.0</ele><time>2026-04-19T09:36:03Z</time></trkpt><trkpt lat="14.688770786458662" lon="121.00077225630268"><ele>25.0</ele><time>2026-04-19T09:36:04Z</time></trkpt><trkpt lat="14.688570835699123" lon="121.00076575393697"><ele>24.0</ele><time>2026-04-19T09:36:05Z</time></trkpt><trkpt lat="14.688366430278084" lon="121.00075904042994"><ele>23.0</ele><time>2026-04-19T09:36:06Z</time></trkpt><trkpt lat="14.688158929948077" lon="121.00075432191619"><ele>23.0</ele><time>2026-04-19T09:36:07Z</time></trkpt><trkpt lat="14.68794504009261" lon="121.00075061880658"><ele>23.0</ele><time>2026-04-19T09:36:08Z</time></trkpt><trkpt lat="14.687729462503837" lon="121.00074666511587"><ele>23.0</ele><time>2026-04-19T09:36:09Z</time></trkpt><trkpt lat="14.687510414948262" lon="121.00074380593476"><ele>20.666666666666668</ele><time>2026-04-19T09:36:10Z</time></trkpt><trkpt lat="14.687289702730187" lon="121.00074445114414"><ele>18.333333333333332</ele><time>2026-04-19T09:36:11Z</time></trkpt><trkpt lat="14.687068836855648" lon="121.00074303352397"><ele>16.0</ele><time>2026-04-19T09:36:12Z</time></trkpt><trkpt lat="14.686846476245961" lon="121.00074431563004"><ele>15.333333333333332</ele><time>2026-04-19T09:36:13Z</time></trkpt><trkpt lat="14.686623560633905" lon="121.00074301923267"><ele>14.666666666666668</ele><time>2026-04-19T09:36:14Z</time></trkpt><trkpt lat="14.68639702568463" lon="121.00073775687517"><ele>14.0</ele><time>2026-04-19T09:36:15Z</time></trkpt><trkpt lat="14.686167815156956" lon="121.00073345363005"><ele>14.666666666666668</ele><time>2026-04-19T09:36:16Z</time></trkpt><trkpt lat="14.685946625894749" lon="121.00072667609898"><ele>15.333333333333332</ele><time>2026-04-19T09:36:17Z</time></trkpt><trkpt lat="14.685725934672963" lon="121.00071997975654"><ele>16.0</ele><time>2026-04-19T09:36:18Z</time></trkpt><trkpt lat="14.685513441326053" lon="121.00071089394454"><ele>16.0</ele><time>2026-04-19T09:36:19Z</time></trkpt><trkpt lat="14.685302856105267" lon="121.0007024737649"><ele>16.0</ele><time>2026-04-19T09:36:20Z</time></trkpt><trkpt lat="14.685095563281841" lon="121.00069499924791"><ele>16.0</ele><time>2026-04-19T09:36:21Z</time></trkpt><trkpt lat="14.68489234984319" lon="121.00068920237798"><ele>14.0</ele><time>2026-04-19T09:36:22Z</time></trkpt><trkpt lat="14.684691197458678" lon="121.00068390412932"><ele>12.0</ele><time>2026-04-19T09:36:23Z</time></trkpt><trkpt lat="14.684493008137862" lon="121.00068051186857"><ele>10.0</ele><time>2026-04-19T09:36:24Z</time></trkpt><trkpt lat="14.68430065000833" lon="121.00067660358825"><ele>10.0</ele><time>2026-04-19T09:36:25Z</time></trkpt><trkpt lat="14.684106321417103" lon="121.0006730225389"><ele>10.0</ele><time>2026-04-19T09:36:26Z</time></trkpt><trkpt lat="14.68391941967015" lon="121.00066761992504"><ele>10.0</ele><time>2026-04-19T09:36:27Z</time></trkpt><trkpt lat="14.683734592033298" lon="121.00065488838027"><ele>11.0</ele><time>2026-04-19T09:36:28Z</time></trkpt><trkpt lat="14.683544649957547" lon="121.00064139745132"><ele>12.0</ele><time>2026-04-19T09:36:29Z</time></trkpt><trkpt lat="14.683352144856737" lon="121.00063101233488"><ele>13.0</ele><time>2026-04-19T09:36:30Z</time></trkpt><trkpt lat="14.683156570552104" lon="121.00062122968197"><ele>13.0</ele><time>2026-04-19T09:36:31Z</time></trkpt><trkpt lat="14.682959650399177" lon="121.0006131438413"><ele>13.0</ele><time>2026-04-19T09:36:32Z</time></trkpt><trkpt lat="14.682761053730403" lon="121.00060558013843"><ele>13.0</ele><time>2026-04-19T09:36:33Z</time></trkpt><trkpt lat="14.68255855328114" lon="121.00059926179256"><ele>13.0</ele><time>2026-04-19T09:36:34Z</time></trkpt><trkpt lat="14.682358659804578" lon="121.00059382045431"><ele>13.0</ele><time>2026-04-19T09:36:35Z</time></trkpt><trkpt lat="14.682160474063839" lon="121.00058802224744"><ele>13.0</ele><time>2026-04-19T09:36:36Z</time></trkpt><trkpt lat="14.681966199048523" lon="121.00058357236638"><ele>11.666666666666666</ele><time>2026-04-19T09:36:37Z</time></trkpt><trkpt lat="14.681775715710419" lon="121.0005744788974"><ele>10.333333333333332</ele><time>2026-04-19T09:36:38Z</time></trkpt><trkpt lat="14.681589390462596" lon="121.00055759760023"><ele>9.0</ele><time>2026-04-19T09:36:39Z</time></trkpt><trkpt lat="14.681408585486466" lon="121.00053131483531"><ele>9.0</ele><time>2026-04-19T09:36:40Z</time></trkpt><trkpt lat="14.681230227769442" lon="121.00049896112151"><ele>9.0</ele><time>2026-04-19T09:36:41Z</time></trkpt><trkpt lat="14.68105550331161" lon="121.00045895574112"><ele>9.0</ele><time>2026-04-19T09:36:42Z</time></trkpt><trkpt lat="14.68087963164133" lon="121.00041552112125"><ele>9.0</ele><time>2026-04-19T09:36:43Z</time></trkpt><trkpt lat="14.680711314724626" lon="121.0003655986884"><ele>9.0</ele><time>2026-04-19T09:36:44Z</time></trkpt><trkpt lat="14.680545248653893" lon="121.0003141087725"><ele>9.0</ele><time>2026-04-19T09:36:45Z</time></trkpt><trkpt lat="14.680383420286734" lon="121.00025989036777"><ele>10.666666666666668</ele><time>2026-04-19T09:36:46Z</time></trkpt><trkpt lat="14.68022176633722" lon="121.0002071027715"><ele>12.333333333333334</ele><time>2026-04-19T09:36:47Z</time></trkpt><trkpt lat="14.680063121487208" lon="121.00015631686361"><ele>14.0</ele><time>2026-04-19T09:36:48Z</time></trkpt><trkpt lat="14.679906094523076" lon="121.00010700514962"><ele>14.0</ele><time>2026-04-19T09:36:49Z</time></trkpt><trkpt lat="14.679750253997065" lon="121.0000602244984"><ele>14.0</ele><time>2026-04-19T09:36:50Z</time></trkpt><trkpt lat="14.679593328542085" lon="121.00001712612408"><ele>14.0</ele><time>2026-04-19T09:36:51Z</time></trkpt><trkpt lat="14.67943743788376" lon="120.99997950986352"><ele>15.333333333333334</ele><time>2026-04-19T09:36:52Z</time></trkpt><trkpt lat="14.679277858140958" lon="120.99995047276255"><ele>16.666666666666668</ele><time>2026-04-19T09:36:53Z</time></trkpt><trkpt lat="14.679118330031088" lon="120.99992461318072"><ele>18.0</ele><time>2026-04-19T09:36:54Z</time></trkpt><trkpt lat="14.678956901196408" lon="120.9999043436376"><ele>18.0</ele><time>2026-04-19T09:36:55Z</time></trkpt><trkpt lat="14.678795321701264" lon="120.99988761960255"><ele>18.0</ele><time>2026-04-19T09:36:56Z</time></trkpt><trkpt lat="14.678637407356577" lon="120.9998780200731"><ele>18.0</ele><time>2026-04-19T09:36:57Z</time></trkpt><trkpt lat="14.678483140383344" lon="120.99987561417096"><ele>17.333333333333332</ele><time>2026-04-19T09:36:58Z</time></trkpt><trkpt lat="14.678332145197466" lon="120.9998772089967"><ele>16.666666666666664</ele><time>2026-04-19T09:36:59Z</time></trkpt><trkpt lat="14.67817969168929" lon="120.99988531688348"><ele>16.0</ele><time>2026-04-19T09:37:00Z</time></trkpt><trkpt lat="14.678027498445248" lon="120.99989977851051"><ele>16.0</ele><time>2026-04-19T09:37:01Z</time></trkpt><trkpt lat="14.677878441103596" lon="120.9999217198654"><ele>16.0</ele><time>2026-04-19T09:37:02Z</time></trkpt><trkpt lat="14.677731371857664" lon="120.99994653982358"><ele>16.0</ele><time>2026-04-19T09:37:03Z</time></trkpt><trkpt lat="14.677583856696176" lon="120.99997537598645"><ele>16.0</ele><time>2026-04-19T09:37:04Z</time></trkpt><trkpt lat="14.677434457215902" lon="121.00000774675547"><ele>16.0</ele><time>2026-04-19T09:37:05Z</time></trkpt><trkpt lat="14.677286421301867" lon="121.00004565184553"><ele>16.0</ele><time>2026-04-19T09:37:06Z</time></trkpt><trkpt lat="14.677136629937188" lon="121.0000870545374"><ele>16.0</ele><time>2026-04-19T09:37:07Z</time></trkpt><trkpt lat="14.67698623172385" lon="121.00013128304617"><ele>16.0</ele><time>2026-04-19T09:37:08Z</time></trkpt><trkpt lat="14.676836354332123" lon="121.00017269826755"><ele>16.0</ele><time>2026-04-19T09:37:09Z</time></trkpt><trkpt lat="14.676687976875169" lon="121.00021122949472"><ele>16.25</ele><time>2026-04-19T09:37:10Z</time></trkpt><trkpt lat="14.676540672584162" lon="121.00024964298511"><ele>16.5</ele><time>2026-04-19T09:37:11Z</time></trkpt><trkpt lat="14.676395230972927" lon="121.00028475306458"><ele>16.75</ele><time>2026-04-19T09:37:12Z</time></trkpt><trkpt lat="14.676250905572996" lon="121.00031633876524"><ele>17.0</ele><time>2026-04-19T09:37:13Z</time></trkpt><trkpt lat="14.676109094105248" lon="121.00034333966885"><ele>16.25</ele><time>2026-04-19T09:37:14Z</time></trkpt><trkpt lat="14.675968080147635" lon="121.00036580285195"><ele>15.5</ele><time>2026-04-19T09:37:15Z</time></trkpt><trkpt lat="14.675826639222418" lon="121.00038253620566"><ele>14.75</ele><time>2026-04-19T09:37:16Z</time></trkpt><trkpt lat="14.675683951749715" lon="121.00039624283595"><ele>14.0</ele><time>2026-04-19T09:37:17Z</time></trkpt><trkpt lat="14.675539475050764" lon="121.00040399043304"><ele>14.0</ele><time>2026-04-19T09:37:18Z</time></trkpt><trkpt lat="14.675391974898094" lon="121.0004044849156"><ele>14.0</ele><time>2026-04-19T09:37:19Z</time></trkpt><trkpt lat="14.675246694483013" lon="121.00040055683877"><ele>14.0</ele><time>2026-04-19T09:37:20Z</time></trkpt><trkpt lat="14.675100907786469" lon="121.00039636210943"><ele>14.0</ele><time>2026-04-19T09:37:21Z</time></trkpt><trkpt lat="14.67496024966543" lon="121.00039140285708"><ele>15.5</ele><time>2026-04-19T09:37:22Z</time></trkpt><trkpt lat="14.674823221266761" lon="121.00038687505693"><ele>17.0</ele><time>2026-04-19T09:37:23Z</time></trkpt><trkpt lat="14.67469028529452" lon="121.00038296367424"><ele>18.5</ele><time>2026-04-19T09:37:24Z</time></trkpt><trkpt lat="14.67455688961038" lon="121.00037553139991"><ele>20.0</ele><time>2026-04-19T09:37:25Z</time></trkpt><trkpt lat="14.674425101626662" lon="121.00037183898539"><ele>21.25</ele><time>2026-04-19T09:37:26Z</time></trkpt><trkpt lat="14.674297617373945" lon="121.00036569058348"><ele>22.5</ele><time>2026-04-19T09:37:27Z</time></trkpt><trkpt lat="14.674167751922786" lon="121.00035866631343"><ele>23.75</ele><time>2026-04-19T09:37:28Z</time></trkpt><trkpt lat="14.674037815061721" lon="121.0003504444554"><ele>25.0</ele><time>2026-04-19T09:37:29Z</time></trkpt><trkpt lat="14.673907294342868" lon="121.00034473291231"><ele>25.0</ele><time>2026-04-19T09:37:30Z</time></trkpt><trkpt lat="14.673779247004624" lon="121.00033734157968"><ele>25.0</ele><time>2026-04-19T09:37:31Z</time></trkpt><trkpt lat="14.673653284821993" lon="121.00033247387748"><ele>25.0</ele><time>2026-04-19T09:37:32Z</time></trkpt><trkpt lat="14.673530806490472" lon="121.00032941806914"><ele>25.0</ele><time>2026-04-19T09:37:33Z</time></trkpt><trkpt lat="14.673410083255682" lon="121.00032613610743"><ele>26.5</ele><time>2026-04-19T09:37:34Z</time></trkpt><trkpt lat="14.673289978006801" lon="121.00032354500092"><ele>28.0</ele><time>2026-04-19T09:37:35Z</time></trkpt><trkpt lat="14.673173455547602" lon="121.0003201913433"><ele>29.5</ele><time>2026-04-19T09:37:36Z</time></trkpt><trkpt lat="14.67305499808506" lon="121.00031718848093"><ele>31.0</ele><time>2026-04-19T09:37:37Z</time></trkpt><trkpt lat="14.672936638895488" lon="121.00031611725663"><ele>31.0</ele><time>2026-04-19T09:37:38Z</time></trkpt><trkpt lat="14.672818304301867" lon="121.00031546130921"><ele>31.0</ele><time>2026-04-19T09:37:39Z</time></trkpt><trkpt lat="14.67269967153618" lon="121.00031333452277"><ele>31.0</ele><time>2026-04-19T09:37:40Z</time></trkpt><trkpt lat="14.672581830904825" lon="121.00030925696971"><ele>31.0</ele><time>2026-04-19T09:37:41Z</time></trkpt><trkpt lat="14.672459905297353" lon="121.00030284462966"><ele>31.5</ele><time>2026-04-19T09:37:42Z</time></trkpt><trkpt lat="14.672333389525281" lon="121.00030156263753"><ele>32.0</ele><time>2026-04-19T09:37:43Z</time></trkpt><trkpt lat="14.672204233323466" lon="121.00029828024792"><ele>32.5</ele><time>2026-04-19T09:37:44Z</time></trkpt><trkpt lat="14.672072205642243" lon="121.00029412646465"><ele>33.0</ele><time>2026-04-19T09:37:45Z</time></trkpt><trkpt lat="14.671938646398543" lon="121.00028980031122"><ele>34.0</ele><time>2026-04-19T09:37:46Z</time></trkpt><trkpt lat="14.67180149533" lon="121.000286204518"><ele>35.0</ele><time>2026-04-19T09:37:47Z</time></trkpt><trkpt lat="14.671662682157681" lon="121.00028074276518"><ele>36.0</ele><time>2026-04-19T09:37:48Z</time></trkpt><trkpt lat="14.671522428432752" lon="121.00027583614212"><ele>37.0</ele><time>2026-04-19T09:37:49Z</time></trkpt><trkpt lat="14.671377183405903" lon="121.00027259264758"><ele>37.0</ele><time>2026-04-19T09:37:50Z</time></trkpt><trkpt lat="14.671233464081356" lon="121.00026937154655"><ele>37.0</ele><time>2026-04-19T09:37:51Z</time></trkpt><trkpt lat="14.67108882436972" lon="121.00026653983777"><ele>37.0</ele><time>2026-04-19T09:37:52Z</time></trkpt><trkpt lat="14.670943431936518" lon="121.00026281186477"><ele>37.0</ele><time>2026-04-19T09:37:53Z</time></trkpt><trkpt lat="14.670798288304825" lon="121.0002586389583"><ele>35.75</ele><time>2026-04-19T09:37:54Z</time></trkpt><trkpt lat="14.670654706212977" lon="121.00025417449675"><ele>34.5</ele><time>2026-04-19T09:37:55Z</time></trkpt><trkpt lat="14.670508867216176" lon="121.00025404116998"><ele>33.25</ele><time>2026-04-19T09:37:56Z</time></trkpt><trkpt lat="14.670363930073039" lon="121.00026101920892"><ele>32.0</ele><time>2026-04-19T09:37:57Z</time></trkpt><trkpt lat="14.670209777285192" lon="121.00027302555895"><ele>31.0</ele><time>2026-04-19T09:37:58Z</time></trkpt><trkpt lat="14.670055477849425" lon="121.00028678831232"><ele>30.0</ele><time>2026-04-19T09:37:59Z</time></trkpt><trkpt lat="14.669894441130067" lon="121.00030026499834"><ele>29.0</ele><time>2026-04-19T09:38:00Z</time></trkpt><trkpt lat="14.669728158304135" lon="121.00031413519326"><ele>29.0</ele><time>2026-04-19T09:38:01Z</time></trkpt><trkpt lat="14.669554498807363" lon="121.0003254883988"><ele>29.0</ele><time>2026-04-19T09:38:02Z</time></trkpt><trkpt lat="14.66937548393315" lon="121.0003319225774"><ele>29.0</ele><time>2026-04-19T09:38:03Z</time></trkpt><trkpt lat="14.66919134125003" lon="121.00033711498705"><ele>29.0</ele><time>2026-04-19T09:38:04Z</time></trkpt><trkpt lat="14.669004424057986" lon="121.00034214218111"><ele>29.0</ele><time>2026-04-19T09:38:05Z</time></trkpt><trkpt lat="14.668813515239247" lon="121.00034506941847"><ele>29.0</ele><time>2026-04-19T09:38:06Z</time></trkpt><trkpt lat="14.668620224498667" lon="121.00034642967115"><ele>29.333333333333332</ele><time>2026-04-19T09:38:07Z</time></trkpt><trkpt lat="14.668425418948518" lon="121.00034836217328"><ele>29.666666666666664</ele><time>2026-04-19T09:38:08Z</time></trkpt><trkpt lat="14.668221195646979" lon="121.00035152770829"><ele>30.0</ele><time>2026-04-19T09:38:09Z</time></trkpt><trkpt lat="14.668012507155074" lon="121.00035271964039"><ele>30.0</ele><time>2026-04-19T09:38:10Z</time></trkpt><trkpt lat="14.667795535155308" lon="121.0003489059074"><ele>30.0</ele><time>2026-04-19T09:38:11Z</time></trkpt><trkpt lat="14.667578214015126" lon="121.0003462469946"><ele>30.0</ele><time>2026-04-19T09:38:12Z</time></trkpt><trkpt lat="14.667360307339413" lon="121.00034195128531"><ele>29.666666666666664</ele><time>2026-04-19T09:38:13Z</time></trkpt><trkpt lat="14.667137493254614" lon="121.00033950484521"><ele>29.333333333333332</ele><time>2026-04-19T09:38:14Z</time></trkpt><trkpt lat="14.666913704929506" lon="121.00033476590866"><ele>29.0</ele><time>2026-04-19T09:38:15Z</time></trkpt><trkpt lat="14.666687127923481" lon="121.00033348080733"><ele>29.0</ele><time>2026-04-19T09:38:16Z</time></trkpt><trkpt lat="14.666460505305773" lon="121.00033219134937"><ele>29.0</ele><time>2026-04-19T09:38:17Z</time></trkpt><trkpt lat="14.666228759870659" lon="121.00033294729698"><ele>29.0</ele><time>2026-04-19T09:38:18Z</time></trkpt><trkpt lat="14.665998586843305" lon="121.00032987386157"><ele>29.0</ele><time>2026-04-19T09:38:19Z</time></trkpt><trkpt lat="14.665765282550415" lon="121.00033128203876"><ele>29.0</ele><time>2026-04-19T09:38:20Z</time></trkpt><trkpt lat="14.665533374917125" lon="121.00032928664348"><ele>29.0</ele><time>2026-04-19T09:38:21Z</time></trkpt><trkpt lat="14.665299446327241" lon="121.00032722455151"><ele>28.0</ele><time>2026-04-19T09:38:22Z</time></trkpt><trkpt lat="14.665067103766622" lon="121.00032393391422"><ele>27.0</ele><time>2026-04-19T09:38:23Z</time></trkpt><trkpt lat="14.66483505083311" lon="121.00032074656188"><ele>27.0</ele><time>2026-04-19T09:38:24Z</time></trkpt><trkpt lat="14.664603051221652" lon="121.00031795621533"><ele>27.0</ele><time>2026-04-19T09:38:25Z</time></trkpt><trkpt lat="14.664369927347842" lon="121.00031150046395"><ele>25.5</ele><time>2026-04-19T09:38:26Z</time></trkpt><trkpt lat="14.664137318574552" lon="121.00030685625778"><ele>24.0</ele><time>2026-04-19T09:38:27Z</time></trkpt><trkpt lat="14.663903033443686" lon="121.00030373727843"><ele>24.0</ele><time>2026-04-19T09:38:28Z</time></trkpt><trkpt lat="14.66366775319724" lon="121.00030046449919"><ele>24.0</ele><time>2026-04-19T09:38:29Z</time></trkpt><trkpt lat="14.66343274615503" lon="121.00029680563611"><ele>25.0</ele><time>2026-04-19T09:38:30Z</time></trkpt><trkpt lat="14.663196929725046" lon="121.000294273545"><ele>26.0</ele><time>2026-04-19T09:38:31Z</time></trkpt><trkpt lat="14.662962607617693" lon="121.00028943524237"><ele>25.0</ele><time>2026-04-19T09:38:32Z</time></trkpt><trkpt lat="14.662732187416054" lon="121.0002856547316"><ele>24.0</ele><time>2026-04-19T09:38:33Z</time></trkpt><trkpt lat="14.662501071118667" lon="121.00027984244205"><ele>24.0</ele><time>2026-04-19T09:38:34Z</time></trkpt><trkpt lat="14.662269512185581" lon="121.00027565705479"><ele>24.0</ele><time>2026-04-19T09:38:35Z</time></trkpt><trkpt lat="14.662045700304766" lon="121.0002648192427"><ele>23.333333333333332</ele><time>2026-04-19T09:38:36Z</time></trkpt><trkpt lat="14.66182468910281" lon="121.00025535169475"><ele>22.666666666666664</ele><time>2026-04-19T09:38:37Z</time></trkpt><trkpt lat="14.661607870682726" lon="121.00024569551941"><ele>22.0</ele><time>2026-04-19T09:38:38Z</time></trkpt><trkpt lat="14.661394246024713" lon="121.00023698207656"><ele>22.0</ele><time>2026-04-19T09:38:39Z</time></trkpt><trkpt lat="14.661180118107456" lon="121.00022688149845"><ele>22.0</ele><time>2026-04-19T09:38:40Z</time></trkpt><trkpt lat="14.660967004841853" lon="121.00022105439196"><ele>22.0</ele><time>2026-04-19T09:38:41Z</time></trkpt><trkpt lat="14.66074918390785" lon="121.00021671691594"><ele>22.0</ele><time>2026-04-19T09:38:42Z</time></trkpt><trkpt lat="14.660530830923555" lon="121.00021443927565"><ele>22.0</ele><time>2026-04-19T09:38:43Z</time></trkpt><trkpt lat="14.660307058658134" lon="121.00021224190459"><ele>22.0</ele><time>2026-04-19T09:38:44Z</time></trkpt><trkpt lat="14.660086119324507" lon="121.00020973414917"><ele>21.666666666666664</ele><time>2026-04-19T09:38:45Z</time></trkpt><trkpt lat="14.65986269933307" lon="121.00020813639767"><ele>21.333333333333332</ele><time>2026-04-19T09:38:46Z</time></trkpt><trkpt lat="14.659640152193294" lon="121.00020472163"><ele>21.0</ele><time>2026-04-19T09:38:47Z</time></trkpt><trkpt lat="14.659417206138961" lon="121.00020087931539"><ele>21.0</ele><time>2026-04-19T09:38:48Z</time></trkpt><trkpt lat="14.659192743020341" lon="121.0001960947267"><ele>21.0</ele><time>2026-04-19T09:38:49Z</time></trkpt><trkpt lat="14.658971866648363" lon="121.00019175199101"><ele>21.0</ele><time>2026-04-19T09:38:50Z</time></trkpt><trkpt lat="14.658752565596442" lon="121.00018827488644"><ele>20.333333333333332</ele><time>2026-04-19T09:38:51Z</time></trkpt><trkpt lat="14.658536461253494" lon="121.00018590335132"><ele>19.666666666666664</ele><time>2026-04-19T09:38:52Z</time></trkpt><trkpt lat="14.658321993434026" lon="121.00018709893604"><ele>19.0</ele><time>2026-04-19T09:38:53Z</time></trkpt><trkpt lat="14.658112594900636" lon="121.00019124614427"><ele>19.0</ele><time>2026-04-19T09:38:54Z</time></trkpt><trkpt lat="14.657907830887995" lon="121.00019655189121"><ele>19.0</ele><time>2026-04-19T09:38:55Z</time></trkpt><trkpt lat="14.657707922695613" lon="121.00020265589153"><ele>19.0</ele><time>2026-04-19T09:38:56Z</time></trkpt><trkpt lat="14.657512466680483" lon="121.00020718548421"><ele>19.0</ele><time>2026-04-19T09:38:57Z</time></trkpt><trkpt lat="14.657323887449033" lon="121.00020806846743"><ele>19.0</ele><time>2026-04-19T09:38:58Z</time></trkpt><trkpt lat="14.657137176779527" lon="121.00020505220168"><ele>19.0</ele><time>2026-04-19T09:38:59Z</time></trkpt><trkpt lat="14.65695763930833" lon="121.00019493881922"><ele>20.666666666666664</ele><time>2026-04-19T09:39:00Z</time></trkpt><trkpt lat="14.656778345402293" lon="121.00016494582273"><ele>22.333333333333332</ele><time>2026-04-19T09:39:01Z</time></trkpt><trkpt lat="14.656600850837833" lon="121.00011544969641"><ele>24.0</ele><time>2026-04-19T09:39:02Z</time></trkpt><trkpt lat="14.656432875460887" lon="121.00004194577883"><ele>24.0</ele><time>2026-04-19T09:39:03Z</time></trkpt><trkpt lat="14.6562727900545" lon="120.99995131867146"><ele>24.0</ele><time>2026-04-19T09:39:04Z</time></trkpt><trkpt lat="14.656116237535203" lon="120.99983942987278"><ele>24.0</ele><time>2026-04-19T09:39:05Z</time></trkpt><trkpt lat="14.655960426772577" lon="120.99971948425822"><ele>24.666666666666664</ele><time>2026-04-19T09:39:06Z</time></trkpt><trkpt lat="14.655799461552375" lon="120.9995977208115"><ele>25.333333333333332</ele><time>2026-04-19T09:39:07Z</time></trkpt><trkpt lat="14.655637092314116" lon="120.99947541267548"><ele>26.0</ele><time>2026-04-19T09:39:08Z</time></trkpt><trkpt lat="14.655462048564305" lon="120.99934759058011"><ele>26.0</ele><time>2026-04-19T09:39:09Z</time></trkpt><trkpt lat="14.655288349969002" lon="120.99921918670908"><ele>26.0</ele><time>2026-04-19T09:39:10Z</time></trkpt><trkpt lat="14.655111450046268" lon="120.99908753375827"><ele>26.0</ele><time>2026-04-19T09:39:11Z</time></trkpt><trkpt lat="14.654933589370199" lon="120.99895994136405"><ele>25.666666666666664</ele><time>2026-04-19T09:39:12Z</time></trkpt><trkpt lat="14.654753550956633" lon="120.99883528913247"><ele>25.333333333333336</ele><time>2026-04-19T09:39:13Z</time></trkpt><trkpt lat="14.654574046445989" lon="120.99871566644896"><ele>25.0</ele><time>2026-04-19T09:39:14Z</time></trkpt><trkpt lat="14.654395408360235" lon="120.99859763638335"><ele>25.0</ele><time>2026-04-19T09:39:15Z</time></trkpt><trkpt lat="14.654214414030552" lon="120.99847947028645"><ele>25.0</ele><time>2026-04-19T09:39:16Z</time></trkpt><trkpt lat="14.654032142087406" lon="120.99836421055582"><ele>25.0</ele><time>2026-04-19T09:39:17Z</time></trkpt><trkpt lat="14.653848892336686" lon="120.99825300406586"><ele>25.0</ele><time>2026-04-19T09:39:18Z</time></trkpt><trkpt lat="14.653666098316572" lon="120.9981438804019"><ele>25.0</ele><time>2026-04-19T09:39:19Z</time></trkpt><trkpt lat="14.653483830807685" lon="120.99803592566298"><ele>25.0</ele><time>2026-04-19T09:39:20Z</time></trkpt><trkpt lat="14.653302316151564" lon="120.9979332526252"><ele>24.666666666666668</ele><time>2026-04-19T09:39:21Z</time></trkpt><trkpt lat="14.653121512753401" lon="120.9978323651314"><ele>24.333333333333336</ele><time>2026-04-19T09:39:22Z</time></trkpt><trkpt lat="14.652937868398148" lon="120.99773260219645"><ele>24.0</ele><time>2026-04-19T09:39:23Z</time></trkpt><trkpt lat="14.652763712061263" lon="120.99764264124079"><ele>23.666666666666668</ele><time>2026-04-19T09:39:24Z</time></trkpt><trkpt lat="14.65260182382624" lon="120.99756032713336"><ele>23.333333333333336</ele><time>2026-04-19T09:39:25Z</time></trkpt><trkpt lat="14.652444817210412" lon="120.99748318382916"><ele>23.0</ele><time>2026-04-19T09:39:26Z</time></trkpt><trkpt lat="14.652290546908914" lon="120.99740868447996"><ele>23.666666666666668</ele><time>2026-04-19T09:39:27Z</time></trkpt><trkpt lat="14.652130201129532" lon="120.99733633874804"><ele>24.333333333333336</ele><time>2026-04-19T09:39:28Z</time></trkpt><trkpt lat="14.651966111143645" lon="120.99726683941961"><ele>25.0</ele><time>2026-04-19T09:39:29Z</time></trkpt><trkpt lat="14.65179700648617" lon="120.99719372936914"><ele>26.0</ele><time>2026-04-19T09:39:30Z</time></trkpt><trkpt lat="14.651624048237379" lon="120.99711929184929"><ele>27.0</ele><time>2026-04-19T09:39:31Z</time></trkpt><trkpt lat="14.65144594303015" lon="120.99704207167858"><ele>28.0</ele><time>2026-04-19T09:39:32Z</time></trkpt><trkpt lat="14.651265528097591" lon="120.99696315658072"><ele>27.333333333333336</ele><time>2026-04-19T09:39:33Z</time></trkpt><trkpt lat="14.65108109605474" lon="120.99688251030439"><ele>26.666666666666664</ele><time>2026-04-19T09:39:34Z</time></trkpt><trkpt lat="14.650895705226391" lon="120.99680105415938"><ele>26.0</ele><time>2026-04-19T09:39:35Z</time></trkpt><trkpt lat="14.650707615670626" lon="120.99671796283701"><ele>25.666666666666664</ele><time>2026-04-19T09:39:36Z</time></trkpt><trkpt lat="14.650516924172393" lon="120.99663344468931"><ele>25.333333333333336</ele><time>2026-04-19T09:39:37Z</time></trkpt><trkpt lat="14.65032484549773" lon="120.99654968418967"><ele>25.0</ele><time>2026-04-19T09:39:38Z</time></trkpt><trkpt lat="14.650131573633686" lon="120.9964651254902"><ele>25.0</ele><time>2026-04-19T09:39:39Z</time></trkpt><trkpt lat="14.649937283911857" lon="120.99638281880826"><ele>25.0</ele><time>2026-04-19T09:39:40Z</time></trkpt><trkpt lat="14.649743311671633" lon="120.9962993564925"><ele>25.0</ele><time>2026-04-19T09:39:41Z</time></trkpt><trkpt lat="14.649548490495526" lon="120.99621614367577"><ele>25.0</ele><time>2026-04-19T09:39:42Z</time></trkpt><trkpt lat="14.649355337020838" lon="120.99613324623492"><ele>25.0</ele><time>2026-04-19T09:39:43Z</time></trkpt><trkpt lat="14.649160443534168" lon="120.9960497015516"><ele>25.0</ele><time>2026-04-19T09:39:44Z</time></trkpt><trkpt lat="14.648963554098225" lon="120.99596651146074"><ele>25.0</ele><time>2026-04-19T09:39:45Z</time></trkpt><trkpt lat="14.648765942333847" lon="120.99588064841444"><ele>25.0</ele><time>2026-04-19T09:39:46Z</time></trkpt><trkpt lat="14.648566417350759" lon="120.99579575449023"><ele>25.0</ele><time>2026-04-19T09:39:47Z</time></trkpt><trkpt lat="14.648367342977675" lon="120.99571029074528"><ele>25.0</ele><time>2026-04-19T09:39:48Z</time></trkpt><trkpt lat="14.64816808290674" lon="120.99562544794152"><ele>25.0</ele><time>2026-04-19T09:39:49Z</time></trkpt><trkpt lat="14.647969654782699" lon="120.99553980313692"><ele>25.0</ele><time>2026-04-19T09:39:50Z</time></trkpt><trkpt lat="14.64777243391317" lon="120.99545501006806"><ele>24.333333333333336</ele><time>2026-04-19T09:39:51Z</time></trkpt><trkpt lat="14.647574988382132" lon="120.9953712834933"><ele>23.666666666666668</ele><time>2026-04-19T09:39:52Z</time></trkpt><trkpt lat="14.647377609952072" lon="120.99528717067115"><ele>23.0</ele><time>2026-04-19T09:39:53Z</time></trkpt><trkpt lat="14.64718103074614" lon="120.99520514583375"><ele>23.0</ele><time>2026-04-19T09:39:54Z</time></trkpt><trkpt lat="14.646986170742936" lon="120.99512302893298"><ele>23.0</ele><time>2026-04-19T09:39:55Z</time></trkpt><trkpt lat="14.646794008335572" lon="120.9950415541172"><ele>23.0</ele><time>2026-04-19T09:39:56Z</time></trkpt><trkpt lat="14.646604853956836" lon="120.99496090374625"><ele>23.0</ele><time>2026-04-19T09:39:57Z</time></trkpt><trkpt lat="14.646418945056789" lon="120.99488086155543"><ele>23.0</ele><time>2026-04-19T09:39:58Z</time></trkpt><trkpt lat="14.64623596339133" lon="120.9948029735135"><ele>23.0</ele><time>2026-04-19T09:39:59Z</time></trkpt><trkpt lat="14.646058469834536" lon="120.99472946907679"><ele>23.0</ele><time>2026-04-19T09:40:00Z</time></trkpt><trkpt lat="14.645885857329946" lon="120.99466241589447"><ele>23.0</ele><time>2026-04-19T09:40:01Z</time></trkpt><trkpt lat="14.645717029073593" lon="120.9946055643669"><ele>23.0</ele><time>2026-04-19T09:40:02Z</time></trkpt><trkpt lat="14.645550258044294" lon="120.9945597722101"><ele>23.0</ele><time>2026-04-19T09:40:03Z</time></trkpt><trkpt lat="14.645385682617144" lon="120.99452881902513"><ele>23.0</ele><time>2026-04-19T09:40:04Z</time></trkpt><trkpt lat="14.645226647594122" lon="120.9945184737527"><ele>23.0</ele><time>2026-04-19T09:40:05Z</time></trkpt><trkpt lat="14.645070042709088" lon="120.99452864695064"><ele>22.333333333333336</ele><time>2026-04-19T09:40:06Z</time></trkpt><trkpt lat="14.644917570571941" lon="120.99455848840742"><ele>21.666666666666668</ele><time>2026-04-19T09:40:07Z</time></trkpt><trkpt lat="14.644760250112576" lon="120.99457720407274"><ele>21.0</ele><time>2026-04-19T09:40:08Z</time></trkpt><trkpt lat="14.6446174889057" lon="120.99464187412264"><ele>21.0</ele><time>2026-04-19T09:40:09Z</time></trkpt><trkpt lat="14.644483688179339" lon="120.99472421933612"><ele>21.0</ele><time>2026-04-19T09:40:10Z</time></trkpt><trkpt lat="14.644362758420192" lon="120.99482814020664"><ele>21.0</ele><time>2026-04-19T09:40:11Z</time></trkpt><trkpt lat="14.644262616398715" lon="120.9949527091698"><ele>22.0</ele><time>2026-04-19T09:40:12Z</time></trkpt><trkpt lat="14.64416357262366" lon="120.9950752083437"><ele>23.0</ele><time>2026-04-19T09:40:13Z</time></trkpt><trkpt lat="14.644077913155181" lon="120.99521146283239"><ele>24.0</ele><time>2026-04-19T09:40:14Z</time></trkpt><trkpt lat="14.64400713903696" lon="120.99535735341992"><ele>24.0</ele><time>2026-04-19T09:40:15Z</time></trkpt><trkpt lat="14.64395309641391" lon="120.99551233240793"><ele>24.0</ele><time>2026-04-19T09:40:16Z</time></trkpt><trkpt lat="14.643917100981168" lon="120.9956737359863"><ele>24.0</ele><time>2026-04-19T09:40:17Z</time></trkpt><trkpt lat="14.643896268077082" lon="120.9958413825659"><ele>24.333333333333336</ele><time>2026-04-19T09:40:18Z</time></trkpt><trkpt lat="14.643885919676986" lon="120.99601305752182"><ele>24.666666666666668</ele><time>2026-04-19T09:40:19Z</time></trkpt><trkpt lat="14.643889550666882" lon="120.99618639470764"><ele>25.0</ele><time>2026-04-19T09:40:20Z</time></trkpt><trkpt lat="14.643897098350594" lon="120.99635874254915"><ele>25.0</ele><time>2026-04-19T09:40:21Z</time></trkpt><trkpt lat="14.643902518461886" lon="120.99653322538578"><ele>25.0</ele><time>2026-04-19T09:40:22Z</time></trkpt><trkpt lat="14.643907537024152" lon="120.99670835900068"><ele>25.0</ele><time>2026-04-19T09:40:23Z</time></trkpt><trkpt lat="14.643913170305355" lon="120.99688467848442"><ele>24.0</ele><time>2026-04-19T09:40:24Z</time></trkpt><trkpt lat="14.643917927467585" lon="120.99706215312662"><ele>23.0</ele><time>2026-04-19T09:40:25Z</time></trkpt><trkpt lat="14.643922838081144" lon="120.99723872212158"><ele>22.0</ele><time>2026-04-19T09:40:26Z</time></trkpt><trkpt lat="14.64392797175783" lon="120.99741823505238"><ele>21.666666666666664</ele><time>2026-04-19T09:40:27Z</time></trkpt><trkpt lat="14.64393209152313" lon="120.99759782449445"><ele>21.333333333333332</ele><time>2026-04-19T09:40:28Z</time></trkpt><trkpt lat="14.643937238566126" lon="120.99777837261516"><ele>21.0</ele><time>2026-04-19T09:40:29Z</time></trkpt><trkpt lat="14.643942653564931" lon="120.9979599477185"><ele>21.0</ele><time>2026-04-19T09:40:30Z</time></trkpt><trkpt lat="14.64394812742752" lon="120.99814259690581"><ele>21.0</ele><time>2026-04-19T09:40:31Z</time></trkpt><trkpt lat="14.64395339082128" lon="120.99832413481396"><ele>21.0</ele><time>2026-04-19T09:40:32Z</time></trkpt><trkpt lat="14.643960577081694" lon="120.99850742138992"><ele>20.0</ele><time>2026-04-19T09:40:33Z</time></trkpt><trkpt lat="14.643972835473742" lon="120.99869052892623"><ele>19.0</ele><time>2026-04-19T09:40:34Z</time></trkpt><trkpt lat="14.643989341265282" lon="120.99887522020902"><ele>18.0</ele><time>2026-04-19T09:40:35Z</time></trkpt><trkpt lat="14.644007504366659" lon="120.99906127992223"><ele>18.0</ele><time>2026-04-19T09:40:36Z</time></trkpt><trkpt lat="14.644031853398586" lon="120.99924693167708"><ele>18.0</ele><time>2026-04-19T09:40:37Z</time></trkpt><trkpt lat="14.644060542617927" lon="120.99943317999876"><ele>18.0</ele><time>2026-04-19T09:40:38Z</time></trkpt><trkpt lat="14.644091273468899" lon="120.99961831851031"><ele>18.0</ele><time>2026-04-19T09:40:39Z</time></trkpt><trkpt lat="14.644126145270684" lon="120.99980300445516"><ele>18.0</ele><time>2026-04-19T09:40:40Z</time></trkpt><trkpt lat="14.644160969019126" lon="120.9999856741538"><ele>18.0</ele><time>2026-04-19T09:40:41Z</time></trkpt><trkpt lat="14.644195650922823" lon="121.00017023077633"><ele>18.0</ele><time>2026-04-19T09:40:42Z</time></trkpt><trkpt lat="14.64423060110803" lon="121.00035716300131"><ele>18.0</ele><time>2026-04-19T09:40:43Z</time></trkpt><trkpt lat="14.644266483026056" lon="121.00054736234159"><ele>18.0</ele><time>2026-04-19T09:40:44Z</time></trkpt><trkpt lat="14.644301443663958" lon="121.00074019426337"><ele>17.333333333333332</ele><time>2026-04-19T09:40:45Z</time></trkpt><trkpt lat="14.644331353533731" lon="121.00093502191326"><ele>16.666666666666664</ele><time>2026-04-19T09:40:46Z</time></trkpt><trkpt lat="14.644364120300368" lon="121.00113345582494"><ele>16.0</ele><time>2026-04-19T09:40:47Z</time></trkpt><trkpt lat="14.644395474927164" lon="121.00133627018646"><ele>16.0</ele><time>2026-04-19T09:40:48Z</time></trkpt><trkpt lat="14.644426150000804" lon="121.00153847557718"><ele>16.0</ele><time>2026-04-19T09:40:49Z</time></trkpt><trkpt lat="14.644456795725041" lon="121.00174189451288"><ele>16.0</ele><time>2026-04-19T09:40:50Z</time></trkpt><trkpt lat="14.644487548356327" lon="121.00194448217256"><ele>16.333333333333332</ele><time>2026-04-19T09:40:51Z</time></trkpt><trkpt lat="14.644518713299115" lon="121.00214602800364"><ele>16.666666666666668</ele><time>2026-04-19T09:40:52Z</time></trkpt><trkpt lat="14.644551618478175" lon="121.00234630384263"><ele>17.0</ele><time>2026-04-19T09:40:53Z</time></trkpt><trkpt lat="14.64458502274643" lon="121.00254462637588"><ele>18.0</ele><time>2026-04-19T09:40:54Z</time></trkpt><trkpt lat="14.644618725360264" lon="121.0027436470436"><ele>19.0</ele><time>2026-04-19T09:40:55Z</time></trkpt><trkpt lat="14.644653631255032" lon="121.00294044927834"><ele>20.0</ele><time>2026-04-19T09:40:56Z</time></trkpt><trkpt lat="14.644690760484746" lon="121.00313349314663"><ele>20.0</ele><time>2026-04-19T09:40:57Z</time></trkpt><trkpt lat="14.644728631452885" lon="121.00332196102381"><ele>20.0</ele><time>2026-04-19T09:40:58Z</time></trkpt><trkpt lat="14.644765077238922" lon="121.00350345424016"><ele>20.0</ele><time>2026-04-19T09:40:59Z</time></trkpt><trkpt lat="14.64479950086363" lon="121.0036820097717"><ele>19.666666666666668</ele><time>2026-04-19T09:41:00Z</time></trkpt><trkpt lat="14.644827862140955" lon="121.0038587548858"><ele>19.333333333333332</ele><time>2026-04-19T09:41:01Z</time></trkpt><trkpt lat="14.644850628894188" lon="121.00403576285778"><ele>19.0</ele><time>2026-04-19T09:41:02Z</time></trkpt><trkpt lat="14.644865080721559" lon="121.00421008862259"><ele>18.333333333333332</ele><time>2026-04-19T09:41:03Z</time></trkpt><trkpt lat="14.644870141326262" lon="121.00438025645866"><ele>17.666666666666668</ele><time>2026-04-19T09:41:04Z</time></trkpt><trkpt lat="14.644863417248617" lon="121.00454403918974"><ele>17.0</ele><time>2026-04-19T09:41:05Z</time></trkpt><trkpt lat="14.64484336850595" lon="121.00470188896968"><ele>17.0</ele><time>2026-04-19T09:41:06Z</time></trkpt><trkpt lat="14.644813571993687" lon="121.00485173019459"><ele>17.0</ele><time>2026-04-19T09:41:07Z</time></trkpt><trkpt lat="14.644769163214415" lon="121.00499250674004"><ele>17.0</ele><time>2026-04-19T09:41:08Z</time></trkpt><trkpt lat="14.644714684075453" lon="121.00512635011657"><ele>17.0</ele><time>2026-04-19T09:41:09Z</time></trkpt><trkpt lat="14.644651732926514" lon="121.0052516883555"><ele>17.0</ele><time>2026-04-19T09:41:10Z</time></trkpt><trkpt lat="14.644573554179125" lon="121.00536742135613"><ele>17.0</ele><time>2026-04-19T09:41:11Z</time></trkpt><trkpt lat="14.644486682025512" lon="121.00547294129176"><ele>17.0</ele><time>2026-04-19T09:41:12Z</time></trkpt><trkpt lat="14.644381181410159" lon="121.00555314998701"><ele>17.0</ele><time>2026-04-19T09:41:13Z</time></trkpt><trkpt lat="14.644289974824577" lon="121.00564885591056"><ele>17.0</ele><time>2026-04-19T09:41:14Z</time></trkpt><trkpt lat="14.644172048009901" lon="121.00570036920496"><ele>17.0</ele><time>2026-04-19T09:41:15Z</time></trkpt><trkpt lat="14.644066119707398" lon="121.0057503194502"><ele>17.0</ele><time>2026-04-19T09:41:16Z</time></trkpt><trkpt lat="14.643959334503561" lon="121.0057828987354"><ele>17.0</ele><time>2026-04-19T09:41:17Z</time></trkpt><trkpt lat="14.643851587042738" lon="121.00581048804936"><ele>17.0</ele><time>2026-04-19T09:41:18Z</time></trkpt><trkpt lat="14.643745265801265" lon="121.00581830742105"><ele>17.0</ele><time>2026-04-19T09:41:19Z</time></trkpt><trkpt lat="14.64363774372599" lon="121.00583183876914"><ele>17.0</ele><time>2026-04-19T09:41:20Z</time></trkpt><trkpt lat="14.643542799559894" lon="121.0058287416893"><ele>17.0</ele><time>2026-04-19T09:41:21Z</time></trkpt><trkpt lat="14.643457419069573" lon="121.00583054514924"><ele>17.0</ele><time>2026-04-19T09:41:22Z</time></trkpt><trkpt lat="14.643379957858839" lon="121.00583218133545"><ele>15.666666666666668</ele><time>2026-04-19T09:41:23Z</time></trkpt><trkpt lat="14.643101996659654" lon="121.00584085565542"><ele>14.333333333333332</ele><time>2026-04-19T09:41:27Z</time></trkpt><trkpt lat="14.642983494043381" lon="121.00584803318549"><ele>13.0</ele><time>2026-04-19T09:41:29Z</time></trkpt><trkpt lat="14.642867679921252" lon="121.00585508987743"><ele>12.499999999999998</ele><time>2026-04-19T09:41:31Z</time></trkpt><trkpt lat="14.642757641911004" lon="121.00586847889696"><ele>12.0</ele><time>2026-04-19T09:41:33Z</time></trkpt><trkpt lat="14.642707568449737" lon="121.00594552563112"><ele>11.5</ele><time>2026-04-19T09:41:34Z</time></trkpt><trkpt lat="14.642642933594272" lon="121.00595896646973"><ele>11.0</ele><time>2026-04-19T09:41:35Z</time></trkpt><trkpt lat="14.642578372024388" lon="121.00597502715924"><ele>10.5</ele><time>2026-04-19T09:41:36Z</time></trkpt><trkpt lat="14.642510430583128" lon="121.00599695651202"><ele>10.0</ele><time>2026-04-19T09:41:37Z</time></trkpt><trkpt lat="14.642442506415263" lon="121.00602083208032"><ele>10.0</ele><time>2026-04-19T09:41:38Z</time></trkpt><trkpt lat="14.642369164493878" lon="121.00604591830933"><ele>10.0</ele><time>2026-04-19T09:41:39Z</time></trkpt><trkpt lat="14.642288645438143" lon="121.00606982278039"><ele>10.0</ele><time>2026-04-19T09:41:40Z</time></trkpt><trkpt lat="14.642200957556273" lon="121.00609438449372"><ele>10.0</ele><time>2026-04-19T09:41:41Z</time></trkpt><trkpt lat="14.642108547079381" lon="121.0061178090525"><ele>10.0</ele><time>2026-04-19T09:41:42Z</time></trkpt><trkpt lat="14.642012073500723" lon="121.00614300363422"><ele>10.0</ele><time>2026-04-19T09:41:43Z</time></trkpt><trkpt lat="14.641914372884749" lon="121.00616682550954"><ele>10.0</ele><time>2026-04-19T09:41:44Z</time></trkpt><trkpt lat="14.641819727718822" lon="121.00618930126755"><ele>10.0</ele><time>2026-04-19T09:41:45Z</time></trkpt><trkpt lat="14.64172453091659" lon="121.0062119388654"><ele>10.0</ele><time>2026-04-19T09:41:46Z</time></trkpt><trkpt lat="14.641633618667324" lon="121.0062339225458"><ele>10.0</ele><time>2026-04-19T09:41:47Z</time></trkpt><trkpt lat="14.641542042458731" lon="121.00625655138818"><ele>10.0</ele><time>2026-04-19T09:41:48Z</time></trkpt><trkpt lat="14.641450014980128" lon="121.00627885873783"><ele>10.0</ele><time>2026-04-19T09:41:49Z</time></trkpt><trkpt lat="14.641361748424472" lon="121.00629925403803"><ele>10.0</ele><time>2026-04-19T09:41:50Z</time></trkpt><trkpt lat="14.641273881508532" lon="121.0063193572679"><ele>10.0</ele><time>2026-04-19T09:41:51Z</time></trkpt><trkpt lat="14.641185767749803" lon="121.00633759482619"><ele>10.0</ele><time>2026-04-19T09:41:52Z</time></trkpt><trkpt lat="14.641100889785408" lon="121.00635215357106"><ele>10.0</ele><time>2026-04-19T09:41:53Z</time></trkpt><trkpt lat="14.64101234882227" lon="121.00636505587579"><ele>10.0</ele><time>2026-04-19T09:41:54Z</time></trkpt><trkpt lat="14.64092437332805" lon="121.00637938528288"><ele>10.5</ele><time>2026-04-19T09:41:55Z</time></trkpt><trkpt lat="14.64083556124807" lon="121.00639347181082"><ele>11.0</ele><time>2026-04-19T09:41:56Z</time></trkpt><trkpt lat="14.640749054164006" lon="121.00640735463362"><ele>11.5</ele><time>2026-04-19T09:41:57Z</time></trkpt><trkpt lat="14.640666680681052" lon="121.00642157719187"><ele>12.0</ele><time>2026-04-19T09:41:58Z</time></trkpt><trkpt lat="14.640589361110894" lon="121.0064371772427"><ele>12.499999999999998</ele><time>2026-04-19T09:41:59Z</time></trkpt><trkpt lat="14.640521126101605" lon="121.00645267383756"><ele>13.0</ele><time>2026-04-19T09:42:00Z</time></trkpt><trkpt lat="14.640411373607805" lon="121.00647836697263"><ele>13.0</ele><time>2026-04-19T09:42:02Z</time></trkpt><trkpt lat="14.640334681161239" lon="121.00649592145474"><ele>13.0</ele><time>2026-04-19T09:42:04Z</time></trkpt><trkpt lat="14.640264014332494" lon="121.00651474516563"><ele>13.0</ele><time>2026-04-19T09:42:07Z</time></trkpt><trkpt lat="14.640198663909045" lon="121.00652700417959"><ele>13.0</ele><time>2026-04-19T09:42:32Z</time></trkpt><trkpt lat="14.640132611432035" lon="121.00654379149259"><ele>13.0</ele><time>2026-04-19T09:43:28Z</time></trkpt><trkpt lat="14.640061590001741" lon="121.00655942224358"><ele>13.0</ele><time>2026-04-19T09:43:31Z</time></trkpt><trkpt lat="14.639992982198327" lon="121.0065768788411"><ele>13.0</ele><time>2026-04-19T09:43:33Z</time></trkpt><trkpt lat="14.639897446694642" lon="121.00659083748114"><ele>13.0</ele><time>2026-04-19T09:43:35Z</time></trkpt><trkpt lat="14.639795986105314" lon="121.00661029119716"><ele>13.0</ele><time>2026-04-19T09:43:37Z</time></trkpt><trkpt lat="14.639709124579527" lon="121.00662046435816"><ele>13.0</ele><time>2026-04-19T09:43:39Z</time></trkpt><trkpt lat="14.639609190721966" lon="121.00663659583451"><ele>13.0</ele><time>2026-04-19T09:43:41Z</time></trkpt><trkpt lat="14.639482819080305" lon="121.00667174868596"><ele>13.0</ele><time>2026-04-19T09:43:43Z</time></trkpt><trkpt lat="14.639411562038624" lon="121.00669746651572"><ele>13.0</ele><time>2026-04-19T09:43:44Z</time></trkpt><trkpt lat="14.639334124406247" lon="121.00672937551379"><ele>13.0</ele><time>2026-04-19T09:43:45Z</time></trkpt><trkpt lat="14.639255209720142" lon="121.00676585287407"><ele>13.0</ele><time>2026-04-19T09:43:46Z</time></trkpt><trkpt lat="14.639173454937971" lon="121.00680641390458"><ele>13.0</ele><time>2026-04-19T09:43:47Z</time></trkpt><trkpt lat="14.639092016536706" lon="121.00685510607413"><ele>13.0</ele><time>2026-04-19T09:43:48Z</time></trkpt><trkpt lat="14.639010223413" lon="121.0069119895895"><ele>13.0</ele><time>2026-04-19T09:43:49Z</time></trkpt><trkpt lat="14.638929792971302" lon="121.00697672728218"><ele>13.0</ele><time>2026-04-19T09:43:50Z</time></trkpt><trkpt lat="14.638848837762682" lon="121.00705186748873"><ele>13.0</ele><time>2026-04-19T09:43:51Z</time></trkpt><trkpt lat="14.638769019765126" lon="121.00713254670917"><ele>13.0</ele><time>2026-04-19T09:43:52Z</time></trkpt><trkpt lat="14.638688471564459" lon="121.00722127353043"><ele>13.0</ele><time>2026-04-19T09:43:53Z</time></trkpt><trkpt lat="14.638608736765232" lon="121.00731635903486"><ele>13.0</ele><time>2026-04-19T09:43:54Z</time></trkpt><trkpt lat="14.638526420439534" lon="121.00741754722638"><ele>13.0</ele><time>2026-04-19T09:43:55Z</time></trkpt><trkpt lat="14.63842860863908" lon="121.00751418802136"><ele>13.0</ele><time>2026-04-19T09:43:56Z</time></trkpt><trkpt lat="14.638339196867799" lon="121.00762233443905"><ele>13.0</ele><time>2026-04-19T09:43:57Z</time></trkpt><trkpt lat="14.638251446324144" lon="121.00773800562564"><ele>13.0</ele><time>2026-04-19T09:43:58Z</time></trkpt><trkpt lat="14.638163854472102" lon="121.00785346762831"><ele>13.0</ele><time>2026-04-19T09:43:59Z</time></trkpt><trkpt lat="14.638085361627457" lon="121.00797809476659"><ele>13.0</ele><time>2026-04-19T09:44:00Z</time></trkpt><trkpt lat="14.637987641321242" lon="121.00808537646695"><ele>13.0</ele><time>2026-04-19T09:44:01Z</time></trkpt><trkpt lat="14.637881543259741" lon="121.0081862660963"><ele>13.333333333333332</ele><time>2026-04-19T09:44:02Z</time></trkpt><trkpt lat="14.637762579011945" lon="121.00828071455115"><ele>13.666666666666668</ele><time>2026-04-19T09:44:03Z</time></trkpt><trkpt lat="14.63763362945629" lon="121.0083673999895"><ele>14.0</ele><time>2026-04-19T09:44:04Z</time></trkpt><trkpt lat="14.637495962394828" lon="121.00844407135762"><ele>13.0</ele><time>2026-04-19T09:44:05Z</time></trkpt><trkpt lat="14.637349244708885" lon="121.0085078613851"><ele>12.0</ele><time>2026-04-19T09:44:06Z</time></trkpt><trkpt lat="14.637197201642335" lon="121.00855959706571"><ele>11.0</ele><time>2026-04-19T09:44:07Z</time></trkpt><trkpt lat="14.63704268398623" lon="121.00859932899374"><ele>12.333333333333332</ele><time>2026-04-19T09:44:08Z</time></trkpt><trkpt lat="14.636887481732826" lon="121.00862794756634"><ele>13.666666666666666</ele><time>2026-04-19T09:44:09Z</time></trkpt><trkpt lat="14.636727695116551" lon="121.00864551153501"><ele>15.0</ele><time>2026-04-19T09:44:10Z</time></trkpt><trkpt lat="14.636564565002855" lon="121.0086605428429"><ele>15.0</ele><time>2026-04-19T09:44:11Z</time></trkpt><trkpt lat="14.636399048402012" lon="121.0086751363007"><ele>15.0</ele><time>2026-04-19T09:44:12Z</time></trkpt><trkpt lat="14.63622860086931" lon="121.0086917339677"><ele>15.0</ele><time>2026-04-19T09:44:13Z</time></trkpt><trkpt lat="14.636054110557172" lon="121.00871097896305"><ele>13.666666666666666</ele><time>2026-04-19T09:44:14Z</time></trkpt><trkpt lat="14.63587718784655" lon="121.0087291542591"><ele>12.333333333333332</ele><time>2026-04-19T09:44:15Z</time></trkpt><trkpt lat="14.635697571256546" lon="121.00874919691569"><ele>11.0</ele><time>2026-04-19T09:44:16Z</time></trkpt><trkpt lat="14.635515032990838" lon="121.00876768835315"><ele>11.0</ele><time>2026-04-19T09:44:17Z</time></trkpt><trkpt lat="14.635331767242112" lon="121.0087856984827"><ele>11.0</ele><time>2026-04-19T09:44:18Z</time></trkpt><trkpt lat="14.635150020550057" lon="121.00880305083601"><ele>11.0</ele><time>2026-04-19T09:44:19Z</time></trkpt><trkpt lat="14.634968085607975" lon="121.00882200862658"><ele>11.333333333333332</ele><time>2026-04-19T09:44:20Z</time></trkpt><trkpt lat="14.634784768816935" lon="121.0088403523337"><ele>11.666666666666666</ele><time>2026-04-19T09:44:21Z</time></trkpt><trkpt lat="14.634599244567385" lon="121.00885817868719"><ele>12.0</ele><time>2026-04-19T09:44:22Z</time></trkpt><trkpt lat="14.6344118017905" lon="121.00887676824348"><ele>12.0</ele><time>2026-04-19T09:44:23Z</time></trkpt><trkpt lat="14.634221007750781" lon="121.00889551120031"><ele>12.0</ele><time>2026-04-19T09:44:24Z</time></trkpt><trkpt lat="14.634029195784036" lon="121.00891416334926"><ele>12.0</ele><time>2026-04-19T09:44:25Z</time></trkpt><trkpt lat="14.633834424133592" lon="121.00893062071316"><ele>12.333333333333332</ele><time>2026-04-19T09:44:26Z</time></trkpt><trkpt lat="14.633637623360096" lon="121.00894502914248"><ele>12.666666666666666</ele><time>2026-04-19T09:44:27Z</time></trkpt><trkpt lat="14.633438410430315" lon="121.00896131550626"><ele>13.0</ele><time>2026-04-19T09:44:28Z</time></trkpt><trkpt lat="14.633239232022659" lon="121.00898489518346"><ele>13.0</ele><time>2026-04-19T09:44:29Z</time></trkpt><trkpt lat="14.633040540976223" lon="121.0090219838079"><ele>13.0</ele><time>2026-04-19T09:44:30Z</time></trkpt><trkpt lat="14.632845762155084" lon="121.00907185276527"><ele>13.0</ele><time>2026-04-19T09:44:31Z</time></trkpt><trkpt lat="14.632657047997958" lon="121.00913384693995"><ele>11.333333333333332</ele><time>2026-04-19T09:44:32Z</time></trkpt><trkpt lat="14.632473369970919" lon="121.00920862640712"><ele>9.666666666666666</ele><time>2026-04-19T09:44:33Z</time></trkpt><trkpt lat="14.632298923687559" lon="121.00929425585473"><ele>8.0</ele><time>2026-04-19T09:44:34Z</time></trkpt><trkpt lat="14.63213106767937" lon="121.00938768504717"><ele>9.333333333333332</ele><time>2026-04-19T09:44:35Z</time></trkpt><trkpt lat="14.631969943189285" lon="121.00948761221872"><ele>10.666666666666666</ele><time>2026-04-19T09:44:36Z</time></trkpt><trkpt lat="14.63181508920463" lon="121.0095951970599"><ele>12.0</ele><time>2026-04-19T09:44:37Z</time></trkpt><trkpt lat="14.631663946112484" lon="121.00970956205109"><ele>12.0</ele><time>2026-04-19T09:44:38Z</time></trkpt><trkpt lat="14.631519176421897" lon="121.00983500544734"><ele>12.0</ele><time>2026-04-19T09:44:39Z</time></trkpt><trkpt lat="14.631378458764887" lon="121.00996898811418"><ele>12.0</ele><time>2026-04-19T09:44:40Z</time></trkpt><trkpt lat="14.63124346313633" lon="121.01011164614181"><ele>12.666666666666668</ele><time>2026-04-19T09:44:41Z</time></trkpt><trkpt lat="14.631114171257554" lon="121.01026012046327"><ele>13.333333333333334</ele><time>2026-04-19T09:44:42Z</time></trkpt><trkpt lat="14.63098543535204" lon="121.01041425276958"><ele>14.0</ele><time>2026-04-19T09:44:43Z</time></trkpt><trkpt lat="14.630858278763194" lon="121.01057237072246"><ele>14.0</ele><time>2026-04-19T09:44:44Z</time></trkpt><trkpt lat="14.630731794657095" lon="121.01073271791893"><ele>14.0</ele><time>2026-04-19T09:44:45Z</time></trkpt><trkpt lat="14.630606925650719" lon="121.01089568254757"><ele>14.0</ele><time>2026-04-19T09:44:46Z</time></trkpt><trkpt lat="14.630479786308026" lon="121.01105899410518"><ele>14.0</ele><time>2026-04-19T09:44:47Z</time></trkpt><trkpt lat="14.630346746330181" lon="121.01122027332237"><ele>14.0</ele><time>2026-04-19T09:44:48Z</time></trkpt><trkpt lat="14.630206417993191" lon="121.0113781706606"><ele>14.0</ele><time>2026-04-19T09:44:49Z</time></trkpt><trkpt lat="14.63005899041245" lon="121.01153290945723"><ele>13.666666666666668</ele><time>2026-04-19T09:44:50Z</time></trkpt><trkpt lat="14.629906148842537" lon="121.01168359452721"><ele>13.333333333333332</ele><time>2026-04-19T09:44:51Z</time></trkpt><trkpt lat="14.629749640696811" lon="121.01183371072082"><ele>13.0</ele><time>2026-04-19T09:44:52Z</time></trkpt><trkpt lat="14.629591643636473" lon="121.01198374369011"><ele>13.333333333333332</ele><time>2026-04-19T09:44:53Z</time></trkpt><trkpt lat="14.629433836597808" lon="121.01213500934085"><ele>13.666666666666668</ele><time>2026-04-19T09:44:54Z</time></trkpt><trkpt lat="14.62927714083878" lon="121.01228635356186"><ele>14.0</ele><time>2026-04-19T09:44:55Z</time></trkpt><trkpt lat="14.629122423844697" lon="121.01243975619582"><ele>13.0</ele><time>2026-04-19T09:44:56Z</time></trkpt><trkpt lat="14.628968732233707" lon="121.01259373331185"><ele>12.0</ele><time>2026-04-19T09:44:57Z</time></trkpt><trkpt lat="14.628814479132368" lon="121.01274791759175"><ele>11.0</ele><time>2026-04-19T09:44:58Z</time></trkpt><trkpt lat="14.62866148049903" lon="121.01290047619743"><ele>12.0</ele><time>2026-04-19T09:44:59Z</time></trkpt><trkpt lat="14.628510293761623" lon="121.01305466729848"><ele>13.0</ele><time>2026-04-19T09:45:00Z</time></trkpt><trkpt lat="14.628360291208542" lon="121.01320860654805"><ele>14.0</ele><time>2026-04-19T09:45:01Z</time></trkpt><trkpt lat="14.628209493942624" lon="121.0133630247268"><ele>14.0</ele><time>2026-04-19T09:45:02Z</time></trkpt><trkpt lat="14.6280579812984" lon="121.01351620770268"><ele>14.0</ele><time>2026-04-19T09:45:03Z</time></trkpt><trkpt lat="14.627904829103207" lon="121.01367069957469"><ele>14.0</ele><time>2026-04-19T09:45:04Z</time></trkpt><trkpt lat="14.62775018072362" lon="121.01382632807407"><ele>14.666666666666668</ele><time>2026-04-19T09:45:05Z</time></trkpt><trkpt lat="14.627596109881425" lon="121.01398426388424"><ele>15.333333333333332</ele><time>2026-04-19T09:45:06Z</time></trkpt><trkpt lat="14.627441764762047" lon="121.01414001169735"><ele>16.0</ele><time>2026-04-19T09:45:07Z</time></trkpt><trkpt lat="14.627287406567351" lon="121.01429457021742"><ele>16.0</ele><time>2026-04-19T09:45:08Z</time></trkpt><trkpt lat="14.62713365653643" lon="121.01444700090583"><ele>16.0</ele><time>2026-04-19T09:45:09Z</time></trkpt><trkpt lat="14.626979656189725" lon="121.01459710724257"><ele>16.0</ele><time>2026-04-19T09:45:10Z</time></trkpt><trkpt lat="14.626822727483892" lon="121.01474245633344"><ele>15.666666666666666</ele><time>2026-04-19T09:45:11Z</time></trkpt><trkpt lat="14.626661225032128" lon="121.0148775743793"><ele>15.333333333333332</ele><time>2026-04-19T09:45:12Z</time></trkpt><trkpt lat="14.62649434131038" lon="121.01500216604319"><ele>15.0</ele><time>2026-04-19T09:45:13Z</time></trkpt><trkpt lat="14.62632076427628" lon="121.01511529966321"><ele>14.666666666666668</ele><time>2026-04-19T09:45:14Z</time></trkpt><trkpt lat="14.626139557794103" lon="121.01521340248719"><ele>14.333333333333334</ele><time>2026-04-19T09:45:15Z</time></trkpt><trkpt lat="14.625951621963646" lon="121.0152979801563"><ele>14.0</ele><time>2026-04-19T09:45:16Z</time></trkpt><trkpt lat="14.625758377043779" lon="121.01536225726971"><ele>14.0</ele><time>2026-04-19T09:45:17Z</time></trkpt><trkpt lat="14.6255613621422" lon="121.01540846262981"><ele>14.0</ele><time>2026-04-19T09:45:18Z</time></trkpt><trkpt lat="14.625361062005457" lon="121.01543663470576"><ele>14.0</ele><time>2026-04-19T09:45:19Z</time></trkpt><trkpt lat="14.625160451692945" lon="121.01544696134714"><ele>13.666666666666668</ele><time>2026-04-19T09:45:20Z</time></trkpt><trkpt lat="14.624959663957458" lon="121.01544726162568"><ele>13.333333333333332</ele><time>2026-04-19T09:45:21Z</time></trkpt><trkpt lat="14.62475794835931" lon="121.01543983665715"><ele>13.0</ele><time>2026-04-19T09:45:22Z</time></trkpt><trkpt lat="14.624555500086704" lon="121.01542448938213"><ele>12.333333333333332</ele><time>2026-04-19T09:45:23Z</time></trkpt><trkpt lat="14.62435028957556" lon="121.01540523972024"><ele>11.666666666666666</ele><time>2026-04-19T09:45:24Z</time></trkpt><trkpt lat="14.624143908781605" lon="121.01538259630257"><ele>11.0</ele><time>2026-04-19T09:45:25Z</time></trkpt><trkpt lat="14.623935933009701" lon="121.01536086754703"><ele>11.0</ele><time>2026-04-19T09:45:26Z</time></trkpt><trkpt lat="14.623726004361364" lon="121.01533627334575"><ele>11.0</ele><time>2026-04-19T09:45:27Z</time></trkpt><trkpt lat="14.623515257125918" lon="121.01531369665963"><ele>11.0</ele><time>2026-04-19T09:45:28Z</time></trkpt><trkpt lat="14.623301762318306" lon="121.01529043875132"><ele>11.0</ele><time>2026-04-19T09:45:29Z</time></trkpt><trkpt lat="14.623085950163668" lon="121.01526616043037"><ele>11.0</ele><time>2026-04-19T09:45:30Z</time></trkpt><trkpt lat="14.622867180253062" lon="121.01524216337236"><ele>11.0</ele><time>2026-04-19T09:45:31Z</time></trkpt><trkpt lat="14.622646051642432" lon="121.01521741600558"><ele>11.0</ele><time>2026-04-19T09:45:32Z</time></trkpt><trkpt lat="14.622423282290937" lon="121.0151918725556"><ele>11.0</ele><time>2026-04-19T09:45:33Z</time></trkpt><trkpt lat="14.622199523851439" lon="121.0151667389369"><ele>11.0</ele><time>2026-04-19T09:45:34Z</time></trkpt><trkpt lat="14.62197635001595" lon="121.0151402072753"><ele>10.333333333333332</ele><time>2026-04-19T09:45:35Z</time></trkpt><trkpt lat="14.621753349171554" lon="121.01511323467727"><ele>9.666666666666666</ele><time>2026-04-19T09:45:36Z</time></trkpt><trkpt lat="14.621531664187138" lon="121.01508766706398"><ele>9.0</ele><time>2026-04-19T09:45:37Z</time></trkpt><trkpt lat="14.621313920292847" lon="121.01506203331158"><ele>8.666666666666666</ele><time>2026-04-19T09:45:38Z</time></trkpt><trkpt lat="14.62109716156229" lon="121.01503753702485"><ele>8.333333333333332</ele><time>2026-04-19T09:45:39Z</time></trkpt><trkpt lat="14.620881688703944" lon="121.01501194625676"><ele>8.0</ele><time>2026-04-19T09:45:40Z</time></trkpt><trkpt lat="14.620669330477318" lon="121.01498630321412"><ele>8.333333333333332</ele><time>2026-04-19T09:45:41Z</time></trkpt><trkpt lat="14.620459239067733" lon="121.0149603573025"><ele>8.666666666666666</ele><time>2026-04-19T09:45:42Z</time></trkpt><trkpt lat="14.620258183462322" lon="121.01493674277017"><ele>9.0</ele><time>2026-04-19T09:45:43Z</time></trkpt><trkpt lat="14.620064823631738" lon="121.01491348645196"><ele>9.0</ele><time>2026-04-19T09:45:44Z</time></trkpt><trkpt lat="14.619876245470328" lon="121.01489119850537"><ele>9.0</ele><time>2026-04-19T09:45:45Z</time></trkpt><trkpt lat="14.61968946738083" lon="121.01486987711823"><ele>9.0</ele><time>2026-04-19T09:45:46Z</time></trkpt><trkpt lat="14.61950814100407" lon="121.01485339882737"><ele>9.666666666666666</ele><time>2026-04-19T09:45:47Z</time></trkpt><trkpt lat="14.619328556905614" lon="121.01484453680196"><ele>10.333333333333332</ele><time>2026-04-19T09:45:48Z</time></trkpt><trkpt lat="14.619150826534204" lon="121.0148421397999"><ele>11.0</ele><time>2026-04-19T09:45:49Z</time></trkpt><trkpt lat="14.618973107113924" lon="121.014847789694"><ele>11.0</ele><time>2026-04-19T09:45:50Z</time></trkpt><trkpt lat="14.618797077712905" lon="121.01486448394358"><ele>11.0</ele><time>2026-04-19T09:45:51Z</time></trkpt><trkpt lat="14.61862434532834" lon="121.01489486176352"><ele>11.0</ele><time>2026-04-19T09:45:52Z</time></trkpt><trkpt lat="14.618457096068685" lon="121.01493548912545"><ele>11.0</ele><time>2026-04-19T09:45:53Z</time></trkpt><trkpt lat="14.618295350830243" lon="121.01498460007973"><ele>11.0</ele><time>2026-04-19T09:45:54Z</time></trkpt><trkpt lat="14.618137179078468" lon="121.01504072377601"><ele>11.0</ele><time>2026-04-19T09:45:55Z</time></trkpt><trkpt lat="14.617982804302272" lon="121.01510886713818"><ele>11.0</ele><time>2026-04-19T09:45:56Z</time></trkpt><trkpt lat="14.617831725060197" lon="121.01518682505932"><ele>11.0</ele><time>2026-04-19T09:45:57Z</time></trkpt><trkpt lat="14.617686110625707" lon="121.01527402581908"><ele>11.0</ele><time>2026-04-19T09:45:58Z</time></trkpt><trkpt lat="14.617541940985525" lon="121.01536579074161"><ele>11.333333333333332</ele><time>2026-04-19T09:45:59Z</time></trkpt><trkpt lat="14.617398715096575" lon="121.0154589245361"><ele>11.666666666666666</ele><time>2026-04-19T09:46:00Z</time></trkpt><trkpt lat="14.617256463933964" lon="121.01555485705336"><ele>12.0</ele><time>2026-04-19T09:46:01Z</time></trkpt><trkpt lat="14.617111358928403" lon="121.0156536105107"><ele>12.333333333333332</ele><time>2026-04-19T09:46:02Z</time></trkpt><trkpt lat="14.616967222022524" lon="121.01575170208024"><ele>12.666666666666666</ele><time>2026-04-19T09:46:03Z</time></trkpt><trkpt lat="14.616824170029188" lon="121.01585075112781"><ele>13.0</ele><time>2026-04-19T09:46:04Z</time></trkpt><trkpt lat="14.616682521564634" lon="121.01594834911602"><ele>12.0</ele><time>2026-04-19T09:46:05Z</time></trkpt><trkpt lat="14.61654195932053" lon="121.01604490819099"><ele>11.0</ele><time>2026-04-19T09:46:06Z</time></trkpt><trkpt lat="14.61640028530484" lon="121.01614138003254"><ele>10.0</ele><time>2026-04-19T09:46:07Z</time></trkpt><trkpt lat="14.616258081004615" lon="121.016232350366"><ele>11.0</ele><time>2026-04-19T09:46:08Z</time></trkpt><trkpt lat="14.616112259717358" lon="121.01631972850325"><ele>12.0</ele><time>2026-04-19T09:46:09Z</time></trkpt><trkpt lat="14.615962907605843" lon="121.0163977723757"><ele>13.0</ele><time>2026-04-19T09:46:10Z</time></trkpt><trkpt lat="14.615810488944875" lon="121.01646743008206"><ele>13.0</ele><time>2026-04-19T09:46:11Z</time></trkpt><trkpt lat="14.615651012735842" lon="121.0165334824914"><ele>13.0</ele><time>2026-04-19T09:46:12Z</time></trkpt><trkpt lat="14.615490211988563" lon="121.0165902423783"><ele>13.0</ele><time>2026-04-19T09:46:13Z</time></trkpt><trkpt lat="14.615326432947175" lon="121.01663606646997"><ele>12.666666666666666</ele><time>2026-04-19T09:46:14Z</time></trkpt><trkpt lat="14.615161516137823" lon="121.01667137393163"><ele>12.333333333333332</ele><time>2026-04-19T09:46:15Z</time></trkpt><trkpt lat="14.614995289565265" lon="121.01669796984666"><ele>12.0</ele><time>2026-04-19T09:46:16Z</time></trkpt><trkpt lat="14.614827566359331" lon="121.01672105823053"><ele>12.0</ele><time>2026-04-19T09:46:17Z</time></trkpt><trkpt lat="14.614659789450382" lon="121.01673607424313"><ele>12.0</ele><time>2026-04-19T09:46:18Z</time></trkpt><trkpt lat="14.614488509858528" lon="121.01674837757716"><ele>12.0</ele><time>2026-04-19T09:46:19Z</time></trkpt><trkpt lat="14.61431856329369" lon="121.01675826810435"><ele>11.0</ele><time>2026-04-19T09:46:20Z</time></trkpt><trkpt lat="14.614148423637703" lon="121.01676830629373"><ele>10.0</ele><time>2026-04-19T09:46:21Z</time></trkpt><trkpt lat="14.613975854756664" lon="121.01677669268095"><ele>9.0</ele><time>2026-04-19T09:46:22Z</time></trkpt><trkpt lat="14.613801931074796" lon="121.01678536437419"><ele>10.0</ele><time>2026-04-19T09:46:23Z</time></trkpt><trkpt lat="14.613627430289146" lon="121.01679469068027"><ele>11.0</ele><time>2026-04-19T09:46:24Z</time></trkpt><trkpt lat="14.613450957945359" lon="121.01680190452151"><ele>12.0</ele><time>2026-04-19T09:46:25Z</time></trkpt><trkpt lat="14.613275910598366" lon="121.01680815612127"><ele>12.0</ele><time>2026-04-19T09:46:26Z</time></trkpt><trkpt lat="14.61310084228418" lon="121.01681269376536"><ele>12.0</ele><time>2026-04-19T09:46:27Z</time></trkpt><trkpt lat="14.612924301964998" lon="121.01681540242157"><ele>12.0</ele><time>2026-04-19T09:46:28Z</time></trkpt><trkpt lat="14.612748292191746" lon="121.01681790157295"><ele>10.333333333333334</ele><time>2026-04-19T09:46:29Z</time></trkpt><trkpt lat="14.612573368795776" lon="121.01682209322237"><ele>8.666666666666668</ele><time>2026-04-19T09:46:30Z</time></trkpt><trkpt lat="14.612399109327598" lon="121.01682638482521"><ele>7.0</ele><time>2026-04-19T09:46:31Z</time></trkpt><trkpt lat="14.612226499547758" lon="121.01683181060206"><ele>7.0</ele><time>2026-04-19T09:46:32Z</time></trkpt><trkpt lat="14.612052652929663" lon="121.01683834247731"><ele>7.0</ele><time>2026-04-19T09:46:33Z</time></trkpt><trkpt lat="14.611878150692496" lon="121.01684668581333"><ele>7.0</ele><time>2026-04-19T09:46:34Z</time></trkpt><trkpt lat="14.61170173543859" lon="121.01685453249682"><ele>7.333333333333334</ele><time>2026-04-19T09:46:35Z</time></trkpt><trkpt lat="14.611524248078945" lon="121.01686267640046"><ele>7.666666666666666</ele><time>2026-04-19T09:46:36Z</time></trkpt><trkpt lat="14.611344177261254" lon="121.0168721482566"><ele>8.0</ele><time>2026-04-19T09:46:37Z</time></trkpt><trkpt lat="14.611164657938483" lon="121.01688220052375"><ele>9.0</ele><time>2026-04-19T09:46:38Z</time></trkpt><trkpt lat="14.610985052582564" lon="121.01689213774128"><ele>10.0</ele><time>2026-04-19T09:46:39Z</time></trkpt><trkpt lat="14.610805132592372" lon="121.01690233870859"><ele>11.0</ele><time>2026-04-19T09:46:40Z</time></trkpt><trkpt lat="14.610624711706281" lon="121.01691167075965"><ele>11.0</ele><time>2026-04-19T09:46:41Z</time></trkpt><trkpt lat="14.610443724776681" lon="121.01691898483652"><ele>11.0</ele><time>2026-04-19T09:46:42Z</time></trkpt><trkpt lat="14.610261946455944" lon="121.01692679593219"><ele>11.0</ele><time>2026-04-19T09:46:43Z</time></trkpt><trkpt lat="14.610080217516096" lon="121.01693440277752"><ele>10.0</ele><time>2026-04-19T09:46:44Z</time></trkpt><trkpt lat="14.609896944665836" lon="121.016943449769"><ele>9.0</ele><time>2026-04-19T09:46:45Z</time></trkpt><trkpt lat="14.609714019132435" lon="121.016952606967"><ele>8.0</ele><time>2026-04-19T09:46:46Z</time></trkpt><trkpt lat="14.60953002844415" lon="121.01696175686624"><ele>7.666666666666666</ele><time>2026-04-19T09:46:47Z</time></trkpt><trkpt lat="14.60934475927079" lon="121.01697081900711"><ele>7.333333333333334</ele><time>2026-04-19T09:46:48Z</time></trkpt><trkpt lat="14.609159574717062" lon="121.01698016922856"><ele>7.0</ele><time>2026-04-19T09:46:49Z</time></trkpt><trkpt lat="14.608976238030573" lon="121.01698859768989"><ele>7.0</ele><time>2026-04-19T09:46:50Z</time></trkpt><trkpt lat="14.60879292133326" lon="121.01699858033219"><ele>7.0</ele><time>2026-04-19T09:46:51Z</time></trkpt><trkpt lat="14.608610913443528" lon="121.0170101307015"><ele>7.0</ele><time>2026-04-19T09:46:52Z</time></trkpt><trkpt lat="14.608430027212938" lon="121.01702503315"><ele>7.333333333333334</ele><time>2026-04-19T09:46:53Z</time></trkpt><trkpt lat="14.60824999090084" lon="121.01704455559008"><ele>7.666666666666666</ele><time>2026-04-19T09:46:54Z</time></trkpt><trkpt lat="14.60807299796942" lon="121.01707087249258"><ele>8.0</ele><time>2026-04-19T09:46:55Z</time></trkpt><trkpt lat="14.607898806468137" lon="121.01710282816481"><ele>9.333333333333332</ele><time>2026-04-19T09:46:56Z</time></trkpt><trkpt lat="14.607730249860207" lon="121.01714639623052"><ele>10.666666666666666</ele><time>2026-04-19T09:46:57Z</time></trkpt><trkpt lat="14.607565426663363" lon="121.01719763538955"><ele>12.0</ele><time>2026-04-19T09:46:58Z</time></trkpt><trkpt lat="14.607403782844592" lon="121.01725754547573"><ele>12.0</ele><time>2026-04-19T09:46:59Z</time></trkpt><trkpt lat="14.607247448269339" lon="121.01732482355858"><ele>12.0</ele><time>2026-04-19T09:47:00Z</time></trkpt><trkpt lat="14.607096570127938" lon="121.01740163459542"><ele>12.0</ele><time>2026-04-19T09:47:01Z</time></trkpt><trkpt lat="14.606950932026756" lon="121.01748822740146"><ele>12.0</ele><time>2026-04-19T09:47:02Z</time></trkpt><trkpt lat="14.606812610673664" lon="121.01758059832756"><ele>12.0</ele><time>2026-04-19T09:47:03Z</time></trkpt><trkpt lat="14.606681499530318" lon="121.01767748526512"><ele>12.0</ele><time>2026-04-19T09:47:04Z</time></trkpt><trkpt lat="14.606560498647534" lon="121.01777610614396"><ele>12.0</ele><time>2026-04-19T09:47:05Z</time></trkpt><trkpt lat="14.606443621229573" lon="121.01787603055229"><ele>12.0</ele><time>2026-04-19T09:47:06Z</time></trkpt><trkpt lat="14.60633050060091" lon="121.01797890242592"><ele>12.0</ele><time>2026-04-19T09:47:07Z</time></trkpt><trkpt lat="14.606220941480046" lon="121.01808378494988"><ele>11.666666666666666</ele><time>2026-04-19T09:47:08Z</time></trkpt><trkpt lat="14.606110128121099" lon="121.0181912950169"><ele>11.333333333333332</ele><time>2026-04-19T09:47:09Z</time></trkpt><trkpt lat="14.605997719798712" lon="121.01829922329657"><ele>11.0</ele><time>2026-04-19T09:47:10Z</time></trkpt><trkpt lat="14.605881739763282" lon="121.01840817380324"><ele>11.0</ele><time>2026-04-19T09:47:11Z</time></trkpt><trkpt lat="14.605765942607535" lon="121.01852032758991"><ele>11.0</ele><time>2026-04-19T09:47:12Z</time></trkpt><trkpt lat="14.605647588730031" lon="121.0186357927177"><ele>11.0</ele><time>2026-04-19T09:47:13Z</time></trkpt><trkpt lat="14.6055272071866" lon="121.01875392713177"><ele>11.0</ele><time>2026-04-19T09:47:14Z</time></trkpt><trkpt lat="14.605406142179328" lon="121.01887072672905"><ele>11.0</ele><time>2026-04-19T09:47:15Z</time></trkpt><trkpt lat="14.605285618628596" lon="121.01898837402895"><ele>11.0</ele><time>2026-04-19T09:47:16Z</time></trkpt><trkpt lat="14.605165717173227" lon="121.01910779179009"><ele>10.666666666666666</ele><time>2026-04-19T09:47:17Z</time></trkpt><trkpt lat="14.605046838819606" lon="121.01922669307258"><ele>10.333333333333334</ele><time>2026-04-19T09:47:18Z</time></trkpt><trkpt lat="14.604930711751566" lon="121.01934387797102"><ele>10.0</ele><time>2026-04-19T09:47:19Z</time></trkpt><trkpt lat="14.604816759406791" lon="121.01945628928614"><ele>10.0</ele><time>2026-04-19T09:47:20Z</time></trkpt><trkpt lat="14.604702662049228" lon="121.01956255754097"><ele>10.0</ele><time>2026-04-19T09:47:21Z</time></trkpt><trkpt lat="14.604583348362963" lon="121.0196586906075"><ele>10.0</ele><time>2026-04-19T09:47:22Z</time></trkpt><trkpt lat="14.604456874022196" lon="121.0197372265289"><ele>12.0</ele><time>2026-04-19T09:47:23Z</time></trkpt><trkpt lat="14.604325968204295" lon="121.01979527102112"><ele>14.0</ele><time>2026-04-19T09:47:24Z</time></trkpt><trkpt lat="14.604189270162262" lon="121.01983512491027"><ele>16.0</ele><time>2026-04-19T09:47:25Z</time></trkpt><trkpt lat="14.604052621672741" lon="121.01985097716663"><ele>18.0</ele><time>2026-04-19T09:47:26Z</time></trkpt><trkpt lat="14.603915937715433" lon="121.01984762003988"><ele>18.0</ele><time>2026-04-19T09:47:27Z</time></trkpt><trkpt lat="14.603778740977107" lon="121.01982957709306"><ele>18.0</ele><time>2026-04-19T09:47:28Z</time></trkpt><trkpt lat="14.603640385454133" lon="121.01979961836159"><ele>18.0</ele><time>2026-04-19T09:47:29Z</time></trkpt><trkpt lat="14.6035012171881" lon="121.0197617054671"><ele>18.0</ele><time>2026-04-19T09:47:30Z</time></trkpt><trkpt lat="14.603360140034647" lon="121.01972476236051"><ele>15.5</ele><time>2026-04-19T09:47:31Z</time></trkpt><trkpt lat="14.603215943794998" lon="121.01968849050435"><ele>13.0</ele><time>2026-04-19T09:47:32Z</time></trkpt><trkpt lat="14.603074248393426" lon="121.01965343435904"><ele>10.5</ele><time>2026-04-19T09:47:33Z</time></trkpt><trkpt lat="14.602930240233192" lon="121.01961682678909"><ele>8.0</ele><time>2026-04-19T09:47:34Z</time></trkpt><trkpt lat="14.602786579788983" lon="121.01958718625191"><ele>7.5</ele><time>2026-04-19T09:47:35Z</time></trkpt><trkpt lat="14.602642761951047" lon="121.01957186008057"><ele>7.0</ele><time>2026-04-19T09:47:36Z</time></trkpt><trkpt lat="14.602497050020949" lon="121.0195710432211"><ele>6.5</ele><time>2026-04-19T09:47:37Z</time></trkpt><trkpt lat="14.602348998381457" lon="121.01956564325998"><ele>6.0</ele><time>2026-04-19T09:47:38Z</time></trkpt><trkpt lat="14.602207306704011" lon="121.01962250762763"><ele>6.0</ele><time>2026-04-19T09:47:39Z</time></trkpt><trkpt lat="14.60206712327071" lon="121.01967523572237"><ele>6.0</ele><time>2026-04-19T09:47:40Z</time></trkpt><trkpt lat="14.601932454274834" lon="121.01974424028221"><ele>6.0</ele><time>2026-04-19T09:47:41Z</time></trkpt><trkpt lat="14.601803974335866" lon="121.01982803446758"><ele>6.333333333333334</ele><time>2026-04-19T09:47:42Z</time></trkpt><trkpt lat="14.601685270884657" lon="121.01992949840945"><ele>6.666666666666667</ele><time>2026-04-19T09:47:43Z</time></trkpt><trkpt lat="14.601580410817126" lon="121.02004631824504"><ele>7.0</ele><time>2026-04-19T09:47:44Z</time></trkpt><trkpt lat="14.601488211786833" lon="121.02017536524556"><ele>5.666666666666667</ele><time>2026-04-19T09:47:45Z</time></trkpt><trkpt lat="14.601401925075004" lon="121.02031288688461"><ele>4.333333333333334</ele><time>2026-04-19T09:47:46Z</time></trkpt><trkpt lat="14.601316222048583" lon="121.02045580183862"><ele>3.0</ele><time>2026-04-19T09:47:47Z</time></trkpt><trkpt lat="14.60122690859044" lon="121.02060183204253"><ele>4.0</ele><time>2026-04-19T09:47:48Z</time></trkpt><trkpt lat="14.601134590289112" lon="121.02075031626423"><ele>5.0</ele><time>2026-04-19T09:47:49Z</time></trkpt><trkpt lat="14.601041814895044" lon="121.02090182396338"><ele>6.0</ele><time>2026-04-19T09:47:50Z</time></trkpt><trkpt lat="14.60094596311951" lon="121.02105685142169"><ele>6.333333333333334</ele><time>2026-04-19T09:47:51Z</time></trkpt><trkpt lat="14.600848363396876" lon="121.0212130895414"><ele>6.666666666666667</ele><time>2026-04-19T09:47:52Z</time></trkpt><trkpt lat="14.600749151552082" lon="121.02137219202659"><ele>7.0</ele><time>2026-04-19T09:47:53Z</time></trkpt><trkpt lat="14.600648912361693" lon="121.02153468628066"><ele>6.333333333333334</ele><time>2026-04-19T09:47:54Z</time></trkpt><trkpt lat="14.600546681310318" lon="121.02170125591246"><ele>5.666666666666667</ele><time>2026-04-19T09:47:55Z</time></trkpt><trkpt lat="14.600443380563775" lon="121.0218696539935"><ele>5.0</ele><time>2026-04-19T09:47:56Z</time></trkpt><trkpt lat="14.600339062887485" lon="121.02204108247018"><ele>6.333333333333334</ele><time>2026-04-19T09:47:57Z</time></trkpt><trkpt lat="14.600232512413474" lon="121.02221269247586"><ele>7.666666666666667</ele><time>2026-04-19T09:47:58Z</time></trkpt><trkpt lat="14.60012365657803" lon="121.02238577935205"><ele>9.0</ele><time>2026-04-19T09:47:59Z</time></trkpt><trkpt lat="14.600015461988475" lon="121.02255805228978"><ele>9.0</ele><time>2026-04-19T09:48:00Z</time></trkpt><trkpt lat="14.599908213947572" lon="121.02272932434857"><ele>9.0</ele><time>2026-04-19T09:48:01Z</time></trkpt><trkpt lat="14.599802042747823" lon="121.02289746153576"><ele>9.0</ele><time>2026-04-19T09:48:02Z</time></trkpt><trkpt lat="14.59969256918362" lon="121.02306110903892"><ele>9.0</ele><time>2026-04-19T09:48:03Z</time></trkpt><trkpt lat="14.599573826796094" lon="121.02321714020918"><ele>9.0</ele><time>2026-04-19T09:48:04Z</time></trkpt><trkpt lat="14.599443187712733" lon="121.02336300640545"><ele>9.0</ele><time>2026-04-19T09:48:05Z</time></trkpt><trkpt lat="14.59929811671105" lon="121.02349293148289"><ele>8.333333333333334</ele><time>2026-04-19T09:48:06Z</time></trkpt><trkpt lat="14.599143877092398" lon="121.02361083110021"><ele>7.666666666666667</ele><time>2026-04-19T09:48:07Z</time></trkpt><trkpt lat="14.598981048626612" lon="121.02371883759277"><ele>7.0</ele><time>2026-04-19T09:48:08Z</time></trkpt><trkpt lat="14.598818112459735" lon="121.0238235499235"><ele>7.666666666666667</ele><time>2026-04-19T09:48:09Z</time></trkpt><trkpt lat="14.598655749651847" lon="121.02392584176616"><ele>8.333333333333334</ele><time>2026-04-19T09:48:10Z</time></trkpt><trkpt lat="14.598491308016122" lon="121.0240278730692"><ele>9.0</ele><time>2026-04-19T09:48:11Z</time></trkpt><trkpt lat="14.598326280247917" lon="121.02412941359988"><ele>8.0</ele><time>2026-04-19T09:48:12Z</time></trkpt><trkpt lat="14.598162148704715" lon="121.02423145973502"><ele>7.0</ele><time>2026-04-19T09:48:13Z</time></trkpt><trkpt lat="14.597997759727766" lon="121.02433466974647"><ele>6.0</ele><time>2026-04-19T09:48:14Z</time></trkpt><trkpt lat="14.597832251434674" lon="121.02443881219456"><ele>5.333333333333333</ele><time>2026-04-19T09:48:15Z</time></trkpt><trkpt lat="14.597665013813284" lon="121.02454159115962"><ele>4.666666666666666</ele><time>2026-04-19T09:48:16Z</time></trkpt><trkpt lat="14.597496246056362" lon="121.02464124412715"><ele>4.0</ele><time>2026-04-19T09:48:17Z</time></trkpt><trkpt lat="14.597325160502402" lon="121.02473744252566"><ele>4.0</ele><time>2026-04-19T09:48:18Z</time></trkpt><trkpt lat="14.597152206573826" lon="121.02483037860786"><ele>4.0</ele><time>2026-04-19T09:48:19Z</time></trkpt><trkpt lat="14.596976493620334" lon="121.02492095078621"><ele>4.0</ele><time>2026-04-19T09:48:20Z</time></trkpt><trkpt lat="14.596801093283982" lon="121.02500801970699"><ele>4.0</ele><time>2026-04-19T09:48:21Z</time></trkpt><trkpt lat="14.596620988888215" lon="121.02509242640583"><ele>4.0</ele><time>2026-04-19T09:48:22Z</time></trkpt><trkpt lat="14.59643875566003" lon="121.02517330100113"><ele>4.0</ele><time>2026-04-19T09:48:23Z</time></trkpt><trkpt lat="14.596254340199723" lon="121.02525563603409"><ele>4.666666666666666</ele><time>2026-04-19T09:48:24Z</time></trkpt><trkpt lat="14.596071119597335" lon="121.02533859085548"><ele>5.333333333333333</ele><time>2026-04-19T09:48:25Z</time></trkpt><trkpt lat="14.595888836309797" lon="121.02542222613333"><ele>6.0</ele><time>2026-04-19T09:48:26Z</time></trkpt><trkpt lat="14.595708330632277" lon="121.02550528120594"><ele>6.0</ele><time>2026-04-19T09:48:27Z</time></trkpt><trkpt lat="14.595528430750253" lon="121.02558732219687"><ele>6.0</ele><time>2026-04-19T09:48:28Z</time></trkpt><trkpt lat="14.595349866740932" lon="121.02566761265612"><ele>6.0</ele><time>2026-04-19T09:48:29Z</time></trkpt><trkpt lat="14.595172557277948" lon="121.02574637392257"><ele>5.0</ele><time>2026-04-19T09:48:30Z</time></trkpt><trkpt lat="14.594993975237786" lon="121.02581701190415"><ele>4.0</ele><time>2026-04-19T09:48:31Z</time></trkpt><trkpt lat="14.594815927770833" lon="121.0258752553726"><ele>3.0</ele><time>2026-04-19T09:48:32Z</time></trkpt><trkpt lat="14.594638293525007" lon="121.02591781518183"><ele>3.0</ele><time>2026-04-19T09:48:33Z</time></trkpt><trkpt lat="14.594461633742293" lon="121.02594584906016"><ele>3.0</ele><time>2026-04-19T09:48:34Z</time></trkpt><trkpt lat="14.594287761042247" lon="121.0259566240781"><ele>3.0</ele><time>2026-04-19T09:48:35Z</time></trkpt><trkpt lat="14.594116046383848" lon="121.02595352681459"><ele>3.0</ele><time>2026-04-19T09:48:36Z</time></trkpt><trkpt lat="14.593948258770707" lon="121.02593604573927"><ele>3.0</ele><time>2026-04-19T09:48:37Z</time></trkpt><trkpt lat="14.593784388484083" lon="121.02590618940114"><ele>3.0</ele><time>2026-04-19T09:48:38Z</time></trkpt><trkpt lat="14.593623817745346" lon="121.0258637906186"><ele>3.666666666666667</ele><time>2026-04-19T09:48:39Z</time></trkpt><trkpt lat="14.593468744163452" lon="121.025811972498"><ele>4.333333333333334</ele><time>2026-04-19T09:48:40Z</time></trkpt><trkpt lat="14.593320585741163" lon="121.02575078554926"><ele>5.0</ele><time>2026-04-19T09:48:41Z</time></trkpt><trkpt lat="14.59317748680805" lon="121.02567971778814"><ele>5.0</ele><time>2026-04-19T09:48:42Z</time></trkpt><trkpt lat="14.59304192506531" lon="121.02560092216416"><ele>5.0</ele><time>2026-04-19T09:48:43Z</time></trkpt><trkpt lat="14.592912175405557" lon="121.02551297959984"><ele>5.0</ele><time>2026-04-19T09:48:44Z</time></trkpt><trkpt lat="14.592793419570942" lon="121.02541743968072"><ele>5.0</ele><time>2026-04-19T09:48:45Z</time></trkpt><trkpt lat="14.592681368494144" lon="121.02531494285674"><ele>5.0</ele><time>2026-04-19T09:48:46Z</time></trkpt><trkpt lat="14.592575684291402" lon="121.02520567735596"><ele>5.0</ele><time>2026-04-19T09:48:47Z</time></trkpt><trkpt lat="14.592477544828256" lon="121.02508815355893"><ele>5.0</ele><time>2026-04-19T09:48:48Z</time></trkpt><trkpt lat="14.592387044712677" lon="121.02496650956948"><ele>5.0</ele><time>2026-04-19T09:48:49Z</time></trkpt><trkpt lat="14.592301814742958" lon="121.02484504239176"><ele>5.0</ele><time>2026-04-19T09:48:50Z</time></trkpt><trkpt lat="14.59221812096165" lon="121.0247219410417"><ele>5.0</ele><time>2026-04-19T09:48:51Z</time></trkpt><trkpt lat="14.592136116768836" lon="121.02460622701982"><ele>5.0</ele><time>2026-04-19T09:48:52Z</time></trkpt><trkpt lat="14.59205202850377" lon="121.02449460321539"><ele>5.5</ele><time>2026-04-19T09:48:53Z</time></trkpt><trkpt lat="14.591965057083197" lon="121.02437755933099"><ele>6.0</ele><time>2026-04-19T09:48:54Z</time></trkpt><trkpt lat="14.5918770788328" lon="121.02425820439468"><ele>6.5</ele><time>2026-04-19T09:48:55Z</time></trkpt><trkpt lat="14.591786031231644" lon="121.02413624778396"><ele>7.0</ele><time>2026-04-19T09:48:56Z</time></trkpt><trkpt lat="14.591689957006718" lon="121.02401223312347"><ele>5.666666666666667</ele><time>2026-04-19T09:48:57Z</time></trkpt><trkpt lat="14.591588054350755" lon="121.02388971082519"><ele>4.333333333333334</ele><time>2026-04-19T09:48:58Z</time></trkpt><trkpt lat="14.59148128304202" lon="121.02376587883289"><ele>3.0</ele><time>2026-04-19T09:48:59Z</time></trkpt><trkpt lat="14.591368408949405" lon="121.02364304543869"><ele>3.0</ele><time>2026-04-19T09:49:00Z</time></trkpt><trkpt lat="14.591251006464146" lon="121.02352036391177"><ele>3.0</ele><time>2026-04-19T09:49:01Z</time></trkpt><trkpt lat="14.591131765983164" lon="121.02339670480343"><ele>3.0</ele><time>2026-04-19T09:49:02Z</time></trkpt><trkpt lat="14.591013984304354" lon="121.02327094723947"><ele>3.333333333333333</ele><time>2026-04-19T09:49:03Z</time></trkpt><trkpt lat="14.59089746308519" lon="121.02314218824702"><ele>3.6666666666666665</ele><time>2026-04-19T09:49:04Z</time></trkpt><trkpt lat="14.590783084638558" lon="121.02301055173774"><ele>4.0</ele><time>2026-04-19T09:49:05Z</time></trkpt><trkpt lat="14.590671961504777" lon="121.02287743958182"><ele>4.0</ele><time>2026-04-19T09:49:06Z</time></trkpt><trkpt lat="14.590565459565754" lon="121.02274337289217"><ele>4.0</ele><time>2026-04-19T09:49:07Z</time></trkpt><trkpt lat="14.590459467352945" lon="121.02260719603274"><ele>4.0</ele><time>2026-04-19T09:49:08Z</time></trkpt><trkpt lat="14.590358598063887" lon="121.02247033022799"><ele>4.0</ele><time>2026-04-19T09:49:09Z</time></trkpt><trkpt lat="14.590260360357272" lon="121.02233224216626"><ele>4.0</ele><time>2026-04-19T09:49:10Z</time></trkpt><trkpt lat="14.590167398299874" lon="121.02219377606626"><ele>4.0</ele><time>2026-04-19T09:49:11Z</time></trkpt><trkpt lat="14.590077613548493" lon="121.02205491483545"><ele>4.0</ele><time>2026-04-19T09:49:12Z</time></trkpt><trkpt lat="14.58999307585355" lon="121.02191652050887"><ele>4.0</ele><time>2026-04-19T09:49:13Z</time></trkpt><trkpt lat="14.589909657219357" lon="121.02177736990707"><ele>4.0</ele><time>2026-04-19T09:49:14Z</time></trkpt><trkpt lat="14.58983263438899" lon="121.02163817140205"><ele>4.0</ele><time>2026-04-19T09:49:15Z</time></trkpt><trkpt lat="14.589761241357166" lon="121.02150269602843"><ele>4.0</ele><time>2026-04-19T09:49:16Z</time></trkpt><trkpt lat="14.589693316488109" lon="121.02136859195411"><ele>4.0</ele><time>2026-04-19T09:49:17Z</time></trkpt><trkpt lat="14.58962832335195" lon="121.02123635072125"><ele>4.0</ele><time>2026-04-19T09:49:18Z</time></trkpt><trkpt lat="14.589565938744368" lon="121.02110413907351"><ele>3.75</ele><time>2026-04-19T09:49:19Z</time></trkpt><trkpt lat="14.589506474246633" lon="121.02097202081633"><ele>3.5</ele><time>2026-04-19T09:49:20Z</time></trkpt><trkpt lat="14.58944596210019" lon="121.02083849825704"><ele>3.25</ele><time>2026-04-19T09:49:21Z</time></trkpt><trkpt lat="14.58938383464242" lon="121.02070168030136"><ele>3.0</ele><time>2026-04-19T09:49:22Z</time></trkpt><trkpt lat="14.589321933731572" lon="121.0205632813373"><ele>3.5</ele><time>2026-04-19T09:49:23Z</time></trkpt><trkpt lat="14.58926331090205" lon="121.02042303568444"><ele>4.0</ele><time>2026-04-19T09:49:24Z</time></trkpt><trkpt lat="14.589207892142852" lon="121.02028085488652"><ele>4.5</ele><time>2026-04-19T09:49:25Z</time></trkpt><trkpt lat="14.589156290075065" lon="121.0201378302479"><ele>5.0</ele><time>2026-04-19T09:49:26Z</time></trkpt><trkpt lat="14.589107657710533" lon="121.01999430396765"><ele>4.5</ele><time>2026-04-19T09:49:27Z</time></trkpt><trkpt lat="14.58906027432335" lon="121.01984871897567"><ele>4.0</ele><time>2026-04-19T09:49:28Z</time></trkpt><trkpt lat="14.589015861351308" lon="121.01970173444575"><ele>3.5</ele><time>2026-04-19T09:49:29Z</time></trkpt><trkpt lat="14.588973123635373" lon="121.01955259026498"><ele>3.0</ele><time>2026-04-19T09:49:30Z</time></trkpt><trkpt lat="14.588931872133747" lon="121.01940387324555"><ele>3.0</ele><time>2026-04-19T09:49:31Z</time></trkpt><trkpt lat="14.58889108969125" lon="121.01925432820495"><ele>3.0</ele><time>2026-04-19T09:49:32Z</time></trkpt><trkpt lat="14.588851636487407" lon="121.01910569495791"><ele>3.0</ele><time>2026-04-19T09:49:33Z</time></trkpt><trkpt lat="14.588815855481231" lon="121.01895732404054"><ele>3.0</ele><time>2026-04-19T09:49:34Z</time></trkpt><trkpt lat="14.58878406897784" lon="121.01880894396135"><ele>3.666666666666667</ele><time>2026-04-19T09:49:35Z</time></trkpt><trkpt lat="14.588754610786033" lon="121.01865810609604"><ele>4.333333333333334</ele><time>2026-04-19T09:49:36Z</time></trkpt><trkpt lat="14.588724772246788" lon="121.0185036266288"><ele>5.0</ele><time>2026-04-19T09:49:37Z</time></trkpt><trkpt lat="14.588698803856008" lon="121.0183476249892"><ele>4.0</ele><time>2026-04-19T09:49:38Z</time></trkpt><trkpt lat="14.588675503855201" lon="121.01818865298965"><ele>3.0</ele><time>2026-04-19T09:49:39Z</time></trkpt><trkpt lat="14.588654512508295" lon="121.01802564844094"><ele>2.0</ele><time>2026-04-19T09:49:40Z</time></trkpt><trkpt lat="14.588637468415431" lon="121.01785650807666"><ele>2.0</ele><time>2026-04-19T09:49:41Z</time></trkpt><trkpt lat="14.588622753123389" lon="121.01768204401188"><ele>2.0</ele><time>2026-04-19T09:49:42Z</time></trkpt><trkpt lat="14.588610728245637" lon="121.01750361124995"><ele>2.0</ele><time>2026-04-19T09:49:43Z</time></trkpt><trkpt lat="14.588601105834279" lon="121.0173207156092"><ele>0.6666666666666666</ele><time>2026-04-19T09:49:44Z</time></trkpt><trkpt lat="14.58859311094551" lon="121.01713634094547"><ele>-0.6666666666666666</ele><time>2026-04-19T09:49:45Z</time></trkpt><trkpt lat="14.58858723700848" lon="121.01695266081236"><ele>-2.0</ele><time>2026-04-19T09:49:46Z</time></trkpt><trkpt lat="14.588585238637961" lon="121.01676975847593"><ele>1.0000000000000002</ele><time>2026-04-19T09:49:47Z</time></trkpt><trkpt lat="14.588585783074587" lon="121.01658878918185"><ele>4.0</ele><time>2026-04-19T09:49:48Z</time></trkpt><trkpt lat="14.588590757130946" lon="121.01641709458424"><ele>7.0</ele><time>2026-04-19T09:49:49Z</time></trkpt><trkpt lat="14.588602211919584" lon="121.01624900296191"><ele>7.0</ele><time>2026-04-19T09:49:50Z</time></trkpt><trkpt lat="14.588625743905524" lon="121.01608380532852"><ele>7.0</ele><time>2026-04-19T09:49:51Z</time></trkpt><trkpt lat="14.588661559552834" lon="121.01591961335035"><ele>7.0</ele><time>2026-04-19T09:49:52Z</time></trkpt><trkpt lat="14.588711589890378" lon="121.0157613730426"><ele>7.333333333333334</ele><time>2026-04-19T09:49:53Z</time></trkpt><trkpt lat="14.588770996178823" lon="121.01560599803386"><ele>7.666666666666666</ele><time>2026-04-19T09:49:54Z</time></trkpt><trkpt lat="14.588841220644944" lon="121.01545457446642"><ele>8.0</ele><time>2026-04-19T09:49:55Z</time></trkpt><trkpt lat="14.588922384236707" lon="121.01530796715339"><ele>8.0</ele><time>2026-04-19T09:49:56Z</time></trkpt><trkpt lat="14.58901308621092" lon="121.01516740704767"><ele>8.0</ele><time>2026-04-19T09:49:57Z</time></trkpt><trkpt lat="14.589113258173542" lon="121.01503639408523"><ele>8.0</ele><time>2026-04-19T09:49:58Z</time></trkpt><trkpt lat="14.589222435518977" lon="121.0149141932779"><ele>7.0</ele><time>2026-04-19T09:49:59Z</time></trkpt><trkpt lat="14.589338373520835" lon="121.01480430881004"><ele>6.0</ele><time>2026-04-19T09:50:00Z</time></trkpt><trkpt lat="14.589455380151474" lon="121.01470601084289"><ele>5.0</ele><time>2026-04-19T09:50:01Z</time></trkpt><trkpt lat="14.589568381075738" lon="121.01461139384787"><ele>5.0</ele><time>2026-04-19T09:50:02Z</time></trkpt><trkpt lat="14.589668620357283" lon="121.01451168843282"><ele>5.0</ele><time>2026-04-19T09:50:03Z</time></trkpt><trkpt lat="14.589755674040065" lon="121.0144029068003"><ele>5.0</ele><time>2026-04-19T09:50:04.001Z</time></trkpt><trkpt lat="14.589833998838813" lon="121.01428504194065"><ele>5.0</ele><time>2026-04-19T09:50:05.001Z</time></trkpt><trkpt lat="14.589896535744801" lon="121.01416034789125"><ele>4.25</ele><time>2026-04-19T09:50:06.001Z</time></trkpt><trkpt lat="14.589948385217413" lon="121.01402891232865"><ele>3.5</ele><time>2026-04-19T09:50:07.001Z</time></trkpt><trkpt lat="14.58998622067266" lon="121.01389797779551"><ele>2.75</ele><time>2026-04-19T09:50:08.001Z</time></trkpt><trkpt lat="14.590013044760651" lon="121.0137658899534"><ele>2.0</ele><time>2026-04-19T09:50:09.001Z</time></trkpt><trkpt lat="14.590025595517913" lon="121.01363447220565"><ele>2.0</ele><time>2026-04-19T09:50:10.001Z</time></trkpt><trkpt lat="14.590025054728141" lon="121.01350433365957"><ele>2.0</ele><time>2026-04-19T09:50:11.001Z</time></trkpt><trkpt lat="14.590011720177298" lon="121.01337291792152"><ele>2.0</ele><time>2026-04-19T09:50:12.001Z</time></trkpt><trkpt lat="14.589984103167566" lon="121.01324168825099"><ele>2.0</ele><time>2026-04-19T09:50:13.001Z</time></trkpt><trkpt lat="14.589943865750914" lon="121.01311059731063"><ele>2.5</ele><time>2026-04-19T09:50:14.001Z</time></trkpt><trkpt lat="14.589889404171707" lon="121.01298164465605"><ele>3.0</ele><time>2026-04-19T09:50:15.001Z</time></trkpt><trkpt lat="14.5898240877951" lon="121.01285171126999"><ele>3.5</ele><time>2026-04-19T09:50:16.001Z</time></trkpt><trkpt lat="14.589751728315296" lon="121.01271956509713"><ele>4.0</ele><time>2026-04-19T09:50:17Z</time></trkpt><trkpt lat="14.58967690609994" lon="121.01258524331772"><ele>4.0</ele><time>2026-04-19T09:50:18Z</time></trkpt><trkpt lat="14.589604154212195" lon="121.01244871712429"><ele>4.0</ele><time>2026-04-19T09:50:19Z</time></trkpt><trkpt lat="14.589536542839646" lon="121.01230860203854"><ele>4.0</ele><time>2026-04-19T09:50:20Z</time></trkpt><trkpt lat="14.58947696078727" lon="121.01216323930319"><ele>4.0</ele><time>2026-04-19T09:50:21Z</time></trkpt><trkpt lat="14.589428361387162" lon="121.01200971176932"><ele>4.0</ele><time>2026-04-19T09:50:22Z</time></trkpt><trkpt lat="14.589392885156068" lon="121.0118521674761"><ele>4.0</ele><time>2026-04-19T09:50:23Z</time></trkpt><trkpt lat="14.589368335946826" lon="121.01169067395007"><ele>4.333333333333333</ele><time>2026-04-19T09:50:24Z</time></trkpt><trkpt lat="14.589356249117658" lon="121.01152656955547"><ele>4.666666666666667</ele><time>2026-04-19T09:50:25Z</time></trkpt><trkpt lat="14.589357523945289" lon="121.01136324062354"><ele>5.0</ele><time>2026-04-19T09:50:26Z</time></trkpt><trkpt lat="14.589371365673788" lon="121.0111954340953"><ele>5.0</ele><time>2026-04-19T09:50:27Z</time></trkpt><trkpt lat="14.589397576555841" lon="121.01102852259531"><ele>5.0</ele><time>2026-04-19T09:50:28Z</time></trkpt><trkpt lat="14.589433368631175" lon="121.01086623561788"><ele>5.0</ele><time>2026-04-19T09:50:29Z</time></trkpt><trkpt lat="14.589474868829052" lon="121.01070669396617"><ele>6.0</ele><time>2026-04-19T09:50:30Z</time></trkpt><trkpt lat="14.589518626197016" lon="121.01054965942872"><ele>7.0</ele><time>2026-04-19T09:50:31Z</time></trkpt><trkpt lat="14.589563430294483" lon="121.0103945180804"><ele>8.0</ele><time>2026-04-19T09:50:32Z</time></trkpt><trkpt lat="14.589609710317006" lon="121.01024005652012"><ele>8.0</ele><time>2026-04-19T09:50:33Z</time></trkpt><trkpt lat="14.589653449506656" lon="121.01008691303139"><ele>8.0</ele><time>2026-04-19T09:50:34Z</time></trkpt><trkpt lat="14.589696135615924" lon="121.00993821497408"><ele>8.0</ele><time>2026-04-19T09:50:35Z</time></trkpt><trkpt lat="14.589739798832001" lon="121.00979541103172"><ele>7.75</ele><time>2026-04-19T09:50:36Z</time></trkpt><trkpt lat="14.589781183984408" lon="121.009656319781"><ele>7.5</ele><time>2026-04-19T09:50:37Z</time></trkpt><trkpt lat="14.589815369892223" lon="121.00952052281224"><ele>7.25</ele><time>2026-04-19T09:50:38Z</time></trkpt><trkpt lat="14.58984073739546" lon="121.00938038014617"><ele>7.0</ele><time>2026-04-19T09:50:39Z</time></trkpt><trkpt lat="14.589854214979697" lon="121.00924297929626"><ele>7.0</ele><time>2026-04-19T09:50:40Z</time></trkpt><trkpt lat="14.589852252000426" lon="121.00910559831536"><ele>7.0</ele><time>2026-04-19T09:50:41Z</time></trkpt><trkpt lat="14.58983443409066" lon="121.00897171411896"><ele>7.0</ele><time>2026-04-19T09:50:42Z</time></trkpt><trkpt lat="14.58979968360799" lon="121.00883870744491"><ele>7.0</ele><time>2026-04-19T09:50:43Z</time></trkpt><trkpt lat="14.589749299915065" lon="121.00871259553973"><ele>7.0</ele><time>2026-04-19T09:50:44Z</time></trkpt><trkpt lat="14.58968423467299" lon="121.00859290418207"><ele>7.0</ele><time>2026-04-19T09:50:45Z</time></trkpt><trkpt lat="14.589606091941219" lon="121.00847904145532"><ele>7.0</ele><time>2026-04-19T09:50:46Z</time></trkpt><trkpt lat="14.589515309204677" lon="121.00837265801171"><ele>7.0</ele><time>2026-04-19T09:50:47Z</time></trkpt><trkpt lat="14.589413292847587" lon="121.0082713875092"><ele>6.5</ele><time>2026-04-19T09:50:48Z</time></trkpt><trkpt lat="14.589302610263548" lon="121.00817397965803"><ele>6.0</ele><time>2026-04-19T09:50:49Z</time></trkpt><trkpt lat="14.589189174889505" lon="121.00807783728978"><ele>5.5</ele><time>2026-04-19T09:50:50Z</time></trkpt><trkpt lat="14.589070773860488" lon="121.00798169435026"><ele>5.0</ele><time>2026-04-19T09:50:51Z</time></trkpt><trkpt lat="14.58894998004514" lon="121.00788286964195"><ele>5.0</ele><time>2026-04-19T09:50:52Z</time></trkpt><trkpt lat="14.5888272312447" lon="121.00778064124822"><ele>5.0</ele><time>2026-04-19T09:50:53Z</time></trkpt><trkpt lat="14.588702894319354" lon="121.00767582546322"><ele>5.0</ele><time>2026-04-19T09:50:54Z</time></trkpt><trkpt lat="14.588581666167546" lon="121.00756782146165"><ele>6.0</ele><time>2026-04-19T09:50:55Z</time></trkpt><trkpt lat="14.588454459970313" lon="121.00745605635653"><ele>7.0</ele><time>2026-04-19T09:50:56Z</time></trkpt><trkpt lat="14.588331801583879" lon="121.00734202242064"><ele>8.0</ele><time>2026-04-19T09:50:57Z</time></trkpt><trkpt lat="14.58821212009645" lon="121.00722350549705"><ele>8.0</ele><time>2026-04-19T09:50:58Z</time></trkpt><trkpt lat="14.588096731213358" lon="121.0070986183514"><ele>8.0</ele><time>2026-04-19T09:50:59Z</time></trkpt><trkpt lat="14.587986815373899" lon="121.00696723748295"><ele>8.0</ele><time>2026-04-19T09:51:00Z</time></trkpt><trkpt lat="14.587881875075011" lon="121.00682957804956"><ele>7.666666666666666</ele><time>2026-04-19T09:51:01Z</time></trkpt><trkpt lat="14.587775750175814" lon="121.00669088012621"><ele>7.333333333333334</ele><time>2026-04-19T09:51:02Z</time></trkpt><trkpt lat="14.587669498265937" lon="121.006548770561"><ele>7.0</ele><time>2026-04-19T09:51:03Z</time></trkpt><trkpt lat="14.587562909072544" lon="121.00640635945209"><ele>7.0</ele><time>2026-04-19T09:51:04Z</time></trkpt><trkpt lat="14.587454158006762" lon="121.00626311698392"><ele>7.0</ele><time>2026-04-19T09:51:05Z</time></trkpt><trkpt lat="14.587343715994427" lon="121.00611830559528"><ele>7.0</ele><time>2026-04-19T09:51:06Z</time></trkpt><trkpt lat="14.587226680245799" lon="121.00597571804741"><ele>7.0</ele><time>2026-04-19T09:51:07Z</time></trkpt><trkpt lat="14.58710403399619" lon="121.00583607970755"><ele>7.0</ele><time>2026-04-19T09:51:08Z</time></trkpt><trkpt lat="14.58697225838111" lon="121.00570156008489"><ele>7.0</ele><time>2026-04-19T09:51:09Z</time></trkpt><trkpt lat="14.586833443533354" lon="121.00557264055129"><ele>7.0</ele><time>2026-04-19T09:51:10Z</time></trkpt><trkpt lat="14.586689026572937" lon="121.00544713317126"><ele>7.0</ele><time>2026-04-19T09:51:11Z</time></trkpt><trkpt lat="14.586543448109326" lon="121.00531961745817"><ele>7.0</ele><time>2026-04-19T09:51:12Z</time></trkpt><trkpt lat="14.586393443829996" lon="121.00519247285783"><ele>7.0</ele><time>2026-04-19T09:51:13Z</time></trkpt><trkpt lat="14.586243802523581" lon="121.0050620720715"><ele>7.0</ele><time>2026-04-19T09:51:14Z</time></trkpt><trkpt lat="14.586095125082876" lon="121.00493004893137"><ele>7.0</ele><time>2026-04-19T09:51:15Z</time></trkpt><trkpt lat="14.585947322583856" lon="121.00479943672583"><ele>6.666666666666667</ele><time>2026-04-19T09:51:16Z</time></trkpt><trkpt lat="14.585801795943272" lon="121.0046688987241"><ele>6.333333333333334</ele><time>2026-04-19T09:51:17Z</time></trkpt><trkpt lat="14.58565571720468" lon="121.0045371358429"><ele>6.0</ele><time>2026-04-19T09:51:18Z</time></trkpt><trkpt lat="14.58550902373658" lon="121.00440517361078"><ele>6.0</ele><time>2026-04-19T09:51:19Z</time></trkpt><trkpt lat="14.585361532999702" lon="121.00426906866323"><ele>6.0</ele><time>2026-04-19T09:51:20Z</time></trkpt><trkpt lat="14.585214812731754" lon="121.00413138198844"><ele>6.0</ele><time>2026-04-19T09:51:21Z</time></trkpt><trkpt lat="14.585066801549306" lon="121.00399106719654"><ele>6.0</ele><time>2026-04-19T09:51:22Z</time></trkpt><trkpt lat="14.584917318288316" lon="121.00385036135283"><ele>6.0</ele><time>2026-04-19T09:51:23Z</time></trkpt><trkpt lat="14.584766793662421" lon="121.0037059087995"><ele>6.0</ele><time>2026-04-19T09:51:24Z</time></trkpt><trkpt lat="14.584615531278338" lon="121.00356230662328"><ele>5.666666666666667</ele><time>2026-04-19T09:51:25Z</time></trkpt><trkpt lat="14.584459520829519" lon="121.00341826799576"><ele>5.333333333333334</ele><time>2026-04-19T09:51:26Z</time></trkpt><trkpt lat="14.584305430670785" lon="121.00327230792654"><ele>5.0</ele><time>2026-04-19T09:51:27Z</time></trkpt><trkpt lat="14.584150990499204" lon="121.00312644555436"><ele>5.666666666666667</ele><time>2026-04-19T09:51:28Z</time></trkpt><trkpt lat="14.583997259402624" lon="121.00297844786797"><ele>6.333333333333334</ele><time>2026-04-19T09:51:29Z</time></trkpt><trkpt lat="14.583846109548857" lon="121.00283057507136"><ele>7.0</ele><time>2026-04-19T09:51:30Z</time></trkpt><trkpt lat="14.583692808604505" lon="121.00268376126942"><ele>7.0</ele><time>2026-04-19T09:51:31Z</time></trkpt><trkpt lat="14.583540867116092" lon="121.0025355003567"><ele>7.0</ele><time>2026-04-19T09:51:32Z</time></trkpt><trkpt lat="14.58338921941266" lon="121.00238932208394"><ele>7.0</ele><time>2026-04-19T09:51:33Z</time></trkpt><trkpt lat="14.583237119603494" lon="121.00224516108352"><ele>7.333333333333334</ele><time>2026-04-19T09:51:34Z</time></trkpt><trkpt lat="14.583088496615003" lon="121.00210111577056"><ele>7.666666666666666</ele><time>2026-04-19T09:51:35Z</time></trkpt><trkpt lat="14.58294231863781" lon="121.00195631833411"><ele>8.0</ele><time>2026-04-19T09:51:36Z</time></trkpt><trkpt lat="14.58280039506424" lon="121.00181039302278"><ele>8.333333333333332</ele><time>2026-04-19T09:51:37Z</time></trkpt><trkpt lat="14.582659000974854" lon="121.00166335973574"><ele>8.666666666666666</ele><time>2026-04-19T09:51:38Z</time></trkpt><trkpt lat="14.58251739282069" lon="121.00151683719888"><ele>9.0</ele><time>2026-04-19T09:51:39Z</time></trkpt><trkpt lat="14.582374871987904" lon="121.001370650824"><ele>9.0</ele><time>2026-04-19T09:51:40Z</time></trkpt><trkpt lat="14.582230679940675" lon="121.00122619514549"><ele>9.0</ele><time>2026-04-19T09:51:41Z</time></trkpt><trkpt lat="14.582083923067156" lon="121.00108214420106"><ele>9.0</ele><time>2026-04-19T09:51:42Z</time></trkpt><trkpt lat="14.581936573915815" lon="121.00093756273401"><ele>8.666666666666666</ele><time>2026-04-19T09:51:43Z</time></trkpt><trkpt lat="14.581781701674206" lon="121.00079766269099"><ele>8.333333333333332</ele><time>2026-04-19T09:51:44Z</time></trkpt><trkpt lat="14.581622560279662" lon="121.00066223046315"><ele>8.0</ele><time>2026-04-19T09:51:45Z</time></trkpt><trkpt lat="14.581460223877261" lon="121.0005266406707"><ele>8.0</ele><time>2026-04-19T09:51:46Z</time></trkpt><trkpt lat="14.581297643385403" lon="121.00039147889866"><ele>8.0</ele><time>2026-04-19T09:51:47Z</time></trkpt><trkpt lat="14.581131155755147" lon="121.00024977862006"><ele>8.0</ele><time>2026-04-19T09:51:48Z</time></trkpt><trkpt lat="14.580962711560353" lon="121.00011279504314"><ele>8.0</ele><time>2026-04-19T09:51:49Z</time></trkpt><trkpt lat="14.580791483230112" lon="120.99997377272446"><ele>8.0</ele><time>2026-04-19T09:51:50Z</time></trkpt><trkpt lat="14.580618233824632" lon="120.99983405664653"><ele>8.0</ele><time>2026-04-19T09:51:51Z</time></trkpt><trkpt lat="14.580444739080322" lon="120.99969565769698"><ele>8.666666666666666</ele><time>2026-04-19T09:51:52Z</time></trkpt><trkpt lat="14.580271601348315" lon="120.99955754979067"><ele>9.333333333333334</ele><time>2026-04-19T09:51:53Z</time></trkpt><trkpt lat="14.580099348719148" lon="120.99942056743792"><ele>10.0</ele><time>2026-04-19T09:51:54Z</time></trkpt><trkpt lat="14.579928204313074" lon="120.99928406127901"><ele>9.333333333333334</ele><time>2026-04-19T09:51:55Z</time></trkpt><trkpt lat="14.579759077494515" lon="120.99914865905983"><ele>8.666666666666666</ele><time>2026-04-19T09:51:56Z</time></trkpt><trkpt lat="14.579590065015735" lon="120.99901422105638"><ele>8.0</ele><time>2026-04-19T09:51:57Z</time></trkpt><trkpt lat="14.579422330122567" lon="120.99888016709775"><ele>7.333333333333333</ele><time>2026-04-19T09:51:58Z</time></trkpt><trkpt lat="14.579255758419633" lon="120.99874572211064"><ele>6.666666666666666</ele><time>2026-04-19T09:51:59Z</time></trkpt><trkpt lat="14.57909054182306" lon="120.99861179217656"><ele>6.0</ele><time>2026-04-19T09:52:00Z</time></trkpt><trkpt lat="14.578926730355978" lon="120.9984789500231"><ele>6.0</ele><time>2026-04-19T09:52:01Z</time></trkpt><trkpt lat="14.578765385566417" lon="120.99834976999065"><ele>6.0</ele><time>2026-04-19T09:52:02Z</time></trkpt><trkpt lat="14.578607543177606" lon="120.99822574998659"><ele>6.0</ele><time>2026-04-19T09:52:03Z</time></trkpt><trkpt lat="14.578453227200127" lon="120.99810401415618"><ele>6.0</ele><time>2026-04-19T09:52:04Z</time></trkpt><trkpt lat="14.57829972461448" lon="120.99798621642182"><ele>6.0</ele><time>2026-04-19T09:52:05Z</time></trkpt><trkpt lat="14.57814382083563" lon="120.99787644386478"><ele>6.0</ele><time>2026-04-19T09:52:06Z</time></trkpt><trkpt lat="14.577982896479014" lon="120.99777732148672"><ele>7.333333333333334</ele><time>2026-04-19T09:52:07Z</time></trkpt><trkpt lat="14.57781652277452" lon="120.99768983546589"><ele>8.666666666666668</ele><time>2026-04-19T09:52:08Z</time></trkpt><trkpt lat="14.577643879563297" lon="120.99761584970469"><ele>10.0</ele><time>2026-04-19T09:52:09Z</time></trkpt><trkpt lat="14.577465323869575" lon="120.99755547290852"><ele>10.0</ele><time>2026-04-19T09:52:10Z</time></trkpt><trkpt lat="14.577282691797112" lon="120.9975098936949"><ele>10.0</ele><time>2026-04-19T09:52:11Z</time></trkpt><trkpt lat="14.577096510927827" lon="120.99747913170691"><ele>10.0</ele><time>2026-04-19T09:52:12Z</time></trkpt><trkpt lat="14.576907935747833" lon="120.99746348598188"><ele>9.333333333333334</ele><time>2026-04-19T09:52:13Z</time></trkpt><trkpt lat="14.576716343231102" lon="120.99746458930369"><ele>8.666666666666666</ele><time>2026-04-19T09:52:14Z</time></trkpt><trkpt lat="14.576524667282333" lon="120.99748229703088"><ele>8.0</ele><time>2026-04-19T09:52:15Z</time></trkpt><trkpt lat="14.576334655024487" lon="120.99751577039586"><ele>7.0</ele><time>2026-04-19T09:52:16Z</time></trkpt><trkpt lat="14.576150257189829" lon="120.99756610229417"><ele>6.0</ele><time>2026-04-19T09:52:17Z</time></trkpt><trkpt lat="14.575970992236142" lon="120.99763197103525"><ele>5.0</ele><time>2026-04-19T09:52:18Z</time></trkpt><trkpt lat="14.575794120309704" lon="120.99771094154379"><ele>5.0</ele><time>2026-04-19T09:52:19Z</time></trkpt><trkpt lat="14.575618058667157" lon="120.99779896304733"><ele>5.0</ele><time>2026-04-19T09:52:20Z</time></trkpt><trkpt lat="14.575440077120092" lon="120.99789380550757"><ele>5.0</ele><time>2026-04-19T09:52:21Z</time></trkpt><trkpt lat="14.575262424046695" lon="120.99799243519868"><ele>5.333333333333334</ele><time>2026-04-19T09:52:22Z</time></trkpt><trkpt lat="14.575084205853031" lon="120.99808867866442"><ele>5.666666666666667</ele><time>2026-04-19T09:52:23Z</time></trkpt><trkpt lat="14.574906382351788" lon="120.99818232127973"><ele>6.0</ele><time>2026-04-19T09:52:24Z</time></trkpt><trkpt lat="14.574728593233395" lon="120.99827571901513"><ele>6.0</ele><time>2026-04-19T09:52:25Z</time></trkpt><trkpt lat="14.574543235894762" lon="120.99837756390487"><ele>6.0</ele><time>2026-04-19T09:52:26Z</time></trkpt><trkpt lat="14.574367173325193" lon="120.99847090750676"><ele>6.0</ele><time>2026-04-19T09:52:27Z</time></trkpt><trkpt lat="14.57419462114552" lon="120.99856584886786"><ele>6.0</ele><time>2026-04-19T09:52:28Z</time></trkpt><trkpt lat="14.574021103005816" lon="120.99865711979352"><ele>6.0</ele><time>2026-04-19T09:52:29Z</time></trkpt><trkpt lat="14.573850027414041" lon="120.99874970189322"><ele>6.0</ele><time>2026-04-19T09:52:30Z</time></trkpt><trkpt lat="14.573679612826934" lon="120.99883940005357"><ele>6.333333333333334</ele><time>2026-04-19T09:52:31Z</time></trkpt><trkpt lat="14.573512942303768" lon="120.99892872431033"><ele>6.666666666666667</ele><time>2026-04-19T09:52:32Z</time></trkpt><trkpt lat="14.573348190617693" lon="120.99901654041935"><ele>7.0</ele><time>2026-04-19T09:52:33Z</time></trkpt><trkpt lat="14.573183486526737" lon="120.9991058465611"><ele>7.0</ele><time>2026-04-19T09:52:34Z</time></trkpt><trkpt lat="14.573017763775201" lon="120.99919572681821"><ele>7.0</ele><time>2026-04-19T09:52:35Z</time></trkpt><trkpt lat="14.572849208863422" lon="120.99928681310588"><ele>7.0</ele><time>2026-04-19T09:52:36Z</time></trkpt><trkpt lat="14.572674702066955" lon="120.99937754595018"><ele>7.0</ele><time>2026-04-19T09:52:37Z</time></trkpt><trkpt lat="14.572496856305953" lon="120.9994741374282"><ele>7.0</ele><time>2026-04-19T09:52:38Z</time></trkpt><trkpt lat="14.572312250464604" lon="120.99956920839914"><ele>7.0</ele><time>2026-04-19T09:52:39Z</time></trkpt><trkpt lat="14.572119947915194" lon="120.99966368020861"><ele>6.666666666666667</ele><time>2026-04-19T09:52:40Z</time></trkpt><trkpt lat="14.571919390914406" lon="120.99976238319586"><ele>6.333333333333334</ele><time>2026-04-19T09:52:41Z</time></trkpt><trkpt lat="14.571716765735538" lon="120.99986473157908"><ele>6.0</ele><time>2026-04-19T09:52:42Z</time></trkpt><trkpt lat="14.571511243309493" lon="120.99997479716686"><ele>6.0</ele><time>2026-04-19T09:52:43Z</time></trkpt><trkpt lat="14.571304798319305" lon="121.00009112975326"><ele>6.0</ele><time>2026-04-19T09:52:44Z</time></trkpt><trkpt lat="14.571097718932466" lon="121.00021078857998"><ele>5.5</ele><time>2026-04-19T09:52:45Z</time></trkpt><trkpt lat="14.570890938752331" lon="121.00032867678145"><ele>5.0</ele><time>2026-04-19T09:52:46Z</time></trkpt><trkpt lat="14.570683619315073" lon="121.00044320996183"><ele>5.0</ele><time>2026-04-19T09:52:47Z</time></trkpt><trkpt lat="14.570478121735185" lon="121.00055503893827"><ele>5.0</ele><time>2026-04-19T09:52:48Z</time></trkpt><trkpt lat="14.570273465580346" lon="121.00066703939358"><ele>6.5</ele><time>2026-04-19T09:52:49Z</time></trkpt><trkpt lat="14.570072124819971" lon="121.00078000392189"><ele>8.0</ele><time>2026-04-19T09:52:50Z</time></trkpt><trkpt lat="14.569873139114367" lon="121.00088753904839"><ele>7.666666666666666</ele><time>2026-04-19T09:52:51Z</time></trkpt><trkpt lat="14.569675092963587" lon="121.00099639834495"><ele>7.333333333333334</ele><time>2026-04-19T09:52:52Z</time></trkpt><trkpt lat="14.569476305400574" lon="121.00110244299039"><ele>7.0</ele><time>2026-04-19T09:52:53Z</time></trkpt><trkpt lat="14.569277156515605" lon="121.00121038045674"><ele>7.0</ele><time>2026-04-19T09:52:54Z</time></trkpt><trkpt lat="14.569081872089969" lon="121.00131398137687"><ele>7.0</ele><time>2026-04-19T09:52:55Z</time></trkpt><trkpt lat="14.568886275848458" lon="121.0014167997631"><ele>7.0</ele><time>2026-04-19T09:52:56Z</time></trkpt><trkpt lat="14.5686951030395" lon="121.00152182215948"><ele>7.0</ele><time>2026-04-19T09:52:57Z</time></trkpt><trkpt lat="14.56850729367691" lon="121.00162613557333"><ele>7.0</ele><time>2026-04-19T09:52:58Z</time></trkpt><trkpt lat="14.568320439636203" lon="121.00172912293144"><ele>7.0</ele><time>2026-04-19T09:52:59Z</time></trkpt><trkpt lat="14.5681361313279" lon="121.00183415457329"><ele>7.333333333333334</ele><time>2026-04-19T09:53:00Z</time></trkpt><trkpt lat="14.567954329729975" lon="121.0019411664855"><ele>7.666666666666666</ele><time>2026-04-19T09:53:01Z</time></trkpt><trkpt lat="14.56777574593659" lon="121.00204733890857"><ele>8.0</ele><time>2026-04-19T09:53:02Z</time></trkpt><trkpt lat="14.567599868631321" lon="121.00215341320333"><ele>8.0</ele><time>2026-04-19T09:53:03Z</time></trkpt><trkpt lat="14.567427844348284" lon="121.00225486742589"><ele>8.0</ele><time>2026-04-19T09:53:04Z</time></trkpt><trkpt lat="14.567257257814187" lon="121.00235402837681"><ele>8.0</ele><time>2026-04-19T09:53:05Z</time></trkpt><trkpt lat="14.567088539684857" lon="121.00245224998478"><ele>7.0</ele><time>2026-04-19T09:53:06Z</time></trkpt><trkpt lat="14.566919980279824" lon="121.0025498717015"><ele>6.0</ele><time>2026-04-19T09:53:07Z</time></trkpt><trkpt lat="14.566752130226563" lon="121.00264521551742"><ele>5.0</ele><time>2026-04-19T09:53:08Z</time></trkpt><trkpt lat="14.56658519263675" lon="121.00274222623017"><ele>5.0</ele><time>2026-04-19T09:53:09Z</time></trkpt><trkpt lat="14.566415950897504" lon="121.00283935416923"><ele>5.0</ele><time>2026-04-19T09:53:10Z</time></trkpt><trkpt lat="14.566242235404207" lon="121.00293592611071"><ele>5.0</ele><time>2026-04-19T09:53:11Z</time></trkpt><trkpt lat="14.566066747853352" lon="121.00303148863918"><ele>6.0</ele><time>2026-04-19T09:53:12Z</time></trkpt><trkpt lat="14.565887665141402" lon="121.00312680063513"><ele>7.0</ele><time>2026-04-19T09:53:13Z</time></trkpt><trkpt lat="14.565705424019743" lon="121.00322110899462"><ele>8.0</ele><time>2026-04-19T09:53:14Z</time></trkpt><trkpt lat="14.56551947917181" lon="121.0033169379447"><ele>7.333333333333333</ele><time>2026-04-19T09:53:15Z</time></trkpt><trkpt lat="14.565331867528377" lon="121.00341690690216"><ele>6.666666666666666</ele><time>2026-04-19T09:53:16Z</time></trkpt><trkpt lat="14.565142508325529" lon="121.00352258000703"><ele>6.0</ele><time>2026-04-19T09:53:17Z</time></trkpt><trkpt lat="14.564950343615534" lon="121.00362857179871"><ele>6.0</ele><time>2026-04-19T09:53:18Z</time></trkpt><trkpt lat="14.5647576622525" lon="121.0037333470024"><ele>6.0</ele><time>2026-04-19T09:53:19Z</time></trkpt><trkpt lat="14.564564392472434" lon="121.0038370452978"><ele>6.0</ele><time>2026-04-19T09:53:20Z</time></trkpt><trkpt lat="14.564369469963346" lon="121.00394125527419"><ele>6.0</ele><time>2026-04-19T09:53:21Z</time></trkpt><trkpt lat="14.56417488721634" lon="121.0040438566753"><ele>6.0</ele><time>2026-04-19T09:53:22Z</time></trkpt><trkpt lat="14.563977486262587" lon="121.00414464340192"><ele>6.0</ele><time>2026-04-19T09:53:23Z</time></trkpt><trkpt lat="14.563777544575357" lon="121.0042440927955"><ele>6.5</ele><time>2026-04-19T09:53:24Z</time></trkpt><trkpt lat="14.563574103040567" lon="121.00434281258859"><ele>7.0</ele><time>2026-04-19T09:53:25Z</time></trkpt><trkpt lat="14.563367051192179" lon="121.0044414596721"><ele>7.0</ele><time>2026-04-19T09:53:26Z</time></trkpt><trkpt lat="14.563157393061761" lon="121.00454221318037"><ele>7.0</ele><time>2026-04-19T09:53:27Z</time></trkpt><trkpt lat="14.562949649665702" lon="121.00464940135619"><ele>6.0</ele><time>2026-04-19T09:53:28Z</time></trkpt><trkpt lat="14.56274269713338" lon="121.00475810782858"><ele>5.0</ele><time>2026-04-19T09:53:29Z</time></trkpt><trkpt lat="14.562533840364486" lon="121.00487064094709"><ele>5.0</ele><time>2026-04-19T09:53:30Z</time></trkpt><trkpt lat="14.562328099083194" lon="121.00498294678873"><ele>5.0</ele><time>2026-04-19T09:53:31Z</time></trkpt><trkpt lat="14.562118494491981" lon="121.00509579760242"><ele>5.5</ele><time>2026-04-19T09:53:32Z</time></trkpt><trkpt lat="14.56190891283157" lon="121.00521040285528"><ele>6.0</ele><time>2026-04-19T09:53:33Z</time></trkpt><trkpt lat="14.561696601307569" lon="121.00532352008716"><ele>6.0</ele><time>2026-04-19T09:53:34Z</time></trkpt><trkpt lat="14.561479226479976" lon="121.0054422442625"><ele>6.0</ele><time>2026-04-19T09:53:35Z</time></trkpt><trkpt lat="14.561262645562966" lon="121.00555913132645"><ele>6.5</ele><time>2026-04-19T09:53:36Z</time></trkpt><trkpt lat="14.561048000215711" lon="121.00567502478329"><ele>7.0</ele><time>2026-04-19T09:53:37Z</time></trkpt><trkpt lat="14.56083261765042" lon="121.00579391217914"><ele>8.0</ele><time>2026-04-19T09:53:38Z</time></trkpt><trkpt lat="14.560615914304051" lon="121.00591329891711"><ele>9.0</ele><time>2026-04-19T09:53:39Z</time></trkpt><trkpt lat="14.560400046319021" lon="121.00603425411359"><ele>7.5</ele><time>2026-04-19T09:53:40Z</time></trkpt><trkpt lat="14.560181587739665" lon="121.00615275021975"><ele>6.0</ele><time>2026-04-19T09:53:41Z</time></trkpt><trkpt lat="14.55996219644529" lon="121.00626782727706"><ele>6.0</ele><time>2026-04-19T09:53:42Z</time></trkpt><trkpt lat="14.559744377490102" lon="121.00638745558919"><ele>6.0</ele><time>2026-04-19T09:53:43Z</time></trkpt><trkpt lat="14.559528378243723" lon="121.00650227600374"><ele>6.5</ele><time>2026-04-19T09:53:44Z</time></trkpt><trkpt lat="14.559314728955988" lon="121.00661843979854"><ele>7.0</ele><time>2026-04-19T09:53:45Z</time></trkpt><trkpt lat="14.559103377359087" lon="121.00673252668776"><ele>7.0</ele><time>2026-04-19T09:53:46Z</time></trkpt><trkpt lat="14.558893544416572" lon="121.00684439896882"><ele>7.0</ele><time>2026-04-19T09:53:47Z</time></trkpt><trkpt lat="14.558686216335632" lon="121.00695628365726"><ele>8.0</ele><time>2026-04-19T09:53:48Z</time></trkpt><trkpt lat="14.558483656894351" lon="121.00706498948941"><ele>9.0</ele><time>2026-04-19T09:53:49Z</time></trkpt><trkpt lat="14.558284665281056" lon="121.0071723828865"><ele>9.0</ele><time>2026-04-19T09:53:50Z</time></trkpt><trkpt lat="14.558085272092494" lon="121.0072815173078"><ele>9.0</ele><time>2026-04-19T09:53:51Z</time></trkpt><trkpt lat="14.55788715459381" lon="121.00738923038823"><ele>9.0</ele><time>2026-04-19T09:53:52Z</time></trkpt><trkpt lat="14.557689276645098" lon="121.00749768080006"><ele>8.333333333333334</ele><time>2026-04-19T09:53:53Z</time></trkpt><trkpt lat="14.557490361679765" lon="121.00760707383046"><ele>7.666666666666667</ele><time>2026-04-19T09:53:54Z</time></trkpt><trkpt lat="14.557292455089764" lon="121.00771474893358"><ele>7.0</ele><time>2026-04-19T09:53:55Z</time></trkpt><trkpt lat="14.55709766911154" lon="121.00782153799409"><ele>6.333333333333334</ele><time>2026-04-19T09:53:56Z</time></trkpt><trkpt lat="14.556903781429373" lon="121.00792594912681"><ele>5.666666666666667</ele><time>2026-04-19T09:53:57Z</time></trkpt><trkpt lat="14.556705399553527" lon="121.00803463174756"><ele>5.0</ele><time>2026-04-19T09:53:58Z</time></trkpt><trkpt lat="14.556508841118147" lon="121.00814202650922"><ele>5.0</ele><time>2026-04-19T09:53:59Z</time></trkpt><trkpt lat="14.556305866942465" lon="121.0082495256993"><ele>5.0</ele><time>2026-04-19T09:54:00Z</time></trkpt><trkpt lat="14.556103172766095" lon="121.00836080893266"><ele>6.5</ele><time>2026-04-19T09:54:01Z</time></trkpt><trkpt lat="14.55589470045628" lon="121.00847344470556"><ele>8.0</ele><time>2026-04-19T09:54:02Z</time></trkpt><trkpt lat="14.555686207750913" lon="121.00858766451114"><ele>8.0</ele><time>2026-04-19T09:54:03Z</time></trkpt><trkpt lat="14.555476446652817" lon="121.00870133958831"><ele>8.0</ele><time>2026-04-19T09:54:04Z</time></trkpt><trkpt lat="14.555267557121432" lon="121.00881525502108"><ele>6.5</ele><time>2026-04-19T09:54:05Z</time></trkpt><trkpt lat="14.555058000243104" lon="121.00893063054524"><ele>5.0</ele><time>2026-04-19T09:54:06Z</time></trkpt><trkpt lat="14.554851249983688" lon="121.00904363857285"><ele>5.0</ele><time>2026-04-19T09:54:07Z</time></trkpt><trkpt lat="14.554645660191758" lon="121.00915700035787"><ele>5.0</ele><time>2026-04-19T09:54:08Z</time></trkpt><trkpt lat="14.554440856863085" lon="121.00926635181469"><ele>6.0</ele><time>2026-04-19T09:54:09Z</time></trkpt><trkpt lat="14.554237461192159" lon="121.00937626173133"><ele>7.0</ele><time>2026-04-19T09:54:10Z</time></trkpt><trkpt lat="14.554036358868759" lon="121.00948644730849"><ele>7.0</ele><time>2026-04-19T09:54:11Z</time></trkpt><trkpt lat="14.55383713759905" lon="121.00959475693887"><ele>7.0</ele><time>2026-04-19T09:54:12Z</time></trkpt><trkpt lat="14.553641533592138" lon="121.00970195635553"><ele>7.0</ele><time>2026-04-19T09:54:13Z</time></trkpt><trkpt lat="14.55344639419062" lon="121.00980997098331"><ele>7.0</ele><time>2026-04-19T09:54:14Z</time></trkpt><trkpt lat="14.553253602267587" lon="121.00991366483802"><ele>7.0</ele><time>2026-04-19T09:54:15Z</time></trkpt><trkpt lat="14.553061871070142" lon="121.01001727886248"><ele>7.0</ele><time>2026-04-19T09:54:16Z</time></trkpt><trkpt lat="14.552867880693373" lon="121.01011959520422"><ele>7.0</ele><time>2026-04-19T09:54:17Z</time></trkpt><trkpt lat="14.552668630249817" lon="121.01021912590481"><ele>7.0</ele><time>2026-04-19T09:54:18Z</time></trkpt><trkpt lat="14.552468170855226" lon="121.01032156129764"><ele>7.0</ele><time>2026-04-19T09:54:19Z</time></trkpt><trkpt lat="14.552263375871275" lon="121.01042586467209"><ele>7.0</ele><time>2026-04-19T09:54:20Z</time></trkpt><trkpt lat="14.552055619913952" lon="121.01053577507615"><ele>7.0</ele><time>2026-04-19T09:54:21Z</time></trkpt><trkpt lat="14.55184369253807" lon="121.01064779354687"><ele>7.5</ele><time>2026-04-19T09:54:22Z</time></trkpt><trkpt lat="14.551628689690231" lon="121.01076280199568"><ele>8.0</ele><time>2026-04-19T09:54:23Z</time></trkpt><trkpt lat="14.55140823343007" lon="121.01088429992924"><ele>8.5</ele><time>2026-04-19T09:54:24Z</time></trkpt><trkpt lat="14.55118538018364" lon="121.01100408733224"><ele>9.0</ele><time>2026-04-19T09:54:25Z</time></trkpt><trkpt lat="14.550960046589328" lon="121.01112735513128"><ele>9.0</ele><time>2026-04-19T09:54:26Z</time></trkpt><trkpt lat="14.550733721383429" lon="121.01125370453624"><ele>9.0</ele><time>2026-04-19T09:54:27Z</time></trkpt><trkpt lat="14.550507882833562" lon="121.01138660769331"><ele>8.5</ele><time>2026-04-19T09:54:28Z</time></trkpt><trkpt lat="14.550279520796467" lon="121.01151848465386"><ele>8.0</ele><time>2026-04-19T09:54:29Z</time></trkpt><trkpt lat="14.550052179237936" lon="121.01164444239663"><ele>9.5</ele><time>2026-04-19T09:54:30Z</time></trkpt><trkpt lat="14.549825277328777" lon="121.0117728866247"><ele>11.0</ele><time>2026-04-19T09:54:31Z</time></trkpt><trkpt lat="14.549599663508548" lon="121.01189799681306"><ele>10.5</ele><time>2026-04-19T09:54:32Z</time></trkpt><trkpt lat="14.549373839872473" lon="121.01202015822169"><ele>10.0</ele><time>2026-04-19T09:54:33Z</time></trkpt><trkpt lat="14.549149115781626" lon="121.01214233454115"><ele>10.0</ele><time>2026-04-19T09:54:34Z</time></trkpt><trkpt lat="14.548923453115874" lon="121.01226575552232"><ele>10.0</ele><time>2026-04-19T09:54:35Z</time></trkpt><trkpt lat="14.548699637469266" lon="121.01238540356275"><ele>9.0</ele><time>2026-04-19T09:54:36Z</time></trkpt><trkpt lat="14.548475333549288" lon="121.01250510473207"><ele>8.0</ele><time>2026-04-19T09:54:37Z</time></trkpt><trkpt lat="14.548252501258752" lon="121.01262447135703"><ele>8.0</ele><time>2026-04-19T09:54:38Z</time></trkpt><trkpt lat="14.548030726260237" lon="121.01274449000402"><ele>8.0</ele><time>2026-04-19T09:54:39Z</time></trkpt><trkpt lat="14.54780916456637" lon="121.01286471199307"><ele>8.5</ele><time>2026-04-19T09:54:40Z</time></trkpt><trkpt lat="14.547588677835066" lon="121.01298457411042"><ele>9.0</ele><time>2026-04-19T09:54:41Z</time></trkpt><trkpt lat="14.547365633686036" lon="121.01310548383951"><ele>9.0</ele><time>2026-04-19T09:54:42Z</time></trkpt><trkpt lat="14.547143833534468" lon="121.01322657232788"><ele>9.0</ele><time>2026-04-19T09:54:43Z</time></trkpt><trkpt lat="14.546922961798833" lon="121.01334581730592"><ele>11.0</ele><time>2026-04-19T09:54:44Z</time></trkpt><trkpt lat="14.546701874357309" lon="121.01346517887352"><ele>13.0</ele><time>2026-04-19T09:54:45Z</time></trkpt><trkpt lat="14.54648070845598" lon="121.01358501775213"><ele>13.0</ele><time>2026-04-19T09:54:46Z</time></trkpt><trkpt lat="14.546259783169761" lon="121.01370385104376"><ele>13.0</ele><time>2026-04-19T09:54:47Z</time></trkpt><trkpt lat="14.546039626515697" lon="121.01382108921837"><ele>11.5</ele><time>2026-04-19T09:54:48Z</time></trkpt><trkpt lat="14.545819314698948" lon="121.0139417020512"><ele>10.0</ele><time>2026-04-19T09:54:49Z</time></trkpt><trkpt lat="14.545598428021467" lon="121.01406158758479"><ele>9.5</ele><time>2026-04-19T09:54:50Z</time></trkpt><trkpt lat="14.545381584364184" lon="121.01418009803133"><ele>9.0</ele><time>2026-04-19T09:54:51Z</time></trkpt><trkpt lat="14.545164100549485" lon="121.01429798430226"><ele>10.5</ele><time>2026-04-19T09:54:52Z</time></trkpt><trkpt lat="14.544946972992335" lon="121.01441663076535"><ele>12.0</ele><time>2026-04-19T09:54:53Z</time></trkpt><trkpt lat="14.544730749015246" lon="121.01453354175707"><ele>12.0</ele><time>2026-04-19T09:54:54Z</time></trkpt><trkpt lat="14.544514946401069" lon="121.01465130953565"><ele>12.0</ele><time>2026-04-19T09:54:55Z</time></trkpt><trkpt lat="14.54429992249796" lon="121.01476803688543"><ele>12.0</ele><time>2026-04-19T09:54:56Z</time></trkpt><trkpt lat="14.5440835742103" lon="121.01488391327831"><ele>12.0</ele><time>2026-04-19T09:54:57Z</time></trkpt><trkpt lat="14.543868686003627" lon="121.01499924962395"><ele>12.0</ele><time>2026-04-19T09:54:58Z</time></trkpt><trkpt lat="14.543655498789274" lon="121.015110369344"><ele>12.0</ele><time>2026-04-19T09:54:59Z</time></trkpt><trkpt lat="14.543443654672586" lon="121.01522033650163"><ele>12.0</ele><time>2026-04-19T09:55:00Z</time></trkpt><trkpt lat="14.543232512650683" lon="121.01533179121292"><ele>12.0</ele><time>2026-04-19T09:55:01Z</time></trkpt><trkpt lat="14.543024340033334" lon="121.01544268259696"><ele>14.5</ele><time>2026-04-19T09:55:02Z</time></trkpt><trkpt lat="14.542818093523632" lon="121.01554976203913"><ele>17.0</ele><time>2026-04-19T09:55:03Z</time></trkpt><trkpt lat="14.542613140241878" lon="121.01565816891278"><ele>17.0</ele><time>2026-04-19T09:55:04Z</time></trkpt><trkpt lat="14.542406383877768" lon="121.01576711720516"><ele>17.0</ele><time>2026-04-19T09:55:05Z</time></trkpt><trkpt lat="14.54220275757415" lon="121.01587155113083"><ele>14.0</ele><time>2026-04-19T09:55:06Z</time></trkpt><trkpt lat="14.542000002459936" lon="121.0159776090908"><ele>11.0</ele><time>2026-04-19T09:55:07Z</time></trkpt><trkpt lat="14.541797253255641" lon="121.016080405202"><ele>11.0</ele><time>2026-04-19T09:55:08Z</time></trkpt><trkpt lat="14.541595834002347" lon="121.01618391750263"><ele>11.0</ele><time>2026-04-19T09:55:09Z</time></trkpt><trkpt lat="14.54139750606337" lon="121.01628775557262"><ele>11.0</ele><time>2026-04-19T09:55:10Z</time></trkpt><trkpt lat="14.541197007228465" lon="121.01638947609588"><ele>11.333333333333332</ele><time>2026-04-19T09:55:11Z</time></trkpt><trkpt lat="14.54099869158428" lon="121.01649494995057"><ele>11.666666666666666</ele><time>2026-04-19T09:55:12Z</time></trkpt><trkpt lat="14.540799960311595" lon="121.01659796675065"><ele>12.0</ele><time>2026-04-19T09:55:13Z</time></trkpt><trkpt lat="14.54060138519135" lon="121.01670323401602"><ele>12.333333333333332</ele><time>2026-04-19T09:55:14Z</time></trkpt><trkpt lat="14.540402677610704" lon="121.01680677926963"><ele>12.666666666666666</ele><time>2026-04-19T09:55:15Z</time></trkpt><trkpt lat="14.540202873009074" lon="121.0169135504982"><ele>13.0</ele><time>2026-04-19T09:55:16Z</time></trkpt><trkpt lat="14.54000364470262" lon="121.01702184792624"><ele>12.0</ele><time>2026-04-19T09:55:17Z</time></trkpt><trkpt lat="14.539803585724938" lon="121.01713152883819"><ele>11.0</ele><time>2026-04-19T09:55:18Z</time></trkpt><trkpt lat="14.539602651145586" lon="121.01723902759836"><ele>12.0</ele><time>2026-04-19T09:55:19Z</time></trkpt><trkpt lat="14.539403511176555" lon="121.01734716788377"><ele>13.0</ele><time>2026-04-19T09:55:20Z</time></trkpt><trkpt lat="14.539200381012462" lon="121.01746510948149"><ele>11.5</ele><time>2026-04-19T09:55:21Z</time></trkpt><trkpt lat="14.538998196327578" lon="121.01757840392621"><ele>10.0</ele><time>2026-04-19T09:55:22Z</time></trkpt><trkpt lat="14.538793501409033" lon="121.01769148726733"><ele>10.5</ele><time>2026-04-19T09:55:23Z</time></trkpt><trkpt lat="14.538586209016763" lon="121.01780640991151"><ele>11.0</ele><time>2026-04-19T09:55:24Z</time></trkpt><trkpt lat="14.538377066917525" lon="121.01792243353475"><ele>11.0</ele><time>2026-04-19T09:55:25Z</time></trkpt><trkpt lat="14.53816769255104" lon="121.01804278604956"><ele>11.0</ele><time>2026-04-19T09:55:26Z</time></trkpt><trkpt lat="14.537958300562803" lon="121.01816089964147"><ele>11.0</ele><time>2026-04-19T09:55:27Z</time></trkpt><trkpt lat="14.53774594940228" lon="121.01827762975324"><ele>11.0</ele><time>2026-04-19T09:55:28Z</time></trkpt><trkpt lat="14.537533276721433" lon="121.018397202449"><ele>11.0</ele><time>2026-04-19T09:55:29Z</time></trkpt><trkpt lat="14.5373208387252" lon="121.01851773159105"><ele>11.0</ele><time>2026-04-19T09:55:30Z</time></trkpt><trkpt lat="14.537108267067222" lon="121.01863531967489"><ele>11.0</ele><time>2026-04-19T09:55:31Z</time></trkpt><trkpt lat="14.536891651820696" lon="121.01875484232704"><ele>11.0</ele><time>2026-04-19T09:55:32Z</time></trkpt><trkpt lat="14.536674967183279" lon="121.01887129439125"><ele>11.0</ele><time>2026-04-19T09:55:33Z</time></trkpt><trkpt lat="14.536459950284902" lon="121.01898873737531"><ele>11.0</ele><time>2026-04-19T09:55:34Z</time></trkpt><trkpt lat="14.536244365464851" lon="121.01910709124104"><ele>13.0</ele><time>2026-04-19T09:55:35Z</time></trkpt><trkpt lat="14.536031062496308" lon="121.0192250416891"><ele>15.0</ele><time>2026-04-19T09:55:36Z</time></trkpt><trkpt lat="14.535818115337328" lon="121.01934168229388"><ele>15.0</ele><time>2026-04-19T09:55:37Z</time></trkpt><trkpt lat="14.53560434763399" lon="121.01945583770173"><ele>15.0</ele><time>2026-04-19T09:55:38Z</time></trkpt><trkpt lat="14.535392942362332" lon="121.01956992868423"><ele>14.0</ele><time>2026-04-19T09:55:39Z</time></trkpt><trkpt lat="14.535182885002564" lon="121.01968210088472"><ele>13.0</ele><time>2026-04-19T09:55:40Z</time></trkpt><trkpt lat="14.534975885709404" lon="121.01979108595489"><ele>13.0</ele><time>2026-04-19T09:55:41Z</time></trkpt><trkpt lat="14.534769287120094" lon="121.01990380437294"><ele>13.0</ele><time>2026-04-19T09:55:42Z</time></trkpt><trkpt lat="14.534564758697144" lon="121.02001343192971"><ele>14.5</ele><time>2026-04-19T09:55:43Z</time></trkpt><trkpt lat="14.534359164204474" lon="121.02012463405597"><ele>16.0</ele><time>2026-04-19T09:55:44Z</time></trkpt><trkpt lat="14.534157919534918" lon="121.02023432550683"><ele>16.0</ele><time>2026-04-19T09:55:45Z</time></trkpt><trkpt lat="14.533954201557963" lon="121.02034301010143"><ele>16.0</ele><time>2026-04-19T09:55:46Z</time></trkpt><trkpt lat="14.533752501377714" lon="121.02045420100893"><ele>16.5</ele><time>2026-04-19T09:55:47Z</time></trkpt><trkpt lat="14.533551778650034" lon="121.02056466737629"><ele>17.0</ele><time>2026-04-19T09:55:48Z</time></trkpt><trkpt lat="14.53334940944253" lon="121.02067514300552"><ele>17.0</ele><time>2026-04-19T09:55:49Z</time></trkpt><trkpt lat="14.533147095011845" lon="121.02078470273209"><ele>17.0</ele><time>2026-04-19T09:55:50Z</time></trkpt><trkpt lat="14.532942592115784" lon="121.02089297959623"><ele>14.5</ele><time>2026-04-19T09:55:51Z</time></trkpt><trkpt lat="14.532738983168699" lon="121.02100237803015"><ele>12.0</ele><time>2026-04-19T09:55:52Z</time></trkpt><trkpt lat="14.532533225611113" lon="121.02111281834802"><ele>12.0</ele><time>2026-04-19T09:55:53Z</time></trkpt><trkpt lat="14.532330316024463" lon="121.02122202138995"><ele>12.0</ele><time>2026-04-19T09:55:54Z</time></trkpt><trkpt lat="14.532125249684956" lon="121.02133212796855"><ele>10.0</ele><time>2026-04-19T09:55:55Z</time></trkpt><trkpt lat="14.531918885172484" lon="121.02144361323396"><ele>8.0</ele><time>2026-04-19T09:55:56Z</time></trkpt><trkpt lat="14.531711574722134" lon="121.0215554357483"><ele>10.0</ele><time>2026-04-19T09:55:57Z</time></trkpt><trkpt lat="14.53150722937358" lon="121.02166456170193"><ele>12.0</ele><time>2026-04-19T09:55:58Z</time></trkpt><trkpt lat="14.531299940176527" lon="121.02177735275535"><ele>10.5</ele><time>2026-04-19T09:55:59Z</time></trkpt><trkpt lat="14.531095514564942" lon="121.02189147746752"><ele>9.0</ele><time>2026-04-19T09:56:00Z</time></trkpt><trkpt lat="14.53089152822781" lon="121.0220032067669"><ele>9.0</ele><time>2026-04-19T09:56:01Z</time></trkpt><trkpt lat="14.530687714729845" lon="121.02211604876574"><ele>9.0</ele><time>2026-04-19T09:56:02Z</time></trkpt><trkpt lat="14.530484269511303" lon="121.02222481319409"><ele>8.5</ele><time>2026-04-19T09:56:03Z</time></trkpt><trkpt lat="14.530279662190898" lon="121.02233386311198"><ele>8.0</ele><time>2026-04-19T09:56:04Z</time></trkpt><trkpt lat="14.530075013755402" lon="121.02244279564195"><ele>9.5</ele><time>2026-04-19T09:56:05Z</time></trkpt><trkpt lat="14.529871005118949" lon="121.0225515195106"><ele>11.0</ele><time>2026-04-19T09:56:06Z</time></trkpt><trkpt lat="14.529667701250261" lon="121.02266070215076"><ele>10.5</ele><time>2026-04-19T09:56:07Z</time></trkpt><trkpt lat="14.529464939777437" lon="121.02277031308626"><ele>10.0</ele><time>2026-04-19T09:56:08Z</time></trkpt><trkpt lat="14.529260313888694" lon="121.02287920219001"><ele>10.0</ele><time>2026-04-19T09:56:09Z</time></trkpt><trkpt lat="14.529056411775866" lon="121.02298866287255"><ele>10.0</ele><time>2026-04-19T09:56:10Z</time></trkpt><trkpt lat="14.528854878059065" lon="121.02309777694998"><ele>10.0</ele><time>2026-04-19T09:56:11Z</time></trkpt><trkpt lat="14.528652617011081" lon="121.0232073826855"><ele>10.0</ele><time>2026-04-19T09:56:12Z</time></trkpt><trkpt lat="14.528452240820727" lon="121.02331560541029"><ele>10.0</ele><time>2026-04-19T09:56:13Z</time></trkpt><trkpt lat="14.528250497471701" lon="121.02342372587319"><ele>10.0</ele><time>2026-04-19T09:56:14Z</time></trkpt><trkpt lat="14.528049326645668" lon="121.02352972230317"><ele>10.5</ele><time>2026-04-19T09:56:15Z</time></trkpt><trkpt lat="14.527848750178196" lon="121.02363873390019"><ele>11.0</ele><time>2026-04-19T09:56:16Z</time></trkpt><trkpt lat="14.52765078478609" lon="121.02375050671903"><ele>11.0</ele><time>2026-04-19T09:56:17Z</time></trkpt><trkpt lat="14.52745335666518" lon="121.02386216132001"><ele>11.0</ele><time>2026-04-19T09:56:18Z</time></trkpt><trkpt lat="14.527257623881216" lon="121.02397810271243"><ele>11.0</ele><time>2026-04-19T09:56:19Z</time></trkpt><trkpt lat="14.527065844695567" lon="121.02409846956562"><ele>11.0</ele><time>2026-04-19T09:56:20Z</time></trkpt><trkpt lat="14.526875846206169" lon="121.02422150768133"><ele>11.0</ele><time>2026-04-19T09:56:21Z</time></trkpt><trkpt lat="14.526686702351961" lon="121.02434784269975"><ele>11.333333333333332</ele><time>2026-04-19T09:56:22Z</time></trkpt><trkpt lat="14.526500486440135" lon="121.02447640647264"><ele>11.666666666666666</ele><time>2026-04-19T09:56:23Z</time></trkpt><trkpt lat="14.526315876244754" lon="121.0246095610242"><ele>12.0</ele><time>2026-04-19T09:56:24Z</time></trkpt><trkpt lat="14.526133001960712" lon="121.0247433876905"><ele>11.333333333333334</ele><time>2026-04-19T09:56:25Z</time></trkpt><trkpt lat="14.525952365947333" lon="121.02487988370997"><ele>10.666666666666668</ele><time>2026-04-19T09:56:26Z</time></trkpt><trkpt lat="14.525775736438428" lon="121.02502310933812"><ele>10.0</ele><time>2026-04-19T09:56:27Z</time></trkpt><trkpt lat="14.525597517242245" lon="121.0251614112096"><ele>10.0</ele><time>2026-04-19T09:56:28Z</time></trkpt><trkpt lat="14.525420195682257" lon="121.02529850536234"><ele>10.0</ele><time>2026-04-19T09:56:29Z</time></trkpt><trkpt lat="14.525240245468638" lon="121.02543331338731"><ele>10.0</ele><time>2026-04-19T09:56:30Z</time></trkpt><trkpt lat="14.525058693765516" lon="121.02556813998439"><ele>10.333333333333334</ele><time>2026-04-19T09:56:31Z</time></trkpt><trkpt lat="14.524872307282955" lon="121.02569839449689"><ele>10.666666666666666</ele><time>2026-04-19T09:56:32Z</time></trkpt><trkpt lat="14.524683432388969" lon="121.02582230931884"><ele>11.0</ele><time>2026-04-19T09:56:33Z</time></trkpt><trkpt lat="14.524492230146265" lon="121.02594616284952"><ele>13.0</ele><time>2026-04-19T09:56:34Z</time></trkpt><trkpt lat="14.524301061107936" lon="121.02606642841636"><ele>15.0</ele><time>2026-04-19T09:56:35Z</time></trkpt><trkpt lat="14.524108481612506" lon="121.02618585999159"><ele>17.0</ele><time>2026-04-19T09:56:36Z</time></trkpt><trkpt lat="14.523913802344477" lon="121.02630372697958"><ele>16.666666666666668</ele><time>2026-04-19T09:56:37Z</time></trkpt><trkpt lat="14.523718433813368" lon="121.02641511705541"><ele>16.333333333333332</ele><time>2026-04-19T09:56:38Z</time></trkpt><trkpt lat="14.523521819205111" lon="121.02652699300806"><ele>16.0</ele><time>2026-04-19T09:56:39Z</time></trkpt><trkpt lat="14.523324355061446" lon="121.02663463658595"><ele>15.666666666666666</ele><time>2026-04-19T09:56:40Z</time></trkpt><trkpt lat="14.523125798962177" lon="121.02674297377396"><ele>15.333333333333332</ele><time>2026-04-19T09:56:41Z</time></trkpt><trkpt lat="14.52292740508023" lon="121.02685114532012"><ele>15.0</ele><time>2026-04-19T09:56:42Z</time></trkpt><trkpt lat="14.522727050820254" lon="121.02695830735212"><ele>16.0</ele><time>2026-04-19T09:56:43Z</time></trkpt><trkpt lat="14.522525328511517" lon="121.02706618214916"><ele>17.0</ele><time>2026-04-19T09:56:44Z</time></trkpt><trkpt lat="14.52232524179098" lon="121.02717443692272"><ele>17.0</ele><time>2026-04-19T09:56:45Z</time></trkpt><trkpt lat="14.522122930593994" lon="121.02728173897457"><ele>17.0</ele><time>2026-04-19T09:56:46Z</time></trkpt><trkpt lat="14.521922589578224" lon="121.02738827418621"><ele>17.0</ele><time>2026-04-19T09:56:47Z</time></trkpt><trkpt lat="14.52172307899759" lon="121.02749551840525"><ele>17.0</ele><time>2026-04-19T09:56:48Z</time></trkpt><trkpt lat="14.521524969412281" lon="121.02760132867367"><ele>17.0</ele><time>2026-04-19T09:56:49Z</time></trkpt><trkpt lat="14.52132648324286" lon="121.02770733181701"><ele>16.666666666666668</ele><time>2026-04-19T09:56:50Z</time></trkpt><trkpt lat="14.521129974749938" lon="121.02781000126247"><ele>16.333333333333332</ele><time>2026-04-19T09:56:51Z</time></trkpt><trkpt lat="14.52093304010048" lon="121.02791229135504"><ele>16.0</ele><time>2026-04-19T09:56:52Z</time></trkpt><trkpt lat="14.520735229542755" lon="121.02801494546165"><ele>16.0</ele><time>2026-04-19T09:56:53Z</time></trkpt><trkpt lat="14.52054016879657" lon="121.02812075580327"><ele>16.0</ele><time>2026-04-19T09:56:54Z</time></trkpt><trkpt lat="14.520344889644377" lon="121.02822322131831"><ele>16.0</ele><time>2026-04-19T09:56:55Z</time></trkpt><trkpt lat="14.520151737420292" lon="121.0283264192482"><ele>16.666666666666664</ele><time>2026-04-19T09:56:56Z</time></trkpt><trkpt lat="14.519961656823588" lon="121.0284276228454"><ele>17.333333333333332</ele><time>2026-04-19T09:56:57Z</time></trkpt><trkpt lat="14.519767924183272" lon="121.02852875655944"><ele>18.0</ele><time>2026-04-19T09:56:58Z</time></trkpt><trkpt lat="14.519574625725438" lon="121.02863116315623"><ele>18.333333333333332</ele><time>2026-04-19T09:56:59Z</time></trkpt><trkpt lat="14.519374776124739" lon="121.02873207723277"><ele>18.666666666666664</ele><time>2026-04-19T09:57:00Z</time></trkpt><trkpt lat="14.519176919428423" lon="121.0288396186193"><ele>19.0</ele><time>2026-04-19T09:57:01Z</time></trkpt><trkpt lat="14.518979686238284" lon="121.0289419063437"><ele>19.0</ele><time>2026-04-19T09:57:02Z</time></trkpt><trkpt lat="14.518781590064728" lon="121.02904473313761"><ele>19.0</ele><time>2026-04-19T09:57:03Z</time></trkpt><trkpt lat="14.518583276811158" lon="121.02914745243096"><ele>19.0</ele><time>2026-04-19T09:57:04Z</time></trkpt><trkpt lat="14.518385551389049" lon="121.02925001280511"><ele>19.0</ele><time>2026-04-19T09:57:05Z</time></trkpt><trkpt lat="14.518190388420425" lon="121.02935161435674"><ele>19.0</ele><time>2026-04-19T09:57:06Z</time></trkpt><trkpt lat="14.517992595169643" lon="121.02945553085375"><ele>19.0</ele><time>2026-04-19T09:57:07Z</time></trkpt><trkpt lat="14.517798013589061" lon="121.02955717410622"><ele>19.666666666666664</ele><time>2026-04-19T09:57:08Z</time></trkpt><trkpt lat="14.5176054066388" lon="121.0296599038525"><ele>20.333333333333332</ele><time>2026-04-19T09:57:09Z</time></trkpt><trkpt lat="14.517419394135171" lon="121.02975942233837"><ele>21.0</ele><time>2026-04-19T09:57:10Z</time></trkpt><trkpt lat="14.51723735576735" lon="121.02986088829695"><ele>20.0</ele><time>2026-04-19T09:57:11Z</time></trkpt><trkpt lat="14.517141742089077" lon="121.03012541110408"><ele>19.0</ele><time>2026-04-19T09:57:12Z</time></trkpt><trkpt lat="14.516962510727302" lon="121.03022122040501"><ele>20.333333333333332</ele><time>2026-04-19T09:57:13Z</time></trkpt><trkpt lat="14.516788296412065" lon="121.03031455426098"><ele>21.666666666666668</ele><time>2026-04-19T09:57:14Z</time></trkpt><trkpt lat="14.51661621342606" lon="121.03040674627702"><ele>23.0</ele><time>2026-04-19T09:57:15Z</time></trkpt><trkpt lat="14.516446877170946" lon="121.03049717993504"><ele>23.0</ele><time>2026-04-19T09:57:16Z</time></trkpt><trkpt lat="14.516282507674056" lon="121.03058552956942"><ele>23.0</ele><time>2026-04-19T09:57:17Z</time></trkpt><trkpt lat="14.516119772482778" lon="121.03067249604238"><ele>23.0</ele><time>2026-04-19T09:57:18Z</time></trkpt><trkpt lat="14.51596031568591" lon="121.03075771052573"><ele>22.333333333333336</ele><time>2026-04-19T09:57:19Z</time></trkpt><trkpt lat="14.515801818926267" lon="121.03084241196039"><ele>21.666666666666668</ele><time>2026-04-19T09:57:20Z</time></trkpt><trkpt lat="14.515646283372327" lon="121.03092561376504"><ele>21.0</ele><time>2026-04-19T09:57:21Z</time></trkpt><trkpt lat="14.515493918841772" lon="121.03100717179612"><ele>22.0</ele><time>2026-04-19T09:57:22Z</time></trkpt><trkpt lat="14.515341779327228" lon="121.03108860938175"><ele>23.0</ele><time>2026-04-19T09:57:23Z</time></trkpt><trkpt lat="14.515191007273312" lon="121.03117002074168"><ele>24.0</ele><time>2026-04-19T09:57:24Z</time></trkpt><trkpt lat="14.515042786024805" lon="121.03125131313892"><ele>24.0</ele><time>2026-04-19T09:57:25Z</time></trkpt><trkpt lat="14.514898261874624" lon="121.03133057785182"><ele>24.0</ele><time>2026-04-19T09:57:26Z</time></trkpt><trkpt lat="14.514758666047554" lon="121.03140713961102"><ele>24.0</ele><time>2026-04-19T09:57:27Z</time></trkpt><trkpt lat="14.51462868021793" lon="121.0314784307384"><ele>24.0</ele><time>2026-04-19T09:57:28Z</time></trkpt><trkpt lat="14.514503019927739" lon="121.03154735250384"><ele>24.0</ele><time>2026-04-19T09:57:29Z</time></trkpt><trkpt lat="14.514380865375262" lon="121.03161439568026"><ele>24.0</ele><time>2026-04-19T09:57:30Z</time></trkpt><trkpt lat="14.514254835994878" lon="121.03168356551187"><ele>24.0</ele><time>2026-04-19T09:57:31Z</time></trkpt><trkpt lat="14.51414737139583" lon="121.03175355933536"><ele>24.0</ele><time>2026-04-19T09:57:32Z</time></trkpt><trkpt lat="14.514024060052874" lon="121.0318361379932"><ele>24.0</ele><time>2026-04-19T09:57:33Z</time></trkpt><trkpt lat="14.513927613651612" lon="121.03192024924101"><ele>24.0</ele><time>2026-04-19T09:57:34Z</time></trkpt><trkpt lat="14.513817137172225" lon="121.03201585970746"><ele>24.0</ele><time>2026-04-19T09:57:35Z</time></trkpt><trkpt lat="14.513700885813027" lon="121.03211873843216"><ele>24.0</ele><time>2026-04-19T09:57:36Z</time></trkpt><trkpt lat="14.513589838657985" lon="121.03222045285139"><ele>24.0</ele><time>2026-04-19T09:57:37Z</time></trkpt><trkpt lat="14.513471061171181" lon="121.03233076361087"><ele>24.0</ele><time>2026-04-19T09:57:38Z</time></trkpt><trkpt lat="14.513331797447874" lon="121.03245089640583"><ele>24.666666666666664</ele><time>2026-04-19T09:57:39Z</time></trkpt><trkpt lat="14.513150646383439" lon="121.03257912023135"><ele>25.333333333333332</ele><time>2026-04-19T09:57:40Z</time></trkpt><trkpt lat="14.512994144676382" lon="121.03267439855718"><ele>26.0</ele><time>2026-04-19T09:57:41Z</time></trkpt><trkpt lat="14.512834179563466" lon="121.03276650139806"><ele>26.333333333333332</ele><time>2026-04-19T09:57:42Z</time></trkpt><trkpt lat="14.51267782289809" lon="121.03285328711237"><ele>26.666666666666664</ele><time>2026-04-19T09:57:43Z</time></trkpt><trkpt lat="14.5124993181425" lon="121.03294614491439"><ele>27.0</ele><time>2026-04-19T09:57:44Z</time></trkpt><trkpt lat="14.512358743739627" lon="121.03302553411592"><ele>27.0</ele><time>2026-04-19T09:57:45Z</time></trkpt><trkpt lat="14.512196837314232" lon="121.03311882323923"><ele>27.0</ele><time>2026-04-19T09:57:46Z</time></trkpt><trkpt lat="14.512008851659168" lon="121.0332192380483"><ele>27.0</ele><time>2026-04-19T09:57:47Z</time></trkpt><trkpt lat="14.511839284797176" lon="121.03330402147833"><ele>27.0</ele><time>2026-04-19T09:57:48Z</time></trkpt><trkpt lat="14.511625809692065" lon="121.03339198312426"><ele>27.0</ele><time>2026-04-19T09:57:49Z</time></trkpt><trkpt lat="14.51145005372482" lon="121.03345566941088"><ele>27.0</ele><time>2026-04-19T09:57:50Z</time></trkpt><trkpt lat="14.511272314982984" lon="121.0335200741609"><ele>27.0</ele><time>2026-04-19T09:57:51Z</time></trkpt><trkpt lat="14.511102924627412" lon="121.03358302781713"><ele>27.0</ele><time>2026-04-19T09:57:52Z</time></trkpt><trkpt lat="14.51092364527602" lon="121.03365828417793"><ele>27.0</ele><time>2026-04-19T09:57:53Z</time></trkpt><trkpt lat="14.510760990182929" lon="121.03373738031145"><ele>27.0</ele><time>2026-04-19T09:57:54Z</time></trkpt><trkpt lat="14.510583847197838" lon="121.03382551841453"><ele>27.0</ele><time>2026-04-19T09:57:55Z</time></trkpt><trkpt lat="14.510406530066033" lon="121.03391374315615"><ele>27.0</ele><time>2026-04-19T09:57:56Z</time></trkpt><trkpt lat="14.510244812093214" lon="121.03400985502036"><ele>26.666666666666664</ele><time>2026-04-19T09:57:57Z</time></trkpt><trkpt lat="14.510074121079194" lon="121.03410472647441"><ele>26.333333333333332</ele><time>2026-04-19T09:57:58Z</time></trkpt><trkpt lat="14.509905342819804" lon="121.03419850630061"><ele>26.0</ele><time>2026-04-19T09:57:59Z</time></trkpt><trkpt lat="14.509737721131284" lon="121.034291643491"><ele>25.666666666666664</ele><time>2026-04-19T09:58:00Z</time></trkpt><trkpt lat="14.509570100252539" lon="121.03438357252722"><ele>25.333333333333336</ele><time>2026-04-19T09:58:01Z</time></trkpt><trkpt lat="14.509403319414245" lon="121.03447437323403"><ele>25.0</ele><time>2026-04-19T09:58:02Z</time></trkpt><trkpt lat="14.50919800072743" lon="121.03456564016273"><ele>25.0</ele><time>2026-04-19T09:58:03Z</time></trkpt><trkpt lat="14.508996741694029" lon="121.03463102458113"><ele>25.0</ele><time>2026-04-19T09:58:04Z</time></trkpt><trkpt lat="14.508782355879353" lon="121.03467479001395"><ele>25.0</ele><time>2026-04-19T09:58:05Z</time></trkpt><trkpt lat="14.508593983861012" lon="121.03471362278188"><ele>23.0</ele><time>2026-04-19T09:58:06Z</time></trkpt><trkpt lat="14.508407139941939" lon="121.03475214052638"><ele>21.0</ele><time>2026-04-19T09:58:07Z</time></trkpt><trkpt lat="14.508239460670065" lon="121.03479561743919"><ele>19.0</ele><time>2026-04-19T09:58:08Z</time></trkpt><trkpt lat="14.508081317657458" lon="121.03486166298985"><ele>19.0</ele><time>2026-04-19T09:58:09Z</time></trkpt><trkpt lat="14.507913147043372" lon="121.03493687726939"><ele>19.0</ele><time>2026-04-19T09:58:10Z</time></trkpt><trkpt lat="14.507762762627923" lon="121.03501381136088"><ele>19.0</ele><time>2026-04-19T09:58:11Z</time></trkpt><trkpt lat="14.507603882888429" lon="121.03509808426628"><ele>19.666666666666664</ele><time>2026-04-19T09:58:12Z</time></trkpt><trkpt lat="14.507446381425817" lon="121.03518162610605"><ele>20.333333333333332</ele><time>2026-04-19T09:58:13Z</time></trkpt><trkpt lat="14.507288494917498" lon="121.03526537218066"><ele>21.0</ele><time>2026-04-19T09:58:14Z</time></trkpt><trkpt lat="14.507131953677758" lon="121.03534867159696"><ele>20.333333333333332</ele><time>2026-04-19T09:58:15Z</time></trkpt><trkpt lat="14.50697627415871" lon="121.03543200404944"><ele>19.666666666666664</ele><time>2026-04-19T09:58:16Z</time></trkpt><trkpt lat="14.506805982100909" lon="121.03551935256793"><ele>19.0</ele><time>2026-04-19T09:58:17Z</time></trkpt><trkpt lat="14.506641826896814" lon="121.0356017439543"><ele>19.0</ele><time>2026-04-19T09:58:18Z</time></trkpt><trkpt lat="14.506488405539011" lon="121.03568171153897"><ele>19.0</ele><time>2026-04-19T09:58:19Z</time></trkpt><trkpt lat="14.506323881123759" lon="121.03577116413615"><ele>19.0</ele><time>2026-04-19T09:58:20Z</time></trkpt><trkpt lat="14.50615679542704" lon="121.03586200929944"><ele>19.666666666666664</ele><time>2026-04-19T09:58:21Z</time></trkpt><trkpt lat="14.50598173985363" lon="121.03595472399105"><ele>20.333333333333332</ele><time>2026-04-19T09:58:22Z</time></trkpt><trkpt lat="14.505813100569084" lon="121.03604413891453"><ele>21.0</ele><time>2026-04-19T09:58:23Z</time></trkpt><trkpt lat="14.50564247746221" lon="121.0361346056896"><ele>21.0</ele><time>2026-04-19T09:58:24Z</time></trkpt><trkpt lat="14.505470307626055" lon="121.03622542398995"><ele>21.0</ele><time>2026-04-19T09:58:25Z</time></trkpt><trkpt lat="14.505297790227505" lon="121.03631619232172"><ele>21.0</ele><time>2026-04-19T09:58:26Z</time></trkpt><trkpt lat="14.505127940344979" lon="121.0364056038601"><ele>21.333333333333332</ele><time>2026-04-19T09:58:27Z</time></trkpt><trkpt lat="14.50496269356373" lon="121.03649404135219"><ele>21.666666666666664</ele><time>2026-04-19T09:58:28Z</time></trkpt><trkpt lat="14.504800942172857" lon="121.03658088492925"><ele>22.0</ele><time>2026-04-19T09:58:29Z</time></trkpt><trkpt lat="14.50463810564766" lon="121.03667077609738"><ele>22.666666666666664</ele><time>2026-04-19T09:58:30Z</time></trkpt><trkpt lat="14.504479473280325" lon="121.03675834643094"><ele>23.333333333333332</ele><time>2026-04-19T09:58:31Z</time></trkpt><trkpt lat="14.504325679719859" lon="121.03684324558272"><ele>24.0</ele><time>2026-04-19T09:58:32Z</time></trkpt><trkpt lat="14.50413891499059" lon="121.03687718305824"><ele>24.0</ele><time>2026-04-19T09:58:33Z</time></trkpt><trkpt lat="14.503994418173136" lon="121.03695423732906"><ele>24.0</ele><time>2026-04-19T09:58:34Z</time></trkpt><trkpt lat="14.503850155366619" lon="121.03703192414628"><ele>24.0</ele><time>2026-04-19T09:58:35Z</time></trkpt><trkpt lat="14.50370964854104" lon="121.03710758830904"><ele>23.666666666666668</ele><time>2026-04-19T09:58:36Z</time></trkpt><trkpt lat="14.503566879184891" lon="121.03718441913833"><ele>23.333333333333336</ele><time>2026-04-19T09:58:37Z</time></trkpt><trkpt lat="14.503420654344211" lon="121.03726290296255"><ele>23.0</ele><time>2026-04-19T09:58:38Z</time></trkpt><trkpt lat="14.503270170307173" lon="121.03734367280313"><ele>23.0</ele><time>2026-04-19T09:58:39Z</time></trkpt><trkpt lat="14.503113586533113" lon="121.0374277165751"><ele>23.0</ele><time>2026-04-19T09:58:40Z</time></trkpt><trkpt lat="14.502950233464563" lon="121.03751476267806"><ele>23.0</ele><time>2026-04-19T09:58:41Z</time></trkpt><trkpt lat="14.502793126425553" lon="121.0376006905104"><ele>23.333333333333336</ele><time>2026-04-19T09:58:42Z</time></trkpt><trkpt lat="14.502625929267227" lon="121.03769186006265"><ele>23.666666666666668</ele><time>2026-04-19T09:58:43Z</time></trkpt><trkpt lat="14.50245840664725" lon="121.03778320707217"><ele>24.0</ele><time>2026-04-19T09:58:44Z</time></trkpt><trkpt lat="14.502267319131334" lon="121.03788091986137"><ele>24.0</ele><time>2026-04-19T09:58:45Z</time></trkpt><trkpt lat="14.502096793481844" lon="121.03797169682935"><ele>24.0</ele><time>2026-04-19T09:58:46Z</time></trkpt><trkpt lat="14.50192365369979" lon="121.03805890280502"><ele>24.0</ele><time>2026-04-19T09:58:47Z</time></trkpt><trkpt lat="14.501743328021835" lon="121.03814744518131"><ele>24.333333333333336</ele><time>2026-04-19T09:58:48Z</time></trkpt><trkpt lat="14.501563074171422" lon="121.03823507140758"><ele>24.666666666666668</ele><time>2026-04-19T09:58:49Z</time></trkpt><trkpt lat="14.501376942066464" lon="121.0383272386378"><ele>25.0</ele><time>2026-04-19T09:58:50Z</time></trkpt><trkpt lat="14.501189912265952" lon="121.03841542278987"><ele>25.666666666666668</ele><time>2026-04-19T09:58:51Z</time></trkpt><trkpt lat="14.501024595282969" lon="121.03850153768988"><ele>26.333333333333336</ele><time>2026-04-19T09:58:52Z</time></trkpt><trkpt lat="14.500838354782369" lon="121.0386040965243"><ele>27.0</ele><time>2026-04-19T09:58:53Z</time></trkpt><trkpt lat="14.500656584834218" lon="121.03870762350243"><ele>27.0</ele><time>2026-04-19T09:58:54Z</time></trkpt><trkpt lat="14.50046750030866" lon="121.03881592824749"><ele>27.0</ele><time>2026-04-19T09:58:55Z</time></trkpt><trkpt lat="14.500270889976134" lon="121.03892428166505"><ele>27.0</ele><time>2026-04-19T09:58:56Z</time></trkpt><trkpt lat="14.50007962172717" lon="121.03902966892115"><ele>27.333333333333336</ele><time>2026-04-19T09:58:57Z</time></trkpt><trkpt lat="14.4998837632948" lon="121.03913603583229"><ele>27.666666666666668</ele><time>2026-04-19T09:58:58Z</time></trkpt><trkpt lat="14.499689661561852" lon="121.0392408707557"><ele>28.0</ele><time>2026-04-19T09:58:59Z</time></trkpt><trkpt lat="14.499496402044013" lon="121.03934474511291"><ele>28.0</ele><time>2026-04-19T09:59:00Z</time></trkpt><trkpt lat="14.499302268134175" lon="121.0394490894568"><ele>28.0</ele><time>2026-04-19T09:59:01Z</time></trkpt><trkpt lat="14.499108514550354" lon="121.03955322937469"><ele>28.0</ele><time>2026-04-19T09:59:02Z</time></trkpt><trkpt lat="14.49891187290812" lon="121.03965735579538"><ele>29.0</ele><time>2026-04-19T09:59:03Z</time></trkpt><trkpt lat="14.498721552270046" lon="121.03975649100755"><ele>30.0</ele><time>2026-04-19T09:59:04Z</time></trkpt><trkpt lat="14.49853368675133" lon="121.03985434768008"><ele>31.0</ele><time>2026-04-19T09:59:05Z</time></trkpt><trkpt lat="14.49837013740439" lon="121.03995149027358"><ele>31.333333333333336</ele><time>2026-04-19T09:59:06Z</time></trkpt><trkpt lat="14.498179297738334" lon="121.0400560740278"><ele>31.666666666666664</ele><time>2026-04-19T09:59:07Z</time></trkpt><trkpt lat="14.497996515012366" lon="121.04015548851041"><ele>32.0</ele><time>2026-04-19T09:59:08Z</time></trkpt><trkpt lat="14.497812937965769" lon="121.04025533501569"><ele>32.0</ele><time>2026-04-19T09:59:09Z</time></trkpt><trkpt lat="14.497631892318273" lon="121.04035448437477"><ele>32.0</ele><time>2026-04-19T09:59:10Z</time></trkpt><trkpt lat="14.497438159165558" lon="121.04045887979443"><ele>32.0</ele><time>2026-04-19T09:59:11Z</time></trkpt><trkpt lat="14.49724155780818" lon="121.04056256503112"><ele>31.333333333333332</ele><time>2026-04-19T09:59:12Z</time></trkpt><trkpt lat="14.497049031741449" lon="121.04066237626486"><ele>30.666666666666664</ele><time>2026-04-19T09:59:13Z</time></trkpt><trkpt lat="14.496865795101574" lon="121.04076092092328"><ele>30.0</ele><time>2026-04-19T09:59:14Z</time></trkpt><trkpt lat="14.496672475144827" lon="121.04086783635861"><ele>30.0</ele><time>2026-04-19T09:59:15Z</time></trkpt><trkpt lat="14.4964773402272" lon="121.04097575555254"><ele>30.0</ele><time>2026-04-19T09:59:16Z</time></trkpt><trkpt lat="14.496280072621559" lon="121.04108485420177"><ele>30.0</ele><time>2026-04-19T09:59:17Z</time></trkpt><trkpt lat="14.49607596458701" lon="121.04119382401603"><ele>29.666666666666664</ele><time>2026-04-19T09:59:18Z</time></trkpt><trkpt lat="14.495877128950696" lon="121.04130066626507"><ele>29.333333333333332</ele><time>2026-04-19T09:59:19Z</time></trkpt><trkpt lat="14.495681292044106" lon="121.04140822267576"><ele>29.0</ele><time>2026-04-19T09:59:20Z</time></trkpt><trkpt lat="14.495481083193237" lon="121.04151342049595"><ele>28.666666666666664</ele><time>2026-04-19T09:59:21Z</time></trkpt><trkpt lat="14.495285177171455" lon="121.04161820900264"><ele>28.333333333333336</ele><time>2026-04-19T09:59:22Z</time></trkpt><trkpt lat="14.495088703944267" lon="121.04172408486852"><ele>28.0</ele><time>2026-04-19T09:59:23Z</time></trkpt><trkpt lat="14.494894253753376" lon="121.04182565859719"><ele>28.0</ele><time>2026-04-19T09:59:24Z</time></trkpt><trkpt lat="14.494699493928792" lon="121.0419273940749"><ele>28.0</ele><time>2026-04-19T09:59:25Z</time></trkpt><trkpt lat="14.494495063767047" lon="121.04203275795336"><ele>28.0</ele><time>2026-04-19T09:59:26Z</time></trkpt><trkpt lat="14.494310045183571" lon="121.04213331543829"><ele>27.5</ele><time>2026-04-19T09:59:27Z</time></trkpt><trkpt lat="14.494104720617631" lon="121.0422433469811"><ele>27.0</ele><time>2026-04-19T09:59:28Z</time></trkpt><trkpt lat="14.493905078109664" lon="121.04234445843703"><ele>27.333333333333336</ele><time>2026-04-19T09:59:29Z</time></trkpt><trkpt lat="14.49372095195927" lon="121.04244894246688"><ele>27.666666666666668</ele><time>2026-04-19T09:59:30Z</time></trkpt><trkpt lat="14.493528427725403" lon="121.04255692534015"><ele>28.0</ele><time>2026-04-19T09:59:31Z</time></trkpt><trkpt lat="14.49331244414369" lon="121.04267390763121"><ele>29.5</ele><time>2026-04-19T09:59:32Z</time></trkpt><trkpt lat="14.493109828895184" lon="121.04278004205077"><ele>31.0</ele><time>2026-04-19T09:59:33Z</time></trkpt><trkpt lat="14.492908409754785" lon="121.04288598734753"><ele>34.0</ele><time>2026-04-19T09:59:34Z</time></trkpt><trkpt lat="14.492714542521997" lon="121.04299064953008"><ele>37.0</ele><time>2026-04-19T09:59:35Z</time></trkpt><trkpt lat="14.49250647388508" lon="121.04310800090344"><ele>37.0</ele><time>2026-04-19T09:59:36Z</time></trkpt><trkpt lat="14.492297382729406" lon="121.04322041523682"><ele>37.0</ele><time>2026-04-19T09:59:37Z</time></trkpt><trkpt lat="14.492094652562404" lon="121.04332511541232"><ele>36.0</ele><time>2026-04-19T09:59:38Z</time></trkpt><trkpt lat="14.491891925496462" lon="121.04342981398055"><ele>35.0</ele><time>2026-04-19T09:59:39Z</time></trkpt><trkpt lat="14.491692475108035" lon="121.0435331342545"><ele>35.0</ele><time>2026-04-19T09:59:40Z</time></trkpt><trkpt lat="14.491501983041076" lon="121.04363606725808"><ele>35.0</ele><time>2026-04-19T09:59:41Z</time></trkpt><trkpt lat="14.491304388323497" lon="121.04374437959198"><ele>35.0</ele><time>2026-04-19T09:59:42Z</time></trkpt><trkpt lat="14.491107827065356" lon="121.04385212544425"><ele>35.33333333333333</ele><time>2026-04-19T09:59:43Z</time></trkpt><trkpt lat="14.490911264093631" lon="121.04395987222986"><ele>35.666666666666664</ele><time>2026-04-19T09:59:44Z</time></trkpt><trkpt lat="14.490715465125314" lon="121.04406716412493"><ele>36.0</ele><time>2026-04-19T09:59:45Z</time></trkpt><trkpt lat="14.490523248131346" lon="121.04417243418868"><ele>36.333333333333336</ele><time>2026-04-19T09:59:46Z</time></trkpt><trkpt lat="14.490331104660033" lon="121.04427792818343"><ele>36.66666666666667</ele><time>2026-04-19T09:59:47Z</time></trkpt><trkpt lat="14.490138778193634" lon="121.04438293277508"><ele>37.0</ele><time>2026-04-19T09:59:48Z</time></trkpt><trkpt lat="14.489948072653954" lon="121.04448673244495"><ele>37.0</ele><time>2026-04-19T09:59:49Z</time></trkpt><trkpt lat="14.489760638331312" lon="121.04458875161377"><ele>37.0</ele><time>2026-04-19T09:59:50Z</time></trkpt><trkpt lat="14.48964018202991" lon="121.04466206726214"><ele>37.0</ele><time>2026-04-19T09:59:51Z</time></trkpt><trkpt lat="14.489458102434439" lon="121.04476097254131"><ele>36.333333333333336</ele><time>2026-04-19T09:59:52Z</time></trkpt><trkpt lat="14.489414155666916" lon="121.04482531060997"><ele>35.666666666666664</ele><time>2026-04-19T09:59:53Z</time></trkpt><trkpt lat="14.489373180142017" lon="121.04487471274732"><ele>35.0</ele><time>2026-04-19T09:59:54Z</time></trkpt><trkpt lat="14.488535555743116" lon="121.0445161824706"><ele>35.0</ele><time>2026-04-19T09:59:55Z</time></trkpt><trkpt lat="14.488333051255498" lon="121.04458038164401"><ele>35.0</ele><time>2026-04-19T09:59:56Z</time></trkpt><trkpt lat="14.4881310757331" lon="121.04464028534825"><ele>35.0</ele><time>2026-04-19T09:59:57Z</time></trkpt><trkpt lat="14.487930086433972" lon="121.04469557607628"><ele>34.0</ele><time>2026-04-19T09:59:58Z</time></trkpt><trkpt lat="14.487729077925616" lon="121.04474836601928"><ele>33.0</ele><time>2026-04-19T09:59:59Z</time></trkpt><trkpt lat="14.48752964971749" lon="121.04479670249476"><ele>32.0</ele><time>2026-04-19T10:00:00Z</time></trkpt><trkpt lat="14.487329640018158" lon="121.04484089098841"><ele>32.0</ele><time>2026-04-19T10:00:01Z</time></trkpt><trkpt lat="14.48712687146361" lon="121.04488187527457"><ele>32.0</ele><time>2026-04-19T10:00:02Z</time></trkpt><trkpt lat="14.486922893170599" lon="121.04491877081679"><ele>32.0</ele><time>2026-04-19T10:00:03Z</time></trkpt><trkpt lat="14.486716395597133" lon="121.04495409474633"><ele>32.666666666666664</ele><time>2026-04-19T10:00:04Z</time></trkpt><trkpt lat="14.486508723611099" lon="121.04498586498774"><ele>33.333333333333336</ele><time>2026-04-19T10:00:05Z</time></trkpt><trkpt lat="14.486297506588123" lon="121.04501520737429"><ele>34.0</ele><time>2026-04-19T10:00:06Z</time></trkpt><trkpt lat="14.486083300573593" lon="121.0450412963962"><ele>34.333333333333336</ele><time>2026-04-19T10:00:07Z</time></trkpt><trkpt lat="14.485866614555807" lon="121.04506182922253"><ele>34.666666666666664</ele><time>2026-04-19T10:00:08Z</time></trkpt><trkpt lat="14.485647131018094" lon="121.0450793393783"><ele>35.0</ele><time>2026-04-19T10:00:09Z</time></trkpt><trkpt lat="14.485428126119304" lon="121.04509048115493"><ele>33.33333333333333</ele><time>2026-04-19T10:00:10Z</time></trkpt><trkpt lat="14.485205651709144" lon="121.04510226789664"><ele>31.666666666666664</ele><time>2026-04-19T10:00:11Z</time></trkpt><trkpt lat="14.484982214950715" lon="121.04510932229861"><ele>30.0</ele><time>2026-04-19T10:00:12Z</time></trkpt><trkpt lat="14.484758437228889" lon="121.0451109613005"><ele>30.5</ele><time>2026-04-19T10:00:13Z</time></trkpt><trkpt lat="14.484533213872208" lon="121.04510863831986"><ele>31.0</ele><time>2026-04-19T10:00:14Z</time></trkpt><trkpt lat="14.48430786964643" lon="121.04510667910777"><ele>31.0</ele><time>2026-04-19T10:00:15Z</time></trkpt><trkpt lat="14.48408255062272" lon="121.04510503030566"><ele>31.0</ele><time>2026-04-19T10:00:16Z</time></trkpt><trkpt lat="14.483857951610796" lon="121.0451045563108"><ele>31.333333333333336</ele><time>2026-04-19T10:00:17Z</time></trkpt><trkpt lat="14.48363550691294" lon="121.04510531914738"><ele>31.666666666666664</ele><time>2026-04-19T10:00:18Z</time></trkpt><trkpt lat="14.48341231651799" lon="121.0451065406512"><ele>32.0</ele><time>2026-04-19T10:00:19Z</time></trkpt><trkpt lat="14.483191175294229" lon="121.04510635655073"><ele>32.0</ele><time>2026-04-19T10:00:20Z</time></trkpt><trkpt lat="14.482969514863548" lon="121.04510567880928"><ele>32.0</ele><time>2026-04-19T10:00:21Z</time></trkpt><trkpt lat="14.482749193224867" lon="121.04510611914334"><ele>32.0</ele><time>2026-04-19T10:00:22Z</time></trkpt><trkpt lat="14.482529063581817" lon="121.04510606338593"><ele>32.33333333333333</ele><time>2026-04-19T10:00:23Z</time></trkpt><trkpt lat="14.482310715191057" lon="121.0451058234521"><ele>32.666666666666664</ele><time>2026-04-19T10:00:24Z</time></trkpt><trkpt lat="14.482090865937678" lon="121.04510728162623"><ele>33.0</ele><time>2026-04-19T10:00:25Z</time></trkpt><trkpt lat="14.481871941895047" lon="121.04510807751294"><ele>33.0</ele><time>2026-04-19T10:00:26Z</time></trkpt><trkpt lat="14.481653851951382" lon="121.04510980366716"><ele>33.0</ele><time>2026-04-19T10:00:27Z</time></trkpt><trkpt lat="14.481437042205856" lon="121.04510915400712"><ele>33.0</ele><time>2026-04-19T10:00:28Z</time></trkpt><trkpt lat="14.481221010646406" lon="121.04511121486378"><ele>32.666666666666664</ele><time>2026-04-19T10:00:29Z</time></trkpt><trkpt lat="14.481005414835668" lon="121.04511118801987"><ele>32.33333333333333</ele><time>2026-04-19T10:00:30Z</time></trkpt><trkpt lat="14.48078850981176" lon="121.04511229492476"><ele>32.0</ele><time>2026-04-19T10:00:31Z</time></trkpt><trkpt lat="14.480572522065492" lon="121.04511153424208"><ele>32.33333333333333</ele><time>2026-04-19T10:00:32Z</time></trkpt><trkpt lat="14.480356206706594" lon="121.04511281318187"><ele>32.666666666666664</ele><time>2026-04-19T10:00:33Z</time></trkpt><trkpt lat="14.480138916646563" lon="121.0451139510093"><ele>33.0</ele><time>2026-04-19T10:00:34Z</time></trkpt><trkpt lat="14.479921168850348" lon="121.04511499871843"><ele>33.0</ele><time>2026-04-19T10:00:35Z</time></trkpt><trkpt lat="14.47970352123963" lon="121.04511711137901"><ele>33.0</ele><time>2026-04-19T10:00:36Z</time></trkpt><trkpt lat="14.479483899925883" lon="121.04511842229259"><ele>33.0</ele><time>2026-04-19T10:00:37Z</time></trkpt><trkpt lat="14.479265310445173" lon="121.04512006675088"><ele>33.666666666666664</ele><time>2026-04-19T10:00:38Z</time></trkpt><trkpt lat="14.479046387663386" lon="121.04511963471909"><ele>34.33333333333333</ele><time>2026-04-19T10:00:39Z</time></trkpt><trkpt lat="14.478827173229373" lon="121.04512217354231"><ele>35.0</ele><time>2026-04-19T10:00:40Z</time></trkpt><trkpt lat="14.478608643665973" lon="121.04512078237367"><ele>35.0</ele><time>2026-04-19T10:00:41Z</time></trkpt><trkpt lat="14.478387255237044" lon="121.04512206916638"><ele>35.0</ele><time>2026-04-19T10:00:42Z</time></trkpt><trkpt lat="14.478165348692084" lon="121.04512305669836"><ele>35.0</ele><time>2026-04-19T10:00:43Z</time></trkpt><trkpt lat="14.4779448502719" lon="121.04512222590397"><ele>34.33333333333333</ele><time>2026-04-19T10:00:44Z</time></trkpt><trkpt lat="14.477724822065941" lon="121.04512031604861"><ele>33.666666666666664</ele><time>2026-04-19T10:00:45Z</time></trkpt><trkpt lat="14.477503967069316" lon="121.04511938184426"><ele>33.0</ele><time>2026-04-19T10:00:46Z</time></trkpt><trkpt lat="14.477281721761761" lon="121.04511774380033"><ele>34.0</ele><time>2026-04-19T10:00:47Z</time></trkpt><trkpt lat="14.477061341800361" lon="121.04511494101203"><ele>35.0</ele><time>2026-04-19T10:00:48Z</time></trkpt><trkpt lat="14.476838849901476" lon="121.04511321640389"><ele>36.0</ele><time>2026-04-19T10:00:49Z</time></trkpt><trkpt lat="14.476619096434977" lon="121.04511046652514"><ele>36.0</ele><time>2026-04-19T10:00:50Z</time></trkpt><trkpt lat="14.476398644760136" lon="121.04510832697108"><ele>36.0</ele><time>2026-04-19T10:00:51Z</time></trkpt><trkpt lat="14.476177813427093" lon="121.04510680156662"><ele>36.0</ele><time>2026-04-19T10:00:52Z</time></trkpt><trkpt lat="14.475957972324514" lon="121.045106083974"><ele>36.0</ele><time>2026-04-19T10:00:53Z</time></trkpt><trkpt lat="14.475736492069302" lon="121.04510497608842"><ele>36.0</ele><time>2026-04-19T10:00:54Z</time></trkpt><trkpt lat="14.475514255774577" lon="121.04510498114026"><ele>36.0</ele><time>2026-04-19T10:00:55Z</time></trkpt><trkpt lat="14.475292169524023" lon="121.04510541791082"><ele>36.0</ele><time>2026-04-19T10:00:56Z</time></trkpt><trkpt lat="14.475070449396512" lon="121.04510603239576"><ele>36.0</ele><time>2026-04-19T10:00:57Z</time></trkpt><trkpt lat="14.474849312966315" lon="121.0451066611749"><ele>36.0</ele><time>2026-04-19T10:00:58Z</time></trkpt><trkpt lat="14.474627803623061" lon="121.04510717254519"><ele>35.666666666666664</ele><time>2026-04-19T10:00:59Z</time></trkpt><trkpt lat="14.474406973879557" lon="121.04510771844674"><ele>35.33333333333333</ele><time>2026-04-19T10:01:00Z</time></trkpt><trkpt lat="14.47418393489889" lon="121.04510838446957"><ele>35.0</ele><time>2026-04-19T10:01:01Z</time></trkpt><trkpt lat="14.473963387267094" lon="121.045110619937"><ele>34.0</ele><time>2026-04-19T10:01:02Z</time></trkpt><trkpt lat="14.473744524632652" lon="121.04511200384029"><ele>33.0</ele><time>2026-04-19T10:01:03Z</time></trkpt><trkpt lat="14.473527986802466" lon="121.04511255382415"><ele>32.0</ele><time>2026-04-19T10:01:04Z</time></trkpt><trkpt lat="14.473308308251374" lon="121.04511412577048"><ele>32.0</ele><time>2026-04-19T10:01:05Z</time></trkpt><trkpt lat="14.473089055141369" lon="121.04511690888121"><ele>32.0</ele><time>2026-04-19T10:01:06Z</time></trkpt><trkpt lat="14.472869255556954" lon="121.04511862464044"><ele>32.0</ele><time>2026-04-19T10:01:07Z</time></trkpt><trkpt lat="14.472648200525006" lon="121.04512159478337"><ele>31.333333333333332</ele><time>2026-04-19T10:01:08Z</time></trkpt><trkpt lat="14.472427529105492" lon="121.04512315434074"><ele>30.666666666666664</ele><time>2026-04-19T10:01:09Z</time></trkpt><trkpt lat="14.472205831047622" lon="121.04512511042735"><ele>30.0</ele><time>2026-04-19T10:01:10Z</time></trkpt><trkpt lat="14.471982935416653" lon="121.04512489668934"><ele>30.0</ele><time>2026-04-19T10:01:11Z</time></trkpt><trkpt lat="14.471759576844251" lon="121.04512308689993"><ele>30.0</ele><time>2026-04-19T10:01:12Z</time></trkpt><trkpt lat="14.47153490207831" lon="121.04512418911251"><ele>30.0</ele><time>2026-04-19T10:01:13Z</time></trkpt><trkpt lat="14.47131087471315" lon="121.04512520267347"><ele>30.333333333333336</ele><time>2026-04-19T10:01:14Z</time></trkpt><trkpt lat="14.471085807960522" lon="121.04512622315208"><ele>30.666666666666668</ele><time>2026-04-19T10:01:15Z</time></trkpt><trkpt lat="14.470861433650363" lon="121.0451273154071"><ele>31.0</ele><time>2026-04-19T10:01:16Z</time></trkpt><trkpt lat="14.470636887397031" lon="121.04512833294501"><ele>31.0</ele><time>2026-04-19T10:01:17Z</time></trkpt><trkpt lat="14.470414899677401" lon="121.0451299301709"><ele>31.0</ele><time>2026-04-19T10:01:18Z</time></trkpt><trkpt lat="14.470192092760424" lon="121.04513293039409"><ele>31.0</ele><time>2026-04-19T10:01:19Z</time></trkpt><trkpt lat="14.469973201391634" lon="121.04513272687637"><ele>31.0</ele><time>2026-04-19T10:01:20Z</time></trkpt><trkpt lat="14.469754471618364" lon="121.04513240476552"><ele>31.0</ele><time>2026-04-19T10:01:21Z</time></trkpt><trkpt lat="14.46953731328431" lon="121.04513313625364"><ele>31.0</ele><time>2026-04-19T10:01:22Z</time></trkpt><trkpt lat="14.469321214501448" lon="121.04513453762819"><ele>31.333333333333336</ele><time>2026-04-19T10:01:23Z</time></trkpt><trkpt lat="14.469104935025648" lon="121.04513519209601"><ele>31.666666666666664</ele><time>2026-04-19T10:01:24Z</time></trkpt><trkpt lat="14.468891354188198" lon="121.04513515948202"><ele>32.0</ele><time>2026-04-19T10:01:25Z</time></trkpt><trkpt lat="14.468677322926908" lon="121.04513524991661"><ele>32.33333333333333</ele><time>2026-04-19T10:01:26Z</time></trkpt><trkpt lat="14.468462901347038" lon="121.04513534500242"><ele>32.666666666666664</ele><time>2026-04-19T10:01:27Z</time></trkpt><trkpt lat="14.468249461136073" lon="121.0451366891828"><ele>33.0</ele><time>2026-04-19T10:01:28Z</time></trkpt><trkpt lat="14.46803616816361" lon="121.04513830457978"><ele>34.0</ele><time>2026-04-19T10:01:29Z</time></trkpt><trkpt lat="14.467821167237865" lon="121.04513933692826"><ele>35.0</ele><time>2026-04-19T10:01:30Z</time></trkpt><trkpt lat="14.467607739452257" lon="121.0451402186154"><ele>36.0</ele><time>2026-04-19T10:01:31Z</time></trkpt><trkpt lat="14.467392782333912" lon="121.04514100949713"><ele>36.0</ele><time>2026-04-19T10:01:32Z</time></trkpt><trkpt lat="14.46717893651664" lon="121.04514204683159"><ele>36.0</ele><time>2026-04-19T10:01:33Z</time></trkpt><trkpt lat="14.46696435795488" lon="121.04514322858054"><ele>36.0</ele><time>2026-04-19T10:01:34Z</time></trkpt><trkpt lat="14.466750002587167" lon="121.04514458408751"><ele>36.666666666666664</ele><time>2026-04-19T10:01:35Z</time></trkpt><trkpt lat="14.466536350501412" lon="121.04514509801098"><ele>37.33333333333333</ele><time>2026-04-19T10:01:36Z</time></trkpt><trkpt lat="14.466323949881746" lon="121.04514560630928"><ele>38.0</ele><time>2026-04-19T10:01:37Z</time></trkpt><trkpt lat="14.46611023122586" lon="121.04514536665897"><ele>38.0</ele><time>2026-04-19T10:01:38Z</time></trkpt><trkpt lat="14.465896508485757" lon="121.04514552901104"><ele>38.0</ele><time>2026-04-19T10:01:39Z</time></trkpt><trkpt lat="14.465682544133681" lon="121.04514644692128"><ele>38.0</ele><time>2026-04-19T10:01:40Z</time></trkpt><trkpt lat="14.465466733146723" lon="121.04514695096671"><ele>38.0</ele><time>2026-04-19T10:01:41Z</time></trkpt><trkpt lat="14.465249276110894" lon="121.04514826150259"><ele>38.0</ele><time>2026-04-19T10:01:42Z</time></trkpt><trkpt lat="14.465029040090364" lon="121.04514983429723"><ele>38.0</ele><time>2026-04-19T10:01:43Z</time></trkpt><trkpt lat="14.464810108884995" lon="121.0451510452103"><ele>38.0</ele><time>2026-04-19T10:01:44Z</time></trkpt><trkpt lat="14.464589489528512" lon="121.04515254151617"><ele>38.0</ele><time>2026-04-19T10:01:45Z</time></trkpt><trkpt lat="14.464367461442956" lon="121.04515299760168"><ele>38.0</ele><time>2026-04-19T10:01:46Z</time></trkpt><trkpt lat="14.464147095276653" lon="121.04515308800222"><ele>38.0</ele><time>2026-04-19T10:01:47Z</time></trkpt><trkpt lat="14.463926468411282" lon="121.04515382686398"><ele>38.0</ele><time>2026-04-19T10:01:48Z</time></trkpt><trkpt lat="14.46370721317045" lon="121.04515478298745"><ele>38.0</ele><time>2026-04-19T10:01:49Z</time></trkpt><trkpt lat="14.46348640337551" lon="121.04515559552833"><ele>37.666666666666664</ele><time>2026-04-19T10:01:50Z</time></trkpt><trkpt lat="14.463265814035841" lon="121.04515612077316"><ele>37.333333333333336</ele><time>2026-04-19T10:01:51Z</time></trkpt><trkpt lat="14.463046885770593" lon="121.04515607040915"><ele>37.0</ele><time>2026-04-19T10:01:52Z</time></trkpt><trkpt lat="14.462826186537928" lon="121.04515642230648"><ele>37.0</ele><time>2026-04-19T10:01:53Z</time></trkpt><trkpt lat="14.462603908004" lon="121.04515702742019"><ele>37.0</ele><time>2026-04-19T10:01:54Z</time></trkpt><trkpt lat="14.462383533312618" lon="121.04515869334188"><ele>37.0</ele><time>2026-04-19T10:01:55Z</time></trkpt><trkpt lat="14.462159100183662" lon="121.0451591966943"><ele>37.333333333333336</ele><time>2026-04-19T10:01:56Z</time></trkpt><trkpt lat="14.461935615736381" lon="121.04515935906294"><ele>37.666666666666664</ele><time>2026-04-19T10:01:57Z</time></trkpt><trkpt lat="14.461712187555358" lon="121.045158004101"><ele>38.0</ele><time>2026-04-19T10:01:58Z</time></trkpt><trkpt lat="14.461488648604146" lon="121.04515695872966"><ele>38.666666666666664</ele><time>2026-04-19T10:01:59Z</time></trkpt><trkpt lat="14.461266454477833" lon="121.0451561503396"><ele>39.333333333333336</ele><time>2026-04-19T10:02:00Z</time></trkpt><trkpt lat="14.461045205607029" lon="121.04515629918052"><ele>40.0</ele><time>2026-04-19T10:02:01Z</time></trkpt><trkpt lat="14.460826871839684" lon="121.04515771871225"><ele>40.0</ele><time>2026-04-19T10:02:02Z</time></trkpt><trkpt lat="14.460609146112015" lon="121.0451593963713"><ele>40.0</ele><time>2026-04-19T10:02:03Z</time></trkpt><trkpt lat="14.460396221044302" lon="121.0451612110352"><ele>40.0</ele><time>2026-04-19T10:02:04Z</time></trkpt><trkpt lat="14.460186980238738" lon="121.04516330042095"><ele>40.66666666666667</ele><time>2026-04-19T10:02:05Z</time></trkpt><trkpt lat="14.45998063621366" lon="121.04516470933432"><ele>41.333333333333336</ele><time>2026-04-19T10:02:06Z</time></trkpt><trkpt lat="14.459777567481611" lon="121.04516703622018"><ele>42.0</ele><time>2026-04-19T10:02:07Z</time></trkpt><trkpt lat="14.459578678440721" lon="121.04516815806593"><ele>42.0</ele><time>2026-04-19T10:02:08Z</time></trkpt><trkpt lat="14.45938732832812" lon="121.04517148678585"><ele>42.0</ele><time>2026-04-19T10:02:09Z</time></trkpt><trkpt lat="14.459202878399028" lon="121.04517253064017"><ele>42.0</ele><time>2026-04-19T10:02:10Z</time></trkpt><trkpt lat="14.45902145679163" lon="121.04517567555003"><ele>42.0</ele><time>2026-04-19T10:02:11Z</time></trkpt><trkpt lat="14.458846617918741" lon="121.04517526443456"><ele>42.0</ele><time>2026-04-19T10:02:12Z</time></trkpt><trkpt lat="14.458676740845362" lon="121.04516633701539"><ele>42.0</ele><time>2026-04-19T10:02:13Z</time></trkpt><trkpt lat="14.458508322749726" lon="121.04515679884076"><ele>41.666666666666664</ele><time>2026-04-19T10:02:14Z</time></trkpt><trkpt lat="14.458341617627804" lon="121.04514351189296"><ele>41.33333333333333</ele><time>2026-04-19T10:02:15Z</time></trkpt><trkpt lat="14.458173668621361" lon="121.04515126410523"><ele>41.0</ele><time>2026-04-19T10:02:16Z</time></trkpt><trkpt lat="14.458008260137815" lon="121.0451512641086"><ele>39.666666666666664</ele><time>2026-04-19T10:02:17Z</time></trkpt><trkpt lat="14.457843143444608" lon="121.04514980533571"><ele>38.333333333333336</ele><time>2026-04-19T10:02:18Z</time></trkpt><trkpt lat="14.457680663646682" lon="121.04514835462449"><ele>37.0</ele><time>2026-04-19T10:02:19Z</time></trkpt><trkpt lat="14.45752252139449" lon="121.0451470198762"><ele>37.0</ele><time>2026-04-19T10:02:20Z</time></trkpt><trkpt lat="14.457366321038307" lon="121.04514595745086"><ele>37.0</ele><time>2026-04-19T10:02:21Z</time></trkpt><trkpt lat="14.457208522399847" lon="121.0451449588396"><ele>37.0</ele><time>2026-04-19T10:02:22Z</time></trkpt><trkpt lat="14.457050929365987" lon="121.04514396152861"><ele>36.66666666666667</ele><time>2026-04-19T10:02:23Z</time></trkpt><trkpt lat="14.456891706306601" lon="121.04514295389875"><ele>36.333333333333336</ele><time>2026-04-19T10:02:24Z</time></trkpt><trkpt lat="14.456731515889048" lon="121.04514194014645"><ele>36.0</ele><time>2026-04-19T10:02:25Z</time></trkpt><trkpt lat="14.456565730905771" lon="121.04514089099409"><ele>36.0</ele><time>2026-04-19T10:02:26Z</time></trkpt><trkpt lat="14.45639904552832" lon="121.04513992835828"><ele>36.0</ele><time>2026-04-19T10:02:27Z</time></trkpt><trkpt lat="14.456242963237592" lon="121.0451389599391"><ele>36.0</ele><time>2026-04-19T10:02:28Z</time></trkpt><trkpt lat="14.456090933174655" lon="121.04513768037562"><ele>36.5</ele><time>2026-04-19T10:02:29Z</time></trkpt><trkpt lat="14.455946279829451" lon="121.04513646235971"><ele>37.0</ele><time>2026-04-19T10:02:30Z</time></trkpt><trkpt lat="14.455808804175737" lon="121.0451353052924"><ele>37.5</ele><time>2026-04-19T10:02:31Z</time></trkpt><trkpt lat="14.455679900965968" lon="121.04513422037715"><ele>38.0</ele><time>2026-04-19T10:02:32Z</time></trkpt><trkpt lat="14.455560745840083" lon="121.04513321750368"><ele>36.8</ele><time>2026-04-19T10:02:33Z</time></trkpt><trkpt lat="14.455452201110154" lon="121.04506451406722"><ele>35.599999999999994</ele><time>2026-04-19T10:02:34Z</time></trkpt><trkpt lat="14.455354306811165" lon="121.04503338021506"><ele>34.400000000000006</ele><time>2026-04-19T10:02:35Z</time></trkpt><trkpt lat="14.455259311057919" lon="121.04498506892719"><ele>33.2</ele><time>2026-04-19T10:02:36Z</time></trkpt><trkpt lat="14.455178351587342" lon="121.04492184820373"><ele>32.0</ele><time>2026-04-19T10:02:37Z</time></trkpt><trkpt lat="14.45511851890006" lon="121.04484651979732"><ele>31.999999999999996</ele><time>2026-04-19T10:02:38Z</time></trkpt><trkpt lat="14.455081692380242" lon="121.04475298304273"><ele>32.0</ele><time>2026-04-19T10:02:39Z</time></trkpt><trkpt lat="14.455043014499534" lon="121.04466649342856"><ele>32.0</ele><time>2026-04-19T10:02:40Z</time></trkpt><trkpt lat="14.45501451384841" lon="121.04458063537027"><ele>32.0</ele><time>2026-04-19T10:02:41Z</time></trkpt><trkpt lat="14.454992557001539" lon="121.04450043168919"><ele>31.999999999999996</ele><time>2026-04-19T10:02:42Z</time></trkpt><trkpt lat="14.454976611733217" lon="121.04443351833966"><ele>32.0</ele><time>2026-04-19T10:02:43Z</time></trkpt><trkpt lat="14.454959789296336" lon="121.04433533194998"><ele>32.0</ele><time>2026-04-19T10:02:45Z</time></trkpt><trkpt lat="14.454945523293253" lon="121.04426801727345"><ele>31.999999999999996</ele><time>2026-04-19T10:02:48Z</time></trkpt><trkpt lat="14.454993220154817" lon="121.04432136831196"><ele>32.0</ele><time>2026-04-19T10:03:39Z</time></trkpt><trkpt lat="14.455000362975584" lon="121.04424598102177"><ele>32.0</ele><time>2026-04-19T10:03:43Z</time></trkpt><trkpt lat="14.454982016810376" lon="121.04415968519905"><ele>31.999999999999996</ele><time>2026-04-19T10:03:46Z</time></trkpt><trkpt lat="14.454921625780662" lon="121.04412985190146"><ele>32.0</ele><time>2026-04-19T10:03:48Z</time></trkpt><trkpt lat="14.454894277363865" lon="121.04405692281685"><ele>32.0</ele><time>2026-04-19T10:03:52Z</time></trkpt><trkpt lat="14.45486905244501" lon="121.04398826168318"><ele>32.666666666666664</ele><time>2026-04-19T10:03:54Z</time></trkpt><trkpt lat="14.454837629407615" lon="121.04390292580204"><ele>33.33333333333333</ele><time>2026-04-19T10:03:56Z</time></trkpt><trkpt lat="14.454803467089558" lon="121.04380979574192"><ele>34.0</ele><time>2026-04-19T10:03:58Z</time></trkpt><trkpt lat="14.454779660525748" lon="121.04374873479111"><ele>34.666666666666664</ele><time>2026-04-19T10:03:59Z</time></trkpt><trkpt lat="14.454748638349388" lon="121.04364471805455"><ele>35.333333333333336</ele><time>2026-04-19T10:04:01Z</time></trkpt><trkpt lat="14.454707783407255" lon="121.04359488528401"><ele>36.0</ele><time>2026-04-19T10:04:02Z</time></trkpt><trkpt lat="14.45467063353598" lon="121.04353347676454"><ele>36.0</ele><time>2026-04-19T10:04:03Z</time></trkpt><trkpt lat="14.454643185965304" lon="121.04346061402867"><ele>36.0</ele><time>2026-04-19T10:04:04Z</time></trkpt><trkpt lat="14.454616397921235" lon="121.04338603864504"><ele>36.0</ele><time>2026-04-19T10:04:05Z</time></trkpt><trkpt lat="14.454589129209749" lon="121.04330908614507"><ele>36.0</ele><time>2026-04-19T10:04:06Z</time></trkpt><trkpt lat="14.454563817231255" lon="121.04322967757714"><ele>36.0</ele><time>2026-04-19T10:04:07Z</time></trkpt><trkpt lat="14.454545449274445" lon="121.04314536583671"><ele>36.0</ele><time>2026-04-19T10:04:08Z</time></trkpt><trkpt lat="14.454534298083516" lon="121.0430550510985"><ele>36.0</ele><time>2026-04-19T10:04:09Z</time></trkpt><trkpt lat="14.454534798415635" lon="121.04296091467091"><ele>36.0</ele><time>2026-04-19T10:04:10Z</time></trkpt><trkpt lat="14.45454592142779" lon="121.04286154154113"><ele>36.0</ele><time>2026-04-19T10:04:11Z</time></trkpt><trkpt lat="14.454567539111814" lon="121.04276336717761"><ele>36.0</ele><time>2026-04-19T10:04:12Z</time></trkpt><trkpt lat="14.454597435957464" lon="121.04266438319429"><ele>36.0</ele><time>2026-04-19T10:04:13Z</time></trkpt><trkpt lat="14.454628788606717" lon="121.04256063345308"><ele>36.25</ele><time>2026-04-19T10:04:14Z</time></trkpt><trkpt lat="14.454661013886655" lon="121.0424527167865"><ele>36.5</ele><time>2026-04-19T10:04:15Z</time></trkpt><trkpt lat="14.454694343010752" lon="121.04233983954315"><ele>36.75</ele><time>2026-04-19T10:04:16Z</time></trkpt><trkpt lat="14.454728013072353" lon="121.04222319315966"><ele>37.0</ele><time>2026-04-19T10:04:17Z</time></trkpt><trkpt lat="14.454763067962855" lon="121.04210677624036"><ele>37.0</ele><time>2026-04-19T10:04:18Z</time></trkpt><trkpt lat="14.45480110736538" lon="121.04199007807988"><ele>37.0</ele><time>2026-04-19T10:04:19Z</time></trkpt><trkpt lat="14.454839224522127" lon="121.04187333462983"><ele>37.0</ele><time>2026-04-19T10:04:20Z</time></trkpt><trkpt lat="14.454875112314287" lon="121.04175530603612"><ele>37.0</ele><time>2026-04-19T10:04:21Z</time></trkpt><trkpt lat="14.454910213706365" lon="121.04163973957027"><ele>37.2</ele><time>2026-04-19T10:04:22Z</time></trkpt><trkpt lat="14.454941503108863" lon="121.04152774967476"><ele>37.400000000000006</ele><time>2026-04-19T10:04:23Z</time></trkpt><trkpt lat="14.454969085622112" lon="121.04141939233105"><ele>37.599999999999994</ele><time>2026-04-19T10:04:24Z</time></trkpt><trkpt lat="14.454996704184111" lon="121.04131290550376"><ele>37.8</ele><time>2026-04-19T10:04:25Z</time></trkpt><trkpt lat="14.455023332551812" lon="121.04121285161928"><ele>38.0</ele><time>2026-04-19T10:04:26Z</time></trkpt><trkpt lat="14.455048968402792" lon="121.04111708362188"><ele>38.0</ele><time>2026-04-19T10:04:27Z</time></trkpt><trkpt lat="14.45507592597104" lon="121.04102013210397"><ele>38.0</ele><time>2026-04-19T10:04:28Z</time></trkpt><trkpt lat="14.455103937582406" lon="121.04091998519691"><ele>38.0</ele><time>2026-04-19T10:04:29Z</time></trkpt><trkpt lat="14.455134814874143" lon="121.04081797762"><ele>38.0</ele><time>2026-04-19T10:04:30Z</time></trkpt><trkpt lat="14.455161530832523" lon="121.04071137526076"><ele>38.0</ele><time>2026-04-19T10:04:31Z</time></trkpt><trkpt lat="14.455190317040323" lon="121.04060217753637"><ele>38.0</ele><time>2026-04-19T10:04:32Z</time></trkpt><trkpt lat="14.455220147702933" lon="121.040488325928"><ele>38.0</ele><time>2026-04-19T10:04:33Z</time></trkpt><trkpt lat="14.455250914041946" lon="121.04037214968398"><ele>38.0</ele><time>2026-04-19T10:04:34Z</time></trkpt><trkpt lat="14.455283480696956" lon="121.04025448170314"><ele>38.0</ele><time>2026-04-19T10:04:35Z</time></trkpt><trkpt lat="14.455315213928554" lon="121.04013460142647"><ele>38.0</ele><time>2026-04-19T10:04:36Z</time></trkpt><trkpt lat="14.455347814497838" lon="121.04001382586337"><ele>38.0</ele><time>2026-04-19T10:04:37Z</time></trkpt><trkpt lat="14.455379835481038" lon="121.03989261609829"><ele>38.0</ele><time>2026-04-19T10:04:38Z</time></trkpt><trkpt lat="14.455412873042839" lon="121.03977139634374"><ele>38.0</ele><time>2026-04-19T10:04:39Z</time></trkpt><trkpt lat="14.455444836262041" lon="121.0396506300364"><ele>38.0</ele><time>2026-04-19T10:04:40Z</time></trkpt><trkpt lat="14.455475862004613" lon="121.03953317661995"><ele>38.0</ele><time>2026-04-19T10:04:41Z</time></trkpt><trkpt lat="14.455505424391886" lon="121.03941846339086"><ele>38.0</ele><time>2026-04-19T10:04:42Z</time></trkpt><trkpt lat="14.455534128934525" lon="121.03930596004325"><ele>38.0</ele><time>2026-04-19T10:04:43Z</time></trkpt><trkpt lat="14.455559725900546" lon="121.0391975635633"><ele>37.666666666666664</ele><time>2026-04-19T10:04:44Z</time></trkpt><trkpt lat="14.455587699434753" lon="121.03909511789264"><ele>37.33333333333333</ele><time>2026-04-19T10:04:45Z</time></trkpt><trkpt lat="14.455611740810513" lon="121.03899857108554"><ele>37.0</ele><time>2026-04-19T10:04:46Z</time></trkpt><trkpt lat="14.455634125088647" lon="121.0389117258153"><ele>36.666666666666664</ele><time>2026-04-19T10:04:47Z</time></trkpt><trkpt lat="14.455654105859567" lon="121.03883580030124"><ele>36.333333333333336</ele><time>2026-04-19T10:04:48Z</time></trkpt><trkpt lat="14.45566934520047" lon="121.03877258391927"><ele>36.0</ele><time>2026-04-19T10:04:49Z</time></trkpt><trkpt lat="14.455693586342532" lon="121.03867653242972"><ele>36.0</ele><time>2026-04-19T10:04:51Z</time></trkpt><trkpt lat="14.455685003888107" lon="121.03860782193496"><ele>36.0</ele><time>2026-04-19T10:04:55Z</time></trkpt><trkpt lat="14.455667868807046" lon="121.03870588355896"><ele>36.0</ele><time>2026-04-19T10:05:07Z</time></trkpt><trkpt lat="14.455644048223618" lon="121.03880748552261"><ele>36.0</ele><time>2026-04-19T10:05:09Z</time></trkpt><trkpt lat="14.45554383123809" lon="121.03891699545298"><ele>36.0</ele><time>2026-04-19T10:05:10Z</time></trkpt><trkpt lat="14.455522399358275" lon="121.03900257011074"><ele>36.0</ele><time>2026-04-19T10:05:11Z</time></trkpt><trkpt lat="14.455499100515015" lon="121.03909403887916"><ele>36.0</ele><time>2026-04-19T10:05:12Z</time></trkpt><trkpt lat="14.455475354904143" lon="121.03918995022153"><ele>36.0</ele><time>2026-04-19T10:05:13Z</time></trkpt><trkpt lat="14.455450308313218" lon="121.03929372508709"><ele>36.0</ele><time>2026-04-19T10:05:14Z</time></trkpt><trkpt lat="14.455422457479376" lon="121.03940306961572"><ele>36.0</ele><time>2026-04-19T10:05:15Z</time></trkpt><trkpt lat="14.455392809960912" lon="121.03951603917861"><ele>36.4</ele><time>2026-04-19T10:05:16Z</time></trkpt><trkpt lat="14.455364241673038" lon="121.03962886778655"><ele>36.8</ele><time>2026-04-19T10:05:17Z</time></trkpt><trkpt lat="14.455336219846874" lon="121.03973792757766"><ele>37.199999999999996</ele><time>2026-04-19T10:05:18Z</time></trkpt><trkpt lat="14.455308423022313" lon="121.03984489228482"><ele>37.6</ele><time>2026-04-19T10:05:19Z</time></trkpt><trkpt lat="14.45528099269673" lon="121.039949308446"><ele>38.0</ele><time>2026-04-19T10:05:20Z</time></trkpt><trkpt lat="14.455253758197316" lon="121.04004967846663"><ele>38.0</ele><time>2026-04-19T10:05:21Z</time></trkpt><trkpt lat="14.455227914952076" lon="121.04014810742059"><ele>38.0</ele><time>2026-04-19T10:05:22Z</time></trkpt><trkpt lat="14.45520299217878" lon="121.04024569557795"><ele>38.0</ele><time>2026-04-19T10:05:23Z</time></trkpt><trkpt lat="14.45517799130739" lon="121.04034047332702"><ele>38.0</ele><time>2026-04-19T10:05:24Z</time></trkpt><trkpt lat="14.455152030639187" lon="121.04043360669107"><ele>38.0</ele><time>2026-04-19T10:05:25Z</time></trkpt><trkpt lat="14.455128483397813" lon="121.04052148867508"><ele>38.0</ele><time>2026-04-19T10:05:26Z</time></trkpt><trkpt lat="14.45510312397252" lon="121.04061111123794"><ele>38.0</ele><time>2026-04-19T10:05:27Z</time></trkpt><trkpt lat="14.455078802715233" lon="121.04069972803819"><ele>38.0</ele><time>2026-04-19T10:05:28Z</time></trkpt><trkpt lat="14.455054340317753" lon="121.04078745449603"><ele>38.0</ele><time>2026-04-19T10:05:29Z</time></trkpt><trkpt lat="14.455031101844131" lon="121.04087021303073"><ele>38.0</ele><time>2026-04-19T10:05:30Z</time></trkpt><trkpt lat="14.455007688459025" lon="121.04094931008655"><ele>38.0</ele><time>2026-04-19T10:05:31Z</time></trkpt><trkpt lat="14.454983641437034" lon="121.04102514331716"><ele>38.0</ele><time>2026-04-19T10:05:32Z</time></trkpt><trkpt lat="14.454960003618341" lon="121.04110318177587"><ele>38.0</ele><time>2026-04-19T10:05:33Z</time></trkpt><trkpt lat="14.454936656385588" lon="121.04118315309594"><ele>38.0</ele><time>2026-04-19T10:05:34Z</time></trkpt><trkpt lat="14.454912734636283" lon="121.04126331471898"><ele>38.0</ele><time>2026-04-19T10:05:35Z</time></trkpt><trkpt lat="14.454890167065656" lon="121.04134533833931"><ele>38.0</ele><time>2026-04-19T10:05:36Z</time></trkpt><trkpt lat="14.454866773525529" lon="121.04142628962471"><ele>38.0</ele><time>2026-04-19T10:05:37Z</time></trkpt><trkpt lat="14.45484330179388" lon="121.04150713785904"><ele>38.0</ele><time>2026-04-19T10:05:38Z</time></trkpt><trkpt lat="14.454819581559578" lon="121.04158957818515"><ele>38.0</ele><time>2026-04-19T10:05:39Z</time></trkpt><trkpt lat="14.454795108688117" lon="121.04167227105414"><ele>38.0</ele><time>2026-04-19T10:05:40Z</time></trkpt><trkpt lat="14.45476909006196" lon="121.04175652644805"><ele>38.0</ele><time>2026-04-19T10:05:41Z</time></trkpt><trkpt lat="14.454744299899705" lon="121.04183731092773"><ele>38.0</ele><time>2026-04-19T10:05:42Z</time></trkpt><trkpt lat="14.454718734976773" lon="121.04191691519603"><ele>38.0</ele><time>2026-04-19T10:05:43Z</time></trkpt><trkpt lat="14.454692026492276" lon="121.04199495752934"><ele>38.0</ele><time>2026-04-19T10:05:44Z</time></trkpt><trkpt lat="14.454667580414183" lon="121.04207266778603"><ele>38.0</ele><time>2026-04-19T10:05:45Z</time></trkpt><trkpt lat="14.45464424328732" lon="121.04214926406624"><ele>38.0</ele><time>2026-04-19T10:05:46Z</time></trkpt><trkpt lat="14.45462219662916" lon="121.04222397161311"><ele>38.0</ele><time>2026-04-19T10:05:47Z</time></trkpt><trkpt lat="14.454602382025842" lon="121.04229424574382"><ele>38.0</ele><time>2026-04-19T10:05:48Z</time></trkpt><trkpt lat="14.454584526235033" lon="121.04236097121132"><ele>38.0</ele><time>2026-04-19T10:05:49Z</time></trkpt><trkpt lat="14.454567923007936" lon="121.04242717712576"><ele>38.0</ele><time>2026-04-19T10:05:50Z</time></trkpt><trkpt lat="14.454552285030653" lon="121.04249137343565"><ele>38.166666666666664</ele><time>2026-04-19T10:05:51Z</time></trkpt><trkpt lat="14.454537690324498" lon="121.04255549831394"><ele>38.33333333333333</ele><time>2026-04-19T10:05:52Z</time></trkpt><trkpt lat="14.454509190883464" lon="121.04267864106663"><ele>38.5</ele><time>2026-04-19T10:05:54Z</time></trkpt><trkpt lat="14.45448054287407" lon="121.04280742760068"><ele>38.666666666666664</ele><time>2026-04-19T10:05:56Z</time></trkpt><trkpt lat="14.454466064879732" lon="121.04287517788958"><ele>38.833333333333336</ele><time>2026-04-19T10:05:57Z</time></trkpt><trkpt lat="14.454453045110101" lon="121.04294135790133"><ele>39.0</ele><time>2026-04-19T10:05:58Z</time></trkpt><trkpt lat="14.454436478233934" lon="121.04300708303114"><ele>39.0</ele><time>2026-04-19T10:05:59Z</time></trkpt><trkpt lat="14.454399426289942" lon="121.0431396945211"><ele>39.0</ele><time>2026-04-19T10:06:01Z</time></trkpt><trkpt lat="14.454376402924211" lon="121.04320646978864"><ele>39.0</ele><time>2026-04-19T10:06:02Z</time></trkpt><trkpt lat="14.45433330638484" lon="121.04332967657547"><ele>39.0</ele><time>2026-04-19T10:06:04Z</time></trkpt><trkpt lat="14.454288790105768" lon="121.04345530231699"><ele>38.166666666666664</ele><time>2026-04-19T10:06:06Z</time></trkpt><trkpt lat="14.454262841865232" lon="121.04352437420769"><ele>37.333333333333336</ele><time>2026-04-19T10:06:07Z</time></trkpt><trkpt lat="14.45423540664364" lon="121.04359726242805"><ele>36.5</ele><time>2026-04-19T10:06:08Z</time></trkpt><trkpt lat="14.454205876738548" lon="121.04367678115928"><ele>35.66666666666667</ele><time>2026-04-19T10:06:09Z</time></trkpt><trkpt lat="14.454175191560648" lon="121.04376156858278"><ele>34.833333333333336</ele><time>2026-04-19T10:06:10Z</time></trkpt><trkpt lat="14.454144219603027" lon="121.04384795038195"><ele>34.0</ele><time>2026-04-19T10:06:11Z</time></trkpt><trkpt lat="14.454113992168745" lon="121.04393583345669"><ele>34.0</ele><time>2026-04-19T10:06:12Z</time></trkpt><trkpt lat="14.454083841333318" lon="121.04402503122016"><ele>34.0</ele><time>2026-04-19T10:06:13Z</time></trkpt><trkpt lat="14.454055680670303" lon="121.04411142863007"><ele>34.0</ele><time>2026-04-19T10:06:14Z</time></trkpt><trkpt lat="14.454030212969139" lon="121.04419211526132"><ele>34.0</ele><time>2026-04-19T10:06:15Z</time></trkpt><trkpt lat="14.454004139156147" lon="121.04427137370367"><ele>34.0</ele><time>2026-04-19T10:06:16Z</time></trkpt><trkpt lat="14.453981777967861" lon="121.04434379207852"><ele>34.0</ele><time>2026-04-19T10:06:17Z</time></trkpt><trkpt lat="14.453947443141407" lon="121.04445272463137"><ele>33.5</ele><time>2026-04-19T10:06:19Z</time></trkpt><trkpt lat="14.453922239467763" lon="121.0445205770225"><ele>33.0</ele><time>2026-04-19T10:06:21Z</time></trkpt><trkpt lat="14.453893230036359" lon="121.04459667079766"><ele>32.5</ele><time>2026-04-19T10:06:25Z</time></trkpt><trkpt lat="14.453871429212855" lon="121.04467324875539"><ele>32.0</ele><time>2026-04-19T10:06:28Z</time></trkpt><trkpt lat="14.453858753165806" lon="121.0447501795129"><ele>31.500000000000004</ele><time>2026-04-19T10:06:30Z</time></trkpt><trkpt lat="14.453833696028857" lon="121.04486131842346"><ele>31.0</ele><time>2026-04-19T10:06:32Z</time></trkpt><trkpt lat="14.453815086869362" lon="121.04492750442685"><ele>30.333333333333336</ele><time>2026-04-19T10:06:33Z</time></trkpt><trkpt lat="14.453791603013821" lon="121.0450021173669"><ele>29.666666666666668</ele><time>2026-04-19T10:06:34Z</time></trkpt><trkpt lat="14.453766156354828" lon="121.04508599071674"><ele>29.0</ele><time>2026-04-19T10:06:35Z</time></trkpt><trkpt lat="14.453738767040539" lon="121.04518136449121"><ele>28.333333333333336</ele><time>2026-04-19T10:06:36Z</time></trkpt><trkpt lat="14.453713270467249" lon="121.04527615294501"><ele>27.666666666666668</ele><time>2026-04-19T10:06:37Z</time></trkpt><trkpt lat="14.4536890131286" lon="121.0453669130547"><ele>27.0</ele><time>2026-04-19T10:06:38Z</time></trkpt><trkpt lat="14.453665969221355" lon="121.04544615233998"><ele>26.5</ele><time>2026-04-19T10:06:39Z</time></trkpt><trkpt lat="14.453628477350145" lon="121.04554769149925"><ele>26.0</ele><time>2026-04-19T10:06:41Z</time></trkpt><trkpt lat="14.45360566627646" lon="121.04561802187011"><ele>25.5</ele><time>2026-04-19T10:06:43Z</time></trkpt><trkpt lat="14.453583590478033" lon="121.04570131113819"><ele>25.0</ele><time>2026-04-19T10:06:45Z</time></trkpt><trkpt lat="14.45355260940415" lon="121.04579759866547"><ele>24.5</ele><time>2026-04-19T10:06:47Z</time></trkpt><trkpt lat="14.453521523222665" lon="121.04586446449044"><ele>24.0</ele><time>2026-04-19T10:06:49Z</time></trkpt><trkpt lat="14.453508898024431" lon="121.04593921738258"><ele>24.0</ele><time>2026-04-19T10:06:52Z</time></trkpt><trkpt lat="14.453412947135757" lon="121.04594025267035"><ele>24.0</ele><time>2026-04-19T10:06:54Z</time></trkpt><trkpt lat="14.453330888967798" lon="121.04591896059766"><ele>24.0</ele><time>2026-04-19T10:06:56Z</time></trkpt><trkpt lat="14.453225304672436" lon="121.04586086640289"><ele>24.0</ele><time>2026-04-19T10:06:58Z</time></trkpt><trkpt lat="14.453156505993553" lon="121.04582534289212"><ele>24.0</ele><time>2026-04-19T10:06:59Z</time></trkpt><trkpt lat="14.453090064404206" lon="121.04578622201443"><ele>23.833333333333332</ele><time>2026-04-19T10:07:00Z</time></trkpt><trkpt lat="14.453015966511252" lon="121.04575115378371"><ele>23.666666666666668</ele><time>2026-04-19T10:07:01Z</time></trkpt><trkpt lat="14.452940513957813" lon="121.04571671012859"><ele>23.5</ele><time>2026-04-19T10:07:02Z</time></trkpt><trkpt lat="14.452862420007886" lon="121.0456888120656"><ele>23.333333333333336</ele><time>2026-04-19T10:07:03Z</time></trkpt><trkpt lat="14.452783261556181" lon="121.04566551412859"><ele>23.166666666666668</ele><time>2026-04-19T10:07:04Z</time></trkpt><trkpt lat="14.452705955222543" lon="121.04564147110008"><ele>23.0</ele><time>2026-04-19T10:07:05Z</time></trkpt><trkpt lat="14.452625494054756" lon="121.04560208095984"><ele>22.2</ele><time>2026-04-19T10:07:06Z</time></trkpt><trkpt lat="14.452537370836602" lon="121.04557638472879"><ele>21.4</ele><time>2026-04-19T10:07:07Z</time></trkpt><trkpt lat="14.452441912192635" lon="121.04555323442297"><ele>20.599999999999998</ele><time>2026-04-19T10:07:08Z</time></trkpt><trkpt lat="14.452343647934187" lon="121.04553055739375"><ele>19.799999999999997</ele><time>2026-04-19T10:07:09Z</time></trkpt><trkpt lat="14.452246082380068" lon="121.04550499418464"><ele>19.0</ele><time>2026-04-19T10:07:10Z</time></trkpt><trkpt lat="14.452139877929211" lon="121.04548744311884"><ele>17.8</ele><time>2026-04-19T10:07:11Z</time></trkpt><trkpt lat="14.452035919492452" lon="121.04547109135981"><ele>16.599999999999998</ele><time>2026-04-19T10:07:12Z</time></trkpt><trkpt lat="14.451929177870051" lon="121.0454638647703"><ele>15.4</ele><time>2026-04-19T10:07:13Z</time></trkpt><trkpt lat="14.451820674507267" lon="121.04546018066132"><ele>14.2</ele><time>2026-04-19T10:07:14Z</time></trkpt><trkpt lat="14.451719722348406" lon="121.04545403977644"><ele>13.0</ele><time>2026-04-19T10:07:15Z</time></trkpt><trkpt lat="14.451605290365723" lon="121.04545577732532"><ele>13.0</ele><time>2026-04-19T10:07:16Z</time></trkpt><trkpt lat="14.451488815057534" lon="121.04545797497786"><ele>13.0</ele><time>2026-04-19T10:07:17Z</time></trkpt><trkpt lat="14.451373310202943" lon="121.04545854317107"><ele>13.0</ele><time>2026-04-19T10:07:18Z</time></trkpt><trkpt lat="14.451253664363218" lon="121.04546150689832"><ele>13.0</ele><time>2026-04-19T10:07:19Z</time></trkpt><trkpt lat="14.45113746093584" lon="121.04546267019504"><ele>14.75</ele><time>2026-04-19T10:07:20Z</time></trkpt><trkpt lat="14.451025444500655" lon="121.0454631673899"><ele>16.5</ele><time>2026-04-19T10:07:21Z</time></trkpt><trkpt lat="14.450913391439832" lon="121.04546375656363"><ele>18.25</ele><time>2026-04-19T10:07:22Z</time></trkpt><trkpt lat="14.450797715720077" lon="121.04546531577171"><ele>20.0</ele><time>2026-04-19T10:07:23Z</time></trkpt><trkpt lat="14.450685412499158" lon="121.04546481136872"><ele>20.0</ele><time>2026-04-19T10:07:24Z</time></trkpt><trkpt lat="14.450573786238667" lon="121.04546706221696"><ele>20.0</ele><time>2026-04-19T10:07:25Z</time></trkpt><trkpt lat="14.450462583955224" lon="121.04546772439534"><ele>20.0</ele><time>2026-04-19T10:07:26Z</time></trkpt><trkpt lat="14.450352987940867" lon="121.04546898668762"><ele>20.0</ele><time>2026-04-19T10:07:27Z</time></trkpt><trkpt lat="14.45024634498729" lon="121.04545540880837"><ele>20.0</ele><time>2026-04-19T10:07:28Z</time></trkpt><trkpt lat="14.450134711015705" lon="121.045456467258"><ele>19.8</ele><time>2026-04-19T10:07:29Z</time></trkpt><trkpt lat="14.450021672823196" lon="121.04545634860014"><ele>19.6</ele><time>2026-04-19T10:07:30Z</time></trkpt><trkpt lat="14.449910801291203" lon="121.04545529642591"><ele>19.4</ele><time>2026-04-19T10:07:31Z</time></trkpt><trkpt lat="14.449800718967992" lon="121.0454538820352"><ele>19.2</ele><time>2026-04-19T10:07:32Z</time></trkpt><trkpt lat="14.449688847426362" lon="121.04545456664313"><ele>19.0</ele><time>2026-04-19T10:07:33Z</time></trkpt><trkpt lat="14.449573237217825" lon="121.04545726252222"><ele>18.5</ele><time>2026-04-19T10:07:34Z</time></trkpt><trkpt lat="14.44945956070835" lon="121.04545802317824"><ele>18.0</ele><time>2026-04-19T10:07:35Z</time></trkpt><trkpt lat="14.449344124387954" lon="121.04545869167154"><ele>17.5</ele><time>2026-04-19T10:07:36Z</time></trkpt><trkpt lat="14.44923406620667" lon="121.04544296877715"><ele>17.0</ele><time>2026-04-19T10:07:37Z</time></trkpt><trkpt lat="14.449123637035502" lon="121.04543633823695"><ele>17.0</ele><time>2026-04-19T10:07:38Z</time></trkpt><trkpt lat="14.449014644856147" lon="121.04543181180719"><ele>17.0</ele><time>2026-04-19T10:07:39Z</time></trkpt><trkpt lat="14.448906508880665" lon="121.0454300445313"><ele>17.0</ele><time>2026-04-19T10:07:40Z</time></trkpt><trkpt lat="14.44879475832224" lon="121.04542663592227"><ele>17.0</ele><time>2026-04-19T10:07:41Z</time></trkpt><trkpt lat="14.44868247303864" lon="121.04542634228754"><ele>17.0</ele><time>2026-04-19T10:07:42Z</time></trkpt><trkpt lat="14.448567834760055" lon="121.045426612355"><ele>16.25</ele><time>2026-04-19T10:07:43Z</time></trkpt><trkpt lat="14.44845151567602" lon="121.04542647830462"><ele>15.5</ele><time>2026-04-19T10:07:44Z</time></trkpt><trkpt lat="14.448332068099365" lon="121.04542862589437"><ele>14.75</ele><time>2026-04-19T10:07:45Z</time></trkpt><trkpt lat="14.448213033515291" lon="121.0454297202536"><ele>14.0</ele><time>2026-04-19T10:07:46Z</time></trkpt><trkpt lat="14.448091299387412" lon="121.04543144599768"><ele>14.0</ele><time>2026-04-19T10:07:47Z</time></trkpt><trkpt lat="14.447968904403758" lon="121.04543326645582"><ele>14.0</ele><time>2026-04-19T10:07:48Z</time></trkpt><trkpt lat="14.447845863706348" lon="121.04543278522203"><ele>14.0</ele><time>2026-04-19T10:07:49Z</time></trkpt><trkpt lat="14.447725216949694" lon="121.04543238234172"><ele>14.0</ele><time>2026-04-19T10:07:50Z</time></trkpt><trkpt lat="14.44760070915543" lon="121.04543366017161"><ele>14.25</ele><time>2026-04-19T10:07:51Z</time></trkpt><trkpt lat="14.447475688670227" lon="121.0454336287606"><ele>14.5</ele><time>2026-04-19T10:07:52Z</time></trkpt><trkpt lat="14.447351233893688" lon="121.04543491307754"><ele>14.75</ele><time>2026-04-19T10:07:53Z</time></trkpt><trkpt lat="14.447229498207644" lon="121.04543540746633"><ele>15.0</ele><time>2026-04-19T10:07:54Z</time></trkpt><trkpt lat="14.447110699359058" lon="121.04543562761057"><ele>15.5</ele><time>2026-04-19T10:07:55Z</time></trkpt><trkpt lat="14.446994719629034" lon="121.04543440083754"><ele>16.0</ele><time>2026-04-19T10:07:56Z</time></trkpt><trkpt lat="14.446880986552719" lon="121.04543469885125"><ele>16.5</ele><time>2026-04-19T10:07:57Z</time></trkpt><trkpt lat="14.446767867687553" lon="121.04543676739364"><ele>17.0</ele><time>2026-04-19T10:07:58Z</time></trkpt><trkpt lat="14.446654456773565" lon="121.04543554561631"><ele>17.0</ele><time>2026-04-19T10:07:59Z</time></trkpt><trkpt lat="14.446546922031162" lon="121.04543534312586"><ele>17.0</ele><time>2026-04-19T10:08:00Z</time></trkpt><trkpt lat="14.446439654364339" lon="121.0454347159776"><ele>17.0</ele><time>2026-04-19T10:08:01Z</time></trkpt><trkpt lat="14.446332954601287" lon="121.04543664190379"><ele>17.0</ele><time>2026-04-19T10:08:02Z</time></trkpt><trkpt lat="14.446233965424819" lon="121.04543675518718"><ele>17.0</ele><time>2026-04-19T10:08:03Z</time></trkpt><trkpt lat="14.446146143722782" lon="121.04543612535886"><ele>17.2</ele><time>2026-04-19T10:08:04Z</time></trkpt><trkpt lat="14.446068945263152" lon="121.04543564746864"><ele>17.4</ele><time>2026-04-19T10:08:05Z</time></trkpt><trkpt lat="14.445953322422564" lon="121.04543394365666"><ele>17.6</ele><time>2026-04-19T10:08:07Z</time></trkpt><trkpt lat="14.44584882578955" lon="121.04543468252568"><ele>17.8</ele><time>2026-04-19T10:08:09Z</time></trkpt><trkpt lat="14.445747474341612" lon="121.04543463158214"><ele>18.0</ele><time>2026-04-19T10:08:11Z</time></trkpt><trkpt lat="14.445651179033689" lon="121.0454353804668"><ele>18.0</ele><time>2026-04-19T10:08:13Z</time></trkpt><trkpt lat="14.44555051820245" lon="121.04543540728483"><ele>18.0</ele><time>2026-04-19T10:08:15Z</time></trkpt><trkpt lat="14.445438336693465" lon="121.04543739081417"><ele>18.0</ele><time>2026-04-19T10:08:17Z</time></trkpt><trkpt lat="14.445333067299893" lon="121.04543451624839"><ele>18.0</ele><time>2026-04-19T10:08:19Z</time></trkpt><trkpt lat="14.445221573081248" lon="121.04543442948449"><ele>18.0</ele><time>2026-04-19T10:08:21Z</time></trkpt><trkpt lat="14.445113757616175" lon="121.04543737489065"><ele>17.6</ele><time>2026-04-19T10:08:23Z</time></trkpt><trkpt lat="14.445006107162486" lon="121.04544515625479"><ele>17.200000000000003</ele><time>2026-04-19T10:08:25Z</time></trkpt><trkpt lat="14.444920142277512" lon="121.04545280462068"><ele>16.8</ele><time>2026-04-19T10:08:27Z</time></trkpt><trkpt lat="14.444855465444736" lon="121.04546391665957"><ele>16.400000000000002</ele><time>2026-04-19T10:08:31Z</time></trkpt><trkpt lat="14.44477263020527" lon="121.04548615843042"><ele>16.0</ele><time>2026-04-19T10:08:45Z</time></trkpt><trkpt lat="14.444765859051165" lon="121.04561756534066"><ele>16.0</ele><time>2026-04-19T10:08:49Z</time></trkpt><trkpt lat="14.444769167605358" lon="121.04572356993057"><ele>16.0</ele><time>2026-04-19T10:08:51Z</time></trkpt><trkpt lat="14.444773608419005" lon="121.04584696327113"><ele>16.0</ele><time>2026-04-19T10:08:53Z</time></trkpt><trkpt lat="14.444775070601784" lon="121.04596897201684"><ele>16.0</ele><time>2026-04-19T10:08:55Z</time></trkpt><trkpt lat="14.444778277948958" lon="121.04607942060716"><ele>16.0</ele><time>2026-04-19T10:08:57Z</time></trkpt><trkpt lat="14.444776862881383" lon="121.04618164025389"><ele>15.666666666666666</ele><time>2026-04-19T10:08:59Z</time></trkpt><trkpt lat="14.444789558339018" lon="121.04628327873723"><ele>15.333333333333332</ele><time>2026-04-19T10:09:01Z</time></trkpt><trkpt lat="14.44478580172568" lon="121.0463486410272"><ele>15.0</ele><time>2026-04-19T10:09:02Z</time></trkpt><trkpt lat="14.444784396524131" lon="121.04645324129797"><ele>14.666666666666668</ele><time>2026-04-19T10:09:04Z</time></trkpt><trkpt lat="14.444769653763451" lon="121.04651840572906"><ele>14.333333333333334</ele><time>2026-04-19T10:09:05Z</time></trkpt><trkpt lat="14.444762933462941" lon="121.04658343536488"><ele>14.0</ele><time>2026-04-19T10:09:06Z</time></trkpt><trkpt lat="14.44476227851697" lon="121.0467011734754"><ele>13.666666666666668</ele><time>2026-04-19T10:09:08Z</time></trkpt><trkpt lat="14.44476006348296" lon="121.0468211060933"><ele>13.333333333333334</ele><time>2026-04-19T10:09:10Z</time></trkpt><trkpt lat="14.44475839179169" lon="121.04689291730001"><ele>13.0</ele><time>2026-04-19T10:09:11Z</time></trkpt><trkpt lat="14.444758877739245" lon="121.046963052452"><ele>12.666666666666668</ele><time>2026-04-19T10:09:12Z</time></trkpt><trkpt lat="14.444759852496675" lon="121.04702950063896"><ele>12.333333333333334</ele><time>2026-04-19T10:09:13Z</time></trkpt><trkpt lat="14.44475964955009" lon="121.04715201924662"><ele>12.0</ele><time>2026-04-19T10:09:15Z</time></trkpt><trkpt lat="14.44476917951621" lon="121.04724432650171"><ele>12.0</ele><time>2026-04-19T10:09:17Z</time></trkpt><trkpt lat="14.444775438707167" lon="121.04732543877108"><ele>12.0</ele><time>2026-04-19T10:09:20Z</time></trkpt><trkpt lat="14.444940624457116" lon="121.04737596298057"><ele>12.0</ele><time>2026-04-19T10:09:29Z</time></trkpt><trkpt lat="14.445014932025694" lon="121.04735670112089"><ele>12.0</ele><time>2026-04-19T10:09:39Z</time></trkpt><trkpt lat="14.44509548886585" lon="121.04736376483085"><ele>12.0</ele><time>2026-04-19T10:09:42Z</time></trkpt><trkpt lat="14.445161756979395" lon="121.04736488525448"><ele>12.0</ele><time>2026-04-19T10:09:45Z</time></trkpt><trkpt lat="14.445204238560061" lon="121.04725815164038"><ele>12.0</ele><time>2026-04-19T10:09:49Z</time></trkpt><trkpt lat="14.44520996197475" lon="121.0471908662858"><ele>12.0</ele><time>2026-04-19T10:09:51Z</time></trkpt><trkpt lat="14.4452088987861" lon="121.04712426057873"><ele>12.0</ele><time>2026-04-19T10:09:53Z</time></trkpt><trkpt lat="14.445203863461774" lon="121.04704585841151"><ele>12.0</ele><time>2026-04-19T10:09:56Z</time></trkpt><trkpt lat="14.44520247605705" lon="121.04697716001384"><ele>12.0</ele><time>2026-04-19T10:09:58Z</time></trkpt><trkpt lat="14.44520350206285" lon="121.04689220864054"><ele>12.0</ele><time>2026-04-19T10:10:00Z</time></trkpt><trkpt lat="14.445204614663776" lon="121.04679552250836"><ele>12.0</ele><time>2026-04-19T10:10:02Z</time></trkpt><trkpt lat="14.445201862472455" lon="121.04668307495248"><ele>12.0</ele><time>2026-04-19T10:10:04Z</time></trkpt><trkpt lat="14.445197456552377" lon="121.04657000070593"><ele>12.0</ele><time>2026-04-19T10:10:06Z</time></trkpt><trkpt lat="14.445214517685494" lon="121.04645571501612"><ele>12.0</ele><time>2026-04-19T10:10:08Z</time></trkpt><trkpt lat="14.445215656200087" lon="121.04634532306842"><ele>12.333333333333334</ele><time>2026-04-19T10:10:10Z</time></trkpt><trkpt lat="14.445196752190226" lon="121.04625063631885"><ele>12.666666666666668</ele><time>2026-04-19T10:10:12Z</time></trkpt><trkpt lat="14.445196557913613" lon="121.04615883023642"><ele>13.0</ele><time>2026-04-19T10:10:14Z</time></trkpt><trkpt lat="14.445197540531847" lon="121.04607320540953"><ele>13.333333333333334</ele><time>2026-04-19T10:10:16Z</time></trkpt><trkpt lat="14.445207956597423" lon="121.04600468307918"><ele>13.666666666666668</ele><time>2026-04-19T10:10:18Z</time></trkpt><trkpt lat="14.445108465021036" lon="121.04596513291298"><ele>14.0</ele><time>2026-04-19T10:10:23Z</time></trkpt><trkpt lat="14.445033956003691" lon="121.04596396827104"><ele>14.0</ele><time>2026-04-19T10:10:26Z</time></trkpt><trkpt lat="14.444945957093418" lon="121.04596558528931"><ele>14.0</ele><time>2026-04-19T10:10:29Z</time></trkpt><trkpt lat="14.444866612717282" lon="121.04595279690129"><ele>14.0</ele><time>2026-04-19T10:10:32Z</time></trkpt><trkpt lat="14.444888616780592" lon="121.04588960980597"><ele>14.0</ele><time>2026-04-19T10:10:35Z</time></trkpt><trkpt lat="14.444888022471472" lon="121.04581756114933"><ele>14.0</ele><time>2026-04-19T10:10:38Z</time></trkpt><trkpt lat="14.44494894116913" lon="121.04580094691141"><ele>14.0</ele><time>2026-04-19T10:10:43Z</time></trkpt><trkpt lat="14.445014041244253" lon="121.04579291271777"><ele>14.0</ele><time>2026-04-19T10:10:47Z</time></trkpt><trkpt lat="14.444788172845918" lon="121.04603751528772"><ele>14.0</ele><time>2026-04-19T10:13:53.001Z</time></trkpt><trkpt lat="14.444865724919289" lon="121.0460293586696"><ele>14.0</ele><time>2026-04-19T10:13:55.001Z</time></trkpt><trkpt lat="14.444958316843413" lon="121.04600590172163"><ele>14.0</ele><time>2026-04-19T10:13:57.001Z</time></trkpt><trkpt lat="14.445202776798839" lon="121.04600571015406"><ele>14.0</ele><time>2026-04-19T10:14:07.001Z</time></trkpt><trkpt lat="14.445275209961922" lon="121.04600602883808"><ele>14.000000000000002</ele><time>2026-04-19T10:14:10.001Z</time></trkpt><trkpt lat="14.445361363614118" lon="121.04600695774349"><ele>14.0</ele><time>2026-04-19T10:14:13.001Z</time></trkpt><trkpt lat="14.445427059243755" lon="121.04600712168603"><ele>14.0</ele><time>2026-04-19T10:14:16.001Z</time></trkpt><trkpt lat="14.44552173345408" lon="121.0460075504923"><ele>14.0</ele><time>2026-04-19T10:14:19Z</time></trkpt><trkpt lat="14.445593589567878" lon="121.04600787594931"><ele>14.000000000000002</ele><time>2026-04-19T10:14:21Z</time></trkpt><trkpt lat="14.445664094908485" lon="121.0460081952882"><ele>14.0</ele><time>2026-04-19T10:14:23Z</time></trkpt><trkpt lat="14.44572946997422" lon="121.04599426483435"><ele>14.000000000000002</ele><time>2026-04-19T10:14:27Z</time></trkpt><trkpt lat="14.445737909585853" lon="121.04584682798526"><ele>14.0</ele><time>2026-04-19T10:14:28Z</time></trkpt><trkpt lat="14.445739675205303" lon="121.04578088861129"><ele>14.0</ele><time>2026-04-19T10:14:31Z</time></trkpt><trkpt lat="14.445735781991912" lon="121.04571581513352"><ele>14.0</ele><time>2026-04-19T10:14:34Z</time></trkpt><trkpt lat="14.44571880001503" lon="121.04564994294373"><ele>14.000000000000002</ele><time>2026-04-19T10:14:38Z</time></trkpt><trkpt lat="14.445704407473047" lon="121.04558052738399"><ele>14.0</ele><time>2026-04-19T10:14:48Z</time></trkpt><trkpt lat="14.445726243051425" lon="121.0455105496253"><ele>15.0</ele><time>2026-04-19T10:14:58Z</time></trkpt><trkpt lat="14.445925432304072" lon="121.04551577610555"><ele>16.0</ele><time>2026-04-19T10:15:03Z</time></trkpt><trkpt lat="14.446045132492692" lon="121.045511986512"><ele>17.0</ele><time>2026-04-19T10:15:05Z</time></trkpt><trkpt lat="14.446112479145881" lon="121.04550997076726"><ele>18.0</ele><time>2026-04-19T10:15:06Z</time></trkpt><trkpt lat="14.446182027620194" lon="121.04550800677224"><ele>18.000000000000004</ele><time>2026-04-19T10:15:07Z</time></trkpt><trkpt lat="14.446252469825808" lon="121.0454824590145"><ele>18.0</ele><time>2026-04-19T10:15:08Z</time></trkpt><trkpt lat="14.446328041812606" lon="121.04548214563131"><ele>18.0</ele><time>2026-04-19T10:15:09Z</time></trkpt><trkpt lat="14.446399707017818" lon="121.04550549124224"><ele>18.0</ele><time>2026-04-19T10:15:10Z</time></trkpt><trkpt lat="14.446471096907711" lon="121.04550362141097"><ele>18.0</ele><time>2026-04-19T10:15:11Z</time></trkpt><trkpt lat="14.446543642449933" lon="121.04550171484944"><ele>18.000000000000004</ele><time>2026-04-19T10:15:12Z</time></trkpt><trkpt lat="14.446616683227026" lon="121.04550076474071"><ele>18.0</ele><time>2026-04-19T10:15:13Z</time></trkpt><trkpt lat="14.446693200121459" lon="121.04549991803393"><ele>17.833333333333332</ele><time>2026-04-19T10:15:14Z</time></trkpt><trkpt lat="14.446768687346252" lon="121.04550087764702"><ele>17.666666666666668</ele><time>2026-04-19T10:15:15Z</time></trkpt><trkpt lat="14.446844849856758" lon="121.04550263050963"><ele>17.5</ele><time>2026-04-19T10:15:16Z</time></trkpt><trkpt lat="14.446923591280523" lon="121.04550241768342"><ele>17.333333333333336</ele><time>2026-04-19T10:15:17Z</time></trkpt><trkpt lat="14.44700036152057" lon="121.04550294428606"><ele>17.166666666666668</ele><time>2026-04-19T10:15:18Z</time></trkpt><trkpt lat="14.447085699997174" lon="121.04549981716634"><ele>17.0</ele><time>2026-04-19T10:15:19Z</time></trkpt><trkpt lat="14.447166795752397" lon="121.04549916946185"><ele>16.71428571428571</ele><time>2026-04-19T10:15:20Z</time></trkpt><trkpt lat="14.4472468172558" lon="121.04549925076456"><ele>16.428571428571427</ele><time>2026-04-19T10:15:21Z</time></trkpt><trkpt lat="14.447324122518076" lon="121.04549891451974"><ele>16.142857142857142</ele><time>2026-04-19T10:15:22Z</time></trkpt><trkpt lat="14.447395372035315" lon="121.04549820645063"><ele>15.857142857142856</ele><time>2026-04-19T10:15:23Z</time></trkpt><trkpt lat="14.44746703442517" lon="121.04550003896092"><ele>15.57142857142857</ele><time>2026-04-19T10:15:24Z</time></trkpt><trkpt lat="14.447535918078918" lon="121.04549835046218"><ele>15.285714285714286</ele><time>2026-04-19T10:15:25Z</time></trkpt><trkpt lat="14.447606333855997" lon="121.04549731106798"><ele>15.0</ele><time>2026-04-19T10:15:26Z</time></trkpt><trkpt lat="14.44767408232937" lon="121.04549819253685"><ele>15.0</ele><time>2026-04-19T10:15:27Z</time></trkpt><trkpt lat="14.447743140435621" lon="121.04549572495208"><ele>15.0</ele><time>2026-04-19T10:15:28Z</time></trkpt><trkpt lat="14.447864920835103" lon="121.04549494259427"><ele>15.0</ele><time>2026-04-19T10:15:30Z</time></trkpt><trkpt lat="14.447980040196445" lon="121.04549214879674"><ele>15.0</ele><time>2026-04-19T10:15:32Z</time></trkpt><trkpt lat="14.448108480373996" lon="121.04549306891462"><ele>15.0</ele><time>2026-04-19T10:15:34Z</time></trkpt><trkpt lat="14.448172991826262" lon="121.04547343718698"><ele>14.857142857142858</ele><time>2026-04-19T10:15:35Z</time></trkpt><trkpt lat="14.448239986277116" lon="121.04547311268533"><ele>14.714285714285714</ele><time>2026-04-19T10:15:36Z</time></trkpt><trkpt lat="14.448310261824732" lon="121.04549036447976"><ele>14.571428571428571</ele><time>2026-04-19T10:15:37Z</time></trkpt><trkpt lat="14.448381717172627" lon="121.04548949765213"><ele>14.428571428571429</ele><time>2026-04-19T10:15:38Z</time></trkpt><trkpt lat="14.448456100624876" lon="121.0454885745346"><ele>14.285714285714285</ele><time>2026-04-19T10:15:39Z</time></trkpt><trkpt lat="14.448529617772401" lon="121.04548843836547"><ele>14.142857142857142</ele><time>2026-04-19T10:15:40Z</time></trkpt><trkpt lat="14.448601181103774" lon="121.04548770506854"><ele>14.0</ele><time>2026-04-19T10:15:41Z</time></trkpt><trkpt lat="14.44867045345672" lon="121.04548689647986"><ele>14.0</ele><time>2026-04-19T10:15:42Z</time></trkpt><trkpt lat="14.448749333370134" lon="121.04548811954282"><ele>14.0</ele><time>2026-04-19T10:15:43Z</time></trkpt><trkpt lat="14.448819550040566" lon="121.0454898851962"><ele>14.0</ele><time>2026-04-19T10:15:44Z</time></trkpt><trkpt lat="14.448891933746262" lon="121.04548937433691"><ele>14.0</ele><time>2026-04-19T10:15:45Z</time></trkpt><trkpt lat="14.448964080198627" lon="121.04548835442303"><ele>14.0</ele><time>2026-04-19T10:15:46Z</time></trkpt><trkpt lat="14.449037964569923" lon="121.04548928962508"><ele>14.0</ele><time>2026-04-19T10:15:47Z</time></trkpt><trkpt lat="14.449111803637813" lon="121.04548855245575"><ele>14.0</ele><time>2026-04-19T10:15:48Z</time></trkpt><trkpt lat="14.449184648375212" lon="121.04548772797598"><ele>14.428571428571429</ele><time>2026-04-19T10:15:49Z</time></trkpt><trkpt lat="14.449258610057662" lon="121.04548842107458"><ele>14.857142857142858</ele><time>2026-04-19T10:15:50Z</time></trkpt><trkpt lat="14.44933267143364" lon="121.04548768572707"><ele>15.285714285714285</ele><time>2026-04-19T10:15:51Z</time></trkpt><trkpt lat="14.449408988556923" lon="121.04548407275772"><ele>15.714285714285714</ele><time>2026-04-19T10:15:52Z</time></trkpt><trkpt lat="14.449482467781776" lon="121.04548308483336"><ele>16.142857142857142</ele><time>2026-04-19T10:15:53Z</time></trkpt><trkpt lat="14.449554704561132" lon="121.04548057991661"><ele>16.57142857142857</ele><time>2026-04-19T10:15:54Z</time></trkpt><trkpt lat="14.449624593444154" lon="121.04547640738053"><ele>17.0</ele><time>2026-04-19T10:15:55Z</time></trkpt><trkpt lat="14.44969941840356" lon="121.04547544695872"><ele>17.333333333333336</ele><time>2026-04-19T10:15:56Z</time></trkpt><trkpt lat="14.449776916219124" lon="121.04547487703528"><ele>17.666666666666668</ele><time>2026-04-19T10:15:57Z</time></trkpt><trkpt lat="14.449855864924297" lon="121.04547367164197"><ele>18.0</ele><time>2026-04-19T10:15:58Z</time></trkpt><trkpt lat="14.449941295223" lon="121.04547274528738"><ele>18.333333333333332</ele><time>2026-04-19T10:15:59Z</time></trkpt><trkpt lat="14.450026352889621" lon="121.04547159201337"><ele>18.666666666666664</ele><time>2026-04-19T10:16:00Z</time></trkpt><trkpt lat="14.450112422730811" lon="121.0454704896271"><ele>19.0</ele><time>2026-04-19T10:16:01Z</time></trkpt><trkpt lat="14.450201983785902" lon="121.04546904692539"><ele>19.0</ele><time>2026-04-19T10:16:02Z</time></trkpt><trkpt lat="14.450290408285495" lon="121.04546621918634"><ele>19.0</ele><time>2026-04-19T10:16:03Z</time></trkpt><trkpt lat="14.450380801214271" lon="121.04546588048309"><ele>19.0</ele><time>2026-04-19T10:16:04Z</time></trkpt><trkpt lat="14.450472304120195" lon="121.04546705220073"><ele>19.0</ele><time>2026-04-19T10:16:05Z</time></trkpt><trkpt lat="14.450567166451957" lon="121.04547021655057"><ele>19.0</ele><time>2026-04-19T10:16:06Z</time></trkpt><trkpt lat="14.450661978906012" lon="121.04547003106023"><ele>19.2</ele><time>2026-04-19T10:16:07Z</time></trkpt><trkpt lat="14.4507575247104" lon="121.04546836306899"><ele>19.4</ele><time>2026-04-19T10:16:08Z</time></trkpt><trkpt lat="14.450856681756159" lon="121.04546564694117"><ele>19.6</ele><time>2026-04-19T10:16:09Z</time></trkpt><trkpt lat="14.450953276918824" lon="121.04546389236586"><ele>19.8</ele><time>2026-04-19T10:16:10Z</time></trkpt><trkpt lat="14.451048300168805" lon="121.04546170832904"><ele>20.0</ele><time>2026-04-19T10:16:11Z</time></trkpt><trkpt lat="14.451141143150759" lon="121.0454606622734"><ele>20.0</ele><time>2026-04-19T10:16:12Z</time></trkpt><trkpt lat="14.451228574479865" lon="121.04546280025244"><ele>20.0</ele><time>2026-04-19T10:16:13Z</time></trkpt><trkpt lat="14.451314218330365" lon="121.04546339172269"><ele>20.0</ele><time>2026-04-19T10:16:14Z</time></trkpt><trkpt lat="14.451396912292681" lon="121.04546375231938"><ele>20.0</ele><time>2026-04-19T10:16:15Z</time></trkpt><trkpt lat="14.451480316414878" lon="121.04546341023865"><ele>20.0</ele><time>2026-04-19T10:16:16Z</time></trkpt><trkpt lat="14.451564058336594" lon="121.04546448955797"><ele>20.0</ele><time>2026-04-19T10:16:17Z</time></trkpt><trkpt lat="14.451646589765954" lon="121.04546684833971"><ele>19.833333333333336</ele><time>2026-04-19T10:16:18Z</time></trkpt><trkpt lat="14.451732047710777" lon="121.04546900904565"><ele>19.666666666666668</ele><time>2026-04-19T10:16:19Z</time></trkpt><trkpt lat="14.451819390817962" lon="121.04547080768252"><ele>19.5</ele><time>2026-04-19T10:16:20Z</time></trkpt><trkpt lat="14.451909184273624" lon="121.04547499866477"><ele>19.333333333333332</ele><time>2026-04-19T10:16:21Z</time></trkpt><trkpt lat="14.452000440840761" lon="121.04548132457222"><ele>19.166666666666664</ele><time>2026-04-19T10:16:22Z</time></trkpt><trkpt lat="14.452091723186232" lon="121.04549155492312"><ele>19.0</ele><time>2026-04-19T10:16:23Z</time></trkpt><trkpt lat="14.452183505538978" lon="121.04550296158155"><ele>19.0</ele><time>2026-04-19T10:16:24Z</time></trkpt><trkpt lat="14.452272705967818" lon="121.04551856588685"><ele>19.0</ele><time>2026-04-19T10:16:25Z</time></trkpt><trkpt lat="14.452353825522206" lon="121.04553347828079"><ele>19.0</ele><time>2026-04-19T10:16:26Z</time></trkpt><trkpt lat="14.452433175678504" lon="121.04555403340838"><ele>19.0</ele><time>2026-04-19T10:16:27Z</time></trkpt><trkpt lat="14.452502992755234" lon="121.04557336543563"><ele>19.0</ele><time>2026-04-19T10:16:28Z</time></trkpt><trkpt lat="14.452563322133647" lon="121.04559322032556"><ele>19.0</ele><time>2026-04-19T10:16:29Z</time></trkpt><trkpt lat="14.45266103140573" lon="121.0456249339341"><ele>19.0</ele><time>2026-04-19T10:16:31Z</time></trkpt><trkpt lat="14.452752072432405" lon="121.04565701504347"><ele>19.0</ele><time>2026-04-19T10:16:33Z</time></trkpt><trkpt lat="14.452835250463249" lon="121.04568326104398"><ele>19.0</ele><time>2026-04-19T10:16:35Z</time></trkpt><trkpt lat="14.452911459542756" lon="121.04571439872294"><ele>19.0</ele><time>2026-04-19T10:16:37Z</time></trkpt><trkpt lat="14.452976229394189" lon="121.04574672670898"><ele>19.0</ele><time>2026-04-19T10:16:39Z</time></trkpt><trkpt lat="14.453032668305925" lon="121.04577633437616"><ele>19.0</ele><time>2026-04-19T10:16:41Z</time></trkpt><trkpt lat="14.45309113298125" lon="121.04580862809598"><ele>19.833333333333332</ele><time>2026-04-19T10:16:43Z</time></trkpt><trkpt lat="14.453167616866681" lon="121.04585112384154"><ele>20.666666666666664</ele><time>2026-04-19T10:16:46Z</time></trkpt><trkpt lat="14.453240100516267" lon="121.04589046638456"><ele>21.5</ele><time>2026-04-19T10:16:49Z</time></trkpt><trkpt lat="14.453311409504535" lon="121.04592600944116"><ele>22.333333333333332</ele><time>2026-04-19T10:16:52Z</time></trkpt><trkpt lat="14.453379548866069" lon="121.04595418214434"><ele>23.166666666666668</ele><time>2026-04-19T10:16:56Z</time></trkpt><trkpt lat="14.453451262227388" lon="121.04597308159099"><ele>24.0</ele><time>2026-04-19T10:17:02Z</time></trkpt><trkpt lat="14.453517097025186" lon="121.04597612371023"><ele>24.0</ele><time>2026-04-19T10:17:12Z</time></trkpt><trkpt lat="14.45358517093941" lon="121.04594890886237"><ele>24.0</ele><time>2026-04-19T10:17:16Z</time></trkpt><trkpt lat="14.453630768473728" lon="121.04589565745323"><ele>24.0</ele><time>2026-04-19T10:17:19Z</time></trkpt><trkpt lat="14.453651048123183" lon="121.04598136973794"><ele>24.0</ele><time>2026-04-19T10:17:20Z</time></trkpt><trkpt lat="14.453665827689465" lon="121.04584021756652"><ele>24.0</ele><time>2026-04-19T10:17:21Z</time></trkpt><trkpt lat="14.453689962214963" lon="121.04575378547473"><ele>23.833333333333332</ele><time>2026-04-19T10:17:23Z</time></trkpt><trkpt lat="14.45372039707398" lon="121.04564425416599"><ele>23.666666666666668</ele><time>2026-04-19T10:17:25Z</time></trkpt><trkpt lat="14.453758400563128" lon="121.04552025707419"><ele>23.5</ele><time>2026-04-19T10:17:27Z</time></trkpt><trkpt lat="14.453778573737063" lon="121.04545213378019"><ele>23.333333333333336</ele><time>2026-04-19T10:17:28Z</time></trkpt><trkpt lat="14.453797806656393" lon="121.04538266957239"><ele>23.166666666666668</ele><time>2026-04-19T10:17:29Z</time></trkpt><trkpt lat="14.453818098065142" lon="121.04530918858384"><ele>23.0</ele><time>2026-04-19T10:17:30Z</time></trkpt><trkpt lat="14.453838208906658" lon="121.04523829304492"><ele>23.666666666666668</ele><time>2026-04-19T10:17:31Z</time></trkpt><trkpt lat="14.453855613030795" lon="121.04517551525058"><ele>24.333333333333336</ele><time>2026-04-19T10:17:32Z</time></trkpt><trkpt lat="14.453895665728915" lon="121.04507575843432"><ele>25.0</ele><time>2026-04-19T10:17:34Z</time></trkpt><trkpt lat="14.453919793616048" lon="121.04498714066504"><ele>25.666666666666668</ele><time>2026-04-19T10:17:36Z</time></trkpt><trkpt lat="14.45394629222807" lon="121.0448973107419"><ele>26.333333333333332</ele><time>2026-04-19T10:17:38Z</time></trkpt><trkpt lat="14.453974731839951" lon="121.04480675091853"><ele>27.0</ele><time>2026-04-19T10:17:40Z</time></trkpt><trkpt lat="14.453993655127656" lon="121.04472123774674"><ele>27.666666666666668</ele><time>2026-04-19T10:17:42Z</time></trkpt><trkpt lat="14.45400987271378" lon="121.04463106127015"><ele>28.333333333333336</ele><time>2026-04-19T10:17:44Z</time></trkpt><trkpt lat="14.454040960868983" lon="121.04451828113517"><ele>29.0</ele><time>2026-04-19T10:17:46Z</time></trkpt><trkpt lat="14.454063942855" lon="121.0444486420939"><ele>29.666666666666668</ele><time>2026-04-19T10:17:47Z</time></trkpt><trkpt lat="14.454089881059268" lon="121.04437333615506"><ele>30.333333333333336</ele><time>2026-04-19T10:17:48Z</time></trkpt><trkpt lat="14.454115607025042" lon="121.04429098553982"><ele>31.0</ele><time>2026-04-19T10:17:49Z</time></trkpt><trkpt lat="14.45416006211656" lon="121.04421123931526"><ele>31.6</ele><time>2026-04-19T10:17:50Z</time></trkpt><trkpt lat="14.454174328650616" lon="121.04411630444358"><ele>32.2</ele><time>2026-04-19T10:17:51Z</time></trkpt><trkpt lat="14.45420570439845" lon="121.04402361606945"><ele>32.8</ele><time>2026-04-19T10:17:52Z</time></trkpt><trkpt lat="14.454251052430763" lon="121.04394373290941"><ele>33.4</ele><time>2026-04-19T10:17:53Z</time></trkpt><trkpt lat="14.45428171270351" lon="121.04385874492613"><ele>34.0</ele><time>2026-04-19T10:17:54Z</time></trkpt><trkpt lat="14.454312401752633" lon="121.04377066377374"><ele>34.0</ele><time>2026-04-19T10:17:55Z</time></trkpt><trkpt lat="14.454343651675822" lon="121.04368318298862"><ele>34.0</ele><time>2026-04-19T10:17:56Z</time></trkpt><trkpt lat="14.454372493681008" lon="121.04359114638702"><ele>34.0</ele><time>2026-04-19T10:17:57Z</time></trkpt><trkpt lat="14.45440341707322" lon="121.04349906006202"><ele>34.0</ele><time>2026-04-19T10:17:58Z</time></trkpt><trkpt lat="14.454433439601276" lon="121.04340840938619"><ele>34.0</ele><time>2026-04-19T10:17:59Z</time></trkpt><trkpt lat="14.454462322299726" lon="121.04332072740756"><ele>34.833333333333336</ele><time>2026-04-19T10:18:00Z</time></trkpt><trkpt lat="14.45449111621439" lon="121.04323805442415"><ele>35.66666666666667</ele><time>2026-04-19T10:18:01Z</time></trkpt><trkpt lat="14.45451512889141" lon="121.04316386322304"><ele>36.5</ele><time>2026-04-19T10:18:02Z</time></trkpt><trkpt lat="14.454538338720788" lon="121.04309067622802"><ele>37.333333333333336</ele><time>2026-04-19T10:18:03Z</time></trkpt><trkpt lat="14.454562532219716" lon="121.0430182474528"><ele>38.166666666666664</ele><time>2026-04-19T10:18:04Z</time></trkpt><trkpt lat="14.454587483925316" lon="121.04294345164888"><ele>39.0</ele><time>2026-04-19T10:18:05Z</time></trkpt><trkpt lat="14.454613529186439" lon="121.04286642883572"><ele>38.666666666666664</ele><time>2026-04-19T10:18:06Z</time></trkpt><trkpt lat="14.454641873284524" lon="121.04278497558178"><ele>38.333333333333336</ele><time>2026-04-19T10:18:07Z</time></trkpt><trkpt lat="14.454665815510714" lon="121.04269964554473"><ele>38.0</ele><time>2026-04-19T10:18:08Z</time></trkpt><trkpt lat="14.454695179197387" lon="121.04261472911611"><ele>37.66666666666667</ele><time>2026-04-19T10:18:09Z</time></trkpt><trkpt lat="14.454719953749116" lon="121.04252879337447"><ele>37.333333333333336</ele><time>2026-04-19T10:18:10Z</time></trkpt><trkpt lat="14.45474818385052" lon="121.04243828133335"><ele>37.0</ele><time>2026-04-19T10:18:11Z</time></trkpt><trkpt lat="14.45477357989626" lon="121.04234528728499"><ele>37.0</ele><time>2026-04-19T10:18:12Z</time></trkpt><trkpt lat="14.454801115408598" lon="121.0422535174627"><ele>37.0</ele><time>2026-04-19T10:18:13Z</time></trkpt><trkpt lat="14.45483068029048" lon="121.04216054707591"><ele>37.0</ele><time>2026-04-19T10:18:14Z</time></trkpt><trkpt lat="14.454859897221525" lon="121.04206831316475"><ele>37.0</ele><time>2026-04-19T10:18:15Z</time></trkpt><trkpt lat="14.454890531547106" lon="121.04197804415057"><ele>37.0</ele><time>2026-04-19T10:18:16Z</time></trkpt><trkpt lat="14.454920180354797" lon="121.04188721172795"><ele>37.0</ele><time>2026-04-19T10:18:17Z</time></trkpt><trkpt lat="14.454949263684309" lon="121.04179611924846"><ele>37.0</ele><time>2026-04-19T10:18:18Z</time></trkpt><trkpt lat="14.454975956260425" lon="121.04170689739585"><ele>37.0</ele><time>2026-04-19T10:18:19Z</time></trkpt><trkpt lat="14.455000080229887" lon="121.04162029800614"><ele>37.0</ele><time>2026-04-19T10:18:20Z</time></trkpt><trkpt lat="14.455021182083023" lon="121.04153889189921"><ele>37.0</ele><time>2026-04-19T10:18:21Z</time></trkpt><trkpt lat="14.455040125348733" lon="121.04146129931755"><ele>37.0</ele><time>2026-04-19T10:18:22Z</time></trkpt><trkpt lat="14.455056168661653" lon="121.0413873904443"><ele>37.142857142857146</ele><time>2026-04-19T10:18:23Z</time></trkpt><trkpt lat="14.455066281585042" lon="121.04131905599382"><ele>37.285714285714285</ele><time>2026-04-19T10:18:24Z</time></trkpt><trkpt lat="14.455079327139591" lon="121.04125015892387"><ele>37.42857142857143</ele><time>2026-04-19T10:18:25Z</time></trkpt><trkpt lat="14.455095206375345" lon="121.04117887076974"><ele>37.57142857142857</ele><time>2026-04-19T10:18:26Z</time></trkpt><trkpt lat="14.45511109496816" lon="121.04110523700338"><ele>37.714285714285715</ele><time>2026-04-19T10:18:27Z</time></trkpt><trkpt lat="14.455129850139137" lon="121.04103112250787"><ele>37.857142857142854</ele><time>2026-04-19T10:18:28Z</time></trkpt><trkpt lat="14.455149159783566" lon="121.0409574877078"><ele>38.0</ele><time>2026-04-19T10:18:29Z</time></trkpt><trkpt lat="14.455165173818578" lon="121.0408821966743"><ele>38.0</ele><time>2026-04-19T10:18:30Z</time></trkpt><trkpt lat="14.455184979502532" lon="121.04080125927985"><ele>38.0</ele><time>2026-04-19T10:18:31Z</time></trkpt><trkpt lat="14.455204619149814" lon="121.04071739665358"><ele>38.0</ele><time>2026-04-19T10:18:32Z</time></trkpt><trkpt lat="14.455226002835396" lon="121.04063130730277"><ele>38.0</ele><time>2026-04-19T10:18:33Z</time></trkpt><trkpt lat="14.455250005456652" lon="121.04054294249785"><ele>38.0</ele><time>2026-04-19T10:18:34Z</time></trkpt><trkpt lat="14.455274658064518" lon="121.04045526159115"><ele>38.0</ele><time>2026-04-19T10:18:35Z</time></trkpt><trkpt lat="14.455300223182418" lon="121.0403684906156"><ele>38.0</ele><time>2026-04-19T10:18:36Z</time></trkpt><trkpt lat="14.455326337522255" lon="121.04027871869529"><ele>38.0</ele><time>2026-04-19T10:18:37Z</time></trkpt><trkpt lat="14.455352112410846" lon="121.04019045372894"><ele>38.0</ele><time>2026-04-19T10:18:38Z</time></trkpt><trkpt lat="14.455376702900503" lon="121.0401030014119"><ele>38.0</ele><time>2026-04-19T10:18:39Z</time></trkpt><trkpt lat="14.455398657782025" lon="121.0400155353952"><ele>38.0</ele><time>2026-04-19T10:18:40Z</time></trkpt><trkpt lat="14.455420761489345" lon="121.03992909619743"><ele>38.0</ele><time>2026-04-19T10:18:41Z</time></trkpt><trkpt lat="14.455440193206261" lon="121.03984133324924"><ele>38.0</ele><time>2026-04-19T10:18:42Z</time></trkpt><trkpt lat="14.455462229320469" lon="121.0397520008413"><ele>38.0</ele><time>2026-04-19T10:18:43Z</time></trkpt><trkpt lat="14.455483537345945" lon="121.03966441453139"><ele>38.0</ele><time>2026-04-19T10:18:44Z</time></trkpt><trkpt lat="14.455504680829195" lon="121.03957813109322"><ele>38.0</ele><time>2026-04-19T10:18:45Z</time></trkpt><trkpt lat="14.455525422703337" lon="121.03949328579976"><ele>38.0</ele><time>2026-04-19T10:18:46Z</time></trkpt><trkpt lat="14.455545083436013" lon="121.03941052218674"><ele>38.0</ele><time>2026-04-19T10:18:47Z</time></trkpt><trkpt lat="14.455561200193042" lon="121.03933011627016"><ele>38.0</ele><time>2026-04-19T10:18:48Z</time></trkpt><trkpt lat="14.45557739829643" lon="121.0392565640959"><ele>38.0</ele><time>2026-04-19T10:18:49Z</time></trkpt><trkpt lat="14.455591780614352" lon="121.03918901594179"><ele>38.0</ele><time>2026-04-19T10:18:50Z</time></trkpt><trkpt lat="14.455604437766516" lon="121.03912406295382"><ele>38.0</ele><time>2026-04-19T10:18:51Z</time></trkpt><trkpt lat="14.455634792678401" lon="121.03900402237399"><ele>38.0</ele><time>2026-04-19T10:18:53Z</time></trkpt><trkpt lat="14.455666345004023" lon="121.03889758982741"><ele>38.0</ele><time>2026-04-19T10:18:55Z</time></trkpt><trkpt lat="14.45569170039506" lon="121.03880076327528"><ele>37.6</ele><time>2026-04-19T10:18:57Z</time></trkpt><trkpt lat="14.455721050053176" lon="121.0387007958711"><ele>37.199999999999996</ele><time>2026-04-19T10:18:59Z</time></trkpt><trkpt lat="14.45574982056638" lon="121.03859282779979"><ele>36.8</ele><time>2026-04-19T10:19:01Z</time></trkpt><trkpt lat="14.455781868457613" lon="121.03847086147421"><ele>36.4</ele><time>2026-04-19T10:19:03Z</time></trkpt><trkpt lat="14.455798100061518" lon="121.0384073562298"><ele>36.0</ele><time>2026-04-19T10:19:04Z</time></trkpt><trkpt lat="14.455814641261012" lon="121.038340534942"><ele>36.00000000000001</ele><time>2026-04-19T10:19:05Z</time></trkpt><trkpt lat="14.455831671113447" lon="121.03827457118693"><ele>36.0</ele><time>2026-04-19T10:19:06Z</time></trkpt><trkpt lat="14.455846260414326" lon="121.03820806121104"><ele>36.0</ele><time>2026-04-19T10:19:07Z</time></trkpt><trkpt lat="14.455862604689683" lon="121.03814299517015"><ele>36.0</ele><time>2026-04-19T10:19:08Z</time></trkpt><trkpt lat="14.455878527630414" lon="121.03807690289098"><ele>36.0</ele><time>2026-04-19T10:19:09Z</time></trkpt><trkpt lat="14.455896442568926" lon="121.03800646414281"><ele>36.00000000000001</ele><time>2026-04-19T10:19:10Z</time></trkpt><trkpt lat="14.455915184914062" lon="121.03793260342124"><ele>36.0</ele><time>2026-04-19T10:19:11Z</time></trkpt><trkpt lat="14.455933911164927" lon="121.03785549134236"><ele>36.0</ele><time>2026-04-19T10:19:12Z</time></trkpt><trkpt lat="14.455953685737592" lon="121.0377750777591"><ele>36.0</ele><time>2026-04-19T10:19:13Z</time></trkpt><trkpt lat="14.455974678677611" lon="121.03769127397297"><ele>36.0</ele><time>2026-04-19T10:19:14Z</time></trkpt><trkpt lat="14.455995822714367" lon="121.03760747975038"><ele>36.0</ele><time>2026-04-19T10:19:15Z</time></trkpt><trkpt lat="14.456017556966156" lon="121.03752449743558"><ele>36.0</ele><time>2026-04-19T10:19:16Z</time></trkpt><trkpt lat="14.45603900220331" lon="121.03744229396797"><ele>36.0</ele><time>2026-04-19T10:19:17Z</time></trkpt><trkpt lat="14.456059974312865" lon="121.03736449885535"><ele>36.142857142857146</ele><time>2026-04-19T10:19:18Z</time></trkpt><trkpt lat="14.456078952850357" lon="121.03728917347355"><ele>36.285714285714285</ele><time>2026-04-19T10:19:19Z</time></trkpt><trkpt lat="14.456096898723839" lon="121.03721829449236"><ele>36.42857142857143</ele><time>2026-04-19T10:19:20Z</time></trkpt><trkpt lat="14.456113428080155" lon="121.03715326387754"><ele>36.57142857142857</ele><time>2026-04-19T10:19:21Z</time></trkpt><trkpt lat="14.456130421095892" lon="121.03708872598648"><ele>36.714285714285715</ele><time>2026-04-19T10:19:22Z</time></trkpt><trkpt lat="14.45614829245693" lon="121.03702358718732"><ele>36.85714285714286</ele><time>2026-04-19T10:19:23Z</time></trkpt><trkpt lat="14.456166429742526" lon="121.036954408092"><ele>37.0</ele><time>2026-04-19T10:19:24Z</time></trkpt><trkpt lat="14.456187430548265" lon="121.03687903753044"><ele>37.0</ele><time>2026-04-19T10:19:25Z</time></trkpt><trkpt lat="14.456209222055861" lon="121.03679738375622"><ele>37.0</ele><time>2026-04-19T10:19:26Z</time></trkpt><trkpt lat="14.456232428328722" lon="121.03671295745086"><ele>37.0</ele><time>2026-04-19T10:19:27Z</time></trkpt><trkpt lat="14.456254006603729" lon="121.0366267032705"><ele>37.0</ele><time>2026-04-19T10:19:28Z</time></trkpt><trkpt lat="14.456276131560335" lon="121.03654126385389"><ele>37.0</ele><time>2026-04-19T10:19:29Z</time></trkpt><trkpt lat="14.456298285158809" lon="121.03646271609635"><ele>37.0</ele><time>2026-04-19T10:19:30Z</time></trkpt><trkpt lat="14.456317366696465" lon="121.03639377320265"><ele>36.833333333333336</ele><time>2026-04-19T10:19:31Z</time></trkpt><trkpt lat="14.456348828232352" lon="121.03628663175405"><ele>36.66666666666667</ele><time>2026-04-19T10:19:33Z</time></trkpt><trkpt lat="14.456370678039418" lon="121.03621963568615"><ele>36.5</ele><time>2026-04-19T10:19:35Z</time></trkpt><trkpt lat="14.456393592726654" lon="121.03615264736044"><ele>36.333333333333336</ele><time>2026-04-19T10:19:38Z</time></trkpt><trkpt lat="14.456413675288077" lon="121.03608643486461"><ele>36.166666666666664</ele><time>2026-04-19T10:19:47Z</time></trkpt><trkpt lat="14.456447335032923" lon="121.03600418598182"><ele>36.0</ele><time>2026-04-19T10:19:51Z</time></trkpt><trkpt lat="14.456484192953367" lon="121.03592532974716"><ele>36.0</ele><time>2026-04-19T10:19:53Z</time></trkpt><trkpt lat="14.456529882729196" lon="121.03581777478364"><ele>36.0</ele><time>2026-04-19T10:19:55Z</time></trkpt><trkpt lat="14.456555653545104" lon="121.03575491911312"><ele>36.0</ele><time>2026-04-19T10:19:56Z</time></trkpt><trkpt lat="14.456578977610395" lon="121.03568883340749"><ele>36.0</ele><time>2026-04-19T10:19:57Z</time></trkpt><trkpt lat="14.456604525159955" lon="121.0356212782771"><ele>36.0</ele><time>2026-04-19T10:19:58Z</time></trkpt><trkpt lat="14.45663529598544" lon="121.03554994497826"><ele>36.0</ele><time>2026-04-19T10:19:59Z</time></trkpt><trkpt lat="14.456669387568098" lon="121.03547385777384"><ele>36.0</ele><time>2026-04-19T10:20:00Z</time></trkpt><trkpt lat="14.456712928319575" lon="121.03538930724537"><ele>36.0</ele><time>2026-04-19T10:20:01Z</time></trkpt><trkpt lat="14.456760604514075" lon="121.03529574149208"><ele>36.0</ele><time>2026-04-19T10:20:02Z</time></trkpt><trkpt lat="14.456810512856304" lon="121.035198001495"><ele>36.0</ele><time>2026-04-19T10:20:03Z</time></trkpt><trkpt lat="14.456863255583595" lon="121.03510516062799"><ele>36.0</ele><time>2026-04-19T10:20:04Z</time></trkpt><trkpt lat="14.45691813968125" lon="121.03501314788079"><ele>35.6</ele><time>2026-04-19T10:20:05Z</time></trkpt><trkpt lat="14.456970584090055" lon="121.03492020013663"><ele>35.2</ele><time>2026-04-19T10:20:06Z</time></trkpt><trkpt lat="14.457029392699457" lon="121.03482756535497"><ele>34.8</ele><time>2026-04-19T10:20:07Z</time></trkpt><trkpt lat="14.45708211696797" lon="121.03474763440231"><ele>34.4</ele><time>2026-04-19T10:20:08Z</time></trkpt><trkpt lat="14.457133726559745" lon="121.03466917726436"><ele>34.0</ele><time>2026-04-19T10:20:09Z</time></trkpt><trkpt lat="14.457182568392016" lon="121.03459720612597"><ele>33.833333333333336</ele><time>2026-04-19T10:20:10Z</time></trkpt><trkpt lat="14.457224594761344" lon="121.03453109158822"><ele>33.66666666666667</ele><time>2026-04-19T10:20:11Z</time></trkpt><trkpt lat="14.457263638326099" lon="121.03446858069601"><ele>33.5</ele><time>2026-04-19T10:20:12Z</time></trkpt><trkpt lat="14.45729966512819" lon="121.03441224332164"><ele>33.333333333333336</ele><time>2026-04-19T10:20:13Z</time></trkpt><trkpt lat="14.457361597417986" lon="121.03431809783237"><ele>33.166666666666664</ele><time>2026-04-19T10:20:15Z</time></trkpt><trkpt lat="14.457420070598381" lon="121.0342287431913"><ele>33.0</ele><time>2026-04-19T10:20:17Z</time></trkpt><trkpt lat="14.457478818731989" lon="121.03412521519097"><ele>33.0</ele><time>2026-04-19T10:20:19Z</time></trkpt><trkpt lat="14.457507389444459" lon="121.03406610281621"><ele>33.0</ele><time>2026-04-19T10:20:20Z</time></trkpt><trkpt lat="14.457540596943026" lon="121.0340061971341"><ele>33.0</ele><time>2026-04-19T10:20:21Z</time></trkpt><trkpt lat="14.4575742776909" lon="121.03394337208874"><ele>33.0</ele><time>2026-04-19T10:20:22Z</time></trkpt><trkpt lat="14.457609072779189" lon="121.03387857442064"><ele>33.0</ele><time>2026-04-19T10:20:23Z</time></trkpt><trkpt lat="14.457644746477724" lon="121.03381313543666"><ele>33.0</ele><time>2026-04-19T10:20:24Z</time></trkpt><trkpt lat="14.457676631667399" lon="121.03374637564973"><ele>33.0</ele><time>2026-04-19T10:20:25Z</time></trkpt><trkpt lat="14.457710967901424" lon="121.0336812264727"><ele>33.0</ele><time>2026-04-19T10:20:26Z</time></trkpt><trkpt lat="14.45774194082922" lon="121.03361486938726"><ele>33.0</ele><time>2026-04-19T10:20:27Z</time></trkpt><trkpt lat="14.457770450188615" lon="121.03354796893711"><ele>33.0</ele><time>2026-04-19T10:20:28Z</time></trkpt><trkpt lat="14.457807318070515" lon="121.03348038881013"><ele>33.0</ele><time>2026-04-19T10:20:29Z</time></trkpt><trkpt lat="14.457839869425728" lon="121.03341119896243"><ele>33.0</ele><time>2026-04-19T10:20:30Z</time></trkpt><trkpt lat="14.457874447503213" lon="121.03334945606082"><ele>33.0</ele><time>2026-04-19T10:20:31Z</time></trkpt><trkpt lat="14.457907363364443" lon="121.03329058790654"><ele>33.0</ele><time>2026-04-19T10:20:32Z</time></trkpt><trkpt lat="14.457936751010278" lon="121.0332285141079"><ele>33.199999999999996</ele><time>2026-04-19T10:20:33Z</time></trkpt><trkpt lat="14.458007762574967" lon="121.03312061387298"><ele>33.4</ele><time>2026-04-19T10:20:35Z</time></trkpt><trkpt lat="14.458084109016795" lon="121.03300646970132"><ele>33.599999999999994</ele><time>2026-04-19T10:20:37Z</time></trkpt><trkpt lat="14.45812004140453" lon="121.03295076050054"><ele>33.8</ele><time>2026-04-19T10:20:38Z</time></trkpt><trkpt lat="14.458159591315408" lon="121.03289460838316"><ele>34.0</ele><time>2026-04-19T10:20:39Z</time></trkpt><trkpt lat="14.458203083493622" lon="121.03283625678047"><ele>34.0</ele><time>2026-04-19T10:20:40Z</time></trkpt><trkpt lat="14.458256006212883" lon="121.03270600105965"><ele>34.0</ele><time>2026-04-19T10:20:42Z</time></trkpt><trkpt lat="14.458291799911239" lon="121.03264901869542"><ele>34.0</ele><time>2026-04-19T10:20:43Z</time></trkpt><trkpt lat="14.45833227368087" lon="121.03258669821972"><ele>34.0</ele><time>2026-04-19T10:20:44Z</time></trkpt><trkpt lat="14.458367137461044" lon="121.03253119602707"><ele>34.0</ele><time>2026-04-19T10:20:45Z</time></trkpt><trkpt lat="14.458429681186951" lon="121.03242064752315"><ele>34.0</ele><time>2026-04-19T10:20:47Z</time></trkpt><trkpt lat="14.458465710748571" lon="121.03235870358402"><ele>34.0</ele><time>2026-04-19T10:20:48Z</time></trkpt><trkpt lat="14.458501901355806" lon="121.0322921538205"><ele>34.0</ele><time>2026-04-19T10:20:49Z</time></trkpt><trkpt lat="14.458540558164122" lon="121.03221986876055"><ele>34.0</ele><time>2026-04-19T10:20:50Z</time></trkpt><trkpt lat="14.458585403178827" lon="121.03214901247215"><ele>34.0</ele><time>2026-04-19T10:20:51Z</time></trkpt><trkpt lat="14.458630914122553" lon="121.03207831877435"><ele>34.0</ele><time>2026-04-19T10:20:52Z</time></trkpt><trkpt lat="14.458673630356964" lon="121.03200592564622"><ele>34.0</ele><time>2026-04-19T10:20:53Z</time></trkpt><trkpt lat="14.458700556240583" lon="121.03192801360053"><ele>34.0</ele><time>2026-04-19T10:20:54Z</time></trkpt><trkpt lat="14.45874372021371" lon="121.0318565847714"><ele>34.0</ele><time>2026-04-19T10:20:55Z</time></trkpt><trkpt lat="14.4587845402683" lon="121.03178597976573"><ele>34.0</ele><time>2026-04-19T10:20:56Z</time></trkpt><trkpt lat="14.458820841821135" lon="121.03172508636972"><ele>34.0</ele><time>2026-04-19T10:20:57Z</time></trkpt><trkpt lat="14.458881778324553" lon="121.03162159529991"><ele>34.0</ele><time>2026-04-19T10:20:59Z</time></trkpt><trkpt lat="14.458910573503493" lon="121.03156238178222"><ele>33.6</ele><time>2026-04-19T10:21:00Z</time></trkpt><trkpt lat="14.458960878230076" lon="121.03144991937423"><ele>33.2</ele><time>2026-04-19T10:21:02Z</time></trkpt><trkpt lat="14.459006298440231" lon="121.03135923646934"><ele>32.800000000000004</ele><time>2026-04-19T10:21:04Z</time></trkpt><trkpt lat="14.459046345959589" lon="121.03127378217208"><ele>32.4</ele><time>2026-04-19T10:21:06Z</time></trkpt><trkpt lat="14.459090414659206" lon="121.03117683848812"><ele>32.0</ele><time>2026-04-19T10:21:08Z</time></trkpt><trkpt lat="14.459156027525413" lon="121.03105366446049"><ele>31.999999999999996</ele><time>2026-04-19T10:21:10Z</time></trkpt><trkpt lat="14.459193699054902" lon="121.03098946046855"><ele>32.0</ele><time>2026-04-19T10:21:11Z</time></trkpt><trkpt lat="14.459230575811958" lon="121.03092266967587"><ele>32.0</ele><time>2026-04-19T10:21:12Z</time></trkpt><trkpt lat="14.459265793227976" lon="121.0308524225898"><ele>32.0</ele><time>2026-04-19T10:21:13Z</time></trkpt><trkpt lat="14.459307293038512" lon="121.03078239972766"><ele>31.999999999999996</ele><time>2026-04-19T10:21:14Z</time></trkpt><trkpt lat="14.45934979993048" lon="121.03071130792995"><ele>32.0</ele><time>2026-04-19T10:21:15Z</time></trkpt><trkpt lat="14.459394001628024" lon="121.03063571907536"><ele>31.999999999999996</ele><time>2026-04-19T10:21:16Z</time></trkpt><trkpt lat="14.459436572588364" lon="121.03056404104373"><ele>32.0</ele><time>2026-04-19T10:21:17Z</time></trkpt><trkpt lat="14.459476663120999" lon="121.03049138138336"><ele>32.0</ele><time>2026-04-19T10:21:18Z</time></trkpt><trkpt lat="14.459516481686274" lon="121.03041564918337"><ele>32.0</ele><time>2026-04-19T10:21:19Z</time></trkpt><trkpt lat="14.459555174732982" lon="121.03033915851553"><ele>31.999999999999996</ele><time>2026-04-19T10:21:20Z</time></trkpt><trkpt lat="14.459598980843076" lon="121.03025884828803"><ele>32.0</ele><time>2026-04-19T10:21:21Z</time></trkpt><trkpt lat="14.459644328818973" lon="121.03017733460709"><ele>32.0</ele><time>2026-04-19T10:21:22Z</time></trkpt><trkpt lat="14.459688548702736" lon="121.03009299932805"><ele>32.0</ele><time>2026-04-19T10:21:23Z</time></trkpt><trkpt lat="14.459737168588886" lon="121.03000922432294"><ele>32.0</ele><time>2026-04-19T10:21:24Z</time></trkpt><trkpt lat="14.459785138594484" lon="121.02992798543612"><ele>32.0</ele><time>2026-04-19T10:21:25Z</time></trkpt><trkpt lat="14.459835607672332" lon="121.02984242726284"><ele>32.0</ele><time>2026-04-19T10:21:26Z</time></trkpt><trkpt lat="14.459879474193976" lon="121.02976381261634"><ele>31.499999999999996</ele><time>2026-04-19T10:21:27Z</time></trkpt><trkpt lat="14.459921738783056" lon="121.02969010128385"><ele>31.0</ele><time>2026-04-19T10:21:28Z</time></trkpt><trkpt lat="14.459960283743147" lon="121.0296191835533"><ele>30.5</ele><time>2026-04-19T10:21:29Z</time></trkpt><trkpt lat="14.45999750931372" lon="121.02954950395454"><ele>30.0</ele><time>2026-04-19T10:21:30Z</time></trkpt><trkpt lat="14.460034396568533" lon="121.02948278910736"><ele>29.499999999999996</ele><time>2026-04-19T10:21:31Z</time></trkpt><trkpt lat="14.46006889854809" lon="121.02941339305907"><ele>29.0</ele><time>2026-04-19T10:21:32Z</time></trkpt><trkpt lat="14.460104234885396" lon="121.02934511593656"><ele>29.000000000000004</ele><time>2026-04-19T10:21:33Z</time></trkpt><trkpt lat="14.460136926318894" lon="121.02927793077306"><ele>29.0</ele><time>2026-04-19T10:21:34Z</time></trkpt><trkpt lat="14.460171797717772" lon="121.02921224271395"><ele>29.000000000000004</ele><time>2026-04-19T10:21:35Z</time></trkpt><trkpt lat="14.460202200893752" lon="121.02914438471738"><ele>29.000000000000004</ele><time>2026-04-19T10:21:36Z</time></trkpt><trkpt lat="14.460232654866637" lon="121.02908003148463"><ele>29.0</ele><time>2026-04-19T10:21:37Z</time></trkpt><trkpt lat="14.460262610544403" lon="121.02901623815974"><ele>29.000000000000004</ele><time>2026-04-19T10:21:38Z</time></trkpt><trkpt lat="14.460294306220213" lon="121.02895413468202"><ele>29.000000000000004</ele><time>2026-04-19T10:21:39Z</time></trkpt><trkpt lat="14.460321021157299" lon="121.02889120005192"><ele>28.666666666666664</ele><time>2026-04-19T10:21:40Z</time></trkpt><trkpt lat="14.460346589809625" lon="121.02882863443634"><ele>28.333333333333332</ele><time>2026-04-19T10:21:41Z</time></trkpt><trkpt lat="14.460381703821284" lon="121.02876583108785"><ele>28.0</ele><time>2026-04-19T10:21:42Z</time></trkpt><trkpt lat="14.4604129068466" lon="121.02870121731148"><ele>27.666666666666664</ele><time>2026-04-19T10:21:43Z</time></trkpt><trkpt lat="14.460443789752794" lon="121.02863752643171"><ele>27.333333333333332</ele><time>2026-04-19T10:21:44Z</time></trkpt><trkpt lat="14.46047666566325" lon="121.02857412506398"><ele>27.0</ele><time>2026-04-19T10:21:45Z</time></trkpt><trkpt lat="14.46053197351594" lon="121.02846430206021"><ele>26.8</ele><time>2026-04-19T10:21:47Z</time></trkpt><trkpt lat="14.460578368147614" lon="121.0283618436594"><ele>26.6</ele><time>2026-04-19T10:21:49Z</time></trkpt><trkpt lat="14.460622871862169" lon="121.02826645113984"><ele>26.400000000000002</ele><time>2026-04-19T10:21:51Z</time></trkpt><trkpt lat="14.460662715976309" lon="121.02817505499667"><ele>26.200000000000003</ele><time>2026-04-19T10:21:53Z</time></trkpt><trkpt lat="14.460703485466423" lon="121.02810102272922"><ele>26.0</ele><time>2026-04-19T10:21:55Z</time></trkpt><trkpt lat="14.460739078361206" lon="121.02803819994848"><ele>26.333333333333332</ele><time>2026-04-19T10:21:57Z</time></trkpt><trkpt lat="14.460775819505717" lon="121.02796264248312"><ele>26.666666666666664</ele><time>2026-04-19T10:22:00Z</time></trkpt><trkpt lat="14.460802633066145" lon="121.0279030067795"><ele>27.0</ele><time>2026-04-19T10:22:05Z</time></trkpt><trkpt lat="14.460838660537666" lon="121.0278316496426"><ele>27.333333333333336</ele><time>2026-04-19T10:22:12Z</time></trkpt><trkpt lat="14.460890144619336" lon="121.02776210146999"><ele>27.666666666666668</ele><time>2026-04-19T10:22:15Z</time></trkpt><trkpt lat="14.460933929296878" lon="121.0276772514519"><ele>28.0</ele><time>2026-04-19T10:22:17Z</time></trkpt><trkpt lat="14.46098825054397" lon="121.02757822453857"><ele>28.000000000000004</ele><time>2026-04-19T10:22:19Z</time></trkpt><trkpt lat="14.461015469377909" lon="121.0275179735491"><ele>28.0</ele><time>2026-04-19T10:22:20Z</time></trkpt><trkpt lat="14.461069191085016" lon="121.0274074920568"><ele>28.0</ele><time>2026-04-19T10:22:22Z</time></trkpt><trkpt lat="14.461122011135803" lon="121.02729094561526"><ele>28.0</ele><time>2026-04-19T10:22:24Z</time></trkpt><trkpt lat="14.461153628700341" lon="121.02722945206622"><ele>28.000000000000004</ele><time>2026-04-19T10:22:25Z</time></trkpt><trkpt lat="14.461183861062112" lon="121.02716646692662"><ele>28.0</ele><time>2026-04-19T10:22:26Z</time></trkpt><trkpt lat="14.461225303671686" lon="121.02709115832018"><ele>27.833333333333336</ele><time>2026-04-19T10:22:27Z</time></trkpt><trkpt lat="14.461260638257555" lon="121.02701899075353"><ele>27.666666666666668</ele><time>2026-04-19T10:22:28Z</time></trkpt><trkpt lat="14.46129940787008" lon="121.02694029536788"><ele>27.5</ele><time>2026-04-19T10:22:29Z</time></trkpt><trkpt lat="14.461339837746904" lon="121.02685792864351"><ele>27.333333333333336</ele><time>2026-04-19T10:22:30Z</time></trkpt><trkpt lat="14.461382507807826" lon="121.02677198559029"><ele>27.166666666666668</ele><time>2026-04-19T10:22:31Z</time></trkpt><trkpt lat="14.461423652800637" lon="121.02668605529804"><ele>27.0</ele><time>2026-04-19T10:22:32Z</time></trkpt><trkpt lat="14.461465397537301" lon="121.0265977567394"><ele>27.0</ele><time>2026-04-19T10:22:33Z</time></trkpt><trkpt lat="14.461509064360405" lon="121.02650930674204"><ele>27.000000000000004</ele><time>2026-04-19T10:22:34Z</time></trkpt><trkpt lat="14.461553429469665" lon="121.02642077131347"><ele>27.000000000000004</ele><time>2026-04-19T10:22:35Z</time></trkpt><trkpt lat="14.4615998385788" lon="121.02632946706404"><ele>27.0</ele><time>2026-04-19T10:22:36Z</time></trkpt><trkpt lat="14.4616516413309" lon="121.02623348957042"><ele>27.0</ele><time>2026-04-19T10:22:37Z</time></trkpt><trkpt lat="14.461702748812266" lon="121.02613801522753"><ele>27.0</ele><time>2026-04-19T10:22:38Z</time></trkpt><trkpt lat="14.461754092086538" lon="121.02604253774177"><ele>27.000000000000004</ele><time>2026-04-19T10:22:39Z</time></trkpt><trkpt lat="14.46180778103158" lon="121.02594009312146"><ele>27.000000000000004</ele><time>2026-04-19T10:22:40Z</time></trkpt><trkpt lat="14.461860299589452" lon="121.02583575822503"><ele>27.0</ele><time>2026-04-19T10:22:41Z</time></trkpt><trkpt lat="14.461912600079609" lon="121.025727686209"><ele>27.0</ele><time>2026-04-19T10:22:42Z</time></trkpt><trkpt lat="14.461962631244056" lon="121.0256201390966"><ele>26.8</ele><time>2026-04-19T10:22:43Z</time></trkpt><trkpt lat="14.462013428175723" lon="121.02551751687753"><ele>26.6</ele><time>2026-04-19T10:22:44Z</time></trkpt><trkpt lat="14.462062109535484" lon="121.02541684400741"><ele>26.400000000000002</ele><time>2026-04-19T10:22:45Z</time></trkpt><trkpt lat="14.462104067623931" lon="121.0253266375621"><ele>26.200000000000003</ele><time>2026-04-19T10:22:46Z</time></trkpt><trkpt lat="14.462140638492247" lon="121.02524442778913"><ele>26.0</ele><time>2026-04-19T10:22:47Z</time></trkpt><trkpt lat="14.462175484168473" lon="121.02517026347047"><ele>25.999999999999996</ele><time>2026-04-19T10:22:48Z</time></trkpt><trkpt lat="14.462207475608645" lon="121.02509909887895"><ele>26.0</ele><time>2026-04-19T10:22:49Z</time></trkpt><trkpt lat="14.462240029438544" lon="121.02502575873974"><ele>26.0</ele><time>2026-04-19T10:22:50Z</time></trkpt><trkpt lat="14.462276828617197" lon="121.02494760832332"><ele>26.0</ele><time>2026-04-19T10:22:51Z</time></trkpt><trkpt lat="14.462317903966783" lon="121.02486632377592"><ele>25.999999999999996</ele><time>2026-04-19T10:22:52Z</time></trkpt><trkpt lat="14.46235916841105" lon="121.02477954261332"><ele>26.0</ele><time>2026-04-19T10:22:53Z</time></trkpt><trkpt lat="14.462395710404552" lon="121.02469311476516"><ele>26.4</ele><time>2026-04-19T10:22:54Z</time></trkpt><trkpt lat="14.462440460543672" lon="121.02460275195409"><ele>26.8</ele><time>2026-04-19T10:22:55Z</time></trkpt><trkpt lat="14.462484598898797" lon="121.02450328476696"><ele>27.199999999999996</ele><time>2026-04-19T10:22:56Z</time></trkpt><trkpt lat="14.462533951876113" lon="121.0244086063753"><ele>27.599999999999998</ele><time>2026-04-19T10:22:57Z</time></trkpt><trkpt lat="14.462579725306012" lon="121.02431809448854"><ele>28.0</ele><time>2026-04-19T10:22:58Z</time></trkpt><trkpt lat="14.46262755405906" lon="121.02422591088981"><ele>27.799999999999997</ele><time>2026-04-19T10:22:59Z</time></trkpt><trkpt lat="14.462670100100686" lon="121.0241377471896"><ele>27.599999999999998</ele><time>2026-04-19T10:23:00Z</time></trkpt><trkpt lat="14.462714952921912" lon="121.02404929204862"><ele>27.400000000000002</ele><time>2026-04-19T10:23:01Z</time></trkpt><trkpt lat="14.462757565525095" lon="121.0239652662005"><ele>27.200000000000003</ele><time>2026-04-19T10:23:02Z</time></trkpt><trkpt lat="14.462798302860373" lon="121.02388473588758"><ele>27.0</ele><time>2026-04-19T10:23:03Z</time></trkpt><trkpt lat="14.462836941232075" lon="121.02380281790063"><ele>27.0</ele><time>2026-04-19T10:23:04Z</time></trkpt><trkpt lat="14.462873613527815" lon="121.02372366795956"><ele>27.0</ele><time>2026-04-19T10:23:05Z</time></trkpt><trkpt lat="14.462912558448965" lon="121.0236480379282"><ele>27.0</ele><time>2026-04-19T10:23:06Z</time></trkpt><trkpt lat="14.462947167807133" lon="121.02357046993394"><ele>27.0</ele><time>2026-04-19T10:23:07Z</time></trkpt><trkpt lat="14.462980698191732" lon="121.02349992228824"><ele>27.0</ele><time>2026-04-19T10:23:08Z</time></trkpt><trkpt lat="14.463012027475862" lon="121.02343335451879"><ele>27.0</ele><time>2026-04-19T10:23:09Z</time></trkpt><trkpt lat="14.463066063277726" lon="121.02332364964604"><ele>26.833333333333332</ele><time>2026-04-19T10:23:11Z</time></trkpt><trkpt lat="14.463107233798173" lon="121.02324457121921"><ele>26.666666666666664</ele><time>2026-04-19T10:23:13Z</time></trkpt><trkpt lat="14.463137047662968" lon="121.02316927249147"><ele>26.5</ele><time>2026-04-19T10:23:16Z</time></trkpt><trkpt lat="14.463184235335785" lon="121.02310820441788"><ele>26.333333333333332</ele><time>2026-04-19T10:23:18Z</time></trkpt><trkpt lat="14.463211466809845" lon="121.02300398066895"><ele>26.166666666666664</ele><time>2026-04-19T10:23:20Z</time></trkpt><trkpt lat="14.46324100633886" lon="121.02294323116945"><ele>26.0</ele><time>2026-04-19T10:23:21Z</time></trkpt><trkpt lat="14.46327883662375" lon="121.02287230587358"><ele>26.0</ele><time>2026-04-19T10:23:22Z</time></trkpt><trkpt lat="14.463315562922192" lon="121.02279603575133"><ele>26.0</ele><time>2026-04-19T10:23:23Z</time></trkpt><trkpt lat="14.463354435882875" lon="121.02271614148695"><ele>26.0</ele><time>2026-04-19T10:23:24Z</time></trkpt><trkpt lat="14.463395629958677" lon="121.02263432463513"><ele>26.0</ele><time>2026-04-19T10:23:25Z</time></trkpt><trkpt lat="14.463438601004503" lon="121.0225498140138"><ele>26.0</ele><time>2026-04-19T10:23:26Z</time></trkpt><trkpt lat="14.463489436031425" lon="121.02245482765062"><ele>25.8</ele><time>2026-04-19T10:23:27Z</time></trkpt><trkpt lat="14.46352812668816" lon="121.02235145956406"><ele>25.6</ele><time>2026-04-19T10:23:28Z</time></trkpt><trkpt lat="14.463575866796239" lon="121.02224315292094"><ele>25.4</ele><time>2026-04-19T10:23:29Z</time></trkpt><trkpt lat="14.463621769904673" lon="121.02214588617484"><ele>25.2</ele><time>2026-04-19T10:23:30Z</time></trkpt><trkpt lat="14.463668494182478" lon="121.0220494066837"><ele>25.0</ele><time>2026-04-19T10:23:31Z</time></trkpt><trkpt lat="14.463732086000007" lon="121.02195931667913"><ele>25.0</ele><time>2026-04-19T10:23:32Z</time></trkpt><trkpt lat="14.463781992846725" lon="121.02185942404301"><ele>25.0</ele><time>2026-04-19T10:23:33Z</time></trkpt><trkpt lat="14.463832293573782" lon="121.02176153900855"><ele>25.0</ele><time>2026-04-19T10:23:34Z</time></trkpt><trkpt lat="14.46388170171557" lon="121.02166488361101"><ele>25.0</ele><time>2026-04-19T10:23:35Z</time></trkpt><trkpt lat="14.463930283822824" lon="121.02157260338178"><ele>25.0</ele><time>2026-04-19T10:23:36Z</time></trkpt><trkpt lat="14.463978876782155" lon="121.02147874459234"><ele>25.0</ele><time>2026-04-19T10:23:37Z</time></trkpt><trkpt lat="14.464028375823332" lon="121.0213927334172"><ele>25.0</ele><time>2026-04-19T10:23:38Z</time></trkpt><trkpt lat="14.464074587889096" lon="121.02130303322048"><ele>25.0</ele><time>2026-04-19T10:23:39Z</time></trkpt><trkpt lat="14.464118786224681" lon="121.02121092683188"><ele>25.0</ele><time>2026-04-19T10:23:40Z</time></trkpt><trkpt lat="14.46416489888989" lon="121.0211225698206"><ele>25.0</ele><time>2026-04-19T10:23:41Z</time></trkpt><trkpt lat="14.464207698001472" lon="121.02104514446468"><ele>25.000000000000004</ele><time>2026-04-19T10:23:42Z</time></trkpt><trkpt lat="14.464239141272891" lon="121.02097479601632"><ele>25.0</ele><time>2026-04-19T10:23:43Z</time></trkpt><trkpt lat="14.464268870667452" lon="121.02091285366927"><ele>25.0</ele><time>2026-04-19T10:23:44Z</time></trkpt><trkpt lat="14.464313084221114" lon="121.0208112554461"><ele>25.0</ele><time>2026-04-19T10:23:46Z</time></trkpt><trkpt lat="14.464352917573217" lon="121.0207375382263"><ele>25.000000000000004</ele><time>2026-04-19T10:23:48Z</time></trkpt><trkpt lat="14.46438908445665" lon="121.02067682686761"><ele>25.0</ele><time>2026-04-19T10:23:51Z</time></trkpt><trkpt lat="14.464415269810512" lon="121.02061767645796"><ele>24.714285714285715</ele><time>2026-04-19T10:23:54Z</time></trkpt><trkpt lat="14.46444707856822" lon="121.02055534291952"><ele>24.42857142857143</ele><time>2026-04-19T10:24:25Z</time></trkpt><trkpt lat="14.464480077760223" lon="121.02048743347365"><ele>24.142857142857146</ele><time>2026-04-19T10:24:28Z</time></trkpt><trkpt lat="14.46450735576278" lon="121.02042528305815"><ele>23.857142857142858</ele><time>2026-04-19T10:24:30Z</time></trkpt><trkpt lat="14.46453592586794" lon="121.02035738119125"><ele>23.57142857142857</ele><time>2026-04-19T10:24:32Z</time></trkpt><trkpt lat="14.464565204603955" lon="121.02029091951195"><ele>23.28571428571429</ele><time>2026-04-19T10:24:34Z</time></trkpt><trkpt lat="14.46459378622535" lon="121.02022612713135"><ele>23.0</ele><time>2026-04-19T10:24:36Z</time></trkpt><trkpt lat="14.464632806861967" lon="121.02014702819126"><ele>23.0</ele><time>2026-04-19T10:24:39Z</time></trkpt><trkpt lat="14.464669183657136" lon="121.02008469393955"><ele>23.0</ele><time>2026-04-19T10:24:41Z</time></trkpt><trkpt lat="14.464708356179836" lon="121.02000001021085"><ele>23.0</ele><time>2026-04-19T10:24:43Z</time></trkpt><trkpt lat="14.46475286185703" lon="121.01990664932865"><ele>23.0</ele><time>2026-04-19T10:24:45Z</time></trkpt><trkpt lat="14.464797029106263" lon="121.0198120347951"><ele>23.0</ele><time>2026-04-19T10:24:47Z</time></trkpt><trkpt lat="14.46484705556188" lon="121.01971724841005"><ele>23.0</ele><time>2026-04-19T10:24:49Z</time></trkpt><trkpt lat="14.464896878119857" lon="121.01961413385176"><ele>23.0</ele><time>2026-04-19T10:24:51Z</time></trkpt><trkpt lat="14.46495294227977" lon="121.01950437412593"><ele>23.0</ele><time>2026-04-19T10:24:53Z</time></trkpt><trkpt lat="14.465007981635702" lon="121.01939637877412"><ele>23.0</ele><time>2026-04-19T10:24:55Z</time></trkpt><trkpt lat="14.465059849456935" lon="121.01929058872102"><ele>23.0</ele><time>2026-04-19T10:24:57Z</time></trkpt><trkpt lat="14.46511141680783" lon="121.01918630392561"><ele>23.0</ele><time>2026-04-19T10:24:59Z</time></trkpt><trkpt lat="14.465148169852593" lon="121.01912315499321"><ele>23.0</ele><time>2026-04-19T10:25:00Z</time></trkpt><trkpt lat="14.465185794401417" lon="121.01905501691152"><ele>23.0</ele><time>2026-04-19T10:25:01Z</time></trkpt><trkpt lat="14.46522389090802" lon="121.01898023630268"><ele>23.0</ele><time>2026-04-19T10:25:02Z</time></trkpt><trkpt lat="14.465262604014413" lon="121.01889932039295"><ele>23.0</ele><time>2026-04-19T10:25:03Z</time></trkpt><trkpt lat="14.46530153432496" lon="121.0188192732666"><ele>22.833333333333336</ele><time>2026-04-19T10:25:04Z</time></trkpt><trkpt lat="14.465336055586825" lon="121.01874572286881"><ele>22.666666666666668</ele><time>2026-04-19T10:25:05Z</time></trkpt><trkpt lat="14.46536644405418" lon="121.01867817341399"><ele>22.5</ele><time>2026-04-19T10:25:06Z</time></trkpt><trkpt lat="14.465390342420784" lon="121.01861730551225"><ele>22.333333333333332</ele><time>2026-04-19T10:25:07Z</time></trkpt><trkpt lat="14.465442135211074" lon="121.01850173643184"><ele>22.166666666666664</ele><time>2026-04-19T10:25:09Z</time></trkpt><trkpt lat="14.46548555685068" lon="121.01839953044768"><ele>22.0</ele><time>2026-04-19T10:25:11Z</time></trkpt><trkpt lat="14.46552605600412" lon="121.01831319632979"><ele>21.666666666666664</ele><time>2026-04-19T10:25:13Z</time></trkpt><trkpt lat="14.465564280053874" lon="121.01822606341317"><ele>21.333333333333332</ele><time>2026-04-19T10:25:15Z</time></trkpt><trkpt lat="14.465604349478534" lon="121.01813785990188"><ele>21.0</ele><time>2026-04-19T10:25:17Z</time></trkpt><trkpt lat="14.465641563111113" lon="121.01805237885611"><ele>20.666666666666668</ele><time>2026-04-19T10:25:19Z</time></trkpt><trkpt lat="14.465670199386699" lon="121.01799419644804"><ele>20.333333333333336</ele><time>2026-04-19T10:25:21Z</time></trkpt><trkpt lat="14.465705232935042" lon="121.01792596115291"><ele>20.0</ele><time>2026-04-19T10:25:24Z</time></trkpt><trkpt lat="14.465740037038138" lon="121.01785257962342"><ele>20.0</ele><time>2026-04-19T10:25:28Z</time></trkpt><trkpt lat="14.465768183603476" lon="121.01778792392096"><ele>20.0</ele><time>2026-04-19T10:25:32Z</time></trkpt><trkpt lat="14.465792554636899" lon="121.01772271057742"><ele>20.0</ele><time>2026-04-19T10:25:39Z</time></trkpt><trkpt lat="14.465827119895062" lon="121.0176497466031"><ele>20.0</ele><time>2026-04-19T10:25:44Z</time></trkpt><trkpt lat="14.46586802894482" lon="121.01755716277759"><ele>20.0</ele><time>2026-04-19T10:25:46Z</time></trkpt><trkpt lat="14.465895501263223" lon="121.0174963316512"><ele>20.0</ele><time>2026-04-19T10:25:47Z</time></trkpt><trkpt lat="14.465927750710648" lon="121.01742846413683"><ele>20.333333333333336</ele><time>2026-04-19T10:25:48Z</time></trkpt><trkpt lat="14.465963837762551" lon="121.0173551825341"><ele>20.666666666666668</ele><time>2026-04-19T10:25:49Z</time></trkpt><trkpt lat="14.466000864101833" lon="121.01727838214128"><ele>21.0</ele><time>2026-04-19T10:25:50Z</time></trkpt><trkpt lat="14.46603818787537" lon="121.01719723493619"><ele>21.333333333333332</ele><time>2026-04-19T10:25:51Z</time></trkpt><trkpt lat="14.466077322647607" lon="121.01711414130456"><ele>21.666666666666664</ele><time>2026-04-19T10:25:52Z</time></trkpt><trkpt lat="14.466117802848713" lon="121.01702556145098"><ele>22.0</ele><time>2026-04-19T10:25:53Z</time></trkpt><trkpt lat="14.466162015831635" lon="121.0169337918386"><ele>22.0</ele><time>2026-04-19T10:25:54Z</time></trkpt><trkpt lat="14.466206277211963" lon="121.01684285758603"><ele>22.0</ele><time>2026-04-19T10:25:55Z</time></trkpt><trkpt lat="14.466250869223225" lon="121.01675028487705"><ele>22.0</ele><time>2026-04-19T10:25:56Z</time></trkpt><trkpt lat="14.466294568212021" lon="121.01665942180786"><ele>22.0</ele><time>2026-04-19T10:25:57Z</time></trkpt><trkpt lat="14.466334324756739" lon="121.01657709049009"><ele>22.0</ele><time>2026-04-19T10:25:58Z</time></trkpt><trkpt lat="14.466370447114885" lon="121.01650663072917"><ele>21.6</ele><time>2026-04-19T10:25:59Z</time></trkpt><trkpt lat="14.46640151901809" lon="121.01644570793167"><ele>21.200000000000003</ele><time>2026-04-19T10:26:00Z</time></trkpt><trkpt lat="14.46645650534376" lon="121.0163435114115"><ele>20.8</ele><time>2026-04-19T10:26:02Z</time></trkpt><trkpt lat="14.466504666074933" lon="121.01624503416558"><ele>20.4</ele><time>2026-04-19T10:26:04Z</time></trkpt><trkpt lat="14.466552750346036" lon="121.01614395240793"><ele>20.0</ele><time>2026-04-19T10:26:06Z</time></trkpt><trkpt lat="14.466580628896823" lon="121.01608261648352"><ele>20.0</ele><time>2026-04-19T10:26:07Z</time></trkpt><trkpt lat="14.466613142099481" lon="121.01601672980667"><ele>20.0</ele><time>2026-04-19T10:26:08Z</time></trkpt><trkpt lat="14.466646368572391" lon="121.01594982872614"><ele>20.0</ele><time>2026-04-19T10:26:09Z</time></trkpt><trkpt lat="14.466676458269687" lon="121.01588340656181"><ele>20.0</ele><time>2026-04-19T10:26:10Z</time></trkpt><trkpt lat="14.466708598704587" lon="121.01581688316172"><ele>20.0</ele><time>2026-04-19T10:26:11Z</time></trkpt><trkpt lat="14.466735316590706" lon="121.01575494923813"><ele>20.0</ele><time>2026-04-19T10:26:12Z</time></trkpt><trkpt lat="14.466778731220492" lon="121.01565459971688"><ele>20.0</ele><time>2026-04-19T10:26:14Z</time></trkpt><trkpt lat="14.466812935386008" lon="121.01556895167097"><ele>20.0</ele><time>2026-04-19T10:26:16Z</time></trkpt><trkpt lat="14.46684725486971" lon="121.01548926985885"><ele>20.0</ele><time>2026-04-19T10:26:18Z</time></trkpt><trkpt lat="14.466895565306118" lon="121.01541231445024"><ele>20.0</ele><time>2026-04-19T10:26:20Z</time></trkpt><trkpt lat="14.46693653947304" lon="121.01534982040056"><ele>20.0</ele><time>2026-04-19T10:26:21Z</time></trkpt><trkpt lat="14.46697308028614" lon="121.01528271051528"><ele>20.0</ele><time>2026-04-19T10:26:22Z</time></trkpt><trkpt lat="14.467007271660814" lon="121.0152153789725"><ele>20.0</ele><time>2026-04-19T10:26:23Z</time></trkpt><trkpt lat="14.467061271932833" lon="121.0151244388827"><ele>20.0</ele><time>2026-04-19T10:26:25Z</time></trkpt><trkpt lat="14.46710332879794" lon="121.01506833466144"><ele>20.0</ele><time>2026-04-19T10:26:27Z</time></trkpt><trkpt lat="14.467144083692519" lon="121.01498003254255"><ele>20.0</ele><time>2026-04-19T10:26:30Z</time></trkpt><trkpt lat="14.467176825402584" lon="121.01490971263692"><ele>20.0</ele><time>2026-04-19T10:26:32Z</time></trkpt><trkpt lat="14.467207890382117" lon="121.01484064811622"><ele>20.0</ele><time>2026-04-19T10:26:34Z</time></trkpt><trkpt lat="14.467236521800846" lon="121.01477522376943"><ele>20.0</ele><time>2026-04-19T10:26:36Z</time></trkpt><trkpt lat="14.467262989866693" lon="121.01471428958695"><ele>20.0</ele><time>2026-04-19T10:26:39Z</time></trkpt><trkpt lat="14.46729186326336" lon="121.01462539018526"><ele>20.0</ele><time>2026-04-19T10:26:42Z</time></trkpt><trkpt lat="14.467324159963638" lon="121.01454425843488"><ele>20.0</ele><time>2026-04-19T10:26:44Z</time></trkpt><trkpt lat="14.467363495385259" lon="121.0144535324932"><ele>20.0</ele><time>2026-04-19T10:26:46Z</time></trkpt><trkpt lat="14.467412287361057" lon="121.01434989884862"><ele>20.0</ele><time>2026-04-19T10:26:48Z</time></trkpt><trkpt lat="14.467463784446617" lon="121.0142439284087"><ele>19.6</ele><time>2026-04-19T10:26:50Z</time></trkpt><trkpt lat="14.467517437136864" lon="121.01414153143213"><ele>19.2</ele><time>2026-04-19T10:26:52Z</time></trkpt><trkpt lat="14.467567532434524" lon="121.01404002719657"><ele>18.8</ele><time>2026-04-19T10:26:54Z</time></trkpt><trkpt lat="14.46760689564949" lon="121.0139477383653"><ele>18.4</ele><time>2026-04-19T10:26:56Z</time></trkpt><trkpt lat="14.467652557846055" lon="121.0138501586175"><ele>18.0</ele><time>2026-04-19T10:26:58Z</time></trkpt><trkpt lat="14.467715669625065" lon="121.01373598909973"><ele>18.0</ele><time>2026-04-19T10:27:00Z</time></trkpt><trkpt lat="14.467759885240378" lon="121.01367732099932"><ele>18.0</ele><time>2026-04-19T10:27:01Z</time></trkpt><trkpt lat="14.467803854299861" lon="121.01361143396609"><ele>18.0</ele><time>2026-04-19T10:27:02Z</time></trkpt><trkpt lat="14.467849108891215" lon="121.01353337547894"><ele>18.0</ele><time>2026-04-19T10:27:03Z</time></trkpt><trkpt lat="14.46789438181514" lon="121.01345047575361"><ele>18.0</ele><time>2026-04-19T10:27:04Z</time></trkpt><trkpt lat="14.467936711648782" lon="121.01337193442511"><ele>18.0</ele><time>2026-04-19T10:27:05Z</time></trkpt><trkpt lat="14.467975355961013" lon="121.01328954580406"><ele>18.0</ele><time>2026-04-19T10:27:06Z</time></trkpt><trkpt lat="14.4680120565925" lon="121.01321362215323"><ele>18.0</ele><time>2026-04-19T10:27:07Z</time></trkpt><trkpt lat="14.468045582166566" lon="121.01314566979795"><ele>18.0</ele><time>2026-04-19T10:27:08Z</time></trkpt><trkpt lat="14.468076877196559" lon="121.01308333936021"><ele>18.0</ele><time>2026-04-19T10:27:09Z</time></trkpt><trkpt lat="14.468125924345536" lon="121.0129799579202"><ele>18.0</ele><time>2026-04-19T10:27:11Z</time></trkpt><trkpt lat="14.468173730371005" lon="121.01288826128038"><ele>18.0</ele><time>2026-04-19T10:27:13Z</time></trkpt><trkpt lat="14.46821748839" lon="121.01279926554481"><ele>18.0</ele><time>2026-04-19T10:27:15Z</time></trkpt><trkpt lat="14.468256360036563" lon="121.01271557667206"><ele>18.0</ele><time>2026-04-19T10:27:17Z</time></trkpt><trkpt lat="14.468296777627502" lon="121.01263402514248"><ele>18.0</ele><time>2026-04-19T10:27:19Z</time></trkpt><trkpt lat="14.46833859263744" lon="121.0125561532572"><ele>18.0</ele><time>2026-04-19T10:27:21Z</time></trkpt><trkpt lat="14.468383530706262" lon="121.01247823620693"><ele>18.0</ele><time>2026-04-19T10:27:23Z</time></trkpt><trkpt lat="14.468424749538093" lon="121.01240040226371"><ele>18.0</ele><time>2026-04-19T10:27:25Z</time></trkpt><trkpt lat="14.468471724722185" lon="121.0123182662872"><ele>17.6</ele><time>2026-04-19T10:27:27Z</time></trkpt><trkpt lat="14.468522638286206" lon="121.0122327127233"><ele>17.200000000000003</ele><time>2026-04-19T10:27:29Z</time></trkpt><trkpt lat="14.468572809170707" lon="121.01215067517086"><ele>16.8</ele><time>2026-04-19T10:27:31Z</time></trkpt><trkpt lat="14.46861270085956" lon="121.01208179657363"><ele>16.400000000000002</ele><time>2026-04-19T10:27:33Z</time></trkpt><trkpt lat="14.468658934814998" lon="121.01199609376576"><ele>16.0</ele><time>2026-04-19T10:27:35Z</time></trkpt><trkpt lat="14.468705917211569" lon="121.01190091657706"><ele>16.0</ele><time>2026-04-19T10:27:37Z</time></trkpt><trkpt lat="14.468751324131654" lon="121.01177286068918"><ele>16.0</ele><time>2026-04-19T10:27:39Z</time></trkpt><trkpt lat="14.468786002842448" lon="121.01170106040838"><ele>16.0</ele><time>2026-04-19T10:27:40Z</time></trkpt><trkpt lat="14.468823968048358" lon="121.01162615995284"><ele>16.0</ele><time>2026-04-19T10:27:41Z</time></trkpt><trkpt lat="14.468867097778922" lon="121.01155047001747"><ele>16.0</ele><time>2026-04-19T10:27:42Z</time></trkpt><trkpt lat="14.4689130313576" lon="121.01147051447464"><ele>15.600000000000001</ele><time>2026-04-19T10:27:43Z</time></trkpt><trkpt lat="14.46896270787631" lon="121.01138247707796"><ele>15.200000000000001</ele><time>2026-04-19T10:27:44Z</time></trkpt><trkpt lat="14.469016948301226" lon="121.01129124303104"><ele>14.799999999999999</ele><time>2026-04-19T10:27:45Z</time></trkpt><trkpt lat="14.469072451020711" lon="121.01120027707616"><ele>14.399999999999999</ele><time>2026-04-19T10:27:46Z</time></trkpt><trkpt lat="14.469125504370501" lon="121.01111297156879"><ele>14.0</ele><time>2026-04-19T10:27:47Z</time></trkpt><trkpt lat="14.469177819035732" lon="121.0110272343487"><ele>14.000000000000002</ele><time>2026-04-19T10:27:48Z</time></trkpt><trkpt lat="14.469227230703147" lon="121.01094563095347"><ele>14.0</ele><time>2026-04-19T10:27:49Z</time></trkpt><trkpt lat="14.469275751180312" lon="121.01086570848193"><ele>14.0</ele><time>2026-04-19T10:27:50Z</time></trkpt><trkpt lat="14.469323451716601" lon="121.01078543233392"><ele>14.0</ele><time>2026-04-19T10:27:51Z</time></trkpt><trkpt lat="14.469369084382903" lon="121.01070997288467"><ele>14.000000000000002</ele><time>2026-04-19T10:27:52Z</time></trkpt><trkpt lat="14.46940796921827" lon="121.0106453043155"><ele>14.0</ele><time>2026-04-19T10:27:53Z</time></trkpt><trkpt lat="14.469440264314605" lon="121.01058751133901"><ele>14.0</ele><time>2026-04-19T10:27:54Z</time></trkpt><trkpt lat="14.46950146383851" lon="121.01049573503165"><ele>13.999999999999998</ele><time>2026-04-19T10:27:56Z</time></trkpt><trkpt lat="14.469561039216826" lon="121.01040113506903"><ele>13.999999999999998</ele><time>2026-04-19T10:27:58Z</time></trkpt><trkpt lat="14.46963167240487" lon="121.0102914094664"><ele>14.0</ele><time>2026-04-19T10:28:00Z</time></trkpt><trkpt lat="14.469668922103306" lon="121.01022789282753"><ele>14.0</ele><time>2026-04-19T10:28:01Z</time></trkpt><trkpt lat="14.469707687345025" lon="121.01016077579392"><ele>14.0</ele><time>2026-04-19T10:28:02Z</time></trkpt><trkpt lat="14.469753006343238" lon="121.01009002416761"><ele>13.999999999999998</ele><time>2026-04-19T10:28:03Z</time></trkpt><trkpt lat="14.46980031754609" lon="121.01001409546555"><ele>13.999999999999998</ele><time>2026-04-19T10:28:04Z</time></trkpt><trkpt lat="14.469849448464053" lon="121.00993330820295"><ele>14.0</ele><time>2026-04-19T10:28:05Z</time></trkpt><trkpt lat="14.469901209258024" lon="121.00984945675232"><ele>14.0</ele><time>2026-04-19T10:28:06Z</time></trkpt><trkpt lat="14.469952417589045" lon="121.0097643381161"><ele>13.799999999999999</ele><time>2026-04-19T10:28:07Z</time></trkpt><trkpt lat="14.47000593401736" lon="121.00967751883495"><ele>13.599999999999998</ele><time>2026-04-19T10:28:08Z</time></trkpt><trkpt lat="14.470059571011536" lon="121.00959007576257"><ele>13.4</ele><time>2026-04-19T10:28:09Z</time></trkpt><trkpt lat="14.470113437104633" lon="121.00950003526282"><ele>13.2</ele><time>2026-04-19T10:28:10Z</time></trkpt><trkpt lat="14.470168058496027" lon="121.0094090354125"><ele>13.0</ele><time>2026-04-19T10:28:11Z</time></trkpt><trkpt lat="14.470222780389733" lon="121.00931685795531"><ele>13.0</ele><time>2026-04-19T10:28:12Z</time></trkpt><trkpt lat="14.470279100536999" lon="121.00922217717688"><ele>13.0</ele><time>2026-04-19T10:28:13Z</time></trkpt><trkpt lat="14.470336792266835" lon="121.00912668878665"><ele>13.0</ele><time>2026-04-19T10:28:14Z</time></trkpt><trkpt lat="14.47039616313064" lon="121.00902916049341"><ele>13.0</ele><time>2026-04-19T10:28:15Z</time></trkpt><trkpt lat="14.470457802357519" lon="121.0089325968981"><ele>13.0</ele><time>2026-04-19T10:28:16Z</time></trkpt><trkpt lat="14.470515815888426" lon="121.00883588609828"><ele>13.600000000000001</ele><time>2026-04-19T10:28:17Z</time></trkpt><trkpt lat="14.470574726620189" lon="121.0087425220527"><ele>14.200000000000001</ele><time>2026-04-19T10:28:18Z</time></trkpt><trkpt lat="14.470630306925766" lon="121.00865014924427"><ele>14.8</ele><time>2026-04-19T10:28:19Z</time></trkpt><trkpt lat="14.470685362644875" lon="121.0085594269815"><ele>15.4</ele><time>2026-04-19T10:28:20Z</time></trkpt><trkpt lat="14.470741178375876" lon="121.00847277276209"><ele>16.0</ele><time>2026-04-19T10:28:21Z</time></trkpt><trkpt lat="14.47079032884996" lon="121.00839108666648"><ele>15.499999999999998</ele><time>2026-04-19T10:28:22Z</time></trkpt><trkpt lat="14.470837646720584" lon="121.00831574976293"><ele>15.0</ele><time>2026-04-19T10:28:23Z</time></trkpt><trkpt lat="14.470879036539598" lon="121.00824629847655"><ele>14.5</ele><time>2026-04-19T10:28:24Z</time></trkpt><trkpt lat="14.470914380644386" lon="121.00818613680808"><ele>14.0</ele><time>2026-04-19T10:28:25Z</time></trkpt><trkpt lat="14.470964289387995" lon="121.00810037398756"><ele>13.499999999999998</ele><time>2026-04-19T10:28:27Z</time></trkpt><trkpt lat="14.471006875391836" lon="121.00803887284997"><ele>13.0</ele><time>2026-04-19T10:28:30Z</time></trkpt><trkpt lat="14.471047798702719" lon="121.00797445377148"><ele>12.999999999999998</ele><time>2026-04-19T10:28:43Z</time></trkpt><trkpt lat="14.471102071319791" lon="121.0079241933956"><ele>13.0</ele><time>2026-04-19T10:28:48Z</time></trkpt><trkpt lat="14.471135095568881" lon="121.00786573417355"><ele>13.0</ele><time>2026-04-19T10:28:50Z</time></trkpt><trkpt lat="14.471187877861901" lon="121.00776951922717"><ele>13.0</ele><time>2026-04-19T10:28:52Z</time></trkpt><trkpt lat="14.471222016447093" lon="121.00771062697571"><ele>12.999999999999998</ele><time>2026-04-19T10:28:53Z</time></trkpt><trkpt lat="14.471263857861274" lon="121.00764713582878"><ele>13.0</ele><time>2026-04-19T10:28:54Z</time></trkpt><trkpt lat="14.471303895975964" lon="121.00756650006312"><ele>12.8</ele><time>2026-04-19T10:28:55Z</time></trkpt><trkpt lat="14.471348221746698" lon="121.0074822623447"><ele>12.600000000000001</ele><time>2026-04-19T10:28:56Z</time></trkpt><trkpt lat="14.471397770669899" lon="121.0073969741894"><ele>12.399999999999999</ele><time>2026-04-19T10:28:57Z</time></trkpt><trkpt lat="14.471445798274413" lon="121.00730536667784"><ele>12.2</ele><time>2026-04-19T10:28:58Z</time></trkpt><trkpt lat="14.471502721159606" lon="121.0072087830917"><ele>12.0</ele><time>2026-04-19T10:28:59Z</time></trkpt><trkpt lat="14.471559584987865" lon="121.00710744561914"><ele>12.0</ele><time>2026-04-19T10:29:00Z</time></trkpt><trkpt lat="14.47162116237537" lon="121.00700635806496"><ele>12.0</ele><time>2026-04-19T10:29:01Z</time></trkpt><trkpt lat="14.471684363165632" lon="121.00690191979923"><ele>12.0</ele><time>2026-04-19T10:29:02Z</time></trkpt><trkpt lat="14.471751029761124" lon="121.00679834363682"><ele>12.0</ele><time>2026-04-19T10:29:03Z</time></trkpt><trkpt lat="14.471816751336478" lon="121.00669724507061"><ele>12.0</ele><time>2026-04-19T10:29:04Z</time></trkpt><trkpt lat="14.471881743558917" lon="121.00659640092375"><ele>12.0</ele><time>2026-04-19T10:29:05Z</time></trkpt><trkpt lat="14.471943072670358" lon="121.00649654991024"><ele>12.0</ele><time>2026-04-19T10:29:06Z</time></trkpt><trkpt lat="14.47200229685023" lon="121.00639760245306"><ele>12.0</ele><time>2026-04-19T10:29:07Z</time></trkpt><trkpt lat="14.472060487861482" lon="121.00630126283349"><ele>12.2</ele><time>2026-04-19T10:29:08Z</time></trkpt><trkpt lat="14.472116936514706" lon="121.0062066904351"><ele>12.399999999999999</ele><time>2026-04-19T10:29:09Z</time></trkpt><trkpt lat="14.472173513179959" lon="121.00611062213778"><ele>12.600000000000001</ele><time>2026-04-19T10:29:10Z</time></trkpt><trkpt lat="14.472231633536657" lon="121.00601460542056"><ele>12.8</ele><time>2026-04-19T10:29:11Z</time></trkpt><trkpt lat="14.472290163972453" lon="121.00591803061492"><ele>13.0</ele><time>2026-04-19T10:29:12Z</time></trkpt><trkpt lat="14.472343396025465" lon="121.00581783903404"><ele>13.0</ele><time>2026-04-19T10:29:13Z</time></trkpt><trkpt lat="14.472396459570678" lon="121.00572348955231"><ele>13.0</ele><time>2026-04-19T10:29:14Z</time></trkpt><trkpt lat="14.472453053643516" lon="121.00562952013358"><ele>13.0</ele><time>2026-04-19T10:29:15Z</time></trkpt><trkpt lat="14.472507753837816" lon="121.00553531658619"><ele>13.0</ele><time>2026-04-19T10:29:16Z</time></trkpt><trkpt lat="14.47256516721762" lon="121.0054432680417"><ele>13.0</ele><time>2026-04-19T10:29:17Z</time></trkpt><trkpt lat="14.472622747403522" lon="121.00535228034938"><ele>13.0</ele><time>2026-04-19T10:29:18Z</time></trkpt><trkpt lat="14.472679375356797" lon="121.00525972696698"><ele>13.0</ele><time>2026-04-19T10:29:19Z</time></trkpt><trkpt lat="14.472737366951668" lon="121.00516606063802"><ele>13.0</ele><time>2026-04-19T10:29:20Z</time></trkpt><trkpt lat="14.47279510777324" lon="121.00507089296717"><ele>13.0</ele><time>2026-04-19T10:29:21Z</time></trkpt><trkpt lat="14.472853219870384" lon="121.0049770685081"><ele>13.0</ele><time>2026-04-19T10:29:22Z</time></trkpt><trkpt lat="14.47291045580898" lon="121.00488178869236"><ele>12.8</ele><time>2026-04-19T10:29:23Z</time></trkpt><trkpt lat="14.47296902221673" lon="121.0047868496046"><ele>12.600000000000001</ele><time>2026-04-19T10:29:24Z</time></trkpt><trkpt lat="14.473024845383595" lon="121.00469070923432"><ele>12.399999999999999</ele><time>2026-04-19T10:29:25Z</time></trkpt><trkpt lat="14.473081008389531" lon="121.00459798691908"><ele>12.2</ele><time>2026-04-19T10:29:26Z</time></trkpt><trkpt lat="14.473138053727585" lon="121.00450693678731"><ele>12.0</ele><time>2026-04-19T10:29:27Z</time></trkpt><trkpt lat="14.473192161264478" lon="121.00441702292726"><ele>12.0</ele><time>2026-04-19T10:29:28Z</time></trkpt><trkpt lat="14.473244088355242" lon="121.00432660981694"><ele>12.0</ele><time>2026-04-19T10:29:29Z</time></trkpt><trkpt lat="14.47329578876788" lon="121.00423847013957"><ele>12.0</ele><time>2026-04-19T10:29:30Z</time></trkpt><trkpt lat="14.473345375605481" lon="121.00415035801919"><ele>12.0</ele><time>2026-04-19T10:29:31Z</time></trkpt><trkpt lat="14.473397875054767" lon="121.00406431323525"><ele>12.0</ele><time>2026-04-19T10:29:32Z</time></trkpt><trkpt lat="14.473450197068342" lon="121.00398067326253"><ele>12.0</ele><time>2026-04-19T10:29:33Z</time></trkpt><trkpt lat="14.47349963520069" lon="121.0038991120364"><ele>12.0</ele><time>2026-04-19T10:29:34Z</time></trkpt><trkpt lat="14.473549574150157" lon="121.00381827005623"><ele>12.0</ele><time>2026-04-19T10:29:35Z</time></trkpt><trkpt lat="14.473598935356156" lon="121.00373696014363"><ele>12.0</ele><time>2026-04-19T10:29:36Z</time></trkpt><trkpt lat="14.473646918437918" lon="121.00365476990514"><ele>12.0</ele><time>2026-04-19T10:29:37Z</time></trkpt><trkpt lat="14.473696482347663" lon="121.00357202226995"><ele>12.0</ele><time>2026-04-19T10:29:38Z</time></trkpt><trkpt lat="14.47374744474259" lon="121.0034863822934"><ele>12.0</ele><time>2026-04-19T10:29:39Z</time></trkpt><trkpt lat="14.473800514297782" lon="121.00339841442712"><ele>12.0</ele><time>2026-04-19T10:29:40Z</time></trkpt><trkpt lat="14.473852954464807" lon="121.00330881940937"><ele>12.0</ele><time>2026-04-19T10:29:41Z</time></trkpt><trkpt lat="14.473908019120444" lon="121.00321800322054"><ele>12.0</ele><time>2026-04-19T10:29:42Z</time></trkpt><trkpt lat="14.473964180406892" lon="121.00312748346988"><ele>11.6</ele><time>2026-04-19T10:29:43Z</time></trkpt><trkpt lat="14.474019849626961" lon="121.00303680132039"><ele>11.2</ele><time>2026-04-19T10:29:44Z</time></trkpt><trkpt lat="14.47407652947099" lon="121.00294679404891"><ele>10.8</ele><time>2026-04-19T10:29:45Z</time></trkpt><trkpt lat="14.474133188682323" lon="121.00286159680762"><ele>10.4</ele><time>2026-04-19T10:29:46Z</time></trkpt><trkpt lat="14.474187402762613" lon="121.0027761161164"><ele>10.0</ele><time>2026-04-19T10:29:47Z</time></trkpt><trkpt lat="14.474240768444211" lon="121.00269126948105"><ele>10.0</ele><time>2026-04-19T10:29:48Z</time></trkpt><trkpt lat="14.474292837421844" lon="121.0026060004036"><ele>10.0</ele><time>2026-04-19T10:29:49Z</time></trkpt><trkpt lat="14.474341672658854" lon="121.00252339414854"><ele>10.0</ele><time>2026-04-19T10:29:50Z</time></trkpt><trkpt lat="14.474385974628905" lon="121.0024506958562"><ele>10.0</ele><time>2026-04-19T10:29:51Z</time></trkpt><trkpt lat="14.474424318034501" lon="121.00238714793971"><ele>10.0</ele><time>2026-04-19T10:29:52Z</time></trkpt><trkpt lat="14.47447236450174" lon="121.00229617328789"><ele>10.0</ele><time>2026-04-19T10:29:54Z</time></trkpt><trkpt lat="14.474509162787298" lon="121.00221432955924"><ele>10.0</ele><time>2026-04-19T10:29:56Z</time></trkpt><trkpt lat="14.474563238367198" lon="121.00211797165608"><ele>10.0</ele><time>2026-04-19T10:29:58Z</time></trkpt><trkpt lat="14.47463417339393" lon="121.00200906789824"><ele>10.0</ele><time>2026-04-19T10:30:00Z</time></trkpt><trkpt lat="14.474674016267718" lon="121.00195219822399"><ele>10.0</ele><time>2026-04-19T10:30:01Z</time></trkpt><trkpt lat="14.474712991500017" lon="121.00189931641734"><ele>10.0</ele><time>2026-04-19T10:30:02Z</time></trkpt><trkpt lat="14.474786159641816" lon="121.00179293404781"><ele>10.0</ele><time>2026-04-19T10:30:04Z</time></trkpt><trkpt lat="14.474860929357515" lon="121.00168618504577"><ele>10.0</ele><time>2026-04-19T10:30:06Z</time></trkpt><trkpt lat="14.474902127048876" lon="121.00162762540857"><ele>10.0</ele><time>2026-04-19T10:30:07Z</time></trkpt><trkpt lat="14.474940959704897" lon="121.0015687186065"><ele>10.0</ele><time>2026-04-19T10:30:08Z</time></trkpt><trkpt lat="14.474987944890033" lon="121.00151076281792"><ele>10.0</ele><time>2026-04-19T10:30:09Z</time></trkpt><trkpt lat="14.475034321884037" lon="121.00144854777142"><ele>10.0</ele><time>2026-04-19T10:30:10Z</time></trkpt><trkpt lat="14.475081864501586" lon="121.001382514102"><ele>10.2</ele><time>2026-04-19T10:30:11Z</time></trkpt><trkpt lat="14.475134317068397" lon="121.0013166399545"><ele>10.4</ele><time>2026-04-19T10:30:12Z</time></trkpt><trkpt lat="14.47518612709712" lon="121.00124555373655"><ele>10.600000000000001</ele><time>2026-04-19T10:30:13Z</time></trkpt><trkpt lat="14.475239278241613" lon="121.00116767567438"><ele>10.8</ele><time>2026-04-19T10:30:14Z</time></trkpt><trkpt lat="14.475297135737478" lon="121.00109040710501"><ele>11.0</ele><time>2026-04-19T10:30:15Z</time></trkpt><trkpt lat="14.475359509439924" lon="121.00101408515464"><ele>11.0</ele><time>2026-04-19T10:30:16Z</time></trkpt><trkpt lat="14.475422186052606" lon="121.00092937550241"><ele>11.0</ele><time>2026-04-19T10:30:17Z</time></trkpt><trkpt lat="14.475485879160468" lon="121.00085094029764"><ele>11.0</ele><time>2026-04-19T10:30:18Z</time></trkpt><trkpt lat="14.475555288213501" lon="121.00079118562076"><ele>11.0</ele><time>2026-04-19T10:30:19Z</time></trkpt><trkpt lat="14.475600671439233" lon="121.00071224315903"><ele>11.0</ele><time>2026-04-19T10:30:20Z</time></trkpt><trkpt lat="14.475662686734948" lon="121.00064301286878"><ele>10.600000000000001</ele><time>2026-04-19T10:30:21Z</time></trkpt><trkpt lat="14.47572871354404" lon="121.00057003630481"><ele>10.200000000000001</ele><time>2026-04-19T10:30:22Z</time></trkpt><trkpt lat="14.475799866190659" lon="121.00049799255667"><ele>9.8</ele><time>2026-04-19T10:30:23Z</time></trkpt><trkpt lat="14.475874505818275" lon="121.00042264459863"><ele>9.4</ele><time>2026-04-19T10:30:24Z</time></trkpt><trkpt lat="14.475953066599338" lon="121.00034687495769"><ele>9.0</ele><time>2026-04-19T10:30:25Z</time></trkpt><trkpt lat="14.476033975400984" lon="121.00026816453713"><ele>9.0</ele><time>2026-04-19T10:30:26Z</time></trkpt><trkpt lat="14.476118023638817" lon="121.0001912973273"><ele>9.0</ele><time>2026-04-19T10:30:27Z</time></trkpt><trkpt lat="14.476201862373042" lon="121.00011297899653"><ele>9.0</ele><time>2026-04-19T10:30:28Z</time></trkpt><trkpt lat="14.476287198798461" lon="121.00003617354174"><ele>9.0</ele><time>2026-04-19T10:30:29Z</time></trkpt><trkpt lat="14.47637341111052" lon="120.99995977931621"><ele>9.0</ele><time>2026-04-19T10:30:30Z</time></trkpt><trkpt lat="14.476456193061749" lon="120.99988708803497"><ele>9.0</ele><time>2026-04-19T10:30:31Z</time></trkpt><trkpt lat="14.476536222667743" lon="120.99981520416657"><ele>9.0</ele><time>2026-04-19T10:30:32Z</time></trkpt><trkpt lat="14.476614560728656" lon="120.99974572761884"><ele>9.0</ele><time>2026-04-19T10:30:33Z</time></trkpt><trkpt lat="14.47669353096785" lon="120.99967987547797"><ele>9.0</ele><time>2026-04-19T10:30:34Z</time></trkpt><trkpt lat="14.47677103524822" lon="120.99961517677909"><ele>9.0</ele><time>2026-04-19T10:30:35Z</time></trkpt><trkpt lat="14.476851463028353" lon="120.99955022671209"><ele>9.0</ele><time>2026-04-19T10:30:36Z</time></trkpt><trkpt lat="14.47693361213374" lon="120.99948504735282"><ele>9.0</ele><time>2026-04-19T10:30:37Z</time></trkpt><trkpt lat="14.477018542545991" lon="120.99941720778988"><ele>9.0</ele><time>2026-04-19T10:30:38Z</time></trkpt><trkpt lat="14.47710754368017" lon="120.99934780328961"><ele>9.0</ele><time>2026-04-19T10:30:39Z</time></trkpt><trkpt lat="14.477202274933319" lon="120.99927927182199"><ele>9.0</ele><time>2026-04-19T10:30:40Z</time></trkpt><trkpt lat="14.477298848317524" lon="120.99921128640429"><ele>9.0</ele><time>2026-04-19T10:30:41Z</time></trkpt><trkpt lat="14.477396165311017" lon="120.99914225855873"><ele>9.0</ele><time>2026-04-19T10:30:42Z</time></trkpt><trkpt lat="14.47748984960861" lon="120.99907567192895"><ele>9.0</ele><time>2026-04-19T10:30:43Z</time></trkpt><trkpt lat="14.47758666157356" lon="120.99901278567098"><ele>9.0</ele><time>2026-04-19T10:30:44Z</time></trkpt><trkpt lat="14.477684789132523" lon="120.99894979330244"><ele>9.0</ele><time>2026-04-19T10:30:45Z</time></trkpt><trkpt lat="14.477783657987974" lon="120.99888764210476"><ele>9.0</ele><time>2026-04-19T10:30:46Z</time></trkpt><trkpt lat="14.47788248165522" lon="120.99882553984658"><ele>9.0</ele><time>2026-04-19T10:30:47Z</time></trkpt><trkpt lat="14.477982859911059" lon="120.99876051395648"><ele>9.0</ele><time>2026-04-19T10:30:48Z</time></trkpt><trkpt lat="14.47808091277673" lon="120.9986951251868"><ele>9.0</ele><time>2026-04-19T10:30:49Z</time></trkpt><trkpt lat="14.478177894810234" lon="120.99863056203033"><ele>9.0</ele><time>2026-04-19T10:30:50Z</time></trkpt><trkpt lat="14.478276660699567" lon="120.9985671516894"><ele>9.0</ele><time>2026-04-19T10:30:51Z</time></trkpt><trkpt lat="14.478377475876684" lon="120.99850480088428"><ele>9.0</ele><time>2026-04-19T10:30:52Z</time></trkpt><trkpt lat="14.478474785578774" lon="120.99844493416042"><ele>9.0</ele><time>2026-04-19T10:30:53Z</time></trkpt><trkpt lat="14.478568577425957" lon="120.99838740514458"><ele>9.0</ele><time>2026-04-19T10:30:54Z</time></trkpt><trkpt lat="14.478654714359424" lon="120.99833053810897"><ele>9.0</ele><time>2026-04-19T10:30:55Z</time></trkpt><trkpt lat="14.478738838389933" lon="120.99827676274066"><ele>9.0</ele><time>2026-04-19T10:30:56Z</time></trkpt><trkpt lat="14.47882078834594" lon="120.99822823716573"><ele>8.666666666666666</ele><time>2026-04-19T10:30:57Z</time></trkpt><trkpt lat="14.47889706481624" lon="120.99818203149792"><ele>8.333333333333334</ele><time>2026-04-19T10:30:58Z</time></trkpt><trkpt lat="14.478966601736197" lon="120.99814051473854"><ele>8.0</ele><time>2026-04-19T10:30:59Z</time></trkpt><trkpt lat="14.47903695667295" lon="120.99810394365328"><ele>7.666666666666667</ele><time>2026-04-19T10:31:00Z</time></trkpt><trkpt lat="14.479102673957241" lon="120.99806077175487"><ele>7.333333333333334</ele><time>2026-04-19T10:31:01Z</time></trkpt><trkpt lat="14.479159888680858" lon="120.99802173126093"><ele>7.0</ele><time>2026-04-19T10:31:02Z</time></trkpt><trkpt lat="14.47924302714341" lon="120.9979642866394"><ele>7.000000000000001</ele><time>2026-04-19T10:31:04Z</time></trkpt><trkpt lat="14.47931484590474" lon="120.99791646144116"><ele>7.0</ele><time>2026-04-19T10:31:06Z</time></trkpt><trkpt lat="14.479383815388829" lon="120.99786708326043"><ele>7.0</ele><time>2026-04-19T10:31:08Z</time></trkpt><trkpt lat="14.479450178045486" lon="120.99781591344484"><ele>7.0</ele><time>2026-04-19T10:31:10Z</time></trkpt><trkpt lat="14.479542591234287" lon="120.99775429113669"><ele>7.000000000000001</ele><time>2026-04-19T10:31:12Z</time></trkpt><trkpt lat="14.479602010460406" lon="120.99771432165471"><ele>7.0</ele><time>2026-04-19T10:31:13Z</time></trkpt><trkpt lat="14.479671192319937" lon="120.99766910842953"><ele>7.3999999999999995</ele><time>2026-04-19T10:31:14Z</time></trkpt><trkpt lat="14.479748415914246" lon="120.99761948182305"><ele>7.799999999999999</ele><time>2026-04-19T10:31:15Z</time></trkpt><trkpt lat="14.4798318602034" lon="120.99756691817329"><ele>8.2</ele><time>2026-04-19T10:31:16Z</time></trkpt><trkpt lat="14.479919751907195" lon="120.99751012560706"><ele>8.6</ele><time>2026-04-19T10:31:17Z</time></trkpt><trkpt lat="14.480005170870946" lon="120.99745547218873"><ele>9.0</ele><time>2026-04-19T10:31:18Z</time></trkpt><trkpt lat="14.480087963835897" lon="120.99740203914847"><ele>9.0</ele><time>2026-04-19T10:31:19Z</time></trkpt><trkpt lat="14.480171140758442" lon="120.99734659245016"><ele>9.0</ele><time>2026-04-19T10:31:20Z</time></trkpt><trkpt lat="14.480254242792515" lon="120.99729059650774"><ele>9.0</ele><time>2026-04-19T10:31:21Z</time></trkpt><trkpt lat="14.480336185001423" lon="120.99724004883201"><ele>9.0</ele><time>2026-04-19T10:31:22Z</time></trkpt><trkpt lat="14.48041650219549" lon="120.99718908750236"><ele>9.0</ele><time>2026-04-19T10:31:23Z</time></trkpt><trkpt lat="14.480501482540355" lon="120.9971369406732"><ele>8.8</ele><time>2026-04-19T10:31:24Z</time></trkpt><trkpt lat="14.48058974851274" lon="120.99708267386758"><ele>8.600000000000001</ele><time>2026-04-19T10:31:25Z</time></trkpt><trkpt lat="14.480680354957968" lon="120.99702662161542"><ele>8.4</ele><time>2026-04-19T10:31:26Z</time></trkpt><trkpt lat="14.480771628958315" lon="120.99696464104733"><ele>8.200000000000001</ele><time>2026-04-19T10:31:27Z</time></trkpt><trkpt lat="14.480865801152857" lon="120.99690017417811"><ele>8.0</ele><time>2026-04-19T10:31:28Z</time></trkpt><trkpt lat="14.480962464465728" lon="120.99683394070263"><ele>8.0</ele><time>2026-04-19T10:31:29Z</time></trkpt><trkpt lat="14.481059513090237" lon="120.9967672139851"><ele>8.0</ele><time>2026-04-19T10:31:30Z</time></trkpt><trkpt lat="14.481157828404827" lon="120.99669868263018"><ele>8.0</ele><time>2026-04-19T10:31:31Z</time></trkpt><trkpt lat="14.481253515087172" lon="120.99663239908864"><ele>8.0</ele><time>2026-04-19T10:31:32Z</time></trkpt><trkpt lat="14.481346855631214" lon="120.99656568284152"><ele>8.0</ele><time>2026-04-19T10:31:33Z</time></trkpt><trkpt lat="14.481437868719995" lon="120.99650161781919"><ele>8.0</ele><time>2026-04-19T10:31:34Z</time></trkpt><trkpt lat="14.481527577107096" lon="120.99643863099853"><ele>8.0</ele><time>2026-04-19T10:31:35Z</time></trkpt><trkpt lat="14.481616913169347" lon="120.99637411691505"><ele>8.0</ele><time>2026-04-19T10:31:36Z</time></trkpt><trkpt lat="14.481705484977963" lon="120.99631184947616"><ele>8.0</ele><time>2026-04-19T10:31:37Z</time></trkpt><trkpt lat="14.481793179490488" lon="120.99624658941227"><ele>8.0</ele><time>2026-04-19T10:31:38Z</time></trkpt><trkpt lat="14.481878268982596" lon="120.99618351737554"><ele>8.0</ele><time>2026-04-19T10:31:39Z</time></trkpt><trkpt lat="14.481962031253557" lon="120.99612118536764"><ele>8.0</ele><time>2026-04-19T10:31:40Z</time></trkpt><trkpt lat="14.482047301825325" lon="120.99605858495404"><ele>8.0</ele><time>2026-04-19T10:31:41Z</time></trkpt><trkpt lat="14.482133880872546" lon="120.99599705111669"><ele>8.0</ele><time>2026-04-19T10:31:42Z</time></trkpt><trkpt lat="14.482219612205157" lon="120.99594001168472"><ele>8.0</ele><time>2026-04-19T10:31:43Z</time></trkpt><trkpt lat="14.482304415478142" lon="120.99588353243006"><ele>8.0</ele><time>2026-04-19T10:31:44Z</time></trkpt><trkpt lat="14.482386461110597" lon="120.99582883410636"><ele>8.0</ele><time>2026-04-19T10:31:45Z</time></trkpt><trkpt lat="14.482466276125992" lon="120.9957730073724"><ele>8.0</ele><time>2026-04-19T10:31:46Z</time></trkpt><trkpt lat="14.482542234926472" lon="120.99572121545243"><ele>8.0</ele><time>2026-04-19T10:31:47Z</time></trkpt><trkpt lat="14.482611173570056" lon="120.99567225704858"><ele>8.142857142857142</ele><time>2026-04-19T10:31:48Z</time></trkpt><trkpt lat="14.482675989716505" lon="120.9956258978808"><ele>8.285714285714285</ele><time>2026-04-19T10:31:49Z</time></trkpt><trkpt lat="14.482737864046872" lon="120.99558243123708"><ele>8.428571428571429</ele><time>2026-04-19T10:31:50Z</time></trkpt><trkpt lat="14.482797749922884" lon="120.99554043788939"><ele>8.571428571428571</ele><time>2026-04-19T10:31:51Z</time></trkpt><trkpt lat="14.482855542351995" lon="120.99549991581006"><ele>8.714285714285715</ele><time>2026-04-19T10:31:52Z</time></trkpt><trkpt lat="14.482915448583341" lon="120.9954576441313"><ele>8.857142857142858</ele><time>2026-04-19T10:31:53Z</time></trkpt><trkpt lat="14.48297385562511" lon="120.99541484385165"><ele>9.0</ele><time>2026-04-19T10:31:54Z</time></trkpt><trkpt lat="14.48303383526995" lon="120.99537197499005"><ele>9.166666666666666</ele><time>2026-04-19T10:31:55Z</time></trkpt><trkpt lat="14.483093800038853" lon="120.99532822851367"><ele>9.333333333333334</ele><time>2026-04-19T10:31:56Z</time></trkpt><trkpt lat="14.48315553197331" lon="120.99528378138425"><ele>9.5</ele><time>2026-04-19T10:31:57Z</time></trkpt><trkpt lat="14.483218980099256" lon="120.99523917948291"><ele>9.666666666666668</ele><time>2026-04-19T10:31:58Z</time></trkpt><trkpt lat="14.483282106205415" lon="120.99519510170326"><ele>9.833333333333334</ele><time>2026-04-19T10:31:59Z</time></trkpt><trkpt lat="14.483345624092623" lon="120.99515086978516"><ele>10.0</ele><time>2026-04-19T10:32:00Z</time></trkpt><trkpt lat="14.483411896539277" lon="120.99510496978816"><ele>10.0</ele><time>2026-04-19T10:32:01Z</time></trkpt><trkpt lat="14.483479591197948" lon="120.9950571354171"><ele>10.0</ele><time>2026-04-19T10:32:02Z</time></trkpt><trkpt lat="14.48354840755358" lon="120.99500968417547"><ele>10.0</ele><time>2026-04-19T10:32:03Z</time></trkpt><trkpt lat="14.48361847258196" lon="120.9949613377706"><ele>10.0</ele><time>2026-04-19T10:32:04Z</time></trkpt><trkpt lat="14.483688035614737" lon="120.99491166774249"><ele>10.0</ele><time>2026-04-19T10:32:05Z</time></trkpt><trkpt lat="14.483758307769191" lon="120.99486221220683"><ele>10.0</ele><time>2026-04-19T10:32:06Z</time></trkpt><trkpt lat="14.483827720145948" lon="120.99481263485447"><ele>9.833333333333334</ele><time>2026-04-19T10:32:07Z</time></trkpt><trkpt lat="14.483896247797427" lon="120.99476420365167"><ele>9.666666666666668</ele><time>2026-04-19T10:32:08Z</time></trkpt><trkpt lat="14.483963477373381" lon="120.99471688290681"><ele>9.5</ele><time>2026-04-19T10:32:09Z</time></trkpt><trkpt lat="14.484030067974171" lon="120.99467130510499"><ele>9.333333333333334</ele><time>2026-04-19T10:32:10Z</time></trkpt><trkpt lat="14.484095939431644" lon="120.99462693260344"><ele>9.166666666666666</ele><time>2026-04-19T10:32:11Z</time></trkpt><trkpt lat="14.484158853992337" lon="120.99458446388084"><ele>9.0</ele><time>2026-04-19T10:32:12Z</time></trkpt><trkpt lat="14.484215445009346" lon="120.99454633491507"><ele>9.0</ele><time>2026-04-19T10:32:13Z</time></trkpt><trkpt lat="14.484269153248647" lon="120.9945075945738"><ele>9.0</ele><time>2026-04-19T10:32:14Z</time></trkpt><trkpt lat="14.484368986795221" lon="120.99443390059474"><ele>9.0</ele><time>2026-04-19T10:32:16Z</time></trkpt><trkpt lat="14.484440266458664" lon="120.99437851394663"><ele>9.0</ele><time>2026-04-19T10:32:18Z</time></trkpt><trkpt lat="14.484502177218916" lon="120.99432963792724"><ele>9.0</ele><time>2026-04-19T10:32:20Z</time></trkpt><trkpt lat="14.484568976940384" lon="120.99426879556836"><ele>9.0</ele><time>2026-04-19T10:32:23Z</time></trkpt><trkpt lat="14.484615575800419" lon="120.99422053118579"><ele>8.0</ele><time>2026-04-19T10:32:25Z</time></trkpt><trkpt lat="14.484667125294541" lon="120.99416172069998"><ele>7.0</ele><time>2026-04-19T10:32:27Z</time></trkpt><trkpt lat="14.484714565198326" lon="120.99408880375307"><ele>6.0</ele><time>2026-04-19T10:32:29Z</time></trkpt><trkpt lat="14.484780200939475" lon="120.99398847466779"><ele>5.0</ele><time>2026-04-19T10:32:31Z</time></trkpt><trkpt lat="14.484813170516777" lon="120.99392698967603"><ele>4.0</ele><time>2026-04-19T10:32:32Z</time></trkpt><trkpt lat="14.484841139907406" lon="120.99385828103152"><ele>3.0</ele><time>2026-04-19T10:32:33Z</time></trkpt><trkpt lat="14.484865854916006" lon="120.99378825128191"><ele>3.0</ele><time>2026-04-19T10:32:34Z</time></trkpt><trkpt lat="14.484887713948583" lon="120.99371980453549"><ele>3.0</ele><time>2026-04-19T10:32:35Z</time></trkpt><trkpt lat="14.484918039021926" lon="120.99359830288016"><ele>3.0</ele><time>2026-04-19T10:32:37Z</time></trkpt><trkpt lat="14.48493405716294" lon="120.99349055752685"><ele>3.0</ele><time>2026-04-19T10:32:39Z</time></trkpt><trkpt lat="14.484942418718605" lon="120.99340459607434"><ele>3.0</ele><time>2026-04-19T10:32:41Z</time></trkpt><trkpt lat="14.484945085069501" lon="120.99333555295196"><ele>3.0</ele><time>2026-04-19T10:32:44Z</time></trkpt><trkpt lat="14.484952404599806" lon="120.9932612998427"><ele>3.666666666666667</ele><time>2026-04-19T10:32:47Z</time></trkpt><trkpt lat="14.484962664040276" lon="120.99317152669263"><ele>4.333333333333334</ele><time>2026-04-19T10:32:49Z</time></trkpt><trkpt lat="14.484972447223017" lon="120.99306381815208"><ele>5.0</ele><time>2026-04-19T10:32:51Z</time></trkpt><trkpt lat="14.484981271656041" lon="120.99299776163018"><ele>5.666666666666667</ele><time>2026-04-19T10:32:52Z</time></trkpt><trkpt lat="14.48499361106986" lon="120.99292524686174"><ele>6.333333333333334</ele><time>2026-04-19T10:32:53Z</time></trkpt><trkpt lat="14.485008993467948" lon="120.99284247666724"><ele>7.0</ele><time>2026-04-19T10:32:54Z</time></trkpt><trkpt lat="14.485025640556836" lon="120.99275534816469"><ele>7.0</ele><time>2026-04-19T10:32:55Z</time></trkpt><trkpt lat="14.485046904419717" lon="120.9926620306971"><ele>6.999999999999999</ele><time>2026-04-19T10:32:56Z</time></trkpt><trkpt lat="14.485073964064025" lon="120.9925664654854"><ele>6.999999999999999</ele><time>2026-04-19T10:32:57Z</time></trkpt><trkpt lat="14.485104672710488" lon="120.99247632671164"><ele>7.0</ele><time>2026-04-19T10:32:58Z</time></trkpt><trkpt lat="14.485140620847561" lon="120.99238933244355"><ele>7.0</ele><time>2026-04-19T10:32:59Z</time></trkpt><trkpt lat="14.48517957065412" lon="120.99230511337707"><ele>7.000000000000001</ele><time>2026-04-19T10:33:00Z</time></trkpt><trkpt lat="14.485219724636863" lon="120.99222691167819"><ele>7.0</ele><time>2026-04-19T10:33:01Z</time></trkpt><trkpt lat="14.485260964773968" lon="120.99215668763641"><ele>7.0</ele><time>2026-04-19T10:33:02Z</time></trkpt><trkpt lat="14.4853033414801" lon="120.99209157364436"><ele>7.0</ele><time>2026-04-19T10:33:03Z</time></trkpt><trkpt lat="14.48534555141067" lon="120.99202836010124"><ele>7.000000000000001</ele><time>2026-04-19T10:33:04Z</time></trkpt><trkpt lat="14.485391170895088" lon="120.99196709463271"><ele>7.0</ele><time>2026-04-19T10:33:05Z</time></trkpt><trkpt lat="14.485442970925709" lon="120.99190968323154"><ele>7.000000000000001</ele><time>2026-04-19T10:33:06Z</time></trkpt><trkpt lat="14.485497669740482" lon="120.99185081755816"><ele>7.0</ele><time>2026-04-19T10:33:07Z</time></trkpt><trkpt lat="14.485555827347234" lon="120.99179195842159"><ele>7.0</ele><time>2026-04-19T10:33:08Z</time></trkpt><trkpt lat="14.485616299097924" lon="120.99173057844006"><ele>7.0</ele><time>2026-04-19T10:33:09Z</time></trkpt><trkpt lat="14.485682462007002" lon="120.9916682029081"><ele>7.000000000000001</ele><time>2026-04-19T10:33:10Z</time></trkpt><trkpt lat="14.48574975736013" lon="120.99160388831608"><ele>7.0</ele><time>2026-04-19T10:33:11Z</time></trkpt><trkpt lat="14.485821846238615" lon="120.99154626942693"><ele>7.6</ele><time>2026-04-19T10:33:12Z</time></trkpt><trkpt lat="14.485896377385012" lon="120.99149256161604"><ele>8.2</ele><time>2026-04-19T10:33:13Z</time></trkpt><trkpt lat="14.485972135175999" lon="120.99144599326793"><ele>8.8</ele><time>2026-04-19T10:33:14Z</time></trkpt><trkpt lat="14.486054480347997" lon="120.99139972295981"><ele>9.4</ele><time>2026-04-19T10:33:15Z</time></trkpt><trkpt lat="14.486142194361605" lon="120.99136099441967"><ele>10.0</ele><time>2026-04-19T10:33:16Z</time></trkpt><trkpt lat="14.486239597527891" lon="120.9913386455123"><ele>9.6</ele><time>2026-04-19T10:33:17Z</time></trkpt><trkpt lat="14.486345363913633" lon="120.9913102764161"><ele>9.2</ele><time>2026-04-19T10:33:18Z</time></trkpt><trkpt lat="14.486451941398718" lon="120.9912871354152"><ele>8.8</ele><time>2026-04-19T10:33:19Z</time></trkpt><trkpt lat="14.48655833190616" lon="120.99126965136833"><ele>8.4</ele><time>2026-04-19T10:33:20Z</time></trkpt><trkpt lat="14.486666511184897" lon="120.9912568809733"><ele>8.0</ele><time>2026-04-19T10:33:21Z</time></trkpt><trkpt lat="14.486777630752373" lon="120.99125474724349"><ele>8.0</ele><time>2026-04-19T10:33:22Z</time></trkpt><trkpt lat="14.486889202343496" lon="120.99125948241462"><ele>8.0</ele><time>2026-04-19T10:33:23Z</time></trkpt><trkpt lat="14.487002297717696" lon="120.99126592462281"><ele>8.0</ele><time>2026-04-19T10:33:24Z</time></trkpt><trkpt lat="14.487114281986072" lon="120.99127432625222"><ele>8.0</ele><time>2026-04-19T10:33:25Z</time></trkpt><trkpt lat="14.48722615476157" lon="120.99128606083019"><ele>8.0</ele><time>2026-04-19T10:33:26Z</time></trkpt><trkpt lat="14.48733426827922" lon="120.99129838702076"><ele>8.0</ele><time>2026-04-19T10:33:27Z</time></trkpt><trkpt lat="14.487440034474542" lon="120.99131210324246"><ele>8.0</ele><time>2026-04-19T10:33:28Z</time></trkpt><trkpt lat="14.487545722290555" lon="120.99132709190644"><ele>8.0</ele><time>2026-04-19T10:33:29Z</time></trkpt><trkpt lat="14.487654184932063" lon="120.99134486771031"><ele>8.0</ele><time>2026-04-19T10:33:30Z</time></trkpt><trkpt lat="14.487762483726033" lon="120.9913634611453"><ele>8.0</ele><time>2026-04-19T10:33:31Z</time></trkpt><trkpt lat="14.487873553282132" lon="120.99138248742224"><ele>8.0</ele><time>2026-04-19T10:33:32Z</time></trkpt><trkpt lat="14.4879898963872" lon="120.99139936367591"><ele>8.0</ele><time>2026-04-19T10:33:33Z</time></trkpt><trkpt lat="14.488104515488084" lon="120.99141095459493"><ele>8.0</ele><time>2026-04-19T10:33:34Z</time></trkpt><trkpt lat="14.488218667160352" lon="120.99142539084981"><ele>7.75</ele><time>2026-04-19T10:33:35Z</time></trkpt><trkpt lat="14.488332421940772" lon="120.99144206101478"><ele>7.5</ele><time>2026-04-19T10:33:36Z</time></trkpt><trkpt lat="14.488447177328897" lon="120.99145767682394"><ele>7.25</ele><time>2026-04-19T10:33:37Z</time></trkpt><trkpt lat="14.488566503267224" lon="120.9914764146581"><ele>7.0</ele><time>2026-04-19T10:33:38Z</time></trkpt><trkpt lat="14.488690221597162" lon="120.99149571529267"><ele>6.75</ele><time>2026-04-19T10:33:39Z</time></trkpt><trkpt lat="14.488816975773572" lon="120.9915167165638"><ele>6.5</ele><time>2026-04-19T10:33:40Z</time></trkpt><trkpt lat="14.48894687681862" lon="120.99153907682145"><ele>6.25</ele><time>2026-04-19T10:33:41Z</time></trkpt><trkpt lat="14.489077288584191" lon="120.99156164400421"><ele>6.0</ele><time>2026-04-19T10:33:42Z</time></trkpt><trkpt lat="14.489208627499021" lon="120.99158370638077"><ele>6.0</ele><time>2026-04-19T10:33:43Z</time></trkpt><trkpt lat="14.489340021781143" lon="120.99160696220447"><ele>6.0</ele><time>2026-04-19T10:33:44Z</time></trkpt><trkpt lat="14.489471456608706" lon="120.9916304544893"><ele>6.0</ele><time>2026-04-19T10:33:45Z</time></trkpt><trkpt lat="14.489604054248938" lon="120.99165380579079"><ele>6.0</ele><time>2026-04-19T10:33:46Z</time></trkpt><trkpt lat="14.489735470151372" lon="120.99167630370602"><ele>5.75</ele><time>2026-04-19T10:33:47Z</time></trkpt><trkpt lat="14.489869733998578" lon="120.9916998471954"><ele>5.5</ele><time>2026-04-19T10:33:48Z</time></trkpt><trkpt lat="14.490001074466091" lon="120.99172160761967"><ele>5.25</ele><time>2026-04-19T10:33:49Z</time></trkpt><trkpt lat="14.490135024780397" lon="120.9917453001502"><ele>5.0</ele><time>2026-04-19T10:33:50Z</time></trkpt><trkpt lat="14.490269594647877" lon="120.99176763066048"><ele>5.0</ele><time>2026-04-19T10:33:51Z</time></trkpt><trkpt lat="14.490404191491903" lon="120.99179081856917"><ele>5.0</ele><time>2026-04-19T10:33:52Z</time></trkpt><trkpt lat="14.490538386039228" lon="120.99181384681756"><ele>5.0</ele><time>2026-04-19T10:33:53Z</time></trkpt><trkpt lat="14.490672730321075" lon="120.9918368454688"><ele>5.0</ele><time>2026-04-19T10:33:54Z</time></trkpt><trkpt lat="14.490806102936723" lon="120.99185891914611"><ele>5.0</ele><time>2026-04-19T10:33:55Z</time></trkpt><trkpt lat="14.490938177933243" lon="120.99188084382658"><ele>5.0</ele><time>2026-04-19T10:33:56Z</time></trkpt><trkpt lat="14.491069045816317" lon="120.99190273371549"><ele>5.0</ele><time>2026-04-19T10:33:57Z</time></trkpt><trkpt lat="14.491199293827094" lon="120.99192309679239"><ele>5.0</ele><time>2026-04-19T10:33:58Z</time></trkpt><trkpt lat="14.491325758025782" lon="120.99194276154202"><ele>5.75</ele><time>2026-04-19T10:33:59Z</time></trkpt><trkpt lat="14.491450394397521" lon="120.99196146783608"><ele>6.5</ele><time>2026-04-19T10:34:00Z</time></trkpt><trkpt lat="14.491572879099888" lon="120.99198085998947"><ele>7.25</ele><time>2026-04-19T10:34:01Z</time></trkpt><trkpt lat="14.491688891804344" lon="120.99199840711545"><ele>8.0</ele><time>2026-04-19T10:34:02Z</time></trkpt><trkpt lat="14.491798644204668" lon="120.9920154891326"><ele>8.0</ele><time>2026-04-19T10:34:03Z</time></trkpt><trkpt lat="14.491903614638291" lon="120.99203122830609"><ele>8.0</ele><time>2026-04-19T10:34:04Z</time></trkpt><trkpt lat="14.492004333367342" lon="120.99204688652685"><ele>8.0</ele><time>2026-04-19T10:34:05Z</time></trkpt><trkpt lat="14.492107877600795" lon="120.99206160957704"><ele>8.0</ele><time>2026-04-19T10:34:06Z</time></trkpt><trkpt lat="14.49221146592841" lon="120.99207493347706"><ele>8.0</ele><time>2026-04-19T10:34:07Z</time></trkpt><trkpt lat="14.492318466526552" lon="120.99208788931371"><ele>7.75</ele><time>2026-04-19T10:34:08Z</time></trkpt><trkpt lat="14.492428513190907" lon="120.99210148033457"><ele>7.5</ele><time>2026-04-19T10:34:09Z</time></trkpt><trkpt lat="14.492541838406229" lon="120.99211628568905"><ele>7.25</ele><time>2026-04-19T10:34:10Z</time></trkpt><trkpt lat="14.49265853743193" lon="120.99213200800338"><ele>7.0</ele><time>2026-04-19T10:34:11Z</time></trkpt><trkpt lat="14.492776967402898" lon="120.99215002065235"><ele>7.0</ele><time>2026-04-19T10:34:12Z</time></trkpt><trkpt lat="14.492898130336814" lon="120.99216887106031"><ele>7.0</ele><time>2026-04-19T10:34:13Z</time></trkpt><trkpt lat="14.493019501232263" lon="120.99218961992747"><ele>7.0</ele><time>2026-04-19T10:34:14Z</time></trkpt><trkpt lat="14.493143840598908" lon="120.99221038727548"><ele>7.0</ele><time>2026-04-19T10:34:15Z</time></trkpt><trkpt lat="14.493268270884759" lon="120.99223310273966"><ele>7.0</ele><time>2026-04-19T10:34:16Z</time></trkpt><trkpt lat="14.493391386896514" lon="120.99225405158207"><ele>7.0</ele><time>2026-04-19T10:34:17Z</time></trkpt><trkpt lat="14.493514238599738" lon="120.99227542523377"><ele>7.0</ele><time>2026-04-19T10:34:18Z</time></trkpt><trkpt lat="14.493638693449023" lon="120.99229707364603"><ele>7.0</ele><time>2026-04-19T10:34:19Z</time></trkpt><trkpt lat="14.493761287077675" lon="120.99231814237783"><ele>7.0</ele><time>2026-04-19T10:34:20Z</time></trkpt><trkpt lat="14.493882393572171" lon="120.99233976093261"><ele>7.0</ele><time>2026-04-19T10:34:21Z</time></trkpt><trkpt lat="14.494002829831722" lon="120.99236187736304"><ele>7.0</ele><time>2026-04-19T10:34:22Z</time></trkpt><trkpt lat="14.494123381183176" lon="120.99238207299943"><ele>7.0</ele><time>2026-04-19T10:34:23Z</time></trkpt><trkpt lat="14.494244642966661" lon="120.99240098361008"><ele>7.0</ele><time>2026-04-19T10:34:24Z</time></trkpt><trkpt lat="14.494368089265212" lon="120.99242080178566"><ele>7.0</ele><time>2026-04-19T10:34:25Z</time></trkpt><trkpt lat="14.494491514432791" lon="120.99243767178645"><ele>7.0</ele><time>2026-04-19T10:34:26Z</time></trkpt><trkpt lat="14.494617977492371" lon="120.99245773447443"><ele>7.0</ele><time>2026-04-19T10:34:27Z</time></trkpt><trkpt lat="14.494746374173165" lon="120.99247727609581"><ele>6.75</ele><time>2026-04-19T10:34:28Z</time></trkpt><trkpt lat="14.494874956419945" lon="120.99249668142318"><ele>6.5</ele><time>2026-04-19T10:34:29Z</time></trkpt><trkpt lat="14.495003775180182" lon="120.99251693798695"><ele>6.25</ele><time>2026-04-19T10:34:30Z</time></trkpt><trkpt lat="14.495131990980225" lon="120.99253670716013"><ele>6.0</ele><time>2026-04-19T10:34:31Z</time></trkpt><trkpt lat="14.495261690590972" lon="120.9925568228116"><ele>6.25</ele><time>2026-04-19T10:34:32Z</time></trkpt><trkpt lat="14.495391246055368" lon="120.99257507060183"><ele>6.5</ele><time>2026-04-19T10:34:33Z</time></trkpt><trkpt lat="14.495522660130643" lon="120.99259408113768"><ele>6.75</ele><time>2026-04-19T10:34:34Z</time></trkpt><trkpt lat="14.495652959000488" lon="120.99261257672158"><ele>7.0</ele><time>2026-04-19T10:34:35Z</time></trkpt><trkpt lat="14.495779386278187" lon="120.99263069373379"><ele>7.0</ele><time>2026-04-19T10:34:36Z</time></trkpt><trkpt lat="14.495904971966514" lon="120.99264759244252"><ele>7.0</ele><time>2026-04-19T10:34:37Z</time></trkpt><trkpt lat="14.496033494649215" lon="120.99266101885934"><ele>7.0</ele><time>2026-04-19T10:34:38Z</time></trkpt><trkpt lat="14.4961638007348" lon="120.99267333328642"><ele>7.0</ele><time>2026-04-19T10:34:39Z</time></trkpt><trkpt lat="14.496293901217488" lon="120.99268165359177"><ele>6.75</ele><time>2026-04-19T10:34:40Z</time></trkpt><trkpt lat="14.496423988107473" lon="120.99268668382095"><ele>6.5</ele><time>2026-04-19T10:34:41Z</time></trkpt><trkpt lat="14.49655150338933" lon="120.99268710460065"><ele>6.25</ele><time>2026-04-19T10:34:42Z</time></trkpt><trkpt lat="14.496675731976365" lon="120.99268411590509"><ele>6.0</ele><time>2026-04-19T10:34:43Z</time></trkpt><trkpt lat="14.496799219168441" lon="120.99267899318589"><ele>6.0</ele><time>2026-04-19T10:34:44Z</time></trkpt><trkpt lat="14.49691952610938" lon="120.99267413731123"><ele>6.0</ele><time>2026-04-19T10:34:45Z</time></trkpt><trkpt lat="14.49703189357988" lon="120.99266723608541"><ele>6.0</ele><time>2026-04-19T10:34:46Z</time></trkpt><trkpt lat="14.497141443033877" lon="120.99265963684351"><ele>6.0</ele><time>2026-04-19T10:34:47Z</time></trkpt><trkpt lat="14.497247951862207" lon="120.99264679714233"><ele>6.199999999999999</ele><time>2026-04-19T10:34:48Z</time></trkpt><trkpt lat="14.497356767622557" lon="120.99263281058913"><ele>6.3999999999999995</ele><time>2026-04-19T10:34:49Z</time></trkpt><trkpt lat="14.497466663045465" lon="120.9926172032753"><ele>6.6</ele><time>2026-04-19T10:34:50Z</time></trkpt><trkpt lat="14.497576886677376" lon="120.99260303862717"><ele>6.8</ele><time>2026-04-19T10:34:51Z</time></trkpt><trkpt lat="14.497683606489286" lon="120.99259134734797"><ele>7.0</ele><time>2026-04-19T10:34:52Z</time></trkpt><trkpt lat="14.497786994763628" lon="120.9925827641569"><ele>7.0</ele><time>2026-04-19T10:34:53Z</time></trkpt><trkpt lat="14.497889941658979" lon="120.99257877767943"><ele>6.999999999999999</ele><time>2026-04-19T10:34:54Z</time></trkpt><trkpt lat="14.497989863658127" lon="120.99257973645645"><ele>6.999999999999999</ele><time>2026-04-19T10:34:55Z</time></trkpt><trkpt lat="14.498086379543894" lon="120.99258686977703"><ele>7.0</ele><time>2026-04-19T10:34:56Z</time></trkpt><trkpt lat="14.498179014082156" lon="120.99260359933108"><ele>7.0</ele><time>2026-04-19T10:34:57Z</time></trkpt><trkpt lat="14.498259527649827" lon="120.99262910029158"><ele>7.0</ele><time>2026-04-19T10:34:58Z</time></trkpt><trkpt lat="14.498330417338268" lon="120.99266117057672"><ele>7.0</ele><time>2026-04-19T10:34:59Z</time></trkpt><trkpt lat="14.498390871750269" lon="120.99269877432671"><ele>7.0</ele><time>2026-04-19T10:35:00Z</time></trkpt><trkpt lat="14.498446446235542" lon="120.99274890371306"><ele>7.0</ele><time>2026-04-19T10:35:01Z</time></trkpt><trkpt lat="14.498493180315762" lon="120.99280526024457"><ele>7.0</ele><time>2026-04-19T10:35:02Z</time></trkpt><trkpt lat="14.498535747924036" lon="120.99286866493973"><ele>7.0</ele><time>2026-04-19T10:35:03Z</time></trkpt><trkpt lat="14.498573438935024" lon="120.99293498669402"><ele>7.0</ele><time>2026-04-19T10:35:04Z</time></trkpt><trkpt lat="14.49860335784906" lon="120.99301051264862"><ele>7.0</ele><time>2026-04-19T10:35:05Z</time></trkpt><trkpt lat="14.498627138208562" lon="120.99309253231536"><ele>6.999999999999999</ele><time>2026-04-19T10:35:06Z</time></trkpt><trkpt lat="14.498650202561745" lon="120.99318235030537"><ele>6.999999999999999</ele><time>2026-04-19T10:35:07Z</time></trkpt><trkpt lat="14.498673091539665" lon="120.99327597329206"><ele>7.0</ele><time>2026-04-19T10:35:08Z</time></trkpt><trkpt lat="14.498692934052324" lon="120.99337354774295"><ele>7.0</ele><time>2026-04-19T10:35:09Z</time></trkpt><trkpt lat="14.498714960119736" lon="120.99347287489093"><ele>6.8</ele><time>2026-04-19T10:35:10Z</time></trkpt><trkpt lat="14.49873702400726" lon="120.9935688172176"><ele>6.6</ele><time>2026-04-19T10:35:11Z</time></trkpt><trkpt lat="14.498758168011225" lon="120.99366439756155"><ele>6.3999999999999995</ele><time>2026-04-19T10:35:12Z</time></trkpt><trkpt lat="14.498778565059428" lon="120.9937568623316"><ele>6.199999999999999</ele><time>2026-04-19T10:35:13Z</time></trkpt><trkpt lat="14.498797056415508" lon="120.99384511550356"><ele>6.0</ele><time>2026-04-19T10:35:14Z</time></trkpt><trkpt lat="14.498813947955735" lon="120.99392779835468"><ele>5.8</ele><time>2026-04-19T10:35:15Z</time></trkpt><trkpt lat="14.498828898456086" lon="120.99400596997195"><ele>5.6</ele><time>2026-04-19T10:35:16Z</time></trkpt><trkpt lat="14.498842654380347" lon="120.99407656731341"><ele>5.4</ele><time>2026-04-19T10:35:17Z</time></trkpt><trkpt lat="14.49886606833714" lon="120.99419500302375"><ele>5.2</ele><time>2026-04-19T10:35:19Z</time></trkpt><trkpt lat="14.49888886161564" lon="120.9943068786074"><ele>5.0</ele><time>2026-04-19T10:35:21Z</time></trkpt><trkpt lat="14.498912051385991" lon="120.9944173608777"><ele>4.833333333333334</ele><time>2026-04-19T10:35:23Z</time></trkpt><trkpt lat="14.498933088249327" lon="120.99452537662323"><ele>4.666666666666667</ele><time>2026-04-19T10:35:25Z</time></trkpt><trkpt lat="14.498953000324937" lon="120.994651494034"><ele>4.5</ele><time>2026-04-19T10:35:27Z</time></trkpt><trkpt lat="14.498965922733388" lon="120.99471668559923"><ele>4.333333333333333</ele><time>2026-04-19T10:35:28Z</time></trkpt><trkpt lat="14.49897892995245" lon="120.99478711901313"><ele>4.166666666666666</ele><time>2026-04-19T10:35:29Z</time></trkpt><trkpt lat="14.498993434632697" lon="120.99485857343264"><ele>4.0</ele><time>2026-04-19T10:35:30Z</time></trkpt><trkpt lat="14.499009046638482" lon="120.99493388767344"><ele>3.9999999999999996</ele><time>2026-04-19T10:35:31Z</time></trkpt><trkpt lat="14.499026474833038" lon="120.99501001495229"><ele>4.0</ele><time>2026-04-19T10:35:32Z</time></trkpt><trkpt lat="14.49904317281235" lon="120.99508666373288"><ele>4.0</ele><time>2026-04-19T10:35:33Z</time></trkpt><trkpt lat="14.499059937521874" lon="120.99515933436922"><ele>4.0</ele><time>2026-04-19T10:35:34Z</time></trkpt><trkpt lat="14.499076199938662" lon="120.99522775466782"><ele>3.9999999999999996</ele><time>2026-04-19T10:35:35Z</time></trkpt><trkpt lat="14.499092677482974" lon="120.99529126191919"><ele>4.0</ele><time>2026-04-19T10:35:36Z</time></trkpt><trkpt lat="14.499128811043404" lon="120.99540532916677"><ele>4.0</ele><time>2026-04-19T10:35:38Z</time></trkpt><trkpt lat="14.499172096880942" lon="120.99552498764685"><ele>4.0</ele><time>2026-04-19T10:35:40Z</time></trkpt><trkpt lat="14.499212575991802" lon="120.99564050401804"><ele>4.0</ele><time>2026-04-19T10:35:42Z</time></trkpt><trkpt lat="14.499258669116536" lon="120.99576127507059"><ele>4.0</ele><time>2026-04-19T10:35:44Z</time></trkpt><trkpt lat="14.499287996790068" lon="120.99583006215902"><ele>4.0</ele><time>2026-04-19T10:35:45Z</time></trkpt><trkpt lat="14.499319465914384" lon="120.99590426525268"><ele>4.666666666666666</ele><time>2026-04-19T10:35:46Z</time></trkpt><trkpt lat="14.499354068028666" lon="120.9959816193266"><ele>5.333333333333333</ele><time>2026-04-19T10:35:47Z</time></trkpt><trkpt lat="14.49939142386649" lon="120.9960588388074"><ele>6.0</ele><time>2026-04-19T10:35:48Z</time></trkpt><trkpt lat="14.49943098662933" lon="120.99613672072516"><ele>6.666666666666666</ele><time>2026-04-19T10:35:49Z</time></trkpt><trkpt lat="14.499473059456335" lon="120.9962153167593"><ele>7.333333333333333</ele><time>2026-04-19T10:35:50Z</time></trkpt><trkpt lat="14.499515403490559" lon="120.99629337459703"><ele>8.0</ele><time>2026-04-19T10:35:51Z</time></trkpt><trkpt lat="14.499558258665616" lon="120.99636811292541"><ele>8.166666666666666</ele><time>2026-04-19T10:35:52Z</time></trkpt><trkpt lat="14.499602987362145" lon="120.99644013830363"><ele>8.333333333333332</ele><time>2026-04-19T10:35:53Z</time></trkpt><trkpt lat="14.499648377440504" lon="120.99651073375117"><ele>8.5</ele><time>2026-04-19T10:35:54Z</time></trkpt><trkpt lat="14.49969223856206" lon="120.99657619134462"><ele>8.666666666666666</ele><time>2026-04-19T10:35:55Z</time></trkpt><trkpt lat="14.499733141499107" lon="120.9966359606989"><ele>8.833333333333334</ele><time>2026-04-19T10:35:56Z</time></trkpt><trkpt lat="14.499772143636944" lon="120.99669114796428"><ele>9.0</ele><time>2026-04-19T10:35:57Z</time></trkpt><trkpt lat="14.499841060103106" lon="120.99678774315177"><ele>8.571428571428573</ele><time>2026-04-19T10:35:59Z</time></trkpt><trkpt lat="14.499895753297602" lon="120.99685883731055"><ele>8.142857142857142</ele><time>2026-04-19T10:36:01Z</time></trkpt><trkpt lat="14.49994158524493" lon="120.99691315412913"><ele>7.714285714285714</ele><time>2026-04-19T10:36:03Z</time></trkpt><trkpt lat="14.499986333071941" lon="120.99696112835034"><ele>7.2857142857142865</ele><time>2026-04-19T10:36:14Z</time></trkpt><trkpt lat="14.500030567001343" lon="120.99701345647898"><ele>6.857142857142858</ele><time>2026-04-19T10:36:17Z</time></trkpt><trkpt lat="14.50007780161722" lon="120.9970615472493"><ele>6.428571428571428</ele><time>2026-04-19T10:36:19Z</time></trkpt><trkpt lat="14.50013940679519" lon="120.99712472759087"><ele>6.0</ele><time>2026-04-19T10:36:21Z</time></trkpt><trkpt lat="14.50020493968649" lon="120.99719459463992"><ele>6.0</ele><time>2026-04-19T10:36:23Z</time></trkpt><trkpt lat="14.50027958939626" lon="120.99727362017693"><ele>6.0</ele><time>2026-04-19T10:36:25Z</time></trkpt><trkpt lat="14.500370014591175" lon="120.99735676910788"><ele>6.0</ele><time>2026-04-19T10:36:27Z</time></trkpt><trkpt lat="14.50042227690723" lon="120.99740331142601"><ele>6.0</ele><time>2026-04-19T10:36:28Z</time></trkpt><trkpt lat="14.500475357369965" lon="120.99744973641428"><ele>6.0</ele><time>2026-04-19T10:36:29Z</time></trkpt><trkpt lat="14.500532724789364" lon="120.99749734068095"><ele>6.0</ele><time>2026-04-19T10:36:30Z</time></trkpt><trkpt lat="14.500591386466363" lon="120.99754557522188"><ele>5.833333333333333</ele><time>2026-04-19T10:36:31Z</time></trkpt><trkpt lat="14.500651287172126" lon="120.99759388999713"><ele>5.666666666666667</ele><time>2026-04-19T10:36:32Z</time></trkpt><trkpt lat="14.50071416265593" lon="120.99764255837545"><ele>5.5</ele><time>2026-04-19T10:36:33Z</time></trkpt><trkpt lat="14.5007823190175" lon="120.99769157872015"><ele>5.333333333333334</ele><time>2026-04-19T10:36:34Z</time></trkpt><trkpt lat="14.500851750014295" lon="120.99773847675235"><ele>5.166666666666667</ele><time>2026-04-19T10:36:35Z</time></trkpt><trkpt lat="14.500919528898105" lon="120.99778269186267"><ele>5.0</ele><time>2026-04-19T10:36:36Z</time></trkpt><trkpt lat="14.500981805291364" lon="120.99782269715081"><ele>5.0</ele><time>2026-04-19T10:36:37Z</time></trkpt><trkpt lat="14.501037553509354" lon="120.99785826161651"><ele>5.0</ele><time>2026-04-19T10:36:38Z</time></trkpt><trkpt lat="14.50113240965312" lon="120.99792910850552"><ele>5.0</ele><time>2026-04-19T10:36:40Z</time></trkpt><trkpt lat="14.501230122911249" lon="120.99800280487436"><ele>5.0</ele><time>2026-04-19T10:36:42Z</time></trkpt><trkpt lat="14.501288684449532" lon="120.99803925089029"><ele>5.0</ele><time>2026-04-19T10:36:43Z</time></trkpt><trkpt lat="14.501348671432847" lon="120.99807885868296"><ele>5.0</ele><time>2026-04-19T10:36:44Z</time></trkpt><trkpt lat="14.501407552373383" lon="120.99811724739743"><ele>5.166666666666667</ele><time>2026-04-19T10:36:45Z</time></trkpt><trkpt lat="14.501468267187379" lon="120.99815527539562"><ele>5.333333333333334</ele><time>2026-04-19T10:36:46Z</time></trkpt><trkpt lat="14.501527349214216" lon="120.99819474934004"><ele>5.5</ele><time>2026-04-19T10:36:47Z</time></trkpt><trkpt lat="14.501585303923475" lon="120.99823233573183"><ele>5.666666666666667</ele><time>2026-04-19T10:36:48Z</time></trkpt><trkpt lat="14.501641632805015" lon="120.99826947619876"><ele>5.833333333333333</ele><time>2026-04-19T10:36:49Z</time></trkpt><trkpt lat="14.50173807567633" lon="120.99833434084748"><ele>6.0</ele><time>2026-04-19T10:36:51Z</time></trkpt><trkpt lat="14.501822295766887" lon="120.99839071856488"><ele>6.6</ele><time>2026-04-19T10:36:53Z</time></trkpt><trkpt lat="14.501909803922308" lon="120.99844836420709"><ele>7.199999999999999</ele><time>2026-04-19T10:36:55Z</time></trkpt><trkpt lat="14.501976315527653" lon="120.99849189146023"><ele>7.800000000000001</ele><time>2026-04-19T10:36:57Z</time></trkpt><trkpt lat="14.502051134241462" lon="120.99854027017001"><ele>8.4</ele><time>2026-04-19T10:36:59Z</time></trkpt><trkpt lat="14.502149205667413" lon="120.99860016864524"><ele>9.0</ele><time>2026-04-19T10:37:01Z</time></trkpt><trkpt lat="14.502208502181638" lon="120.99863457872394"><ele>9.0</ele><time>2026-04-19T10:37:02Z</time></trkpt><trkpt lat="14.502272621127021" lon="120.99866988971553"><ele>9.0</ele><time>2026-04-19T10:37:03Z</time></trkpt><trkpt lat="14.502340482555896" lon="120.99870564405242"><ele>9.0</ele><time>2026-04-19T10:37:04Z</time></trkpt><trkpt lat="14.502410385501326" lon="120.99874337610756"><ele>9.0</ele><time>2026-04-19T10:37:05Z</time></trkpt><trkpt lat="14.502484142686576" lon="120.99878380213926"><ele>9.0</ele><time>2026-04-19T10:37:06Z</time></trkpt><trkpt lat="14.502560715087986" lon="120.99882805426306"><ele>9.0</ele><time>2026-04-19T10:37:07Z</time></trkpt><trkpt lat="14.502638731699387" lon="120.99887630385668"><ele>9.0</ele><time>2026-04-19T10:37:08Z</time></trkpt><trkpt lat="14.502719830874621" lon="120.99892592756768"><ele>9.0</ele><time>2026-04-19T10:37:09Z</time></trkpt><trkpt lat="14.502801766392688" lon="120.99897603256046"><ele>9.0</ele><time>2026-04-19T10:37:10Z</time></trkpt><trkpt lat="14.50288507397206" lon="120.99902920694971"><ele>9.0</ele><time>2026-04-19T10:37:11Z</time></trkpt><trkpt lat="14.502968580587485" lon="120.99907874012781"><ele>9.0</ele><time>2026-04-19T10:37:12Z</time></trkpt><trkpt lat="14.50305197022133" lon="120.9991311076813"><ele>9.0</ele><time>2026-04-19T10:37:13Z</time></trkpt><trkpt lat="14.503137129513549" lon="120.99918565410452"><ele>9.0</ele><time>2026-04-19T10:37:14Z</time></trkpt><trkpt lat="14.50322240978747" lon="120.99924160660575"><ele>9.0</ele><time>2026-04-19T10:37:15Z</time></trkpt><trkpt lat="14.50330965574468" lon="120.99929751095237"><ele>9.0</ele><time>2026-04-19T10:37:16Z</time></trkpt><trkpt lat="14.50339502940331" lon="120.99935163132155"><ele>9.0</ele><time>2026-04-19T10:37:17Z</time></trkpt><trkpt lat="14.50347818407105" lon="120.99940377552987"><ele>9.0</ele><time>2026-04-19T10:37:18Z</time></trkpt><trkpt lat="14.50355865117455" lon="120.9994555675314"><ele>9.0</ele><time>2026-04-19T10:37:19Z</time></trkpt><trkpt lat="14.503638013278454" lon="120.99950368911239"><ele>9.0</ele><time>2026-04-19T10:37:20Z</time></trkpt><trkpt lat="14.503715131591477" lon="120.9995509396769"><ele>9.0</ele><time>2026-04-19T10:37:21Z</time></trkpt><trkpt lat="14.503790587253091" lon="120.99959903282941"><ele>9.0</ele><time>2026-04-19T10:37:22Z</time></trkpt><trkpt lat="14.503869601471274" lon="120.99964611057756"><ele>9.2</ele><time>2026-04-19T10:37:23Z</time></trkpt><trkpt lat="14.503952717846857" lon="120.99969825402323"><ele>9.4</ele><time>2026-04-19T10:37:24Z</time></trkpt><trkpt lat="14.504043868352573" lon="120.99975864961877"><ele>9.6</ele><time>2026-04-19T10:37:25Z</time></trkpt><trkpt lat="14.50412846355927" lon="120.99981647086656"><ele>9.8</ele><time>2026-04-19T10:37:26Z</time></trkpt><trkpt lat="14.5042132520298" lon="120.99987614629457"><ele>10.0</ele><time>2026-04-19T10:37:27Z</time></trkpt><trkpt lat="14.504296730001354" lon="120.99993933119899"><ele>10.0</ele><time>2026-04-19T10:37:28Z</time></trkpt><trkpt lat="14.504382944250487" lon="121.00000709094193"><ele>10.0</ele><time>2026-04-19T10:37:29Z</time></trkpt><trkpt lat="14.504469817195648" lon="121.00007556634284"><ele>10.0</ele><time>2026-04-19T10:37:30Z</time></trkpt><trkpt lat="14.50456437029551" lon="121.00014401355075"><ele>10.0</ele><time>2026-04-19T10:37:31Z</time></trkpt><trkpt lat="14.504661305908046" lon="121.0002085167205"><ele>10.0</ele><time>2026-04-19T10:37:32Z</time></trkpt><trkpt lat="14.504759197600444" lon="121.0002700387457"><ele>9.25</ele><time>2026-04-19T10:37:33Z</time></trkpt><trkpt lat="14.504857585109253" lon="121.00033142302318"><ele>8.5</ele><time>2026-04-19T10:37:34Z</time></trkpt><trkpt lat="14.50495682582404" lon="121.0003899597414"><ele>7.75</ele><time>2026-04-19T10:37:35Z</time></trkpt><trkpt lat="14.505057926210442" lon="121.00045125996172"><ele>7.0</ele><time>2026-04-19T10:37:36Z</time></trkpt><trkpt lat="14.505161417578575" lon="121.00051482011305"><ele>7.0</ele><time>2026-04-19T10:37:37Z</time></trkpt><trkpt lat="14.505266395826776" lon="121.00057733182477"><ele>7.0</ele><time>2026-04-19T10:37:38Z</time></trkpt><trkpt lat="14.505369163397603" lon="121.00063917518234"><ele>7.0</ele><time>2026-04-19T10:37:39Z</time></trkpt><trkpt lat="14.505474706559127" lon="121.00069604877338"><ele>7.0</ele><time>2026-04-19T10:37:40Z</time></trkpt><trkpt lat="14.505579518592278" lon="121.00074558597608"><ele>7.6</ele><time>2026-04-19T10:37:41Z</time></trkpt><trkpt lat="14.505681084335778" lon="121.00079061570455"><ele>8.2</ele><time>2026-04-19T10:37:42Z</time></trkpt><trkpt lat="14.505779528444474" lon="121.00083376167547"><ele>8.8</ele><time>2026-04-19T10:37:43Z</time></trkpt><trkpt lat="14.50587560155621" lon="121.00087857598218"><ele>9.4</ele><time>2026-04-19T10:37:44Z</time></trkpt><trkpt lat="14.505969935607403" lon="121.0009205031333"><ele>10.0</ele><time>2026-04-19T10:37:45Z</time></trkpt><trkpt lat="14.506064052949146" lon="121.00096201018435"><ele>10.0</ele><time>2026-04-19T10:37:46Z</time></trkpt><trkpt lat="14.506156762282368" lon="121.00099994592644"><ele>10.0</ele><time>2026-04-19T10:37:47Z</time></trkpt><trkpt lat="14.50624869851512" lon="121.00103584730728"><ele>10.0</ele><time>2026-04-19T10:37:48Z</time></trkpt><trkpt lat="14.506337742980575" lon="121.00107043332036"><ele>10.0</ele><time>2026-04-19T10:37:49Z</time></trkpt><trkpt lat="14.50641629168618" lon="121.00110126786709"><ele>10.0</ele><time>2026-04-19T10:37:50Z</time></trkpt><trkpt lat="14.506484440647236" lon="121.00112669079455"><ele>10.0</ele><time>2026-04-19T10:37:51Z</time></trkpt><trkpt lat="14.506542499251182" lon="121.00115191415581"><ele>10.0</ele><time>2026-04-19T10:37:52Z</time></trkpt><trkpt lat="14.506639996441033" lon="121.00119237092203"><ele>10.0</ele><time>2026-04-19T10:37:54Z</time></trkpt><trkpt lat="14.506730028885867" lon="121.00122839950853"><ele>10.0</ele><time>2026-04-19T10:37:56Z</time></trkpt><trkpt lat="14.506822413917702" lon="121.00126634007847"><ele>10.0</ele><time>2026-04-19T10:37:58Z</time></trkpt><trkpt lat="14.506922845374794" lon="121.00130570211711"><ele>10.0</ele><time>2026-04-19T10:38:00Z</time></trkpt><trkpt lat="14.507025709752414" lon="121.00134449167622"><ele>10.0</ele><time>2026-04-19T10:38:02Z</time></trkpt><trkpt lat="14.507125143348675" lon="121.00138265810715"><ele>10.0</ele><time>2026-04-19T10:38:04Z</time></trkpt><trkpt lat="14.507215966224607" lon="121.00141267867588"><ele>10.0</ele><time>2026-04-19T10:38:06Z</time></trkpt><trkpt lat="14.50731060699995" lon="121.00144483987573"><ele>10.0</ele><time>2026-04-19T10:38:08Z</time></trkpt><trkpt lat="14.50743011048985" lon="121.0014994687208"><ele>9.6</ele><time>2026-04-19T10:38:10Z</time></trkpt><trkpt lat="14.507506292435407" lon="121.00153644962684"><ele>9.2</ele><time>2026-04-19T10:38:11Z</time></trkpt><trkpt lat="14.507591113381629" lon="121.0015808522803"><ele>8.8</ele><time>2026-04-19T10:38:12Z</time></trkpt><trkpt lat="14.50768983547958" lon="121.00161705592934"><ele>8.4</ele><time>2026-04-19T10:38:13Z</time></trkpt><trkpt lat="14.507788176450127" lon="121.0016698594984"><ele>8.0</ele><time>2026-04-19T10:38:14Z</time></trkpt><trkpt lat="14.507883381206765" lon="121.00173625304356"><ele>8.200000000000001</ele><time>2026-04-19T10:38:15Z</time></trkpt><trkpt lat="14.507983278625577" lon="121.00178574624412"><ele>8.4</ele><time>2026-04-19T10:38:16Z</time></trkpt><trkpt lat="14.508084517123216" lon="121.00182626912614"><ele>8.600000000000001</ele><time>2026-04-19T10:38:17Z</time></trkpt><trkpt lat="14.50818784675285" lon="121.0018645857182"><ele>8.8</ele><time>2026-04-19T10:38:18Z</time></trkpt><trkpt lat="14.508291194458568" lon="121.00189577617691"><ele>9.0</ele><time>2026-04-19T10:38:19Z</time></trkpt><trkpt lat="14.50839008440242" lon="121.00192426272687"><ele>9.0</ele><time>2026-04-19T10:38:20Z</time></trkpt><trkpt lat="14.508487966003534" lon="121.00195796112732"><ele>9.0</ele><time>2026-04-19T10:38:21Z</time></trkpt><trkpt lat="14.508586532994492" lon="121.00198966808921"><ele>9.0</ele><time>2026-04-19T10:38:22Z</time></trkpt><trkpt lat="14.508687128296346" lon="121.00201905438215"><ele>9.0</ele><time>2026-04-19T10:38:23Z</time></trkpt><trkpt lat="14.508785744920573" lon="121.0020463307152"><ele>9.0</ele><time>2026-04-19T10:38:24Z</time></trkpt><trkpt lat="14.508884168397504" lon="121.00206920602983"><ele>8.6</ele><time>2026-04-19T10:38:25Z</time></trkpt><trkpt lat="14.508986612739918" lon="121.00209126286546"><ele>8.2</ele><time>2026-04-19T10:38:26Z</time></trkpt><trkpt lat="14.509086905286676" lon="121.00211321596655"><ele>7.799999999999999</ele><time>2026-04-19T10:38:27Z</time></trkpt><trkpt lat="14.509189489514483" lon="121.00214133957897"><ele>7.3999999999999995</ele><time>2026-04-19T10:38:28Z</time></trkpt><trkpt lat="14.509292454131677" lon="121.00217245210449"><ele>7.0</ele><time>2026-04-19T10:38:29Z</time></trkpt><trkpt lat="14.509392843286811" lon="121.00220478099678"><ele>7.0</ele><time>2026-04-19T10:38:30Z</time></trkpt><trkpt lat="14.509492255913347" lon="121.00223494484887"><ele>6.999999999999999</ele><time>2026-04-19T10:38:31Z</time></trkpt><trkpt lat="14.509592562945096" lon="121.0022660456438"><ele>6.999999999999999</ele><time>2026-04-19T10:38:32Z</time></trkpt><trkpt lat="14.509692309949457" lon="121.00229847682517"><ele>7.0</ele><time>2026-04-19T10:38:33Z</time></trkpt><trkpt lat="14.50979042413155" lon="121.00233341023865"><ele>7.0</ele><time>2026-04-19T10:38:34Z</time></trkpt><trkpt lat="14.5098914360902" lon="121.00236980395901"><ele>6.8</ele><time>2026-04-19T10:38:35Z</time></trkpt><trkpt lat="14.509995096010432" lon="121.00240978673719"><ele>6.6</ele><time>2026-04-19T10:38:36Z</time></trkpt><trkpt lat="14.510101579232304" lon="121.00244855273185"><ele>6.3999999999999995</ele><time>2026-04-19T10:38:37Z</time></trkpt><trkpt lat="14.510210843108922" lon="121.00248616569847"><ele>6.199999999999999</ele><time>2026-04-19T10:38:38Z</time></trkpt><trkpt lat="14.510309993561087" lon="121.00251878413142"><ele>6.0</ele><time>2026-04-19T10:38:39Z</time></trkpt><trkpt lat="14.510409128203598" lon="121.00255463013858"><ele>6.0</ele><time>2026-04-19T10:38:40Z</time></trkpt><trkpt lat="14.51050899065172" lon="121.0025904307629"><ele>6.0</ele><time>2026-04-19T10:38:41Z</time></trkpt><trkpt lat="14.510607090986696" lon="121.00262477772094"><ele>6.0</ele><time>2026-04-19T10:38:42Z</time></trkpt><trkpt lat="14.510703648760092" lon="121.0026591134262"><ele>6.0</ele><time>2026-04-19T10:38:43Z</time></trkpt><trkpt lat="14.510796423965083" lon="121.0026901277701"><ele>6.0</ele><time>2026-04-19T10:38:44Z</time></trkpt><trkpt lat="14.510890224806127" lon="121.00271782353585"><ele>6.0</ele><time>2026-04-19T10:38:45Z</time></trkpt><trkpt lat="14.510985526382738" lon="121.00274394400783"><ele>6.0</ele><time>2026-04-19T10:38:46Z</time></trkpt><trkpt lat="14.511074572457556" lon="121.00277171576914"><ele>6.0</ele><time>2026-04-19T10:38:47Z</time></trkpt><trkpt lat="14.51116172061729" lon="121.0028014696609"><ele>6.0</ele><time>2026-04-19T10:38:48Z</time></trkpt><trkpt lat="14.511248780844847" lon="121.00283104784"><ele>6.0</ele><time>2026-04-19T10:38:49Z</time></trkpt><trkpt lat="14.511337201478844" lon="121.00286184101564"><ele>6.0</ele><time>2026-04-19T10:38:50Z</time></trkpt><trkpt lat="14.511425030200982" lon="121.00289364768817"><ele>6.0</ele><time>2026-04-19T10:38:51Z</time></trkpt><trkpt lat="14.511511137747949" lon="121.00292618831102"><ele>6.0</ele><time>2026-04-19T10:38:52Z</time></trkpt><trkpt lat="14.511598126897146" lon="121.00295818876235"><ele>6.0</ele><time>2026-04-19T10:38:53Z</time></trkpt><trkpt lat="14.511685988573623" lon="121.00299106695978"><ele>6.0</ele><time>2026-04-19T10:38:54Z</time></trkpt><trkpt lat="14.511775602803134" lon="121.00302446850634"><ele>6.0</ele><time>2026-04-19T10:38:55Z</time></trkpt><trkpt lat="14.511866420333654" lon="121.0030556876433"><ele>6.0</ele><time>2026-04-19T10:38:56Z</time></trkpt><trkpt lat="14.511960365227358" lon="121.003089428222"><ele>6.0</ele><time>2026-04-19T10:38:57Z</time></trkpt><trkpt lat="14.512058803055595" lon="121.00312481158109"><ele>6.0</ele><time>2026-04-19T10:38:58Z</time></trkpt><trkpt lat="14.512160191567828" lon="121.00316186650797"><ele>6.0</ele><time>2026-04-19T10:38:59Z</time></trkpt><trkpt lat="14.512268580430352" lon="121.00319934603263"><ele>6.25</ele><time>2026-04-19T10:39:00Z</time></trkpt><trkpt lat="14.512379738920746" lon="121.00323896786306"><ele>6.5</ele><time>2026-04-19T10:39:01Z</time></trkpt><trkpt lat="14.512492999205973" lon="121.00328064481944"><ele>6.75</ele><time>2026-04-19T10:39:02Z</time></trkpt><trkpt lat="14.51261024704827" lon="121.00332284194766"><ele>7.0</ele><time>2026-04-19T10:39:03Z</time></trkpt><trkpt lat="14.512729906679457" lon="121.00336588568169"><ele>7.0</ele><time>2026-04-19T10:39:04Z</time></trkpt><trkpt lat="14.512851925602515" lon="121.00340973870347"><ele>7.0</ele><time>2026-04-19T10:39:05Z</time></trkpt><trkpt lat="14.51297768249614" lon="121.00345493354348"><ele>7.0</ele><time>2026-04-19T10:39:06Z</time></trkpt><trkpt lat="14.513101446941446" lon="121.00349908304756"><ele>7.0</ele><time>2026-04-19T10:39:07Z</time></trkpt><trkpt lat="14.513222251128562" lon="121.003541956752"><ele>7.25</ele><time>2026-04-19T10:39:08Z</time></trkpt><trkpt lat="14.513337704280712" lon="121.0035826921974"><ele>7.5</ele><time>2026-04-19T10:39:09Z</time></trkpt><trkpt lat="14.513450771096958" lon="121.0036223396809"><ele>7.75</ele><time>2026-04-19T10:39:10Z</time></trkpt><trkpt lat="14.51356162217472" lon="121.00366110472807"><ele>8.0</ele><time>2026-04-19T10:39:11Z</time></trkpt><trkpt lat="14.5136668110911" lon="121.00369727261982"><ele>8.8</ele><time>2026-04-19T10:39:12Z</time></trkpt><trkpt lat="14.513770647350466" lon="121.00373434856975"><ele>9.600000000000001</ele><time>2026-04-19T10:39:13Z</time></trkpt><trkpt lat="14.513869650789" lon="121.00376932124993"><ele>10.399999999999999</ele><time>2026-04-19T10:39:14Z</time></trkpt><trkpt lat="14.513963720412827" lon="121.0038032783292"><ele>11.2</ele><time>2026-04-19T10:39:15Z</time></trkpt><trkpt lat="14.514054803826495" lon="121.00383663948506"><ele>12.0</ele><time>2026-04-19T10:39:16Z</time></trkpt><trkpt lat="14.514142201875048" lon="121.00386758943601"><ele>12.0</ele><time>2026-04-19T10:39:17Z</time></trkpt><trkpt lat="14.514223572066571" lon="121.00389697213913"><ele>12.0</ele><time>2026-04-19T10:39:18Z</time></trkpt><trkpt lat="14.51429921591667" lon="121.00392415842684"><ele>12.0</ele><time>2026-04-19T10:39:19Z</time></trkpt><trkpt lat="14.514365775141586" lon="121.00394768208879"><ele>12.0</ele><time>2026-04-19T10:39:20Z</time></trkpt><trkpt lat="14.514477394009894" lon="121.00398392297646"><ele>12.0</ele><time>2026-04-19T10:39:22Z</time></trkpt><trkpt lat="14.514569546557237" lon="121.0040137407379"><ele>11.5</ele><time>2026-04-19T10:39:24Z</time></trkpt><trkpt lat="14.514654352642163" lon="121.00404135256096"><ele>11.0</ele><time>2026-04-19T10:39:26Z</time></trkpt><trkpt lat="14.514733473646988" lon="121.00406611832338"><ele>10.5</ele><time>2026-04-19T10:39:29Z</time></trkpt><trkpt lat="14.514815536692577" lon="121.00409208065149"><ele>10.0</ele><time>2026-04-19T10:40:06Z</time></trkpt><trkpt lat="14.514895032650422" lon="121.0041203856"><ele>9.5</ele><time>2026-04-19T10:40:10Z</time></trkpt><trkpt lat="14.514960370039843" lon="121.0041435816386"><ele>9.0</ele><time>2026-04-19T10:40:12Z</time></trkpt><trkpt lat="14.515029758417567" lon="121.00416685452684"><ele>9.000000000000002</ele><time>2026-04-19T10:40:14Z</time></trkpt><trkpt lat="14.515114394069013" lon="121.00419391773401"><ele>9.0</ele><time>2026-04-19T10:40:16Z</time></trkpt><trkpt lat="14.515196212947632" lon="121.00420783272845"><ele>9.0</ele><time>2026-04-19T10:40:18Z</time></trkpt><trkpt lat="14.515265878770972" lon="121.00421168819327"><ele>9.0</ele><time>2026-04-19T10:40:20Z</time></trkpt><trkpt lat="14.515332763453303" lon="121.00420485627788"><ele>9.0</ele><time>2026-04-19T10:40:22Z</time></trkpt><trkpt lat="14.515391841936475" lon="121.0041795015002"><ele>9.000000000000002</ele><time>2026-04-19T10:40:24Z</time></trkpt><trkpt lat="14.515439326733949" lon="121.00411694517929"><ele>9.0</ele><time>2026-04-19T10:40:26Z</time></trkpt><trkpt lat="14.515482591222472" lon="121.00398476600782"><ele>8.8</ele><time>2026-04-19T10:40:28Z</time></trkpt><trkpt lat="14.515532332366321" lon="121.00391914866839"><ele>8.600000000000001</ele><time>2026-04-19T10:40:29Z</time></trkpt><trkpt lat="14.515576418181183" lon="121.00382737615074"><ele>8.4</ele><time>2026-04-19T10:40:30Z</time></trkpt><trkpt lat="14.515619469704495" lon="121.00373534704944"><ele>8.200000000000001</ele><time>2026-04-19T10:40:31Z</time></trkpt><trkpt lat="14.515663742292542" lon="121.00364086667769"><ele>8.0</ele><time>2026-04-19T10:40:32Z</time></trkpt><trkpt lat="14.515692263211248" lon="121.00353890906098"><ele>8.0</ele><time>2026-04-19T10:40:33Z</time></trkpt><trkpt lat="14.515748429507523" lon="121.00344526882218"><ele>8.0</ele><time>2026-04-19T10:40:34Z</time></trkpt><trkpt lat="14.515811991133239" lon="121.00334342061169"><ele>8.0</ele><time>2026-04-19T10:40:35Z</time></trkpt><trkpt lat="14.515874468695936" lon="121.00323771016188"><ele>8.0</ele><time>2026-04-19T10:40:36Z</time></trkpt><trkpt lat="14.515935047094986" lon="121.00312933435262"><ele>7.6000000000000005</ele><time>2026-04-19T10:40:37Z</time></trkpt><trkpt lat="14.515996524101801" lon="121.00302364637159"><ele>7.200000000000001</ele><time>2026-04-19T10:40:38Z</time></trkpt><trkpt lat="14.516046340296647" lon="121.0029192338299"><ele>6.8</ele><time>2026-04-19T10:40:39Z</time></trkpt><trkpt lat="14.516101941831911" lon="121.00282495748523"><ele>6.4</ele><time>2026-04-19T10:40:40Z</time></trkpt><trkpt lat="14.516152852522957" lon="121.00272562266552"><ele>6.0</ele><time>2026-04-19T10:40:41Z</time></trkpt><trkpt lat="14.516202255851272" lon="121.00263116196633"><ele>6.25</ele><time>2026-04-19T10:40:42Z</time></trkpt><trkpt lat="14.516254468845382" lon="121.00253283127256"><ele>6.5</ele><time>2026-04-19T10:40:43Z</time></trkpt><trkpt lat="14.516309808657848" lon="121.00243150801244"><ele>6.75</ele><time>2026-04-19T10:40:44Z</time></trkpt><trkpt lat="14.516365209363327" lon="121.00232630994128"><ele>7.0</ele><time>2026-04-19T10:40:45Z</time></trkpt><trkpt lat="14.516418715404027" lon="121.00221736235443"><ele>7.0</ele><time>2026-04-19T10:40:46Z</time></trkpt><trkpt lat="14.516474640030934" lon="121.00210728256874"><ele>7.0</ele><time>2026-04-19T10:40:47Z</time></trkpt><trkpt lat="14.516531183052342" lon="121.00199656334848"><ele>7.0</ele><time>2026-04-19T10:40:48Z</time></trkpt><trkpt lat="14.516580209810598" lon="121.00188838599925"><ele>7.0</ele><time>2026-04-19T10:40:49Z</time></trkpt><trkpt lat="14.516632564242226" lon="121.00178218666065"><ele>7.0</ele><time>2026-04-19T10:40:50Z</time></trkpt><trkpt lat="14.516681839127862" lon="121.00167877009808"><ele>6.999999999999999</ele><time>2026-04-19T10:40:51Z</time></trkpt><trkpt lat="14.516732298743596" lon="121.00157399690468"><ele>6.999999999999999</ele><time>2026-04-19T10:40:52Z</time></trkpt><trkpt lat="14.516776108240427" lon="121.00147483187189"><ele>7.0</ele><time>2026-04-19T10:40:53Z</time></trkpt><trkpt lat="14.51681451008491" lon="121.00137934198995"><ele>7.0</ele><time>2026-04-19T10:40:54Z</time></trkpt><trkpt lat="14.516850307011955" lon="121.00128775777385"><ele>6.833333333333334</ele><time>2026-04-19T10:40:55Z</time></trkpt><trkpt lat="14.51688351546354" lon="121.0011983946447"><ele>6.666666666666667</ele><time>2026-04-19T10:40:56Z</time></trkpt><trkpt lat="14.516913212621182" lon="121.00111081924042"><ele>6.5</ele><time>2026-04-19T10:40:57Z</time></trkpt><trkpt lat="14.516938359005966" lon="121.00102672082367"><ele>6.333333333333334</ele><time>2026-04-19T10:40:58Z</time></trkpt><trkpt lat="14.516962459285818" lon="121.00094291966353"><ele>6.166666666666667</ele><time>2026-04-19T10:40:59Z</time></trkpt><trkpt lat="14.516985313218852" lon="121.00086515413034"><ele>6.0</ele><time>2026-04-19T10:41:00Z</time></trkpt><trkpt lat="14.517003905563815" lon="121.00078583308951"><ele>5.857142857142857</ele><time>2026-04-19T10:41:01Z</time></trkpt><trkpt lat="14.51702092284355" lon="121.00070533914709"><ele>5.714285714285714</ele><time>2026-04-19T10:41:02Z</time></trkpt><trkpt lat="14.517038381427103" lon="121.00062483893487"><ele>5.571428571428571</ele><time>2026-04-19T10:41:03Z</time></trkpt><trkpt lat="14.51705162711433" lon="121.00054540515852"><ele>5.428571428571429</ele><time>2026-04-19T10:41:04Z</time></trkpt><trkpt lat="14.517063906026237" lon="121.00047111814813"><ele>5.285714285714286</ele><time>2026-04-19T10:41:05Z</time></trkpt><trkpt lat="14.517049597954983" lon="121.00040681028166"><ele>5.142857142857142</ele><time>2026-04-19T10:41:06Z</time></trkpt><trkpt lat="14.51705651907002" lon="121.00033604720825"><ele>5.0</ele><time>2026-04-19T10:41:07Z</time></trkpt><trkpt lat="14.517061555355397" lon="121.00025771771176"><ele>5.0</ele><time>2026-04-19T10:41:08Z</time></trkpt><trkpt lat="14.517072843115677" lon="121.00018583199669"><ele>5.0</ele><time>2026-04-19T10:41:09Z</time></trkpt><trkpt lat="14.517057213624259" lon="121.0001112190018"><ele>5.0</ele><time>2026-04-19T10:41:10Z</time></trkpt><trkpt lat="14.517075099682435" lon="121.00003484666125"><ele>5.0</ele><time>2026-04-19T10:41:11Z</time></trkpt><trkpt lat="14.517082727344798" lon="120.99995026888016"><ele>5.0</ele><time>2026-04-19T10:41:12Z</time></trkpt><trkpt lat="14.517085675419779" lon="120.99987235560408"><ele>5.0</ele><time>2026-04-19T10:41:13Z</time></trkpt><trkpt lat="14.517087724385378" lon="120.9997926062458"><ele>5.166666666666667</ele><time>2026-04-19T10:41:14Z</time></trkpt><trkpt lat="14.517088475075578" lon="120.99971141738257"><ele>5.333333333333334</ele><time>2026-04-19T10:41:15Z</time></trkpt><trkpt lat="14.517088876881619" lon="120.999627746284"><ele>5.5</ele><time>2026-04-19T10:41:16Z</time></trkpt><trkpt lat="14.517086786347644" lon="120.99954441476612"><ele>5.666666666666667</ele><time>2026-04-19T10:41:17Z</time></trkpt><trkpt lat="14.517085159555776" lon="120.99946273735117"><ele>5.833333333333333</ele><time>2026-04-19T10:41:18Z</time></trkpt><trkpt lat="14.517084723961883" lon="120.99938062307868"><ele>6.0</ele><time>2026-04-19T10:41:19Z</time></trkpt><trkpt lat="14.517082504133388" lon="120.99930059652571"><ele>6.0</ele><time>2026-04-19T10:41:20Z</time></trkpt><trkpt lat="14.517094272144096" lon="120.99921904484465"><ele>6.0</ele><time>2026-04-19T10:41:21Z</time></trkpt><trkpt lat="14.517096594125807" lon="120.99913826114975"><ele>6.0</ele><time>2026-04-19T10:41:22Z</time></trkpt><trkpt lat="14.517095151073127" lon="120.99905155554497"><ele>6.0</ele><time>2026-04-19T10:41:23Z</time></trkpt><trkpt lat="14.517094276073111" lon="120.99896316008322"><ele>6.0</ele><time>2026-04-19T10:41:24Z</time></trkpt><trkpt lat="14.517097890178237" lon="120.9988726226429"><ele>6.0</ele><time>2026-04-19T10:41:25Z</time></trkpt><trkpt lat="14.51711115240599" lon="120.99878435446898"><ele>5.833333333333333</ele><time>2026-04-19T10:41:26Z</time></trkpt><trkpt lat="14.517123242466795" lon="120.99869655981112"><ele>5.666666666666667</ele><time>2026-04-19T10:41:27Z</time></trkpt><trkpt lat="14.51712295243465" lon="120.99860776144476"><ele>5.5</ele><time>2026-04-19T10:41:28Z</time></trkpt><trkpt lat="14.517112318593977" lon="120.99852325330912"><ele>5.333333333333334</ele><time>2026-04-19T10:41:29Z</time></trkpt><trkpt lat="14.517110323665758" lon="120.99844258555032"><ele>5.166666666666667</ele><time>2026-04-19T10:41:30Z</time></trkpt><trkpt lat="14.517111176693971" lon="120.99836399159534"><ele>5.0</ele><time>2026-04-19T10:41:31Z</time></trkpt><trkpt lat="14.517107302027652" lon="120.99829710913946"><ele>5.0</ele><time>2026-04-19T10:41:32Z</time></trkpt><trkpt lat="14.517100440951687" lon="120.99823130804266"><ele>5.0</ele><time>2026-04-19T10:41:33Z</time></trkpt><trkpt lat="14.517097853864314" lon="120.99816353298117"><ele>5.0</ele><time>2026-04-19T10:41:34Z</time></trkpt><trkpt lat="14.517107522666592" lon="120.99808357927614"><ele>5.0</ele><time>2026-04-19T10:41:35Z</time></trkpt><trkpt lat="14.517097458093694" lon="120.9980029318674"><ele>5.0</ele><time>2026-04-19T10:41:37Z</time></trkpt><trkpt lat="14.517084290478643" lon="120.9979252973402"><ele>5.0</ele><time>2026-04-19T10:41:38Z</time></trkpt><trkpt lat="14.51707443179825" lon="120.99785435691828"><ele>5.0</ele><time>2026-04-19T10:41:39Z</time></trkpt><trkpt lat="14.51706300097571" lon="120.99778575033177"><ele>5.0</ele><time>2026-04-19T10:41:40Z</time></trkpt><trkpt lat="14.517060105037888" lon="120.99766239710085"><ele>5.0</ele><time>2026-04-19T10:41:42Z</time></trkpt><trkpt lat="14.517071096717162" lon="120.99752833470845"><ele>5.0</ele><time>2026-04-19T10:41:44Z</time></trkpt><trkpt lat="14.517078526694787" lon="120.99739820331565"><ele>5.0</ele><time>2026-04-19T10:41:46Z</time></trkpt><trkpt lat="14.517081245719936" lon="120.99732442562468"><ele>5.0</ele><time>2026-04-19T10:41:47Z</time></trkpt><trkpt lat="14.517083227782605" lon="120.99724571661966"><ele>4.75</ele><time>2026-04-19T10:41:48Z</time></trkpt><trkpt lat="14.517083640252414" lon="120.99717140992405"><ele>4.5</ele><time>2026-04-19T10:41:49Z</time></trkpt><trkpt lat="14.51706683789086" lon="120.99704712814884"><ele>4.25</ele><time>2026-04-19T10:41:51Z</time></trkpt><trkpt lat="14.517045201568815" lon="120.99694305870194"><ele>4.0</ele><time>2026-04-19T10:41:53Z</time></trkpt><trkpt lat="14.517094537793026" lon="120.99709867789639"><ele>3.9999999999999996</ele><time>2026-04-19T10:41:58Z</time></trkpt><trkpt lat="14.517068217228768" lon="120.9972000606073"><ele>4.0</ele><time>2026-04-19T10:42:36Z</time></trkpt><trkpt lat="14.5171059547163" lon="120.9971452893318"><ele>4.0</ele><time>2026-04-19T10:43:29Z</time></trkpt><trkpt lat="14.517109752520367" lon="120.99705843429311"><ele>4.0</ele><time>2026-04-19T10:43:32Z</time></trkpt><trkpt lat="14.517115875451163" lon="120.99697515330017"><ele>3.9999999999999996</ele><time>2026-04-19T10:43:34Z</time></trkpt><trkpt lat="14.517121885001442" lon="120.99687831031466"><ele>4.0</ele><time>2026-04-19T10:43:36Z</time></trkpt><trkpt lat="14.51713945313817" lon="120.99678612582841"><ele>4.0</ele><time>2026-04-19T10:43:38Z</time></trkpt><trkpt lat="14.517168040977804" lon="120.99668778921028"><ele>4.0</ele><time>2026-04-19T10:43:40Z</time></trkpt><trkpt lat="14.517181542089022" lon="120.99658433459419"><ele>4.0</ele><time>2026-04-19T10:43:41Z</time></trkpt><trkpt lat="14.517196810349454" lon="120.99646661220828"><ele>4.0</ele><time>2026-04-19T10:43:43Z</time></trkpt><trkpt lat="14.517204554041564" lon="120.9964016212449"><ele>4.0</ele><time>2026-04-19T10:43:44Z</time></trkpt><trkpt lat="14.51721788852068" lon="120.99628268155118"><ele>4.6</ele><time>2026-04-19T10:43:46Z</time></trkpt><trkpt lat="14.517227928052368" lon="120.99618592450703"><ele>5.2</ele><time>2026-04-19T10:43:48Z</time></trkpt><trkpt lat="14.517237465801543" lon="120.99608682308263"><ele>5.799999999999999</ele><time>2026-04-19T10:43:50Z</time></trkpt><trkpt lat="14.517246173171662" lon="120.99597422871797"><ele>6.3999999999999995</ele><time>2026-04-19T10:43:52Z</time></trkpt><trkpt lat="14.517259153836072" lon="120.99585901199534"><ele>7.0</ele><time>2026-04-19T10:43:54Z</time></trkpt><trkpt lat="14.517242791363042" lon="120.99579439652194"><ele>7.0</ele><time>2026-04-19T10:43:55Z</time></trkpt><trkpt lat="14.517229676641103" lon="120.99566054191116"><ele>6.999999999999999</ele><time>2026-04-19T10:43:57Z</time></trkpt><trkpt lat="14.517222859843748" lon="120.99559096686602"><ele>6.999999999999999</ele><time>2026-04-19T10:43:58Z</time></trkpt><trkpt lat="14.517290780691633" lon="120.99551284182098"><ele>7.0</ele><time>2026-04-19T10:43:59Z</time></trkpt><trkpt lat="14.517297647531734" lon="120.99543260635075"><ele>7.0</ele><time>2026-04-19T10:44:00Z</time></trkpt><trkpt lat="14.51730855016535" lon="120.99533646694874"><ele>7.000000000000001</ele><time>2026-04-19T10:44:01Z</time></trkpt><trkpt lat="14.517289887367955" lon="120.99524548069594"><ele>7.0</ele><time>2026-04-19T10:44:02Z</time></trkpt><trkpt lat="14.517276357507194" lon="120.99517191542083"><ele>7.0</ele><time>2026-04-19T10:44:03Z</time></trkpt><trkpt lat="14.517275778046043" lon="120.995102158469"><ele>7.0</ele><time>2026-04-19T10:44:04Z</time></trkpt><trkpt lat="14.517280935048607" lon="120.99503156429455"><ele>7.000000000000001</ele><time>2026-04-19T10:44:05Z</time></trkpt><trkpt lat="14.51729597139318" lon="120.99490617386259"><ele>7.0</ele><time>2026-04-19T10:44:07Z</time></trkpt><trkpt lat="14.51731352922393" lon="120.99477842453412"><ele>7.199999999999999</ele><time>2026-04-19T10:44:09.076Z</time></trkpt><trkpt lat="14.51734290039802" lon="120.99459399219377"><ele>7.3999999999999995</ele><time>2026-04-19T10:44:12Z</time></trkpt><trkpt lat="14.51735663905544" lon="120.99452611155145"><ele>7.6000000000000005</ele><time>2026-04-19T10:44:13Z</time></trkpt><trkpt lat="14.517369159972477" lon="120.9944573943874"><ele>7.800000000000001</ele><time>2026-04-19T10:44:14Z</time></trkpt><trkpt lat="14.517380547908866" lon="120.99438641627111"><ele>8.0</ele><time>2026-04-19T10:44:15Z</time></trkpt><trkpt lat="14.51739135747856" lon="120.99430758622805"><ele>7.999999999999999</ele><time>2026-04-19T10:44:16Z</time></trkpt><trkpt lat="14.51739794439513" lon="120.99423961162287"><ele>8.0</ele><time>2026-04-19T10:44:17Z</time></trkpt><trkpt lat="14.517407413280504" lon="120.994130062175"><ele>8.0</ele><time>2026-04-19T10:44:19Z</time></trkpt><trkpt lat="14.517419993564868" lon="120.99403419577433"><ele>8.0</ele><time>2026-04-19T10:44:21Z</time></trkpt><trkpt lat="14.517432371125158" lon="120.99395135810448"><ele>7.999999999999999</ele><time>2026-04-19T10:44:23Z</time></trkpt><trkpt lat="14.517440054538843" lon="120.99387605896801"><ele>8.0</ele><time>2026-04-19T10:44:25Z</time></trkpt><trkpt lat="14.517375098472396" lon="120.9939383624893"><ele>8.166666666666666</ele><time>2026-04-19T10:44:28Z</time></trkpt><trkpt lat="14.517414391003243" lon="120.99388341111903"><ele>8.333333333333332</ele><time>2026-04-19T10:44:43Z</time></trkpt><trkpt lat="14.517443622738531" lon="120.99379333969048"><ele>8.5</ele><time>2026-04-19T10:44:46Z</time></trkpt><trkpt lat="14.517451694423636" lon="120.99371942834598"><ele>8.666666666666666</ele><time>2026-04-19T10:44:48Z</time></trkpt><trkpt lat="14.517449625529405" lon="120.993624363345"><ele>8.833333333333334</ele><time>2026-04-19T10:44:50Z</time></trkpt><trkpt lat="14.517464577100853" lon="120.99351455354888"><ele>9.0</ele><time>2026-04-19T10:44:52Z</time></trkpt><trkpt lat="14.517495202237729" lon="120.99340910519074"><ele>8.25</ele><time>2026-04-19T10:44:54Z</time></trkpt><trkpt lat="14.517539226511246" lon="120.99324722467601"><ele>7.5</ele><time>2026-04-19T10:44:56Z</time></trkpt><trkpt lat="14.517585513438268" lon="120.99314713916006"><ele>6.75</ele><time>2026-04-19T10:44:58Z</time></trkpt><trkpt lat="14.5175984370397" lon="120.99304002498111"><ele>6.0</ele><time>2026-04-19T10:45:00Z</time></trkpt><trkpt lat="14.517597985749159" lon="120.99293504993065"><ele>6.0</ele><time>2026-04-19T10:45:02Z</time></trkpt><trkpt lat="14.517597068742942" lon="120.99282279613581"><ele>6.0</ele><time>2026-04-19T10:45:04Z</time></trkpt><trkpt lat="14.517605336317372" lon="120.99270523675312"><ele>6.0</ele><time>2026-04-19T10:45:06Z</time></trkpt><trkpt lat="14.517606401685825" lon="120.9926387760267"><ele>6.0</ele><time>2026-04-19T10:45:07Z</time></trkpt><trkpt lat="14.517629053846143" lon="120.99257234885278"><ele>6.0</ele><time>2026-04-19T10:45:08Z</time></trkpt><trkpt lat="14.51763836896011" lon="120.99249610403709"><ele>6.0</ele><time>2026-04-19T10:45:09Z</time></trkpt><trkpt lat="14.517632376644466" lon="120.9924220918949"><ele>6.333333333333333</ele><time>2026-04-19T10:45:10Z</time></trkpt><trkpt lat="14.517624229990648" lon="120.99234702188863"><ele>6.666666666666666</ele><time>2026-04-19T10:45:11Z</time></trkpt><trkpt lat="14.517609176094679" lon="120.9922487146365"><ele>7.0</ele><time>2026-04-19T10:45:12Z</time></trkpt><trkpt lat="14.517597929992858" lon="120.99216573838652"><ele>7.333333333333333</ele><time>2026-04-19T10:45:13Z</time></trkpt><trkpt lat="14.517582417920494" lon="120.99208213946744"><ele>7.666666666666666</ele><time>2026-04-19T10:45:14Z</time></trkpt><trkpt lat="14.517570426934265" lon="120.99199767897223"><ele>8.0</ele><time>2026-04-19T10:45:15Z</time></trkpt><trkpt lat="14.517553115726296" lon="120.99191526674444"><ele>8.0</ele><time>2026-04-19T10:45:16Z</time></trkpt><trkpt lat="14.517546880865082" lon="120.99185044516251"><ele>7.999999999999999</ele><time>2026-04-19T10:45:17Z</time></trkpt><trkpt lat="14.517542354266702" lon="120.99175186404575"><ele>8.0</ele><time>2026-04-19T10:45:18Z</time></trkpt><trkpt lat="14.517528867726673" lon="120.99167657493828"><ele>8.0</ele><time>2026-04-19T10:45:19Z</time></trkpt><trkpt lat="14.517522023661614" lon="120.9916007100099"><ele>7.999999999999999</ele><time>2026-04-19T10:45:20Z</time></trkpt><trkpt lat="14.517505803048138" lon="120.99152876170602"><ele>8.0</ele><time>2026-04-19T10:45:21Z</time></trkpt><trkpt lat="14.51749216855589" lon="120.99146048929524"><ele>8.0</ele><time>2026-04-19T10:45:22Z</time></trkpt><trkpt lat="14.51748183464892" lon="120.99139554931159"><ele>8.0</ele><time>2026-04-19T10:45:23Z</time></trkpt><trkpt lat="14.517464891321943" lon="120.99128322130416"><ele>8.0</ele><time>2026-04-19T10:45:25Z</time></trkpt><trkpt lat="14.517466349470217" lon="120.9911968830228"><ele>8.0</ele><time>2026-04-19T10:45:27Z</time></trkpt><trkpt lat="14.517472257978687" lon="120.99112804314815"><ele>8.0</ele><time>2026-04-19T10:45:30Z</time></trkpt><trkpt lat="14.517413420179567" lon="120.99098691420376"><ele>8.0</ele><time>2026-04-19T10:47:16Z</time></trkpt><trkpt lat="14.51737848666346" lon="120.99087569575416"><ele>8.200000000000001</ele><time>2026-04-19T10:47:17Z</time></trkpt><trkpt lat="14.517358252684222" lon="120.99075150699758"><ele>8.4</ele><time>2026-04-19T10:47:19Z</time></trkpt><trkpt lat="14.517342563430795" lon="120.99064661397605"><ele>8.600000000000001</ele><time>2026-04-19T10:47:20Z</time></trkpt><trkpt lat="14.517327844945056" lon="120.99054481208834"><ele>8.8</ele><time>2026-04-19T10:47:21Z</time></trkpt><trkpt lat="14.51731828360868" lon="120.99045481337859"><ele>9.0</ele><time>2026-04-19T10:47:22Z</time></trkpt><trkpt lat="14.517311515033992" lon="120.99036277381708"><ele>9.0</ele><time>2026-04-19T10:47:23Z</time></trkpt><trkpt lat="14.517307788459318" lon="120.99027178229797"><ele>9.0</ele><time>2026-04-19T10:47:24Z</time></trkpt><trkpt lat="14.517302854649552" lon="120.99017085415373"><ele>9.0</ele><time>2026-04-19T10:47:25Z</time></trkpt><trkpt lat="14.51729987373525" lon="120.99007020374451"><ele>9.0</ele><time>2026-04-19T10:47:26Z</time></trkpt><trkpt lat="14.51730156414565" lon="120.98996441185702"><ele>9.0</ele><time>2026-04-19T10:47:27Z</time></trkpt><trkpt lat="14.517304550143031" lon="120.989856242324"><ele>8.6</ele><time>2026-04-19T10:47:28Z</time></trkpt><trkpt lat="14.517309664431911" lon="120.98974497315196"><ele>8.2</ele><time>2026-04-19T10:47:29Z</time></trkpt><trkpt lat="14.517313458696062" lon="120.98963621830828"><ele>7.799999999999999</ele><time>2026-04-19T10:47:30Z</time></trkpt><trkpt lat="14.517317632795729" lon="120.989529544936"><ele>7.3999999999999995</ele><time>2026-04-19T10:47:31Z</time></trkpt><trkpt lat="14.51732859963008" lon="120.98941446017818"><ele>7.0</ele><time>2026-04-19T10:47:32Z</time></trkpt><trkpt lat="14.517335331345816" lon="120.98929635741892"><ele>7.0</ele><time>2026-04-19T10:47:33Z</time></trkpt><trkpt lat="14.517341238294282" lon="120.98917837166869"><ele>7.0</ele><time>2026-04-19T10:47:34Z</time></trkpt><trkpt lat="14.517348255029212" lon="120.98906077430549"><ele>7.0</ele><time>2026-04-19T10:47:35Z</time></trkpt><trkpt lat="14.517355192516646" lon="120.98894426413797"><ele>7.0</ele><time>2026-04-19T10:47:36Z</time></trkpt><trkpt lat="14.517361398185397" lon="120.98882701481067"><ele>6.75</ele><time>2026-04-19T10:47:37Z</time></trkpt><trkpt lat="14.51737152998388" lon="120.98870815092506"><ele>6.5</ele><time>2026-04-19T10:47:38Z</time></trkpt><trkpt lat="14.5173801347141" lon="120.98858893815047"><ele>6.25</ele><time>2026-04-19T10:47:39Z</time></trkpt><trkpt lat="14.5173884249884" lon="120.98847240474242"><ele>6.0</ele><time>2026-04-19T10:47:40Z</time></trkpt><trkpt lat="14.517393217870973" lon="120.98835919522553"><ele>5.3999999999999995</ele><time>2026-04-19T10:47:41Z</time></trkpt><trkpt lat="14.517402605898587" lon="120.9882459873897"><ele>4.8</ele><time>2026-04-19T10:47:42Z</time></trkpt><trkpt lat="14.517411284332455" lon="120.9881343298932"><ele>4.199999999999999</ele><time>2026-04-19T10:47:43Z</time></trkpt><trkpt lat="14.517418413657468" lon="120.98802625046038"><ele>3.5999999999999996</ele><time>2026-04-19T10:47:44Z</time></trkpt><trkpt lat="14.517424676675004" lon="120.98791764111485"><ele>3.0</ele><time>2026-04-19T10:47:45Z</time></trkpt><trkpt lat="14.51742916829162" lon="120.9878078337109"><ele>3.0</ele><time>2026-04-19T10:47:46Z</time></trkpt><trkpt lat="14.517435828855284" lon="120.98769839890757"><ele>3.0</ele><time>2026-04-19T10:47:47Z</time></trkpt><trkpt lat="14.517444396524722" lon="120.98758929655901"><ele>3.0</ele><time>2026-04-19T10:47:48Z</time></trkpt><trkpt lat="14.517453575393684" lon="120.9874776984846"><ele>3.0</ele><time>2026-04-19T10:47:49Z</time></trkpt><trkpt lat="14.517465087510923" lon="120.98736489055787"><ele>3.0</ele><time>2026-04-19T10:47:50Z</time></trkpt><trkpt lat="14.517468396281854" lon="120.98725136838446"><ele>3.0</ele><time>2026-04-19T10:47:51Z</time></trkpt><trkpt lat="14.51747362633138" lon="120.98713987905563"><ele>3.0</ele><time>2026-04-19T10:47:52Z</time></trkpt><trkpt lat="14.51747774768541" lon="120.98702864008415"><ele>3.0</ele><time>2026-04-19T10:47:53Z</time></trkpt><trkpt lat="14.517488323050724" lon="120.98691730815618"><ele>3.0</ele><time>2026-04-19T10:47:54Z</time></trkpt><trkpt lat="14.517499767214332" lon="120.98680475059598"><ele>3.0</ele><time>2026-04-19T10:47:55Z</time></trkpt><trkpt lat="14.517509037057518" lon="120.98668932093223"><ele>3.2</ele><time>2026-04-19T10:47:56Z</time></trkpt><trkpt lat="14.517546410553113" lon="120.98657578815786"><ele>3.4</ele><time>2026-04-19T10:47:57Z</time></trkpt><trkpt lat="14.517552157934874" lon="120.98646423920934"><ele>3.6000000000000005</ele><time>2026-04-19T10:47:58Z</time></trkpt><trkpt lat="14.517557793039574" lon="120.98635486937344"><ele>3.8000000000000003</ele><time>2026-04-19T10:47:59Z</time></trkpt><trkpt lat="14.517563561526467" lon="120.98624291092811"><ele>4.0</ele><time>2026-04-19T10:48:00Z</time></trkpt><trkpt lat="14.517554686641375" lon="120.98612906699843"><ele>4.0</ele><time>2026-04-19T10:48:01Z</time></trkpt><trkpt lat="14.517562119642102" lon="120.98601872675263"><ele>4.0</ele><time>2026-04-19T10:48:02Z</time></trkpt><trkpt lat="14.51756640285542" lon="120.98591149445068"><ele>4.0</ele><time>2026-04-19T10:48:03Z</time></trkpt><trkpt lat="14.517566338367368" lon="120.98580895399564"><ele>4.0</ele><time>2026-04-19T10:48:04Z</time></trkpt><trkpt lat="14.517559985642263" lon="120.98570800705473"><ele>4.0</ele><time>2026-04-19T10:48:05Z</time></trkpt><trkpt lat="14.517545822063681" lon="120.98560881153145"><ele>4.2</ele><time>2026-04-19T10:48:06Z</time></trkpt><trkpt lat="14.51752279943257" lon="120.9855105992072"><ele>4.4</ele><time>2026-04-19T10:48:07Z</time></trkpt><trkpt lat="14.51749094607725" lon="120.98541743483075"><ele>4.6</ele><time>2026-04-19T10:48:08Z</time></trkpt><trkpt lat="14.517450427386905" lon="120.98532893589604"><ele>4.8</ele><time>2026-04-19T10:48:09Z</time></trkpt><trkpt lat="14.517398951799917" lon="120.9852434731131"><ele>5.0</ele><time>2026-04-19T10:48:10Z</time></trkpt><trkpt lat="14.51734123115202" lon="120.9851638889512"><ele>5.0</ele><time>2026-04-19T10:48:11Z</time></trkpt><trkpt lat="14.517273808745983" lon="120.98508948466672"><ele>5.0</ele><time>2026-04-19T10:48:12Z</time></trkpt><trkpt lat="14.517198209414863" lon="120.98502083620038"><ele>5.0</ele><time>2026-04-19T10:48:13Z</time></trkpt><trkpt lat="14.517116295205103" lon="120.98495779876608"><ele>5.0</ele><time>2026-04-19T10:48:14Z</time></trkpt><trkpt lat="14.517027374550217" lon="120.98490455693066"><ele>5.0</ele><time>2026-04-19T10:48:15Z</time></trkpt><trkpt lat="14.51693420226428" lon="120.98485996945959"><ele>4.2</ele><time>2026-04-19T10:48:16Z</time></trkpt><trkpt lat="14.516833892213356" lon="120.98482256181615"><ele>3.4</ele><time>2026-04-19T10:48:17Z</time></trkpt><trkpt lat="14.516727756123634" lon="120.98480749734391"><ele>2.6</ele><time>2026-04-19T10:48:18Z</time></trkpt><trkpt lat="14.516624903205248" lon="120.9847774898541"><ele>1.8</ele><time>2026-04-19T10:48:19Z</time></trkpt><trkpt lat="14.516526146491648" lon="120.98473391977652"><ele>1.0</ele><time>2026-04-19T10:48:20Z</time></trkpt><trkpt lat="14.516421271063242" lon="120.98471383937174"><ele>1.0</ele><time>2026-04-19T10:48:21Z</time></trkpt><trkpt lat="14.516313849031924" lon="120.98468657893164"><ele>1.0</ele><time>2026-04-19T10:48:22Z</time></trkpt><trkpt lat="14.51621224085353" lon="120.98465921512673"><ele>1.0</ele><time>2026-04-19T10:48:23Z</time></trkpt><trkpt lat="14.516112840605118" lon="120.98463040992337"><ele>1.0</ele><time>2026-04-19T10:48:24Z</time></trkpt><trkpt lat="14.51601681262758" lon="120.98459896875062"><ele>1.0</ele><time>2026-04-19T10:48:25Z</time></trkpt><trkpt lat="14.515920928509232" lon="120.98455787631677"><ele>1.0</ele><time>2026-04-19T10:48:26Z</time></trkpt><trkpt lat="14.515829777250326" lon="120.98450636723256"><ele>1.0</ele><time>2026-04-19T10:48:27Z</time></trkpt><trkpt lat="14.515744141096377" lon="120.98444130593283"><ele>1.0</ele><time>2026-04-19T10:48:28Z</time></trkpt><trkpt lat="14.515667535660217" lon="120.98436317599048"><ele>1.0</ele><time>2026-04-19T10:48:29Z</time></trkpt><trkpt lat="14.515598897236574" lon="120.9842748823356"><ele>1.0</ele><time>2026-04-19T10:48:30Z</time></trkpt><trkpt lat="14.515544817619938" lon="120.9841798768781"><ele>0.8</ele><time>2026-04-19T10:48:31Z</time></trkpt><trkpt lat="14.51550711258083" lon="120.98408014732732"><ele>0.6000000000000001</ele><time>2026-04-19T10:48:32Z</time></trkpt><trkpt lat="14.515480582699455" lon="120.98397787537817"><ele>0.4</ele><time>2026-04-19T10:48:33Z</time></trkpt><trkpt lat="14.515466880318783" lon="120.98387405081097"><ele>0.2</ele><time>2026-04-19T10:48:34Z</time></trkpt><trkpt lat="14.51546856707338" lon="120.98376714950392"><ele>0.0</ele><time>2026-04-19T10:48:35Z</time></trkpt><trkpt lat="14.515480327568351" lon="120.98365818914087"><ele>0.0</ele><time>2026-04-19T10:48:36Z</time></trkpt><trkpt lat="14.515503977790049" lon="120.98354846990162"><ele>0.0</ele><time>2026-04-19T10:48:37Z</time></trkpt><trkpt lat="14.515542618015056" lon="120.98343865541946"><ele>0.0</ele><time>2026-04-19T10:48:38Z</time></trkpt><trkpt lat="14.515587447086821" lon="120.9833303096402"><ele>0.0</ele><time>2026-04-19T10:48:39Z</time></trkpt><trkpt lat="14.51563874839007" lon="120.98322046938529"><ele>0.0</ele><time>2026-04-19T10:48:40Z</time></trkpt><trkpt lat="14.515696356175658" lon="120.9831084154884"><ele>0.0</ele><time>2026-04-19T10:48:41Z</time></trkpt><trkpt lat="14.515756498277973" lon="120.98299491687136"><ele>0.0</ele><time>2026-04-19T10:48:42Z</time></trkpt><trkpt lat="14.51581654226428" lon="120.98287854850031"><ele>0.0</ele><time>2026-04-19T10:48:43Z</time></trkpt><trkpt lat="14.515877291853888" lon="120.98276210069042"><ele>0.0</ele><time>2026-04-19T10:48:44Z</time></trkpt><trkpt lat="14.515939781945304" lon="120.98264649255799"><ele>0.0</ele><time>2026-04-19T10:48:45Z</time></trkpt><trkpt lat="14.516004557098265" lon="120.98253142255764"><ele>0.0</ele><time>2026-04-19T10:48:46Z</time></trkpt><trkpt lat="14.516071741516473" lon="120.98241757789734"><ele>0.0</ele><time>2026-04-19T10:48:47Z</time></trkpt><trkpt lat="14.516140451741734" lon="120.98230479153489"><ele>0.0</ele><time>2026-04-19T10:48:48Z</time></trkpt><trkpt lat="14.516211640668873" lon="120.98219192510174"><ele>0.0</ele><time>2026-04-19T10:48:49Z</time></trkpt><trkpt lat="14.516284652028965" lon="120.98208098580658"><ele>0.0</ele><time>2026-04-19T10:48:50Z</time></trkpt><trkpt lat="14.516358172769007" lon="120.9819747396105"><ele>0.0</ele><time>2026-04-19T10:48:51Z</time></trkpt><trkpt lat="14.516433641951597" lon="120.98187252750215"><ele>0.0</ele><time>2026-04-19T10:48:52Z</time></trkpt><trkpt lat="14.516510778087813" lon="120.98177533697753"><ele>0.0</ele><time>2026-04-19T10:48:53Z</time></trkpt><trkpt lat="14.516586227036202" lon="120.98168287705448"><ele>0.0</ele><time>2026-04-19T10:48:54Z</time></trkpt><trkpt lat="14.516646165104444" lon="120.98158380126596"><ele>0.0</ele><time>2026-04-19T10:48:55Z</time></trkpt><trkpt lat="14.51671202429501" lon="120.98149831154488"><ele>0.0</ele><time>2026-04-19T10:48:56Z</time></trkpt><trkpt lat="14.516779762862702" lon="120.98142033638567"><ele>0.0</ele><time>2026-04-19T10:48:57Z</time></trkpt><trkpt lat="14.516841052166473" lon="120.98134971925809"><ele>0.0</ele><time>2026-04-19T10:48:58Z</time></trkpt><trkpt lat="14.516896910078916" lon="120.98128508353037"><ele>0.0</ele><time>2026-04-19T10:48:59Z</time></trkpt><trkpt lat="14.516944960069944" lon="120.98123094323394"><ele>0.0</ele><time>2026-04-19T10:49:00Z</time></trkpt><trkpt lat="14.517069760159297" lon="120.98126097256963"><ele>0.0</ele><time>2026-04-19T10:49:01Z</time></trkpt><trkpt lat="14.517146589211558" lon="120.98126026760663"><ele>0.0</ele><time>2026-04-19T10:49:02Z</time></trkpt><trkpt lat="14.517222687029017" lon="120.98127970506836"><ele>0.0</ele><time>2026-04-19T10:49:03Z</time></trkpt><trkpt lat="14.517302254995323" lon="120.98129304455775"><ele>0.0</ele><time>2026-04-19T10:49:04Z</time></trkpt><trkpt lat="14.51737096673923" lon="120.98136182579242"><ele>0.0</ele><time>2026-04-19T10:49:05Z</time></trkpt><trkpt lat="14.517444732728094" lon="120.98141931273486"><ele>0.0</ele><time>2026-04-19T10:49:06Z</time></trkpt><trkpt lat="14.51751956270137" lon="120.98148368077712"><ele>0.0</ele><time>2026-04-19T10:49:07Z</time></trkpt><trkpt lat="14.517594797345227" lon="120.98155726673957"><ele>0.0</ele><time>2026-04-19T10:49:08Z</time></trkpt><trkpt lat="14.517676206666259" lon="120.98163119418884"><ele>0.0</ele><time>2026-04-19T10:49:09Z</time></trkpt><trkpt lat="14.517761464358998" lon="120.98170614322552"><ele>0.0</ele><time>2026-04-19T10:49:10Z</time></trkpt><trkpt lat="14.517851185002286" lon="120.98178365902086"><ele>0.0</ele><time>2026-04-19T10:49:11Z</time></trkpt><trkpt lat="14.517943630095905" lon="120.98186079189121"><ele>0.75</ele><time>2026-04-19T10:49:12Z</time></trkpt><trkpt lat="14.518040824739595" lon="120.98193907717628"><ele>1.5</ele><time>2026-04-19T10:49:13Z</time></trkpt><trkpt lat="14.518138901081446" lon="120.98201566033487"><ele>2.25</ele><time>2026-04-19T10:49:14Z</time></trkpt><trkpt lat="14.518238372756768" lon="120.98208858159416"><ele>3.0</ele><time>2026-04-19T10:49:15Z</time></trkpt><trkpt lat="14.518339071639154" lon="120.98215848528767"><ele>3.0</ele><time>2026-04-19T10:49:16Z</time></trkpt><trkpt lat="14.518443512099072" lon="120.98222540161521"><ele>3.0</ele><time>2026-04-19T10:49:17Z</time></trkpt><trkpt lat="14.518548969809842" lon="120.98228759622405"><ele>3.0</ele><time>2026-04-19T10:49:18Z</time></trkpt><trkpt lat="14.518654658302502" lon="120.9823481777449"><ele>3.0</ele><time>2026-04-19T10:49:19Z</time></trkpt><trkpt lat="14.518761314017171" lon="120.98240852312892"><ele>2.75</ele><time>2026-04-19T10:49:20Z</time></trkpt><trkpt lat="14.518866835066543" lon="120.98246771864899"><ele>2.5</ele><time>2026-04-19T10:49:21Z</time></trkpt><trkpt lat="14.518974024503077" lon="120.98252634590476"><ele>2.25</ele><time>2026-04-19T10:49:22Z</time></trkpt><trkpt lat="14.51907847494758" lon="120.98257434922476"><ele>2.0</ele><time>2026-04-19T10:49:23Z</time></trkpt><trkpt lat="14.519181257565961" lon="120.9826308983423"><ele>3.25</ele><time>2026-04-19T10:49:24Z</time></trkpt><trkpt lat="14.519284698815145" lon="120.98268551906621"><ele>4.5</ele><time>2026-04-19T10:49:25Z</time></trkpt><trkpt lat="14.519387101592626" lon="120.98273874365624"><ele>5.75</ele><time>2026-04-19T10:49:26Z</time></trkpt><trkpt lat="14.519491308228305" lon="120.98279203652478"><ele>7.0</ele><time>2026-04-19T10:49:27Z</time></trkpt><trkpt lat="14.519597461782311" lon="120.98284482947999"><ele>4.25</ele><time>2026-04-19T10:49:28Z</time></trkpt><trkpt lat="14.519703196391138" lon="120.98290558593004"><ele>1.5</ele><time>2026-04-19T10:49:29Z</time></trkpt><trkpt lat="14.519807183078374" lon="120.98297243757469"><ele>-1.25</ele><time>2026-04-19T10:49:30Z</time></trkpt><trkpt lat="14.519919371461706" lon="120.98304082820607"><ele>-4.0</ele><time>2026-04-19T10:49:31Z</time></trkpt><trkpt lat="14.520027601452115" lon="120.98311622656306"><ele>-4.0</ele><time>2026-04-19T10:49:32Z</time></trkpt><trkpt lat="14.520134182117376" lon="120.98319445472036"><ele>-4.0</ele><time>2026-04-19T10:49:33Z</time></trkpt><trkpt lat="14.520240844080137" lon="120.98327742568998"><ele>-4.0</ele><time>2026-04-19T10:49:34Z</time></trkpt><trkpt lat="14.520346944062585" lon="120.98336243775935"><ele>-4.0</ele><time>2026-04-19T10:49:35Z</time></trkpt><trkpt lat="14.520452026474873" lon="120.98345166316093"><ele>-5.0</ele><time>2026-04-19T10:49:36Z</time></trkpt><trkpt lat="14.520551777967425" lon="120.98355197401625"><ele>-6.0</ele><time>2026-04-19T10:49:37Z</time></trkpt><trkpt lat="14.520651878194583" lon="120.98365285465631"><ele>-7.0</ele><time>2026-04-19T10:49:38Z</time></trkpt><trkpt lat="14.520749515480507" lon="120.98375875106056"><ele>-8.0</ele><time>2026-04-19T10:49:39Z</time></trkpt><trkpt lat="14.520847196915735" lon="120.98386807249653"><ele>-8.0</ele><time>2026-04-19T10:49:40Z</time></trkpt><trkpt lat="14.520944265325086" lon="120.9839810104084"><ele>-8.0</ele><time>2026-04-19T10:49:41Z</time></trkpt><trkpt lat="14.521040971289448" lon="120.98409620588328"><ele>-8.0</ele><time>2026-04-19T10:49:42Z</time></trkpt><trkpt lat="14.521137988608006" lon="120.98421350459225"><ele>-8.0</ele><time>2026-04-19T10:49:43Z</time></trkpt><trkpt lat="14.521241464115928" lon="120.98433168710116"><ele>-6.25</ele><time>2026-04-19T10:49:44Z</time></trkpt><trkpt lat="14.521338979700396" lon="120.98444389780727"><ele>-4.5</ele><time>2026-04-19T10:49:45Z</time></trkpt><trkpt lat="14.521434921388614" lon="120.9845588690176"><ele>-2.75</ele><time>2026-04-19T10:49:46Z</time></trkpt><trkpt lat="14.521528359421307" lon="120.98467058006499"><ele>-1.0</ele><time>2026-04-19T10:49:47Z</time></trkpt><trkpt lat="14.52161863618075" lon="120.98477936181672"><ele>-1.0</ele><time>2026-04-19T10:49:48Z</time></trkpt><trkpt lat="14.521703875756234" lon="120.98488253937859"><ele>-1.0</ele><time>2026-04-19T10:49:49Z</time></trkpt><trkpt lat="14.52178225745471" lon="120.98498591453875"><ele>-1.0</ele><time>2026-04-19T10:49:50Z</time></trkpt><trkpt lat="14.521859310574841" lon="120.98508419447121"><ele>-1.0</ele><time>2026-04-19T10:49:51Z</time></trkpt><trkpt lat="14.521927136273959" lon="120.98517865948313"><ele>-0.8</ele><time>2026-04-19T10:49:52Z</time></trkpt><trkpt lat="14.521985163228766" lon="120.98527124751732"><ele>-0.6000000000000001</ele><time>2026-04-19T10:49:53Z</time></trkpt><trkpt lat="14.522031614630386" lon="120.9853636079903"><ele>-0.4</ele><time>2026-04-19T10:49:54Z</time></trkpt><trkpt lat="14.522066423782722" lon="120.98545367545724"><ele>-0.2</ele><time>2026-04-19T10:49:55Z</time></trkpt><trkpt lat="14.522039057663504" lon="120.98556187042949"><ele>0.0</ele><time>2026-04-19T10:49:56Z</time></trkpt><trkpt lat="14.522065573643275" lon="120.98564393906057"><ele>0.0</ele><time>2026-04-19T10:49:57Z</time></trkpt><trkpt lat="14.52210420377928" lon="120.98572642350011"><ele>0.0</ele><time>2026-04-19T10:49:58Z</time></trkpt><trkpt lat="14.522161308638843" lon="120.98579543759608"><ele>0.0</ele><time>2026-04-19T10:49:59Z</time></trkpt><trkpt lat="14.52225236205551" lon="120.98584991543207"><ele>0.0</ele><time>2026-04-19T10:50:00Z</time></trkpt><trkpt lat="14.522341741678941" lon="120.98587266010759"><ele>0.0</ele><time>2026-04-19T10:50:01Z</time></trkpt><trkpt lat="14.522433808756956" lon="120.98587231816894"><ele>0.0</ele><time>2026-04-19T10:50:02Z</time></trkpt><trkpt lat="14.522530127839293" lon="120.98584093050219"><ele>0.0</ele><time>2026-04-19T10:50:03Z</time></trkpt><trkpt lat="14.522611648398009" lon="120.98578853829656"><ele>0.0</ele><time>2026-04-19T10:50:04Z</time></trkpt><trkpt lat="14.522674697037823" lon="120.98571976445186"><ele>0.0</ele><time>2026-04-19T10:50:05Z</time></trkpt><trkpt lat="14.52276583949669" lon="120.98568762802199"><ele>0.0</ele><time>2026-04-19T10:50:06Z</time></trkpt><trkpt lat="14.522864937759238" lon="120.98565719699344"><ele>0.6</ele><time>2026-04-19T10:50:07Z</time></trkpt><trkpt lat="14.522957989790697" lon="120.98563456009333"><ele>1.2</ele><time>2026-04-19T10:50:08Z</time></trkpt><trkpt lat="14.523056339418806" lon="120.98561577301368"><ele>1.7999999999999998</ele><time>2026-04-19T10:50:09Z</time></trkpt><trkpt lat="14.52315595238573" lon="120.98560161579617"><ele>2.4</ele><time>2026-04-19T10:50:10Z</time></trkpt><trkpt lat="14.523253156686216" lon="120.98558927629547"><ele>3.0</ele><time>2026-04-19T10:50:11Z</time></trkpt><trkpt lat="14.5233527690681" lon="120.98558385474857"><ele>3.0</ele><time>2026-04-19T10:50:12Z</time></trkpt><trkpt lat="14.52344410335615" lon="120.98557585707987"><ele>3.0</ele><time>2026-04-19T10:50:13Z</time></trkpt><trkpt lat="14.523529861106416" lon="120.9855666118231"><ele>3.0</ele><time>2026-04-19T10:50:14Z</time></trkpt><trkpt lat="14.52360749431721" lon="120.98555771096804"><ele>3.0</ele><time>2026-04-19T10:50:15Z</time></trkpt><trkpt lat="14.523679602581709" lon="120.98554882849797"><ele>3.0</ele><time>2026-04-19T10:50:16Z</time></trkpt><trkpt lat="14.523743672407905" lon="120.98554155163187"><ele>3.0</ele><time>2026-04-19T10:50:17Z</time></trkpt><trkpt lat="14.523849097931665" lon="120.98552921130667"><ele>2.8333333333333335</ele><time>2026-04-19T10:50:19Z</time></trkpt><trkpt lat="14.52392543549928" lon="120.9855208484473"><ele>2.6666666666666665</ele><time>2026-04-19T10:50:21Z</time></trkpt><trkpt lat="14.523984684854225" lon="120.98549507361977"><ele>2.5</ele><time>2026-04-19T10:50:45Z</time></trkpt><trkpt lat="14.524049785838992" lon="120.98549012371691"><ele>2.333333333333333</ele><time>2026-04-19T10:51:06Z</time></trkpt><trkpt lat="14.52412978545059" lon="120.98548908440969"><ele>2.1666666666666665</ele><time>2026-04-19T10:51:09Z</time></trkpt><trkpt lat="14.524207600432467" lon="120.9854827322416"><ele>2.0</ele><time>2026-04-19T10:51:11Z</time></trkpt><trkpt lat="14.524314279265843" lon="120.98547372516326"><ele>2.0</ele><time>2026-04-19T10:51:13Z</time></trkpt><trkpt lat="14.524418785805846" lon="120.98544941927904"><ele>2.0</ele><time>2026-04-19T10:51:15Z</time></trkpt><trkpt lat="14.524524845039943" lon="120.98544766703783"><ele>2.0</ele><time>2026-04-19T10:51:17Z</time></trkpt><trkpt lat="14.524596744924068" lon="120.98543014283506"><ele>2.0</ele><time>2026-04-19T10:51:18Z</time></trkpt><trkpt lat="14.524693827228944" lon="120.98517612229148"><ele>1.4999999999999998</ele><time>2026-04-19T10:51:20Z</time></trkpt><trkpt lat="14.52468506984616" lon="120.98510235852561"><ele>1.0</ele><time>2026-04-19T10:51:21Z</time></trkpt><trkpt lat="14.524679282842447" lon="120.98501756606335"><ele>0.5</ele><time>2026-04-19T10:51:22Z</time></trkpt><trkpt lat="14.524670735653546" lon="120.98493072865544"><ele>0.0</ele><time>2026-04-19T10:51:23Z</time></trkpt><trkpt lat="14.524661158181583" lon="120.98483836358045"><ele>-0.49999999999999994</ele><time>2026-04-19T10:51:24Z</time></trkpt><trkpt lat="14.524652336038969" lon="120.98474658989976"><ele>-1.0</ele><time>2026-04-19T10:51:25Z</time></trkpt><trkpt lat="14.52464194996468" lon="120.98464633009752"><ele>0.3999999999999999</ele><time>2026-04-19T10:51:26Z</time></trkpt><trkpt lat="14.52463144612784" lon="120.98454056385324"><ele>1.7999999999999998</ele><time>2026-04-19T10:51:27Z</time></trkpt><trkpt lat="14.524620210193879" lon="120.98442907915035"><ele>3.1999999999999997</ele><time>2026-04-19T10:51:28Z</time></trkpt><trkpt lat="14.524608654189947" lon="120.98431283624164"><ele>4.6</ele><time>2026-04-19T10:51:29Z</time></trkpt><trkpt lat="14.52459684791831" lon="120.98419317968342"><ele>6.0</ele><time>2026-04-19T10:51:30Z</time></trkpt><trkpt lat="14.524585002489326" lon="120.984070831697"><ele>6.25</ele><time>2026-04-19T10:51:31Z</time></trkpt><trkpt lat="14.52457267828325" lon="120.9839479796565"><ele>6.5</ele><time>2026-04-19T10:51:32Z</time></trkpt><trkpt lat="14.52456034384745" lon="120.98382508005093"><ele>6.75</ele><time>2026-04-19T10:51:33Z</time></trkpt><trkpt lat="14.524547736789241" lon="120.98369946405617"><ele>7.0</ele><time>2026-04-19T10:51:34Z</time></trkpt><trkpt lat="14.524534931464142" lon="120.98357200647219"><ele>6.75</ele><time>2026-04-19T10:51:35Z</time></trkpt><trkpt lat="14.52452231135738" lon="120.98344678012465"><ele>6.5</ele><time>2026-04-19T10:51:36Z</time></trkpt><trkpt lat="14.524510166212519" lon="120.98332467023737"><ele>6.25</ele><time>2026-04-19T10:51:37Z</time></trkpt><trkpt lat="14.524498901456937" lon="120.98320762819279"><ele>6.0</ele><time>2026-04-19T10:51:38Z</time></trkpt><trkpt lat="14.52448671047172" lon="120.9830923554994"><ele>6.0</ele><time>2026-04-19T10:51:39Z</time></trkpt><trkpt lat="14.524475335533927" lon="120.98298997870644"><ele>6.0</ele><time>2026-04-19T10:51:40Z</time></trkpt><trkpt lat="14.524465397335886" lon="120.9828992265509"><ele>6.0</ele><time>2026-04-19T10:51:41Z</time></trkpt><trkpt lat="14.52445694364123" lon="120.9828204053732"><ele>6.0</ele><time>2026-04-19T10:51:42Z</time></trkpt><trkpt lat="14.524444098285754" lon="120.98270605697513"><ele>6.0</ele><time>2026-04-19T10:51:44Z</time></trkpt><trkpt lat="14.524379639445225" lon="120.98267071245112"><ele>6.0</ele><time>2026-04-19T10:51:45Z</time></trkpt><trkpt lat="14.524345666011273" lon="120.9826083942359"><ele>6.0</ele><time>2026-04-19T10:51:48Z</time></trkpt><trkpt lat="14.524319635715644" lon="120.98253305295158"><ele>6.0</ele><time>2026-04-19T10:51:51Z</time></trkpt><trkpt lat="14.524224898271973" lon="120.98255169687712"><ele>6.0</ele><time>2026-04-19T10:51:53Z</time></trkpt><trkpt lat="14.524154749147424" lon="120.98255993843604"><ele>6.0</ele><time>2026-04-19T10:51:55Z</time></trkpt><trkpt lat="14.524083881770377" lon="120.98256783000167"><ele>6.0</ele><time>2026-04-19T10:51:57Z</time></trkpt><trkpt lat="14.523989701731667" lon="120.98258021022193"><ele>6.0</ele><time>2026-04-19T10:51:59Z</time></trkpt><trkpt lat="14.523875666075197" lon="120.98259295764855"><ele>6.0</ele><time>2026-04-19T10:52:01Z</time></trkpt><trkpt lat="14.523767693507383" lon="120.98260426391334"><ele>6.0</ele><time>2026-04-19T10:52:03Z</time></trkpt><trkpt lat="14.52367256159734" lon="120.98261420494656"><ele>6.0</ele><time>2026-04-19T10:52:05Z</time></trkpt><trkpt lat="14.523596174430871" lon="120.9826304008927"><ele>6.0</ele><time>2026-04-19T10:52:08Z</time></trkpt><trkpt lat="14.523472692632065" lon="120.98234801054855"><ele>7.5</ele><time>2026-04-19T10:52:26Z</time></trkpt><trkpt lat="14.523559889463282" lon="120.98232513848116"><ele>9.0</ele><time>2026-04-19T10:52:28Z</time></trkpt><trkpt lat="14.523517234774188" lon="120.9822652882319"><ele>10.5</ele><time>2026-04-19T10:52:30Z</time></trkpt><trkpt lat="14.523454031287429" lon="120.98226535718456"><ele>12.0</ele><time>2026-04-19T10:52:32Z</time></trkpt><trkpt lat="14.523373900750723" lon="120.98227089112868"><ele>13.5</ele><time>2026-04-19T10:52:34Z</time></trkpt><trkpt lat="14.52329959228386" lon="120.98227307331895"><ele>15.0</ele><time>2026-04-19T10:52:36Z</time></trkpt><trkpt lat="14.523218113956604" lon="120.98227519483927"><ele>15.0</ele><time>2026-04-19T10:52:38Z</time></trkpt><trkpt lat="14.523146045500539" lon="120.98227343431999"><ele>15.0</ele><time>2026-04-19T10:52:40Z</time></trkpt><trkpt lat="14.523079682762647" lon="120.98227237717985"><ele>15.0</ele><time>2026-04-19T10:52:42Z</time></trkpt><trkpt lat="14.523013129624633" lon="120.98227505810554"><ele>15.0</ele><time>2026-04-19T10:52:45Z</time></trkpt><trkpt lat="14.52300058767406" lon="120.98234358290479"><ele>15.0</ele><time>2026-04-19T10:53:15Z</time></trkpt><trkpt lat="14.523005081957757" lon="120.98241444671164"><ele>15.0</ele><time>2026-04-19T10:53:23Z</time></trkpt><trkpt lat="14.523009354820784" lon="120.9824883339501"><ele>15.0</ele><time>2026-04-19T10:53:30Z</time></trkpt><trkpt lat="14.523014045749013" lon="120.98258901221783"><ele>16.0</ele><time>2026-04-19T10:53:37.007Z</time></trkpt><trkpt lat="14.523478076630392" lon="120.98266137812978"><ele>16.0</ele><time>2026-04-19T11:01:31Z</time></trkpt><trkpt lat="14.523358780398777" lon="120.98276463137677"><ele>16.0</ele><time>2026-04-19T11:01:32Z</time></trkpt><trkpt lat="14.523304906546118" lon="120.982730385773"><ele>16.0</ele><time>2026-04-19T11:01:34Z</time></trkpt><trkpt lat="14.523235347289704" lon="120.98268685153079"><ele>16.0</ele><time>2026-04-19T11:01:36Z</time></trkpt><trkpt lat="14.523160317372863" lon="120.98268610453134"><ele>16.0</ele><time>2026-04-19T11:01:38Z</time></trkpt><trkpt lat="14.52305760375523" lon="120.98270093893602"><ele>16.0</ele><time>2026-04-19T11:01:40Z</time></trkpt><trkpt lat="14.522947758817466" lon="120.98271590044038"><ele>16.0</ele><time>2026-04-19T11:01:42Z</time></trkpt><trkpt lat="14.52284636526586" lon="120.98272899090634"><ele>16.0</ele><time>2026-04-19T11:01:44Z</time></trkpt><trkpt lat="14.522785468311287" lon="120.98275750670803"><ele>16.0</ele><time>2026-04-19T11:01:46Z</time></trkpt><trkpt lat="14.522815511439026" lon="120.98287478482204"><ele>16.0</ele><time>2026-04-19T11:01:47Z</time></trkpt><trkpt lat="14.522825330590958" lon="120.98298082478304"><ele>15.166666666666666</ele><time>2026-04-19T11:01:49Z</time></trkpt><trkpt lat="14.522829621853836" lon="120.98304574361649"><ele>14.333333333333332</ele><time>2026-04-19T11:01:50Z</time></trkpt><trkpt lat="14.522850327288518" lon="120.98311608606251"><ele>13.5</ele><time>2026-04-19T11:01:51Z</time></trkpt><trkpt lat="14.522875944140145" lon="120.98322495130822"><ele>12.666666666666666</ele><time>2026-04-19T11:01:52Z</time></trkpt><trkpt lat="14.522883153886003" lon="120.9832986880287"><ele>11.833333333333332</ele><time>2026-04-19T11:01:53Z</time></trkpt><trkpt lat="14.522885306488886" lon="120.98337474899888"><ele>11.0</ele><time>2026-04-19T11:01:54Z</time></trkpt><trkpt lat="14.522888723240598" lon="120.9834428052688"><ele>9.666666666666666</ele><time>2026-04-19T11:01:55Z</time></trkpt><trkpt lat="14.522898335442985" lon="120.98352080843459"><ele>8.333333333333332</ele><time>2026-04-19T11:01:56Z</time></trkpt><trkpt lat="14.522902866966255" lon="120.98360611102946"><ele>7.0</ele><time>2026-04-19T11:01:57Z</time></trkpt><trkpt lat="14.522915732326595" lon="120.98369594571871"><ele>5.666666666666666</ele><time>2026-04-19T11:01:58Z</time></trkpt><trkpt lat="14.522921383858481" lon="120.98377437053591"><ele>4.333333333333333</ele><time>2026-04-19T11:01:59Z</time></trkpt><trkpt lat="14.522927516106439" lon="120.98385361363187"><ele>3.0</ele><time>2026-04-19T11:02:00Z</time></trkpt><trkpt lat="14.52293311964931" lon="120.98393306658302"><ele>3.0</ele><time>2026-04-19T11:02:01Z</time></trkpt><trkpt lat="14.522938314178438" lon="120.98401489494245"><ele>3.0</ele><time>2026-04-19T11:02:02Z</time></trkpt><trkpt lat="14.522943451309802" lon="120.98409357172002"><ele>3.0</ele><time>2026-04-19T11:02:03Z</time></trkpt><trkpt lat="14.52294944154738" lon="120.98417613566474"><ele>3.0</ele><time>2026-04-19T11:02:04.069Z</time></trkpt><trkpt lat="14.523055442991472" lon="120.98424011567819"><ele>3.0</ele><time>2026-04-19T11:02:05.046Z</time></trkpt><trkpt lat="14.523063201017058" lon="120.98431489031461"><ele>3.0</ele><time>2026-04-19T11:02:06.046Z</time></trkpt><trkpt lat="14.523070761110642" lon="120.98438775727821"><ele>3.0</ele><time>2026-04-19T11:02:07.046Z</time></trkpt><trkpt lat="14.52310325964273" lon="120.98451818981312"><ele>3.0</ele><time>2026-04-19T11:02:09.041Z</time></trkpt><trkpt lat="14.523105657971831" lon="120.98458712591854"><ele>3.0</ele><time>2026-04-19T11:02:10.037Z</time></trkpt><trkpt lat="14.523109505502044" lon="120.98465710573998"><ele>3.0</ele><time>2026-04-19T11:02:11.034Z</time></trkpt><trkpt lat="14.523121493772473" lon="120.98478267583225"><ele>3.0</ele><time>2026-04-19T11:02:12.035Z</time></trkpt><trkpt lat="14.523151694723618" lon="120.98507927098424"><ele>3.0</ele><time>2026-04-19T11:02:13.037Z</time></trkpt><trkpt lat="14.523161363591214" lon="120.98515389831151"><ele>3.0</ele><time>2026-04-19T11:02:14Z</time></trkpt><trkpt lat="14.523179659212898" lon="120.98525817405508"><ele>3.0</ele><time>2026-04-19T11:02:16Z</time></trkpt><trkpt lat="14.523172871161544" lon="120.98535172327931"><ele>3.0</ele><time>2026-04-19T11:02:18Z</time></trkpt><trkpt lat="14.523019094082523" lon="120.9854216378068"><ele>3.0</ele><time>2026-04-19T11:02:30Z</time></trkpt><trkpt lat="14.52291449328401" lon="120.98542541101189"><ele>2.4</ele><time>2026-04-19T11:02:32Z</time></trkpt><trkpt lat="14.522855192318518" lon="120.98540316741219"><ele>1.7999999999999998</ele><time>2026-04-19T11:02:33Z</time></trkpt><trkpt lat="14.522770563307638" lon="120.98539438632046"><ele>1.2</ele><time>2026-04-19T11:02:35Z</time></trkpt><trkpt lat="14.522681679655122" lon="120.98535863984701"><ele>0.6</ele><time>2026-04-19T11:02:37Z</time></trkpt><trkpt lat="14.522587204034473" lon="120.98533098850699"><ele>0.0</ele><time>2026-04-19T11:02:39Z</time></trkpt><trkpt lat="14.522510987256803" lon="120.98523392659024"><ele>0.0</ele><time>2026-04-19T11:02:41Z</time></trkpt><trkpt lat="14.522390850718478" lon="120.98521169272682"><ele>0.0</ele><time>2026-04-19T11:02:43Z</time></trkpt><trkpt lat="14.522203891290259" lon="120.98525824977861"><ele>0.0</ele><time>2026-04-19T11:02:45Z</time></trkpt><trkpt lat="14.522124696604621" lon="120.98532105803586"><ele>0.0</ele><time>2026-04-19T11:02:46Z</time></trkpt><trkpt lat="14.522066055682409" lon="120.98541068758568"><ele>0.0</ele><time>2026-04-19T11:02:47Z</time></trkpt><trkpt lat="14.522043964513118" lon="120.98549106227668"><ele>0.0</ele><time>2026-04-19T11:02:48Z</time></trkpt><trkpt lat="14.522036128435758" lon="120.98562266297994"><ele>0.0</ele><time>2026-04-19T11:02:50Z</time></trkpt><trkpt lat="14.52211234110665" lon="120.9857410706307"><ele>0.0</ele><time>2026-04-19T11:02:52Z</time></trkpt><trkpt lat="14.522162457287628" lon="120.98579410012606"><ele>0.0</ele><time>2026-04-19T11:02:53Z</time></trkpt><trkpt lat="14.522237028121127" lon="120.98584294543356"><ele>0.0</ele><time>2026-04-19T11:02:54Z</time></trkpt><trkpt lat="14.522340218215707" lon="120.98587236337563"><ele>0.0</ele><time>2026-04-19T11:02:55Z</time></trkpt><trkpt lat="14.522482314665135" lon="120.98585325595042"><ele>0.0</ele><time>2026-04-19T11:02:56Z</time></trkpt><trkpt lat="14.52258993551977" lon="120.98579908743193"><ele>0.0</ele><time>2026-04-19T11:02:57Z</time></trkpt><trkpt lat="14.52266421442819" lon="120.9857267646522"><ele>0.0</ele><time>2026-04-19T11:02:58Z</time></trkpt><trkpt lat="14.522805910795006" lon="120.98564887417709"><ele>0.0</ele><time>2026-04-19T11:03:00Z</time></trkpt><trkpt lat="14.5229042361864" lon="120.98562926570155"><ele>0.0</ele><time>2026-04-19T11:03:01Z</time></trkpt><trkpt lat="14.523001691700953" lon="120.9856162409231"><ele>0.0</ele><time>2026-04-19T11:03:02Z</time></trkpt><trkpt lat="14.523112227580818" lon="120.98561114619199"><ele>0.75</ele><time>2026-04-19T11:03:03Z</time></trkpt><trkpt lat="14.523223323011496" lon="120.98559808822317"><ele>1.5</ele><time>2026-04-19T11:03:04Z</time></trkpt><trkpt lat="14.523333203995572" lon="120.98559187507779"><ele>2.25</ele><time>2026-04-19T11:03:05Z</time></trkpt><trkpt lat="14.52344799187246" lon="120.98558160261452"><ele>3.0</ele><time>2026-04-19T11:03:06Z</time></trkpt><trkpt lat="14.523562191711582" lon="120.98556683451135"><ele>3.0</ele><time>2026-04-19T11:03:07Z</time></trkpt><trkpt lat="14.523669723610318" lon="120.98555451800105"><ele>3.0</ele><time>2026-04-19T11:03:08Z</time></trkpt><trkpt lat="14.52379024119139" lon="120.98553982829915"><ele>3.0</ele><time>2026-04-19T11:03:09Z</time></trkpt><trkpt lat="14.5238906305899" lon="120.98552607552874"><ele>3.0</ele><time>2026-04-19T11:03:10Z</time></trkpt><trkpt lat="14.523960176881198" lon="120.9855227978579"><ele>3.0</ele><time>2026-04-19T11:03:11Z</time></trkpt><trkpt lat="14.524036940717364" lon="120.98551370441312"><ele>2.75</ele><time>2026-04-19T11:03:12Z</time></trkpt><trkpt lat="14.524105648498104" lon="120.98550549972582"><ele>2.5</ele><time>2026-04-19T11:03:13Z</time></trkpt><trkpt lat="14.524213641841525" lon="120.98549918419253"><ele>2.25</ele><time>2026-04-19T11:03:15Z</time></trkpt><trkpt lat="14.524314816720363" lon="120.98547156050238"><ele>2.0</ele><time>2026-04-19T11:03:17Z</time></trkpt><trkpt lat="14.524530475376519" lon="120.98543749459631"><ele>1.4999999999999998</ele><time>2026-04-19T11:04:39Z</time></trkpt><trkpt lat="14.52463187114596" lon="120.9854204832045"><ele>1.0</ele><time>2026-04-19T11:04:41Z</time></trkpt><trkpt lat="14.524694424973555" lon="120.9854119024242"><ele>0.5</ele><time>2026-04-19T11:04:42Z</time></trkpt><trkpt lat="14.524757173486668" lon="120.98538115402383"><ele>0.0</ele><time>2026-04-19T11:04:43Z</time></trkpt><trkpt lat="14.524842045789251" lon="120.98538761290168"><ele>-0.49999999999999994</ele><time>2026-04-19T11:04:44Z</time></trkpt><trkpt lat="14.524925115117734" lon="120.98537422304345"><ele>-1.0</ele><time>2026-04-19T11:04:45Z</time></trkpt><trkpt lat="14.52501296275142" lon="120.98536041801466"><ele>-1.0</ele><time>2026-04-19T11:04:46Z</time></trkpt><trkpt lat="14.525106208496226" lon="120.98534856551184"><ele>-1.0</ele><time>2026-04-19T11:04:47Z</time></trkpt><trkpt lat="14.525202648029003" lon="120.98533457134585"><ele>-1.0</ele><time>2026-04-19T11:04:48Z</time></trkpt><trkpt lat="14.525301935583016" lon="120.98532174039285"><ele>-1.0</ele><time>2026-04-19T11:04:49Z</time></trkpt><trkpt lat="14.525403546227144" lon="120.98530846697408"><ele>-1.0</ele><time>2026-04-19T11:04:50Z</time></trkpt><trkpt lat="14.525507600928297" lon="120.98529385579644"><ele>-0.4</ele><time>2026-04-19T11:04:51Z</time></trkpt><trkpt lat="14.52561195933559" lon="120.98527858919628"><ele>0.19999999999999996</ele><time>2026-04-19T11:04:52Z</time></trkpt><trkpt lat="14.52571701145729" lon="120.98526533805222"><ele>0.8000000000000002</ele><time>2026-04-19T11:04:53Z</time></trkpt><trkpt lat="14.525825297617713" lon="120.98525311298825"><ele>1.4000000000000001</ele><time>2026-04-19T11:04:54Z</time></trkpt><trkpt lat="14.525934418520695" lon="120.98524265208295"><ele>2.0</ele><time>2026-04-19T11:04:55Z</time></trkpt><trkpt lat="14.526043621276825" lon="120.98522928136754"><ele>2.0</ele><time>2026-04-19T11:04:56Z</time></trkpt><trkpt lat="14.5261560203001" lon="120.98521725809466"><ele>2.0</ele><time>2026-04-19T11:04:57Z</time></trkpt><trkpt lat="14.526267122607724" lon="120.98520571011464"><ele>2.0</ele><time>2026-04-19T11:04:58Z</time></trkpt><trkpt lat="14.526377380642298" lon="120.98519093110072"><ele>2.0</ele><time>2026-04-19T11:04:59Z</time></trkpt><trkpt lat="14.52648360489629" lon="120.98517951970658"><ele>2.0</ele><time>2026-04-19T11:05:00Z</time></trkpt><trkpt lat="14.52658674464565" lon="120.98516814223785"><ele>1.8</ele><time>2026-04-19T11:05:01Z</time></trkpt><trkpt lat="14.526688508353205" lon="120.98515571980373"><ele>1.6</ele><time>2026-04-19T11:05:02Z</time></trkpt><trkpt lat="14.526790727086006" lon="120.98514276276173"><ele>1.4000000000000001</ele><time>2026-04-19T11:05:03Z</time></trkpt><trkpt lat="14.52689250847592" lon="120.98513116340844"><ele>1.2000000000000002</ele><time>2026-04-19T11:05:04Z</time></trkpt><trkpt lat="14.526996460244904" lon="120.98511925523948"><ele>1.0</ele><time>2026-04-19T11:05:05Z</time></trkpt><trkpt lat="14.527099724940308" lon="120.98510746840822"><ele>1.0</ele><time>2026-04-19T11:05:06Z</time></trkpt><trkpt lat="14.527202459322671" lon="120.98509508033437"><ele>1.0</ele><time>2026-04-19T11:05:07Z</time></trkpt><trkpt lat="14.527304077849799" lon="120.98508033666272"><ele>1.0</ele><time>2026-04-19T11:05:08Z</time></trkpt><trkpt lat="14.527405944999103" lon="120.98506825562873"><ele>1.0</ele><time>2026-04-19T11:05:09Z</time></trkpt><trkpt lat="14.52750198129444" lon="120.98505723953943"><ele>1.0</ele><time>2026-04-19T11:05:10Z</time></trkpt><trkpt lat="14.527593073193849" lon="120.98504645683681"><ele>0.9999999999999999</ele><time>2026-04-19T11:05:11Z</time></trkpt><trkpt lat="14.52767782353409" lon="120.98503649822933"><ele>1.0</ele><time>2026-04-19T11:05:12Z</time></trkpt><trkpt lat="14.527754092244539" lon="120.98502800412408"><ele>1.0</ele><time>2026-04-19T11:05:13Z</time></trkpt><trkpt lat="14.527819232351552" lon="120.98501963892416"><ele>1.0</ele><time>2026-04-19T11:05:14Z</time></trkpt><trkpt lat="14.527917727132433" lon="120.9850048068244"><ele>0.9999999999999999</ele><time>2026-04-19T11:05:16Z</time></trkpt><trkpt lat="14.527982027343318" lon="120.98499521902629"><ele>1.0</ele><time>2026-04-19T11:05:20Z</time></trkpt><trkpt lat="14.528060026004702" lon="120.98498557451018"><ele>1.8</ele><time>2026-04-19T11:05:31Z</time></trkpt><trkpt lat="14.528132052903317" lon="120.98497831572789"><ele>2.6</ele><time>2026-04-19T11:05:33Z</time></trkpt><trkpt lat="14.528221647815315" lon="120.9849695448075"><ele>3.4</ele><time>2026-04-19T11:05:35Z</time></trkpt><trkpt lat="14.528332792216798" lon="120.98495704320042"><ele>4.2</ele><time>2026-04-19T11:05:37Z</time></trkpt><trkpt lat="14.528452972709829" lon="120.98494492432894"><ele>5.0</ele><time>2026-04-19T11:05:39Z</time></trkpt><trkpt lat="14.528519423842592" lon="120.98493770341891"><ele>5.0</ele><time>2026-04-19T11:05:40Z</time></trkpt><trkpt lat="14.528590666638921" lon="120.98492955146634"><ele>5.0</ele><time>2026-04-19T11:05:41Z</time></trkpt><trkpt lat="14.528663693326987" lon="120.98492164256575"><ele>5.0</ele><time>2026-04-19T11:05:42Z</time></trkpt><trkpt lat="14.528738372670697" lon="120.98491373981238"><ele>5.0</ele><time>2026-04-19T11:05:43Z</time></trkpt><trkpt lat="14.528818948222185" lon="120.98490599210028"><ele>5.0</ele><time>2026-04-19T11:05:44Z</time></trkpt><trkpt lat="14.528900622367004" lon="120.98489836052596"><ele>5.0</ele><time>2026-04-19T11:05:45Z</time></trkpt><trkpt lat="14.528984710880055" lon="120.98489137848108"><ele>5.166666666666667</ele><time>2026-04-19T11:05:46Z</time></trkpt><trkpt lat="14.529067311430083" lon="120.98488690348576"><ele>5.333333333333334</ele><time>2026-04-19T11:05:47Z</time></trkpt><trkpt lat="14.52915096695199" lon="120.984881742878"><ele>5.5</ele><time>2026-04-19T11:05:48Z</time></trkpt><trkpt lat="14.529232477573759" lon="120.98487815308827"><ele>5.666666666666667</ele><time>2026-04-19T11:05:49Z</time></trkpt><trkpt lat="14.529315027770092" lon="120.98487261983323"><ele>5.833333333333333</ele><time>2026-04-19T11:05:50Z</time></trkpt><trkpt lat="14.529400232108058" lon="120.9848682611818"><ele>6.0</ele><time>2026-04-19T11:05:51Z</time></trkpt><trkpt lat="14.529490727547074" lon="120.98486252349049"><ele>6.4</ele><time>2026-04-19T11:05:52Z</time></trkpt><trkpt lat="14.52958292372499" lon="120.98485738953644"><ele>6.8</ele><time>2026-04-19T11:05:53Z</time></trkpt><trkpt lat="14.529677128388727" lon="120.98485083390007"><ele>7.200000000000001</ele><time>2026-04-19T11:05:54Z</time></trkpt><trkpt lat="14.529769619896458" lon="120.98484372749918"><ele>7.6000000000000005</ele><time>2026-04-19T11:05:55Z</time></trkpt><trkpt lat="14.52985963203506" lon="120.98483506093997"><ele>8.0</ele><time>2026-04-19T11:05:56Z</time></trkpt><trkpt lat="14.529943972459053" lon="120.98483005792603"><ele>7.999999999999999</ele><time>2026-04-19T11:05:57Z</time></trkpt><trkpt lat="14.530024240619777" lon="120.98482370954764"><ele>8.0</ele><time>2026-04-19T11:05:58Z</time></trkpt><trkpt lat="14.53010355351625" lon="120.98481803668055"><ele>8.0</ele><time>2026-04-19T11:05:59Z</time></trkpt><trkpt lat="14.530178489718752" lon="120.9848130708705"><ele>8.0</ele><time>2026-04-19T11:06:00Z</time></trkpt><trkpt lat="14.530251317340957" lon="120.98480543771055"><ele>7.999999999999999</ele><time>2026-04-19T11:06:01Z</time></trkpt><trkpt lat="14.530322278743979" lon="120.98479709401403"><ele>8.0</ele><time>2026-04-19T11:06:02Z</time></trkpt><trkpt lat="14.530395821841294" lon="120.98478884449582"><ele>7.166666666666666</ele><time>2026-04-19T11:06:03Z</time></trkpt><trkpt lat="14.530470028559202" lon="120.98478074300375"><ele>6.333333333333333</ele><time>2026-04-19T11:06:04Z</time></trkpt><trkpt lat="14.530541813340614" lon="120.98477302630614"><ele>5.5</ele><time>2026-04-19T11:06:05Z</time></trkpt><trkpt lat="14.53065042923976" lon="120.98476352501785"><ele>4.666666666666666</ele><time>2026-04-19T11:06:07Z</time></trkpt><trkpt lat="14.530730156664175" lon="120.98475555051905"><ele>3.833333333333333</ele><time>2026-04-19T11:06:10Z</time></trkpt><trkpt lat="14.530796846534312" lon="120.98474940485814"><ele>3.0</ele><time>2026-04-19T11:06:14Z</time></trkpt><trkpt lat="14.530866163907152" lon="120.98474243599627"><ele>3.0</ele><time>2026-04-19T11:06:18Z</time></trkpt><trkpt lat="14.530941957927759" lon="120.98474995404423"><ele>3.0</ele><time>2026-04-19T11:07:37Z</time></trkpt><trkpt lat="14.531034997168828" lon="120.98474525944842"><ele>3.0</ele><time>2026-04-19T11:07:40Z</time></trkpt><trkpt lat="14.531119047331702" lon="120.98473688522384"><ele>3.0</ele><time>2026-04-19T11:07:42Z</time></trkpt><trkpt lat="14.531236519665857" lon="120.9847285169084"><ele>3.0</ele><time>2026-04-19T11:07:44Z</time></trkpt><trkpt lat="14.531306259531739" lon="120.98472143291865"><ele>3.0</ele><time>2026-04-19T11:07:45Z</time></trkpt><trkpt lat="14.531376935351345" lon="120.98471352976112"><ele>3.833333333333333</ele><time>2026-04-19T11:07:46Z</time></trkpt><trkpt lat="14.531452654356157" lon="120.9847065587302"><ele>4.666666666666666</ele><time>2026-04-19T11:07:47Z</time></trkpt><trkpt lat="14.531531533848788" lon="120.98470078329343"><ele>5.5</ele><time>2026-04-19T11:07:48Z</time></trkpt><trkpt lat="14.531618080577127" lon="120.98469452972259"><ele>6.333333333333333</ele><time>2026-04-19T11:07:49Z</time></trkpt><trkpt lat="14.531707300245033" lon="120.9846869272434"><ele>7.166666666666666</ele><time>2026-04-19T11:07:50Z</time></trkpt><trkpt lat="14.53180060578086" lon="120.98467991360694"><ele>8.0</ele><time>2026-04-19T11:07:51Z</time></trkpt><trkpt lat="14.53189155596777" lon="120.98467312723683"><ele>8.0</ele><time>2026-04-19T11:07:52Z</time></trkpt><trkpt lat="14.53198178771155" lon="120.98466503380556"><ele>8.0</ele><time>2026-04-19T11:07:53Z</time></trkpt><trkpt lat="14.532073755267646" lon="120.9846567150755"><ele>8.0</ele><time>2026-04-19T11:07:54Z</time></trkpt><trkpt lat="14.532167428614901" lon="120.98464779448943"><ele>8.0</ele><time>2026-04-19T11:07:55Z</time></trkpt><trkpt lat="14.53226002556009" lon="120.9846388420074"><ele>8.0</ele><time>2026-04-19T11:07:56Z</time></trkpt><trkpt lat="14.532352234227229" lon="120.98462962787902"><ele>6.800000000000001</ele><time>2026-04-19T11:07:57Z</time></trkpt><trkpt lat="14.532444365251202" lon="120.98462172153627"><ele>5.6000000000000005</ele><time>2026-04-19T11:07:58Z</time></trkpt><trkpt lat="14.532535170132846" lon="120.98461305644207"><ele>4.4</ele><time>2026-04-19T11:07:59Z</time></trkpt><trkpt lat="14.532627235111365" lon="120.98460807204033"><ele>3.2</ele><time>2026-04-19T11:08:00Z</time></trkpt><trkpt lat="14.532721618986285" lon="120.9845978051284"><ele>2.0</ele><time>2026-04-19T11:08:01Z</time></trkpt><trkpt lat="14.532819459554258" lon="120.98459062156394"><ele>2.4000000000000004</ele><time>2026-04-19T11:08:02Z</time></trkpt><trkpt lat="14.53291636963529" lon="120.98458382884266"><ele>2.8000000000000003</ele><time>2026-04-19T11:08:03Z</time></trkpt><trkpt lat="14.533012683378738" lon="120.98457657268222"><ele>3.2</ele><time>2026-04-19T11:08:04Z</time></trkpt><trkpt lat="14.533108338046395" lon="120.98456496701253"><ele>3.6</ele><time>2026-04-19T11:08:05Z</time></trkpt><trkpt lat="14.533207978446958" lon="120.98455668108099"><ele>4.0</ele><time>2026-04-19T11:08:06Z</time></trkpt><trkpt lat="14.53330187991339" lon="120.98454902729237"><ele>4.0</ele><time>2026-04-19T11:08:07Z</time></trkpt><trkpt lat="14.533396540471815" lon="120.98454305763799"><ele>4.0</ele><time>2026-04-19T11:08:08Z</time></trkpt><trkpt lat="14.533488587581546" lon="120.98453485147773"><ele>4.0</ele><time>2026-04-19T11:08:09Z</time></trkpt><trkpt lat="14.533581619454136" lon="120.9845239678911"><ele>4.0</ele><time>2026-04-19T11:08:10Z</time></trkpt><trkpt lat="14.533675889740651" lon="120.98451449664722"><ele>4.0</ele><time>2026-04-19T11:08:11Z</time></trkpt><trkpt lat="14.533769760377563" lon="120.98450780568787"><ele>3.833333333333333</ele><time>2026-04-19T11:08:12Z</time></trkpt><trkpt lat="14.533860812722743" lon="120.9845007734778"><ele>3.6666666666666665</ele><time>2026-04-19T11:08:13Z</time></trkpt><trkpt lat="14.533947053842992" lon="120.98449309646784"><ele>3.5</ele><time>2026-04-19T11:08:14Z</time></trkpt><trkpt lat="14.534029871205076" lon="120.98448707441118"><ele>3.333333333333333</ele><time>2026-04-19T11:08:15Z</time></trkpt><trkpt lat="14.53411282434038" lon="120.98447864036844"><ele>3.1666666666666665</ele><time>2026-04-19T11:08:16Z</time></trkpt><trkpt lat="14.534192860739905" lon="120.98447202855121"><ele>3.0</ele><time>2026-04-19T11:08:17Z</time></trkpt><trkpt lat="14.534270311502667" lon="120.98446596905184"><ele>3.0</ele><time>2026-04-19T11:08:18Z</time></trkpt><trkpt lat="14.534337530363873" lon="120.9844627830495"><ele>3.0</ele><time>2026-04-19T11:08:19Z</time></trkpt><trkpt lat="14.534447680820694" lon="120.9844554349862"><ele>3.0</ele><time>2026-04-19T11:08:21Z</time></trkpt><trkpt lat="14.534534980938878" lon="120.98445164099022"><ele>3.0</ele><time>2026-04-19T11:08:23Z</time></trkpt><trkpt lat="14.53460707658923" lon="120.98446709514684"><ele>3.0</ele><time>2026-04-19T11:08:25Z</time></trkpt><trkpt lat="14.534672442030038" lon="120.9845199015032"><ele>3.0</ele><time>2026-04-19T11:08:27Z</time></trkpt><trkpt lat="14.534738515147012" lon="120.98459895920271"><ele>3.4</ele><time>2026-04-19T11:08:29Z</time></trkpt><trkpt lat="14.534804333620409" lon="120.98467641296067"><ele>3.8</ele><time>2026-04-19T11:08:31Z</time></trkpt><trkpt lat="14.534882261934094" lon="120.98474414245938"><ele>4.2</ele><time>2026-04-19T11:08:33Z</time></trkpt><trkpt lat="14.534966971564867" lon="120.98480492027736"><ele>4.6</ele><time>2026-04-19T11:08:35Z</time></trkpt><trkpt lat="14.535070520867189" lon="120.98485955446341"><ele>5.0</ele><time>2026-04-19T11:08:37Z</time></trkpt><trkpt lat="14.535132247118831" lon="120.98488783262326"><ele>5.0</ele><time>2026-04-19T11:08:38Z</time></trkpt><trkpt lat="14.53519655141488" lon="120.98491974633359"><ele>5.0</ele><time>2026-04-19T11:08:39Z</time></trkpt><trkpt lat="14.535256696319708" lon="120.98496747632524"><ele>5.0</ele><time>2026-04-19T11:08:40Z</time></trkpt><trkpt lat="14.535308590582304" lon="120.98502761379338"><ele>5.0</ele><time>2026-04-19T11:08:41Z</time></trkpt><trkpt lat="14.53533135783113" lon="120.98510650010425"><ele>5.0</ele><time>2026-04-19T11:08:42Z</time></trkpt><trkpt lat="14.535350819230112" lon="120.98519140313489"><ele>5.0</ele><time>2026-04-19T11:08:43Z</time></trkpt><trkpt lat="14.535371521607482" lon="120.98528287330309"><ele>5.2</ele><time>2026-04-19T11:08:44Z</time></trkpt><trkpt lat="14.53539276925638" lon="120.98537845563048"><ele>5.4</ele><time>2026-04-19T11:08:45Z</time></trkpt><trkpt lat="14.535414445294201" lon="120.98547596506153"><ele>5.6</ele><time>2026-04-19T11:08:46Z</time></trkpt><trkpt lat="14.53543695407627" lon="120.9855772203437"><ele>5.8</ele><time>2026-04-19T11:08:47Z</time></trkpt><trkpt lat="14.53546063577223" lon="120.98568164811712"><ele>6.0</ele><time>2026-04-19T11:08:48Z</time></trkpt><trkpt lat="14.535484876460108" lon="120.98578906971574"><ele>5.5</ele><time>2026-04-19T11:08:49Z</time></trkpt><trkpt lat="14.535510259642948" lon="120.98590155422161"><ele>5.0</ele><time>2026-04-19T11:08:50Z</time></trkpt><trkpt lat="14.535536160201294" lon="120.98601633146696"><ele>4.5</ele><time>2026-04-19T11:08:51Z</time></trkpt><trkpt lat="14.535563094163363" lon="120.98613568819215"><ele>4.0</ele><time>2026-04-19T11:08:52Z</time></trkpt><trkpt lat="14.535590955606349" lon="120.98625915500936"><ele>4.0</ele><time>2026-04-19T11:08:53Z</time></trkpt><trkpt lat="14.535618931480414" lon="120.98638302789381"><ele>4.0</ele><time>2026-04-19T11:08:54Z</time></trkpt><trkpt lat="14.535661782801949" lon="120.98650432002968"><ele>4.0</ele><time>2026-04-19T11:08:55Z</time></trkpt><trkpt lat="14.535684588821482" lon="120.9866310085968"><ele>4.0</ele><time>2026-04-19T11:08:56Z</time></trkpt><trkpt lat="14.535710161873235" lon="120.98675248445615"><ele>4.5</ele><time>2026-04-19T11:08:57Z</time></trkpt><trkpt lat="14.535734469800385" lon="120.9868750436867"><ele>5.0</ele><time>2026-04-19T11:08:58Z</time></trkpt><trkpt lat="14.535760337998527" lon="120.98699128944708"><ele>5.5</ele><time>2026-04-19T11:08:59Z</time></trkpt><trkpt lat="14.535786455721166" lon="120.98710355313693"><ele>6.0</ele><time>2026-04-19T11:09:00Z</time></trkpt><trkpt lat="14.535812316893669" lon="120.98721213822601"><ele>6.0</ele><time>2026-04-19T11:09:01Z</time></trkpt><trkpt lat="14.535839506461633" lon="120.987317998827"><ele>6.0</ele><time>2026-04-19T11:09:02Z</time></trkpt><trkpt lat="14.535863087080278" lon="120.98741577155276"><ele>6.0</ele><time>2026-04-19T11:09:03Z</time></trkpt><trkpt lat="14.535883665584654" lon="120.98750839258823"><ele>6.0</ele><time>2026-04-19T11:09:04Z</time></trkpt><trkpt lat="14.535895263963646" lon="120.98759142998644"><ele>6.0</ele><time>2026-04-19T11:09:05Z</time></trkpt><trkpt lat="14.535898058526517" lon="120.9876671584202"><ele>5.166666666666667</ele><time>2026-04-19T11:09:06Z</time></trkpt><trkpt lat="14.53591282309137" lon="120.987741633414"><ele>4.333333333333333</ele><time>2026-04-19T11:09:07Z</time></trkpt><trkpt lat="14.535920127672561" lon="120.98782061999076"><ele>3.5</ele><time>2026-04-19T11:09:08Z</time></trkpt><trkpt lat="14.535942110839413" lon="120.98788863865016"><ele>2.6666666666666665</ele><time>2026-04-19T11:09:09Z</time></trkpt><trkpt lat="14.535973469450731" lon="120.98795364449954"><ele>1.8333333333333333</ele><time>2026-04-19T11:09:11Z</time></trkpt><trkpt lat="14.535997872669533" lon="120.9880639919148"><ele>1.0</ele><time>2026-04-19T11:09:31Z</time></trkpt><trkpt lat="14.536020652903241" lon="120.98816528548139"><ele>1.0</ele><time>2026-04-19T11:09:34Z</time></trkpt><trkpt lat="14.536042023483978" lon="120.98826027274285"><ele>1.0</ele><time>2026-04-19T11:09:36Z</time></trkpt><trkpt lat="14.536065313546866" lon="120.98836387401006"><ele>1.0</ele><time>2026-04-19T11:09:38Z</time></trkpt><trkpt lat="14.536091876405914" lon="120.98848251944105"><ele>1.0</ele><time>2026-04-19T11:09:40Z</time></trkpt><trkpt lat="14.536112907446633" lon="120.98857645648958"><ele>1.0</ele><time>2026-04-19T11:09:42Z</time></trkpt><trkpt lat="14.536128068511816" lon="120.98864417477648"><ele>1.2000000000000002</ele><time>2026-04-19T11:09:44Z</time></trkpt><trkpt lat="14.536142841629129" lon="120.98871016025277"><ele>1.4000000000000001</ele><time>2026-04-19T11:09:46Z</time></trkpt><trkpt lat="14.536160141192138" lon="120.9887859051838"><ele>1.6</ele><time>2026-04-19T11:09:48Z</time></trkpt><trkpt lat="14.536184182223039" lon="120.98888973325595"><ele>1.8</ele><time>2026-04-19T11:09:50Z</time></trkpt><trkpt lat="14.536206559843798" lon="120.98898661360076"><ele>2.0</ele><time>2026-04-19T11:09:52Z</time></trkpt><trkpt lat="14.536479698322154" lon="120.98899900289366"><ele>1.9999999999999998</ele><time>2026-04-19T11:09:54Z</time></trkpt><trkpt lat="14.536548961622847" lon="120.98899940663478"><ele>2.0</ele><time>2026-04-19T11:09:55Z</time></trkpt><trkpt lat="14.536624795801744" lon="120.98899226452787"><ele>2.0</ele><time>2026-04-19T11:09:56Z</time></trkpt><trkpt lat="14.536698277094535" lon="120.98898843888301"><ele>2.0</ele><time>2026-04-19T11:09:57Z</time></trkpt><trkpt lat="14.536787371293785" lon="120.98897971026189"><ele>1.9999999999999998</ele><time>2026-04-19T11:09:58Z</time></trkpt><trkpt lat="14.536875276599618" lon="120.98896858105833"><ele>2.0</ele><time>2026-04-19T11:09:59Z</time></trkpt><trkpt lat="14.536964415612257" lon="120.98895775519739"><ele>2.0</ele><time>2026-04-19T11:10:00Z</time></trkpt><trkpt lat="14.53705156309258" lon="120.9889528484173"><ele>2.0</ele><time>2026-04-19T11:10:01Z</time></trkpt><trkpt lat="14.53715263465376" lon="120.9889317115523"><ele>2.0</ele><time>2026-04-19T11:10:02Z</time></trkpt><trkpt lat="14.537248411367296" lon="120.9889189967162"><ele>2.0</ele><time>2026-04-19T11:10:03Z</time></trkpt><trkpt lat="14.53734935456065" lon="120.98890487689546"><ele>2.0</ele><time>2026-04-19T11:10:04Z</time></trkpt><trkpt lat="14.537453597486405" lon="120.98889093406179"><ele>1.8</ele><time>2026-04-19T11:10:05Z</time></trkpt><trkpt lat="14.53756071859765" lon="120.98887574398701"><ele>1.6</ele><time>2026-04-19T11:10:06Z</time></trkpt><trkpt lat="14.537670950221814" lon="120.988863413179"><ele>1.4000000000000001</ele><time>2026-04-19T11:10:07Z</time></trkpt><trkpt lat="14.537781324785573" lon="120.98884490768218"><ele>1.2000000000000002</ele><time>2026-04-19T11:10:08Z</time></trkpt><trkpt lat="14.537896301051813" lon="120.98883184552032"><ele>1.0</ele><time>2026-04-19T11:10:09Z</time></trkpt><trkpt lat="14.53801622780414" lon="120.98881539120215"><ele>2.0</ele><time>2026-04-19T11:10:10Z</time></trkpt><trkpt lat="14.538133672379994" lon="120.98879849507935"><ele>3.0</ele><time>2026-04-19T11:10:11Z</time></trkpt><trkpt lat="14.538250551400273" lon="120.98877814170548"><ele>4.0</ele><time>2026-04-19T11:10:12Z</time></trkpt><trkpt lat="14.53836981821759" lon="120.98876205555057"><ele>5.0</ele><time>2026-04-19T11:10:13Z</time></trkpt><trkpt lat="14.538491787238426" lon="120.98874433167742"><ele>5.0</ele><time>2026-04-19T11:10:14Z</time></trkpt><trkpt lat="14.538615705705242" lon="120.98872708448854"><ele>5.0</ele><time>2026-04-19T11:10:15Z</time></trkpt><trkpt lat="14.5387387063913" lon="120.98870935516027"><ele>5.0</ele><time>2026-04-19T11:10:16Z</time></trkpt><trkpt lat="14.538862753499119" lon="120.98869133050869"><ele>5.0</ele><time>2026-04-19T11:10:17Z</time></trkpt><trkpt lat="14.53898553228717" lon="120.9886702323282"><ele>4.75</ele><time>2026-04-19T11:10:18Z</time></trkpt><trkpt lat="14.539107675129506" lon="120.98865103590977"><ele>4.5</ele><time>2026-04-19T11:10:19Z</time></trkpt><trkpt lat="14.539223681874581" lon="120.98863252891145"><ele>4.25</ele><time>2026-04-19T11:10:20Z</time></trkpt><trkpt lat="14.539334542739995" lon="120.98861659648924"><ele>4.0</ele><time>2026-04-19T11:10:21Z</time></trkpt><trkpt lat="14.539450657397682" lon="120.9885970451121"><ele>3.2</ele><time>2026-04-19T11:10:22Z</time></trkpt><trkpt lat="14.539557542261065" lon="120.9885776207605"><ele>2.4000000000000004</ele><time>2026-04-19T11:10:23Z</time></trkpt><trkpt lat="14.539660678157043" lon="120.98856264296622"><ele>1.6</ele><time>2026-04-19T11:10:24Z</time></trkpt><trkpt lat="14.539752491098415" lon="120.98855187827387"><ele>0.8</ele><time>2026-04-19T11:10:25Z</time></trkpt><trkpt lat="14.539836064196034" lon="120.98853316862889"><ele>0.0</ele><time>2026-04-19T11:10:26Z</time></trkpt><trkpt lat="14.539909657847497" lon="120.98852482707701"><ele>0.0</ele><time>2026-04-19T11:10:27Z</time></trkpt><trkpt lat="14.539981079976272" lon="120.98851513105882"><ele>0.0</ele><time>2026-04-19T11:10:28Z</time></trkpt><trkpt lat="14.540092345275335" lon="120.98849189423348"><ele>0.0</ele><time>2026-04-19T11:10:30Z</time></trkpt><trkpt lat="14.54016406525361" lon="120.98848185520416"><ele>0.0</ele><time>2026-04-19T11:10:32Z</time></trkpt><trkpt lat="14.540228535016297" lon="120.98846780205007"><ele>0.0</ele><time>2026-04-19T11:10:35Z</time></trkpt><trkpt lat="14.540310441113839" lon="120.98845810980538"><ele>0.0</ele><time>2026-04-19T11:11:05Z</time></trkpt><trkpt lat="14.540402863523335" lon="120.98844408853955"><ele>0.3333333333333333</ele><time>2026-04-19T11:11:07Z</time></trkpt><trkpt lat="14.540516802097772" lon="120.98842830657641"><ele>0.6666666666666666</ele><time>2026-04-19T11:11:09Z</time></trkpt><trkpt lat="14.54058207124215" lon="120.98841799898315"><ele>1.0</ele><time>2026-04-19T11:11:10Z</time></trkpt><trkpt lat="14.540653066178114" lon="120.98840662448782"><ele>1.3333333333333333</ele><time>2026-04-19T11:11:11Z</time></trkpt><trkpt lat="14.54072707108101" lon="120.9883976412914"><ele>1.6666666666666665</ele><time>2026-04-19T11:11:12Z</time></trkpt><trkpt lat="14.540807509542464" lon="120.98838642320709"><ele>2.0</ele><time>2026-04-19T11:11:13Z</time></trkpt><trkpt lat="14.540890403634567" lon="120.98837486019686"><ele>2.0</ele><time>2026-04-19T11:11:14Z</time></trkpt><trkpt lat="14.540978988602768" lon="120.98836109407537"><ele>2.0</ele><time>2026-04-19T11:11:15Z</time></trkpt><trkpt lat="14.541070410145764" lon="120.98834836282293"><ele>2.0</ele><time>2026-04-19T11:11:16Z</time></trkpt><trkpt lat="14.541166465934674" lon="120.98833412604641"><ele>2.0</ele><time>2026-04-19T11:11:17Z</time></trkpt><trkpt lat="14.541263743946717" lon="120.988319825598"><ele>2.0</ele><time>2026-04-19T11:11:18Z</time></trkpt><trkpt lat="14.541363197874634" lon="120.98830444943474"><ele>2.6</ele><time>2026-04-19T11:11:19Z</time></trkpt><trkpt lat="14.541463301007763" lon="120.98828978544478"><ele>3.2</ele><time>2026-04-19T11:11:20Z</time></trkpt><trkpt lat="14.541563904564203" lon="120.98827545324959"><ele>3.8</ele><time>2026-04-19T11:11:21Z</time></trkpt><trkpt lat="14.54166523806954" lon="120.98826053158122"><ele>4.4</ele><time>2026-04-19T11:11:22Z</time></trkpt><trkpt lat="14.541768707011522" lon="120.98824385939034"><ele>5.0</ele><time>2026-04-19T11:11:23Z</time></trkpt><trkpt lat="14.541871872444997" lon="120.9882269655143"><ele>5.0</ele><time>2026-04-19T11:11:24Z</time></trkpt><trkpt lat="14.541976190510509" lon="120.98821023105957"><ele>5.0</ele><time>2026-04-19T11:11:25Z</time></trkpt><trkpt lat="14.542077997682114" lon="120.98819303898516"><ele>5.0</ele><time>2026-04-19T11:11:26Z</time></trkpt><trkpt lat="14.54217749341052" lon="120.98817527661525"><ele>5.0</ele><time>2026-04-19T11:11:27Z</time></trkpt><trkpt lat="14.54227588139516" lon="120.98816021934317"><ele>5.0</ele><time>2026-04-19T11:11:28Z</time></trkpt><trkpt lat="14.542372707934625" lon="120.98814690112542"><ele>4.0</ele><time>2026-04-19T11:11:29Z</time></trkpt><trkpt lat="14.5424673237665" lon="120.98813366070307"><ele>3.0</ele><time>2026-04-19T11:11:30Z</time></trkpt><trkpt lat="14.542560731377707" lon="120.98811883198852"><ele>2.0</ele><time>2026-04-19T11:11:31Z</time></trkpt><trkpt lat="14.542656720113767" lon="120.98810579257325"><ele>1.0</ele><time>2026-04-19T11:11:32Z</time></trkpt><trkpt lat="14.54274527936134" lon="120.98809073782063"><ele>0.0</ele><time>2026-04-19T11:11:33Z</time></trkpt><trkpt lat="14.542839928767666" lon="120.98807768340164"><ele>0.8</ele><time>2026-04-19T11:11:34Z</time></trkpt><trkpt lat="14.542931900994073" lon="120.98806374655705"><ele>1.6</ele><time>2026-04-19T11:11:35Z</time></trkpt><trkpt lat="14.54302437248593" lon="120.98804797635869"><ele>2.4000000000000004</ele><time>2026-04-19T11:11:36Z</time></trkpt><trkpt lat="14.543112420031228" lon="120.98803552214191"><ele>3.2</ele><time>2026-04-19T11:11:37Z</time></trkpt><trkpt lat="14.543201194492074" lon="120.98802640989061"><ele>4.0</ele><time>2026-04-19T11:11:38Z</time></trkpt><trkpt lat="14.543291235548722" lon="120.98801432416965"><ele>4.0</ele><time>2026-04-19T11:11:39Z</time></trkpt><trkpt lat="14.543383948951167" lon="120.98800269779196"><ele>4.0</ele><time>2026-04-19T11:11:40Z</time></trkpt><trkpt lat="14.543481990069072" lon="120.98798873656831"><ele>4.0</ele><time>2026-04-19T11:11:41Z</time></trkpt><trkpt lat="14.543579729130734" lon="120.98797431405704"><ele>4.0</ele><time>2026-04-19T11:11:42Z</time></trkpt><trkpt lat="14.543678405610963" lon="120.9879602573437"><ele>4.0</ele><time>2026-04-19T11:11:43Z</time></trkpt><trkpt lat="14.54377330045235" lon="120.98794251801264"><ele>4.2</ele><time>2026-04-19T11:11:44Z</time></trkpt><trkpt lat="14.54386870407523" lon="120.9879239149417"><ele>4.4</ele><time>2026-04-19T11:11:45Z</time></trkpt><trkpt lat="14.543962710525436" lon="120.98790474246012"><ele>4.6</ele><time>2026-04-19T11:11:46Z</time></trkpt><trkpt lat="14.544056234124838" lon="120.98788358349492"><ele>4.8</ele><time>2026-04-19T11:11:47Z</time></trkpt><trkpt lat="14.544153323344485" lon="120.98785978679578"><ele>5.0</ele><time>2026-04-19T11:11:48Z</time></trkpt><trkpt lat="14.544248942019678" lon="120.98783689464379"><ele>5.0</ele><time>2026-04-19T11:11:49Z</time></trkpt><trkpt lat="14.544349203571922" lon="120.9878111763175"><ele>5.0</ele><time>2026-04-19T11:11:50Z</time></trkpt><trkpt lat="14.544442632464811" lon="120.98779072086292"><ele>5.0</ele><time>2026-04-19T11:11:51Z</time></trkpt><trkpt lat="14.544535965502014" lon="120.98776592115212"><ele>5.0</ele><time>2026-04-19T11:11:52Z</time></trkpt><trkpt lat="14.54462453741316" lon="120.98774166311186"><ele>5.0</ele><time>2026-04-19T11:11:53Z</time></trkpt><trkpt lat="14.544699544415336" lon="120.98772167129026"><ele>5.0</ele><time>2026-04-19T11:11:54Z</time></trkpt><trkpt lat="14.544768767364346" lon="120.98770235945938"><ele>5.0</ele><time>2026-04-19T11:11:55Z</time></trkpt><trkpt lat="14.544832566324045" lon="120.98768332790553"><ele>5.0</ele><time>2026-04-19T11:11:56Z</time></trkpt><trkpt lat="14.544955552016162" lon="120.98764950757841"><ele>5.0</ele><time>2026-04-19T11:11:58Z</time></trkpt><trkpt lat="14.54503280237491" lon="120.98763123620589"><ele>5.0</ele><time>2026-04-19T11:11:59Z</time></trkpt><trkpt lat="14.545124592834274" lon="120.9876099956667"><ele>5.0</ele><time>2026-04-19T11:12:00Z</time></trkpt><trkpt lat="14.545218629949774" lon="120.98758526391666"><ele>5.0</ele><time>2026-04-19T11:12:01Z</time></trkpt><trkpt lat="14.545315367832863" lon="120.98756254326065"><ele>5.0</ele><time>2026-04-19T11:12:02Z</time></trkpt><trkpt lat="14.545418550376128" lon="120.98753585970304"><ele>5.0</ele><time>2026-04-19T11:12:03Z</time></trkpt><trkpt lat="14.545521270783798" lon="120.98750966798305"><ele>5.0</ele><time>2026-04-19T11:12:04Z</time></trkpt><trkpt lat="14.545625260582634" lon="120.9874839633433"><ele>5.0</ele><time>2026-04-19T11:12:05Z</time></trkpt><trkpt lat="14.54573794890727" lon="120.98745500342291"><ele>5.75</ele><time>2026-04-19T11:12:06Z</time></trkpt><trkpt lat="14.545853077701413" lon="120.9874273917859"><ele>6.5</ele><time>2026-04-19T11:12:07Z</time></trkpt><trkpt lat="14.545971696127442" lon="120.98739866832679"><ele>7.25</ele><time>2026-04-19T11:12:08Z</time></trkpt><trkpt lat="14.546089098493463" lon="120.98736965944502"><ele>8.0</ele><time>2026-04-19T11:12:09Z</time></trkpt><trkpt lat="14.54620831894722" lon="120.98734260696774"><ele>7.25</ele><time>2026-04-19T11:12:10Z</time></trkpt><trkpt lat="14.546325209444191" lon="120.98731472211908"><ele>6.5</ele><time>2026-04-19T11:12:11Z</time></trkpt><trkpt lat="14.54644093160921" lon="120.98728628054326"><ele>5.75</ele><time>2026-04-19T11:12:12Z</time></trkpt><trkpt lat="14.546557320717634" lon="120.98725936093062"><ele>5.0</ele><time>2026-04-19T11:12:13Z</time></trkpt><trkpt lat="14.546675948257962" lon="120.9872269907891"><ele>5.0</ele><time>2026-04-19T11:12:14Z</time></trkpt><trkpt lat="14.54678864189711" lon="120.98720101117465"><ele>5.0</ele><time>2026-04-19T11:12:15Z</time></trkpt><trkpt lat="14.54690120719533" lon="120.9871725944974"><ele>5.0</ele><time>2026-04-19T11:12:16Z</time></trkpt><trkpt lat="14.547012474172256" lon="120.98714481486844"><ele>5.0</ele><time>2026-04-19T11:12:17Z</time></trkpt><trkpt lat="14.547122571092679" lon="120.98711658837361"><ele>5.0</ele><time>2026-04-19T11:12:18Z</time></trkpt><trkpt lat="14.547229477807381" lon="120.98708995657431"><ele>5.0</ele><time>2026-04-19T11:12:19Z</time></trkpt><trkpt lat="14.547335771542231" lon="120.9870617846273"><ele>5.0</ele><time>2026-04-19T11:12:20Z</time></trkpt><trkpt lat="14.547437527733415" lon="120.98703597816416"><ele>5.0</ele><time>2026-04-19T11:12:21Z</time></trkpt><trkpt lat="14.547532506839376" lon="120.98701280763623"><ele>5.0</ele><time>2026-04-19T11:12:22Z</time></trkpt><trkpt lat="14.547623512712347" lon="120.98699013767862"><ele>5.0</ele><time>2026-04-19T11:12:23Z</time></trkpt><trkpt lat="14.547708012197665" lon="120.98697079112688"><ele>5.0</ele><time>2026-04-19T11:12:24Z</time></trkpt><trkpt lat="14.547786280945951" lon="120.98695594623729"><ele>5.0</ele><time>2026-04-19T11:12:25Z</time></trkpt><trkpt lat="14.547862657849151" lon="120.98694104957933"><ele>5.0</ele><time>2026-04-19T11:12:26Z</time></trkpt><trkpt lat="14.54793227011148" lon="120.98692821129343"><ele>5.0</ele><time>2026-04-19T11:12:27Z</time></trkpt><trkpt lat="14.547996315510986" lon="120.98691671712041"><ele>5.0</ele><time>2026-04-19T11:12:28Z</time></trkpt><trkpt lat="14.548111000296139" lon="120.9868941247786"><ele>6.166666666666667</ele><time>2026-04-19T11:12:30Z</time></trkpt><trkpt lat="14.548209065661899" lon="120.98686677280915"><ele>7.333333333333334</ele><time>2026-04-19T11:12:32Z</time></trkpt><trkpt lat="14.548284369083047" lon="120.98684298386657"><ele>8.5</ele><time>2026-04-19T11:12:34Z</time></trkpt><trkpt lat="14.548345661198637" lon="120.98682138823027"><ele>9.666666666666666</ele><time>2026-04-19T11:12:37Z</time></trkpt><trkpt lat="14.548407306564817" lon="120.98680589247483"><ele>10.833333333333334</ele><time>2026-04-19T11:12:49Z</time></trkpt><trkpt lat="14.548502817474905" lon="120.98677566693517"><ele>12.0</ele><time>2026-04-19T11:12:51Z</time></trkpt><trkpt lat="14.548566907795061" lon="120.9867561671041"><ele>12.0</ele><time>2026-04-19T11:12:52Z</time></trkpt><trkpt lat="14.548635084987037" lon="120.98673529204997"><ele>12.0</ele><time>2026-04-19T11:12:53Z</time></trkpt><trkpt lat="14.548705470174266" lon="120.98671395701088"><ele>12.0</ele><time>2026-04-19T11:12:54Z</time></trkpt><trkpt lat="14.548781631818711" lon="120.98669110250066"><ele>12.0</ele><time>2026-04-19T11:12:55Z</time></trkpt><trkpt lat="14.548860672169951" lon="120.98666745681058"><ele>12.0</ele><time>2026-04-19T11:12:56Z</time></trkpt><trkpt lat="14.548941371812768" lon="120.9866433083974"><ele>12.0</ele><time>2026-04-19T11:12:57Z</time></trkpt><trkpt lat="14.549024657352549" lon="120.98661834889893"><ele>11.166666666666666</ele><time>2026-04-19T11:12:58Z</time></trkpt><trkpt lat="14.549104006409427" lon="120.98659493267557"><ele>10.333333333333334</ele><time>2026-04-19T11:12:59Z</time></trkpt><trkpt lat="14.549183895865601" lon="120.98657202806957"><ele>9.5</ele><time>2026-04-19T11:13:00Z</time></trkpt><trkpt lat="14.549264066385309" lon="120.98655014572604"><ele>8.666666666666668</ele><time>2026-04-19T11:13:01Z</time></trkpt><trkpt lat="14.549338116797806" lon="120.98652897727138"><ele>7.833333333333334</ele><time>2026-04-19T11:13:02Z</time></trkpt><trkpt lat="14.549402886185929" lon="120.98651225577169"><ele>7.0</ele><time>2026-04-19T11:13:03Z</time></trkpt><trkpt lat="14.549516672941879" lon="120.98648535992085"><ele>7.000000000000001</ele><time>2026-04-19T11:13:05Z</time></trkpt><trkpt lat="14.549618361541302" lon="120.98646198351018"><ele>7.0</ele><time>2026-04-19T11:13:07Z</time></trkpt><trkpt lat="14.549721209377116" lon="120.98643465618937"><ele>7.0</ele><time>2026-04-19T11:13:09Z</time></trkpt><trkpt lat="14.54978390534053" lon="120.98641921708968"><ele>7.0</ele><time>2026-04-19T11:13:10Z</time></trkpt><trkpt lat="14.54985327861296" lon="120.98640322777065"><ele>7.000000000000001</ele><time>2026-04-19T11:13:11Z</time></trkpt><trkpt lat="14.549928195024899" lon="120.98638571943006"><ele>7.0</ele><time>2026-04-19T11:13:12Z</time></trkpt><trkpt lat="14.550013513229118" lon="120.98636412936536"><ele>7.0</ele><time>2026-04-19T11:13:13Z</time></trkpt><trkpt lat="14.55010642634403" lon="120.98634263331581"><ele>6.999999999999999</ele><time>2026-04-19T11:13:14Z</time></trkpt><trkpt lat="14.550209901246937" lon="120.98632182727913"><ele>6.999999999999999</ele><time>2026-04-19T11:13:15Z</time></trkpt><trkpt lat="14.550312555175907" lon="120.98630356230295"><ele>7.0</ele><time>2026-04-19T11:13:16Z</time></trkpt><trkpt lat="14.550411609607124" lon="120.98628475900935"><ele>7.0</ele><time>2026-04-19T11:13:17Z</time></trkpt><trkpt lat="14.550507667907981" lon="120.98626525876328"><ele>7.000000000000001</ele><time>2026-04-19T11:13:18Z</time></trkpt><trkpt lat="14.550598892490774" lon="120.98624698577437"><ele>7.0</ele><time>2026-04-19T11:13:19Z</time></trkpt><trkpt lat="14.550689210806906" lon="120.98622871950185"><ele>7.0</ele><time>2026-04-19T11:13:20Z</time></trkpt><trkpt lat="14.550774085509246" lon="120.98620930237291"><ele>7.0</ele><time>2026-04-19T11:13:21Z</time></trkpt><trkpt lat="14.550850160165314" lon="120.98617230347186"><ele>7.000000000000001</ele><time>2026-04-19T11:13:22Z</time></trkpt><trkpt lat="14.550926498360361" lon="120.98615403944169"><ele>7.0</ele><time>2026-04-19T11:13:23Z</time></trkpt><trkpt lat="14.550996534313406" lon="120.98615267236474"><ele>7.0</ele><time>2026-04-19T11:13:24Z</time></trkpt><trkpt lat="14.551058920289302" lon="120.98613746647038"><ele>6.999999999999999</ele><time>2026-04-19T11:13:25Z</time></trkpt><trkpt lat="14.5511530057736" lon="120.98612852799364"><ele>6.999999999999999</ele><time>2026-04-19T11:13:27Z</time></trkpt><trkpt lat="14.551243344506254" lon="120.98614167373317"><ele>7.0</ele><time>2026-04-19T11:13:29Z</time></trkpt><trkpt lat="14.55133377750497" lon="120.98618966209008"><ele>7.0</ele><time>2026-04-19T11:13:31Z</time></trkpt><trkpt lat="14.551432326422436" lon="120.98622082482746"><ele>7.000000000000001</ele><time>2026-04-19T11:13:33Z</time></trkpt><trkpt lat="14.55143367188564" lon="120.98634990253673"><ele>7.0</ele><time>2026-04-19T11:13:34Z</time></trkpt><trkpt lat="14.551455442993936" lon="120.98641804235943"><ele>7.0</ele><time>2026-04-19T11:13:35Z</time></trkpt><trkpt lat="14.55147987039285" lon="120.9864959123183"><ele>7.0</ele><time>2026-04-19T11:13:36Z</time></trkpt><trkpt lat="14.551503724564391" lon="120.9865784585006"><ele>7.000000000000001</ele><time>2026-04-19T11:13:37Z</time></trkpt><trkpt lat="14.55152884153912" lon="120.98666193827636"><ele>7.0</ele><time>2026-04-19T11:13:38Z</time></trkpt><trkpt lat="14.551553857968239" lon="120.98674926480133"><ele>7.0</ele><time>2026-04-19T11:13:39Z</time></trkpt><trkpt lat="14.551579270241279" lon="120.98683912523536"><ele>6.999999999999999</ele><time>2026-04-19T11:13:40Z</time></trkpt><trkpt lat="14.551604890105633" lon="120.98692929819039"><ele>6.999999999999999</ele><time>2026-04-19T11:13:41Z</time></trkpt><trkpt lat="14.5516296856798" lon="120.98701872006478"><ele>7.0</ele><time>2026-04-19T11:13:42Z</time></trkpt><trkpt lat="14.551653685482618" lon="120.98710866930175"><ele>7.0</ele><time>2026-04-19T11:13:43Z</time></trkpt><trkpt lat="14.551677228668215" lon="120.98719795898153"><ele>7.0</ele><time>2026-04-19T11:13:44Z</time></trkpt><trkpt lat="14.551701588820675" lon="120.98729014777837"><ele>6.999999999999999</ele><time>2026-04-19T11:13:45Z</time></trkpt><trkpt lat="14.551722999354695" lon="120.98738455434909"><ele>6.999999999999999</ele><time>2026-04-19T11:13:46Z</time></trkpt><trkpt lat="14.551740217534881" lon="120.98748040848076"><ele>7.0</ele><time>2026-04-19T11:13:47Z</time></trkpt><trkpt lat="14.5517534605381" lon="120.98757519659017"><ele>7.0</ele><time>2026-04-19T11:13:48Z</time></trkpt><trkpt lat="14.551763508116403" lon="120.98766750083486"><ele>7.500000000000001</ele><time>2026-04-19T11:13:49Z</time></trkpt><trkpt lat="14.5517706206188" lon="120.98775508559275"><ele>8.0</ele><time>2026-04-19T11:13:50Z</time></trkpt><trkpt lat="14.551777824876659" lon="120.98783797358578"><ele>8.5</ele><time>2026-04-19T11:13:51Z</time></trkpt><trkpt lat="14.551783341228159" lon="120.98791358109443"><ele>9.0</ele><time>2026-04-19T11:13:52Z</time></trkpt><trkpt lat="14.551789061408943" lon="120.9879851673927"><ele>9.5</ele><time>2026-04-19T11:13:53Z</time></trkpt><trkpt lat="14.551794333002375" lon="120.98805403175383"><ele>10.0</ele><time>2026-04-19T11:13:54Z</time></trkpt><trkpt lat="14.551806021243168" lon="120.98818020537166"><ele>10.0</ele><time>2026-04-19T11:13:56Z</time></trkpt><trkpt lat="14.55181357792039" lon="120.9882956253821"><ele>10.0</ele><time>2026-04-19T11:13:58Z</time></trkpt><trkpt lat="14.551822019066387" lon="120.98838888805483"><ele>10.0</ele><time>2026-04-19T11:14:00Z</time></trkpt><trkpt lat="14.551841866090536" lon="120.98849304220992"><ele>10.0</ele><time>2026-04-19T11:14:02Z</time></trkpt><trkpt lat="14.551861779831636" lon="120.98855852027548"><ele>10.0</ele><time>2026-04-19T11:14:03Z</time></trkpt><trkpt lat="14.551887581948531" lon="120.98863716829398"><ele>9.0</ele><time>2026-04-19T11:14:04Z</time></trkpt><trkpt lat="14.551915143490467" lon="120.98872151896326"><ele>8.0</ele><time>2026-04-19T11:14:05Z</time></trkpt><trkpt lat="14.551946484438536" lon="120.98881766030507"><ele>7.0</ele><time>2026-04-19T11:14:06Z</time></trkpt><trkpt lat="14.551975776118546" lon="120.98891441033996"><ele>6.0</ele><time>2026-04-19T11:14:07Z</time></trkpt><trkpt lat="14.552007812186508" lon="120.98901407949229"><ele>5.0</ele><time>2026-04-19T11:14:08Z</time></trkpt><trkpt lat="14.552032667462289" lon="120.98911169615305"><ele>5.833333333333334</ele><time>2026-04-19T11:14:09Z</time></trkpt><trkpt lat="14.55205823244478" lon="120.98920536790561"><ele>6.666666666666667</ele><time>2026-04-19T11:14:10Z</time></trkpt><trkpt lat="14.552081264674408" lon="120.98929346067818"><ele>7.5</ele><time>2026-04-19T11:14:11Z</time></trkpt><trkpt lat="14.552104269816253" lon="120.98937403721648"><ele>8.333333333333334</ele><time>2026-04-19T11:14:12Z</time></trkpt><trkpt lat="14.552125836092289" lon="120.98944784374758"><ele>9.166666666666668</ele><time>2026-04-19T11:14:13Z</time></trkpt><trkpt lat="14.552144663007885" lon="120.98951173473834"><ele>10.0</ele><time>2026-04-19T11:14:14Z</time></trkpt><trkpt lat="14.552163774652696" lon="120.98957523651796"><ele>10.0</ele><time>2026-04-19T11:14:15Z</time></trkpt><trkpt lat="14.552192034536757" lon="120.98964485607303"><ele>10.0</ele><time>2026-04-19T11:14:16Z</time></trkpt><trkpt lat="14.55223388578482" lon="120.9897698439439"><ele>10.0</ele><time>2026-04-19T11:14:18Z</time></trkpt><trkpt lat="14.552255190855893" lon="120.98983832532558"><ele>10.0</ele><time>2026-04-19T11:14:19Z</time></trkpt><trkpt lat="14.552275217666093" lon="120.98990190219415"><ele>10.0</ele><time>2026-04-19T11:14:20Z</time></trkpt><trkpt lat="14.552312220277354" lon="120.99002566545293"><ele>10.0</ele><time>2026-04-19T11:14:22Z</time></trkpt><trkpt lat="14.552346798332247" lon="120.99013403764253"><ele>10.0</ele><time>2026-04-19T11:14:24Z</time></trkpt><trkpt lat="14.552380229631614" lon="120.99022851717703"><ele>10.0</ele><time>2026-04-19T11:14:26Z</time></trkpt><trkpt lat="14.552412690644259" lon="120.99031688600078"><ele>10.0</ele><time>2026-04-19T11:14:28Z</time></trkpt><trkpt lat="14.552450890732704" lon="120.99042192218002"><ele>10.0</ele><time>2026-04-19T11:14:30Z</time></trkpt><trkpt lat="14.552494671201417" lon="120.99053122910993"><ele>10.0</ele><time>2026-04-19T11:14:32Z</time></trkpt><trkpt lat="14.552529384963751" lon="120.99063609458341"><ele>10.0</ele><time>2026-04-19T11:14:34Z</time></trkpt><trkpt lat="14.552563084345739" lon="120.9907294348568"><ele>10.0</ele><time>2026-04-19T11:14:36Z</time></trkpt><trkpt lat="14.55259668539751" lon="120.99080497741465"><ele>10.0</ele><time>2026-04-19T11:14:37Z</time></trkpt><trkpt lat="14.552623138792505" lon="120.99089433248093"><ele>10.0</ele><time>2026-04-19T11:14:38Z</time></trkpt><trkpt lat="14.552655119400889" lon="120.99097253948467"><ele>10.0</ele><time>2026-04-19T11:14:39Z</time></trkpt><trkpt lat="14.552678394901625" lon="120.99106162216131"><ele>10.0</ele><time>2026-04-19T11:14:40Z</time></trkpt><trkpt lat="14.552704342082816" lon="120.99115431337442"><ele>10.0</ele><time>2026-04-19T11:14:41Z</time></trkpt><trkpt lat="14.552738302824594" lon="120.99125318444935"><ele>10.0</ele><time>2026-04-19T11:14:42Z</time></trkpt><trkpt lat="14.552770320997752" lon="120.99135454711661"><ele>10.0</ele><time>2026-04-19T11:14:43Z</time></trkpt><trkpt lat="14.55280143842529" lon="120.99145566125416"><ele>10.0</ele><time>2026-04-19T11:14:44Z</time></trkpt><trkpt lat="14.552834399326372" lon="120.99156152357853"><ele>10.0</ele><time>2026-04-19T11:14:45Z</time></trkpt><trkpt lat="14.552862569060016" lon="120.99166031264683"><ele>10.0</ele><time>2026-04-19T11:14:46Z</time></trkpt><trkpt lat="14.552897738776315" lon="120.99177570055005"><ele>10.0</ele><time>2026-04-19T11:14:47Z</time></trkpt><trkpt lat="14.5529332599057" lon="120.99189488696578"><ele>10.0</ele><time>2026-04-19T11:14:48Z</time></trkpt><trkpt lat="14.552971314795267" lon="120.99201620019362"><ele>10.0</ele><time>2026-04-19T11:14:49Z</time></trkpt><trkpt lat="14.552999910088108" lon="120.99213243579386"><ele>10.0</ele><time>2026-04-19T11:14:50Z</time></trkpt><trkpt lat="14.553031323829796" lon="120.99225143685585"><ele>10.0</ele><time>2026-04-19T11:14:51Z</time></trkpt><trkpt lat="14.553065868165996" lon="120.99237777366653"><ele>10.0</ele><time>2026-04-19T11:14:52Z</time></trkpt><trkpt lat="14.553095724296602" lon="120.99250291402717"><ele>9.75</ele><time>2026-04-19T11:14:53Z</time></trkpt><trkpt lat="14.553130933635067" lon="120.99263135960321"><ele>9.5</ele><time>2026-04-19T11:14:54Z</time></trkpt><trkpt lat="14.553162222679719" lon="120.9927575500114"><ele>9.25</ele><time>2026-04-19T11:14:55Z</time></trkpt><trkpt lat="14.5531897484605" lon="120.9928829640565"><ele>9.0</ele><time>2026-04-19T11:14:56Z</time></trkpt><trkpt lat="14.553212183822263" lon="120.99300509636424"><ele>9.0</ele><time>2026-04-19T11:14:57Z</time></trkpt><trkpt lat="14.553229545707676" lon="120.99312584540415"><ele>9.0</ele><time>2026-04-19T11:14:58Z</time></trkpt><trkpt lat="14.553246617142888" lon="120.99323000666095"><ele>9.0</ele><time>2026-04-19T11:14:59Z</time></trkpt><trkpt lat="14.553263788097466" lon="120.9933583892739"><ele>9.0</ele><time>2026-04-19T11:15:00Z</time></trkpt><trkpt lat="14.553274440290643" lon="120.99345835506838"><ele>9.0</ele><time>2026-04-19T11:15:01Z</time></trkpt><trkpt lat="14.553284883803721" lon="120.99355663668425"><ele>9.166666666666666</ele><time>2026-04-19T11:15:02Z</time></trkpt><trkpt lat="14.553292480545586" lon="120.99365144363536"><ele>9.333333333333334</ele><time>2026-04-19T11:15:03Z</time></trkpt><trkpt lat="14.553301556988005" lon="120.99374669877433"><ele>9.5</ele><time>2026-04-19T11:15:04Z</time></trkpt><trkpt lat="14.553310251224035" lon="120.99383405458514"><ele>9.666666666666668</ele><time>2026-04-19T11:15:05Z</time></trkpt><trkpt lat="14.553316916890424" lon="120.99390909188817"><ele>9.833333333333334</ele><time>2026-04-19T11:15:06Z</time></trkpt><trkpt lat="14.553329567110838" lon="120.99401743389795"><ele>10.0</ele><time>2026-04-19T11:15:08Z</time></trkpt><trkpt lat="14.553340147944066" lon="120.99408976103177"><ele>9.4</ele><time>2026-04-19T11:15:12Z</time></trkpt><trkpt lat="14.553350243314895" lon="120.99418728194745"><ele>8.8</ele><time>2026-04-19T11:15:16Z</time></trkpt><trkpt lat="14.553364676736283" lon="120.99428539690702"><ele>8.2</ele><time>2026-04-19T11:15:18Z</time></trkpt><trkpt lat="14.553381501428538" lon="120.99441560872525"><ele>7.6</ele><time>2026-04-19T11:15:20Z</time></trkpt><trkpt lat="14.553390939246984" lon="120.99448931162061"><ele>7.0</ele><time>2026-04-19T11:15:21Z</time></trkpt><trkpt lat="14.553398105436049" lon="120.99457030932393"><ele>7.000000000000001</ele><time>2026-04-19T11:15:22Z</time></trkpt><trkpt lat="14.55340825955001" lon="120.99465566545976"><ele>7.0</ele><time>2026-04-19T11:15:23Z</time></trkpt><trkpt lat="14.553416587507268" lon="120.99474220272286"><ele>7.0</ele><time>2026-04-19T11:15:24Z</time></trkpt><trkpt lat="14.553424959621893" lon="120.99482956448949"><ele>7.0</ele><time>2026-04-19T11:15:25Z</time></trkpt><trkpt lat="14.553435165145581" lon="120.99491913129499"><ele>7.000000000000001</ele><time>2026-04-19T11:15:26Z</time></trkpt><trkpt lat="14.553447068662882" lon="120.99500841464187"><ele>7.0</ele><time>2026-04-19T11:15:27Z</time></trkpt><trkpt lat="14.553460847339393" lon="120.99510328210633"><ele>8.2</ele><time>2026-04-19T11:15:28Z</time></trkpt><trkpt lat="14.55347527041168" lon="120.9952027351534"><ele>9.399999999999999</ele><time>2026-04-19T11:15:29Z</time></trkpt><trkpt lat="14.55349139743275" lon="120.99530230384565"><ele>10.600000000000001</ele><time>2026-04-19T11:15:30Z</time></trkpt><trkpt lat="14.553525945271833" lon="120.99540056879393"><ele>11.8</ele><time>2026-04-19T11:15:31Z</time></trkpt><trkpt lat="14.553538491804478" lon="120.9955120654814"><ele>13.0</ele><time>2026-04-19T11:15:32Z</time></trkpt><trkpt lat="14.553558979018888" lon="120.99561110387046"><ele>12.999999999999998</ele><time>2026-04-19T11:15:33Z</time></trkpt><trkpt lat="14.553582386742535" lon="120.9957097872091"><ele>13.0</ele><time>2026-04-19T11:15:34Z</time></trkpt><trkpt lat="14.553608039544828" lon="120.99579945672573"><ele>13.0</ele><time>2026-04-19T11:15:35Z</time></trkpt><trkpt lat="14.553630940188318" lon="120.9958849306539"><ele>13.0</ele><time>2026-04-19T11:15:36Z</time></trkpt><trkpt lat="14.553651754785152" lon="120.9959645945898"><ele>12.999999999999998</ele><time>2026-04-19T11:15:37Z</time></trkpt><trkpt lat="14.553671154797472" lon="120.99604100814949"><ele>13.0</ele><time>2026-04-19T11:15:38Z</time></trkpt><trkpt lat="14.553690237163332" lon="120.99612041380178"><ele>12.333333333333332</ele><time>2026-04-19T11:15:39Z</time></trkpt><trkpt lat="14.55370841693635" lon="120.99619437539323"><ele>11.666666666666666</ele><time>2026-04-19T11:15:40Z</time></trkpt><trkpt lat="14.553722996495377" lon="120.99625993602265"><ele>11.0</ele><time>2026-04-19T11:15:41Z</time></trkpt><trkpt lat="14.553744670597402" lon="120.99636267903303"><ele>10.333333333333332</ele><time>2026-04-19T11:15:43Z</time></trkpt><trkpt lat="14.553764181387862" lon="120.99645629444528"><ele>9.666666666666666</ele><time>2026-04-19T11:15:45Z</time></trkpt><trkpt lat="14.55378844206675" lon="120.99655532783608"><ele>9.0</ele><time>2026-04-19T11:15:47Z</time></trkpt><trkpt lat="14.553814127785008" lon="120.99665800418428"><ele>8.5</ele><time>2026-04-19T11:15:49Z</time></trkpt><trkpt lat="14.553839130263265" lon="120.99675004130737"><ele>8.0</ele><time>2026-04-19T11:15:51Z</time></trkpt><trkpt lat="14.553861344689418" lon="120.99683802857326"><ele>7.5</ele><time>2026-04-19T11:15:53Z</time></trkpt><trkpt lat="14.553884994476117" lon="120.99692450402144"><ele>7.0</ele><time>2026-04-19T11:15:55Z</time></trkpt><trkpt lat="14.553914105681837" lon="120.99701721382102"><ele>6.5</ele><time>2026-04-19T11:15:57Z</time></trkpt><trkpt lat="14.553958689585635" lon="120.99709517166964"><ele>6.0</ele><time>2026-04-19T11:15:59Z</time></trkpt><trkpt lat="14.554016035762277" lon="120.99715463231014"><ele>6.0</ele><time>2026-04-19T11:16:01Z</time></trkpt><trkpt lat="14.554088580846418" lon="120.9971573179553"><ele>6.0</ele><time>2026-04-19T11:16:07Z</time></trkpt><trkpt lat="14.554152399096953" lon="120.99717186069033"><ele>6.0</ele><time>2026-04-19T11:16:12Z</time></trkpt><trkpt lat="14.55422895947491" lon="120.9971597046728"><ele>6.0</ele><time>2026-04-19T11:16:18Z</time></trkpt><trkpt lat="14.554295323202934" lon="120.99713960993371"><ele>6.0</ele><time>2026-04-19T11:16:23Z</time></trkpt><trkpt lat="14.554360905124604" lon="120.99712770704834"><ele>6.0</ele><time>2026-04-19T11:16:32Z</time></trkpt><trkpt lat="14.554524209628315" lon="120.99710916596258"><ele>6.428571428571428</ele><time>2026-04-19T11:16:44Z</time></trkpt><trkpt lat="14.554594260996687" lon="120.99707665643972"><ele>6.857142857142858</ele><time>2026-04-19T11:16:46Z</time></trkpt><trkpt lat="14.554674999334235" lon="120.99705836394321"><ele>7.2857142857142865</ele><time>2026-04-19T11:16:47Z</time></trkpt><trkpt lat="14.554741798547152" lon="120.99704366964345"><ele>7.714285714285714</ele><time>2026-04-19T11:16:49Z</time></trkpt><trkpt lat="14.554806641977718" lon="120.99702987132235"><ele>8.142857142857142</ele><time>2026-04-19T11:16:51Z</time></trkpt><trkpt lat="14.554877902336278" lon="120.99701152313693"><ele>8.571428571428573</ele><time>2026-04-19T11:16:53Z</time></trkpt><trkpt lat="14.554956935470003" lon="120.99699420579908"><ele>9.0</ele><time>2026-04-19T11:16:57Z</time></trkpt><trkpt lat="14.555019258126858" lon="120.99698167068354"><ele>9.0</ele><time>2026-04-19T11:17:00Z</time></trkpt><trkpt lat="14.555103758154422" lon="120.99696343042956"><ele>9.0</ele><time>2026-04-19T11:17:03Z</time></trkpt><trkpt lat="14.555190890137254" lon="120.99694595545579"><ele>9.0</ele><time>2026-04-19T11:17:06Z</time></trkpt><trkpt lat="14.555277623403677" lon="120.9969282443185"><ele>9.0</ele><time>2026-04-19T11:17:09Z</time></trkpt><trkpt lat="14.555341749720663" lon="120.996915630732"><ele>9.0</ele><time>2026-04-19T11:17:11Z</time></trkpt><trkpt lat="14.555421829432786" lon="120.99689715541271"><ele>9.0</ele><time>2026-04-19T11:17:13Z</time></trkpt><trkpt lat="14.555499462871659" lon="120.99687815743077"><ele>9.0</ele><time>2026-04-19T11:17:15Z</time></trkpt><trkpt lat="14.55558006728308" lon="120.99685448791769"><ele>9.0</ele><time>2026-04-19T11:17:18Z</time></trkpt><trkpt lat="14.555656732009723" lon="120.99683106744445"><ele>9.0</ele><time>2026-04-19T11:17:23Z</time></trkpt><trkpt lat="14.555746951820216" lon="120.99681445147966"><ele>9.0</ele><time>2026-04-19T11:17:28Z</time></trkpt><trkpt lat="14.55584230686863" lon="120.99679501475241"><ele>9.0</ele><time>2026-04-19T11:17:30Z</time></trkpt><trkpt lat="14.555908317285777" lon="120.99678100928683"><ele>9.0</ele><time>2026-04-19T11:17:31Z</time></trkpt><trkpt lat="14.555976362363939" lon="120.99676445742327"><ele>9.0</ele><time>2026-04-19T11:17:32Z</time></trkpt><trkpt lat="14.55604889985017" lon="120.99674526051062"><ele>9.0</ele><time>2026-04-19T11:17:33Z</time></trkpt><trkpt lat="14.55612521589086" lon="120.99672692514251"><ele>9.0</ele><time>2026-04-19T11:17:34Z</time></trkpt><trkpt lat="14.55620519604914" lon="120.99670901204738"><ele>9.0</ele><time>2026-04-19T11:17:35Z</time></trkpt><trkpt lat="14.556289559491558" lon="120.9966871006835"><ele>9.0</ele><time>2026-04-19T11:17:36Z</time></trkpt><trkpt lat="14.556373001813299" lon="120.99667142341269"><ele>9.0</ele><time>2026-04-19T11:17:37Z</time></trkpt><trkpt lat="14.55645769489847" lon="120.99665075450076"><ele>8.833333333333334</ele><time>2026-04-19T11:17:38Z</time></trkpt><trkpt lat="14.556539215478221" lon="120.99663083599776"><ele>8.666666666666666</ele><time>2026-04-19T11:17:39Z</time></trkpt><trkpt lat="14.55661662345913" lon="120.9966122946488"><ele>8.5</ele><time>2026-04-19T11:17:40Z</time></trkpt><trkpt lat="14.556692324521864" lon="120.99659502097457"><ele>8.333333333333332</ele><time>2026-04-19T11:17:41Z</time></trkpt><trkpt lat="14.556766717360192" lon="120.99657853108259"><ele>8.166666666666666</ele><time>2026-04-19T11:17:42Z</time></trkpt><trkpt lat="14.556840326394283" lon="120.99656062520175"><ele>8.0</ele><time>2026-04-19T11:17:43Z</time></trkpt><trkpt lat="14.55691373706834" lon="120.99654266738233"><ele>7.999999999999999</ele><time>2026-04-19T11:17:44Z</time></trkpt><trkpt lat="14.556988765375854" lon="120.99652467294192"><ele>8.0</ele><time>2026-04-19T11:17:45Z</time></trkpt><trkpt lat="14.557064845531634" lon="120.99650542477758"><ele>8.0</ele><time>2026-04-19T11:17:46Z</time></trkpt><trkpt lat="14.557140006103884" lon="120.99648635345588"><ele>8.0</ele><time>2026-04-19T11:17:47Z</time></trkpt><trkpt lat="14.55721656964846" lon="120.99647037415805"><ele>7.999999999999999</ele><time>2026-04-19T11:17:48Z</time></trkpt><trkpt lat="14.557289311558963" lon="120.99645200783897"><ele>8.0</ele><time>2026-04-19T11:17:49Z</time></trkpt><trkpt lat="14.557353689097615" lon="120.99644296982191"><ele>8.5</ele><time>2026-04-19T11:17:50Z</time></trkpt><trkpt lat="14.557440520949939" lon="120.9964262969967"><ele>9.0</ele><time>2026-04-19T11:17:51Z</time></trkpt><trkpt lat="14.557517083577583" lon="120.99640967545275"><ele>9.5</ele><time>2026-04-19T11:17:52Z</time></trkpt><trkpt lat="14.55760073522729" lon="120.99638032453326"><ele>10.0</ele><time>2026-04-19T11:17:53Z</time></trkpt><trkpt lat="14.557684696022228" lon="120.99635870943173"><ele>10.5</ele><time>2026-04-19T11:17:54Z</time></trkpt><trkpt lat="14.557765884034024" lon="120.99634001442098"><ele>11.0</ele><time>2026-04-19T11:17:55Z</time></trkpt><trkpt lat="14.557839708482504" lon="120.99632279184681"><ele>10.666666666666666</ele><time>2026-04-19T11:17:56Z</time></trkpt><trkpt lat="14.557910182604385" lon="120.9963049443991"><ele>10.333333333333332</ele><time>2026-04-19T11:17:57Z</time></trkpt><trkpt lat="14.557975164977524" lon="120.99628784912431"><ele>10.0</ele><time>2026-04-19T11:17:58Z</time></trkpt><trkpt lat="14.558078692753899" lon="120.99625734655801"><ele>9.666666666666666</ele><time>2026-04-19T11:18:00Z</time></trkpt><trkpt lat="14.55814134468712" lon="120.99623972537056"><ele>9.333333333333334</ele><time>2026-04-19T11:18:03Z</time></trkpt><trkpt lat="14.558202114081604" lon="120.99620955437454"><ele>9.0</ele><time>2026-04-19T11:18:08Z</time></trkpt><trkpt lat="14.558178279337374" lon="120.99609084204624"><ele>9.0</ele><time>2026-04-19T11:18:16Z</time></trkpt><trkpt lat="14.558158318571902" lon="120.99601996449213"><ele>9.0</ele><time>2026-04-19T11:18:19Z</time></trkpt><trkpt lat="14.55812217966368" lon="120.99594825627835"><ele>9.0</ele><time>2026-04-19T11:18:22Z</time></trkpt><trkpt lat="14.558047463678495" lon="120.9959359376297"><ele>9.0</ele><time>2026-04-19T11:18:24Z</time></trkpt><trkpt lat="14.5580677407414" lon="120.99585523062655"><ele>9.0</ele><time>2026-04-19T11:18:26Z</time></trkpt><trkpt lat="14.558049334458396" lon="120.9957923767395"><ele>9.0</ele><time>2026-04-19T11:18:28Z</time></trkpt><trkpt lat="14.558051836690131" lon="120.99570845567389"><ele>9.0</ele><time>2026-04-19T11:18:31Z</time></trkpt><trkpt lat="14.558171814490546" lon="120.99577996128366"><ele>9.0</ele><time>2026-04-19T11:18:32Z</time></trkpt><trkpt lat="14.558010050061744" lon="120.99564290382247"><ele>9.0</ele><time>2026-04-19T11:18:37Z</time></trkpt><trkpt lat="14.55796620757981" lon="120.99559126412746"><ele>9.0</ele><time>2026-04-19T11:18:38Z</time></trkpt><trkpt lat="14.557902214575197" lon="120.99558671159812"><ele>9.0</ele><time>2026-04-19T11:18:41Z</time></trkpt><trkpt lat="14.5578311522024" lon="120.99563692296842"><ele>9.0</ele><time>2026-04-19T11:18:45Z</time></trkpt><trkpt lat="14.557811772197244" lon="120.9957314820869"><ele>9.0</ele><time>2026-04-19T11:18:48Z</time></trkpt><trkpt lat="14.557858453966427" lon="120.9958050381714"><ele>9.0</ele><time>2026-04-19T11:18:51Z</time></trkpt><trkpt lat="14.557919485768217" lon="120.9958238072964"><ele>9.0</ele><time>2026-04-19T11:18:53Z</time></trkpt><trkpt lat="14.557979633101187" lon="120.99580128904951"><ele>9.0</ele><time>2026-04-19T11:18:55Z</time></trkpt><trkpt lat="14.558128066361725" lon="120.9959396902641"><ele>9.0</ele><time>2026-04-19T11:18:57Z</time></trkpt><trkpt lat="14.55804533973508" lon="120.99565797994674"><ele>9.0</ele><time>2026-04-19T11:19:02Z</time></trkpt><trkpt lat="14.558036250533148" lon="120.99558736462326"><ele>9.0</ele><time>2026-04-19T11:19:04Z</time></trkpt><trkpt lat="14.557837749514622" lon="120.99563884622778"><ele>9.0</ele><time>2026-04-19T11:19:06Z</time></trkpt><trkpt lat="14.55780440703724" lon="120.99569849581376"><ele>9.0</ele><time>2026-04-19T11:19:14Z</time></trkpt><trkpt lat="14.557825161655522" lon="120.99576461394186"><ele>9.0</ele><time>2026-04-19T11:19:16Z</time></trkpt><trkpt lat="14.557897300747646" lon="120.99582232809063"><ele>9.0</ele><time>2026-04-19T11:19:19Z</time></trkpt><trkpt lat="14.557961625010007" lon="120.99580826714825"><ele>9.0</ele><time>2026-04-19T11:19:21Z</time></trkpt><trkpt lat="14.558025834601278" lon="120.99574101715966"><ele>9.0</ele><time>2026-04-19T11:19:24Z</time></trkpt><trkpt lat="14.558024190849396" lon="120.99567120247153"><ele>9.000000000000002</ele><time>2026-04-19T11:19:26Z</time></trkpt><trkpt lat="14.557998452862678" lon="120.99560444791159"><ele>9.0</ele><time>2026-04-19T11:19:28Z</time></trkpt><trkpt lat="14.557930109238837" lon="120.99556404747237"><ele>9.0</ele><time>2026-04-19T11:19:31Z</time></trkpt><trkpt lat="14.557869963704116" lon="120.9955976598464"><ele>9.0</ele><time>2026-04-19T11:19:34Z</time></trkpt><trkpt lat="14.5578189554301" lon="120.99565834652643"><ele>9.0</ele><time>2026-04-19T11:19:37Z</time></trkpt><trkpt lat="14.557809098563014" lon="120.99572368213524"><ele>9.000000000000002</ele><time>2026-04-19T11:19:39Z</time></trkpt><trkpt lat="14.557839186305666" lon="120.99578633418"><ele>9.0</ele><time>2026-04-19T11:19:41Z</time></trkpt><trkpt lat="14.55789938876974" lon="120.99582258457569"><ele>9.000000000000002</ele><time>2026-04-19T11:19:43Z</time></trkpt><trkpt lat="14.557964066726791" lon="120.99580803495152"><ele>9.0</ele><time>2026-04-19T11:19:45Z</time></trkpt><trkpt lat="14.558015780137271" lon="120.99576817057667"><ele>9.0</ele><time>2026-04-19T11:19:47Z</time></trkpt><trkpt lat="14.558035353782058" lon="120.9956933108341"><ele>9.0</ele><time>2026-04-19T11:19:49Z</time></trkpt><trkpt lat="14.558011692207428" lon="120.99562434951716"><ele>9.0</ele><time>2026-04-19T11:19:51Z</time></trkpt><trkpt lat="14.557977128787256" lon="120.99556878416098"><ele>9.000000000000002</ele><time>2026-04-19T11:19:53Z</time></trkpt><trkpt lat="14.557911818235315" lon="120.99557079499834"><ele>9.0</ele><time>2026-04-19T11:19:56Z</time></trkpt><trkpt lat="14.557852718968618" lon="120.9956076225539"><ele>9.0</ele><time>2026-04-19T11:19:59Z</time></trkpt><trkpt lat="14.557810872584295" lon="120.99569089115978"><ele>9.0</ele><time>2026-04-19T11:20:02Z</time></trkpt><trkpt lat="14.557830992706373" lon="120.99576586870103"><ele>9.0</ele><time>2026-04-19T11:20:04Z</time></trkpt><trkpt lat="14.557882029230507" lon="120.99581372228138"><ele>9.0</ele><time>2026-04-19T11:20:06Z</time></trkpt><trkpt lat="14.557952213008774" lon="120.99581292468449"><ele>9.0</ele><time>2026-04-19T11:20:08Z</time></trkpt><trkpt lat="14.558033224415505" lon="120.99576629527579"><ele>9.0</ele><time>2026-04-19T11:20:11Z</time></trkpt><trkpt lat="14.558117095103269" lon="120.99578757628258"><ele>9.0</ele><time>2026-04-19T11:20:14Z</time></trkpt><trkpt lat="14.55820060108331" lon="120.99575730759811"><ele>9.0</ele><time>2026-04-19T11:20:17Z</time></trkpt><trkpt lat="14.558209328345946" lon="120.9956711632864"><ele>9.0</ele><time>2026-04-19T11:20:20Z</time></trkpt><trkpt lat="14.558176346415134" lon="120.99561229970597"><ele>9.0</ele><time>2026-04-19T11:20:22Z</time></trkpt><trkpt lat="14.558136365393493" lon="120.9955431443458"><ele>9.0</ele><time>2026-04-19T11:20:24Z</time></trkpt><trkpt lat="14.558099739300305" lon="120.99548088967768"><ele>9.0</ele><time>2026-04-19T11:20:26Z</time></trkpt><trkpt lat="14.558116377234901" lon="120.99541331461582"><ele>9.0</ele><time>2026-04-19T11:20:29Z</time></trkpt><trkpt lat="14.558196809708628" lon="120.99538796754014"><ele>9.0</ele><time>2026-04-19T11:20:33Z</time></trkpt><trkpt lat="14.558236528015872" lon="120.99545531120707"><ele>9.0</ele><time>2026-04-19T11:20:44Z</time></trkpt><trkpt lat="14.558277560575746" lon="120.99540240415766"><ele>9.0</ele><time>2026-04-19T11:20:51Z</time></trkpt><trkpt lat="14.558337188031643" lon="120.99574447951242"><ele>9.0</ele><time>2026-04-19T11:21:24.009Z</time></trkpt><trkpt lat="14.558336534954876" lon="120.9955239141771"><ele>9.0</ele><time>2026-04-19T11:21:39.015Z</time></trkpt><trkpt lat="14.558301777120628" lon="120.99544153920093"><ele>9.0</ele><time>2026-04-19T11:21:40.015Z</time></trkpt><trkpt lat="14.558259409164963" lon="120.9953906176334"><ele>9.0</ele><time>2026-04-19T11:24:46Z</time></trkpt><trkpt lat="14.558176197257259" lon="120.99539305569839"><ele>9.0</ele><time>2026-04-19T11:25:07Z</time></trkpt><trkpt lat="14.558301159689032" lon="120.99536938072131"><ele>9.0</ele><time>2026-04-19T11:25:22Z</time></trkpt></trkseg></trk></gpx>